<?xml version="1.0" encoding="UTF-8"?>
<gpx version="1.0" creator="GPSBabel - http://www.gpsbabel.org" xmlns="http://www.topografix.com/GPX/1/0">
  <time>2019-07-28T01:01:38.053Z</time>
  <bounds minlat="35.832129510" minlon="-106.530445780" maxlat="35.974998990" maxlon="-106.484471190"/>
  <trk>
    <name>Valles Caldera Driveabout.CalderaDriveAbout.PatGarth.2019-07-14</name>
    <trkseg>
      <trkpt lat="35.832174050" lon="-106.487157270">
        <ele>2628.000</ele>
        <time>2019-07-14T21:15:57Z</time>
      </trkpt>
      <trkpt lat="35.832197600" lon="-106.487243880">
        <ele>2629.800</ele>
        <time>2019-07-14T21:15:58Z</time>
      </trkpt>
      <trkpt lat="35.832225430" lon="-106.487329390">
        <ele>2628.300</ele>
        <time>2019-07-14T21:15:59Z</time>
      </trkpt>
      <trkpt lat="35.832247970" lon="-106.487408050">
        <ele>2628.400</ele>
        <time>2019-07-14T21:16:00Z</time>
      </trkpt>
      <trkpt lat="35.832278840" lon="-106.487481470">
        <ele>2629.500</ele>
        <time>2019-07-14T21:16:01Z</time>
      </trkpt>
      <trkpt lat="35.832319850" lon="-106.487559110">
        <ele>2627.000</ele>
        <time>2019-07-14T21:16:02Z</time>
      </trkpt>
      <trkpt lat="35.832363310" lon="-106.487638760">
        <ele>2625.800</ele>
        <time>2019-07-14T21:16:03Z</time>
      </trkpt>
      <trkpt lat="35.832402780" lon="-106.487728690">
        <ele>2625.000</ele>
        <time>2019-07-14T21:16:04Z</time>
      </trkpt>
      <trkpt lat="35.832441700" lon="-106.487804630">
        <ele>2625.200</ele>
        <time>2019-07-14T21:16:05Z</time>
      </trkpt>
      <trkpt lat="35.832479850" lon="-106.487876700">
        <ele>2624.700</ele>
        <time>2019-07-14T21:16:06Z</time>
      </trkpt>
      <trkpt lat="35.832506420" lon="-106.487951410">
        <ele>2623.800</ele>
        <time>2019-07-14T21:16:07Z</time>
      </trkpt>
      <trkpt lat="35.832540400" lon="-106.488029090">
        <ele>2622.200</ele>
        <time>2019-07-14T21:16:08Z</time>
      </trkpt>
      <trkpt lat="35.832574820" lon="-106.488099440">
        <ele>2621.400</ele>
        <time>2019-07-14T21:16:09Z</time>
      </trkpt>
      <trkpt lat="35.832619870" lon="-106.488172730">
        <ele>2619.600</ele>
        <time>2019-07-14T21:16:10Z</time>
      </trkpt>
      <trkpt lat="35.832662100" lon="-106.488239660">
        <ele>2619.200</ele>
        <time>2019-07-14T21:16:11Z</time>
      </trkpt>
      <trkpt lat="35.832710640" lon="-106.488313450">
        <ele>2618.900</ele>
        <time>2019-07-14T21:16:12Z</time>
      </trkpt>
      <trkpt lat="35.832756970" lon="-106.488384700">
        <ele>2618.900</ele>
        <time>2019-07-14T21:16:13Z</time>
      </trkpt>
      <trkpt lat="35.832804140" lon="-106.488442580">
        <ele>2619.100</ele>
        <time>2019-07-14T21:16:14Z</time>
      </trkpt>
      <trkpt lat="35.832856420" lon="-106.488504690">
        <ele>2617.900</ele>
        <time>2019-07-14T21:16:15Z</time>
      </trkpt>
      <trkpt lat="35.832918610" lon="-106.488571750">
        <ele>2615.400</ele>
        <time>2019-07-14T21:16:16Z</time>
      </trkpt>
      <trkpt lat="35.832971550" lon="-106.488642540">
        <ele>2615.600</ele>
        <time>2019-07-14T21:16:17Z</time>
      </trkpt>
      <trkpt lat="35.833027440" lon="-106.488715380">
        <ele>2615.200</ele>
        <time>2019-07-14T21:16:18Z</time>
      </trkpt>
      <trkpt lat="35.833080070" lon="-106.488787790">
        <ele>2615.400</ele>
        <time>2019-07-14T21:16:19Z</time>
      </trkpt>
      <trkpt lat="35.833146030" lon="-106.488864800">
        <ele>2614.000</ele>
        <time>2019-07-14T21:16:20Z</time>
      </trkpt>
      <trkpt lat="35.833198640" lon="-106.488939850">
        <ele>2613.900</ele>
        <time>2019-07-14T21:16:21Z</time>
      </trkpt>
      <trkpt lat="35.833248140" lon="-106.489009720">
        <ele>2614.100</ele>
        <time>2019-07-14T21:16:22Z</time>
      </trkpt>
      <trkpt lat="35.833302380" lon="-106.489082900">
        <ele>2613.900</ele>
        <time>2019-07-14T21:16:23Z</time>
      </trkpt>
      <trkpt lat="35.833351520" lon="-106.489161170">
        <ele>2614.300</ele>
        <time>2019-07-14T21:16:24Z</time>
      </trkpt>
      <trkpt lat="35.833398310" lon="-106.489240410">
        <ele>2613.900</ele>
        <time>2019-07-14T21:16:25Z</time>
      </trkpt>
      <trkpt lat="35.833449790" lon="-106.489315010">
        <ele>2613.900</ele>
        <time>2019-07-14T21:16:26Z</time>
      </trkpt>
      <trkpt lat="35.833498000" lon="-106.489402450">
        <ele>2613.600</ele>
        <time>2019-07-14T21:16:27Z</time>
      </trkpt>
      <trkpt lat="35.833547490" lon="-106.489486290">
        <ele>2613.500</ele>
        <time>2019-07-14T21:16:28Z</time>
      </trkpt>
      <trkpt lat="35.833599020" lon="-106.489565290">
        <ele>2613.300</ele>
        <time>2019-07-14T21:16:29Z</time>
      </trkpt>
      <trkpt lat="35.833655150" lon="-106.489662060">
        <ele>2610.700</ele>
        <time>2019-07-14T21:16:30Z</time>
      </trkpt>
      <trkpt lat="35.833709420" lon="-106.489733140">
        <ele>2612.000</ele>
        <time>2019-07-14T21:16:31Z</time>
      </trkpt>
      <trkpt lat="35.833766990" lon="-106.489816160">
        <ele>2610.500</ele>
        <time>2019-07-14T21:16:32Z</time>
      </trkpt>
      <trkpt lat="35.833819750" lon="-106.489905080">
        <ele>2610.700</ele>
        <time>2019-07-14T21:16:33Z</time>
      </trkpt>
      <trkpt lat="35.833876510" lon="-106.489998500">
        <ele>2608.000</ele>
        <time>2019-07-14T21:16:34Z</time>
      </trkpt>
      <trkpt lat="35.833934860" lon="-106.490073720">
        <ele>2607.900</ele>
        <time>2019-07-14T21:16:35Z</time>
      </trkpt>
      <trkpt lat="35.833989820" lon="-106.490126650">
        <ele>2608.600</ele>
        <time>2019-07-14T21:16:36Z</time>
      </trkpt>
      <trkpt lat="35.834052150" lon="-106.490195330">
        <ele>2607.700</ele>
        <time>2019-07-14T21:16:37Z</time>
      </trkpt>
      <trkpt lat="35.834115150" lon="-106.490256150">
        <ele>2608.400</ele>
        <time>2019-07-14T21:16:38Z</time>
      </trkpt>
      <trkpt lat="35.834181540" lon="-106.490314620">
        <ele>2607.800</ele>
        <time>2019-07-14T21:16:39Z</time>
      </trkpt>
      <trkpt lat="35.834254650" lon="-106.490370460">
        <ele>2607.300</ele>
        <time>2019-07-14T21:16:40Z</time>
      </trkpt>
      <trkpt lat="35.834312490" lon="-106.490424090">
        <ele>2607.900</ele>
        <time>2019-07-14T21:16:41Z</time>
      </trkpt>
      <trkpt lat="35.834390050" lon="-106.490483240">
        <ele>2606.100</ele>
        <time>2019-07-14T21:16:42Z</time>
      </trkpt>
      <trkpt lat="35.834461660" lon="-106.490537260">
        <ele>2606.900</ele>
        <time>2019-07-14T21:16:43Z</time>
      </trkpt>
      <trkpt lat="35.834536540" lon="-106.490596460">
        <ele>2605.600</ele>
        <time>2019-07-14T21:16:44Z</time>
      </trkpt>
      <trkpt lat="35.834612460" lon="-106.490645440">
        <ele>2605.600</ele>
        <time>2019-07-14T21:16:45Z</time>
      </trkpt>
      <trkpt lat="35.834684680" lon="-106.490701180">
        <ele>2605.700</ele>
        <time>2019-07-14T21:16:46Z</time>
      </trkpt>
      <trkpt lat="35.834761250" lon="-106.490758100">
        <ele>2603.900</ele>
        <time>2019-07-14T21:16:47Z</time>
      </trkpt>
      <trkpt lat="35.834837300" lon="-106.490803680">
        <ele>2603.400</ele>
        <time>2019-07-14T21:16:48Z</time>
      </trkpt>
      <trkpt lat="35.834921610" lon="-106.490848520">
        <ele>2601.300</ele>
        <time>2019-07-14T21:16:49Z</time>
      </trkpt>
      <trkpt lat="35.835007680" lon="-106.490897450">
        <ele>2598.700</ele>
        <time>2019-07-14T21:16:50Z</time>
      </trkpt>
      <trkpt lat="35.835090940" lon="-106.490937530">
        <ele>2598.200</ele>
        <time>2019-07-14T21:16:51Z</time>
      </trkpt>
      <trkpt lat="35.835175510" lon="-106.490970770">
        <ele>2598.000</ele>
        <time>2019-07-14T21:16:52Z</time>
      </trkpt>
      <trkpt lat="35.835270450" lon="-106.491010950">
        <ele>2598.100</ele>
        <time>2019-07-14T21:16:53Z</time>
      </trkpt>
      <trkpt lat="35.835356280" lon="-106.491034460">
        <ele>2597.700</ele>
        <time>2019-07-14T21:16:54Z</time>
      </trkpt>
      <trkpt lat="35.835448950" lon="-106.491061430">
        <ele>2597.200</ele>
        <time>2019-07-14T21:16:55Z</time>
      </trkpt>
      <trkpt lat="35.835541550" lon="-106.491079850">
        <ele>2596.700</ele>
        <time>2019-07-14T21:16:56Z</time>
      </trkpt>
      <trkpt lat="35.835635910" lon="-106.491080480">
        <ele>2597.400</ele>
        <time>2019-07-14T21:16:57Z</time>
      </trkpt>
      <trkpt lat="35.835717780" lon="-106.491087320">
        <ele>2597.600</ele>
        <time>2019-07-14T21:16:58Z</time>
      </trkpt>
      <trkpt lat="35.835800230" lon="-106.491096430">
        <ele>2597.000</ele>
        <time>2019-07-14T21:16:59Z</time>
      </trkpt>
      <trkpt lat="35.835879380" lon="-106.491108600">
        <ele>2596.400</ele>
        <time>2019-07-14T21:17:00Z</time>
      </trkpt>
      <trkpt lat="35.835957990" lon="-106.491114820">
        <ele>2595.900</ele>
        <time>2019-07-14T21:17:01Z</time>
      </trkpt>
      <trkpt lat="35.836017520" lon="-106.491112340">
        <ele>2594.800</ele>
        <time>2019-07-14T21:17:02Z</time>
      </trkpt>
      <trkpt lat="35.836098740" lon="-106.491126240">
        <ele>2594.400</ele>
        <time>2019-07-14T21:17:03Z</time>
      </trkpt>
      <trkpt lat="35.836180350" lon="-106.491135060">
        <ele>2593.100</ele>
        <time>2019-07-14T21:17:04Z</time>
      </trkpt>
      <trkpt lat="35.836260700" lon="-106.491152200">
        <ele>2592.800</ele>
        <time>2019-07-14T21:17:05Z</time>
      </trkpt>
      <trkpt lat="35.836341180" lon="-106.491167310">
        <ele>2593.000</ele>
        <time>2019-07-14T21:17:06Z</time>
      </trkpt>
      <trkpt lat="35.836416160" lon="-106.491186680">
        <ele>2592.500</ele>
        <time>2019-07-14T21:17:07Z</time>
      </trkpt>
      <trkpt lat="35.836486450" lon="-106.491211530">
        <ele>2591.500</ele>
        <time>2019-07-14T21:17:08Z</time>
      </trkpt>
      <trkpt lat="35.836568570" lon="-106.491231970">
        <ele>2591.200</ele>
        <time>2019-07-14T21:17:09Z</time>
      </trkpt>
      <trkpt lat="35.836649490" lon="-106.491262430">
        <ele>2591.800</ele>
        <time>2019-07-14T21:17:10Z</time>
      </trkpt>
      <trkpt lat="35.836744510" lon="-106.491294910">
        <ele>2590.200</ele>
        <time>2019-07-14T21:17:11Z</time>
      </trkpt>
      <trkpt lat="35.836832850" lon="-106.491319090">
        <ele>2590.100</ele>
        <time>2019-07-14T21:17:12Z</time>
      </trkpt>
      <trkpt lat="35.836931770" lon="-106.491341010">
        <ele>2589.500</ele>
        <time>2019-07-14T21:17:13Z</time>
      </trkpt>
      <trkpt lat="35.837028540" lon="-106.491344860">
        <ele>2588.400</ele>
        <time>2019-07-14T21:17:14Z</time>
      </trkpt>
      <trkpt lat="35.837123070" lon="-106.491352270">
        <ele>2586.400</ele>
        <time>2019-07-14T21:17:15Z</time>
      </trkpt>
      <trkpt lat="35.837208640" lon="-106.491368150">
        <ele>2586.900</ele>
        <time>2019-07-14T21:17:16Z</time>
      </trkpt>
      <trkpt lat="35.837295820" lon="-106.491386480">
        <ele>2586.600</ele>
        <time>2019-07-14T21:17:17Z</time>
      </trkpt>
      <trkpt lat="35.837388520" lon="-106.491405710">
        <ele>2586.100</ele>
        <time>2019-07-14T21:17:18Z</time>
      </trkpt>
      <trkpt lat="35.837486930" lon="-106.491424490">
        <ele>2585.100</ele>
        <time>2019-07-14T21:17:19Z</time>
      </trkpt>
      <trkpt lat="35.837583200" lon="-106.491444040">
        <ele>2584.900</ele>
        <time>2019-07-14T21:17:20Z</time>
      </trkpt>
      <trkpt lat="35.837682790" lon="-106.491467080">
        <ele>2584.300</ele>
        <time>2019-07-14T21:17:21Z</time>
      </trkpt>
      <trkpt lat="35.837776200" lon="-106.491495520">
        <ele>2584.400</ele>
        <time>2019-07-14T21:17:22Z</time>
      </trkpt>
      <trkpt lat="35.837876000" lon="-106.491525530">
        <ele>2583.800</ele>
        <time>2019-07-14T21:17:23Z</time>
      </trkpt>
      <trkpt lat="35.837977040" lon="-106.491562820">
        <ele>2583.900</ele>
        <time>2019-07-14T21:17:24Z</time>
      </trkpt>
      <trkpt lat="35.838074210" lon="-106.491605350">
        <ele>2584.100</ele>
        <time>2019-07-14T21:17:25Z</time>
      </trkpt>
      <trkpt lat="35.838158790" lon="-106.491640250">
        <ele>2584.900</ele>
        <time>2019-07-14T21:17:26Z</time>
      </trkpt>
      <trkpt lat="35.838253890" lon="-106.491681810">
        <ele>2584.000</ele>
        <time>2019-07-14T21:17:27Z</time>
      </trkpt>
      <trkpt lat="35.838343830" lon="-106.491722770">
        <ele>2584.200</ele>
        <time>2019-07-14T21:17:28Z</time>
      </trkpt>
      <trkpt lat="35.838431360" lon="-106.491761300">
        <ele>2584.100</ele>
        <time>2019-07-14T21:17:29Z</time>
      </trkpt>
      <trkpt lat="35.838527570" lon="-106.491790470">
        <ele>2584.000</ele>
        <time>2019-07-14T21:17:30Z</time>
      </trkpt>
      <trkpt lat="35.838640060" lon="-106.491779650">
        <ele>2582.200</ele>
        <time>2019-07-14T21:17:31Z</time>
      </trkpt>
      <trkpt lat="35.838725380" lon="-106.491787460">
        <ele>2583.300</ele>
        <time>2019-07-14T21:17:32Z</time>
      </trkpt>
      <trkpt lat="35.838814920" lon="-106.491782510">
        <ele>2584.400</ele>
        <time>2019-07-14T21:17:33Z</time>
      </trkpt>
      <trkpt lat="35.838907790" lon="-106.491777670">
        <ele>2584.300</ele>
        <time>2019-07-14T21:17:34Z</time>
      </trkpt>
      <trkpt lat="35.839002640" lon="-106.491780610">
        <ele>2583.200</ele>
        <time>2019-07-14T21:17:35Z</time>
      </trkpt>
      <trkpt lat="35.839098700" lon="-106.491763170">
        <ele>2581.700</ele>
        <time>2019-07-14T21:17:36Z</time>
      </trkpt>
      <trkpt lat="35.839183170" lon="-106.491750080">
        <ele>2582.400</ele>
        <time>2019-07-14T21:17:37Z</time>
      </trkpt>
      <trkpt lat="35.839270080" lon="-106.491741310">
        <ele>2581.900</ele>
        <time>2019-07-14T21:17:38Z</time>
      </trkpt>
      <trkpt lat="35.839358350" lon="-106.491740920">
        <ele>2581.800</ele>
        <time>2019-07-14T21:17:39Z</time>
      </trkpt>
      <trkpt lat="35.839444840" lon="-106.491737330">
        <ele>2581.300</ele>
        <time>2019-07-14T21:17:40Z</time>
      </trkpt>
      <trkpt lat="35.839527520" lon="-106.491728780">
        <ele>2580.800</ele>
        <time>2019-07-14T21:17:41Z</time>
      </trkpt>
      <trkpt lat="35.839612720" lon="-106.491730930">
        <ele>2581.300</ele>
        <time>2019-07-14T21:17:42Z</time>
      </trkpt>
      <trkpt lat="35.839698280" lon="-106.491740600">
        <ele>2581.300</ele>
        <time>2019-07-14T21:17:43Z</time>
      </trkpt>
      <trkpt lat="35.839778970" lon="-106.491759880">
        <ele>2580.900</ele>
        <time>2019-07-14T21:17:44Z</time>
      </trkpt>
      <trkpt lat="35.839863840" lon="-106.491779460">
        <ele>2580.700</ele>
        <time>2019-07-14T21:17:45Z</time>
      </trkpt>
      <trkpt lat="35.839945590" lon="-106.491802790">
        <ele>2580.800</ele>
        <time>2019-07-14T21:17:46Z</time>
      </trkpt>
      <trkpt lat="35.840024660" lon="-106.491822620">
        <ele>2580.500</ele>
        <time>2019-07-14T21:17:47Z</time>
      </trkpt>
      <trkpt lat="35.840101110" lon="-106.491846660">
        <ele>2580.700</ele>
        <time>2019-07-14T21:17:48Z</time>
      </trkpt>
      <trkpt lat="35.840177930" lon="-106.491875630">
        <ele>2580.600</ele>
        <time>2019-07-14T21:17:49Z</time>
      </trkpt>
      <trkpt lat="35.840247060" lon="-106.491908120">
        <ele>2580.800</ele>
        <time>2019-07-14T21:17:50Z</time>
      </trkpt>
      <trkpt lat="35.840316120" lon="-106.491944590">
        <ele>2580.200</ele>
        <time>2019-07-14T21:17:51Z</time>
      </trkpt>
      <trkpt lat="35.840391840" lon="-106.491990500">
        <ele>2579.500</ele>
        <time>2019-07-14T21:17:52Z</time>
      </trkpt>
      <trkpt lat="35.840468120" lon="-106.492041150">
        <ele>2578.900</ele>
        <time>2019-07-14T21:17:53Z</time>
      </trkpt>
      <trkpt lat="35.840537000" lon="-106.492097880">
        <ele>2578.100</ele>
        <time>2019-07-14T21:17:54Z</time>
      </trkpt>
      <trkpt lat="35.840611700" lon="-106.492150210">
        <ele>2575.900</ele>
        <time>2019-07-14T21:17:55Z</time>
      </trkpt>
      <trkpt lat="35.840680320" lon="-106.492200540">
        <ele>2574.900</ele>
        <time>2019-07-14T21:17:56Z</time>
      </trkpt>
      <trkpt lat="35.840750070" lon="-106.492251430">
        <ele>2574.800</ele>
        <time>2019-07-14T21:17:57Z</time>
      </trkpt>
      <trkpt lat="35.840825560" lon="-106.492297420">
        <ele>2574.600</ele>
        <time>2019-07-14T21:17:58Z</time>
      </trkpt>
      <trkpt lat="35.840906580" lon="-106.492344440">
        <ele>2574.600</ele>
        <time>2019-07-14T21:17:59Z</time>
      </trkpt>
      <trkpt lat="35.840989240" lon="-106.492380850">
        <ele>2575.000</ele>
        <time>2019-07-14T21:18:00Z</time>
      </trkpt>
      <trkpt lat="35.841065690" lon="-106.492424060">
        <ele>2575.200</ele>
        <time>2019-07-14T21:18:01Z</time>
      </trkpt>
      <trkpt lat="35.841138770" lon="-106.492462480">
        <ele>2575.400</ele>
        <time>2019-07-14T21:18:02Z</time>
      </trkpt>
      <trkpt lat="35.841233200" lon="-106.492495040">
        <ele>2575.500</ele>
        <time>2019-07-14T21:18:03Z</time>
      </trkpt>
      <trkpt lat="35.841303060" lon="-106.492492650">
        <ele>2576.000</ele>
        <time>2019-07-14T21:18:04Z</time>
      </trkpt>
      <trkpt lat="35.841388650" lon="-106.492502740">
        <ele>2575.800</ele>
        <time>2019-07-14T21:18:05Z</time>
      </trkpt>
      <trkpt lat="35.841466470" lon="-106.492491400">
        <ele>2575.400</ele>
        <time>2019-07-14T21:18:06Z</time>
      </trkpt>
      <trkpt lat="35.841542870" lon="-106.492478980">
        <ele>2575.600</ele>
        <time>2019-07-14T21:18:07Z</time>
      </trkpt>
      <trkpt lat="35.841615550" lon="-106.492445310">
        <ele>2575.300</ele>
        <time>2019-07-14T21:18:08Z</time>
      </trkpt>
      <trkpt lat="35.841695760" lon="-106.492427260">
        <ele>2574.700</ele>
        <time>2019-07-14T21:18:09Z</time>
      </trkpt>
      <trkpt lat="35.841773500" lon="-106.492396130">
        <ele>2574.000</ele>
        <time>2019-07-14T21:18:10Z</time>
      </trkpt>
      <trkpt lat="35.841847950" lon="-106.492369360">
        <ele>2574.300</ele>
        <time>2019-07-14T21:18:11Z</time>
      </trkpt>
      <trkpt lat="35.841925620" lon="-106.492347060">
        <ele>2573.700</ele>
        <time>2019-07-14T21:18:12Z</time>
      </trkpt>
      <trkpt lat="35.842011670" lon="-106.492318890">
        <ele>2573.100</ele>
        <time>2019-07-14T21:18:13Z</time>
      </trkpt>
      <trkpt lat="35.842094970" lon="-106.492289320">
        <ele>2573.200</ele>
        <time>2019-07-14T21:18:14Z</time>
      </trkpt>
      <trkpt lat="35.842178030" lon="-106.492251420">
        <ele>2573.200</ele>
        <time>2019-07-14T21:18:15Z</time>
      </trkpt>
      <trkpt lat="35.842268030" lon="-106.492214710">
        <ele>2573.700</ele>
        <time>2019-07-14T21:18:16Z</time>
      </trkpt>
      <trkpt lat="35.842353160" lon="-106.492182540">
        <ele>2574.200</ele>
        <time>2019-07-14T21:18:17Z</time>
      </trkpt>
      <trkpt lat="35.842439090" lon="-106.492148310">
        <ele>2574.100</ele>
        <time>2019-07-14T21:18:18Z</time>
      </trkpt>
      <trkpt lat="35.842526830" lon="-106.492120540">
        <ele>2574.400</ele>
        <time>2019-07-14T21:18:19Z</time>
      </trkpt>
      <trkpt lat="35.842615400" lon="-106.492081010">
        <ele>2573.800</ele>
        <time>2019-07-14T21:18:20Z</time>
      </trkpt>
      <trkpt lat="35.842703370" lon="-106.492046180">
        <ele>2573.800</ele>
        <time>2019-07-14T21:18:21Z</time>
      </trkpt>
      <trkpt lat="35.842784380" lon="-106.492010870">
        <ele>2573.500</ele>
        <time>2019-07-14T21:18:22Z</time>
      </trkpt>
      <trkpt lat="35.842875930" lon="-106.491976500">
        <ele>2573.700</ele>
        <time>2019-07-14T21:18:23Z</time>
      </trkpt>
      <trkpt lat="35.842975210" lon="-106.491941870">
        <ele>2573.000</ele>
        <time>2019-07-14T21:18:24Z</time>
      </trkpt>
      <trkpt lat="35.843069160" lon="-106.491909340">
        <ele>2573.000</ele>
        <time>2019-07-14T21:18:25Z</time>
      </trkpt>
      <trkpt lat="35.843169370" lon="-106.491883430">
        <ele>2572.500</ele>
        <time>2019-07-14T21:18:26Z</time>
      </trkpt>
      <trkpt lat="35.843262430" lon="-106.491857520">
        <ele>2574.100</ele>
        <time>2019-07-14T21:18:27Z</time>
      </trkpt>
      <trkpt lat="35.843359000" lon="-106.491840460">
        <ele>2574.600</ele>
        <time>2019-07-14T21:18:28Z</time>
      </trkpt>
      <trkpt lat="35.843454980" lon="-106.491827680">
        <ele>2574.300</ele>
        <time>2019-07-14T21:18:29Z</time>
      </trkpt>
      <trkpt lat="35.843552220" lon="-106.491819730">
        <ele>2574.500</ele>
        <time>2019-07-14T21:18:30Z</time>
      </trkpt>
      <trkpt lat="35.843643480" lon="-106.491812300">
        <ele>2573.900</ele>
        <time>2019-07-14T21:18:31Z</time>
      </trkpt>
      <trkpt lat="35.843737380" lon="-106.491802010">
        <ele>2573.200</ele>
        <time>2019-07-14T21:18:32Z</time>
      </trkpt>
      <trkpt lat="35.843830630" lon="-106.491795160">
        <ele>2572.400</ele>
        <time>2019-07-14T21:18:33Z</time>
      </trkpt>
      <trkpt lat="35.843922120" lon="-106.491781430">
        <ele>2572.100</ele>
        <time>2019-07-14T21:18:34Z</time>
      </trkpt>
      <trkpt lat="35.844005210" lon="-106.491759300">
        <ele>2572.800</ele>
        <time>2019-07-14T21:18:35Z</time>
      </trkpt>
      <trkpt lat="35.844089950" lon="-106.491741250">
        <ele>2572.500</ele>
        <time>2019-07-14T21:18:36Z</time>
      </trkpt>
      <trkpt lat="35.844174510" lon="-106.491712220">
        <ele>2572.700</ele>
        <time>2019-07-14T21:18:37Z</time>
      </trkpt>
      <trkpt lat="35.844254490" lon="-106.491680850">
        <ele>2573.200</ele>
        <time>2019-07-14T21:18:38Z</time>
      </trkpt>
      <trkpt lat="35.844330300" lon="-106.491654050">
        <ele>2573.400</ele>
        <time>2019-07-14T21:18:39Z</time>
      </trkpt>
      <trkpt lat="35.844407020" lon="-106.491638180">
        <ele>2573.600</ele>
        <time>2019-07-14T21:18:40Z</time>
      </trkpt>
      <trkpt lat="35.844486170" lon="-106.491614570">
        <ele>2573.200</ele>
        <time>2019-07-14T21:18:41Z</time>
      </trkpt>
      <trkpt lat="35.844566450" lon="-106.491587050">
        <ele>2573.400</ele>
        <time>2019-07-14T21:18:42Z</time>
      </trkpt>
      <trkpt lat="35.844646790" lon="-106.491563350">
        <ele>2573.900</ele>
        <time>2019-07-14T21:18:43Z</time>
      </trkpt>
      <trkpt lat="35.844724230" lon="-106.491536830">
        <ele>2573.400</ele>
        <time>2019-07-14T21:18:44Z</time>
      </trkpt>
      <trkpt lat="35.844803110" lon="-106.491510630">
        <ele>2574.200</ele>
        <time>2019-07-14T21:18:45Z</time>
      </trkpt>
      <trkpt lat="35.844884180" lon="-106.491489470">
        <ele>2574.100</ele>
        <time>2019-07-14T21:18:46Z</time>
      </trkpt>
      <trkpt lat="35.844956490" lon="-106.491461950">
        <ele>2573.600</ele>
        <time>2019-07-14T21:18:47Z</time>
      </trkpt>
      <trkpt lat="35.845029610" lon="-106.491422590">
        <ele>2573.200</ele>
        <time>2019-07-14T21:18:48Z</time>
      </trkpt>
      <trkpt lat="35.845102700" lon="-106.491384210">
        <ele>2573.000</ele>
        <time>2019-07-14T21:18:49Z</time>
      </trkpt>
      <trkpt lat="35.845173920" lon="-106.491338310">
        <ele>2572.500</ele>
        <time>2019-07-14T21:18:50Z</time>
      </trkpt>
      <trkpt lat="35.845244990" lon="-106.491291850">
        <ele>2572.600</ele>
        <time>2019-07-14T21:18:51Z</time>
      </trkpt>
      <trkpt lat="35.845315870" lon="-106.491240130">
        <ele>2572.200</ele>
        <time>2019-07-14T21:18:52Z</time>
      </trkpt>
      <trkpt lat="35.845387740" lon="-106.491195060">
        <ele>2571.600</ele>
        <time>2019-07-14T21:18:53Z</time>
      </trkpt>
      <trkpt lat="35.845457860" lon="-106.491139290">
        <ele>2571.700</ele>
        <time>2019-07-14T21:18:54Z</time>
      </trkpt>
      <trkpt lat="35.845522910" lon="-106.491076910">
        <ele>2571.900</ele>
        <time>2019-07-14T21:18:55Z</time>
      </trkpt>
      <trkpt lat="35.845592040" lon="-106.491015620">
        <ele>2572.300</ele>
        <time>2019-07-14T21:18:56Z</time>
      </trkpt>
      <trkpt lat="35.845661160" lon="-106.490960260">
        <ele>2572.400</ele>
        <time>2019-07-14T21:18:57Z</time>
      </trkpt>
      <trkpt lat="35.845720590" lon="-106.490899130">
        <ele>2572.500</ele>
        <time>2019-07-14T21:18:58Z</time>
      </trkpt>
      <trkpt lat="35.845791670" lon="-106.490835320">
        <ele>2572.000</ele>
        <time>2019-07-14T21:18:59Z</time>
      </trkpt>
      <trkpt lat="35.845870240" lon="-106.490773660">
        <ele>2571.100</ele>
        <time>2019-07-14T21:19:00Z</time>
      </trkpt>
      <trkpt lat="35.845944420" lon="-106.490717800">
        <ele>2570.700</ele>
        <time>2019-07-14T21:19:01Z</time>
      </trkpt>
      <trkpt lat="35.846014990" lon="-106.490660000">
        <ele>2570.700</ele>
        <time>2019-07-14T21:19:02Z</time>
      </trkpt>
      <trkpt lat="35.846095960" lon="-106.490616150">
        <ele>2570.600</ele>
        <time>2019-07-14T21:19:03Z</time>
      </trkpt>
      <trkpt lat="35.846165590" lon="-106.490544540">
        <ele>2570.900</ele>
        <time>2019-07-14T21:19:04Z</time>
      </trkpt>
      <trkpt lat="35.846235330" lon="-106.490509990">
        <ele>2570.300</ele>
        <time>2019-07-14T21:19:05Z</time>
      </trkpt>
      <trkpt lat="35.846305830" lon="-106.490495070">
        <ele>2569.800</ele>
        <time>2019-07-14T21:19:06Z</time>
      </trkpt>
      <trkpt lat="35.846377840" lon="-106.490467440">
        <ele>2570.500</ele>
        <time>2019-07-14T21:19:07Z</time>
      </trkpt>
      <trkpt lat="35.846455470" lon="-106.490443930">
        <ele>2567.800</ele>
        <time>2019-07-14T21:19:08Z</time>
      </trkpt>
      <trkpt lat="35.846522210" lon="-106.490417580">
        <ele>2568.100</ele>
        <time>2019-07-14T21:19:09Z</time>
      </trkpt>
      <trkpt lat="35.846585810" lon="-106.490402590">
        <ele>2567.800</ele>
        <time>2019-07-14T21:19:10Z</time>
      </trkpt>
      <trkpt lat="35.846649750" lon="-106.490377030">
        <ele>2567.000</ele>
        <time>2019-07-14T21:19:11Z</time>
      </trkpt>
      <trkpt lat="35.846713690" lon="-106.490358590">
        <ele>2566.400</ele>
        <time>2019-07-14T21:19:12Z</time>
      </trkpt>
      <trkpt lat="35.846779120" lon="-106.490337010">
        <ele>2566.700</ele>
        <time>2019-07-14T21:19:13Z</time>
      </trkpt>
      <trkpt lat="35.846841800" lon="-106.490308600">
        <ele>2567.100</ele>
        <time>2019-07-14T21:19:14Z</time>
      </trkpt>
      <trkpt lat="35.846908010" lon="-106.490279090">
        <ele>2567.200</ele>
        <time>2019-07-14T21:19:15Z</time>
      </trkpt>
      <trkpt lat="35.846981130" lon="-106.490253320">
        <ele>2566.800</ele>
        <time>2019-07-14T21:19:16Z</time>
      </trkpt>
      <trkpt lat="35.847053250" lon="-106.490219800">
        <ele>2566.600</ele>
        <time>2019-07-14T21:19:17Z</time>
      </trkpt>
      <trkpt lat="35.847126220" lon="-106.490188470">
        <ele>2566.500</ele>
        <time>2019-07-14T21:19:18Z</time>
      </trkpt>
      <trkpt lat="35.847195050" lon="-106.490156930">
        <ele>2566.900</ele>
        <time>2019-07-14T21:19:19Z</time>
      </trkpt>
      <trkpt lat="35.847266730" lon="-106.490130180">
        <ele>2566.800</ele>
        <time>2019-07-14T21:19:20Z</time>
      </trkpt>
      <trkpt lat="35.847337870" lon="-106.490113820">
        <ele>2565.800</ele>
        <time>2019-07-14T21:19:21Z</time>
      </trkpt>
      <trkpt lat="35.847414480" lon="-106.490102300">
        <ele>2565.500</ele>
        <time>2019-07-14T21:19:22Z</time>
      </trkpt>
      <trkpt lat="35.847484780" lon="-106.490097910">
        <ele>2565.400</ele>
        <time>2019-07-14T21:19:23Z</time>
      </trkpt>
      <trkpt lat="35.847560910" lon="-106.490103980">
        <ele>2564.800</ele>
        <time>2019-07-14T21:19:24Z</time>
      </trkpt>
      <trkpt lat="35.847630190" lon="-106.490123470">
        <ele>2564.600</ele>
        <time>2019-07-14T21:19:25Z</time>
      </trkpt>
      <trkpt lat="35.847701270" lon="-106.490144270">
        <ele>2565.200</ele>
        <time>2019-07-14T21:19:26Z</time>
      </trkpt>
      <trkpt lat="35.847767900" lon="-106.490169020">
        <ele>2565.600</ele>
        <time>2019-07-14T21:19:27Z</time>
      </trkpt>
      <trkpt lat="35.847836690" lon="-106.490191550">
        <ele>2565.800</ele>
        <time>2019-07-14T21:19:28Z</time>
      </trkpt>
      <trkpt lat="35.847902680" lon="-106.490227700">
        <ele>2565.800</ele>
        <time>2019-07-14T21:19:29Z</time>
      </trkpt>
      <trkpt lat="35.847962640" lon="-106.490263510">
        <ele>2565.300</ele>
        <time>2019-07-14T21:19:30Z</time>
      </trkpt>
      <trkpt lat="35.848028340" lon="-106.490301010">
        <ele>2564.700</ele>
        <time>2019-07-14T21:19:31Z</time>
      </trkpt>
      <trkpt lat="35.848088680" lon="-106.490339840">
        <ele>2564.700</ele>
        <time>2019-07-14T21:19:32Z</time>
      </trkpt>
      <trkpt lat="35.848147240" lon="-106.490378810">
        <ele>2565.500</ele>
        <time>2019-07-14T21:19:33Z</time>
      </trkpt>
      <trkpt lat="35.848202040" lon="-106.490419580">
        <ele>2565.300</ele>
        <time>2019-07-14T21:19:34Z</time>
      </trkpt>
      <trkpt lat="35.848258720" lon="-106.490462470">
        <ele>2565.200</ele>
        <time>2019-07-14T21:19:35Z</time>
      </trkpt>
      <trkpt lat="35.848311110" lon="-106.490506100">
        <ele>2565.300</ele>
        <time>2019-07-14T21:19:36Z</time>
      </trkpt>
      <trkpt lat="35.848350520" lon="-106.490543980">
        <ele>2565.500</ele>
        <time>2019-07-14T21:19:37Z</time>
      </trkpt>
      <trkpt lat="35.848400120" lon="-106.490583890">
        <ele>2565.700</ele>
        <time>2019-07-14T21:19:38Z</time>
      </trkpt>
      <trkpt lat="35.848444790" lon="-106.490629640">
        <ele>2565.600</ele>
        <time>2019-07-14T21:19:39Z</time>
      </trkpt>
      <trkpt lat="35.848491410" lon="-106.490666680">
        <ele>2566.300</ele>
        <time>2019-07-14T21:19:40Z</time>
      </trkpt>
      <trkpt lat="35.848545800" lon="-106.490708680">
        <ele>2566.000</ele>
        <time>2019-07-14T21:19:41Z</time>
      </trkpt>
      <trkpt lat="35.848602950" lon="-106.490735890">
        <ele>2566.200</ele>
        <time>2019-07-14T21:19:42Z</time>
      </trkpt>
      <trkpt lat="35.848669670" lon="-106.490766240">
        <ele>2566.800</ele>
        <time>2019-07-14T21:19:43Z</time>
      </trkpt>
      <trkpt lat="35.848737160" lon="-106.490794970">
        <ele>2566.800</ele>
        <time>2019-07-14T21:19:44Z</time>
      </trkpt>
      <trkpt lat="35.848796770" lon="-106.490824950">
        <ele>2566.200</ele>
        <time>2019-07-14T21:19:45Z</time>
      </trkpt>
      <trkpt lat="35.848866990" lon="-106.490854230">
        <ele>2566.600</ele>
        <time>2019-07-14T21:19:46Z</time>
      </trkpt>
      <trkpt lat="35.848931550" lon="-106.490873670">
        <ele>2567.200</ele>
        <time>2019-07-14T21:19:47Z</time>
      </trkpt>
      <trkpt lat="35.848999030" lon="-106.490896010">
        <ele>2567.300</ele>
        <time>2019-07-14T21:19:48Z</time>
      </trkpt>
      <trkpt lat="35.849071040" lon="-106.490925150">
        <ele>2567.200</ele>
        <time>2019-07-14T21:19:49Z</time>
      </trkpt>
      <trkpt lat="35.849144610" lon="-106.490938490">
        <ele>2567.900</ele>
        <time>2019-07-14T21:19:50Z</time>
      </trkpt>
      <trkpt lat="35.849218490" lon="-106.490968190">
        <ele>2568.100</ele>
        <time>2019-07-14T21:19:51Z</time>
      </trkpt>
      <trkpt lat="35.849299940" lon="-106.490993900">
        <ele>2566.000</ele>
        <time>2019-07-14T21:19:52Z</time>
      </trkpt>
      <trkpt lat="35.849370400" lon="-106.491004170">
        <ele>2567.600</ele>
        <time>2019-07-14T21:19:53Z</time>
      </trkpt>
      <trkpt lat="35.849441050" lon="-106.491015780">
        <ele>2568.200</ele>
        <time>2019-07-14T21:19:54Z</time>
      </trkpt>
      <trkpt lat="35.849520000" lon="-106.491013410">
        <ele>2566.600</ele>
        <time>2019-07-14T21:19:55Z</time>
      </trkpt>
      <trkpt lat="35.849595960" lon="-106.491003460">
        <ele>2566.000</ele>
        <time>2019-07-14T21:19:56Z</time>
      </trkpt>
      <trkpt lat="35.849670450" lon="-106.490990210">
        <ele>2566.500</ele>
        <time>2019-07-14T21:19:57Z</time>
      </trkpt>
      <trkpt lat="35.849750560" lon="-106.491004420">
        <ele>2565.000</ele>
        <time>2019-07-14T21:19:58Z</time>
      </trkpt>
      <trkpt lat="35.849823790" lon="-106.490998990">
        <ele>2564.800</ele>
        <time>2019-07-14T21:19:59Z</time>
      </trkpt>
      <trkpt lat="35.849886320" lon="-106.491010300">
        <ele>2564.900</ele>
        <time>2019-07-14T21:20:00Z</time>
      </trkpt>
      <trkpt lat="35.849964600" lon="-106.491008590">
        <ele>2563.800</ele>
        <time>2019-07-14T21:20:01Z</time>
      </trkpt>
      <trkpt lat="35.850042410" lon="-106.490994780">
        <ele>2563.600</ele>
        <time>2019-07-14T21:20:02Z</time>
      </trkpt>
      <trkpt lat="35.850114060" lon="-106.490979590">
        <ele>2564.500</ele>
        <time>2019-07-14T21:20:03Z</time>
      </trkpt>
      <trkpt lat="35.850194440" lon="-106.490952760">
        <ele>2565.000</ele>
        <time>2019-07-14T21:20:04Z</time>
      </trkpt>
      <trkpt lat="35.850272170" lon="-106.490934490">
        <ele>2565.000</ele>
        <time>2019-07-14T21:20:05Z</time>
      </trkpt>
      <trkpt lat="35.850350730" lon="-106.490906560">
        <ele>2565.700</ele>
        <time>2019-07-14T21:20:06Z</time>
      </trkpt>
      <trkpt lat="35.850426800" lon="-106.490867740">
        <ele>2567.100</ele>
        <time>2019-07-14T21:20:07Z</time>
      </trkpt>
      <trkpt lat="35.850503710" lon="-106.490845020">
        <ele>2567.900</ele>
        <time>2019-07-14T21:20:08Z</time>
      </trkpt>
      <trkpt lat="35.850579210" lon="-106.490837820">
        <ele>2567.900</ele>
        <time>2019-07-14T21:20:09Z</time>
      </trkpt>
      <trkpt lat="35.850657860" lon="-106.490823170">
        <ele>2567.500</ele>
        <time>2019-07-14T21:20:10Z</time>
      </trkpt>
      <trkpt lat="35.850735350" lon="-106.490817380">
        <ele>2568.600</ele>
        <time>2019-07-14T21:20:11Z</time>
      </trkpt>
      <trkpt lat="35.850812810" lon="-106.490808060">
        <ele>2569.500</ele>
        <time>2019-07-14T21:20:12Z</time>
      </trkpt>
      <trkpt lat="35.850893440" lon="-106.490805200">
        <ele>2569.100</ele>
        <time>2019-07-14T21:20:13Z</time>
      </trkpt>
      <trkpt lat="35.850971700" lon="-106.490797780">
        <ele>2569.800</ele>
        <time>2019-07-14T21:20:14Z</time>
      </trkpt>
      <trkpt lat="35.851046730" lon="-106.490791570">
        <ele>2570.400</ele>
        <time>2019-07-14T21:20:15Z</time>
      </trkpt>
      <trkpt lat="35.851121410" lon="-106.490784470">
        <ele>2570.400</ele>
        <time>2019-07-14T21:20:16Z</time>
      </trkpt>
      <trkpt lat="35.851204480" lon="-106.490775490">
        <ele>2570.100</ele>
        <time>2019-07-14T21:20:17Z</time>
      </trkpt>
      <trkpt lat="35.851283920" lon="-106.490775480">
        <ele>2569.900</ele>
        <time>2019-07-14T21:20:18Z</time>
      </trkpt>
      <trkpt lat="35.851362050" lon="-106.490777630">
        <ele>2570.000</ele>
        <time>2019-07-14T21:20:19Z</time>
      </trkpt>
      <trkpt lat="35.851443710" lon="-106.490796030">
        <ele>2570.600</ele>
        <time>2019-07-14T21:20:20Z</time>
      </trkpt>
      <trkpt lat="35.851521270" lon="-106.490794190">
        <ele>2571.200</ele>
        <time>2019-07-14T21:20:21Z</time>
      </trkpt>
      <trkpt lat="35.851607410" lon="-106.490813880">
        <ele>2570.700</ele>
        <time>2019-07-14T21:20:22Z</time>
      </trkpt>
      <trkpt lat="35.851675760" lon="-106.490819610">
        <ele>2571.400</ele>
        <time>2019-07-14T21:20:23Z</time>
      </trkpt>
      <trkpt lat="35.851771860" lon="-106.490827420">
        <ele>2569.700</ele>
        <time>2019-07-14T21:20:24Z</time>
      </trkpt>
      <trkpt lat="35.851846610" lon="-106.490835110">
        <ele>2569.800</ele>
        <time>2019-07-14T21:20:25Z</time>
      </trkpt>
      <trkpt lat="35.851925450" lon="-106.490840440">
        <ele>2570.000</ele>
        <time>2019-07-14T21:20:26Z</time>
      </trkpt>
      <trkpt lat="35.851994590" lon="-106.490844010">
        <ele>2571.200</ele>
        <time>2019-07-14T21:20:27Z</time>
      </trkpt>
      <trkpt lat="35.852069550" lon="-106.490841060">
        <ele>2572.100</ele>
        <time>2019-07-14T21:20:28Z</time>
      </trkpt>
      <trkpt lat="35.852145450" lon="-106.490856450">
        <ele>2572.200</ele>
        <time>2019-07-14T21:20:29Z</time>
      </trkpt>
      <trkpt lat="35.852227260" lon="-106.490854720">
        <ele>2572.000</ele>
        <time>2019-07-14T21:20:30Z</time>
      </trkpt>
      <trkpt lat="35.852295150" lon="-106.490854330">
        <ele>2573.100</ele>
        <time>2019-07-14T21:20:31Z</time>
      </trkpt>
      <trkpt lat="35.852366120" lon="-106.490855490">
        <ele>2573.700</ele>
        <time>2019-07-14T21:20:32Z</time>
      </trkpt>
      <trkpt lat="35.852437810" lon="-106.490867910">
        <ele>2574.100</ele>
        <time>2019-07-14T21:20:33Z</time>
      </trkpt>
      <trkpt lat="35.852508620" lon="-106.490861950">
        <ele>2576.500</ele>
        <time>2019-07-14T21:20:34Z</time>
      </trkpt>
      <trkpt lat="35.852578940" lon="-106.490863750">
        <ele>2576.800</ele>
        <time>2019-07-14T21:20:35Z</time>
      </trkpt>
      <trkpt lat="35.852656560" lon="-106.490868280">
        <ele>2575.500</ele>
        <time>2019-07-14T21:20:36Z</time>
      </trkpt>
      <trkpt lat="35.852737520" lon="-106.490870760">
        <ele>2574.100</ele>
        <time>2019-07-14T21:20:37Z</time>
      </trkpt>
      <trkpt lat="35.852811970" lon="-106.490872020">
        <ele>2574.700</ele>
        <time>2019-07-14T21:20:38Z</time>
      </trkpt>
      <trkpt lat="35.852892180" lon="-106.490875290">
        <ele>2573.100</ele>
        <time>2019-07-14T21:20:39Z</time>
      </trkpt>
      <trkpt lat="35.852969250" lon="-106.490875520">
        <ele>2573.300</ele>
        <time>2019-07-14T21:20:40Z</time>
      </trkpt>
      <trkpt lat="35.853048990" lon="-106.490873090">
        <ele>2572.900</ele>
        <time>2019-07-14T21:20:41Z</time>
      </trkpt>
      <trkpt lat="35.853129730" lon="-106.490885230">
        <ele>2572.400</ele>
        <time>2019-07-14T21:20:42Z</time>
      </trkpt>
      <trkpt lat="35.853210160" lon="-106.490882260">
        <ele>2572.300</ele>
        <time>2019-07-14T21:20:43Z</time>
      </trkpt>
      <trkpt lat="35.853289210" lon="-106.490881360">
        <ele>2572.900</ele>
        <time>2019-07-14T21:20:44Z</time>
      </trkpt>
      <trkpt lat="35.853390410" lon="-106.490864330">
        <ele>2570.100</ele>
        <time>2019-07-14T21:20:45Z</time>
      </trkpt>
      <trkpt lat="35.853482410" lon="-106.490871890">
        <ele>2569.700</ele>
        <time>2019-07-14T21:20:46Z</time>
      </trkpt>
      <trkpt lat="35.853562430" lon="-106.490879540">
        <ele>2568.400</ele>
        <time>2019-07-14T21:20:47Z</time>
      </trkpt>
      <trkpt lat="35.853621390" lon="-106.490879340">
        <ele>2568.400</ele>
        <time>2019-07-14T21:20:48Z</time>
      </trkpt>
      <trkpt lat="35.853682160" lon="-106.490877420">
        <ele>2568.300</ele>
        <time>2019-07-14T21:20:49Z</time>
      </trkpt>
      <trkpt lat="35.853725720" lon="-106.490877680">
        <ele>2568.200</ele>
        <time>2019-07-14T21:20:50Z</time>
      </trkpt>
      <trkpt lat="35.853772050" lon="-106.490875330">
        <ele>2568.900</ele>
        <time>2019-07-14T21:20:51Z</time>
      </trkpt>
      <trkpt lat="35.853808410" lon="-106.490865440">
        <ele>2568.500</ele>
        <time>2019-07-14T21:20:52Z</time>
      </trkpt>
      <trkpt lat="35.853844570" lon="-106.490859560">
        <ele>2568.200</ele>
        <time>2019-07-14T21:20:53Z</time>
      </trkpt>
      <trkpt lat="35.853886870" lon="-106.490866700">
        <ele>2568.300</ele>
        <time>2019-07-14T21:20:54Z</time>
      </trkpt>
      <trkpt lat="35.853962480" lon="-106.490865540">
        <ele>2569.100</ele>
        <time>2019-07-14T21:20:56Z</time>
      </trkpt>
      <trkpt lat="35.853995900" lon="-106.490848360">
        <ele>2569.600</ele>
        <time>2019-07-14T21:20:57Z</time>
      </trkpt>
      <trkpt lat="35.854033180" lon="-106.490852670">
        <ele>2570.600</ele>
        <time>2019-07-14T21:20:58Z</time>
      </trkpt>
      <trkpt lat="35.854070370" lon="-106.490841510">
        <ele>2571.800</ele>
        <time>2019-07-14T21:20:59Z</time>
      </trkpt>
      <trkpt lat="35.854111470" lon="-106.490835610">
        <ele>2573.800</ele>
        <time>2019-07-14T21:21:02Z</time>
      </trkpt>
      <trkpt lat="35.854162820" lon="-106.490854250">
        <ele>2572.900</ele>
        <time>2019-07-14T21:21:08Z</time>
      </trkpt>
      <trkpt lat="35.854217450" lon="-106.490864620">
        <ele>2570.000</ele>
        <time>2019-07-14T21:21:10Z</time>
      </trkpt>
      <trkpt lat="35.854280260" lon="-106.490869750">
        <ele>2569.800</ele>
        <time>2019-07-14T21:21:12Z</time>
      </trkpt>
      <trkpt lat="35.854331560" lon="-106.490869810">
        <ele>2570.100</ele>
        <time>2019-07-14T21:21:14Z</time>
      </trkpt>
      <trkpt lat="35.854380230" lon="-106.490871800">
        <ele>2570.300</ele>
        <time>2019-07-14T21:21:16Z</time>
      </trkpt>
      <trkpt lat="35.854432060" lon="-106.490870490">
        <ele>2571.200</ele>
        <time>2019-07-14T21:21:18Z</time>
      </trkpt>
      <trkpt lat="35.854480830" lon="-106.490863370">
        <ele>2572.500</ele>
        <time>2019-07-14T21:21:20Z</time>
      </trkpt>
      <trkpt lat="35.854533610" lon="-106.490854460">
        <ele>2573.300</ele>
        <time>2019-07-14T21:21:22Z</time>
      </trkpt>
      <trkpt lat="35.854599810" lon="-106.490844670">
        <ele>2572.800</ele>
        <time>2019-07-14T21:21:24Z</time>
      </trkpt>
      <trkpt lat="35.854636500" lon="-106.490837570">
        <ele>2572.400</ele>
        <time>2019-07-14T21:21:25Z</time>
      </trkpt>
      <trkpt lat="35.854673140" lon="-106.490831130">
        <ele>2571.800</ele>
        <time>2019-07-14T21:21:26Z</time>
      </trkpt>
      <trkpt lat="35.854709830" lon="-106.490825140">
        <ele>2571.700</ele>
        <time>2019-07-14T21:21:27Z</time>
      </trkpt>
      <trkpt lat="35.854747740" lon="-106.490818840">
        <ele>2572.600</ele>
        <time>2019-07-14T21:21:28Z</time>
      </trkpt>
      <trkpt lat="35.854786860" lon="-106.490811700">
        <ele>2573.200</ele>
        <time>2019-07-14T21:21:29Z</time>
      </trkpt>
      <trkpt lat="35.854825460" lon="-106.490804220">
        <ele>2573.600</ele>
        <time>2019-07-14T21:21:30Z</time>
      </trkpt>
      <trkpt lat="35.854862770" lon="-106.490795900">
        <ele>2574.000</ele>
        <time>2019-07-14T21:21:31Z</time>
      </trkpt>
      <trkpt lat="35.854901060" lon="-106.490790670">
        <ele>2574.300</ele>
        <time>2019-07-14T21:21:32Z</time>
      </trkpt>
      <trkpt lat="35.854938220" lon="-106.490786490">
        <ele>2574.100</ele>
        <time>2019-07-14T21:21:33Z</time>
      </trkpt>
      <trkpt lat="35.855007550" lon="-106.490779620">
        <ele>2574.400</ele>
        <time>2019-07-14T21:21:35Z</time>
      </trkpt>
      <trkpt lat="35.855074310" lon="-106.490771450">
        <ele>2574.300</ele>
        <time>2019-07-14T21:21:37Z</time>
      </trkpt>
      <trkpt lat="35.855147410" lon="-106.490756170">
        <ele>2574.600</ele>
        <time>2019-07-14T21:21:39Z</time>
      </trkpt>
      <trkpt lat="35.855186290" lon="-106.490747910">
        <ele>2573.900</ele>
        <time>2019-07-14T21:21:40Z</time>
      </trkpt>
      <trkpt lat="35.855224500" lon="-106.490738980">
        <ele>2574.700</ele>
        <time>2019-07-14T21:21:41Z</time>
      </trkpt>
      <trkpt lat="35.855262700" lon="-106.490729680">
        <ele>2575.100</ele>
        <time>2019-07-14T21:21:42Z</time>
      </trkpt>
      <trkpt lat="35.855299970" lon="-106.490718430">
        <ele>2576.200</ele>
        <time>2019-07-14T21:21:43Z</time>
      </trkpt>
      <trkpt lat="35.855335420" lon="-106.490706850">
        <ele>2576.200</ele>
        <time>2019-07-14T21:21:44Z</time>
      </trkpt>
      <trkpt lat="35.855370820" lon="-106.490693370">
        <ele>2576.000</ele>
        <time>2019-07-14T21:21:45Z</time>
      </trkpt>
      <trkpt lat="35.855407850" lon="-106.490679130">
        <ele>2576.400</ele>
        <time>2019-07-14T21:21:46Z</time>
      </trkpt>
      <trkpt lat="35.855447060" lon="-106.490662720">
        <ele>2576.100</ele>
        <time>2019-07-14T21:21:47Z</time>
      </trkpt>
      <trkpt lat="35.855487500" lon="-106.490644850">
        <ele>2576.400</ele>
        <time>2019-07-14T21:21:48Z</time>
      </trkpt>
      <trkpt lat="35.855528840" lon="-106.490627750">
        <ele>2575.400</ele>
        <time>2019-07-14T21:21:49Z</time>
      </trkpt>
      <trkpt lat="35.855569860" lon="-106.490610260">
        <ele>2575.600</ele>
        <time>2019-07-14T21:21:50Z</time>
      </trkpt>
      <trkpt lat="35.855609970" lon="-106.490592680">
        <ele>2575.300</ele>
        <time>2019-07-14T21:21:51Z</time>
      </trkpt>
      <trkpt lat="35.855649240" lon="-106.490575570">
        <ele>2575.500</ele>
        <time>2019-07-14T21:21:52Z</time>
      </trkpt>
      <trkpt lat="35.855689150" lon="-106.490558000">
        <ele>2575.700</ele>
        <time>2019-07-14T21:21:53Z</time>
      </trkpt>
      <trkpt lat="35.855730840" lon="-106.490538980">
        <ele>2575.900</ele>
        <time>2019-07-14T21:21:54Z</time>
      </trkpt>
      <trkpt lat="35.855772830" lon="-106.490514290">
        <ele>2575.700</ele>
        <time>2019-07-14T21:21:55Z</time>
      </trkpt>
      <trkpt lat="35.855817170" lon="-106.490498220">
        <ele>2575.500</ele>
        <time>2019-07-14T21:21:56Z</time>
      </trkpt>
      <trkpt lat="35.855865250" lon="-106.490477250">
        <ele>2575.100</ele>
        <time>2019-07-14T21:21:57Z</time>
      </trkpt>
      <trkpt lat="35.855907920" lon="-106.490462680">
        <ele>2575.000</ele>
        <time>2019-07-14T21:21:58Z</time>
      </trkpt>
      <trkpt lat="35.855949280" lon="-106.490442760">
        <ele>2575.000</ele>
        <time>2019-07-14T21:21:59Z</time>
      </trkpt>
      <trkpt lat="35.855993800" lon="-106.490425190">
        <ele>2575.000</ele>
        <time>2019-07-14T21:22:00Z</time>
      </trkpt>
      <trkpt lat="35.856038770" lon="-106.490406100">
        <ele>2575.100</ele>
        <time>2019-07-14T21:22:01Z</time>
      </trkpt>
      <trkpt lat="35.856088220" lon="-106.490395860">
        <ele>2575.400</ele>
        <time>2019-07-14T21:22:02Z</time>
      </trkpt>
      <trkpt lat="35.856133580" lon="-106.490391890">
        <ele>2575.500</ele>
        <time>2019-07-14T21:22:03Z</time>
      </trkpt>
      <trkpt lat="35.856191190" lon="-106.490390930">
        <ele>2575.500</ele>
        <time>2019-07-14T21:22:04Z</time>
      </trkpt>
      <trkpt lat="35.856260020" lon="-106.490434620">
        <ele>2576.300</ele>
        <time>2019-07-14T21:22:06Z</time>
      </trkpt>
      <trkpt lat="35.856298620" lon="-106.490459640">
        <ele>2575.700</ele>
        <time>2019-07-14T21:22:07Z</time>
      </trkpt>
      <trkpt lat="35.856327770" lon="-106.490496550">
        <ele>2576.400</ele>
        <time>2019-07-14T21:22:08Z</time>
      </trkpt>
      <trkpt lat="35.856345650" lon="-106.490536420">
        <ele>2576.700</ele>
        <time>2019-07-14T21:22:09Z</time>
      </trkpt>
      <trkpt lat="35.856362950" lon="-106.490577100">
        <ele>2576.700</ele>
        <time>2019-07-14T21:22:10Z</time>
      </trkpt>
      <trkpt lat="35.856380830" lon="-106.490631750">
        <ele>2576.100</ele>
        <time>2019-07-14T21:22:11Z</time>
      </trkpt>
      <trkpt lat="35.856400710" lon="-106.490678010">
        <ele>2575.700</ele>
        <time>2019-07-14T21:22:12Z</time>
      </trkpt>
      <trkpt lat="35.856415550" lon="-106.490723890">
        <ele>2576.200</ele>
        <time>2019-07-14T21:22:13Z</time>
      </trkpt>
      <trkpt lat="35.856438500" lon="-106.490768210">
        <ele>2575.800</ele>
        <time>2019-07-14T21:22:14Z</time>
      </trkpt>
      <trkpt lat="35.856469010" lon="-106.490804220">
        <ele>2575.900</ele>
        <time>2019-07-14T21:22:15Z</time>
      </trkpt>
      <trkpt lat="35.856503640" lon="-106.490824260">
        <ele>2576.000</ele>
        <time>2019-07-14T21:22:16Z</time>
      </trkpt>
      <trkpt lat="35.856543060" lon="-106.490842930">
        <ele>2575.700</ele>
        <time>2019-07-14T21:22:17Z</time>
      </trkpt>
      <trkpt lat="35.856579050" lon="-106.490839970">
        <ele>2576.500</ele>
        <time>2019-07-14T21:22:18Z</time>
      </trkpt>
      <trkpt lat="35.856615840" lon="-106.490837920">
        <ele>2575.500</ele>
        <time>2019-07-14T21:22:19Z</time>
      </trkpt>
      <trkpt lat="35.856679830" lon="-106.490798490">
        <ele>2576.800</ele>
        <time>2019-07-14T21:22:21Z</time>
      </trkpt>
      <trkpt lat="35.856715300" lon="-106.490779780">
        <ele>2576.400</ele>
        <time>2019-07-14T21:22:22Z</time>
      </trkpt>
      <trkpt lat="35.856780640" lon="-106.490748710">
        <ele>2576.300</ele>
        <time>2019-07-14T21:22:24Z</time>
      </trkpt>
      <trkpt lat="35.856845270" lon="-106.490736560">
        <ele>2577.200</ele>
        <time>2019-07-14T21:22:26Z</time>
      </trkpt>
      <trkpt lat="35.856908640" lon="-106.490760980">
        <ele>2576.800</ele>
        <time>2019-07-14T21:22:28Z</time>
      </trkpt>
      <trkpt lat="35.856954240" lon="-106.490808020">
        <ele>2577.000</ele>
        <time>2019-07-14T21:22:30Z</time>
      </trkpt>
      <trkpt lat="35.856985000" lon="-106.490886150">
        <ele>2577.600</ele>
        <time>2019-07-14T21:22:32Z</time>
      </trkpt>
      <trkpt lat="35.856987020" lon="-106.490930520">
        <ele>2577.900</ele>
        <time>2019-07-14T21:22:33Z</time>
      </trkpt>
      <trkpt lat="35.856976900" lon="-106.490975090">
        <ele>2577.600</ele>
        <time>2019-07-14T21:22:34Z</time>
      </trkpt>
      <trkpt lat="35.856956860" lon="-106.491011960">
        <ele>2578.100</ele>
        <time>2019-07-14T21:22:35Z</time>
      </trkpt>
      <trkpt lat="35.856915910" lon="-106.491041830">
        <ele>2577.500</ele>
        <time>2019-07-14T21:22:37Z</time>
      </trkpt>
      <trkpt lat="35.856878620" lon="-106.491034570">
        <ele>2578.200</ele>
        <time>2019-07-14T21:22:42Z</time>
      </trkpt>
      <trkpt lat="35.856869440" lon="-106.491078010">
        <ele>2576.600</ele>
        <time>2019-07-14T21:23:25Z</time>
      </trkpt>
      <trkpt lat="35.856832120" lon="-106.491058820">
        <ele>2577.600</ele>
        <time>2019-07-14T21:30:45Z</time>
      </trkpt>
      <trkpt lat="35.856793300" lon="-106.491052400">
        <ele>2578.000</ele>
        <time>2019-07-14T21:30:47Z</time>
      </trkpt>
      <trkpt lat="35.856750750" lon="-106.491033080">
        <ele>2578.100</ele>
        <time>2019-07-14T21:30:49Z</time>
      </trkpt>
      <trkpt lat="35.856710240" lon="-106.491007030">
        <ele>2578.100</ele>
        <time>2019-07-14T21:30:51Z</time>
      </trkpt>
      <trkpt lat="35.856673380" lon="-106.490976270">
        <ele>2578.300</ele>
        <time>2019-07-14T21:30:53Z</time>
      </trkpt>
      <trkpt lat="35.856635530" lon="-106.490945260">
        <ele>2578.300</ele>
        <time>2019-07-14T21:30:55Z</time>
      </trkpt>
      <trkpt lat="35.856591760" lon="-106.490911990">
        <ele>2578.300</ele>
        <time>2019-07-14T21:30:57Z</time>
      </trkpt>
      <trkpt lat="35.856541850" lon="-106.490893210">
        <ele>2577.600</ele>
        <time>2019-07-14T21:30:59Z</time>
      </trkpt>
      <trkpt lat="35.856493000" lon="-106.490913650">
        <ele>2578.100</ele>
        <time>2019-07-14T21:31:01Z</time>
      </trkpt>
      <trkpt lat="35.856479460" lon="-106.490975750">
        <ele>2576.800</ele>
        <time>2019-07-14T21:31:03Z</time>
      </trkpt>
      <trkpt lat="35.856503540" lon="-106.491045550">
        <ele>2577.300</ele>
        <time>2019-07-14T21:31:05Z</time>
      </trkpt>
      <trkpt lat="35.856533790" lon="-106.491104180">
        <ele>2577.200</ele>
        <time>2019-07-14T21:31:07Z</time>
      </trkpt>
      <trkpt lat="35.856556580" lon="-106.491164280">
        <ele>2577.500</ele>
        <time>2019-07-14T21:31:09Z</time>
      </trkpt>
      <trkpt lat="35.856575550" lon="-106.491212800">
        <ele>2575.700</ele>
        <time>2019-07-14T21:31:11Z</time>
      </trkpt>
      <trkpt lat="35.856601010" lon="-106.491244990">
        <ele>2578.000</ele>
        <time>2019-07-14T21:31:30Z</time>
      </trkpt>
      <trkpt lat="35.856616580" lon="-106.491291490">
        <ele>2581.100</ele>
        <time>2019-07-14T21:31:34Z</time>
      </trkpt>
      <trkpt lat="35.856644030" lon="-106.491373090">
        <ele>2580.500</ele>
        <time>2019-07-14T21:31:36Z</time>
      </trkpt>
      <trkpt lat="35.856661570" lon="-106.491418280">
        <ele>2579.000</ele>
        <time>2019-07-14T21:31:37Z</time>
      </trkpt>
      <trkpt lat="35.856677230" lon="-106.491464670">
        <ele>2579.600</ele>
        <time>2019-07-14T21:31:38Z</time>
      </trkpt>
      <trkpt lat="35.856693270" lon="-106.491513580">
        <ele>2580.500</ele>
        <time>2019-07-14T21:31:39Z</time>
      </trkpt>
      <trkpt lat="35.856711430" lon="-106.491561740">
        <ele>2578.700</ele>
        <time>2019-07-14T21:31:40Z</time>
      </trkpt>
      <trkpt lat="35.856733710" lon="-106.491619970">
        <ele>2578.600</ele>
        <time>2019-07-14T21:31:41Z</time>
      </trkpt>
      <trkpt lat="35.856750050" lon="-106.491680040">
        <ele>2578.800</ele>
        <time>2019-07-14T21:31:42Z</time>
      </trkpt>
      <trkpt lat="35.856765070" lon="-106.491733170">
        <ele>2578.400</ele>
        <time>2019-07-14T21:31:43Z</time>
      </trkpt>
      <trkpt lat="35.856782640" lon="-106.491797430">
        <ele>2578.700</ele>
        <time>2019-07-14T21:31:44Z</time>
      </trkpt>
      <trkpt lat="35.856797910" lon="-106.491857170">
        <ele>2579.500</ele>
        <time>2019-07-14T21:31:45Z</time>
      </trkpt>
      <trkpt lat="35.856817990" lon="-106.491907450">
        <ele>2578.500</ele>
        <time>2019-07-14T21:31:46Z</time>
      </trkpt>
      <trkpt lat="35.856837110" lon="-106.491973900">
        <ele>2578.300</ele>
        <time>2019-07-14T21:31:47Z</time>
      </trkpt>
      <trkpt lat="35.856856860" lon="-106.492016820">
        <ele>2578.800</ele>
        <time>2019-07-14T21:31:48Z</time>
      </trkpt>
      <trkpt lat="35.856877650" lon="-106.492076400">
        <ele>2578.500</ele>
        <time>2019-07-14T21:31:49Z</time>
      </trkpt>
      <trkpt lat="35.856901470" lon="-106.492130780">
        <ele>2578.700</ele>
        <time>2019-07-14T21:31:50Z</time>
      </trkpt>
      <trkpt lat="35.856920580" lon="-106.492191950">
        <ele>2578.500</ele>
        <time>2019-07-14T21:31:51Z</time>
      </trkpt>
      <trkpt lat="35.856942830" lon="-106.492256130">
        <ele>2579.200</ele>
        <time>2019-07-14T21:31:52Z</time>
      </trkpt>
      <trkpt lat="35.856965410" lon="-106.492312540">
        <ele>2579.000</ele>
        <time>2019-07-14T21:31:53Z</time>
      </trkpt>
      <trkpt lat="35.856985750" lon="-106.492378450">
        <ele>2579.500</ele>
        <time>2019-07-14T21:31:54Z</time>
      </trkpt>
      <trkpt lat="35.857005120" lon="-106.492435440">
        <ele>2579.700</ele>
        <time>2019-07-14T21:31:55Z</time>
      </trkpt>
      <trkpt lat="35.857018790" lon="-106.492498420">
        <ele>2580.900</ele>
        <time>2019-07-14T21:31:56Z</time>
      </trkpt>
      <trkpt lat="35.857037220" lon="-106.492571970">
        <ele>2581.100</ele>
        <time>2019-07-14T21:31:57Z</time>
      </trkpt>
      <trkpt lat="35.857055420" lon="-106.492633420">
        <ele>2581.800</ele>
        <time>2019-07-14T21:31:58Z</time>
      </trkpt>
      <trkpt lat="35.857074790" lon="-106.492695020">
        <ele>2581.300</ele>
        <time>2019-07-14T21:31:59Z</time>
      </trkpt>
      <trkpt lat="35.857094690" lon="-106.492762830">
        <ele>2581.100</ele>
        <time>2019-07-14T21:32:00Z</time>
      </trkpt>
      <trkpt lat="35.857117280" lon="-106.492827530">
        <ele>2581.400</ele>
        <time>2019-07-14T21:32:01Z</time>
      </trkpt>
      <trkpt lat="35.857140000" lon="-106.492889930">
        <ele>2581.500</ele>
        <time>2019-07-14T21:32:02Z</time>
      </trkpt>
      <trkpt lat="35.857160920" lon="-106.492959450">
        <ele>2581.300</ele>
        <time>2019-07-14T21:32:03Z</time>
      </trkpt>
      <trkpt lat="35.857192370" lon="-106.493030460">
        <ele>2578.800</ele>
        <time>2019-07-14T21:32:04Z</time>
      </trkpt>
      <trkpt lat="35.857211360" lon="-106.493113260">
        <ele>2579.100</ele>
        <time>2019-07-14T21:32:05Z</time>
      </trkpt>
      <trkpt lat="35.857232920" lon="-106.493183850">
        <ele>2578.900</ele>
        <time>2019-07-14T21:32:06Z</time>
      </trkpt>
      <trkpt lat="35.857257190" lon="-106.493246040">
        <ele>2579.100</ele>
        <time>2019-07-14T21:32:07Z</time>
      </trkpt>
      <trkpt lat="35.857282850" lon="-106.493306110">
        <ele>2579.300</ele>
        <time>2019-07-14T21:32:08Z</time>
      </trkpt>
      <trkpt lat="35.857296560" lon="-106.493381870">
        <ele>2579.100</ele>
        <time>2019-07-14T21:32:09Z</time>
      </trkpt>
      <trkpt lat="35.857306290" lon="-106.493455210">
        <ele>2578.900</ele>
        <time>2019-07-14T21:32:10Z</time>
      </trkpt>
      <trkpt lat="35.857324220" lon="-106.493519820">
        <ele>2580.800</ele>
        <time>2019-07-14T21:32:11Z</time>
      </trkpt>
      <trkpt lat="35.857337440" lon="-106.493588630">
        <ele>2580.300</ele>
        <time>2019-07-14T21:32:12Z</time>
      </trkpt>
      <trkpt lat="35.857339960" lon="-106.493655790">
        <ele>2580.400</ele>
        <time>2019-07-14T21:32:13Z</time>
      </trkpt>
      <trkpt lat="35.857365530" lon="-106.493724150">
        <ele>2579.500</ele>
        <time>2019-07-14T21:32:14Z</time>
      </trkpt>
      <trkpt lat="35.857382260" lon="-106.493790770">
        <ele>2579.500</ele>
        <time>2019-07-14T21:32:15Z</time>
      </trkpt>
      <trkpt lat="35.857393610" lon="-106.493848400">
        <ele>2579.100</ele>
        <time>2019-07-14T21:32:16Z</time>
      </trkpt>
      <trkpt lat="35.857418410" lon="-106.493904450">
        <ele>2579.900</ele>
        <time>2019-07-14T21:32:17Z</time>
      </trkpt>
      <trkpt lat="35.857435400" lon="-106.493980550">
        <ele>2579.800</ele>
        <time>2019-07-14T21:32:18Z</time>
      </trkpt>
      <trkpt lat="35.857439800" lon="-106.494063560">
        <ele>2579.600</ele>
        <time>2019-07-14T21:32:19Z</time>
      </trkpt>
      <trkpt lat="35.857465720" lon="-106.494137180">
        <ele>2579.100</ele>
        <time>2019-07-14T21:32:20Z</time>
      </trkpt>
      <trkpt lat="35.857478160" lon="-106.494205640">
        <ele>2579.300</ele>
        <time>2019-07-14T21:32:21Z</time>
      </trkpt>
      <trkpt lat="35.857498030" lon="-106.494277540">
        <ele>2579.300</ele>
        <time>2019-07-14T21:32:22Z</time>
      </trkpt>
      <trkpt lat="35.857510680" lon="-106.494330960">
        <ele>2578.500</ele>
        <time>2019-07-14T21:32:23Z</time>
      </trkpt>
      <trkpt lat="35.857533890" lon="-106.494410680">
        <ele>2577.800</ele>
        <time>2019-07-14T21:32:24Z</time>
      </trkpt>
      <trkpt lat="35.857545410" lon="-106.494496050">
        <ele>2579.500</ele>
        <time>2019-07-14T21:32:25Z</time>
      </trkpt>
      <trkpt lat="35.857554200" lon="-106.494577890">
        <ele>2580.000</ele>
        <time>2019-07-14T21:32:26Z</time>
      </trkpt>
      <trkpt lat="35.857560300" lon="-106.494646450">
        <ele>2580.100</ele>
        <time>2019-07-14T21:32:27Z</time>
      </trkpt>
      <trkpt lat="35.857566890" lon="-106.494722750">
        <ele>2580.200</ele>
        <time>2019-07-14T21:32:28Z</time>
      </trkpt>
      <trkpt lat="35.857572820" lon="-106.494806200">
        <ele>2579.900</ele>
        <time>2019-07-14T21:32:29Z</time>
      </trkpt>
      <trkpt lat="35.857584480" lon="-106.494885530">
        <ele>2580.000</ele>
        <time>2019-07-14T21:32:30Z</time>
      </trkpt>
      <trkpt lat="35.857599130" lon="-106.494955580">
        <ele>2578.900</ele>
        <time>2019-07-14T21:32:31Z</time>
      </trkpt>
      <trkpt lat="35.857609700" lon="-106.495036480">
        <ele>2579.000</ele>
        <time>2019-07-14T21:32:32Z</time>
      </trkpt>
      <trkpt lat="35.857618300" lon="-106.495117340">
        <ele>2579.000</ele>
        <time>2019-07-14T21:32:33Z</time>
      </trkpt>
      <trkpt lat="35.857628930" lon="-106.495198710">
        <ele>2579.100</ele>
        <time>2019-07-14T21:32:34Z</time>
      </trkpt>
      <trkpt lat="35.857634870" lon="-106.495277180">
        <ele>2579.200</ele>
        <time>2019-07-14T21:32:35Z</time>
      </trkpt>
      <trkpt lat="35.857641370" lon="-106.495351730">
        <ele>2579.700</ele>
        <time>2019-07-14T21:32:36Z</time>
      </trkpt>
      <trkpt lat="35.857646640" lon="-106.495429000">
        <ele>2580.200</ele>
        <time>2019-07-14T21:32:37Z</time>
      </trkpt>
      <trkpt lat="35.857665960" lon="-106.495510320">
        <ele>2579.900</ele>
        <time>2019-07-14T21:32:38Z</time>
      </trkpt>
      <trkpt lat="35.857673070" lon="-106.495599800">
        <ele>2580.000</ele>
        <time>2019-07-14T21:32:39Z</time>
      </trkpt>
      <trkpt lat="35.857672060" lon="-106.495674740">
        <ele>2581.200</ele>
        <time>2019-07-14T21:32:40Z</time>
      </trkpt>
      <trkpt lat="35.857671700" lon="-106.495758580">
        <ele>2581.300</ele>
        <time>2019-07-14T21:32:41Z</time>
      </trkpt>
      <trkpt lat="35.857675140" lon="-106.495850590">
        <ele>2581.200</ele>
        <time>2019-07-14T21:32:42Z</time>
      </trkpt>
      <trkpt lat="35.857677800" lon="-106.495932640">
        <ele>2580.800</ele>
        <time>2019-07-14T21:32:43Z</time>
      </trkpt>
      <trkpt lat="35.857677770" lon="-106.496022330">
        <ele>2581.700</ele>
        <time>2019-07-14T21:32:44Z</time>
      </trkpt>
      <trkpt lat="35.857681540" lon="-106.496105670">
        <ele>2582.900</ele>
        <time>2019-07-14T21:32:45Z</time>
      </trkpt>
      <trkpt lat="35.857681630" lon="-106.496183910">
        <ele>2582.800</ele>
        <time>2019-07-14T21:32:46Z</time>
      </trkpt>
      <trkpt lat="35.857687330" lon="-106.496266320">
        <ele>2583.200</ele>
        <time>2019-07-14T21:32:47Z</time>
      </trkpt>
      <trkpt lat="35.857688490" lon="-106.496346910">
        <ele>2583.300</ele>
        <time>2019-07-14T21:32:48Z</time>
      </trkpt>
      <trkpt lat="35.857690370" lon="-106.496427910">
        <ele>2583.500</ele>
        <time>2019-07-14T21:32:49Z</time>
      </trkpt>
      <trkpt lat="35.857690340" lon="-106.496510630">
        <ele>2583.400</ele>
        <time>2019-07-14T21:32:50Z</time>
      </trkpt>
      <trkpt lat="35.857699530" lon="-106.496595520">
        <ele>2584.000</ele>
        <time>2019-07-14T21:32:51Z</time>
      </trkpt>
      <trkpt lat="35.857709430" lon="-106.496667680">
        <ele>2584.100</ele>
        <time>2019-07-14T21:32:52Z</time>
      </trkpt>
      <trkpt lat="35.857711700" lon="-106.496747150">
        <ele>2584.400</ele>
        <time>2019-07-14T21:32:53Z</time>
      </trkpt>
      <trkpt lat="35.857713230" lon="-106.496828450">
        <ele>2584.800</ele>
        <time>2019-07-14T21:32:54Z</time>
      </trkpt>
      <trkpt lat="35.857712360" lon="-106.496896750">
        <ele>2584.700</ele>
        <time>2019-07-14T21:32:55Z</time>
      </trkpt>
      <trkpt lat="35.857719850" lon="-106.496977760">
        <ele>2585.400</ele>
        <time>2019-07-14T21:32:56Z</time>
      </trkpt>
      <trkpt lat="35.857726360" lon="-106.497049360">
        <ele>2586.000</ele>
        <time>2019-07-14T21:32:57Z</time>
      </trkpt>
      <trkpt lat="35.857729110" lon="-106.497123430">
        <ele>2586.000</ele>
        <time>2019-07-14T21:32:58Z</time>
      </trkpt>
      <trkpt lat="35.857729580" lon="-106.497207270">
        <ele>2586.000</ele>
        <time>2019-07-14T21:32:59Z</time>
      </trkpt>
      <trkpt lat="35.857737100" lon="-106.497291210">
        <ele>2586.600</ele>
        <time>2019-07-14T21:33:00Z</time>
      </trkpt>
      <trkpt lat="35.857745280" lon="-106.497376320">
        <ele>2586.100</ele>
        <time>2019-07-14T21:33:01Z</time>
      </trkpt>
      <trkpt lat="35.857744790" lon="-106.497459370">
        <ele>2586.300</ele>
        <time>2019-07-14T21:33:02Z</time>
      </trkpt>
      <trkpt lat="35.857745250" lon="-106.497555260">
        <ele>2586.100</ele>
        <time>2019-07-14T21:33:03Z</time>
      </trkpt>
      <trkpt lat="35.857748740" lon="-106.497646740">
        <ele>2586.300</ele>
        <time>2019-07-14T21:33:04Z</time>
      </trkpt>
      <trkpt lat="35.857748230" lon="-106.497740460">
        <ele>2585.700</ele>
        <time>2019-07-14T21:33:05Z</time>
      </trkpt>
      <trkpt lat="35.857753240" lon="-106.497831790">
        <ele>2585.200</ele>
        <time>2019-07-14T21:33:06Z</time>
      </trkpt>
      <trkpt lat="35.857755880" lon="-106.497927500">
        <ele>2585.400</ele>
        <time>2019-07-14T21:33:07Z</time>
      </trkpt>
      <trkpt lat="35.857757000" lon="-106.498020860">
        <ele>2585.400</ele>
        <time>2019-07-14T21:33:08Z</time>
      </trkpt>
      <trkpt lat="35.857759540" lon="-106.498119260">
        <ele>2585.800</ele>
        <time>2019-07-14T21:33:09Z</time>
      </trkpt>
      <trkpt lat="35.857761220" lon="-106.498210530">
        <ele>2585.900</ele>
        <time>2019-07-14T21:33:10Z</time>
      </trkpt>
      <trkpt lat="35.857762110" lon="-106.498304240">
        <ele>2586.100</ele>
        <time>2019-07-14T21:33:11Z</time>
      </trkpt>
      <trkpt lat="35.857760740" lon="-106.498386950">
        <ele>2585.800</ele>
        <time>2019-07-14T21:33:12Z</time>
      </trkpt>
      <trkpt lat="35.857759960" lon="-106.498471480">
        <ele>2586.000</ele>
        <time>2019-07-14T21:33:13Z</time>
      </trkpt>
      <trkpt lat="35.857759450" lon="-106.498559290">
        <ele>2586.500</ele>
        <time>2019-07-14T21:33:14Z</time>
      </trkpt>
      <trkpt lat="35.857755340" lon="-106.498635810">
        <ele>2587.100</ele>
        <time>2019-07-14T21:33:15Z</time>
      </trkpt>
      <trkpt lat="35.857757960" lon="-106.498717910">
        <ele>2587.100</ele>
        <time>2019-07-14T21:33:16Z</time>
      </trkpt>
      <trkpt lat="35.857753370" lon="-106.498787330">
        <ele>2588.100</ele>
        <time>2019-07-14T21:33:17Z</time>
      </trkpt>
      <trkpt lat="35.857758720" lon="-106.498854430">
        <ele>2589.100</ele>
        <time>2019-07-14T21:33:18Z</time>
      </trkpt>
      <trkpt lat="35.857764290" lon="-106.498931200">
        <ele>2588.600</ele>
        <time>2019-07-14T21:33:19Z</time>
      </trkpt>
      <trkpt lat="35.857758670" lon="-106.499006000">
        <ele>2589.000</ele>
        <time>2019-07-14T21:33:20Z</time>
      </trkpt>
      <trkpt lat="35.857755020" lon="-106.499089810">
        <ele>2589.000</ele>
        <time>2019-07-14T21:33:21Z</time>
      </trkpt>
      <trkpt lat="35.857750480" lon="-106.499170750">
        <ele>2588.700</ele>
        <time>2019-07-14T21:33:22Z</time>
      </trkpt>
      <trkpt lat="35.857746880" lon="-106.499250670">
        <ele>2590.100</ele>
        <time>2019-07-14T21:33:23Z</time>
      </trkpt>
      <trkpt lat="35.857743880" lon="-106.499329110">
        <ele>2590.400</ele>
        <time>2019-07-14T21:33:24Z</time>
      </trkpt>
      <trkpt lat="35.857743080" lon="-106.499412230">
        <ele>2591.000</ele>
        <time>2019-07-14T21:33:25Z</time>
      </trkpt>
      <trkpt lat="35.857742960" lon="-106.499486830">
        <ele>2590.600</ele>
        <time>2019-07-14T21:33:26Z</time>
      </trkpt>
      <trkpt lat="35.857731080" lon="-106.499567260">
        <ele>2590.900</ele>
        <time>2019-07-14T21:33:27Z</time>
      </trkpt>
      <trkpt lat="35.857723030" lon="-106.499640380">
        <ele>2590.700</ele>
        <time>2019-07-14T21:33:28Z</time>
      </trkpt>
      <trkpt lat="35.857715610" lon="-106.499718410">
        <ele>2590.300</ele>
        <time>2019-07-14T21:33:29Z</time>
      </trkpt>
      <trkpt lat="35.857711620" lon="-106.499796570">
        <ele>2590.300</ele>
        <time>2019-07-14T21:33:30Z</time>
      </trkpt>
      <trkpt lat="35.857708720" lon="-106.499869600">
        <ele>2590.200</ele>
        <time>2019-07-14T21:33:31Z</time>
      </trkpt>
      <trkpt lat="35.857711980" lon="-106.499944620">
        <ele>2589.200</ele>
        <time>2019-07-14T21:33:32Z</time>
      </trkpt>
      <trkpt lat="35.857705500" lon="-106.500028360">
        <ele>2588.900</ele>
        <time>2019-07-14T21:33:33Z</time>
      </trkpt>
      <trkpt lat="35.857703810" lon="-106.500105120">
        <ele>2588.900</ele>
        <time>2019-07-14T21:33:34Z</time>
      </trkpt>
      <trkpt lat="35.857698420" lon="-106.500187100">
        <ele>2588.900</ele>
        <time>2019-07-14T21:33:35Z</time>
      </trkpt>
      <trkpt lat="35.857695270" lon="-106.500270050">
        <ele>2589.200</ele>
        <time>2019-07-14T21:33:36Z</time>
      </trkpt>
      <trkpt lat="35.857690630" lon="-106.500357230">
        <ele>2588.600</ele>
        <time>2019-07-14T21:33:37Z</time>
      </trkpt>
      <trkpt lat="35.857693040" lon="-106.500434390">
        <ele>2588.700</ele>
        <time>2019-07-14T21:33:38Z</time>
      </trkpt>
      <trkpt lat="35.857693160" lon="-106.500515370">
        <ele>2588.400</ele>
        <time>2019-07-14T21:33:39Z</time>
      </trkpt>
      <trkpt lat="35.857696460" lon="-106.500595540">
        <ele>2588.300</ele>
        <time>2019-07-14T21:33:40Z</time>
      </trkpt>
      <trkpt lat="35.857692910" lon="-106.500673910">
        <ele>2587.900</ele>
        <time>2019-07-14T21:33:41Z</time>
      </trkpt>
      <trkpt lat="35.857693730" lon="-106.500760700">
        <ele>2588.200</ele>
        <time>2019-07-14T21:33:42Z</time>
      </trkpt>
      <trkpt lat="35.857690890" lon="-106.500844880">
        <ele>2589.000</ele>
        <time>2019-07-14T21:33:43Z</time>
      </trkpt>
      <trkpt lat="35.857694200" lon="-106.500933680">
        <ele>2589.200</ele>
        <time>2019-07-14T21:33:44Z</time>
      </trkpt>
      <trkpt lat="35.857698610" lon="-106.501028230">
        <ele>2588.900</ele>
        <time>2019-07-14T21:33:45Z</time>
      </trkpt>
      <trkpt lat="35.857699630" lon="-106.501122020">
        <ele>2589.400</ele>
        <time>2019-07-14T21:33:46Z</time>
      </trkpt>
      <trkpt lat="35.857700010" lon="-106.501209770">
        <ele>2589.300</ele>
        <time>2019-07-14T21:33:47Z</time>
      </trkpt>
      <trkpt lat="35.857701300" lon="-106.501303160">
        <ele>2589.000</ele>
        <time>2019-07-14T21:33:48Z</time>
      </trkpt>
      <trkpt lat="35.857700170" lon="-106.501387080">
        <ele>2589.700</ele>
        <time>2019-07-14T21:33:49Z</time>
      </trkpt>
      <trkpt lat="35.857700570" lon="-106.501471250">
        <ele>2588.900</ele>
        <time>2019-07-14T21:33:50Z</time>
      </trkpt>
      <trkpt lat="35.857703480" lon="-106.501557770">
        <ele>2589.400</ele>
        <time>2019-07-14T21:33:51Z</time>
      </trkpt>
      <trkpt lat="35.857705880" lon="-106.501646730">
        <ele>2589.200</ele>
        <time>2019-07-14T21:33:52Z</time>
      </trkpt>
      <trkpt lat="35.857711500" lon="-106.501739690">
        <ele>2589.000</ele>
        <time>2019-07-14T21:33:53Z</time>
      </trkpt>
      <trkpt lat="35.857718190" lon="-106.501833050">
        <ele>2588.600</ele>
        <time>2019-07-14T21:33:54Z</time>
      </trkpt>
      <trkpt lat="35.857720580" lon="-106.501917800">
        <ele>2588.500</ele>
        <time>2019-07-14T21:33:55Z</time>
      </trkpt>
      <trkpt lat="35.857722800" lon="-106.502008730">
        <ele>2588.100</ele>
        <time>2019-07-14T21:33:56Z</time>
      </trkpt>
      <trkpt lat="35.857726690" lon="-106.502101870">
        <ele>2588.400</ele>
        <time>2019-07-14T21:33:57Z</time>
      </trkpt>
      <trkpt lat="35.857731360" lon="-106.502185140">
        <ele>2588.300</ele>
        <time>2019-07-14T21:33:58Z</time>
      </trkpt>
      <trkpt lat="35.857739780" lon="-106.502270300">
        <ele>2589.900</ele>
        <time>2019-07-14T21:33:59Z</time>
      </trkpt>
      <trkpt lat="35.857742800" lon="-106.502353530">
        <ele>2590.100</ele>
        <time>2019-07-14T21:34:00Z</time>
      </trkpt>
      <trkpt lat="35.857753470" lon="-106.502443810">
        <ele>2590.100</ele>
        <time>2019-07-14T21:34:01Z</time>
      </trkpt>
      <trkpt lat="35.857753550" lon="-106.502527700">
        <ele>2590.300</ele>
        <time>2019-07-14T21:34:02Z</time>
      </trkpt>
      <trkpt lat="35.857756020" lon="-106.502621440">
        <ele>2590.800</ele>
        <time>2019-07-14T21:34:03Z</time>
      </trkpt>
      <trkpt lat="35.857755020" lon="-106.502703110">
        <ele>2591.500</ele>
        <time>2019-07-14T21:34:04Z</time>
      </trkpt>
      <trkpt lat="35.857760590" lon="-106.502787890">
        <ele>2591.600</ele>
        <time>2019-07-14T21:34:05Z</time>
      </trkpt>
      <trkpt lat="35.857765070" lon="-106.502858980">
        <ele>2592.300</ele>
        <time>2019-07-14T21:34:06Z</time>
      </trkpt>
      <trkpt lat="35.857765770" lon="-106.502921220">
        <ele>2593.400</ele>
        <time>2019-07-14T21:34:07Z</time>
      </trkpt>
      <trkpt lat="35.857764910" lon="-106.502996770">
        <ele>2593.400</ele>
        <time>2019-07-14T21:34:08Z</time>
      </trkpt>
      <trkpt lat="35.857770530" lon="-106.503073620">
        <ele>2593.300</ele>
        <time>2019-07-14T21:34:09Z</time>
      </trkpt>
      <trkpt lat="35.857777020" lon="-106.503156270">
        <ele>2593.400</ele>
        <time>2019-07-14T21:34:10Z</time>
      </trkpt>
      <trkpt lat="35.857778140" lon="-106.503247100">
        <ele>2593.200</ele>
        <time>2019-07-14T21:34:11Z</time>
      </trkpt>
      <trkpt lat="35.857776480" lon="-106.503329710">
        <ele>2593.300</ele>
        <time>2019-07-14T21:34:12Z</time>
      </trkpt>
      <trkpt lat="35.857773930" lon="-106.503420370">
        <ele>2593.000</ele>
        <time>2019-07-14T21:34:13Z</time>
      </trkpt>
      <trkpt lat="35.857774930" lon="-106.503510740">
        <ele>2593.500</ele>
        <time>2019-07-14T21:34:14Z</time>
      </trkpt>
      <trkpt lat="35.857774230" lon="-106.503600210">
        <ele>2593.500</ele>
        <time>2019-07-14T21:34:15Z</time>
      </trkpt>
      <trkpt lat="35.857772660" lon="-106.503692710">
        <ele>2593.800</ele>
        <time>2019-07-14T21:34:16Z</time>
      </trkpt>
      <trkpt lat="35.857770880" lon="-106.503773240">
        <ele>2593.700</ele>
        <time>2019-07-14T21:34:17Z</time>
      </trkpt>
      <trkpt lat="35.857770130" lon="-106.503854410">
        <ele>2594.100</ele>
        <time>2019-07-14T21:34:18Z</time>
      </trkpt>
      <trkpt lat="35.857765040" lon="-106.503930470">
        <ele>2595.400</ele>
        <time>2019-07-14T21:34:19Z</time>
      </trkpt>
      <trkpt lat="35.857767680" lon="-106.504007400">
        <ele>2596.000</ele>
        <time>2019-07-14T21:34:20Z</time>
      </trkpt>
      <trkpt lat="35.857770650" lon="-106.504086820">
        <ele>2596.000</ele>
        <time>2019-07-14T21:34:21Z</time>
      </trkpt>
      <trkpt lat="35.857778200" lon="-106.504161850">
        <ele>2596.500</ele>
        <time>2019-07-14T21:34:22Z</time>
      </trkpt>
      <trkpt lat="35.857788610" lon="-106.504243190">
        <ele>2596.800</ele>
        <time>2019-07-14T21:34:23Z</time>
      </trkpt>
      <trkpt lat="35.857799190" lon="-106.504326300">
        <ele>2596.900</ele>
        <time>2019-07-14T21:34:24Z</time>
      </trkpt>
      <trkpt lat="35.857805600" lon="-106.504410190">
        <ele>2597.100</ele>
        <time>2019-07-14T21:34:25Z</time>
      </trkpt>
      <trkpt lat="35.857815590" lon="-106.504499610">
        <ele>2597.300</ele>
        <time>2019-07-14T21:34:26Z</time>
      </trkpt>
      <trkpt lat="35.857826590" lon="-106.504585690">
        <ele>2597.500</ele>
        <time>2019-07-14T21:34:27Z</time>
      </trkpt>
      <trkpt lat="35.857840610" lon="-106.504679340">
        <ele>2597.300</ele>
        <time>2019-07-14T21:34:28Z</time>
      </trkpt>
      <trkpt lat="35.857856660" lon="-106.504776750">
        <ele>2597.100</ele>
        <time>2019-07-14T21:34:29Z</time>
      </trkpt>
      <trkpt lat="35.857869270" lon="-106.504860030">
        <ele>2596.700</ele>
        <time>2019-07-14T21:34:30Z</time>
      </trkpt>
      <trkpt lat="35.857882720" lon="-106.504951960">
        <ele>2596.400</ele>
        <time>2019-07-14T21:34:31Z</time>
      </trkpt>
      <trkpt lat="35.857901790" lon="-106.505052970">
        <ele>2596.200</ele>
        <time>2019-07-14T21:34:32Z</time>
      </trkpt>
      <trkpt lat="35.857915530" lon="-106.505138270">
        <ele>2595.900</ele>
        <time>2019-07-14T21:34:33Z</time>
      </trkpt>
      <trkpt lat="35.857938230" lon="-106.505238540">
        <ele>2596.100</ele>
        <time>2019-07-14T21:34:34Z</time>
      </trkpt>
      <trkpt lat="35.857961340" lon="-106.505337400">
        <ele>2596.200</ele>
        <time>2019-07-14T21:34:35Z</time>
      </trkpt>
      <trkpt lat="35.857978410" lon="-106.505443070">
        <ele>2596.400</ele>
        <time>2019-07-14T21:34:36Z</time>
      </trkpt>
      <trkpt lat="35.857984350" lon="-106.505546950">
        <ele>2596.400</ele>
        <time>2019-07-14T21:34:37Z</time>
      </trkpt>
      <trkpt lat="35.858003430" lon="-106.505648620">
        <ele>2596.900</ele>
        <time>2019-07-14T21:34:38Z</time>
      </trkpt>
      <trkpt lat="35.858029210" lon="-106.505743500">
        <ele>2596.400</ele>
        <time>2019-07-14T21:34:39Z</time>
      </trkpt>
      <trkpt lat="35.858054860" lon="-106.505845170">
        <ele>2596.000</ele>
        <time>2019-07-14T21:34:40Z</time>
      </trkpt>
      <trkpt lat="35.858073960" lon="-106.505945120">
        <ele>2596.000</ele>
        <time>2019-07-14T21:34:41Z</time>
      </trkpt>
      <trkpt lat="35.858100080" lon="-106.506060230">
        <ele>2596.900</ele>
        <time>2019-07-14T21:34:42Z</time>
      </trkpt>
      <trkpt lat="35.858120920" lon="-106.506151810">
        <ele>2597.600</ele>
        <time>2019-07-14T21:34:43Z</time>
      </trkpt>
      <trkpt lat="35.858134180" lon="-106.506258230">
        <ele>2597.900</ele>
        <time>2019-07-14T21:34:44Z</time>
      </trkpt>
      <trkpt lat="35.858146360" lon="-106.506372910">
        <ele>2597.900</ele>
        <time>2019-07-14T21:34:45Z</time>
      </trkpt>
      <trkpt lat="35.858162840" lon="-106.506481600">
        <ele>2598.200</ele>
        <time>2019-07-14T21:34:46Z</time>
      </trkpt>
      <trkpt lat="35.858184690" lon="-106.506594430">
        <ele>2598.500</ele>
        <time>2019-07-14T21:34:47Z</time>
      </trkpt>
      <trkpt lat="35.858210320" lon="-106.506700270">
        <ele>2597.900</ele>
        <time>2019-07-14T21:34:48Z</time>
      </trkpt>
      <trkpt lat="35.858227880" lon="-106.506799920">
        <ele>2597.700</ele>
        <time>2019-07-14T21:34:49Z</time>
      </trkpt>
      <trkpt lat="35.858246610" lon="-106.506908810">
        <ele>2598.400</ele>
        <time>2019-07-14T21:34:50Z</time>
      </trkpt>
      <trkpt lat="35.858260240" lon="-106.506992070">
        <ele>2596.400</ele>
        <time>2019-07-14T21:34:51Z</time>
      </trkpt>
      <trkpt lat="35.858285350" lon="-106.507096250">
        <ele>2596.500</ele>
        <time>2019-07-14T21:34:52Z</time>
      </trkpt>
      <trkpt lat="35.858304870" lon="-106.507186550">
        <ele>2596.600</ele>
        <time>2019-07-14T21:34:53Z</time>
      </trkpt>
      <trkpt lat="35.858314310" lon="-106.507304380">
        <ele>2596.400</ele>
        <time>2019-07-14T21:34:54Z</time>
      </trkpt>
      <trkpt lat="35.858324780" lon="-106.507407800">
        <ele>2597.000</ele>
        <time>2019-07-14T21:34:55Z</time>
      </trkpt>
      <trkpt lat="35.858353800" lon="-106.507508930">
        <ele>2595.300</ele>
        <time>2019-07-14T21:34:56Z</time>
      </trkpt>
      <trkpt lat="35.858367280" lon="-106.507620720">
        <ele>2594.300</ele>
        <time>2019-07-14T21:34:57Z</time>
      </trkpt>
      <trkpt lat="35.858377360" lon="-106.507718250">
        <ele>2594.000</ele>
        <time>2019-07-14T21:34:58Z</time>
      </trkpt>
      <trkpt lat="35.858393980" lon="-106.507833530">
        <ele>2594.400</ele>
        <time>2019-07-14T21:34:59Z</time>
      </trkpt>
      <trkpt lat="35.858404980" lon="-106.507939350">
        <ele>2594.600</ele>
        <time>2019-07-14T21:35:00Z</time>
      </trkpt>
      <trkpt lat="35.858419810" lon="-106.508042850">
        <ele>2594.300</ele>
        <time>2019-07-14T21:35:01Z</time>
      </trkpt>
      <trkpt lat="35.858433470" lon="-106.508145740">
        <ele>2594.000</ele>
        <time>2019-07-14T21:35:02Z</time>
      </trkpt>
      <trkpt lat="35.858446160" lon="-106.508256180">
        <ele>2594.600</ele>
        <time>2019-07-14T21:35:03Z</time>
      </trkpt>
      <trkpt lat="35.858457370" lon="-106.508365950">
        <ele>2593.900</ele>
        <time>2019-07-14T21:35:04Z</time>
      </trkpt>
      <trkpt lat="35.858468990" lon="-106.508478740">
        <ele>2594.300</ele>
        <time>2019-07-14T21:35:05Z</time>
      </trkpt>
      <trkpt lat="35.858481940" lon="-106.508582560">
        <ele>2595.600</ele>
        <time>2019-07-14T21:35:06Z</time>
      </trkpt>
      <trkpt lat="35.858494490" lon="-106.508692520">
        <ele>2595.500</ele>
        <time>2019-07-14T21:35:07Z</time>
      </trkpt>
      <trkpt lat="35.858514230" lon="-106.508789060">
        <ele>2595.400</ele>
        <time>2019-07-14T21:35:08Z</time>
      </trkpt>
      <trkpt lat="35.858535630" lon="-106.508888780">
        <ele>2594.100</ele>
        <time>2019-07-14T21:35:09Z</time>
      </trkpt>
      <trkpt lat="35.858552380" lon="-106.508993580">
        <ele>2594.900</ele>
        <time>2019-07-14T21:35:10Z</time>
      </trkpt>
      <trkpt lat="35.858574130" lon="-106.509102070">
        <ele>2593.900</ele>
        <time>2019-07-14T21:35:11Z</time>
      </trkpt>
      <trkpt lat="35.858591570" lon="-106.509210990">
        <ele>2593.900</ele>
        <time>2019-07-14T21:35:12Z</time>
      </trkpt>
      <trkpt lat="35.858616820" lon="-106.509319300">
        <ele>2594.100</ele>
        <time>2019-07-14T21:35:13Z</time>
      </trkpt>
      <trkpt lat="35.858646110" lon="-106.509437000">
        <ele>2594.200</ele>
        <time>2019-07-14T21:35:14Z</time>
      </trkpt>
      <trkpt lat="35.858667170" lon="-106.509536390">
        <ele>2594.500</ele>
        <time>2019-07-14T21:35:15Z</time>
      </trkpt>
      <trkpt lat="35.858696260" lon="-106.509648500">
        <ele>2594.300</ele>
        <time>2019-07-14T21:35:16Z</time>
      </trkpt>
      <trkpt lat="35.858743170" lon="-106.509747370">
        <ele>2593.900</ele>
        <time>2019-07-14T21:35:17Z</time>
      </trkpt>
      <trkpt lat="35.858771040" lon="-106.509845710">
        <ele>2593.600</ele>
        <time>2019-07-14T21:35:18Z</time>
      </trkpt>
      <trkpt lat="35.858803110" lon="-106.509932470">
        <ele>2593.600</ele>
        <time>2019-07-14T21:35:19Z</time>
      </trkpt>
      <trkpt lat="35.858832670" lon="-106.510009110">
        <ele>2594.400</ele>
        <time>2019-07-14T21:35:20Z</time>
      </trkpt>
      <trkpt lat="35.858867040" lon="-106.510081540">
        <ele>2595.600</ele>
        <time>2019-07-14T21:35:21Z</time>
      </trkpt>
      <trkpt lat="35.858902390" lon="-106.510155010">
        <ele>2596.500</ele>
        <time>2019-07-14T21:35:22Z</time>
      </trkpt>
      <trkpt lat="35.858944760" lon="-106.510239580">
        <ele>2595.800</ele>
        <time>2019-07-14T21:35:23Z</time>
      </trkpt>
      <trkpt lat="35.858983600" lon="-106.510306400">
        <ele>2597.500</ele>
        <time>2019-07-14T21:35:24Z</time>
      </trkpt>
      <trkpt lat="35.859038420" lon="-106.510361130">
        <ele>2597.100</ele>
        <time>2019-07-14T21:35:25Z</time>
      </trkpt>
      <trkpt lat="35.859085260" lon="-106.510430570">
        <ele>2596.400</ele>
        <time>2019-07-14T21:35:26Z</time>
      </trkpt>
      <trkpt lat="35.859134160" lon="-106.510483960">
        <ele>2597.700</ele>
        <time>2019-07-14T21:35:27Z</time>
      </trkpt>
      <trkpt lat="35.859193650" lon="-106.510535120">
        <ele>2598.600</ele>
        <time>2019-07-14T21:35:28Z</time>
      </trkpt>
      <trkpt lat="35.859257600" lon="-106.510586130">
        <ele>2598.700</ele>
        <time>2019-07-14T21:35:29Z</time>
      </trkpt>
      <trkpt lat="35.859334510" lon="-106.510633910">
        <ele>2596.900</ele>
        <time>2019-07-14T21:35:30Z</time>
      </trkpt>
      <trkpt lat="35.859397470" lon="-106.510682210">
        <ele>2597.300</ele>
        <time>2019-07-14T21:35:31Z</time>
      </trkpt>
      <trkpt lat="35.859454130" lon="-106.510723720">
        <ele>2598.400</ele>
        <time>2019-07-14T21:35:32Z</time>
      </trkpt>
      <trkpt lat="35.859512490" lon="-106.510774540">
        <ele>2598.200</ele>
        <time>2019-07-14T21:35:33Z</time>
      </trkpt>
      <trkpt lat="35.859572040" lon="-106.510823780">
        <ele>2597.100</ele>
        <time>2019-07-14T21:35:34Z</time>
      </trkpt>
      <trkpt lat="35.859627020" lon="-106.510874460">
        <ele>2596.800</ele>
        <time>2019-07-14T21:35:35Z</time>
      </trkpt>
      <trkpt lat="35.859676440" lon="-106.510920810">
        <ele>2597.600</ele>
        <time>2019-07-14T21:35:36Z</time>
      </trkpt>
      <trkpt lat="35.859732560" lon="-106.510970700">
        <ele>2598.100</ele>
        <time>2019-07-14T21:35:37Z</time>
      </trkpt>
      <trkpt lat="35.859792120" lon="-106.511020750">
        <ele>2598.800</ele>
        <time>2019-07-14T21:35:38Z</time>
      </trkpt>
      <trkpt lat="35.859854130" lon="-106.511072830">
        <ele>2599.000</ele>
        <time>2019-07-14T21:35:39Z</time>
      </trkpt>
      <trkpt lat="35.859912530" lon="-106.511116970">
        <ele>2598.900</ele>
        <time>2019-07-14T21:35:40Z</time>
      </trkpt>
      <trkpt lat="35.859971670" lon="-106.511172760">
        <ele>2599.200</ele>
        <time>2019-07-14T21:35:41Z</time>
      </trkpt>
      <trkpt lat="35.860032400" lon="-106.511239430">
        <ele>2599.300</ele>
        <time>2019-07-14T21:35:42Z</time>
      </trkpt>
      <trkpt lat="35.860098800" lon="-106.511294830">
        <ele>2599.500</ele>
        <time>2019-07-14T21:35:43Z</time>
      </trkpt>
      <trkpt lat="35.860155730" lon="-106.511345580">
        <ele>2600.200</ele>
        <time>2019-07-14T21:35:44Z</time>
      </trkpt>
      <trkpt lat="35.860218170" lon="-106.511395470">
        <ele>2601.000</ele>
        <time>2019-07-14T21:35:45Z</time>
      </trkpt>
      <trkpt lat="35.860274980" lon="-106.511444720">
        <ele>2601.900</ele>
        <time>2019-07-14T21:35:46Z</time>
      </trkpt>
      <trkpt lat="35.860337380" lon="-106.511490240">
        <ele>2603.300</ele>
        <time>2019-07-14T21:35:47Z</time>
      </trkpt>
      <trkpt lat="35.860392890" lon="-106.511542740">
        <ele>2603.800</ele>
        <time>2019-07-14T21:35:48Z</time>
      </trkpt>
      <trkpt lat="35.860455130" lon="-106.511587510">
        <ele>2604.500</ele>
        <time>2019-07-14T21:35:49Z</time>
      </trkpt>
      <trkpt lat="35.860516730" lon="-106.511634300">
        <ele>2604.000</ele>
        <time>2019-07-14T21:35:50Z</time>
      </trkpt>
      <trkpt lat="35.860572930" lon="-106.511678500">
        <ele>2605.100</ele>
        <time>2019-07-14T21:35:51Z</time>
      </trkpt>
      <trkpt lat="35.860621640" lon="-106.511712620">
        <ele>2605.900</ele>
        <time>2019-07-14T21:35:52Z</time>
      </trkpt>
      <trkpt lat="35.860677380" lon="-106.511762090">
        <ele>2605.800</ele>
        <time>2019-07-14T21:35:53Z</time>
      </trkpt>
      <trkpt lat="35.860728990" lon="-106.511817340">
        <ele>2606.400</ele>
        <time>2019-07-14T21:35:54Z</time>
      </trkpt>
      <trkpt lat="35.860789590" lon="-106.511866670">
        <ele>2607.300</ele>
        <time>2019-07-14T21:35:55Z</time>
      </trkpt>
      <trkpt lat="35.860851120" lon="-106.511920210">
        <ele>2608.600</ele>
        <time>2019-07-14T21:35:56Z</time>
      </trkpt>
      <trkpt lat="35.860908470" lon="-106.511976330">
        <ele>2608.500</ele>
        <time>2019-07-14T21:35:57Z</time>
      </trkpt>
      <trkpt lat="35.860967280" lon="-106.512029170">
        <ele>2608.400</ele>
        <time>2019-07-14T21:35:58Z</time>
      </trkpt>
      <trkpt lat="35.861023620" lon="-106.512086660">
        <ele>2608.200</ele>
        <time>2019-07-14T21:35:59Z</time>
      </trkpt>
      <trkpt lat="35.861078020" lon="-106.512134570">
        <ele>2609.000</ele>
        <time>2019-07-14T21:36:00Z</time>
      </trkpt>
      <trkpt lat="35.861134000" lon="-106.512188310">
        <ele>2609.400</ele>
        <time>2019-07-14T21:36:01Z</time>
      </trkpt>
      <trkpt lat="35.861193170" lon="-106.512240450">
        <ele>2609.300</ele>
        <time>2019-07-14T21:36:02Z</time>
      </trkpt>
      <trkpt lat="35.861247170" lon="-106.512303410">
        <ele>2610.900</ele>
        <time>2019-07-14T21:36:03Z</time>
      </trkpt>
      <trkpt lat="35.861308930" lon="-106.512363060">
        <ele>2610.100</ele>
        <time>2019-07-14T21:36:04Z</time>
      </trkpt>
      <trkpt lat="35.861365950" lon="-106.512418930">
        <ele>2609.100</ele>
        <time>2019-07-14T21:36:05Z</time>
      </trkpt>
      <trkpt lat="35.861418870" lon="-106.512469520">
        <ele>2608.300</ele>
        <time>2019-07-14T21:36:06Z</time>
      </trkpt>
      <trkpt lat="35.861472210" lon="-106.512523340">
        <ele>2608.200</ele>
        <time>2019-07-14T21:36:07Z</time>
      </trkpt>
      <trkpt lat="35.861527690" lon="-106.512592620">
        <ele>2608.900</ele>
        <time>2019-07-14T21:36:08Z</time>
      </trkpt>
      <trkpt lat="35.861580620" lon="-106.512656790">
        <ele>2609.400</ele>
        <time>2019-07-14T21:36:09Z</time>
      </trkpt>
      <trkpt lat="35.861634070" lon="-106.512730580">
        <ele>2607.900</ele>
        <time>2019-07-14T21:36:10Z</time>
      </trkpt>
      <trkpt lat="35.861676810" lon="-106.512808590">
        <ele>2608.600</ele>
        <time>2019-07-14T21:36:11Z</time>
      </trkpt>
      <trkpt lat="35.861711570" lon="-106.512899280">
        <ele>2608.900</ele>
        <time>2019-07-14T21:36:12Z</time>
      </trkpt>
      <trkpt lat="35.861751130" lon="-106.512978860">
        <ele>2610.000</ele>
        <time>2019-07-14T21:36:13Z</time>
      </trkpt>
      <trkpt lat="35.861781950" lon="-106.513062970">
        <ele>2611.700</ele>
        <time>2019-07-14T21:36:14Z</time>
      </trkpt>
      <trkpt lat="35.861814360" lon="-106.513147770">
        <ele>2612.000</ele>
        <time>2019-07-14T21:36:15Z</time>
      </trkpt>
      <trkpt lat="35.861846920" lon="-106.513234360">
        <ele>2611.800</ele>
        <time>2019-07-14T21:36:16Z</time>
      </trkpt>
      <trkpt lat="35.861873430" lon="-106.513323710">
        <ele>2612.100</ele>
        <time>2019-07-14T21:36:17Z</time>
      </trkpt>
      <trkpt lat="35.861899020" lon="-106.513411230">
        <ele>2611.900</ele>
        <time>2019-07-14T21:36:18Z</time>
      </trkpt>
      <trkpt lat="35.861930150" lon="-106.513505910">
        <ele>2610.900</ele>
        <time>2019-07-14T21:36:19Z</time>
      </trkpt>
      <trkpt lat="35.861949110" lon="-106.513584240">
        <ele>2612.400</ele>
        <time>2019-07-14T21:36:20Z</time>
      </trkpt>
      <trkpt lat="35.861968360" lon="-106.513671520">
        <ele>2613.600</ele>
        <time>2019-07-14T21:36:21Z</time>
      </trkpt>
      <trkpt lat="35.861991840" lon="-106.513757160">
        <ele>2614.100</ele>
        <time>2019-07-14T21:36:22Z</time>
      </trkpt>
      <trkpt lat="35.862020820" lon="-106.513832260">
        <ele>2615.500</ele>
        <time>2019-07-14T21:36:23Z</time>
      </trkpt>
      <trkpt lat="35.862054920" lon="-106.513905430">
        <ele>2614.600</ele>
        <time>2019-07-14T21:36:24Z</time>
      </trkpt>
      <trkpt lat="35.862094010" lon="-106.513975920">
        <ele>2614.400</ele>
        <time>2019-07-14T21:36:25Z</time>
      </trkpt>
      <trkpt lat="35.862127460" lon="-106.514040500">
        <ele>2614.600</ele>
        <time>2019-07-14T21:36:26Z</time>
      </trkpt>
      <trkpt lat="35.862162170" lon="-106.514105460">
        <ele>2615.400</ele>
        <time>2019-07-14T21:36:27Z</time>
      </trkpt>
      <trkpt lat="35.862199430" lon="-106.514174830">
        <ele>2615.500</ele>
        <time>2019-07-14T21:36:28Z</time>
      </trkpt>
      <trkpt lat="35.862245360" lon="-106.514242720">
        <ele>2615.900</ele>
        <time>2019-07-14T21:36:29Z</time>
      </trkpt>
      <trkpt lat="35.862290920" lon="-106.514325450">
        <ele>2615.700</ele>
        <time>2019-07-14T21:36:30Z</time>
      </trkpt>
      <trkpt lat="35.862339510" lon="-106.514401150">
        <ele>2615.800</ele>
        <time>2019-07-14T21:36:31Z</time>
      </trkpt>
      <trkpt lat="35.862381450" lon="-106.514473080">
        <ele>2616.100</ele>
        <time>2019-07-14T21:36:32Z</time>
      </trkpt>
      <trkpt lat="35.862422210" lon="-106.514549870">
        <ele>2616.700</ele>
        <time>2019-07-14T21:36:33Z</time>
      </trkpt>
      <trkpt lat="35.862462350" lon="-106.514629850">
        <ele>2617.400</ele>
        <time>2019-07-14T21:36:34Z</time>
      </trkpt>
      <trkpt lat="35.862503420" lon="-106.514699530">
        <ele>2618.200</ele>
        <time>2019-07-14T21:36:35Z</time>
      </trkpt>
      <trkpt lat="35.862543850" lon="-106.514776760">
        <ele>2618.000</ele>
        <time>2019-07-14T21:36:36Z</time>
      </trkpt>
      <trkpt lat="35.862582350" lon="-106.514849660">
        <ele>2618.500</ele>
        <time>2019-07-14T21:36:37Z</time>
      </trkpt>
      <trkpt lat="35.862621850" lon="-106.514923610">
        <ele>2619.300</ele>
        <time>2019-07-14T21:36:38Z</time>
      </trkpt>
      <trkpt lat="35.862670070" lon="-106.514995800">
        <ele>2619.400</ele>
        <time>2019-07-14T21:36:39Z</time>
      </trkpt>
      <trkpt lat="35.862703490" lon="-106.515071750">
        <ele>2620.600</ele>
        <time>2019-07-14T21:36:40Z</time>
      </trkpt>
      <trkpt lat="35.862744610" lon="-106.515144920">
        <ele>2620.700</ele>
        <time>2019-07-14T21:36:41Z</time>
      </trkpt>
      <trkpt lat="35.862784780" lon="-106.515231180">
        <ele>2621.500</ele>
        <time>2019-07-14T21:36:42Z</time>
      </trkpt>
      <trkpt lat="35.862835020" lon="-106.515309070">
        <ele>2620.600</ele>
        <time>2019-07-14T21:36:43Z</time>
      </trkpt>
      <trkpt lat="35.862874320" lon="-106.515386110">
        <ele>2621.600</ele>
        <time>2019-07-14T21:36:44Z</time>
      </trkpt>
      <trkpt lat="35.862920060" lon="-106.515469260">
        <ele>2622.400</ele>
        <time>2019-07-14T21:36:45Z</time>
      </trkpt>
      <trkpt lat="35.862957660" lon="-106.515550540">
        <ele>2623.000</ele>
        <time>2019-07-14T21:36:46Z</time>
      </trkpt>
      <trkpt lat="35.863001990" lon="-106.515632460">
        <ele>2623.200</ele>
        <time>2019-07-14T21:36:47Z</time>
      </trkpt>
      <trkpt lat="35.863038370" lon="-106.515713040">
        <ele>2625.000</ele>
        <time>2019-07-14T21:36:48Z</time>
      </trkpt>
      <trkpt lat="35.863082930" lon="-106.515792910">
        <ele>2625.100</ele>
        <time>2019-07-14T21:36:49Z</time>
      </trkpt>
      <trkpt lat="35.863118070" lon="-106.515874570">
        <ele>2625.100</ele>
        <time>2019-07-14T21:36:50Z</time>
      </trkpt>
      <trkpt lat="35.863160420" lon="-106.515955920">
        <ele>2624.800</ele>
        <time>2019-07-14T21:36:51Z</time>
      </trkpt>
      <trkpt lat="35.863198170" lon="-106.516027880">
        <ele>2626.000</ele>
        <time>2019-07-14T21:36:52Z</time>
      </trkpt>
      <trkpt lat="35.863237520" lon="-106.516106930">
        <ele>2626.300</ele>
        <time>2019-07-14T21:36:53Z</time>
      </trkpt>
      <trkpt lat="35.863262560" lon="-106.516156720">
        <ele>2627.500</ele>
        <time>2019-07-14T21:36:54Z</time>
      </trkpt>
      <trkpt lat="35.863292690" lon="-106.516218330">
        <ele>2627.700</ele>
        <time>2019-07-14T21:36:55Z</time>
      </trkpt>
      <trkpt lat="35.863328380" lon="-106.516279560">
        <ele>2628.200</ele>
        <time>2019-07-14T21:36:56Z</time>
      </trkpt>
      <trkpt lat="35.863360280" lon="-106.516345120">
        <ele>2629.400</ele>
        <time>2019-07-14T21:36:57Z</time>
      </trkpt>
      <trkpt lat="35.863401380" lon="-106.516416710">
        <ele>2628.800</ele>
        <time>2019-07-14T21:36:58Z</time>
      </trkpt>
      <trkpt lat="35.863436990" lon="-106.516493630">
        <ele>2628.600</ele>
        <time>2019-07-14T21:36:59Z</time>
      </trkpt>
      <trkpt lat="35.863474050" lon="-106.516564070">
        <ele>2629.700</ele>
        <time>2019-07-14T21:37:00Z</time>
      </trkpt>
      <trkpt lat="35.863512920" lon="-106.516648650">
        <ele>2629.600</ele>
        <time>2019-07-14T21:37:01Z</time>
      </trkpt>
      <trkpt lat="35.863546390" lon="-106.516723940">
        <ele>2630.300</ele>
        <time>2019-07-14T21:37:02Z</time>
      </trkpt>
      <trkpt lat="35.863586130" lon="-106.516792600">
        <ele>2631.400</ele>
        <time>2019-07-14T21:37:03Z</time>
      </trkpt>
      <trkpt lat="35.863622630" lon="-106.516867160">
        <ele>2632.000</ele>
        <time>2019-07-14T21:37:04Z</time>
      </trkpt>
      <trkpt lat="35.863657830" lon="-106.516940620">
        <ele>2632.600</ele>
        <time>2019-07-14T21:37:05Z</time>
      </trkpt>
      <trkpt lat="35.863696310" lon="-106.517013710">
        <ele>2632.600</ele>
        <time>2019-07-14T21:37:06Z</time>
      </trkpt>
      <trkpt lat="35.863733740" lon="-106.517083920">
        <ele>2632.800</ele>
        <time>2019-07-14T21:37:07Z</time>
      </trkpt>
      <trkpt lat="35.863777020" lon="-106.517156410">
        <ele>2633.700</ele>
        <time>2019-07-14T21:37:08Z</time>
      </trkpt>
      <trkpt lat="35.863817360" lon="-106.517227540">
        <ele>2633.900</ele>
        <time>2019-07-14T21:37:09Z</time>
      </trkpt>
      <trkpt lat="35.863861410" lon="-106.517292660">
        <ele>2634.100</ele>
        <time>2019-07-14T21:37:10Z</time>
      </trkpt>
      <trkpt lat="35.863898490" lon="-106.517361670">
        <ele>2634.200</ele>
        <time>2019-07-14T21:37:11Z</time>
      </trkpt>
      <trkpt lat="35.863941180" lon="-106.517427760">
        <ele>2634.600</ele>
        <time>2019-07-14T21:37:12Z</time>
      </trkpt>
      <trkpt lat="35.863986400" lon="-106.517493580">
        <ele>2633.300</ele>
        <time>2019-07-14T21:37:13Z</time>
      </trkpt>
      <trkpt lat="35.864034650" lon="-106.517561350">
        <ele>2632.700</ele>
        <time>2019-07-14T21:37:14Z</time>
      </trkpt>
      <trkpt lat="35.864071090" lon="-106.517618840">
        <ele>2633.600</ele>
        <time>2019-07-14T21:37:15Z</time>
      </trkpt>
      <trkpt lat="35.864106860" lon="-106.517686540">
        <ele>2635.800</ele>
        <time>2019-07-14T21:37:16Z</time>
      </trkpt>
      <trkpt lat="35.864144950" lon="-106.517750300">
        <ele>2636.300</ele>
        <time>2019-07-14T21:37:17Z</time>
      </trkpt>
      <trkpt lat="35.864193750" lon="-106.517810570">
        <ele>2635.900</ele>
        <time>2019-07-14T21:37:18Z</time>
      </trkpt>
      <trkpt lat="35.864239680" lon="-106.517875470">
        <ele>2636.900</ele>
        <time>2019-07-14T21:37:19Z</time>
      </trkpt>
      <trkpt lat="35.864291130" lon="-106.517935400">
        <ele>2637.000</ele>
        <time>2019-07-14T21:37:20Z</time>
      </trkpt>
      <trkpt lat="35.864331860" lon="-106.517981460">
        <ele>2638.700</ele>
        <time>2019-07-14T21:37:21Z</time>
      </trkpt>
      <trkpt lat="35.864389930" lon="-106.518016230">
        <ele>2639.200</ele>
        <time>2019-07-14T21:37:22Z</time>
      </trkpt>
      <trkpt lat="35.864450930" lon="-106.518050530">
        <ele>2639.400</ele>
        <time>2019-07-14T21:37:23Z</time>
      </trkpt>
      <trkpt lat="35.864522680" lon="-106.518073140">
        <ele>2637.600</ele>
        <time>2019-07-14T21:37:24Z</time>
      </trkpt>
      <trkpt lat="35.864587680" lon="-106.518082760">
        <ele>2639.300</ele>
        <time>2019-07-14T21:37:25Z</time>
      </trkpt>
      <trkpt lat="35.864647130" lon="-106.518081930">
        <ele>2639.000</ele>
        <time>2019-07-14T21:37:26Z</time>
      </trkpt>
      <trkpt lat="35.864699850" lon="-106.518069370">
        <ele>2641.600</ele>
        <time>2019-07-14T21:37:27Z</time>
      </trkpt>
      <trkpt lat="35.864759180" lon="-106.518045230">
        <ele>2641.900</ele>
        <time>2019-07-14T21:37:28Z</time>
      </trkpt>
      <trkpt lat="35.864806380" lon="-106.518003580">
        <ele>2642.600</ele>
        <time>2019-07-14T21:37:29Z</time>
      </trkpt>
      <trkpt lat="35.864863320" lon="-106.517967780">
        <ele>2642.800</ele>
        <time>2019-07-14T21:37:30Z</time>
      </trkpt>
      <trkpt lat="35.864920530" lon="-106.517928470">
        <ele>2641.500</ele>
        <time>2019-07-14T21:37:31Z</time>
      </trkpt>
      <trkpt lat="35.864971430" lon="-106.517878480">
        <ele>2642.300</ele>
        <time>2019-07-14T21:37:32Z</time>
      </trkpt>
      <trkpt lat="35.865012130" lon="-106.517804620">
        <ele>2641.300</ele>
        <time>2019-07-14T21:37:33Z</time>
      </trkpt>
      <trkpt lat="35.865060700" lon="-106.517734500">
        <ele>2639.800</ele>
        <time>2019-07-14T21:37:34Z</time>
      </trkpt>
      <trkpt lat="35.865099930" lon="-106.517654470">
        <ele>2639.600</ele>
        <time>2019-07-14T21:37:35Z</time>
      </trkpt>
      <trkpt lat="35.865143390" lon="-106.517574140">
        <ele>2640.000</ele>
        <time>2019-07-14T21:37:36Z</time>
      </trkpt>
      <trkpt lat="35.865185990" lon="-106.517500600">
        <ele>2640.100</ele>
        <time>2019-07-14T21:37:37Z</time>
      </trkpt>
      <trkpt lat="35.865248170" lon="-106.517438250">
        <ele>2639.700</ele>
        <time>2019-07-14T21:37:38Z</time>
      </trkpt>
      <trkpt lat="35.865293810" lon="-106.517387260">
        <ele>2641.000</ele>
        <time>2019-07-14T21:37:39Z</time>
      </trkpt>
      <trkpt lat="35.865343440" lon="-106.517349180">
        <ele>2641.400</ele>
        <time>2019-07-14T21:37:40Z</time>
      </trkpt>
      <trkpt lat="35.865385790" lon="-106.517307320">
        <ele>2642.000</ele>
        <time>2019-07-14T21:37:41Z</time>
      </trkpt>
      <trkpt lat="35.865427960" lon="-106.517269400">
        <ele>2642.600</ele>
        <time>2019-07-14T21:37:42Z</time>
      </trkpt>
      <trkpt lat="35.865462230" lon="-106.517236740">
        <ele>2643.300</ele>
        <time>2019-07-14T21:37:43Z</time>
      </trkpt>
      <trkpt lat="35.865504690" lon="-106.517202990">
        <ele>2643.200</ele>
        <time>2019-07-14T21:37:44Z</time>
      </trkpt>
      <trkpt lat="35.865551270" lon="-106.517153200">
        <ele>2643.100</ele>
        <time>2019-07-14T21:37:45Z</time>
      </trkpt>
      <trkpt lat="35.865589900" lon="-106.517102580">
        <ele>2641.200</ele>
        <time>2019-07-14T21:37:46Z</time>
      </trkpt>
      <trkpt lat="35.865645050" lon="-106.517059660">
        <ele>2641.300</ele>
        <time>2019-07-14T21:37:47Z</time>
      </trkpt>
      <trkpt lat="35.865691770" lon="-106.517014370">
        <ele>2642.100</ele>
        <time>2019-07-14T21:37:48Z</time>
      </trkpt>
      <trkpt lat="35.865752200" lon="-106.516955510">
        <ele>2642.600</ele>
        <time>2019-07-14T21:37:49Z</time>
      </trkpt>
      <trkpt lat="35.865798710" lon="-106.516894140">
        <ele>2642.600</ele>
        <time>2019-07-14T21:37:50Z</time>
      </trkpt>
      <trkpt lat="35.865845540" lon="-106.516832270">
        <ele>2642.800</ele>
        <time>2019-07-14T21:37:51Z</time>
      </trkpt>
      <trkpt lat="35.865891220" lon="-106.516766320">
        <ele>2642.900</ele>
        <time>2019-07-14T21:37:52Z</time>
      </trkpt>
      <trkpt lat="35.865943550" lon="-106.516716850">
        <ele>2643.100</ele>
        <time>2019-07-14T21:37:53Z</time>
      </trkpt>
      <trkpt lat="35.865983980" lon="-106.516672580">
        <ele>2642.600</ele>
        <time>2019-07-14T21:37:54Z</time>
      </trkpt>
      <trkpt lat="35.866031750" lon="-106.516625250">
        <ele>2641.600</ele>
        <time>2019-07-14T21:37:55Z</time>
      </trkpt>
      <trkpt lat="35.866064140" lon="-106.516576780">
        <ele>2642.900</ele>
        <time>2019-07-14T21:37:56Z</time>
      </trkpt>
      <trkpt lat="35.866102790" lon="-106.516527850">
        <ele>2642.700</ele>
        <time>2019-07-14T21:37:57Z</time>
      </trkpt>
      <trkpt lat="35.866139690" lon="-106.516498920">
        <ele>2641.100</ele>
        <time>2019-07-14T21:37:58Z</time>
      </trkpt>
      <trkpt lat="35.866181310" lon="-106.516456620">
        <ele>2639.600</ele>
        <time>2019-07-14T21:38:00Z</time>
      </trkpt>
      <trkpt lat="35.866161120" lon="-106.516499840">
        <ele>2640.000</ele>
        <time>2019-07-14T21:40:47Z</time>
      </trkpt>
      <trkpt lat="35.866126670" lon="-106.516529970">
        <ele>2641.200</ele>
        <time>2019-07-14T21:40:49Z</time>
      </trkpt>
      <trkpt lat="35.866097270" lon="-106.516556130">
        <ele>2642.600</ele>
        <time>2019-07-14T21:40:52Z</time>
      </trkpt>
      <trkpt lat="35.866066890" lon="-106.516531530">
        <ele>2647.400</ele>
        <time>2019-07-14T21:41:44Z</time>
      </trkpt>
      <trkpt lat="35.866095110" lon="-106.516498940">
        <ele>2645.100</ele>
        <time>2019-07-14T21:42:43Z</time>
      </trkpt>
      <trkpt lat="35.866128250" lon="-106.516455100">
        <ele>2646.200</ele>
        <time>2019-07-14T21:42:45Z</time>
      </trkpt>
      <trkpt lat="35.866162150" lon="-106.516402240">
        <ele>2645.100</ele>
        <time>2019-07-14T21:42:47Z</time>
      </trkpt>
      <trkpt lat="35.866200570" lon="-106.516342730">
        <ele>2645.800</ele>
        <time>2019-07-14T21:42:49Z</time>
      </trkpt>
      <trkpt lat="35.866249220" lon="-106.516273530">
        <ele>2645.500</ele>
        <time>2019-07-14T21:42:51Z</time>
      </trkpt>
      <trkpt lat="35.866270010" lon="-106.516230200">
        <ele>2647.000</ele>
        <time>2019-07-14T21:42:52Z</time>
      </trkpt>
      <trkpt lat="35.866312700" lon="-106.516206460">
        <ele>2645.900</ele>
        <time>2019-07-14T21:42:53Z</time>
      </trkpt>
      <trkpt lat="35.866349640" lon="-106.516170990">
        <ele>2643.600</ele>
        <time>2019-07-14T21:42:54Z</time>
      </trkpt>
      <trkpt lat="35.866392420" lon="-106.516140400">
        <ele>2643.100</ele>
        <time>2019-07-14T21:42:55Z</time>
      </trkpt>
      <trkpt lat="35.866433400" lon="-106.516119820">
        <ele>2642.400</ele>
        <time>2019-07-14T21:42:56Z</time>
      </trkpt>
      <trkpt lat="35.866471690" lon="-106.516096860">
        <ele>2642.400</ele>
        <time>2019-07-14T21:42:57Z</time>
      </trkpt>
      <trkpt lat="35.866514640" lon="-106.516075170">
        <ele>2642.100</ele>
        <time>2019-07-14T21:42:58Z</time>
      </trkpt>
      <trkpt lat="35.866553050" lon="-106.516062000">
        <ele>2641.800</ele>
        <time>2019-07-14T21:42:59Z</time>
      </trkpt>
      <trkpt lat="35.866590900" lon="-106.516039600">
        <ele>2641.600</ele>
        <time>2019-07-14T21:43:00Z</time>
      </trkpt>
      <trkpt lat="35.866648980" lon="-106.516005900">
        <ele>2641.300</ele>
        <time>2019-07-14T21:43:02Z</time>
      </trkpt>
      <trkpt lat="35.866691550" lon="-106.515995180">
        <ele>2640.400</ele>
        <time>2019-07-14T21:43:03Z</time>
      </trkpt>
      <trkpt lat="35.866763060" lon="-106.515956050">
        <ele>2639.600</ele>
        <time>2019-07-14T21:43:05Z</time>
      </trkpt>
      <trkpt lat="35.866798260" lon="-106.515928700">
        <ele>2639.300</ele>
        <time>2019-07-14T21:43:06Z</time>
      </trkpt>
      <trkpt lat="35.866829910" lon="-106.515888170">
        <ele>2641.200</ele>
        <time>2019-07-14T21:43:07Z</time>
      </trkpt>
      <trkpt lat="35.866866080" lon="-106.515851710">
        <ele>2641.000</ele>
        <time>2019-07-14T21:43:08Z</time>
      </trkpt>
      <trkpt lat="35.866906850" lon="-106.515818720">
        <ele>2640.900</ele>
        <time>2019-07-14T21:43:09Z</time>
      </trkpt>
      <trkpt lat="35.866949390" lon="-106.515794440">
        <ele>2640.400</ele>
        <time>2019-07-14T21:43:10Z</time>
      </trkpt>
      <trkpt lat="35.866993480" lon="-106.515764710">
        <ele>2640.500</ele>
        <time>2019-07-14T21:43:11Z</time>
      </trkpt>
      <trkpt lat="35.867037370" lon="-106.515735590">
        <ele>2640.300</ele>
        <time>2019-07-14T21:43:12Z</time>
      </trkpt>
      <trkpt lat="35.867090470" lon="-106.515716250">
        <ele>2641.000</ele>
        <time>2019-07-14T21:43:13Z</time>
      </trkpt>
      <trkpt lat="35.867139710" lon="-106.515699200">
        <ele>2640.900</ele>
        <time>2019-07-14T21:43:14Z</time>
      </trkpt>
      <trkpt lat="35.867189610" lon="-106.515690600">
        <ele>2641.100</ele>
        <time>2019-07-14T21:43:15Z</time>
      </trkpt>
      <trkpt lat="35.867244060" lon="-106.515693300">
        <ele>2639.200</ele>
        <time>2019-07-14T21:43:16Z</time>
      </trkpt>
      <trkpt lat="35.867303090" lon="-106.515713310">
        <ele>2636.400</ele>
        <time>2019-07-14T21:43:17Z</time>
      </trkpt>
      <trkpt lat="35.867352740" lon="-106.515715100">
        <ele>2635.900</ele>
        <time>2019-07-14T21:43:18Z</time>
      </trkpt>
      <trkpt lat="35.867405420" lon="-106.515718590">
        <ele>2635.800</ele>
        <time>2019-07-14T21:43:19Z</time>
      </trkpt>
      <trkpt lat="35.867452100" lon="-106.515725550">
        <ele>2635.600</ele>
        <time>2019-07-14T21:43:20Z</time>
      </trkpt>
      <trkpt lat="35.867499000" lon="-106.515731420">
        <ele>2635.300</ele>
        <time>2019-07-14T21:43:21Z</time>
      </trkpt>
      <trkpt lat="35.867541680" lon="-106.515727050">
        <ele>2635.300</ele>
        <time>2019-07-14T21:43:22Z</time>
      </trkpt>
      <trkpt lat="35.867586090" lon="-106.515738320">
        <ele>2636.200</ele>
        <time>2019-07-14T21:43:23Z</time>
      </trkpt>
      <trkpt lat="35.867630260" lon="-106.515729100">
        <ele>2636.100</ele>
        <time>2019-07-14T21:43:24Z</time>
      </trkpt>
      <trkpt lat="35.867673300" lon="-106.515732900">
        <ele>2636.400</ele>
        <time>2019-07-14T21:43:25Z</time>
      </trkpt>
      <trkpt lat="35.867716130" lon="-106.515724500">
        <ele>2635.400</ele>
        <time>2019-07-14T21:43:26Z</time>
      </trkpt>
      <trkpt lat="35.867756910" lon="-106.515736370">
        <ele>2634.000</ele>
        <time>2019-07-14T21:43:27Z</time>
      </trkpt>
      <trkpt lat="35.867796190" lon="-106.515737880">
        <ele>2633.800</ele>
        <time>2019-07-14T21:43:28Z</time>
      </trkpt>
      <trkpt lat="35.867839860" lon="-106.515737750">
        <ele>2633.200</ele>
        <time>2019-07-14T21:43:29Z</time>
      </trkpt>
      <trkpt lat="35.867882340" lon="-106.515739190">
        <ele>2634.300</ele>
        <time>2019-07-14T21:43:30Z</time>
      </trkpt>
      <trkpt lat="35.867920710" lon="-106.515738490">
        <ele>2635.100</ele>
        <time>2019-07-14T21:43:31Z</time>
      </trkpt>
      <trkpt lat="35.867975120" lon="-106.515746370">
        <ele>2634.500</ele>
        <time>2019-07-14T21:43:32Z</time>
      </trkpt>
      <trkpt lat="35.868021860" lon="-106.515746670">
        <ele>2636.500</ele>
        <time>2019-07-14T21:43:33Z</time>
      </trkpt>
      <trkpt lat="35.868065800" lon="-106.515766720">
        <ele>2636.500</ele>
        <time>2019-07-14T21:43:34Z</time>
      </trkpt>
      <trkpt lat="35.868125720" lon="-106.515776360">
        <ele>2636.100</ele>
        <time>2019-07-14T21:43:35Z</time>
      </trkpt>
      <trkpt lat="35.868178280" lon="-106.515789320">
        <ele>2636.500</ele>
        <time>2019-07-14T21:43:36Z</time>
      </trkpt>
      <trkpt lat="35.868231470" lon="-106.515803360">
        <ele>2637.000</ele>
        <time>2019-07-14T21:43:37Z</time>
      </trkpt>
      <trkpt lat="35.868286790" lon="-106.515814850">
        <ele>2637.600</ele>
        <time>2019-07-14T21:43:38Z</time>
      </trkpt>
      <trkpt lat="35.868341960" lon="-106.515826790">
        <ele>2637.900</ele>
        <time>2019-07-14T21:43:39Z</time>
      </trkpt>
      <trkpt lat="35.868401850" lon="-106.515840830">
        <ele>2638.200</ele>
        <time>2019-07-14T21:43:40Z</time>
      </trkpt>
      <trkpt lat="35.868459980" lon="-106.515854570">
        <ele>2638.700</ele>
        <time>2019-07-14T21:43:41Z</time>
      </trkpt>
      <trkpt lat="35.868518360" lon="-106.515872920">
        <ele>2638.700</ele>
        <time>2019-07-14T21:43:42Z</time>
      </trkpt>
      <trkpt lat="35.868580580" lon="-106.515897980">
        <ele>2638.400</ele>
        <time>2019-07-14T21:43:43Z</time>
      </trkpt>
      <trkpt lat="35.868644780" lon="-106.515922420">
        <ele>2638.500</ele>
        <time>2019-07-14T21:43:44Z</time>
      </trkpt>
      <trkpt lat="35.868701440" lon="-106.515936800">
        <ele>2639.400</ele>
        <time>2019-07-14T21:43:45Z</time>
      </trkpt>
      <trkpt lat="35.868758120" lon="-106.515957240">
        <ele>2639.600</ele>
        <time>2019-07-14T21:43:46Z</time>
      </trkpt>
      <trkpt lat="35.868814960" lon="-106.515965330">
        <ele>2640.400</ele>
        <time>2019-07-14T21:43:47Z</time>
      </trkpt>
      <trkpt lat="35.868869360" lon="-106.515979830">
        <ele>2639.800</ele>
        <time>2019-07-14T21:43:48Z</time>
      </trkpt>
      <trkpt lat="35.868923270" lon="-106.515996350">
        <ele>2640.500</ele>
        <time>2019-07-14T21:43:49Z</time>
      </trkpt>
      <trkpt lat="35.868981750" lon="-106.515993840">
        <ele>2642.200</ele>
        <time>2019-07-14T21:43:50Z</time>
      </trkpt>
      <trkpt lat="35.869037510" lon="-106.515994230">
        <ele>2643.400</ele>
        <time>2019-07-14T21:43:51Z</time>
      </trkpt>
      <trkpt lat="35.869089690" lon="-106.515977700">
        <ele>2644.800</ele>
        <time>2019-07-14T21:43:52Z</time>
      </trkpt>
      <trkpt lat="35.869151590" lon="-106.515950930">
        <ele>2644.000</ele>
        <time>2019-07-14T21:43:53Z</time>
      </trkpt>
      <trkpt lat="35.869215110" lon="-106.515924120">
        <ele>2643.000</ele>
        <time>2019-07-14T21:43:54Z</time>
      </trkpt>
      <trkpt lat="35.869268580" lon="-106.515889040">
        <ele>2642.900</ele>
        <time>2019-07-14T21:43:55Z</time>
      </trkpt>
      <trkpt lat="35.869329360" lon="-106.515853720">
        <ele>2644.400</ele>
        <time>2019-07-14T21:43:56Z</time>
      </trkpt>
      <trkpt lat="35.869389370" lon="-106.515812560">
        <ele>2644.700</ele>
        <time>2019-07-14T21:43:57Z</time>
      </trkpt>
      <trkpt lat="35.869447380" lon="-106.515772520">
        <ele>2645.200</ele>
        <time>2019-07-14T21:43:58Z</time>
      </trkpt>
      <trkpt lat="35.869509040" lon="-106.515736410">
        <ele>2644.400</ele>
        <time>2019-07-14T21:43:59Z</time>
      </trkpt>
      <trkpt lat="35.869575660" lon="-106.515702160">
        <ele>2643.800</ele>
        <time>2019-07-14T21:44:00Z</time>
      </trkpt>
      <trkpt lat="35.869645220" lon="-106.515667110">
        <ele>2643.800</ele>
        <time>2019-07-14T21:44:01Z</time>
      </trkpt>
      <trkpt lat="35.869710290" lon="-106.515632060">
        <ele>2645.100</ele>
        <time>2019-07-14T21:44:02Z</time>
      </trkpt>
      <trkpt lat="35.869787390" lon="-106.515600840">
        <ele>2642.700</ele>
        <time>2019-07-14T21:44:03Z</time>
      </trkpt>
      <trkpt lat="35.869847510" lon="-106.515578020">
        <ele>2642.000</ele>
        <time>2019-07-14T21:44:04Z</time>
      </trkpt>
      <trkpt lat="35.869916630" lon="-106.515549980">
        <ele>2642.200</ele>
        <time>2019-07-14T21:44:05Z</time>
      </trkpt>
      <trkpt lat="35.869990440" lon="-106.515531820">
        <ele>2643.000</ele>
        <time>2019-07-14T21:44:06Z</time>
      </trkpt>
      <trkpt lat="35.870055230" lon="-106.515504110">
        <ele>2641.900</ele>
        <time>2019-07-14T21:44:07Z</time>
      </trkpt>
      <trkpt lat="35.870118890" lon="-106.515483880">
        <ele>2642.700</ele>
        <time>2019-07-14T21:44:08Z</time>
      </trkpt>
      <trkpt lat="35.870174110" lon="-106.515452730">
        <ele>2643.000</ele>
        <time>2019-07-14T21:44:09Z</time>
      </trkpt>
      <trkpt lat="35.870242150" lon="-106.515416660">
        <ele>2644.200</ele>
        <time>2019-07-14T21:44:10Z</time>
      </trkpt>
      <trkpt lat="35.870298790" lon="-106.515381040">
        <ele>2644.300</ele>
        <time>2019-07-14T21:44:11Z</time>
      </trkpt>
      <trkpt lat="35.870361870" lon="-106.515345000">
        <ele>2644.100</ele>
        <time>2019-07-14T21:44:12Z</time>
      </trkpt>
      <trkpt lat="35.870420750" lon="-106.515304230">
        <ele>2644.100</ele>
        <time>2019-07-14T21:44:13Z</time>
      </trkpt>
      <trkpt lat="35.870475310" lon="-106.515260780">
        <ele>2644.100</ele>
        <time>2019-07-14T21:44:14Z</time>
      </trkpt>
      <trkpt lat="35.870532630" lon="-106.515219990">
        <ele>2643.700</ele>
        <time>2019-07-14T21:44:15Z</time>
      </trkpt>
      <trkpt lat="35.870591150" lon="-106.515176380">
        <ele>2644.300</ele>
        <time>2019-07-14T21:44:16Z</time>
      </trkpt>
      <trkpt lat="35.870643350" lon="-106.515135780">
        <ele>2644.500</ele>
        <time>2019-07-14T21:44:17Z</time>
      </trkpt>
      <trkpt lat="35.870699530" lon="-106.515104490">
        <ele>2643.200</ele>
        <time>2019-07-14T21:44:18Z</time>
      </trkpt>
      <trkpt lat="35.870758000" lon="-106.515074600">
        <ele>2642.900</ele>
        <time>2019-07-14T21:44:19Z</time>
      </trkpt>
      <trkpt lat="35.870822830" lon="-106.515042030">
        <ele>2643.900</ele>
        <time>2019-07-14T21:44:20Z</time>
      </trkpt>
      <trkpt lat="35.870878800" lon="-106.515015540">
        <ele>2643.900</ele>
        <time>2019-07-14T21:44:21Z</time>
      </trkpt>
      <trkpt lat="35.870934760" lon="-106.514988730">
        <ele>2644.000</ele>
        <time>2019-07-14T21:44:22Z</time>
      </trkpt>
      <trkpt lat="35.870985960" lon="-106.514959890">
        <ele>2643.300</ele>
        <time>2019-07-14T21:44:23Z</time>
      </trkpt>
      <trkpt lat="35.871037690" lon="-106.514929780">
        <ele>2642.700</ele>
        <time>2019-07-14T21:44:24Z</time>
      </trkpt>
      <trkpt lat="35.871090030" lon="-106.514895230">
        <ele>2643.500</ele>
        <time>2019-07-14T21:44:25Z</time>
      </trkpt>
      <trkpt lat="35.871146490" lon="-106.514856240">
        <ele>2643.500</ele>
        <time>2019-07-14T21:44:26Z</time>
      </trkpt>
      <trkpt lat="35.871198140" lon="-106.514811310">
        <ele>2644.300</ele>
        <time>2019-07-14T21:44:27Z</time>
      </trkpt>
      <trkpt lat="35.871251050" lon="-106.514766280">
        <ele>2644.100</ele>
        <time>2019-07-14T21:44:28Z</time>
      </trkpt>
      <trkpt lat="35.871304840" lon="-106.514712890">
        <ele>2644.300</ele>
        <time>2019-07-14T21:44:29Z</time>
      </trkpt>
      <trkpt lat="35.871356530" lon="-106.514661140">
        <ele>2642.100</ele>
        <time>2019-07-14T21:44:30Z</time>
      </trkpt>
      <trkpt lat="35.871407230" lon="-106.514607510">
        <ele>2640.600</ele>
        <time>2019-07-14T21:44:31Z</time>
      </trkpt>
      <trkpt lat="35.871450400" lon="-106.514544060">
        <ele>2640.700</ele>
        <time>2019-07-14T21:44:32Z</time>
      </trkpt>
      <trkpt lat="35.871500980" lon="-106.514480860">
        <ele>2639.400</ele>
        <time>2019-07-14T21:44:33Z</time>
      </trkpt>
      <trkpt lat="35.871551360" lon="-106.514408410">
        <ele>2638.900</ele>
        <time>2019-07-14T21:44:34Z</time>
      </trkpt>
      <trkpt lat="35.871608060" lon="-106.514330090">
        <ele>2637.900</ele>
        <time>2019-07-14T21:44:35Z</time>
      </trkpt>
      <trkpt lat="35.871665870" lon="-106.514244820">
        <ele>2637.300</ele>
        <time>2019-07-14T21:44:36Z</time>
      </trkpt>
      <trkpt lat="35.871722330" lon="-106.514158510">
        <ele>2637.000</ele>
        <time>2019-07-14T21:44:37Z</time>
      </trkpt>
      <trkpt lat="35.871776510" lon="-106.514076290">
        <ele>2637.000</ele>
        <time>2019-07-14T21:44:38Z</time>
      </trkpt>
      <trkpt lat="35.871830330" lon="-106.513998390">
        <ele>2636.700</ele>
        <time>2019-07-14T21:44:39Z</time>
      </trkpt>
      <trkpt lat="35.871884940" lon="-106.513919450">
        <ele>2636.000</ele>
        <time>2019-07-14T21:44:40Z</time>
      </trkpt>
      <trkpt lat="35.871941680" lon="-106.513839430">
        <ele>2636.800</ele>
        <time>2019-07-14T21:44:41Z</time>
      </trkpt>
      <trkpt lat="35.871998700" lon="-106.513762530">
        <ele>2636.400</ele>
        <time>2019-07-14T21:44:42Z</time>
      </trkpt>
      <trkpt lat="35.872058560" lon="-106.513683700">
        <ele>2636.500</ele>
        <time>2019-07-14T21:44:43Z</time>
      </trkpt>
      <trkpt lat="35.872115550" lon="-106.513603770">
        <ele>2637.700</ele>
        <time>2019-07-14T21:44:44Z</time>
      </trkpt>
      <trkpt lat="35.872171160" lon="-106.513535940">
        <ele>2637.900</ele>
        <time>2019-07-14T21:44:45Z</time>
      </trkpt>
      <trkpt lat="35.872223500" lon="-106.513475390">
        <ele>2638.000</ele>
        <time>2019-07-14T21:44:46Z</time>
      </trkpt>
      <trkpt lat="35.872280510" lon="-106.513417110">
        <ele>2637.400</ele>
        <time>2019-07-14T21:44:47Z</time>
      </trkpt>
      <trkpt lat="35.872333400" lon="-106.513365070">
        <ele>2637.200</ele>
        <time>2019-07-14T21:44:48Z</time>
      </trkpt>
      <trkpt lat="35.872395490" lon="-106.513300960">
        <ele>2636.500</ele>
        <time>2019-07-14T21:44:49Z</time>
      </trkpt>
      <trkpt lat="35.872450680" lon="-106.513254290">
        <ele>2636.300</ele>
        <time>2019-07-14T21:44:50Z</time>
      </trkpt>
      <trkpt lat="35.872506050" lon="-106.513198150">
        <ele>2636.800</ele>
        <time>2019-07-14T21:44:51Z</time>
      </trkpt>
      <trkpt lat="35.872566770" lon="-106.513145510">
        <ele>2637.100</ele>
        <time>2019-07-14T21:44:52Z</time>
      </trkpt>
      <trkpt lat="35.872631820" lon="-106.513101850">
        <ele>2637.400</ele>
        <time>2019-07-14T21:44:53Z</time>
      </trkpt>
      <trkpt lat="35.872690550" lon="-106.513060100">
        <ele>2637.400</ele>
        <time>2019-07-14T21:44:54Z</time>
      </trkpt>
      <trkpt lat="35.872744640" lon="-106.513010240">
        <ele>2638.100</ele>
        <time>2019-07-14T21:44:55Z</time>
      </trkpt>
      <trkpt lat="35.872799310" lon="-106.512961860">
        <ele>2637.900</ele>
        <time>2019-07-14T21:44:56Z</time>
      </trkpt>
      <trkpt lat="35.872849760" lon="-106.512911050">
        <ele>2637.800</ele>
        <time>2019-07-14T21:44:57Z</time>
      </trkpt>
      <trkpt lat="35.872893000" lon="-106.512833900">
        <ele>2637.800</ele>
        <time>2019-07-14T21:44:58Z</time>
      </trkpt>
      <trkpt lat="35.872931240" lon="-106.512755790">
        <ele>2637.100</ele>
        <time>2019-07-14T21:44:59Z</time>
      </trkpt>
      <trkpt lat="35.872945250" lon="-106.512680840">
        <ele>2636.800</ele>
        <time>2019-07-14T21:45:00Z</time>
      </trkpt>
      <trkpt lat="35.872957040" lon="-106.512608180">
        <ele>2636.300</ele>
        <time>2019-07-14T21:45:01Z</time>
      </trkpt>
      <trkpt lat="35.872950930" lon="-106.512519830">
        <ele>2636.800</ele>
        <time>2019-07-14T21:45:02Z</time>
      </trkpt>
      <trkpt lat="35.872940710" lon="-106.512434160">
        <ele>2636.300</ele>
        <time>2019-07-14T21:45:03Z</time>
      </trkpt>
      <trkpt lat="35.872913920" lon="-106.512354700">
        <ele>2636.300</ele>
        <time>2019-07-14T21:45:04Z</time>
      </trkpt>
      <trkpt lat="35.872888910" lon="-106.512253820">
        <ele>2636.800</ele>
        <time>2019-07-14T21:45:05Z</time>
      </trkpt>
      <trkpt lat="35.872873850" lon="-106.512172450">
        <ele>2637.000</ele>
        <time>2019-07-14T21:45:06Z</time>
      </trkpt>
      <trkpt lat="35.872869820" lon="-106.512097350">
        <ele>2636.200</ele>
        <time>2019-07-14T21:45:07Z</time>
      </trkpt>
      <trkpt lat="35.872880200" lon="-106.512012760">
        <ele>2636.900</ele>
        <time>2019-07-14T21:45:08Z</time>
      </trkpt>
      <trkpt lat="35.872910590" lon="-106.511934680">
        <ele>2635.800</ele>
        <time>2019-07-14T21:45:09Z</time>
      </trkpt>
      <trkpt lat="35.872940060" lon="-106.511860410">
        <ele>2635.500</ele>
        <time>2019-07-14T21:45:10Z</time>
      </trkpt>
      <trkpt lat="35.873000770" lon="-106.511811750">
        <ele>2636.300</ele>
        <time>2019-07-14T21:45:11Z</time>
      </trkpt>
      <trkpt lat="35.873050690" lon="-106.511762310">
        <ele>2637.200</ele>
        <time>2019-07-14T21:45:12Z</time>
      </trkpt>
      <trkpt lat="35.873127320" lon="-106.511771020">
        <ele>2635.300</ele>
        <time>2019-07-14T21:45:13Z</time>
      </trkpt>
      <trkpt lat="35.873187250" lon="-106.511751180">
        <ele>2635.800</ele>
        <time>2019-07-14T21:45:14Z</time>
      </trkpt>
      <trkpt lat="35.873256310" lon="-106.511733290">
        <ele>2635.200</ele>
        <time>2019-07-14T21:45:15Z</time>
      </trkpt>
      <trkpt lat="35.873318670" lon="-106.511712920">
        <ele>2635.000</ele>
        <time>2019-07-14T21:45:16Z</time>
      </trkpt>
      <trkpt lat="35.873356320" lon="-106.511643220">
        <ele>2635.700</ele>
        <time>2019-07-14T21:45:17Z</time>
      </trkpt>
      <trkpt lat="35.873384520" lon="-106.511591670">
        <ele>2634.000</ele>
        <time>2019-07-14T21:45:18Z</time>
      </trkpt>
      <trkpt lat="35.873415680" lon="-106.511528810">
        <ele>2635.700</ele>
        <time>2019-07-14T21:45:19Z</time>
      </trkpt>
      <trkpt lat="35.873458540" lon="-106.511479010">
        <ele>2634.900</ele>
        <time>2019-07-14T21:45:20Z</time>
      </trkpt>
      <trkpt lat="35.873485270" lon="-106.511399020">
        <ele>2635.400</ele>
        <time>2019-07-14T21:45:21Z</time>
      </trkpt>
      <trkpt lat="35.873521020" lon="-106.511342240">
        <ele>2636.000</ele>
        <time>2019-07-14T21:45:22Z</time>
      </trkpt>
      <trkpt lat="35.873575570" lon="-106.511285650">
        <ele>2637.200</ele>
        <time>2019-07-14T21:45:23Z</time>
      </trkpt>
      <trkpt lat="35.873620160" lon="-106.511235520">
        <ele>2637.400</ele>
        <time>2019-07-14T21:45:24Z</time>
      </trkpt>
      <trkpt lat="35.873675600" lon="-106.511189230">
        <ele>2637.700</ele>
        <time>2019-07-14T21:45:25Z</time>
      </trkpt>
      <trkpt lat="35.873723370" lon="-106.511139400">
        <ele>2638.700</ele>
        <time>2019-07-14T21:45:26Z</time>
      </trkpt>
      <trkpt lat="35.873767590" lon="-106.511117710">
        <ele>2638.400</ele>
        <time>2019-07-14T21:45:27Z</time>
      </trkpt>
      <trkpt lat="35.873822480" lon="-106.511079300">
        <ele>2639.200</ele>
        <time>2019-07-14T21:45:28Z</time>
      </trkpt>
      <trkpt lat="35.873882960" lon="-106.511039840">
        <ele>2639.300</ele>
        <time>2019-07-14T21:45:29Z</time>
      </trkpt>
      <trkpt lat="35.873936610" lon="-106.510990200">
        <ele>2639.500</ele>
        <time>2019-07-14T21:45:30Z</time>
      </trkpt>
      <trkpt lat="35.873999850" lon="-106.510971020">
        <ele>2639.800</ele>
        <time>2019-07-14T21:45:31Z</time>
      </trkpt>
      <trkpt lat="35.874059020" lon="-106.510928870">
        <ele>2639.600</ele>
        <time>2019-07-14T21:45:32Z</time>
      </trkpt>
      <trkpt lat="35.874120760" lon="-106.510887230">
        <ele>2638.800</ele>
        <time>2019-07-14T21:45:33Z</time>
      </trkpt>
      <trkpt lat="35.874189550" lon="-106.510849840">
        <ele>2639.700</ele>
        <time>2019-07-14T21:45:34Z</time>
      </trkpt>
      <trkpt lat="35.874240240" lon="-106.510807140">
        <ele>2640.900</ele>
        <time>2019-07-14T21:45:35Z</time>
      </trkpt>
      <trkpt lat="35.874279040" lon="-106.510746930">
        <ele>2641.700</ele>
        <time>2019-07-14T21:45:36Z</time>
      </trkpt>
      <trkpt lat="35.874314020" lon="-106.510706850">
        <ele>2643.400</ele>
        <time>2019-07-14T21:45:37Z</time>
      </trkpt>
      <trkpt lat="35.874365660" lon="-106.510664530">
        <ele>2642.800</ele>
        <time>2019-07-14T21:45:38Z</time>
      </trkpt>
      <trkpt lat="35.874411740" lon="-106.510607580">
        <ele>2642.200</ele>
        <time>2019-07-14T21:45:39Z</time>
      </trkpt>
      <trkpt lat="35.874459740" lon="-106.510549800">
        <ele>2644.400</ele>
        <time>2019-07-14T21:45:40Z</time>
      </trkpt>
      <trkpt lat="35.874520540" lon="-106.510500110">
        <ele>2643.700</ele>
        <time>2019-07-14T21:45:41Z</time>
      </trkpt>
      <trkpt lat="35.874571810" lon="-106.510450020">
        <ele>2643.100</ele>
        <time>2019-07-14T21:45:42Z</time>
      </trkpt>
      <trkpt lat="35.874624790" lon="-106.510425780">
        <ele>2642.400</ele>
        <time>2019-07-14T21:45:43Z</time>
      </trkpt>
      <trkpt lat="35.874685190" lon="-106.510414990">
        <ele>2640.000</ele>
        <time>2019-07-14T21:45:44Z</time>
      </trkpt>
      <trkpt lat="35.874741790" lon="-106.510391620">
        <ele>2641.700</ele>
        <time>2019-07-14T21:45:45Z</time>
      </trkpt>
      <trkpt lat="35.874807620" lon="-106.510355150">
        <ele>2641.900</ele>
        <time>2019-07-14T21:45:46Z</time>
      </trkpt>
      <trkpt lat="35.874859910" lon="-106.510326880">
        <ele>2643.100</ele>
        <time>2019-07-14T21:45:47Z</time>
      </trkpt>
      <trkpt lat="35.874918260" lon="-106.510298230">
        <ele>2643.500</ele>
        <time>2019-07-14T21:45:48Z</time>
      </trkpt>
      <trkpt lat="35.874969580" lon="-106.510259650">
        <ele>2644.700</ele>
        <time>2019-07-14T21:45:49Z</time>
      </trkpt>
      <trkpt lat="35.875026330" lon="-106.510221080">
        <ele>2644.600</ele>
        <time>2019-07-14T21:45:50Z</time>
      </trkpt>
      <trkpt lat="35.875091880" lon="-106.510168710">
        <ele>2645.800</ele>
        <time>2019-07-14T21:45:51Z</time>
      </trkpt>
      <trkpt lat="35.875144320" lon="-106.510118980">
        <ele>2646.800</ele>
        <time>2019-07-14T21:45:52Z</time>
      </trkpt>
      <trkpt lat="35.875196830" lon="-106.510066540">
        <ele>2647.900</ele>
        <time>2019-07-14T21:45:53Z</time>
      </trkpt>
      <trkpt lat="35.875237830" lon="-106.510008200">
        <ele>2651.200</ele>
        <time>2019-07-14T21:45:54Z</time>
      </trkpt>
      <trkpt lat="35.875290300" lon="-106.509961600">
        <ele>2651.900</ele>
        <time>2019-07-14T21:45:55Z</time>
      </trkpt>
      <trkpt lat="35.875360320" lon="-106.509916630">
        <ele>2652.500</ele>
        <time>2019-07-14T21:45:56Z</time>
      </trkpt>
      <trkpt lat="35.875420140" lon="-106.509877050">
        <ele>2653.900</ele>
        <time>2019-07-14T21:45:57Z</time>
      </trkpt>
      <trkpt lat="35.875481090" lon="-106.509838190">
        <ele>2654.300</ele>
        <time>2019-07-14T21:45:58Z</time>
      </trkpt>
      <trkpt lat="35.875542640" lon="-106.509806740">
        <ele>2654.400</ele>
        <time>2019-07-14T21:45:59Z</time>
      </trkpt>
      <trkpt lat="35.875608410" lon="-106.509766800">
        <ele>2655.200</ele>
        <time>2019-07-14T21:46:00Z</time>
      </trkpt>
      <trkpt lat="35.875677180" lon="-106.509740000">
        <ele>2654.100</ele>
        <time>2019-07-14T21:46:01Z</time>
      </trkpt>
      <trkpt lat="35.875750840" lon="-106.509704090">
        <ele>2632.200</ele>
        <time>2019-07-14T21:46:02Z</time>
      </trkpt>
      <trkpt lat="35.875803670" lon="-106.509664120">
        <ele>2636.400</ele>
        <time>2019-07-14T21:46:03Z</time>
      </trkpt>
      <trkpt lat="35.875875970" lon="-106.509608620">
        <ele>2636.300</ele>
        <time>2019-07-14T21:46:04Z</time>
      </trkpt>
      <trkpt lat="35.875947680" lon="-106.509562380">
        <ele>2640.000</ele>
        <time>2019-07-14T21:46:05Z</time>
      </trkpt>
      <trkpt lat="35.876006500" lon="-106.509513950">
        <ele>2643.000</ele>
        <time>2019-07-14T21:46:06Z</time>
      </trkpt>
      <trkpt lat="35.876054450" lon="-106.509480240">
        <ele>2644.500</ele>
        <time>2019-07-14T21:46:07Z</time>
      </trkpt>
      <trkpt lat="35.876101720" lon="-106.509439580">
        <ele>2644.700</ele>
        <time>2019-07-14T21:46:08Z</time>
      </trkpt>
      <trkpt lat="35.876140760" lon="-106.509338160">
        <ele>2648.500</ele>
        <time>2019-07-14T21:46:09Z</time>
      </trkpt>
      <trkpt lat="35.876179030" lon="-106.509253720">
        <ele>2649.000</ele>
        <time>2019-07-14T21:46:10Z</time>
      </trkpt>
      <trkpt lat="35.876179980" lon="-106.509155590">
        <ele>2649.900</ele>
        <time>2019-07-14T21:46:11Z</time>
      </trkpt>
      <trkpt lat="35.876199120" lon="-106.509071050">
        <ele>2649.700</ele>
        <time>2019-07-14T21:46:12Z</time>
      </trkpt>
      <trkpt lat="35.876201860" lon="-106.508948630">
        <ele>2649.000</ele>
        <time>2019-07-14T21:46:13Z</time>
      </trkpt>
      <trkpt lat="35.876196710" lon="-106.508852060">
        <ele>2650.100</ele>
        <time>2019-07-14T21:46:14Z</time>
      </trkpt>
      <trkpt lat="35.876208630" lon="-106.508771630">
        <ele>2651.600</ele>
        <time>2019-07-14T21:46:15Z</time>
      </trkpt>
      <trkpt lat="35.876201180" lon="-106.508653840">
        <ele>2653.200</ele>
        <time>2019-07-14T21:46:16Z</time>
      </trkpt>
      <trkpt lat="35.876204800" lon="-106.508565920">
        <ele>2653.000</ele>
        <time>2019-07-14T21:46:17Z</time>
      </trkpt>
      <trkpt lat="35.876217930" lon="-106.508501640">
        <ele>2653.300</ele>
        <time>2019-07-14T21:46:18Z</time>
      </trkpt>
      <trkpt lat="35.876232410" lon="-106.508416810">
        <ele>2653.200</ele>
        <time>2019-07-14T21:46:19Z</time>
      </trkpt>
      <trkpt lat="35.876254180" lon="-106.508333310">
        <ele>2654.300</ele>
        <time>2019-07-14T21:46:20Z</time>
      </trkpt>
      <trkpt lat="35.876284070" lon="-106.508244500">
        <ele>2655.500</ele>
        <time>2019-07-14T21:46:21Z</time>
      </trkpt>
      <trkpt lat="35.876316400" lon="-106.508157490">
        <ele>2655.900</ele>
        <time>2019-07-14T21:46:22Z</time>
      </trkpt>
      <trkpt lat="35.876359510" lon="-106.508085700">
        <ele>2654.600</ele>
        <time>2019-07-14T21:46:23Z</time>
      </trkpt>
      <trkpt lat="35.876396760" lon="-106.508020590">
        <ele>2653.000</ele>
        <time>2019-07-14T21:46:24Z</time>
      </trkpt>
      <trkpt lat="35.876425980" lon="-106.507935540">
        <ele>2653.700</ele>
        <time>2019-07-14T21:46:25Z</time>
      </trkpt>
      <trkpt lat="35.876449710" lon="-106.507857980">
        <ele>2653.200</ele>
        <time>2019-07-14T21:46:26Z</time>
      </trkpt>
      <trkpt lat="35.876472910" lon="-106.507791220">
        <ele>2651.800</ele>
        <time>2019-07-14T21:46:27Z</time>
      </trkpt>
      <trkpt lat="35.876486700" lon="-106.507719990">
        <ele>2651.700</ele>
        <time>2019-07-14T21:46:28Z</time>
      </trkpt>
      <trkpt lat="35.876505810" lon="-106.507659300">
        <ele>2650.600</ele>
        <time>2019-07-14T21:46:29Z</time>
      </trkpt>
      <trkpt lat="35.876526250" lon="-106.507588780">
        <ele>2650.400</ele>
        <time>2019-07-14T21:46:30Z</time>
      </trkpt>
      <trkpt lat="35.876545490" lon="-106.507514510">
        <ele>2650.600</ele>
        <time>2019-07-14T21:46:31Z</time>
      </trkpt>
      <trkpt lat="35.876567610" lon="-106.507432100">
        <ele>2651.200</ele>
        <time>2019-07-14T21:46:32Z</time>
      </trkpt>
      <trkpt lat="35.876592510" lon="-106.507354260">
        <ele>2651.300</ele>
        <time>2019-07-14T21:46:33Z</time>
      </trkpt>
      <trkpt lat="35.876617290" lon="-106.507277340">
        <ele>2651.500</ele>
        <time>2019-07-14T21:46:34Z</time>
      </trkpt>
      <trkpt lat="35.876641050" lon="-106.507201410">
        <ele>2651.200</ele>
        <time>2019-07-14T21:46:35Z</time>
      </trkpt>
      <trkpt lat="35.876666170" lon="-106.507121690">
        <ele>2650.400</ele>
        <time>2019-07-14T21:46:36Z</time>
      </trkpt>
      <trkpt lat="35.876694090" lon="-106.507051530">
        <ele>2649.500</ele>
        <time>2019-07-14T21:46:37Z</time>
      </trkpt>
      <trkpt lat="35.876715500" lon="-106.506982850">
        <ele>2649.600</ele>
        <time>2019-07-14T21:46:38Z</time>
      </trkpt>
      <trkpt lat="35.876747450" lon="-106.506929760">
        <ele>2647.900</ele>
        <time>2019-07-14T21:46:39Z</time>
      </trkpt>
      <trkpt lat="35.876769170" lon="-106.506861340">
        <ele>2647.800</ele>
        <time>2019-07-14T21:46:40Z</time>
      </trkpt>
      <trkpt lat="35.876804850" lon="-106.506801830">
        <ele>2643.900</ele>
        <time>2019-07-14T21:46:41Z</time>
      </trkpt>
      <trkpt lat="35.876841370" lon="-106.506742100">
        <ele>2640.500</ele>
        <time>2019-07-14T21:46:42Z</time>
      </trkpt>
      <trkpt lat="35.876864740" lon="-106.506661170">
        <ele>2639.400</ele>
        <time>2019-07-14T21:46:43Z</time>
      </trkpt>
      <trkpt lat="35.876889900" lon="-106.506583810">
        <ele>2639.700</ele>
        <time>2019-07-14T21:46:44Z</time>
      </trkpt>
      <trkpt lat="35.876911100" lon="-106.506508460">
        <ele>2639.300</ele>
        <time>2019-07-14T21:46:45Z</time>
      </trkpt>
      <trkpt lat="35.876927330" lon="-106.506430260">
        <ele>2640.500</ele>
        <time>2019-07-14T21:46:46Z</time>
      </trkpt>
      <trkpt lat="35.876946330" lon="-106.506356440">
        <ele>2640.300</ele>
        <time>2019-07-14T21:46:47Z</time>
      </trkpt>
      <trkpt lat="35.876979490" lon="-106.506292560">
        <ele>2636.700</ele>
        <time>2019-07-14T21:46:48Z</time>
      </trkpt>
      <trkpt lat="35.877012210" lon="-106.506218030">
        <ele>2637.300</ele>
        <time>2019-07-14T21:46:49Z</time>
      </trkpt>
      <trkpt lat="35.877065620" lon="-106.506164370">
        <ele>2636.100</ele>
        <time>2019-07-14T21:46:50Z</time>
      </trkpt>
      <trkpt lat="35.877126040" lon="-106.506112500">
        <ele>2634.400</ele>
        <time>2019-07-14T21:46:51Z</time>
      </trkpt>
      <trkpt lat="35.877184790" lon="-106.506058670">
        <ele>2633.100</ele>
        <time>2019-07-14T21:46:52Z</time>
      </trkpt>
      <trkpt lat="35.877233690" lon="-106.505989510">
        <ele>2632.900</ele>
        <time>2019-07-14T21:46:53Z</time>
      </trkpt>
      <trkpt lat="35.877284070" lon="-106.505921360">
        <ele>2633.200</ele>
        <time>2019-07-14T21:46:54Z</time>
      </trkpt>
      <trkpt lat="35.877338480" lon="-106.505853080">
        <ele>2633.200</ele>
        <time>2019-07-14T21:46:55Z</time>
      </trkpt>
      <trkpt lat="35.877390490" lon="-106.505777530">
        <ele>2632.600</ele>
        <time>2019-07-14T21:46:56Z</time>
      </trkpt>
      <trkpt lat="35.877441570" lon="-106.505701130">
        <ele>2632.700</ele>
        <time>2019-07-14T21:46:57Z</time>
      </trkpt>
      <trkpt lat="35.877492440" lon="-106.505607570">
        <ele>2633.400</ele>
        <time>2019-07-14T21:46:58Z</time>
      </trkpt>
      <trkpt lat="35.877536170" lon="-106.505518650">
        <ele>2632.600</ele>
        <time>2019-07-14T21:46:59Z</time>
      </trkpt>
      <trkpt lat="35.877573060" lon="-106.505437060">
        <ele>2632.200</ele>
        <time>2019-07-14T21:47:00Z</time>
      </trkpt>
      <trkpt lat="35.877598100" lon="-106.505346640">
        <ele>2631.900</ele>
        <time>2019-07-14T21:47:01Z</time>
      </trkpt>
      <trkpt lat="35.877621190" lon="-106.505254140">
        <ele>2631.000</ele>
        <time>2019-07-14T21:47:02Z</time>
      </trkpt>
      <trkpt lat="35.877637890" lon="-106.505166100">
        <ele>2631.600</ele>
        <time>2019-07-14T21:47:03Z</time>
      </trkpt>
      <trkpt lat="35.877654160" lon="-106.505076910">
        <ele>2631.400</ele>
        <time>2019-07-14T21:47:04Z</time>
      </trkpt>
      <trkpt lat="35.877674000" lon="-106.504991340">
        <ele>2632.500</ele>
        <time>2019-07-14T21:47:05Z</time>
      </trkpt>
      <trkpt lat="35.877690520" lon="-106.504911320">
        <ele>2633.500</ele>
        <time>2019-07-14T21:47:06Z</time>
      </trkpt>
      <trkpt lat="35.877702780" lon="-106.504841320">
        <ele>2633.100</ele>
        <time>2019-07-14T21:47:07Z</time>
      </trkpt>
      <trkpt lat="35.877725420" lon="-106.504769810">
        <ele>2632.900</ele>
        <time>2019-07-14T21:47:08Z</time>
      </trkpt>
      <trkpt lat="35.877739610" lon="-106.504685370">
        <ele>2633.300</ele>
        <time>2019-07-14T21:47:09Z</time>
      </trkpt>
      <trkpt lat="35.877753950" lon="-106.504600870">
        <ele>2633.300</ele>
        <time>2019-07-14T21:47:10Z</time>
      </trkpt>
      <trkpt lat="35.877772330" lon="-106.504517930">
        <ele>2633.400</ele>
        <time>2019-07-14T21:47:11Z</time>
      </trkpt>
      <trkpt lat="35.877781970" lon="-106.504435490">
        <ele>2633.700</ele>
        <time>2019-07-14T21:47:12Z</time>
      </trkpt>
      <trkpt lat="35.877783820" lon="-106.504353860">
        <ele>2634.000</ele>
        <time>2019-07-14T21:47:13Z</time>
      </trkpt>
      <trkpt lat="35.877773940" lon="-106.504258250">
        <ele>2634.500</ele>
        <time>2019-07-14T21:47:14Z</time>
      </trkpt>
      <trkpt lat="35.877760890" lon="-106.504165700">
        <ele>2634.200</ele>
        <time>2019-07-14T21:47:15Z</time>
      </trkpt>
      <trkpt lat="35.877742990" lon="-106.504086550">
        <ele>2632.100</ele>
        <time>2019-07-14T21:47:16Z</time>
      </trkpt>
      <trkpt lat="35.877730670" lon="-106.503995860">
        <ele>2631.700</ele>
        <time>2019-07-14T21:47:17Z</time>
      </trkpt>
      <trkpt lat="35.877714800" lon="-106.503911400">
        <ele>2631.800</ele>
        <time>2019-07-14T21:47:18Z</time>
      </trkpt>
      <trkpt lat="35.877693130" lon="-106.503819310">
        <ele>2632.100</ele>
        <time>2019-07-14T21:47:19Z</time>
      </trkpt>
      <trkpt lat="35.877670490" lon="-106.503734270">
        <ele>2631.600</ele>
        <time>2019-07-14T21:47:20Z</time>
      </trkpt>
      <trkpt lat="35.877651190" lon="-106.503650740">
        <ele>2631.200</ele>
        <time>2019-07-14T21:47:21Z</time>
      </trkpt>
      <trkpt lat="35.877642010" lon="-106.503561230">
        <ele>2630.800</ele>
        <time>2019-07-14T21:47:22Z</time>
      </trkpt>
      <trkpt lat="35.877646300" lon="-106.503479390">
        <ele>2629.400</ele>
        <time>2019-07-14T21:47:23Z</time>
      </trkpt>
      <trkpt lat="35.877652600" lon="-106.503397380">
        <ele>2630.000</ele>
        <time>2019-07-14T21:47:24Z</time>
      </trkpt>
      <trkpt lat="35.877656370" lon="-106.503304630">
        <ele>2630.200</ele>
        <time>2019-07-14T21:47:25Z</time>
      </trkpt>
      <trkpt lat="35.877659560" lon="-106.503210600">
        <ele>2631.000</ele>
        <time>2019-07-14T21:47:26Z</time>
      </trkpt>
      <trkpt lat="35.877680420" lon="-106.503119490">
        <ele>2630.800</ele>
        <time>2019-07-14T21:47:27Z</time>
      </trkpt>
      <trkpt lat="35.877703780" lon="-106.503027360">
        <ele>2630.600</ele>
        <time>2019-07-14T21:47:28Z</time>
      </trkpt>
      <trkpt lat="35.877726420" lon="-106.502930460">
        <ele>2630.600</ele>
        <time>2019-07-14T21:47:29Z</time>
      </trkpt>
      <trkpt lat="35.877745390" lon="-106.502840980">
        <ele>2630.700</ele>
        <time>2019-07-14T21:47:30Z</time>
      </trkpt>
      <trkpt lat="35.877761780" lon="-106.502759180">
        <ele>2630.200</ele>
        <time>2019-07-14T21:47:31Z</time>
      </trkpt>
      <trkpt lat="35.877775240" lon="-106.502684990">
        <ele>2630.300</ele>
        <time>2019-07-14T21:47:32Z</time>
      </trkpt>
      <trkpt lat="35.877791970" lon="-106.502614420">
        <ele>2630.200</ele>
        <time>2019-07-14T21:47:33Z</time>
      </trkpt>
      <trkpt lat="35.877803220" lon="-106.502534490">
        <ele>2630.700</ele>
        <time>2019-07-14T21:47:34Z</time>
      </trkpt>
      <trkpt lat="35.877819640" lon="-106.502467090">
        <ele>2629.300</ele>
        <time>2019-07-14T21:47:35Z</time>
      </trkpt>
      <trkpt lat="35.877839800" lon="-106.502381220">
        <ele>2627.900</ele>
        <time>2019-07-14T21:47:36Z</time>
      </trkpt>
      <trkpt lat="35.877866330" lon="-106.502292400">
        <ele>2627.200</ele>
        <time>2019-07-14T21:47:37Z</time>
      </trkpt>
      <trkpt lat="35.877898570" lon="-106.502217320">
        <ele>2626.600</ele>
        <time>2019-07-14T21:47:38Z</time>
      </trkpt>
      <trkpt lat="35.877930080" lon="-106.502129260">
        <ele>2626.500</ele>
        <time>2019-07-14T21:47:39Z</time>
      </trkpt>
      <trkpt lat="35.877965730" lon="-106.502045360">
        <ele>2626.400</ele>
        <time>2019-07-14T21:47:40Z</time>
      </trkpt>
      <trkpt lat="35.878010060" lon="-106.501974400">
        <ele>2624.700</ele>
        <time>2019-07-14T21:47:41Z</time>
      </trkpt>
      <trkpt lat="35.878050690" lon="-106.501900340">
        <ele>2623.900</ele>
        <time>2019-07-14T21:47:42Z</time>
      </trkpt>
      <trkpt lat="35.878092090" lon="-106.501834150">
        <ele>2622.400</ele>
        <time>2019-07-14T21:47:43Z</time>
      </trkpt>
      <trkpt lat="35.878136190" lon="-106.501761930">
        <ele>2620.700</ele>
        <time>2019-07-14T21:47:44Z</time>
      </trkpt>
      <trkpt lat="35.878172250" lon="-106.501691070">
        <ele>2619.900</ele>
        <time>2019-07-14T21:47:45Z</time>
      </trkpt>
      <trkpt lat="35.878213200" lon="-106.501613960">
        <ele>2619.400</ele>
        <time>2019-07-14T21:47:46Z</time>
      </trkpt>
      <trkpt lat="35.878254410" lon="-106.501539270">
        <ele>2619.300</ele>
        <time>2019-07-14T21:47:47Z</time>
      </trkpt>
      <trkpt lat="35.878303460" lon="-106.501454660">
        <ele>2619.100</ele>
        <time>2019-07-14T21:47:48Z</time>
      </trkpt>
      <trkpt lat="35.878352820" lon="-106.501375790">
        <ele>2618.900</ele>
        <time>2019-07-14T21:47:49Z</time>
      </trkpt>
      <trkpt lat="35.878397840" lon="-106.501303860">
        <ele>2618.500</ele>
        <time>2019-07-14T21:47:50Z</time>
      </trkpt>
      <trkpt lat="35.878444570" lon="-106.501225540">
        <ele>2618.300</ele>
        <time>2019-07-14T21:47:51Z</time>
      </trkpt>
      <trkpt lat="35.878495380" lon="-106.501145150">
        <ele>2617.900</ele>
        <time>2019-07-14T21:47:52Z</time>
      </trkpt>
      <trkpt lat="35.878547320" lon="-106.501059170">
        <ele>2617.900</ele>
        <time>2019-07-14T21:47:53Z</time>
      </trkpt>
      <trkpt lat="35.878595720" lon="-106.500977040">
        <ele>2618.500</ele>
        <time>2019-07-14T21:47:54Z</time>
      </trkpt>
      <trkpt lat="35.878647570" lon="-106.500907510">
        <ele>2617.600</ele>
        <time>2019-07-14T21:47:55Z</time>
      </trkpt>
      <trkpt lat="35.878700980" lon="-106.500834860">
        <ele>2616.900</ele>
        <time>2019-07-14T21:47:56Z</time>
      </trkpt>
      <trkpt lat="35.878748700" lon="-106.500760350">
        <ele>2616.900</ele>
        <time>2019-07-14T21:47:57Z</time>
      </trkpt>
      <trkpt lat="35.878793710" lon="-106.500690870">
        <ele>2617.000</ele>
        <time>2019-07-14T21:47:58Z</time>
      </trkpt>
      <trkpt lat="35.878839370" lon="-106.500619300">
        <ele>2617.200</ele>
        <time>2019-07-14T21:47:59Z</time>
      </trkpt>
      <trkpt lat="35.878890180" lon="-106.500549440">
        <ele>2617.500</ele>
        <time>2019-07-14T21:48:00Z</time>
      </trkpt>
      <trkpt lat="35.878941490" lon="-106.500481170">
        <ele>2617.300</ele>
        <time>2019-07-14T21:48:01Z</time>
      </trkpt>
      <trkpt lat="35.878996770" lon="-106.500419650">
        <ele>2617.600</ele>
        <time>2019-07-14T21:48:02Z</time>
      </trkpt>
      <trkpt lat="35.879054890" lon="-106.500371400">
        <ele>2616.500</ele>
        <time>2019-07-14T21:48:03Z</time>
      </trkpt>
      <trkpt lat="35.879111910" lon="-106.500339160">
        <ele>2615.500</ele>
        <time>2019-07-14T21:48:04Z</time>
      </trkpt>
      <trkpt lat="35.879160370" lon="-106.500290320">
        <ele>2614.900</ele>
        <time>2019-07-14T21:48:05Z</time>
      </trkpt>
      <trkpt lat="35.879203140" lon="-106.500227360">
        <ele>2615.200</ele>
        <time>2019-07-14T21:48:06Z</time>
      </trkpt>
      <trkpt lat="35.879249540" lon="-106.500180460">
        <ele>2615.700</ele>
        <time>2019-07-14T21:48:07Z</time>
      </trkpt>
      <trkpt lat="35.879294170" lon="-106.500123470">
        <ele>2614.700</ele>
        <time>2019-07-14T21:48:08Z</time>
      </trkpt>
      <trkpt lat="35.879331430" lon="-106.500055940">
        <ele>2615.000</ele>
        <time>2019-07-14T21:48:09Z</time>
      </trkpt>
      <trkpt lat="35.879373410" lon="-106.499983790">
        <ele>2616.500</ele>
        <time>2019-07-14T21:48:10Z</time>
      </trkpt>
      <trkpt lat="35.879399110" lon="-106.499932990">
        <ele>2616.400</ele>
        <time>2019-07-14T21:48:11Z</time>
      </trkpt>
      <trkpt lat="35.879433630" lon="-106.499892030">
        <ele>2616.300</ele>
        <time>2019-07-14T21:48:12Z</time>
      </trkpt>
      <trkpt lat="35.879475200" lon="-106.499828090">
        <ele>2616.200</ele>
        <time>2019-07-14T21:48:13Z</time>
      </trkpt>
      <trkpt lat="35.879514650" lon="-106.499768710">
        <ele>2616.100</ele>
        <time>2019-07-14T21:48:14Z</time>
      </trkpt>
      <trkpt lat="35.879551430" lon="-106.499700470">
        <ele>2616.200</ele>
        <time>2019-07-14T21:48:15Z</time>
      </trkpt>
      <trkpt lat="35.879585750" lon="-106.499631140">
        <ele>2616.600</ele>
        <time>2019-07-14T21:48:16Z</time>
      </trkpt>
      <trkpt lat="35.879621940" lon="-106.499567400">
        <ele>2616.100</ele>
        <time>2019-07-14T21:48:17Z</time>
      </trkpt>
      <trkpt lat="35.879666360" lon="-106.499502750">
        <ele>2616.400</ele>
        <time>2019-07-14T21:48:18Z</time>
      </trkpt>
      <trkpt lat="35.879707920" lon="-106.499447650">
        <ele>2614.800</ele>
        <time>2019-07-14T21:48:19Z</time>
      </trkpt>
      <trkpt lat="35.879756080" lon="-106.499377820">
        <ele>2614.900</ele>
        <time>2019-07-14T21:48:20Z</time>
      </trkpt>
      <trkpt lat="35.879803080" lon="-106.499320510">
        <ele>2614.400</ele>
        <time>2019-07-14T21:48:21Z</time>
      </trkpt>
      <trkpt lat="35.879857450" lon="-106.499257260">
        <ele>2614.100</ele>
        <time>2019-07-14T21:48:22Z</time>
      </trkpt>
      <trkpt lat="35.879914310" lon="-106.499197930">
        <ele>2614.100</ele>
        <time>2019-07-14T21:48:23Z</time>
      </trkpt>
      <trkpt lat="35.879970980" lon="-106.499140940">
        <ele>2613.300</ele>
        <time>2019-07-14T21:48:24Z</time>
      </trkpt>
      <trkpt lat="35.880028900" lon="-106.499082320">
        <ele>2612.900</ele>
        <time>2019-07-14T21:48:25Z</time>
      </trkpt>
      <trkpt lat="35.880082790" lon="-106.499017600">
        <ele>2613.200</ele>
        <time>2019-07-14T21:48:26Z</time>
      </trkpt>
      <trkpt lat="35.880141400" lon="-106.498958610">
        <ele>2612.000</ele>
        <time>2019-07-14T21:48:27Z</time>
      </trkpt>
      <trkpt lat="35.880192120" lon="-106.498880090">
        <ele>2612.300</ele>
        <time>2019-07-14T21:48:28Z</time>
      </trkpt>
      <trkpt lat="35.880246130" lon="-106.498806220">
        <ele>2612.000</ele>
        <time>2019-07-14T21:48:29Z</time>
      </trkpt>
      <trkpt lat="35.880300070" lon="-106.498722690">
        <ele>2611.500</ele>
        <time>2019-07-14T21:48:30Z</time>
      </trkpt>
      <trkpt lat="35.880352160" lon="-106.498634210">
        <ele>2612.100</ele>
        <time>2019-07-14T21:48:31Z</time>
      </trkpt>
      <trkpt lat="35.880408390" lon="-106.498552160">
        <ele>2612.400</ele>
        <time>2019-07-14T21:48:32Z</time>
      </trkpt>
      <trkpt lat="35.880461780" lon="-106.498470160">
        <ele>2612.800</ele>
        <time>2019-07-14T21:48:33Z</time>
      </trkpt>
      <trkpt lat="35.880521390" lon="-106.498390610">
        <ele>2612.200</ele>
        <time>2019-07-14T21:48:34Z</time>
      </trkpt>
      <trkpt lat="35.880579010" lon="-106.498308200">
        <ele>2612.500</ele>
        <time>2019-07-14T21:48:35Z</time>
      </trkpt>
      <trkpt lat="35.880636650" lon="-106.498231450">
        <ele>2612.100</ele>
        <time>2019-07-14T21:48:36Z</time>
      </trkpt>
      <trkpt lat="35.880683800" lon="-106.498150660">
        <ele>2612.700</ele>
        <time>2019-07-14T21:48:37Z</time>
      </trkpt>
      <trkpt lat="35.880736790" lon="-106.498068040">
        <ele>2612.500</ele>
        <time>2019-07-14T21:48:38Z</time>
      </trkpt>
      <trkpt lat="35.880781370" lon="-106.497997850">
        <ele>2612.600</ele>
        <time>2019-07-14T21:48:39Z</time>
      </trkpt>
      <trkpt lat="35.880829960" lon="-106.497905320">
        <ele>2613.000</ele>
        <time>2019-07-14T21:48:40Z</time>
      </trkpt>
      <trkpt lat="35.880877760" lon="-106.497825640">
        <ele>2614.200</ele>
        <time>2019-07-14T21:48:41Z</time>
      </trkpt>
      <trkpt lat="35.880924060" lon="-106.497745600">
        <ele>2615.500</ele>
        <time>2019-07-14T21:48:42Z</time>
      </trkpt>
      <trkpt lat="35.880972440" lon="-106.497667100">
        <ele>2616.000</ele>
        <time>2019-07-14T21:48:43Z</time>
      </trkpt>
      <trkpt lat="35.881023980" lon="-106.497589650">
        <ele>2616.000</ele>
        <time>2019-07-14T21:48:44Z</time>
      </trkpt>
      <trkpt lat="35.881078120" lon="-106.497510330">
        <ele>2617.200</ele>
        <time>2019-07-14T21:48:45Z</time>
      </trkpt>
      <trkpt lat="35.881132990" lon="-106.497435280">
        <ele>2617.300</ele>
        <time>2019-07-14T21:48:46Z</time>
      </trkpt>
      <trkpt lat="35.881187920" lon="-106.497356060">
        <ele>2617.500</ele>
        <time>2019-07-14T21:48:47Z</time>
      </trkpt>
      <trkpt lat="35.881246310" lon="-106.497285200">
        <ele>2617.700</ele>
        <time>2019-07-14T21:48:48Z</time>
      </trkpt>
      <trkpt lat="35.881297220" lon="-106.497203460">
        <ele>2617.900</ele>
        <time>2019-07-14T21:48:49Z</time>
      </trkpt>
      <trkpt lat="35.881356700" lon="-106.497131250">
        <ele>2617.700</ele>
        <time>2019-07-14T21:48:50Z</time>
      </trkpt>
      <trkpt lat="35.881418660" lon="-106.497057500">
        <ele>2617.300</ele>
        <time>2019-07-14T21:48:51Z</time>
      </trkpt>
      <trkpt lat="35.881478930" lon="-106.496979570">
        <ele>2616.400</ele>
        <time>2019-07-14T21:48:52Z</time>
      </trkpt>
      <trkpt lat="35.881541230" lon="-106.496899350">
        <ele>2616.300</ele>
        <time>2019-07-14T21:48:53Z</time>
      </trkpt>
      <trkpt lat="35.881605160" lon="-106.496812290">
        <ele>2616.700</ele>
        <time>2019-07-14T21:48:54Z</time>
      </trkpt>
      <trkpt lat="35.881669880" lon="-106.496730790">
        <ele>2616.600</ele>
        <time>2019-07-14T21:48:55Z</time>
      </trkpt>
      <trkpt lat="35.881737440" lon="-106.496660240">
        <ele>2616.100</ele>
        <time>2019-07-14T21:48:56Z</time>
      </trkpt>
      <trkpt lat="35.881803570" lon="-106.496589150">
        <ele>2616.100</ele>
        <time>2019-07-14T21:48:57Z</time>
      </trkpt>
      <trkpt lat="35.881874260" lon="-106.496518470">
        <ele>2615.300</ele>
        <time>2019-07-14T21:48:58Z</time>
      </trkpt>
      <trkpt lat="35.881940080" lon="-106.496453620">
        <ele>2615.600</ele>
        <time>2019-07-14T21:48:59Z</time>
      </trkpt>
      <trkpt lat="35.882014050" lon="-106.496384200">
        <ele>2616.000</ele>
        <time>2019-07-14T21:49:00Z</time>
      </trkpt>
      <trkpt lat="35.882087860" lon="-106.496314470">
        <ele>2615.500</ele>
        <time>2019-07-14T21:49:01Z</time>
      </trkpt>
      <trkpt lat="35.882165420" lon="-106.496239030">
        <ele>2615.400</ele>
        <time>2019-07-14T21:49:02Z</time>
      </trkpt>
      <trkpt lat="35.882243340" lon="-106.496171480">
        <ele>2614.700</ele>
        <time>2019-07-14T21:49:03Z</time>
      </trkpt>
      <trkpt lat="35.882317770" lon="-106.496101020">
        <ele>2614.800</ele>
        <time>2019-07-14T21:49:04Z</time>
      </trkpt>
      <trkpt lat="35.882390190" lon="-106.496028150">
        <ele>2614.800</ele>
        <time>2019-07-14T21:49:05Z</time>
      </trkpt>
      <trkpt lat="35.882463290" lon="-106.495955170">
        <ele>2615.100</ele>
        <time>2019-07-14T21:49:06Z</time>
      </trkpt>
      <trkpt lat="35.882547070" lon="-106.495884770">
        <ele>2614.700</ele>
        <time>2019-07-14T21:49:07Z</time>
      </trkpt>
      <trkpt lat="35.882620120" lon="-106.495821040">
        <ele>2614.000</ele>
        <time>2019-07-14T21:49:08Z</time>
      </trkpt>
      <trkpt lat="35.882688730" lon="-106.495747020">
        <ele>2614.100</ele>
        <time>2019-07-14T21:49:09Z</time>
      </trkpt>
      <trkpt lat="35.882757900" lon="-106.495678450">
        <ele>2614.100</ele>
        <time>2019-07-14T21:49:10Z</time>
      </trkpt>
      <trkpt lat="35.882828670" lon="-106.495609920">
        <ele>2613.800</ele>
        <time>2019-07-14T21:49:11Z</time>
      </trkpt>
      <trkpt lat="35.882899400" lon="-106.495545030">
        <ele>2613.600</ele>
        <time>2019-07-14T21:49:12Z</time>
      </trkpt>
      <trkpt lat="35.882965800" lon="-106.495469710">
        <ele>2614.300</ele>
        <time>2019-07-14T21:49:13Z</time>
      </trkpt>
      <trkpt lat="35.883034190" lon="-106.495401560">
        <ele>2614.600</ele>
        <time>2019-07-14T21:49:14Z</time>
      </trkpt>
      <trkpt lat="35.883094160" lon="-106.495337490">
        <ele>2614.500</ele>
        <time>2019-07-14T21:49:15Z</time>
      </trkpt>
      <trkpt lat="35.883161960" lon="-106.495281930">
        <ele>2614.400</ele>
        <time>2019-07-14T21:49:16Z</time>
      </trkpt>
      <trkpt lat="35.883228140" lon="-106.495212260">
        <ele>2615.000</ele>
        <time>2019-07-14T21:49:17Z</time>
      </trkpt>
      <trkpt lat="35.883290130" lon="-106.495139340">
        <ele>2615.600</ele>
        <time>2019-07-14T21:49:18Z</time>
      </trkpt>
      <trkpt lat="35.883363060" lon="-106.495068510">
        <ele>2616.200</ele>
        <time>2019-07-14T21:49:19Z</time>
      </trkpt>
      <trkpt lat="35.883430470" lon="-106.495003410">
        <ele>2617.000</ele>
        <time>2019-07-14T21:49:20Z</time>
      </trkpt>
      <trkpt lat="35.883503430" lon="-106.494946030">
        <ele>2617.400</ele>
        <time>2019-07-14T21:49:21Z</time>
      </trkpt>
      <trkpt lat="35.883584260" lon="-106.494899730">
        <ele>2616.900</ele>
        <time>2019-07-14T21:49:22Z</time>
      </trkpt>
      <trkpt lat="35.883652180" lon="-106.494843240">
        <ele>2617.100</ele>
        <time>2019-07-14T21:49:23Z</time>
      </trkpt>
      <trkpt lat="35.883713170" lon="-106.494804430">
        <ele>2618.300</ele>
        <time>2019-07-14T21:49:24Z</time>
      </trkpt>
      <trkpt lat="35.883780440" lon="-106.494752850">
        <ele>2617.900</ele>
        <time>2019-07-14T21:49:25Z</time>
      </trkpt>
      <trkpt lat="35.883839280" lon="-106.494727060">
        <ele>2618.200</ele>
        <time>2019-07-14T21:49:26Z</time>
      </trkpt>
      <trkpt lat="35.883905980" lon="-106.494695890">
        <ele>2617.400</ele>
        <time>2019-07-14T21:49:27Z</time>
      </trkpt>
      <trkpt lat="35.883960180" lon="-106.494648540">
        <ele>2620.000</ele>
        <time>2019-07-14T21:49:28Z</time>
      </trkpt>
      <trkpt lat="35.884031680" lon="-106.494642390">
        <ele>2619.900</ele>
        <time>2019-07-14T21:49:29Z</time>
      </trkpt>
      <trkpt lat="35.884097460" lon="-106.494614710">
        <ele>2619.600</ele>
        <time>2019-07-14T21:49:30Z</time>
      </trkpt>
      <trkpt lat="35.884163110" lon="-106.494596410">
        <ele>2620.300</ele>
        <time>2019-07-14T21:49:31Z</time>
      </trkpt>
      <trkpt lat="35.884247780" lon="-106.494587280">
        <ele>2617.500</ele>
        <time>2019-07-14T21:49:32Z</time>
      </trkpt>
      <trkpt lat="35.884312670" lon="-106.494592350">
        <ele>2616.800</ele>
        <time>2019-07-14T21:49:33Z</time>
      </trkpt>
      <trkpt lat="35.884373570" lon="-106.494586460">
        <ele>2617.200</ele>
        <time>2019-07-14T21:49:34Z</time>
      </trkpt>
      <trkpt lat="35.884441720" lon="-106.494575000">
        <ele>2617.100</ele>
        <time>2019-07-14T21:49:35Z</time>
      </trkpt>
      <trkpt lat="35.884504160" lon="-106.494622240">
        <ele>2617.300</ele>
        <time>2019-07-14T21:49:36Z</time>
      </trkpt>
      <trkpt lat="35.884545580" lon="-106.494697910">
        <ele>2620.100</ele>
        <time>2019-07-14T21:49:37Z</time>
      </trkpt>
      <trkpt lat="35.884607650" lon="-106.494739770">
        <ele>2620.900</ele>
        <time>2019-07-14T21:49:38Z</time>
      </trkpt>
      <trkpt lat="35.884645200" lon="-106.494806460">
        <ele>2619.900</ele>
        <time>2019-07-14T21:49:39Z</time>
      </trkpt>
      <trkpt lat="35.884700140" lon="-106.494889110">
        <ele>2618.800</ele>
        <time>2019-07-14T21:49:40Z</time>
      </trkpt>
      <trkpt lat="35.884744900" lon="-106.494973810">
        <ele>2619.000</ele>
        <time>2019-07-14T21:49:41Z</time>
      </trkpt>
      <trkpt lat="35.884786050" lon="-106.495048330">
        <ele>2619.400</ele>
        <time>2019-07-14T21:49:42Z</time>
      </trkpt>
      <trkpt lat="35.884804610" lon="-106.495122510">
        <ele>2620.500</ele>
        <time>2019-07-14T21:49:43Z</time>
      </trkpt>
      <trkpt lat="35.884817880" lon="-106.495211570">
        <ele>2620.700</ele>
        <time>2019-07-14T21:49:44Z</time>
      </trkpt>
      <trkpt lat="35.884837530" lon="-106.495311170">
        <ele>2619.800</ele>
        <time>2019-07-14T21:49:45Z</time>
      </trkpt>
      <trkpt lat="35.884857470" lon="-106.495397450">
        <ele>2618.900</ele>
        <time>2019-07-14T21:49:46Z</time>
      </trkpt>
      <trkpt lat="35.884882070" lon="-106.495480700">
        <ele>2619.800</ele>
        <time>2019-07-14T21:49:47Z</time>
      </trkpt>
      <trkpt lat="35.884905580" lon="-106.495558160">
        <ele>2620.700</ele>
        <time>2019-07-14T21:49:48Z</time>
      </trkpt>
      <trkpt lat="35.884932600" lon="-106.495632030">
        <ele>2622.000</ele>
        <time>2019-07-14T21:49:49Z</time>
      </trkpt>
      <trkpt lat="35.884960870" lon="-106.495698320">
        <ele>2622.000</ele>
        <time>2019-07-14T21:49:50Z</time>
      </trkpt>
      <trkpt lat="35.884990630" lon="-106.495760710">
        <ele>2620.300</ele>
        <time>2019-07-14T21:49:51Z</time>
      </trkpt>
      <trkpt lat="35.885015740" lon="-106.495803200">
        <ele>2622.500</ele>
        <time>2019-07-14T21:49:52Z</time>
      </trkpt>
      <trkpt lat="35.885049130" lon="-106.495845550">
        <ele>2622.500</ele>
        <time>2019-07-14T21:49:53Z</time>
      </trkpt>
      <trkpt lat="35.885089340" lon="-106.495890190">
        <ele>2622.600</ele>
        <time>2019-07-14T21:49:54Z</time>
      </trkpt>
      <trkpt lat="35.885122530" lon="-106.495924140">
        <ele>2622.500</ele>
        <time>2019-07-14T21:49:55Z</time>
      </trkpt>
      <trkpt lat="35.885157070" lon="-106.495967020">
        <ele>2623.100</ele>
        <time>2019-07-14T21:49:56Z</time>
      </trkpt>
      <trkpt lat="35.885201420" lon="-106.496012590">
        <ele>2622.800</ele>
        <time>2019-07-14T21:49:57Z</time>
      </trkpt>
      <trkpt lat="35.885238930" lon="-106.496048550">
        <ele>2623.300</ele>
        <time>2019-07-14T21:49:58Z</time>
      </trkpt>
      <trkpt lat="35.885283270" lon="-106.496084380">
        <ele>2623.500</ele>
        <time>2019-07-14T21:49:59Z</time>
      </trkpt>
      <trkpt lat="35.885337510" lon="-106.496120770">
        <ele>2623.700</ele>
        <time>2019-07-14T21:50:00Z</time>
      </trkpt>
      <trkpt lat="35.885386290" lon="-106.496146700">
        <ele>2624.100</ele>
        <time>2019-07-14T21:50:01Z</time>
      </trkpt>
      <trkpt lat="35.885443400" lon="-106.496178880">
        <ele>2624.400</ele>
        <time>2019-07-14T21:50:02Z</time>
      </trkpt>
      <trkpt lat="35.885511450" lon="-106.496206580">
        <ele>2624.400</ele>
        <time>2019-07-14T21:50:03Z</time>
      </trkpt>
      <trkpt lat="35.885583600" lon="-106.496236500">
        <ele>2624.600</ele>
        <time>2019-07-14T21:50:04Z</time>
      </trkpt>
      <trkpt lat="35.885648830" lon="-106.496271250">
        <ele>2624.000</ele>
        <time>2019-07-14T21:50:05Z</time>
      </trkpt>
      <trkpt lat="35.885711040" lon="-106.496302890">
        <ele>2624.600</ele>
        <time>2019-07-14T21:50:06Z</time>
      </trkpt>
      <trkpt lat="35.885782040" lon="-106.496338590">
        <ele>2625.000</ele>
        <time>2019-07-14T21:50:07Z</time>
      </trkpt>
      <trkpt lat="35.885860260" lon="-106.496361580">
        <ele>2625.900</ele>
        <time>2019-07-14T21:50:08Z</time>
      </trkpt>
      <trkpt lat="35.885932310" lon="-106.496386190">
        <ele>2626.300</ele>
        <time>2019-07-14T21:50:09Z</time>
      </trkpt>
      <trkpt lat="35.885989660" lon="-106.496407690">
        <ele>2627.200</ele>
        <time>2019-07-14T21:50:10Z</time>
      </trkpt>
      <trkpt lat="35.886050250" lon="-106.496430310">
        <ele>2627.100</ele>
        <time>2019-07-14T21:50:11Z</time>
      </trkpt>
      <trkpt lat="35.886123390" lon="-106.496444340">
        <ele>2627.600</ele>
        <time>2019-07-14T21:50:12Z</time>
      </trkpt>
      <trkpt lat="35.886192850" lon="-106.496452700">
        <ele>2628.500</ele>
        <time>2019-07-14T21:50:13Z</time>
      </trkpt>
      <trkpt lat="35.886252930" lon="-106.496456290">
        <ele>2629.000</ele>
        <time>2019-07-14T21:50:14Z</time>
      </trkpt>
      <trkpt lat="35.886320650" lon="-106.496469210">
        <ele>2628.600</ele>
        <time>2019-07-14T21:50:15Z</time>
      </trkpt>
      <trkpt lat="35.886391880" lon="-106.496488550">
        <ele>2626.500</ele>
        <time>2019-07-14T21:50:16Z</time>
      </trkpt>
      <trkpt lat="35.886472170" lon="-106.496487350">
        <ele>2626.500</ele>
        <time>2019-07-14T21:50:17Z</time>
      </trkpt>
      <trkpt lat="35.886548190" lon="-106.496486140">
        <ele>2627.500</ele>
        <time>2019-07-14T21:50:18Z</time>
      </trkpt>
      <trkpt lat="35.886623270" lon="-106.496502950">
        <ele>2627.300</ele>
        <time>2019-07-14T21:50:19Z</time>
      </trkpt>
      <trkpt lat="35.886704270" lon="-106.496527540">
        <ele>2627.500</ele>
        <time>2019-07-14T21:50:20Z</time>
      </trkpt>
      <trkpt lat="35.886783610" lon="-106.496565120">
        <ele>2628.300</ele>
        <time>2019-07-14T21:50:21Z</time>
      </trkpt>
      <trkpt lat="35.886866930" lon="-106.496603620">
        <ele>2628.500</ele>
        <time>2019-07-14T21:50:22Z</time>
      </trkpt>
      <trkpt lat="35.886944850" lon="-106.496657970">
        <ele>2628.400</ele>
        <time>2019-07-14T21:50:23Z</time>
      </trkpt>
      <trkpt lat="35.887011310" lon="-106.496716860">
        <ele>2629.400</ele>
        <time>2019-07-14T21:50:24Z</time>
      </trkpt>
      <trkpt lat="35.887077350" lon="-106.496775180">
        <ele>2629.500</ele>
        <time>2019-07-14T21:50:25Z</time>
      </trkpt>
      <trkpt lat="35.887145350" lon="-106.496836550">
        <ele>2629.600</ele>
        <time>2019-07-14T21:50:26Z</time>
      </trkpt>
      <trkpt lat="35.887219630" lon="-106.496882950">
        <ele>2629.800</ele>
        <time>2019-07-14T21:50:27Z</time>
      </trkpt>
      <trkpt lat="35.887281910" lon="-106.496931590">
        <ele>2630.100</ele>
        <time>2019-07-14T21:50:28Z</time>
      </trkpt>
      <trkpt lat="35.887340710" lon="-106.496977160">
        <ele>2630.700</ele>
        <time>2019-07-14T21:50:29Z</time>
      </trkpt>
      <trkpt lat="35.887401280" lon="-106.497027500">
        <ele>2631.000</ele>
        <time>2019-07-14T21:50:30Z</time>
      </trkpt>
      <trkpt lat="35.887466060" lon="-106.497076330">
        <ele>2630.200</ele>
        <time>2019-07-14T21:50:31Z</time>
      </trkpt>
      <trkpt lat="35.887525400" lon="-106.497131100">
        <ele>2630.900</ele>
        <time>2019-07-14T21:50:32Z</time>
      </trkpt>
      <trkpt lat="35.887573500" lon="-106.497184580">
        <ele>2631.600</ele>
        <time>2019-07-14T21:50:33Z</time>
      </trkpt>
      <trkpt lat="35.887631720" lon="-106.497233340">
        <ele>2631.100</ele>
        <time>2019-07-14T21:50:34Z</time>
      </trkpt>
      <trkpt lat="35.887680280" lon="-106.497280520">
        <ele>2631.300</ele>
        <time>2019-07-14T21:50:35Z</time>
      </trkpt>
      <trkpt lat="35.887750320" lon="-106.497339480">
        <ele>2631.100</ele>
        <time>2019-07-14T21:50:36Z</time>
      </trkpt>
      <trkpt lat="35.887815800" lon="-106.497390960">
        <ele>2630.900</ele>
        <time>2019-07-14T21:50:37Z</time>
      </trkpt>
      <trkpt lat="35.887867580" lon="-106.497438070">
        <ele>2631.000</ele>
        <time>2019-07-14T21:50:38Z</time>
      </trkpt>
      <trkpt lat="35.887931700" lon="-106.497484050">
        <ele>2631.200</ele>
        <time>2019-07-14T21:50:39Z</time>
      </trkpt>
      <trkpt lat="35.888004900" lon="-106.497502150">
        <ele>2631.500</ele>
        <time>2019-07-14T21:50:40Z</time>
      </trkpt>
      <trkpt lat="35.888057200" lon="-106.497535990">
        <ele>2632.700</ele>
        <time>2019-07-14T21:50:41Z</time>
      </trkpt>
      <trkpt lat="35.888122220" lon="-106.497566710">
        <ele>2633.500</ele>
        <time>2019-07-14T21:50:42Z</time>
      </trkpt>
      <trkpt lat="35.888186930" lon="-106.497595380">
        <ele>2633.100</ele>
        <time>2019-07-14T21:50:43Z</time>
      </trkpt>
      <trkpt lat="35.888251480" lon="-106.497621530">
        <ele>2633.400</ele>
        <time>2019-07-14T21:50:44Z</time>
      </trkpt>
      <trkpt lat="35.888326220" lon="-106.497653040">
        <ele>2633.600</ele>
        <time>2019-07-14T21:50:45Z</time>
      </trkpt>
      <trkpt lat="35.888403280" lon="-106.497687240">
        <ele>2633.800</ele>
        <time>2019-07-14T21:50:46Z</time>
      </trkpt>
      <trkpt lat="35.888473040" lon="-106.497716110">
        <ele>2634.400</ele>
        <time>2019-07-14T21:50:47Z</time>
      </trkpt>
      <trkpt lat="35.888551650" lon="-106.497746670">
        <ele>2634.500</ele>
        <time>2019-07-14T21:50:48Z</time>
      </trkpt>
      <trkpt lat="35.888624090" lon="-106.497780920">
        <ele>2635.200</ele>
        <time>2019-07-14T21:50:49Z</time>
      </trkpt>
      <trkpt lat="35.888705070" lon="-106.497817810">
        <ele>2635.600</ele>
        <time>2019-07-14T21:50:50Z</time>
      </trkpt>
      <trkpt lat="35.888787590" lon="-106.497848710">
        <ele>2635.200</ele>
        <time>2019-07-14T21:50:51Z</time>
      </trkpt>
      <trkpt lat="35.888862910" lon="-106.497876040">
        <ele>2635.600</ele>
        <time>2019-07-14T21:50:52Z</time>
      </trkpt>
      <trkpt lat="35.888939280" lon="-106.497918650">
        <ele>2635.300</ele>
        <time>2019-07-14T21:50:53Z</time>
      </trkpt>
      <trkpt lat="35.889004650" lon="-106.497961980">
        <ele>2635.300</ele>
        <time>2019-07-14T21:50:54Z</time>
      </trkpt>
      <trkpt lat="35.889077230" lon="-106.497990080">
        <ele>2635.400</ele>
        <time>2019-07-14T21:50:55Z</time>
      </trkpt>
      <trkpt lat="35.889139630" lon="-106.498011930">
        <ele>2635.900</ele>
        <time>2019-07-14T21:50:56Z</time>
      </trkpt>
      <trkpt lat="35.889213910" lon="-106.498012150">
        <ele>2636.600</ele>
        <time>2019-07-14T21:50:57Z</time>
      </trkpt>
      <trkpt lat="35.889288800" lon="-106.498029260">
        <ele>2636.900</ele>
        <time>2019-07-14T21:50:58Z</time>
      </trkpt>
      <trkpt lat="35.889354830" lon="-106.498027420">
        <ele>2637.800</ele>
        <time>2019-07-14T21:50:59Z</time>
      </trkpt>
      <trkpt lat="35.889436120" lon="-106.498046640">
        <ele>2637.200</ele>
        <time>2019-07-14T21:51:00Z</time>
      </trkpt>
      <trkpt lat="35.889516800" lon="-106.498037830">
        <ele>2637.500</ele>
        <time>2019-07-14T21:51:01Z</time>
      </trkpt>
      <trkpt lat="35.889581990" lon="-106.498021570">
        <ele>2637.300</ele>
        <time>2019-07-14T21:51:02Z</time>
      </trkpt>
      <trkpt lat="35.889643170" lon="-106.497999820">
        <ele>2637.300</ele>
        <time>2019-07-14T21:51:03Z</time>
      </trkpt>
      <trkpt lat="35.889705910" lon="-106.497962980">
        <ele>2637.200</ele>
        <time>2019-07-14T21:51:04Z</time>
      </trkpt>
      <trkpt lat="35.889773580" lon="-106.497930230">
        <ele>2636.700</ele>
        <time>2019-07-14T21:51:05Z</time>
      </trkpt>
      <trkpt lat="35.889834920" lon="-106.497899490">
        <ele>2635.700</ele>
        <time>2019-07-14T21:51:06Z</time>
      </trkpt>
      <trkpt lat="35.889894790" lon="-106.497874980">
        <ele>2635.600</ele>
        <time>2019-07-14T21:51:07Z</time>
      </trkpt>
      <trkpt lat="35.889966920" lon="-106.497872170">
        <ele>2633.200</ele>
        <time>2019-07-14T21:51:08Z</time>
      </trkpt>
      <trkpt lat="35.890023040" lon="-106.497846060">
        <ele>2632.600</ele>
        <time>2019-07-14T21:51:09Z</time>
      </trkpt>
      <trkpt lat="35.890083920" lon="-106.497820780">
        <ele>2633.000</ele>
        <time>2019-07-14T21:51:10Z</time>
      </trkpt>
      <trkpt lat="35.890138380" lon="-106.497791490">
        <ele>2631.900</ele>
        <time>2019-07-14T21:51:11Z</time>
      </trkpt>
      <trkpt lat="35.890190490" lon="-106.497770800">
        <ele>2632.200</ele>
        <time>2019-07-14T21:51:12Z</time>
      </trkpt>
      <trkpt lat="35.890226190" lon="-106.497742280">
        <ele>2632.000</ele>
        <time>2019-07-14T21:51:13Z</time>
      </trkpt>
      <trkpt lat="35.890264200" lon="-106.497710090">
        <ele>2632.400</ele>
        <time>2019-07-14T21:51:14Z</time>
      </trkpt>
      <trkpt lat="35.890303520" lon="-106.497668710">
        <ele>2631.800</ele>
        <time>2019-07-14T21:51:15Z</time>
      </trkpt>
      <trkpt lat="35.890347910" lon="-106.497642190">
        <ele>2631.500</ele>
        <time>2019-07-14T21:51:16Z</time>
      </trkpt>
      <trkpt lat="35.890396100" lon="-106.497608690">
        <ele>2631.900</ele>
        <time>2019-07-14T21:51:17Z</time>
      </trkpt>
      <trkpt lat="35.890456820" lon="-106.497579530">
        <ele>2631.000</ele>
        <time>2019-07-14T21:51:18Z</time>
      </trkpt>
      <trkpt lat="35.890516450" lon="-106.497548920">
        <ele>2630.300</ele>
        <time>2019-07-14T21:51:19Z</time>
      </trkpt>
      <trkpt lat="35.890577130" lon="-106.497511450">
        <ele>2629.400</ele>
        <time>2019-07-14T21:51:20Z</time>
      </trkpt>
      <trkpt lat="35.890633790" lon="-106.497470230">
        <ele>2628.700</ele>
        <time>2019-07-14T21:51:21Z</time>
      </trkpt>
      <trkpt lat="35.890693140" lon="-106.497419560">
        <ele>2628.900</ele>
        <time>2019-07-14T21:51:22Z</time>
      </trkpt>
      <trkpt lat="35.890746380" lon="-106.497360250">
        <ele>2628.700</ele>
        <time>2019-07-14T21:51:23Z</time>
      </trkpt>
      <trkpt lat="35.890774590" lon="-106.497272230">
        <ele>2628.400</ele>
        <time>2019-07-14T21:51:24Z</time>
      </trkpt>
      <trkpt lat="35.890812160" lon="-106.497192680">
        <ele>2628.900</ele>
        <time>2019-07-14T21:51:25Z</time>
      </trkpt>
      <trkpt lat="35.890833720" lon="-106.497118630">
        <ele>2628.000</ele>
        <time>2019-07-14T21:51:26Z</time>
      </trkpt>
      <trkpt lat="35.890855620" lon="-106.497038070">
        <ele>2628.900</ele>
        <time>2019-07-14T21:51:27Z</time>
      </trkpt>
      <trkpt lat="35.890874270" lon="-106.496959160">
        <ele>2628.800</ele>
        <time>2019-07-14T21:51:28Z</time>
      </trkpt>
      <trkpt lat="35.890900020" lon="-106.496882710">
        <ele>2628.200</ele>
        <time>2019-07-14T21:51:29Z</time>
      </trkpt>
      <trkpt lat="35.890922760" lon="-106.496804640">
        <ele>2627.200</ele>
        <time>2019-07-14T21:51:30Z</time>
      </trkpt>
      <trkpt lat="35.890930280" lon="-106.496719630">
        <ele>2625.000</ele>
        <time>2019-07-14T21:51:31Z</time>
      </trkpt>
      <trkpt lat="35.890930790" lon="-106.496645670">
        <ele>2625.500</ele>
        <time>2019-07-14T21:51:32Z</time>
      </trkpt>
      <trkpt lat="35.890935970" lon="-106.496591870">
        <ele>2624.900</ele>
        <time>2019-07-14T21:51:33Z</time>
      </trkpt>
      <trkpt lat="35.890935540" lon="-106.496541380">
        <ele>2625.400</ele>
        <time>2019-07-14T21:51:34Z</time>
      </trkpt>
      <trkpt lat="35.890933690" lon="-106.496486140">
        <ele>2623.400</ele>
        <time>2019-07-14T21:51:36Z</time>
      </trkpt>
      <trkpt lat="35.890937880" lon="-106.496415410">
        <ele>2622.100</ele>
        <time>2019-07-14T21:51:38Z</time>
      </trkpt>
      <trkpt lat="35.890954600" lon="-106.496352500">
        <ele>2614.500</ele>
        <time>2019-07-14T21:51:40Z</time>
      </trkpt>
      <trkpt lat="35.890946250" lon="-106.496292830">
        <ele>2613.600</ele>
        <time>2019-07-14T21:51:41Z</time>
      </trkpt>
      <trkpt lat="35.890905200" lon="-106.496212510">
        <ele>2613.100</ele>
        <time>2019-07-14T21:51:42Z</time>
      </trkpt>
      <trkpt lat="35.890879490" lon="-106.496156870">
        <ele>2610.200</ele>
        <time>2019-07-14T21:51:43Z</time>
      </trkpt>
      <trkpt lat="35.890825670" lon="-106.496083220">
        <ele>2610.100</ele>
        <time>2019-07-14T21:51:44Z</time>
      </trkpt>
      <trkpt lat="35.890772390" lon="-106.496017330">
        <ele>2610.000</ele>
        <time>2019-07-14T21:51:45Z</time>
      </trkpt>
      <trkpt lat="35.890720240" lon="-106.495962230">
        <ele>2609.800</ele>
        <time>2019-07-14T21:51:46Z</time>
      </trkpt>
      <trkpt lat="35.890671040" lon="-106.495912130">
        <ele>2610.500</ele>
        <time>2019-07-14T21:51:47Z</time>
      </trkpt>
      <trkpt lat="35.890632180" lon="-106.495877510">
        <ele>2609.200</ele>
        <time>2019-07-14T21:51:48Z</time>
      </trkpt>
      <trkpt lat="35.890583760" lon="-106.495818330">
        <ele>2607.800</ele>
        <time>2019-07-14T21:51:50Z</time>
      </trkpt>
      <trkpt lat="35.890547240" lon="-106.495762210">
        <ele>2606.600</ele>
        <time>2019-07-14T21:51:52Z</time>
      </trkpt>
      <trkpt lat="35.890521340" lon="-106.495727410">
        <ele>2605.400</ele>
        <time>2019-07-14T21:51:53Z</time>
      </trkpt>
      <trkpt lat="35.890486750" lon="-106.495682590">
        <ele>2605.200</ele>
        <time>2019-07-14T21:51:54Z</time>
      </trkpt>
      <trkpt lat="35.890445140" lon="-106.495637280">
        <ele>2606.000</ele>
        <time>2019-07-14T21:51:55Z</time>
      </trkpt>
      <trkpt lat="35.890396230" lon="-106.495594270">
        <ele>2605.900</ele>
        <time>2019-07-14T21:51:56Z</time>
      </trkpt>
      <trkpt lat="35.890334440" lon="-106.495558810">
        <ele>2606.600</ele>
        <time>2019-07-14T21:51:57Z</time>
      </trkpt>
      <trkpt lat="35.890279300" lon="-106.495519980">
        <ele>2606.400</ele>
        <time>2019-07-14T21:51:58Z</time>
      </trkpt>
      <trkpt lat="35.890225140" lon="-106.495499190">
        <ele>2606.100</ele>
        <time>2019-07-14T21:51:59Z</time>
      </trkpt>
      <trkpt lat="35.890168510" lon="-106.495474670">
        <ele>2606.000</ele>
        <time>2019-07-14T21:52:00Z</time>
      </trkpt>
      <trkpt lat="35.890112510" lon="-106.495450430">
        <ele>2605.400</ele>
        <time>2019-07-14T21:52:01Z</time>
      </trkpt>
      <trkpt lat="35.890054720" lon="-106.495423980">
        <ele>2605.900</ele>
        <time>2019-07-14T21:52:02Z</time>
      </trkpt>
      <trkpt lat="35.889996430" lon="-106.495388980">
        <ele>2606.000</ele>
        <time>2019-07-14T21:52:03Z</time>
      </trkpt>
      <trkpt lat="35.889942210" lon="-106.495357360">
        <ele>2605.900</ele>
        <time>2019-07-14T21:52:04Z</time>
      </trkpt>
      <trkpt lat="35.889890270" lon="-106.495315360">
        <ele>2606.100</ele>
        <time>2019-07-14T21:52:05Z</time>
      </trkpt>
      <trkpt lat="35.889846790" lon="-106.495257430">
        <ele>2606.300</ele>
        <time>2019-07-14T21:52:06Z</time>
      </trkpt>
      <trkpt lat="35.889796680" lon="-106.495222550">
        <ele>2605.800</ele>
        <time>2019-07-14T21:52:07Z</time>
      </trkpt>
      <trkpt lat="35.889752730" lon="-106.495166030">
        <ele>2605.400</ele>
        <time>2019-07-14T21:52:08Z</time>
      </trkpt>
      <trkpt lat="35.889707730" lon="-106.495107590">
        <ele>2605.500</ele>
        <time>2019-07-14T21:52:09Z</time>
      </trkpt>
      <trkpt lat="35.889670240" lon="-106.495043840">
        <ele>2605.000</ele>
        <time>2019-07-14T21:52:10Z</time>
      </trkpt>
      <trkpt lat="35.889636240" lon="-106.494985660">
        <ele>2604.900</ele>
        <time>2019-07-14T21:52:11Z</time>
      </trkpt>
      <trkpt lat="35.889607720" lon="-106.494915530">
        <ele>2603.600</ele>
        <time>2019-07-14T21:52:12Z</time>
      </trkpt>
      <trkpt lat="35.889581600" lon="-106.494841500">
        <ele>2603.400</ele>
        <time>2019-07-14T21:52:13Z</time>
      </trkpt>
      <trkpt lat="35.889559790" lon="-106.494766380">
        <ele>2602.800</ele>
        <time>2019-07-14T21:52:14Z</time>
      </trkpt>
      <trkpt lat="35.889535330" lon="-106.494697790">
        <ele>2603.000</ele>
        <time>2019-07-14T21:52:15Z</time>
      </trkpt>
      <trkpt lat="35.889512210" lon="-106.494621290">
        <ele>2602.400</ele>
        <time>2019-07-14T21:52:16Z</time>
      </trkpt>
      <trkpt lat="35.889492490" lon="-106.494556750">
        <ele>2603.300</ele>
        <time>2019-07-14T21:52:17Z</time>
      </trkpt>
      <trkpt lat="35.889475990" lon="-106.494473970">
        <ele>2603.200</ele>
        <time>2019-07-14T21:52:18Z</time>
      </trkpt>
      <trkpt lat="35.889457590" lon="-106.494401760">
        <ele>2603.300</ele>
        <time>2019-07-14T21:52:19Z</time>
      </trkpt>
      <trkpt lat="35.889432760" lon="-106.494321180">
        <ele>2603.600</ele>
        <time>2019-07-14T21:52:20Z</time>
      </trkpt>
      <trkpt lat="35.889409700" lon="-106.494252730">
        <ele>2604.600</ele>
        <time>2019-07-14T21:52:21Z</time>
      </trkpt>
      <trkpt lat="35.889392520" lon="-106.494177340">
        <ele>2604.700</ele>
        <time>2019-07-14T21:52:22Z</time>
      </trkpt>
      <trkpt lat="35.889368620" lon="-106.494102510">
        <ele>2604.800</ele>
        <time>2019-07-14T21:52:23Z</time>
      </trkpt>
      <trkpt lat="35.889352200" lon="-106.494032590">
        <ele>2605.000</ele>
        <time>2019-07-14T21:52:24Z</time>
      </trkpt>
      <trkpt lat="35.889332710" lon="-106.493952630">
        <ele>2603.700</ele>
        <time>2019-07-14T21:52:25Z</time>
      </trkpt>
      <trkpt lat="35.889308930" lon="-106.493880540">
        <ele>2602.900</ele>
        <time>2019-07-14T21:52:26Z</time>
      </trkpt>
      <trkpt lat="35.889283820" lon="-106.493800810">
        <ele>2603.000</ele>
        <time>2019-07-14T21:52:27Z</time>
      </trkpt>
      <trkpt lat="35.889261260" lon="-106.493715530">
        <ele>2603.200</ele>
        <time>2019-07-14T21:52:28Z</time>
      </trkpt>
      <trkpt lat="35.889243500" lon="-106.493617750">
        <ele>2602.300</ele>
        <time>2019-07-14T21:52:29Z</time>
      </trkpt>
      <trkpt lat="35.889226570" lon="-106.493526610">
        <ele>2603.000</ele>
        <time>2019-07-14T21:52:30Z</time>
      </trkpt>
      <trkpt lat="35.889206050" lon="-106.493432810">
        <ele>2603.500</ele>
        <time>2019-07-14T21:52:31Z</time>
      </trkpt>
      <trkpt lat="35.889200870" lon="-106.493354860">
        <ele>2602.600</ele>
        <time>2019-07-14T21:52:32Z</time>
      </trkpt>
      <trkpt lat="35.889183270" lon="-106.493270010">
        <ele>2603.100</ele>
        <time>2019-07-14T21:52:33Z</time>
      </trkpt>
      <trkpt lat="35.889169890" lon="-106.493183670">
        <ele>2603.100</ele>
        <time>2019-07-14T21:52:34Z</time>
      </trkpt>
      <trkpt lat="35.889157050" lon="-106.493098100">
        <ele>2602.800</ele>
        <time>2019-07-14T21:52:35Z</time>
      </trkpt>
      <trkpt lat="35.889137700" lon="-106.493014090">
        <ele>2602.500</ele>
        <time>2019-07-14T21:52:36Z</time>
      </trkpt>
      <trkpt lat="35.889118370" lon="-106.492926230">
        <ele>2601.700</ele>
        <time>2019-07-14T21:52:37Z</time>
      </trkpt>
      <trkpt lat="35.889097650" lon="-106.492840130">
        <ele>2601.800</ele>
        <time>2019-07-14T21:52:38Z</time>
      </trkpt>
      <trkpt lat="35.889077160" lon="-106.492758180">
        <ele>2603.200</ele>
        <time>2019-07-14T21:52:39Z</time>
      </trkpt>
      <trkpt lat="35.889066300" lon="-106.492675280">
        <ele>2602.300</ele>
        <time>2019-07-14T21:52:40Z</time>
      </trkpt>
      <trkpt lat="35.889045740" lon="-106.492580550">
        <ele>2602.600</ele>
        <time>2019-07-14T21:52:41Z</time>
      </trkpt>
      <trkpt lat="35.889029400" lon="-106.492485500">
        <ele>2601.700</ele>
        <time>2019-07-14T21:52:42Z</time>
      </trkpt>
      <trkpt lat="35.889019910" lon="-106.492399760">
        <ele>2601.000</ele>
        <time>2019-07-14T21:52:43Z</time>
      </trkpt>
      <trkpt lat="35.889010010" lon="-106.492303160">
        <ele>2600.900</ele>
        <time>2019-07-14T21:52:44Z</time>
      </trkpt>
      <trkpt lat="35.889000460" lon="-106.492211510">
        <ele>2600.500</ele>
        <time>2019-07-14T21:52:45Z</time>
      </trkpt>
      <trkpt lat="35.888992110" lon="-106.492117140">
        <ele>2600.600</ele>
        <time>2019-07-14T21:52:46Z</time>
      </trkpt>
      <trkpt lat="35.889001350" lon="-106.492044110">
        <ele>2595.800</ele>
        <time>2019-07-14T21:52:47Z</time>
      </trkpt>
      <trkpt lat="35.888997180" lon="-106.491957660">
        <ele>2596.300</ele>
        <time>2019-07-14T21:52:48Z</time>
      </trkpt>
      <trkpt lat="35.888999640" lon="-106.491868170">
        <ele>2595.700</ele>
        <time>2019-07-14T21:52:49Z</time>
      </trkpt>
      <trkpt lat="35.889002330" lon="-106.491770780">
        <ele>2595.900</ele>
        <time>2019-07-14T21:52:50Z</time>
      </trkpt>
      <trkpt lat="35.889003850" lon="-106.491677420">
        <ele>2596.000</ele>
        <time>2019-07-14T21:52:51Z</time>
      </trkpt>
      <trkpt lat="35.889011120" lon="-106.491587930">
        <ele>2596.600</ele>
        <time>2019-07-14T21:52:52Z</time>
      </trkpt>
      <trkpt lat="35.889018160" lon="-106.491497370">
        <ele>2597.200</ele>
        <time>2019-07-14T21:52:53Z</time>
      </trkpt>
      <trkpt lat="35.889028320" lon="-106.491411570">
        <ele>2598.300</ele>
        <time>2019-07-14T21:52:54Z</time>
      </trkpt>
      <trkpt lat="35.889039380" lon="-106.491311650">
        <ele>2598.800</ele>
        <time>2019-07-14T21:52:55Z</time>
      </trkpt>
      <trkpt lat="35.889052480" lon="-106.491229020">
        <ele>2600.000</ele>
        <time>2019-07-14T21:52:56Z</time>
      </trkpt>
      <trkpt lat="35.889062710" lon="-106.491138520">
        <ele>2600.500</ele>
        <time>2019-07-14T21:52:57Z</time>
      </trkpt>
      <trkpt lat="35.889088230" lon="-106.491074170">
        <ele>2599.100</ele>
        <time>2019-07-14T21:52:58Z</time>
      </trkpt>
      <trkpt lat="35.889102040" lon="-106.490997720">
        <ele>2599.600</ele>
        <time>2019-07-14T21:52:59Z</time>
      </trkpt>
      <trkpt lat="35.889116350" lon="-106.490914990">
        <ele>2600.400</ele>
        <time>2019-07-14T21:53:00Z</time>
      </trkpt>
      <trkpt lat="35.889130650" lon="-106.490838270">
        <ele>2601.200</ele>
        <time>2019-07-14T21:53:01Z</time>
      </trkpt>
      <trkpt lat="35.889151830" lon="-106.490757120">
        <ele>2601.800</ele>
        <time>2019-07-14T21:53:02Z</time>
      </trkpt>
      <trkpt lat="35.889176350" lon="-106.490677270">
        <ele>2601.900</ele>
        <time>2019-07-14T21:53:03Z</time>
      </trkpt>
      <trkpt lat="35.889201760" lon="-106.490599780">
        <ele>2601.900</ele>
        <time>2019-07-14T21:53:04Z</time>
      </trkpt>
      <trkpt lat="35.889225550" lon="-106.490518140">
        <ele>2602.400</ele>
        <time>2019-07-14T21:53:05Z</time>
      </trkpt>
      <trkpt lat="35.889250500" lon="-106.490444630">
        <ele>2602.800</ele>
        <time>2019-07-14T21:53:06Z</time>
      </trkpt>
      <trkpt lat="35.889280850" lon="-106.490366980">
        <ele>2602.800</ele>
        <time>2019-07-14T21:53:07Z</time>
      </trkpt>
      <trkpt lat="35.889318290" lon="-106.490294970">
        <ele>2603.600</ele>
        <time>2019-07-14T21:53:08Z</time>
      </trkpt>
      <trkpt lat="35.889362780" lon="-106.490228020">
        <ele>2604.700</ele>
        <time>2019-07-14T21:53:09Z</time>
      </trkpt>
      <trkpt lat="35.889405920" lon="-106.490174020">
        <ele>2604.400</ele>
        <time>2019-07-14T21:53:10Z</time>
      </trkpt>
      <trkpt lat="35.889454780" lon="-106.490120390">
        <ele>2604.500</ele>
        <time>2019-07-14T21:53:11Z</time>
      </trkpt>
      <trkpt lat="35.889505350" lon="-106.490080660">
        <ele>2604.000</ele>
        <time>2019-07-14T21:53:12Z</time>
      </trkpt>
      <trkpt lat="35.889561810" lon="-106.490045570">
        <ele>2603.800</ele>
        <time>2019-07-14T21:53:13Z</time>
      </trkpt>
      <trkpt lat="35.889620100" lon="-106.490009050">
        <ele>2603.700</ele>
        <time>2019-07-14T21:53:14Z</time>
      </trkpt>
      <trkpt lat="35.889671730" lon="-106.489980070">
        <ele>2604.000</ele>
        <time>2019-07-14T21:53:15Z</time>
      </trkpt>
      <trkpt lat="35.889729570" lon="-106.489950320">
        <ele>2604.600</ele>
        <time>2019-07-14T21:53:16Z</time>
      </trkpt>
      <trkpt lat="35.889786610" lon="-106.489927660">
        <ele>2604.500</ele>
        <time>2019-07-14T21:53:17Z</time>
      </trkpt>
      <trkpt lat="35.889844870" lon="-106.489901400">
        <ele>2604.400</ele>
        <time>2019-07-14T21:53:18Z</time>
      </trkpt>
      <trkpt lat="35.889901880" lon="-106.489864830">
        <ele>2604.800</ele>
        <time>2019-07-14T21:53:19Z</time>
      </trkpt>
      <trkpt lat="35.889952840" lon="-106.489839350">
        <ele>2605.700</ele>
        <time>2019-07-14T21:53:20Z</time>
      </trkpt>
      <trkpt lat="35.890010500" lon="-106.489831510">
        <ele>2605.600</ele>
        <time>2019-07-14T21:53:21Z</time>
      </trkpt>
      <trkpt lat="35.890072780" lon="-106.489807290">
        <ele>2606.700</ele>
        <time>2019-07-14T21:53:22Z</time>
      </trkpt>
      <trkpt lat="35.890123280" lon="-106.489793590">
        <ele>2606.300</ele>
        <time>2019-07-14T21:53:23Z</time>
      </trkpt>
      <trkpt lat="35.890187770" lon="-106.489783340">
        <ele>2606.200</ele>
        <time>2019-07-14T21:53:24Z</time>
      </trkpt>
      <trkpt lat="35.890246440" lon="-106.489755880">
        <ele>2606.700</ele>
        <time>2019-07-14T21:53:25Z</time>
      </trkpt>
      <trkpt lat="35.890296930" lon="-106.489738030">
        <ele>2606.500</ele>
        <time>2019-07-14T21:53:26Z</time>
      </trkpt>
      <trkpt lat="35.890363410" lon="-106.489722210">
        <ele>2607.000</ele>
        <time>2019-07-14T21:53:27Z</time>
      </trkpt>
      <trkpt lat="35.890430190" lon="-106.489707780">
        <ele>2607.600</ele>
        <time>2019-07-14T21:53:28Z</time>
      </trkpt>
      <trkpt lat="35.890492850" lon="-106.489691410">
        <ele>2607.000</ele>
        <time>2019-07-14T21:53:29Z</time>
      </trkpt>
      <trkpt lat="35.890555350" lon="-106.489677720">
        <ele>2606.600</ele>
        <time>2019-07-14T21:53:30Z</time>
      </trkpt>
      <trkpt lat="35.890615970" lon="-106.489661080">
        <ele>2606.900</ele>
        <time>2019-07-14T21:53:31Z</time>
      </trkpt>
      <trkpt lat="35.890684350" lon="-106.489639560">
        <ele>2607.000</ele>
        <time>2019-07-14T21:53:32Z</time>
      </trkpt>
      <trkpt lat="35.890751860" lon="-106.489626780">
        <ele>2606.400</ele>
        <time>2019-07-14T21:53:33Z</time>
      </trkpt>
      <trkpt lat="35.890818270" lon="-106.489617960">
        <ele>2606.400</ele>
        <time>2019-07-14T21:53:34Z</time>
      </trkpt>
      <trkpt lat="35.890881390" lon="-106.489605710">
        <ele>2608.500</ele>
        <time>2019-07-14T21:53:35Z</time>
      </trkpt>
      <trkpt lat="35.890953210" lon="-106.489599010">
        <ele>2608.300</ele>
        <time>2019-07-14T21:53:36Z</time>
      </trkpt>
      <trkpt lat="35.891021620" lon="-106.489576600">
        <ele>2608.800</ele>
        <time>2019-07-14T21:53:37Z</time>
      </trkpt>
      <trkpt lat="35.891089580" lon="-106.489562110">
        <ele>2608.800</ele>
        <time>2019-07-14T21:53:38Z</time>
      </trkpt>
      <trkpt lat="35.891157790" lon="-106.489545720">
        <ele>2610.600</ele>
        <time>2019-07-14T21:53:39Z</time>
      </trkpt>
      <trkpt lat="35.891232440" lon="-106.489526760">
        <ele>2610.600</ele>
        <time>2019-07-14T21:53:40Z</time>
      </trkpt>
      <trkpt lat="35.891305680" lon="-106.489503390">
        <ele>2611.300</ele>
        <time>2019-07-14T21:53:41Z</time>
      </trkpt>
      <trkpt lat="35.891375000" lon="-106.489483160">
        <ele>2611.300</ele>
        <time>2019-07-14T21:53:42Z</time>
      </trkpt>
      <trkpt lat="35.891436790" lon="-106.489471380">
        <ele>2611.500</ele>
        <time>2019-07-14T21:53:43Z</time>
      </trkpt>
      <trkpt lat="35.891503050" lon="-106.489462310">
        <ele>2611.400</ele>
        <time>2019-07-14T21:53:44Z</time>
      </trkpt>
      <trkpt lat="35.891579340" lon="-106.489453380">
        <ele>2611.600</ele>
        <time>2019-07-14T21:53:45Z</time>
      </trkpt>
      <trkpt lat="35.891650650" lon="-106.489436810">
        <ele>2611.100</ele>
        <time>2019-07-14T21:53:46Z</time>
      </trkpt>
      <trkpt lat="35.891722110" lon="-106.489414140">
        <ele>2611.000</ele>
        <time>2019-07-14T21:53:47Z</time>
      </trkpt>
      <trkpt lat="35.891789990" lon="-106.489392750">
        <ele>2612.300</ele>
        <time>2019-07-14T21:53:48Z</time>
      </trkpt>
      <trkpt lat="35.891864250" lon="-106.489381780">
        <ele>2582.800</ele>
        <time>2019-07-14T21:53:49Z</time>
      </trkpt>
      <trkpt lat="35.891944750" lon="-106.489369160">
        <ele>2588.400</ele>
        <time>2019-07-14T21:53:50Z</time>
      </trkpt>
      <trkpt lat="35.892018140" lon="-106.489336830">
        <ele>2594.800</ele>
        <time>2019-07-14T21:53:51Z</time>
      </trkpt>
      <trkpt lat="35.892091240" lon="-106.489324780">
        <ele>2600.900</ele>
        <time>2019-07-14T21:53:52Z</time>
      </trkpt>
      <trkpt lat="35.892182950" lon="-106.489322820">
        <ele>2602.500</ele>
        <time>2019-07-14T21:53:53Z</time>
      </trkpt>
      <trkpt lat="35.892278070" lon="-106.489299240">
        <ele>2605.300</ele>
        <time>2019-07-14T21:53:54Z</time>
      </trkpt>
      <trkpt lat="35.892363030" lon="-106.489266300">
        <ele>2608.100</ele>
        <time>2019-07-14T21:53:55Z</time>
      </trkpt>
      <trkpt lat="35.892448470" lon="-106.489257020">
        <ele>2609.200</ele>
        <time>2019-07-14T21:53:56Z</time>
      </trkpt>
      <trkpt lat="35.892545020" lon="-106.489241770">
        <ele>2608.700</ele>
        <time>2019-07-14T21:53:57Z</time>
      </trkpt>
      <trkpt lat="35.892640150" lon="-106.489235790">
        <ele>2607.900</ele>
        <time>2019-07-14T21:53:58Z</time>
      </trkpt>
      <trkpt lat="35.892738300" lon="-106.489216040">
        <ele>2607.800</ele>
        <time>2019-07-14T21:53:59Z</time>
      </trkpt>
      <trkpt lat="35.892840370" lon="-106.489207670">
        <ele>2607.400</ele>
        <time>2019-07-14T21:54:00Z</time>
      </trkpt>
      <trkpt lat="35.892929960" lon="-106.489197460">
        <ele>2609.400</ele>
        <time>2019-07-14T21:54:01Z</time>
      </trkpt>
      <trkpt lat="35.893024790" lon="-106.489176480">
        <ele>2610.000</ele>
        <time>2019-07-14T21:54:02Z</time>
      </trkpt>
      <trkpt lat="35.893119340" lon="-106.489162220">
        <ele>2611.100</ele>
        <time>2019-07-14T21:54:03Z</time>
      </trkpt>
      <trkpt lat="35.893216250" lon="-106.489147970">
        <ele>2610.800</ele>
        <time>2019-07-14T21:54:04Z</time>
      </trkpt>
      <trkpt lat="35.893313710" lon="-106.489125640">
        <ele>2611.200</ele>
        <time>2019-07-14T21:54:05Z</time>
      </trkpt>
      <trkpt lat="35.893410430" lon="-106.489115760">
        <ele>2612.800</ele>
        <time>2019-07-14T21:54:06Z</time>
      </trkpt>
      <trkpt lat="35.893511060" lon="-106.489104740">
        <ele>2613.100</ele>
        <time>2019-07-14T21:54:07Z</time>
      </trkpt>
      <trkpt lat="35.893615730" lon="-106.489091820">
        <ele>2612.800</ele>
        <time>2019-07-14T21:54:08Z</time>
      </trkpt>
      <trkpt lat="35.893718990" lon="-106.489070970">
        <ele>2613.400</ele>
        <time>2019-07-14T21:54:09Z</time>
      </trkpt>
      <trkpt lat="35.893819560" lon="-106.489056690">
        <ele>2613.900</ele>
        <time>2019-07-14T21:54:10Z</time>
      </trkpt>
      <trkpt lat="35.893922310" lon="-106.489042540">
        <ele>2614.100</ele>
        <time>2019-07-14T21:54:11Z</time>
      </trkpt>
      <trkpt lat="35.894022300" lon="-106.489034180">
        <ele>2613.300</ele>
        <time>2019-07-14T21:54:12Z</time>
      </trkpt>
      <trkpt lat="35.894121500" lon="-106.489024120">
        <ele>2613.700</ele>
        <time>2019-07-14T21:54:13Z</time>
      </trkpt>
      <trkpt lat="35.894210010" lon="-106.489012840">
        <ele>2614.200</ele>
        <time>2019-07-14T21:54:14Z</time>
      </trkpt>
      <trkpt lat="35.894299320" lon="-106.489001750">
        <ele>2613.800</ele>
        <time>2019-07-14T21:54:15Z</time>
      </trkpt>
      <trkpt lat="35.894373850" lon="-106.488983210">
        <ele>2614.100</ele>
        <time>2019-07-14T21:54:16Z</time>
      </trkpt>
      <trkpt lat="35.894415190" lon="-106.488959740">
        <ele>2615.100</ele>
        <time>2019-07-14T21:54:17Z</time>
      </trkpt>
      <trkpt lat="35.894455850" lon="-106.488947810">
        <ele>2616.100</ele>
        <time>2019-07-14T21:54:18Z</time>
      </trkpt>
      <trkpt lat="35.894497590" lon="-106.488940430">
        <ele>2614.800</ele>
        <time>2019-07-14T21:54:19Z</time>
      </trkpt>
      <trkpt lat="35.894534850" lon="-106.488910990">
        <ele>2617.600</ele>
        <time>2019-07-14T21:54:22Z</time>
      </trkpt>
      <trkpt lat="35.894561160" lon="-106.488879110">
        <ele>2618.200</ele>
        <time>2019-07-14T21:54:27Z</time>
      </trkpt>
      <trkpt lat="35.894624680" lon="-106.488877870">
        <ele>2616.300</ele>
        <time>2019-07-14T21:54:35Z</time>
      </trkpt>
      <trkpt lat="35.894664820" lon="-106.488861180">
        <ele>2615.400</ele>
        <time>2019-07-14T21:54:36Z</time>
      </trkpt>
      <trkpt lat="35.894707360" lon="-106.488843710">
        <ele>2615.500</ele>
        <time>2019-07-14T21:54:37Z</time>
      </trkpt>
      <trkpt lat="35.894746740" lon="-106.488827490">
        <ele>2614.300</ele>
        <time>2019-07-14T21:54:38Z</time>
      </trkpt>
      <trkpt lat="35.894782970" lon="-106.488811700">
        <ele>2614.700</ele>
        <time>2019-07-14T21:54:39Z</time>
      </trkpt>
      <trkpt lat="35.894818280" lon="-106.488796080">
        <ele>2615.800</ele>
        <time>2019-07-14T21:54:40Z</time>
      </trkpt>
      <trkpt lat="35.894882140" lon="-106.488766550">
        <ele>2615.600</ele>
        <time>2019-07-14T21:54:42Z</time>
      </trkpt>
      <trkpt lat="35.894938750" lon="-106.488737240">
        <ele>2617.100</ele>
        <time>2019-07-14T21:54:44Z</time>
      </trkpt>
      <trkpt lat="35.894996310" lon="-106.488703120">
        <ele>2615.200</ele>
        <time>2019-07-14T21:54:46Z</time>
      </trkpt>
      <trkpt lat="35.895062460" lon="-106.488663400">
        <ele>2614.500</ele>
        <time>2019-07-14T21:54:48Z</time>
      </trkpt>
      <trkpt lat="35.895099980" lon="-106.488640700">
        <ele>2614.400</ele>
        <time>2019-07-14T21:54:49Z</time>
      </trkpt>
      <trkpt lat="35.895139720" lon="-106.488617840">
        <ele>2614.400</ele>
        <time>2019-07-14T21:54:50Z</time>
      </trkpt>
      <trkpt lat="35.895180540" lon="-106.488594160">
        <ele>2613.500</ele>
        <time>2019-07-14T21:54:51Z</time>
      </trkpt>
      <trkpt lat="35.895223680" lon="-106.488554720">
        <ele>2613.000</ele>
        <time>2019-07-14T21:54:52Z</time>
      </trkpt>
      <trkpt lat="35.895281480" lon="-106.488535810">
        <ele>2614.200</ele>
        <time>2019-07-14T21:54:53Z</time>
      </trkpt>
      <trkpt lat="35.895319340" lon="-106.488497650">
        <ele>2614.000</ele>
        <time>2019-07-14T21:54:54Z</time>
      </trkpt>
      <trkpt lat="35.895370120" lon="-106.488472710">
        <ele>2614.500</ele>
        <time>2019-07-14T21:54:55Z</time>
      </trkpt>
      <trkpt lat="35.895409590" lon="-106.488429590">
        <ele>2615.000</ele>
        <time>2019-07-14T21:54:56Z</time>
      </trkpt>
      <trkpt lat="35.895456470" lon="-106.488398800">
        <ele>2615.000</ele>
        <time>2019-07-14T21:54:57Z</time>
      </trkpt>
      <trkpt lat="35.895509630" lon="-106.488370980">
        <ele>2614.800</ele>
        <time>2019-07-14T21:54:58Z</time>
      </trkpt>
      <trkpt lat="35.895564230" lon="-106.488342200">
        <ele>2614.200</ele>
        <time>2019-07-14T21:54:59Z</time>
      </trkpt>
      <trkpt lat="35.895612900" lon="-106.488302950">
        <ele>2614.600</ele>
        <time>2019-07-14T21:55:00Z</time>
      </trkpt>
      <trkpt lat="35.895691540" lon="-106.488266890">
        <ele>2615.100</ele>
        <time>2019-07-14T21:55:01Z</time>
      </trkpt>
      <trkpt lat="35.895761350" lon="-106.488241030">
        <ele>2615.500</ele>
        <time>2019-07-14T21:55:02Z</time>
      </trkpt>
      <trkpt lat="35.895829420" lon="-106.488205640">
        <ele>2615.600</ele>
        <time>2019-07-14T21:55:03Z</time>
      </trkpt>
      <trkpt lat="35.895887530" lon="-106.488167220">
        <ele>2615.700</ele>
        <time>2019-07-14T21:55:04Z</time>
      </trkpt>
      <trkpt lat="35.895936850" lon="-106.488126270">
        <ele>2615.600</ele>
        <time>2019-07-14T21:55:05Z</time>
      </trkpt>
      <trkpt lat="35.896034770" lon="-106.488109230">
        <ele>2615.300</ele>
        <time>2019-07-14T21:55:06Z</time>
      </trkpt>
      <trkpt lat="35.896096150" lon="-106.488063980">
        <ele>2615.000</ele>
        <time>2019-07-14T21:55:07Z</time>
      </trkpt>
      <trkpt lat="35.896216940" lon="-106.488055110">
        <ele>2612.600</ele>
        <time>2019-07-14T21:55:08Z</time>
      </trkpt>
      <trkpt lat="35.896277040" lon="-106.487990650">
        <ele>2612.400</ele>
        <time>2019-07-14T21:55:09Z</time>
      </trkpt>
      <trkpt lat="35.896344910" lon="-106.487945620">
        <ele>2611.900</ele>
        <time>2019-07-14T21:55:10Z</time>
      </trkpt>
      <trkpt lat="35.896393740" lon="-106.487887100">
        <ele>2611.500</ele>
        <time>2019-07-14T21:55:11Z</time>
      </trkpt>
      <trkpt lat="35.896427080" lon="-106.487823010">
        <ele>2613.700</ele>
        <time>2019-07-14T21:55:12Z</time>
      </trkpt>
      <trkpt lat="35.896513190" lon="-106.487770760">
        <ele>2614.400</ele>
        <time>2019-07-14T21:55:13Z</time>
      </trkpt>
      <trkpt lat="35.896583680" lon="-106.487719250">
        <ele>2613.900</ele>
        <time>2019-07-14T21:55:14Z</time>
      </trkpt>
      <trkpt lat="35.896668090" lon="-106.487664980">
        <ele>2614.100</ele>
        <time>2019-07-14T21:55:15Z</time>
      </trkpt>
      <trkpt lat="35.896746050" lon="-106.487603560">
        <ele>2615.800</ele>
        <time>2019-07-14T21:55:16Z</time>
      </trkpt>
      <trkpt lat="35.896841300" lon="-106.487563370">
        <ele>2615.100</ele>
        <time>2019-07-14T21:55:17Z</time>
      </trkpt>
      <trkpt lat="35.896910970" lon="-106.487498790">
        <ele>2615.600</ele>
        <time>2019-07-14T21:55:18Z</time>
      </trkpt>
      <trkpt lat="35.896988430" lon="-106.487458680">
        <ele>2615.000</ele>
        <time>2019-07-14T21:55:19Z</time>
      </trkpt>
      <trkpt lat="35.897108670" lon="-106.487456030">
        <ele>2612.200</ele>
        <time>2019-07-14T21:55:20Z</time>
      </trkpt>
      <trkpt lat="35.897199600" lon="-106.487418930">
        <ele>2613.000</ele>
        <time>2019-07-14T21:55:21Z</time>
      </trkpt>
      <trkpt lat="35.897282250" lon="-106.487376040">
        <ele>2613.000</ele>
        <time>2019-07-14T21:55:22Z</time>
      </trkpt>
      <trkpt lat="35.897358920" lon="-106.487367520">
        <ele>2613.600</ele>
        <time>2019-07-14T21:55:23Z</time>
      </trkpt>
      <trkpt lat="35.897435940" lon="-106.487329870">
        <ele>2614.300</ele>
        <time>2019-07-14T21:55:24Z</time>
      </trkpt>
      <trkpt lat="35.897499660" lon="-106.487299680">
        <ele>2615.200</ele>
        <time>2019-07-14T21:55:25Z</time>
      </trkpt>
      <trkpt lat="35.897574510" lon="-106.487260080">
        <ele>2615.400</ele>
        <time>2019-07-14T21:55:26Z</time>
      </trkpt>
      <trkpt lat="35.897645130" lon="-106.487230800">
        <ele>2615.600</ele>
        <time>2019-07-14T21:55:27Z</time>
      </trkpt>
      <trkpt lat="35.897711430" lon="-106.487213140">
        <ele>2616.100</ele>
        <time>2019-07-14T21:55:28Z</time>
      </trkpt>
      <trkpt lat="35.897759160" lon="-106.487176120">
        <ele>2615.500</ele>
        <time>2019-07-14T21:55:29Z</time>
      </trkpt>
      <trkpt lat="35.897802020" lon="-106.487141540">
        <ele>2617.200</ele>
        <time>2019-07-14T21:55:30Z</time>
      </trkpt>
      <trkpt lat="35.897852470" lon="-106.487095230">
        <ele>2617.200</ele>
        <time>2019-07-14T21:55:31Z</time>
      </trkpt>
      <trkpt lat="35.897912900" lon="-106.487057470">
        <ele>2617.800</ele>
        <time>2019-07-14T21:55:32Z</time>
      </trkpt>
      <trkpt lat="35.897963190" lon="-106.487015250">
        <ele>2617.600</ele>
        <time>2019-07-14T21:55:33Z</time>
      </trkpt>
      <trkpt lat="35.898042100" lon="-106.486975450">
        <ele>2614.400</ele>
        <time>2019-07-14T21:55:34Z</time>
      </trkpt>
      <trkpt lat="35.898114040" lon="-106.486933720">
        <ele>2615.100</ele>
        <time>2019-07-14T21:55:35Z</time>
      </trkpt>
      <trkpt lat="35.898180050" lon="-106.486877160">
        <ele>2615.800</ele>
        <time>2019-07-14T21:55:36Z</time>
      </trkpt>
      <trkpt lat="35.898248450" lon="-106.486822730">
        <ele>2615.700</ele>
        <time>2019-07-14T21:55:37Z</time>
      </trkpt>
      <trkpt lat="35.898301110" lon="-106.486756440">
        <ele>2616.500</ele>
        <time>2019-07-14T21:55:38Z</time>
      </trkpt>
      <trkpt lat="35.898370120" lon="-106.486708640">
        <ele>2615.700</ele>
        <time>2019-07-14T21:55:39Z</time>
      </trkpt>
      <trkpt lat="35.898441180" lon="-106.486666400">
        <ele>2617.100</ele>
        <time>2019-07-14T21:55:40Z</time>
      </trkpt>
      <trkpt lat="35.898521620" lon="-106.486612850">
        <ele>2618.200</ele>
        <time>2019-07-14T21:55:41Z</time>
      </trkpt>
      <trkpt lat="35.898610960" lon="-106.486599490">
        <ele>2617.600</ele>
        <time>2019-07-14T21:55:42Z</time>
      </trkpt>
      <trkpt lat="35.898656050" lon="-106.486555260">
        <ele>2618.100</ele>
        <time>2019-07-14T21:55:43Z</time>
      </trkpt>
      <trkpt lat="35.898709400" lon="-106.486517790">
        <ele>2621.200</ele>
        <time>2019-07-14T21:55:44Z</time>
      </trkpt>
      <trkpt lat="35.898780580" lon="-106.486485370">
        <ele>2621.700</ele>
        <time>2019-07-14T21:55:45Z</time>
      </trkpt>
      <trkpt lat="35.898852220" lon="-106.486493090">
        <ele>2620.000</ele>
        <time>2019-07-14T21:55:46Z</time>
      </trkpt>
      <trkpt lat="35.898936950" lon="-106.486483660">
        <ele>2618.600</ele>
        <time>2019-07-14T21:55:47Z</time>
      </trkpt>
      <trkpt lat="35.899029620" lon="-106.486485000">
        <ele>2618.400</ele>
        <time>2019-07-14T21:55:48Z</time>
      </trkpt>
      <trkpt lat="35.899123080" lon="-106.486477970">
        <ele>2619.900</ele>
        <time>2019-07-14T21:55:49Z</time>
      </trkpt>
      <trkpt lat="35.899207110" lon="-106.486460620">
        <ele>2619.800</ele>
        <time>2019-07-14T21:55:50Z</time>
      </trkpt>
      <trkpt lat="35.899300980" lon="-106.486456300">
        <ele>2620.800</ele>
        <time>2019-07-14T21:55:51Z</time>
      </trkpt>
      <trkpt lat="35.899393600" lon="-106.486442570">
        <ele>2621.500</ele>
        <time>2019-07-14T21:55:52Z</time>
      </trkpt>
      <trkpt lat="35.899478470" lon="-106.486440060">
        <ele>2621.300</ele>
        <time>2019-07-14T21:55:53Z</time>
      </trkpt>
      <trkpt lat="35.899546040" lon="-106.486418170">
        <ele>2623.800</ele>
        <time>2019-07-14T21:55:54Z</time>
      </trkpt>
      <trkpt lat="35.899626320" lon="-106.486403420">
        <ele>2624.100</ele>
        <time>2019-07-14T21:55:55Z</time>
      </trkpt>
      <trkpt lat="35.899721160" lon="-106.486400700">
        <ele>2623.100</ele>
        <time>2019-07-14T21:55:56Z</time>
      </trkpt>
      <trkpt lat="35.899807880" lon="-106.486395300">
        <ele>2622.600</ele>
        <time>2019-07-14T21:55:57Z</time>
      </trkpt>
      <trkpt lat="35.899900900" lon="-106.486411920">
        <ele>2621.100</ele>
        <time>2019-07-14T21:55:58Z</time>
      </trkpt>
      <trkpt lat="35.899981740" lon="-106.486388240">
        <ele>2622.800</ele>
        <time>2019-07-14T21:55:59Z</time>
      </trkpt>
      <trkpt lat="35.900067180" lon="-106.486382670">
        <ele>2621.900</ele>
        <time>2019-07-14T21:56:00Z</time>
      </trkpt>
      <trkpt lat="35.900158600" lon="-106.486362790">
        <ele>2622.000</ele>
        <time>2019-07-14T21:56:01Z</time>
      </trkpt>
      <trkpt lat="35.900221380" lon="-106.486340090">
        <ele>2622.600</ele>
        <time>2019-07-14T21:56:02Z</time>
      </trkpt>
      <trkpt lat="35.900294780" lon="-106.486312870">
        <ele>2622.100</ele>
        <time>2019-07-14T21:56:03Z</time>
      </trkpt>
      <trkpt lat="35.900392090" lon="-106.486297030">
        <ele>2618.600</ele>
        <time>2019-07-14T21:56:04Z</time>
      </trkpt>
      <trkpt lat="35.900453580" lon="-106.486259530">
        <ele>2617.600</ele>
        <time>2019-07-14T21:56:05Z</time>
      </trkpt>
      <trkpt lat="35.900528720" lon="-106.486241730">
        <ele>2617.100</ele>
        <time>2019-07-14T21:56:06Z</time>
      </trkpt>
      <trkpt lat="35.900611730" lon="-106.486218300">
        <ele>2617.100</ele>
        <time>2019-07-14T21:56:07Z</time>
      </trkpt>
      <trkpt lat="35.900692610" lon="-106.486197230">
        <ele>2616.900</ele>
        <time>2019-07-14T21:56:08Z</time>
      </trkpt>
      <trkpt lat="35.900784490" lon="-106.486184180">
        <ele>2616.900</ele>
        <time>2019-07-14T21:56:09Z</time>
      </trkpt>
      <trkpt lat="35.900861070" lon="-106.486178830">
        <ele>2617.600</ele>
        <time>2019-07-14T21:56:10Z</time>
      </trkpt>
      <trkpt lat="35.900934930" lon="-106.486159790">
        <ele>2617.400</ele>
        <time>2019-07-14T21:56:11Z</time>
      </trkpt>
      <trkpt lat="35.901000190" lon="-106.486164700">
        <ele>2616.100</ele>
        <time>2019-07-14T21:56:12Z</time>
      </trkpt>
      <trkpt lat="35.901071500" lon="-106.486137090">
        <ele>2617.000</ele>
        <time>2019-07-14T21:56:14Z</time>
      </trkpt>
      <trkpt lat="35.901112240" lon="-106.486123320">
        <ele>2615.300</ele>
        <time>2019-07-14T21:56:15Z</time>
      </trkpt>
      <trkpt lat="35.901152150" lon="-106.486102310">
        <ele>2615.000</ele>
        <time>2019-07-14T21:56:16Z</time>
      </trkpt>
      <trkpt lat="35.901193560" lon="-106.486062220">
        <ele>2614.700</ele>
        <time>2019-07-14T21:56:17Z</time>
      </trkpt>
      <trkpt lat="35.901237060" lon="-106.486031210">
        <ele>2615.400</ele>
        <time>2019-07-14T21:56:18Z</time>
      </trkpt>
      <trkpt lat="35.901283490" lon="-106.485983780">
        <ele>2616.000</ele>
        <time>2019-07-14T21:56:19Z</time>
      </trkpt>
      <trkpt lat="35.901310630" lon="-106.485933910">
        <ele>2615.700</ele>
        <time>2019-07-14T21:56:20Z</time>
      </trkpt>
      <trkpt lat="35.901366350" lon="-106.485899500">
        <ele>2615.300</ele>
        <time>2019-07-14T21:56:21Z</time>
      </trkpt>
      <trkpt lat="35.901392900" lon="-106.485848670">
        <ele>2615.200</ele>
        <time>2019-07-14T21:56:22Z</time>
      </trkpt>
      <trkpt lat="35.901435170" lon="-106.485806950">
        <ele>2615.500</ele>
        <time>2019-07-14T21:56:23Z</time>
      </trkpt>
      <trkpt lat="35.901466940" lon="-106.485755660">
        <ele>2614.700</ele>
        <time>2019-07-14T21:56:24Z</time>
      </trkpt>
      <trkpt lat="35.901502570" lon="-106.485708770">
        <ele>2613.900</ele>
        <time>2019-07-14T21:56:25Z</time>
      </trkpt>
      <trkpt lat="35.901541480" lon="-106.485660210">
        <ele>2614.100</ele>
        <time>2019-07-14T21:56:26Z</time>
      </trkpt>
      <trkpt lat="35.901585790" lon="-106.485615020">
        <ele>2612.500</ele>
        <time>2019-07-14T21:56:27Z</time>
      </trkpt>
      <trkpt lat="35.901623440" lon="-106.485553550">
        <ele>2613.500</ele>
        <time>2019-07-14T21:56:28Z</time>
      </trkpt>
      <trkpt lat="35.901663910" lon="-106.485496180">
        <ele>2612.600</ele>
        <time>2019-07-14T21:56:29Z</time>
      </trkpt>
      <trkpt lat="35.901695250" lon="-106.485436590">
        <ele>2612.400</ele>
        <time>2019-07-14T21:56:30Z</time>
      </trkpt>
      <trkpt lat="35.901753250" lon="-106.485384190">
        <ele>2612.800</ele>
        <time>2019-07-14T21:56:31Z</time>
      </trkpt>
      <trkpt lat="35.901742990" lon="-106.485310000">
        <ele>2610.000</ele>
        <time>2019-07-14T21:56:32Z</time>
      </trkpt>
      <trkpt lat="35.901746490" lon="-106.485243850">
        <ele>2611.800</ele>
        <time>2019-07-14T21:56:33Z</time>
      </trkpt>
      <trkpt lat="35.901799240" lon="-106.485174000">
        <ele>2611.700</ele>
        <time>2019-07-14T21:56:34Z</time>
      </trkpt>
      <trkpt lat="35.901851640" lon="-106.485117330">
        <ele>2612.700</ele>
        <time>2019-07-14T21:56:35Z</time>
      </trkpt>
      <trkpt lat="35.901894490" lon="-106.485069250">
        <ele>2613.100</ele>
        <time>2019-07-14T21:56:36Z</time>
      </trkpt>
      <trkpt lat="35.901963610" lon="-106.485026920">
        <ele>2613.400</ele>
        <time>2019-07-14T21:56:37Z</time>
      </trkpt>
      <trkpt lat="35.902022480" lon="-106.484985210">
        <ele>2615.100</ele>
        <time>2019-07-14T21:56:38Z</time>
      </trkpt>
      <trkpt lat="35.902095510" lon="-106.484953510">
        <ele>2615.400</ele>
        <time>2019-07-14T21:56:39Z</time>
      </trkpt>
      <trkpt lat="35.902168980" lon="-106.484929880">
        <ele>2616.000</ele>
        <time>2019-07-14T21:56:40Z</time>
      </trkpt>
      <trkpt lat="35.902241580" lon="-106.484911590">
        <ele>2616.000</ele>
        <time>2019-07-14T21:56:41Z</time>
      </trkpt>
      <trkpt lat="35.902317890" lon="-106.484891740">
        <ele>2616.500</ele>
        <time>2019-07-14T21:56:42Z</time>
      </trkpt>
      <trkpt lat="35.902405530" lon="-106.484873470">
        <ele>2617.100</ele>
        <time>2019-07-14T21:56:43Z</time>
      </trkpt>
      <trkpt lat="35.902485830" lon="-106.484873760">
        <ele>2618.700</ele>
        <time>2019-07-14T21:56:44Z</time>
      </trkpt>
      <trkpt lat="35.902568210" lon="-106.484859910">
        <ele>2618.500</ele>
        <time>2019-07-14T21:56:45Z</time>
      </trkpt>
      <trkpt lat="35.902650480" lon="-106.484850920">
        <ele>2618.200</ele>
        <time>2019-07-14T21:56:46Z</time>
      </trkpt>
      <trkpt lat="35.902732990" lon="-106.484844760">
        <ele>2618.000</ele>
        <time>2019-07-14T21:56:47Z</time>
      </trkpt>
      <trkpt lat="35.902805520" lon="-106.484817160">
        <ele>2618.700</ele>
        <time>2019-07-14T21:56:48Z</time>
      </trkpt>
      <trkpt lat="35.902889010" lon="-106.484802680">
        <ele>2618.600</ele>
        <time>2019-07-14T21:56:49Z</time>
      </trkpt>
      <trkpt lat="35.902978030" lon="-106.484768690">
        <ele>2618.200</ele>
        <time>2019-07-14T21:56:50Z</time>
      </trkpt>
      <trkpt lat="35.903069190" lon="-106.484741610">
        <ele>2618.400</ele>
        <time>2019-07-14T21:56:51Z</time>
      </trkpt>
      <trkpt lat="35.903151200" lon="-106.484728490">
        <ele>2618.300</ele>
        <time>2019-07-14T21:56:52Z</time>
      </trkpt>
      <trkpt lat="35.903245780" lon="-106.484712910">
        <ele>2619.000</ele>
        <time>2019-07-14T21:56:53Z</time>
      </trkpt>
      <trkpt lat="35.903336580" lon="-106.484711170">
        <ele>2618.900</ele>
        <time>2019-07-14T21:56:54Z</time>
      </trkpt>
      <trkpt lat="35.903423470" lon="-106.484708510">
        <ele>2617.600</ele>
        <time>2019-07-14T21:56:55Z</time>
      </trkpt>
      <trkpt lat="35.903500400" lon="-106.484695920">
        <ele>2617.400</ele>
        <time>2019-07-14T21:56:56Z</time>
      </trkpt>
      <trkpt lat="35.903592140" lon="-106.484677190">
        <ele>2618.400</ele>
        <time>2019-07-14T21:56:57Z</time>
      </trkpt>
      <trkpt lat="35.903682290" lon="-106.484665150">
        <ele>2618.500</ele>
        <time>2019-07-14T21:56:58Z</time>
      </trkpt>
      <trkpt lat="35.903764100" lon="-106.484635070">
        <ele>2619.500</ele>
        <time>2019-07-14T21:56:59Z</time>
      </trkpt>
      <trkpt lat="35.903832110" lon="-106.484609200">
        <ele>2619.500</ele>
        <time>2019-07-14T21:57:00Z</time>
      </trkpt>
      <trkpt lat="35.903914750" lon="-106.484594070">
        <ele>2619.900</ele>
        <time>2019-07-14T21:57:01Z</time>
      </trkpt>
      <trkpt lat="35.903987170" lon="-106.484572900">
        <ele>2620.200</ele>
        <time>2019-07-14T21:57:02Z</time>
      </trkpt>
      <trkpt lat="35.904048200" lon="-106.484557670">
        <ele>2619.900</ele>
        <time>2019-07-14T21:57:03Z</time>
      </trkpt>
      <trkpt lat="35.904112320" lon="-106.484561410">
        <ele>2620.200</ele>
        <time>2019-07-14T21:57:04Z</time>
      </trkpt>
      <trkpt lat="35.904162220" lon="-106.484543690">
        <ele>2621.700</ele>
        <time>2019-07-14T21:57:05Z</time>
      </trkpt>
      <trkpt lat="35.904219560" lon="-106.484534880">
        <ele>2622.000</ele>
        <time>2019-07-14T21:57:06Z</time>
      </trkpt>
      <trkpt lat="35.904262790" lon="-106.484532730">
        <ele>2621.800</ele>
        <time>2019-07-14T21:57:07Z</time>
      </trkpt>
      <trkpt lat="35.904313040" lon="-106.484526350">
        <ele>2622.000</ele>
        <time>2019-07-14T21:57:08Z</time>
      </trkpt>
      <trkpt lat="35.904351850" lon="-106.484517380">
        <ele>2622.400</ele>
        <time>2019-07-14T21:57:09Z</time>
      </trkpt>
      <trkpt lat="35.904398130" lon="-106.484544570">
        <ele>2621.200</ele>
        <time>2019-07-14T21:57:10Z</time>
      </trkpt>
      <trkpt lat="35.904447240" lon="-106.484536180">
        <ele>2621.300</ele>
        <time>2019-07-14T21:57:11Z</time>
      </trkpt>
      <trkpt lat="35.904489620" lon="-106.484517890">
        <ele>2621.300</ele>
        <time>2019-07-14T21:57:12Z</time>
      </trkpt>
      <trkpt lat="35.904529470" lon="-106.484497560">
        <ele>2621.500</ele>
        <time>2019-07-14T21:57:13Z</time>
      </trkpt>
      <trkpt lat="35.904582900" lon="-106.484496770">
        <ele>2620.100</ele>
        <time>2019-07-14T21:57:14Z</time>
      </trkpt>
      <trkpt lat="35.904636040" lon="-106.484492050">
        <ele>2620.200</ele>
        <time>2019-07-14T21:57:15Z</time>
      </trkpt>
      <trkpt lat="35.904688720" lon="-106.484479760">
        <ele>2621.000</ele>
        <time>2019-07-14T21:57:16Z</time>
      </trkpt>
      <trkpt lat="35.904740910" lon="-106.484471190">
        <ele>2621.200</ele>
        <time>2019-07-14T21:57:17Z</time>
      </trkpt>
      <trkpt lat="35.904798930" lon="-106.484482980">
        <ele>2621.800</ele>
        <time>2019-07-14T21:57:18Z</time>
      </trkpt>
      <trkpt lat="35.904852540" lon="-106.484495310">
        <ele>2622.800</ele>
        <time>2019-07-14T21:57:19Z</time>
      </trkpt>
      <trkpt lat="35.904928950" lon="-106.484543050">
        <ele>2619.600</ele>
        <time>2019-07-14T21:57:20Z</time>
      </trkpt>
      <trkpt lat="35.904979250" lon="-106.484556530">
        <ele>2620.000</ele>
        <time>2019-07-14T21:57:21Z</time>
      </trkpt>
      <trkpt lat="35.905055660" lon="-106.484580610">
        <ele>2621.500</ele>
        <time>2019-07-14T21:57:23Z</time>
      </trkpt>
      <trkpt lat="35.905092960" lon="-106.484586870">
        <ele>2621.400</ele>
        <time>2019-07-14T21:57:24Z</time>
      </trkpt>
      <trkpt lat="35.905128460" lon="-106.484603850">
        <ele>2621.800</ele>
        <time>2019-07-14T21:57:26Z</time>
      </trkpt>
      <trkpt lat="35.905158720" lon="-106.484631190">
        <ele>2628.100</ele>
        <time>2019-07-14T21:57:35Z</time>
      </trkpt>
      <trkpt lat="35.905192660" lon="-106.484651640">
        <ele>2628.000</ele>
        <time>2019-07-14T21:57:36Z</time>
      </trkpt>
      <trkpt lat="35.905268090" lon="-106.484665260">
        <ele>2626.300</ele>
        <time>2019-07-14T21:57:38Z</time>
      </trkpt>
      <trkpt lat="35.905309500" lon="-106.484680400">
        <ele>2627.000</ele>
        <time>2019-07-14T21:57:39Z</time>
      </trkpt>
      <trkpt lat="35.905350700" lon="-106.484690500">
        <ele>2626.900</ele>
        <time>2019-07-14T21:57:40Z</time>
      </trkpt>
      <trkpt lat="35.905399620" lon="-106.484689910">
        <ele>2626.700</ele>
        <time>2019-07-14T21:57:41Z</time>
      </trkpt>
      <trkpt lat="35.905439550" lon="-106.484714710">
        <ele>2626.300</ele>
        <time>2019-07-14T21:57:42Z</time>
      </trkpt>
      <trkpt lat="35.905484520" lon="-106.484727250">
        <ele>2626.600</ele>
        <time>2019-07-14T21:57:43Z</time>
      </trkpt>
      <trkpt lat="35.905540680" lon="-106.484743550">
        <ele>2625.800</ele>
        <time>2019-07-14T21:57:44Z</time>
      </trkpt>
      <trkpt lat="35.905590910" lon="-106.484751170">
        <ele>2625.400</ele>
        <time>2019-07-14T21:57:45Z</time>
      </trkpt>
      <trkpt lat="35.905645370" lon="-106.484765140">
        <ele>2625.100</ele>
        <time>2019-07-14T21:57:46Z</time>
      </trkpt>
      <trkpt lat="35.905693570" lon="-106.484788540">
        <ele>2624.900</ele>
        <time>2019-07-14T21:57:47Z</time>
      </trkpt>
      <trkpt lat="35.905760280" lon="-106.484808220">
        <ele>2623.700</ele>
        <time>2019-07-14T21:57:48Z</time>
      </trkpt>
      <trkpt lat="35.905810500" lon="-106.484820100">
        <ele>2622.900</ele>
        <time>2019-07-14T21:57:49Z</time>
      </trkpt>
      <trkpt lat="35.905854730" lon="-106.484843190">
        <ele>2622.200</ele>
        <time>2019-07-14T21:57:50Z</time>
      </trkpt>
      <trkpt lat="35.905908710" lon="-106.484872430">
        <ele>2622.500</ele>
        <time>2019-07-14T21:57:51Z</time>
      </trkpt>
      <trkpt lat="35.905949580" lon="-106.484888840">
        <ele>2622.400</ele>
        <time>2019-07-14T21:57:52Z</time>
      </trkpt>
      <trkpt lat="35.906005930" lon="-106.484919890">
        <ele>2621.500</ele>
        <time>2019-07-14T21:57:53Z</time>
      </trkpt>
      <trkpt lat="35.906065190" lon="-106.484928730">
        <ele>2621.000</ele>
        <time>2019-07-14T21:57:54Z</time>
      </trkpt>
      <trkpt lat="35.906123260" lon="-106.484943090">
        <ele>2620.700</ele>
        <time>2019-07-14T21:57:55Z</time>
      </trkpt>
      <trkpt lat="35.906176800" lon="-106.484961080">
        <ele>2620.600</ele>
        <time>2019-07-14T21:57:56Z</time>
      </trkpt>
      <trkpt lat="35.906232010" lon="-106.484981990">
        <ele>2620.600</ele>
        <time>2019-07-14T21:57:57Z</time>
      </trkpt>
      <trkpt lat="35.906282350" lon="-106.484999390">
        <ele>2620.500</ele>
        <time>2019-07-14T21:57:58Z</time>
      </trkpt>
      <trkpt lat="35.906331370" lon="-106.485014680">
        <ele>2620.800</ele>
        <time>2019-07-14T21:57:59Z</time>
      </trkpt>
      <trkpt lat="35.906391240" lon="-106.485034130">
        <ele>2620.800</ele>
        <time>2019-07-14T21:58:00Z</time>
      </trkpt>
      <trkpt lat="35.906446930" lon="-106.485047940">
        <ele>2620.400</ele>
        <time>2019-07-14T21:58:01Z</time>
      </trkpt>
      <trkpt lat="35.906499350" lon="-106.485080340">
        <ele>2620.900</ele>
        <time>2019-07-14T21:58:02Z</time>
      </trkpt>
      <trkpt lat="35.906556810" lon="-106.485117300">
        <ele>2620.600</ele>
        <time>2019-07-14T21:58:03Z</time>
      </trkpt>
      <trkpt lat="35.906616510" lon="-106.485156090">
        <ele>2620.000</ele>
        <time>2019-07-14T21:58:04Z</time>
      </trkpt>
      <trkpt lat="35.906665950" lon="-106.485192940">
        <ele>2621.700</ele>
        <time>2019-07-14T21:58:05Z</time>
      </trkpt>
      <trkpt lat="35.906721440" lon="-106.485224340">
        <ele>2623.200</ele>
        <time>2019-07-14T21:58:06Z</time>
      </trkpt>
      <trkpt lat="35.906789160" lon="-106.485250490">
        <ele>2623.000</ele>
        <time>2019-07-14T21:58:07Z</time>
      </trkpt>
      <trkpt lat="35.906852000" lon="-106.485273340">
        <ele>2623.300</ele>
        <time>2019-07-14T21:58:08Z</time>
      </trkpt>
      <trkpt lat="35.906924950" lon="-106.485301960">
        <ele>2622.300</ele>
        <time>2019-07-14T21:58:09Z</time>
      </trkpt>
      <trkpt lat="35.906992920" lon="-106.485338570">
        <ele>2621.900</ele>
        <time>2019-07-14T21:58:10Z</time>
      </trkpt>
      <trkpt lat="35.907055320" lon="-106.485372930">
        <ele>2621.700</ele>
        <time>2019-07-14T21:58:11Z</time>
      </trkpt>
      <trkpt lat="35.907125160" lon="-106.485403870">
        <ele>2621.400</ele>
        <time>2019-07-14T21:58:12Z</time>
      </trkpt>
      <trkpt lat="35.907195410" lon="-106.485444270">
        <ele>2621.300</ele>
        <time>2019-07-14T21:58:13Z</time>
      </trkpt>
      <trkpt lat="35.907273300" lon="-106.485484950">
        <ele>2621.800</ele>
        <time>2019-07-14T21:58:14Z</time>
      </trkpt>
      <trkpt lat="35.907339890" lon="-106.485520310">
        <ele>2621.500</ele>
        <time>2019-07-14T21:58:15Z</time>
      </trkpt>
      <trkpt lat="35.907412630" lon="-106.485548220">
        <ele>2621.400</ele>
        <time>2019-07-14T21:58:16Z</time>
      </trkpt>
      <trkpt lat="35.907481220" lon="-106.485568150">
        <ele>2622.200</ele>
        <time>2019-07-14T21:58:17Z</time>
      </trkpt>
      <trkpt lat="35.907554060" lon="-106.485586380">
        <ele>2621.800</ele>
        <time>2019-07-14T21:58:18Z</time>
      </trkpt>
      <trkpt lat="35.907621500" lon="-106.485605660">
        <ele>2621.600</ele>
        <time>2019-07-14T21:58:19Z</time>
      </trkpt>
      <trkpt lat="35.907689070" lon="-106.485621690">
        <ele>2621.500</ele>
        <time>2019-07-14T21:58:20Z</time>
      </trkpt>
      <trkpt lat="35.907761530" lon="-106.485633840">
        <ele>2621.500</ele>
        <time>2019-07-14T21:58:21Z</time>
      </trkpt>
      <trkpt lat="35.907829640" lon="-106.485637920">
        <ele>2622.700</ele>
        <time>2019-07-14T21:58:22Z</time>
      </trkpt>
      <trkpt lat="35.907903310" lon="-106.485624910">
        <ele>2622.000</ele>
        <time>2019-07-14T21:58:23Z</time>
      </trkpt>
      <trkpt lat="35.907963760" lon="-106.485609060">
        <ele>2621.800</ele>
        <time>2019-07-14T21:58:24Z</time>
      </trkpt>
      <trkpt lat="35.908032230" lon="-106.485595550">
        <ele>2621.300</ele>
        <time>2019-07-14T21:58:25Z</time>
      </trkpt>
      <trkpt lat="35.908088490" lon="-106.485594530">
        <ele>2621.400</ele>
        <time>2019-07-14T21:58:26Z</time>
      </trkpt>
      <trkpt lat="35.908154100" lon="-106.485591390">
        <ele>2622.100</ele>
        <time>2019-07-14T21:58:27Z</time>
      </trkpt>
      <trkpt lat="35.908218060" lon="-106.485573360">
        <ele>2622.000</ele>
        <time>2019-07-14T21:58:28Z</time>
      </trkpt>
      <trkpt lat="35.908290270" lon="-106.485566180">
        <ele>2621.900</ele>
        <time>2019-07-14T21:58:29Z</time>
      </trkpt>
      <trkpt lat="35.908347140" lon="-106.485545650">
        <ele>2623.300</ele>
        <time>2019-07-14T21:58:30Z</time>
      </trkpt>
      <trkpt lat="35.908415080" lon="-106.485540100">
        <ele>2622.700</ele>
        <time>2019-07-14T21:58:31Z</time>
      </trkpt>
      <trkpt lat="35.908478100" lon="-106.485537940">
        <ele>2624.000</ele>
        <time>2019-07-14T21:58:32Z</time>
      </trkpt>
      <trkpt lat="35.908550520" lon="-106.485548100">
        <ele>2624.200</ele>
        <time>2019-07-14T21:58:33Z</time>
      </trkpt>
      <trkpt lat="35.908622820" lon="-106.485532180">
        <ele>2624.500</ele>
        <time>2019-07-14T21:58:34Z</time>
      </trkpt>
      <trkpt lat="35.908685640" lon="-106.485502100">
        <ele>2624.600</ele>
        <time>2019-07-14T21:58:35Z</time>
      </trkpt>
      <trkpt lat="35.908743100" lon="-106.485455100">
        <ele>2625.200</ele>
        <time>2019-07-14T21:58:36Z</time>
      </trkpt>
      <trkpt lat="35.908834370" lon="-106.485502340">
        <ele>2624.100</ele>
        <time>2019-07-14T21:58:37Z</time>
      </trkpt>
      <trkpt lat="35.908888810" lon="-106.485474180">
        <ele>2624.900</ele>
        <time>2019-07-14T21:58:38Z</time>
      </trkpt>
      <trkpt lat="35.908941470" lon="-106.485442070">
        <ele>2626.200</ele>
        <time>2019-07-14T21:58:39Z</time>
      </trkpt>
      <trkpt lat="35.909009060" lon="-106.485418400">
        <ele>2625.500</ele>
        <time>2019-07-14T21:58:40Z</time>
      </trkpt>
      <trkpt lat="35.909070540" lon="-106.485386270">
        <ele>2625.200</ele>
        <time>2019-07-14T21:58:41Z</time>
      </trkpt>
      <trkpt lat="35.909133060" lon="-106.485369690">
        <ele>2624.700</ele>
        <time>2019-07-14T21:58:42Z</time>
      </trkpt>
      <trkpt lat="35.909195290" lon="-106.485353720">
        <ele>2625.300</ele>
        <time>2019-07-14T21:58:43Z</time>
      </trkpt>
      <trkpt lat="35.909253130" lon="-106.485318160">
        <ele>2625.900</ele>
        <time>2019-07-14T21:58:44Z</time>
      </trkpt>
      <trkpt lat="35.909317700" lon="-106.485305780">
        <ele>2607.200</ele>
        <time>2019-07-14T21:58:45Z</time>
      </trkpt>
      <trkpt lat="35.909393290" lon="-106.485284470">
        <ele>2615.000</ele>
        <time>2019-07-14T21:58:46Z</time>
      </trkpt>
      <trkpt lat="35.909455950" lon="-106.485264940">
        <ele>2617.000</ele>
        <time>2019-07-14T21:58:47Z</time>
      </trkpt>
      <trkpt lat="35.909535930" lon="-106.485254890">
        <ele>2618.500</ele>
        <time>2019-07-14T21:58:48Z</time>
      </trkpt>
      <trkpt lat="35.909598190" lon="-106.485231780">
        <ele>2619.900</ele>
        <time>2019-07-14T21:58:49Z</time>
      </trkpt>
      <trkpt lat="35.909653180" lon="-106.485206460">
        <ele>2619.000</ele>
        <time>2019-07-14T21:58:50Z</time>
      </trkpt>
      <trkpt lat="35.909727160" lon="-106.485188700">
        <ele>2620.400</ele>
        <time>2019-07-14T21:58:51Z</time>
      </trkpt>
      <trkpt lat="35.909762020" lon="-106.485146410">
        <ele>2620.700</ele>
        <time>2019-07-14T21:58:53Z</time>
      </trkpt>
      <trkpt lat="35.909798050" lon="-106.485156070">
        <ele>2620.500</ele>
        <time>2019-07-14T21:58:54Z</time>
      </trkpt>
      <trkpt lat="35.909867850" lon="-106.485133000">
        <ele>2621.900</ele>
        <time>2019-07-14T21:58:56Z</time>
      </trkpt>
      <trkpt lat="35.909919810" lon="-106.485122800">
        <ele>2622.400</ele>
        <time>2019-07-14T21:58:57Z</time>
      </trkpt>
      <trkpt lat="35.909964460" lon="-106.485107480">
        <ele>2622.900</ele>
        <time>2019-07-14T21:58:58Z</time>
      </trkpt>
      <trkpt lat="35.910012500" lon="-106.485098900">
        <ele>2622.500</ele>
        <time>2019-07-14T21:58:59Z</time>
      </trkpt>
      <trkpt lat="35.910057170" lon="-106.485078570">
        <ele>2623.500</ele>
        <time>2019-07-14T21:59:00Z</time>
      </trkpt>
      <trkpt lat="35.910123660" lon="-106.485069410">
        <ele>2623.900</ele>
        <time>2019-07-14T21:59:01Z</time>
      </trkpt>
      <trkpt lat="35.910176140" lon="-106.485047310">
        <ele>2623.900</ele>
        <time>2019-07-14T21:59:02Z</time>
      </trkpt>
      <trkpt lat="35.910224750" lon="-106.485032660">
        <ele>2626.600</ele>
        <time>2019-07-14T21:59:03Z</time>
      </trkpt>
      <trkpt lat="35.910271370" lon="-106.485013010">
        <ele>2626.400</ele>
        <time>2019-07-14T21:59:04Z</time>
      </trkpt>
      <trkpt lat="35.910322950" lon="-106.485015960">
        <ele>2627.000</ele>
        <time>2019-07-14T21:59:05Z</time>
      </trkpt>
      <trkpt lat="35.910367800" lon="-106.485010660">
        <ele>2627.100</ele>
        <time>2019-07-14T21:59:06Z</time>
      </trkpt>
      <trkpt lat="35.910413300" lon="-106.485002530">
        <ele>2627.500</ele>
        <time>2019-07-14T21:59:07Z</time>
      </trkpt>
      <trkpt lat="35.910458820" lon="-106.485005370">
        <ele>2627.000</ele>
        <time>2019-07-14T21:59:08Z</time>
      </trkpt>
      <trkpt lat="35.910537640" lon="-106.484998180">
        <ele>2628.000</ele>
        <time>2019-07-14T21:59:10Z</time>
      </trkpt>
      <trkpt lat="35.910598050" lon="-106.484999500">
        <ele>2629.500</ele>
        <time>2019-07-14T21:59:11Z</time>
      </trkpt>
      <trkpt lat="35.910647560" lon="-106.484990550">
        <ele>2629.000</ele>
        <time>2019-07-14T21:59:12Z</time>
      </trkpt>
      <trkpt lat="35.910693790" lon="-106.484984930">
        <ele>2629.100</ele>
        <time>2019-07-14T21:59:13Z</time>
      </trkpt>
      <trkpt lat="35.910751340" lon="-106.484976200">
        <ele>2630.100</ele>
        <time>2019-07-14T21:59:14Z</time>
      </trkpt>
      <trkpt lat="35.910813360" lon="-106.484962680">
        <ele>2631.400</ele>
        <time>2019-07-14T21:59:15Z</time>
      </trkpt>
      <trkpt lat="35.910880220" lon="-106.484958610">
        <ele>2631.500</ele>
        <time>2019-07-14T21:59:16Z</time>
      </trkpt>
      <trkpt lat="35.910932620" lon="-106.484929910">
        <ele>2631.300</ele>
        <time>2019-07-14T21:59:17Z</time>
      </trkpt>
      <trkpt lat="35.910991820" lon="-106.484902850">
        <ele>2631.500</ele>
        <time>2019-07-14T21:59:18Z</time>
      </trkpt>
      <trkpt lat="35.911071650" lon="-106.484903640">
        <ele>2630.900</ele>
        <time>2019-07-14T21:59:19Z</time>
      </trkpt>
      <trkpt lat="35.911131120" lon="-106.484886690">
        <ele>2629.600</ele>
        <time>2019-07-14T21:59:20Z</time>
      </trkpt>
      <trkpt lat="35.911184910" lon="-106.484864730">
        <ele>2628.100</ele>
        <time>2019-07-14T21:59:21Z</time>
      </trkpt>
      <trkpt lat="35.911254910" lon="-106.484833150">
        <ele>2627.900</ele>
        <time>2019-07-14T21:59:22Z</time>
      </trkpt>
      <trkpt lat="35.911319550" lon="-106.484800900">
        <ele>2627.400</ele>
        <time>2019-07-14T21:59:23Z</time>
      </trkpt>
      <trkpt lat="35.911388810" lon="-106.484772210">
        <ele>2627.100</ele>
        <time>2019-07-14T21:59:24Z</time>
      </trkpt>
      <trkpt lat="35.911467790" lon="-106.484744730">
        <ele>2626.400</ele>
        <time>2019-07-14T21:59:25Z</time>
      </trkpt>
      <trkpt lat="35.911529000" lon="-106.484707790">
        <ele>2625.900</ele>
        <time>2019-07-14T21:59:26Z</time>
      </trkpt>
      <trkpt lat="35.911587720" lon="-106.484661670">
        <ele>2626.200</ele>
        <time>2019-07-14T21:59:27Z</time>
      </trkpt>
      <trkpt lat="35.911659330" lon="-106.484622380">
        <ele>2626.400</ele>
        <time>2019-07-14T21:59:28Z</time>
      </trkpt>
      <trkpt lat="35.911747750" lon="-106.484583120">
        <ele>2626.500</ele>
        <time>2019-07-14T21:59:29Z</time>
      </trkpt>
      <trkpt lat="35.911806870" lon="-106.484552670">
        <ele>2626.600</ele>
        <time>2019-07-14T21:59:30Z</time>
      </trkpt>
      <trkpt lat="35.911857640" lon="-106.484532490">
        <ele>2626.600</ele>
        <time>2019-07-14T21:59:31Z</time>
      </trkpt>
      <trkpt lat="35.911911490" lon="-106.484527200">
        <ele>2627.500</ele>
        <time>2019-07-14T21:59:32Z</time>
      </trkpt>
      <trkpt lat="35.912007730" lon="-106.484538130">
        <ele>2627.700</ele>
        <time>2019-07-14T21:59:34Z</time>
      </trkpt>
      <trkpt lat="35.912051380" lon="-106.484553680">
        <ele>2626.500</ele>
        <time>2019-07-14T21:59:35Z</time>
      </trkpt>
      <trkpt lat="35.912103580" lon="-106.484573980">
        <ele>2627.000</ele>
        <time>2019-07-14T21:59:36Z</time>
      </trkpt>
      <trkpt lat="35.912160280" lon="-106.484599880">
        <ele>2627.000</ele>
        <time>2019-07-14T21:59:37Z</time>
      </trkpt>
      <trkpt lat="35.912215820" lon="-106.484626370">
        <ele>2627.500</ele>
        <time>2019-07-14T21:59:38Z</time>
      </trkpt>
      <trkpt lat="35.912273800" lon="-106.484654150">
        <ele>2627.000</ele>
        <time>2019-07-14T21:59:39Z</time>
      </trkpt>
      <trkpt lat="35.912332530" lon="-106.484690220">
        <ele>2627.900</ele>
        <time>2019-07-14T21:59:40Z</time>
      </trkpt>
      <trkpt lat="35.912394860" lon="-106.484725980">
        <ele>2627.600</ele>
        <time>2019-07-14T21:59:41Z</time>
      </trkpt>
      <trkpt lat="35.912449530" lon="-106.484767240">
        <ele>2629.300</ele>
        <time>2019-07-14T21:59:42Z</time>
      </trkpt>
      <trkpt lat="35.912515600" lon="-106.484812240">
        <ele>2628.800</ele>
        <time>2019-07-14T21:59:43Z</time>
      </trkpt>
      <trkpt lat="35.912576560" lon="-106.484854130">
        <ele>2629.600</ele>
        <time>2019-07-14T21:59:44Z</time>
      </trkpt>
      <trkpt lat="35.912639370" lon="-106.484905580">
        <ele>2630.500</ele>
        <time>2019-07-14T21:59:45Z</time>
      </trkpt>
      <trkpt lat="35.912701650" lon="-106.484956510">
        <ele>2630.700</ele>
        <time>2019-07-14T21:59:46Z</time>
      </trkpt>
      <trkpt lat="35.912768250" lon="-106.485006910">
        <ele>2630.900</ele>
        <time>2019-07-14T21:59:47Z</time>
      </trkpt>
      <trkpt lat="35.912831720" lon="-106.485052130">
        <ele>2631.400</ele>
        <time>2019-07-14T21:59:48Z</time>
      </trkpt>
      <trkpt lat="35.912895310" lon="-106.485098960">
        <ele>2632.000</ele>
        <time>2019-07-14T21:59:49Z</time>
      </trkpt>
      <trkpt lat="35.912963100" lon="-106.485139310">
        <ele>2632.600</ele>
        <time>2019-07-14T21:59:50Z</time>
      </trkpt>
      <trkpt lat="35.913031630" lon="-106.485186170">
        <ele>2632.800</ele>
        <time>2019-07-14T21:59:51Z</time>
      </trkpt>
      <trkpt lat="35.913092860" lon="-106.485227160">
        <ele>2632.900</ele>
        <time>2019-07-14T21:59:52Z</time>
      </trkpt>
      <trkpt lat="35.913155920" lon="-106.485267570">
        <ele>2633.200</ele>
        <time>2019-07-14T21:59:53Z</time>
      </trkpt>
      <trkpt lat="35.913221850" lon="-106.485307500">
        <ele>2632.600</ele>
        <time>2019-07-14T21:59:54Z</time>
      </trkpt>
      <trkpt lat="35.913280870" lon="-106.485357750">
        <ele>2632.700</ele>
        <time>2019-07-14T21:59:55Z</time>
      </trkpt>
      <trkpt lat="35.913333340" lon="-106.485412080">
        <ele>2632.700</ele>
        <time>2019-07-14T21:59:56Z</time>
      </trkpt>
      <trkpt lat="35.913384720" lon="-106.485473820">
        <ele>2632.800</ele>
        <time>2019-07-14T21:59:57Z</time>
      </trkpt>
      <trkpt lat="35.913422360" lon="-106.485550440">
        <ele>2632.800</ele>
        <time>2019-07-14T21:59:58Z</time>
      </trkpt>
      <trkpt lat="35.913460610" lon="-106.485626100">
        <ele>2632.600</ele>
        <time>2019-07-14T21:59:59Z</time>
      </trkpt>
      <trkpt lat="35.913489350" lon="-106.485707240">
        <ele>2632.100</ele>
        <time>2019-07-14T22:00:00Z</time>
      </trkpt>
      <trkpt lat="35.913509410" lon="-106.485780780">
        <ele>2631.800</ele>
        <time>2019-07-14T22:00:01Z</time>
      </trkpt>
      <trkpt lat="35.913522180" lon="-106.485870930">
        <ele>2634.000</ele>
        <time>2019-07-14T22:00:02Z</time>
      </trkpt>
      <trkpt lat="35.913534390" lon="-106.485953440">
        <ele>2634.000</ele>
        <time>2019-07-14T22:00:03Z</time>
      </trkpt>
      <trkpt lat="35.913543610" lon="-106.486034500">
        <ele>2633.700</ele>
        <time>2019-07-14T22:00:04Z</time>
      </trkpt>
      <trkpt lat="35.913554610" lon="-106.486129960">
        <ele>2632.200</ele>
        <time>2019-07-14T22:00:05Z</time>
      </trkpt>
      <trkpt lat="35.913551780" lon="-106.486207090">
        <ele>2633.500</ele>
        <time>2019-07-14T22:00:06Z</time>
      </trkpt>
      <trkpt lat="35.913553990" lon="-106.486289530">
        <ele>2633.100</ele>
        <time>2019-07-14T22:00:07Z</time>
      </trkpt>
      <trkpt lat="35.913550170" lon="-106.486367310">
        <ele>2633.700</ele>
        <time>2019-07-14T22:00:08Z</time>
      </trkpt>
      <trkpt lat="35.913557030" lon="-106.486446970">
        <ele>2633.400</ele>
        <time>2019-07-14T22:00:09Z</time>
      </trkpt>
      <trkpt lat="35.913558230" lon="-106.486514190">
        <ele>2634.000</ele>
        <time>2019-07-14T22:00:10Z</time>
      </trkpt>
      <trkpt lat="35.913562730" lon="-106.486572190">
        <ele>2633.700</ele>
        <time>2019-07-14T22:00:11Z</time>
      </trkpt>
      <trkpt lat="35.913579970" lon="-106.486636120">
        <ele>2633.800</ele>
        <time>2019-07-14T22:00:13Z</time>
      </trkpt>
      <trkpt lat="35.913585750" lon="-106.486685340">
        <ele>2635.600</ele>
        <time>2019-07-14T22:00:45Z</time>
      </trkpt>
      <trkpt lat="35.913599950" lon="-106.486750620">
        <ele>2637.300</ele>
        <time>2019-07-14T22:00:47Z</time>
      </trkpt>
      <trkpt lat="35.913620860" lon="-106.486832590">
        <ele>2637.800</ele>
        <time>2019-07-14T22:00:49Z</time>
      </trkpt>
      <trkpt lat="35.913633260" lon="-106.486882660">
        <ele>2638.800</ele>
        <time>2019-07-14T22:00:50Z</time>
      </trkpt>
      <trkpt lat="35.913648470" lon="-106.486939540">
        <ele>2639.400</ele>
        <time>2019-07-14T22:00:51Z</time>
      </trkpt>
      <trkpt lat="35.913667930" lon="-106.487000070">
        <ele>2638.700</ele>
        <time>2019-07-14T22:00:52Z</time>
      </trkpt>
      <trkpt lat="35.913685210" lon="-106.487054070">
        <ele>2638.700</ele>
        <time>2019-07-14T22:00:53Z</time>
      </trkpt>
      <trkpt lat="35.913703200" lon="-106.487102590">
        <ele>2638.700</ele>
        <time>2019-07-14T22:00:54Z</time>
      </trkpt>
      <trkpt lat="35.913708690" lon="-106.487166520">
        <ele>2638.700</ele>
        <time>2019-07-14T22:00:55Z</time>
      </trkpt>
      <trkpt lat="35.913713280" lon="-106.487226960">
        <ele>2638.900</ele>
        <time>2019-07-14T22:00:56Z</time>
      </trkpt>
      <trkpt lat="35.913715850" lon="-106.487294140">
        <ele>2637.800</ele>
        <time>2019-07-14T22:00:57Z</time>
      </trkpt>
      <trkpt lat="35.913713710" lon="-106.487358220">
        <ele>2638.100</ele>
        <time>2019-07-14T22:00:58Z</time>
      </trkpt>
      <trkpt lat="35.913708350" lon="-106.487435850">
        <ele>2637.200</ele>
        <time>2019-07-14T22:00:59Z</time>
      </trkpt>
      <trkpt lat="35.913719400" lon="-106.487523190">
        <ele>2635.300</ele>
        <time>2019-07-14T22:01:00Z</time>
      </trkpt>
      <trkpt lat="35.913709960" lon="-106.487588990">
        <ele>2636.500</ele>
        <time>2019-07-14T22:01:01Z</time>
      </trkpt>
      <trkpt lat="35.913703280" lon="-106.487666010">
        <ele>2636.800</ele>
        <time>2019-07-14T22:01:02Z</time>
      </trkpt>
      <trkpt lat="35.913698900" lon="-106.487740500">
        <ele>2636.500</ele>
        <time>2019-07-14T22:01:03Z</time>
      </trkpt>
      <trkpt lat="35.913684530" lon="-106.487818580">
        <ele>2637.300</ele>
        <time>2019-07-14T22:01:04Z</time>
      </trkpt>
      <trkpt lat="35.913685510" lon="-106.487902030">
        <ele>2636.700</ele>
        <time>2019-07-14T22:01:05Z</time>
      </trkpt>
      <trkpt lat="35.913679360" lon="-106.487992470">
        <ele>2635.500</ele>
        <time>2019-07-14T22:01:06Z</time>
      </trkpt>
      <trkpt lat="35.913689960" lon="-106.488089310">
        <ele>2635.100</ele>
        <time>2019-07-14T22:01:07Z</time>
      </trkpt>
      <trkpt lat="35.913699740" lon="-106.488199730">
        <ele>2632.000</ele>
        <time>2019-07-14T22:01:08Z</time>
      </trkpt>
      <trkpt lat="35.913695260" lon="-106.488270370">
        <ele>2633.300</ele>
        <time>2019-07-14T22:01:09Z</time>
      </trkpt>
      <trkpt lat="35.913694920" lon="-106.488355990">
        <ele>2633.500</ele>
        <time>2019-07-14T22:01:10Z</time>
      </trkpt>
      <trkpt lat="35.913703120" lon="-106.488444890">
        <ele>2633.300</ele>
        <time>2019-07-14T22:01:11Z</time>
      </trkpt>
      <trkpt lat="35.913709390" lon="-106.488539830">
        <ele>2633.100</ele>
        <time>2019-07-14T22:01:12Z</time>
      </trkpt>
      <trkpt lat="35.913709940" lon="-106.488627410">
        <ele>2633.600</ele>
        <time>2019-07-14T22:01:13Z</time>
      </trkpt>
      <trkpt lat="35.913718140" lon="-106.488715210">
        <ele>2633.800</ele>
        <time>2019-07-14T22:01:14Z</time>
      </trkpt>
      <trkpt lat="35.913720870" lon="-106.488799670">
        <ele>2634.000</ele>
        <time>2019-07-14T22:01:15Z</time>
      </trkpt>
      <trkpt lat="35.913725350" lon="-106.488879090">
        <ele>2633.900</ele>
        <time>2019-07-14T22:01:16Z</time>
      </trkpt>
      <trkpt lat="35.913734910" lon="-106.488966400">
        <ele>2633.100</ele>
        <time>2019-07-14T22:01:17Z</time>
      </trkpt>
      <trkpt lat="35.913744360" lon="-106.489047250">
        <ele>2634.300</ele>
        <time>2019-07-14T22:01:18Z</time>
      </trkpt>
      <trkpt lat="35.913747210" lon="-106.489130260">
        <ele>2634.600</ele>
        <time>2019-07-14T22:01:19Z</time>
      </trkpt>
      <trkpt lat="35.913748530" lon="-106.489216090">
        <ele>2634.700</ele>
        <time>2019-07-14T22:01:20Z</time>
      </trkpt>
      <trkpt lat="35.913750620" lon="-106.489304290">
        <ele>2634.300</ele>
        <time>2019-07-14T22:01:21Z</time>
      </trkpt>
      <trkpt lat="35.913753860" lon="-106.489405210">
        <ele>2634.100</ele>
        <time>2019-07-14T22:01:22Z</time>
      </trkpt>
      <trkpt lat="35.913755910" lon="-106.489492330">
        <ele>2635.000</ele>
        <time>2019-07-14T22:01:23Z</time>
      </trkpt>
      <trkpt lat="35.913751700" lon="-106.489585080">
        <ele>2634.200</ele>
        <time>2019-07-14T22:01:24Z</time>
      </trkpt>
      <trkpt lat="35.913757300" lon="-106.489674980">
        <ele>2633.800</ele>
        <time>2019-07-14T22:01:25Z</time>
      </trkpt>
      <trkpt lat="35.913768060" lon="-106.489761560">
        <ele>2634.000</ele>
        <time>2019-07-14T22:01:26Z</time>
      </trkpt>
      <trkpt lat="35.913779360" lon="-106.489849270">
        <ele>2634.000</ele>
        <time>2019-07-14T22:01:27Z</time>
      </trkpt>
      <trkpt lat="35.913793790" lon="-106.489938970">
        <ele>2634.400</ele>
        <time>2019-07-14T22:01:28Z</time>
      </trkpt>
      <trkpt lat="35.913806960" lon="-106.490035240">
        <ele>2634.600</ele>
        <time>2019-07-14T22:01:29Z</time>
      </trkpt>
      <trkpt lat="35.913824310" lon="-106.490132040">
        <ele>2634.100</ele>
        <time>2019-07-14T22:01:30Z</time>
      </trkpt>
      <trkpt lat="35.913835350" lon="-106.490234910">
        <ele>2634.000</ele>
        <time>2019-07-14T22:01:31Z</time>
      </trkpt>
      <trkpt lat="35.913853120" lon="-106.490331070">
        <ele>2633.700</ele>
        <time>2019-07-14T22:01:32Z</time>
      </trkpt>
      <trkpt lat="35.913873080" lon="-106.490428310">
        <ele>2634.200</ele>
        <time>2019-07-14T22:01:33Z</time>
      </trkpt>
      <trkpt lat="35.913889640" lon="-106.490525610">
        <ele>2634.300</ele>
        <time>2019-07-14T22:01:34Z</time>
      </trkpt>
      <trkpt lat="35.913915770" lon="-106.490626750">
        <ele>2633.900</ele>
        <time>2019-07-14T22:01:35Z</time>
      </trkpt>
      <trkpt lat="35.913940290" lon="-106.490720570">
        <ele>2634.000</ele>
        <time>2019-07-14T22:01:36Z</time>
      </trkpt>
      <trkpt lat="35.913963130" lon="-106.490809710">
        <ele>2634.500</ele>
        <time>2019-07-14T22:01:37Z</time>
      </trkpt>
      <trkpt lat="35.913988140" lon="-106.490895980">
        <ele>2633.900</ele>
        <time>2019-07-14T22:01:38Z</time>
      </trkpt>
      <trkpt lat="35.914016110" lon="-106.490981700">
        <ele>2634.000</ele>
        <time>2019-07-14T22:01:39Z</time>
      </trkpt>
      <trkpt lat="35.914047490" lon="-106.491070900">
        <ele>2633.500</ele>
        <time>2019-07-14T22:01:40Z</time>
      </trkpt>
      <trkpt lat="35.914078390" lon="-106.491159260">
        <ele>2633.600</ele>
        <time>2019-07-14T22:01:41Z</time>
      </trkpt>
      <trkpt lat="35.914115840" lon="-106.491251790">
        <ele>2632.400</ele>
        <time>2019-07-14T22:01:42Z</time>
      </trkpt>
      <trkpt lat="35.914149820" lon="-106.491336590">
        <ele>2632.500</ele>
        <time>2019-07-14T22:01:43Z</time>
      </trkpt>
      <trkpt lat="35.914184920" lon="-106.491439560">
        <ele>2632.500</ele>
        <time>2019-07-14T22:01:44Z</time>
      </trkpt>
      <trkpt lat="35.914217800" lon="-106.491533900">
        <ele>2633.100</ele>
        <time>2019-07-14T22:01:45Z</time>
      </trkpt>
      <trkpt lat="35.914253620" lon="-106.491623050">
        <ele>2632.800</ele>
        <time>2019-07-14T22:01:46Z</time>
      </trkpt>
      <trkpt lat="35.914293690" lon="-106.491711440">
        <ele>2633.500</ele>
        <time>2019-07-14T22:01:47Z</time>
      </trkpt>
      <trkpt lat="35.914326190" lon="-106.491804110">
        <ele>2632.800</ele>
        <time>2019-07-14T22:01:48Z</time>
      </trkpt>
      <trkpt lat="35.914368070" lon="-106.491888210">
        <ele>2632.500</ele>
        <time>2019-07-14T22:01:49Z</time>
      </trkpt>
      <trkpt lat="35.914410910" lon="-106.491974340">
        <ele>2632.700</ele>
        <time>2019-07-14T22:01:50Z</time>
      </trkpt>
      <trkpt lat="35.914436640" lon="-106.492063910">
        <ele>2633.100</ele>
        <time>2019-07-14T22:01:51Z</time>
      </trkpt>
      <trkpt lat="35.914485550" lon="-106.492143380">
        <ele>2633.000</ele>
        <time>2019-07-14T22:01:52Z</time>
      </trkpt>
      <trkpt lat="35.914529990" lon="-106.492224090">
        <ele>2633.300</ele>
        <time>2019-07-14T22:01:53Z</time>
      </trkpt>
      <trkpt lat="35.914575710" lon="-106.492296170">
        <ele>2633.200</ele>
        <time>2019-07-14T22:01:54Z</time>
      </trkpt>
      <trkpt lat="35.914615330" lon="-106.492367870">
        <ele>2632.700</ele>
        <time>2019-07-14T22:01:55Z</time>
      </trkpt>
      <trkpt lat="35.914661420" lon="-106.492450100">
        <ele>2631.500</ele>
        <time>2019-07-14T22:01:56Z</time>
      </trkpt>
      <trkpt lat="35.914699540" lon="-106.492532300">
        <ele>2631.100</ele>
        <time>2019-07-14T22:01:57Z</time>
      </trkpt>
      <trkpt lat="35.914739790" lon="-106.492616420">
        <ele>2633.300</ele>
        <time>2019-07-14T22:01:58Z</time>
      </trkpt>
      <trkpt lat="35.914783410" lon="-106.492699890">
        <ele>2633.400</ele>
        <time>2019-07-14T22:01:59Z</time>
      </trkpt>
      <trkpt lat="35.914817300" lon="-106.492777770">
        <ele>2634.300</ele>
        <time>2019-07-14T22:02:00Z</time>
      </trkpt>
      <trkpt lat="35.914856010" lon="-106.492858760">
        <ele>2634.200</ele>
        <time>2019-07-14T22:02:01Z</time>
      </trkpt>
      <trkpt lat="35.914898830" lon="-106.492945360">
        <ele>2634.600</ele>
        <time>2019-07-14T22:02:02Z</time>
      </trkpt>
      <trkpt lat="35.914936280" lon="-106.493032370">
        <ele>2634.300</ele>
        <time>2019-07-14T22:02:03Z</time>
      </trkpt>
      <trkpt lat="35.914978560" lon="-106.493117000">
        <ele>2634.600</ele>
        <time>2019-07-14T22:02:04Z</time>
      </trkpt>
      <trkpt lat="35.915018790" lon="-106.493200020">
        <ele>2635.300</ele>
        <time>2019-07-14T22:02:05Z</time>
      </trkpt>
      <trkpt lat="35.915069950" lon="-106.493279080">
        <ele>2634.100</ele>
        <time>2019-07-14T22:02:06Z</time>
      </trkpt>
      <trkpt lat="35.915111050" lon="-106.493363360">
        <ele>2634.100</ele>
        <time>2019-07-14T22:02:07Z</time>
      </trkpt>
      <trkpt lat="35.915155710" lon="-106.493442850">
        <ele>2634.100</ele>
        <time>2019-07-14T22:02:08Z</time>
      </trkpt>
      <trkpt lat="35.915189180" lon="-106.493524620">
        <ele>2634.900</ele>
        <time>2019-07-14T22:02:09Z</time>
      </trkpt>
      <trkpt lat="35.915216030" lon="-106.493602110">
        <ele>2635.400</ele>
        <time>2019-07-14T22:02:10Z</time>
      </trkpt>
      <trkpt lat="35.915243310" lon="-106.493677510">
        <ele>2636.100</ele>
        <time>2019-07-14T22:02:11Z</time>
      </trkpt>
      <trkpt lat="35.915264440" lon="-106.493759350">
        <ele>2635.900</ele>
        <time>2019-07-14T22:02:12Z</time>
      </trkpt>
      <trkpt lat="35.915279970" lon="-106.493829400">
        <ele>2635.300</ele>
        <time>2019-07-14T22:02:13Z</time>
      </trkpt>
      <trkpt lat="35.915287030" lon="-106.493901340">
        <ele>2635.800</ele>
        <time>2019-07-14T22:02:14Z</time>
      </trkpt>
      <trkpt lat="35.915294230" lon="-106.493967290">
        <ele>2635.800</ele>
        <time>2019-07-14T22:02:15Z</time>
      </trkpt>
      <trkpt lat="35.915288290" lon="-106.494047040">
        <ele>2635.600</ele>
        <time>2019-07-14T22:02:16Z</time>
      </trkpt>
      <trkpt lat="35.915278610" lon="-106.494132780">
        <ele>2636.300</ele>
        <time>2019-07-14T22:02:17Z</time>
      </trkpt>
      <trkpt lat="35.915253560" lon="-106.494215960">
        <ele>2636.700</ele>
        <time>2019-07-14T22:02:18Z</time>
      </trkpt>
      <trkpt lat="35.915235910" lon="-106.494305950">
        <ele>2636.100</ele>
        <time>2019-07-14T22:02:19Z</time>
      </trkpt>
      <trkpt lat="35.915211610" lon="-106.494392170">
        <ele>2636.100</ele>
        <time>2019-07-14T22:02:20Z</time>
      </trkpt>
      <trkpt lat="35.915190070" lon="-106.494483620">
        <ele>2635.500</ele>
        <time>2019-07-14T22:02:21Z</time>
      </trkpt>
      <trkpt lat="35.915191780" lon="-106.494573510">
        <ele>2635.300</ele>
        <time>2019-07-14T22:02:22Z</time>
      </trkpt>
      <trkpt lat="35.915204280" lon="-106.494657180">
        <ele>2634.300</ele>
        <time>2019-07-14T22:02:23Z</time>
      </trkpt>
      <trkpt lat="35.915223990" lon="-106.494750050">
        <ele>2634.700</ele>
        <time>2019-07-14T22:02:24Z</time>
      </trkpt>
      <trkpt lat="35.915245140" lon="-106.494848380">
        <ele>2634.800</ele>
        <time>2019-07-14T22:02:25Z</time>
      </trkpt>
      <trkpt lat="35.915263350" lon="-106.494948570">
        <ele>2635.500</ele>
        <time>2019-07-14T22:02:26Z</time>
      </trkpt>
      <trkpt lat="35.915294990" lon="-106.495039210">
        <ele>2636.100</ele>
        <time>2019-07-14T22:02:27Z</time>
      </trkpt>
      <trkpt lat="35.915323530" lon="-106.495120260">
        <ele>2637.000</ele>
        <time>2019-07-14T22:02:28Z</time>
      </trkpt>
      <trkpt lat="35.915367440" lon="-106.495201680">
        <ele>2636.600</ele>
        <time>2019-07-14T22:02:29Z</time>
      </trkpt>
      <trkpt lat="35.915405090" lon="-106.495279120">
        <ele>2637.100</ele>
        <time>2019-07-14T22:02:30Z</time>
      </trkpt>
      <trkpt lat="35.915437680" lon="-106.495348720">
        <ele>2637.600</ele>
        <time>2019-07-14T22:02:31Z</time>
      </trkpt>
      <trkpt lat="35.915470470" lon="-106.495413120">
        <ele>2637.700</ele>
        <time>2019-07-14T22:02:32Z</time>
      </trkpt>
      <trkpt lat="35.915500070" lon="-106.495478990">
        <ele>2638.100</ele>
        <time>2019-07-14T22:02:33Z</time>
      </trkpt>
      <trkpt lat="35.915545130" lon="-106.495552830">
        <ele>2638.400</ele>
        <time>2019-07-14T22:02:34Z</time>
      </trkpt>
      <trkpt lat="35.915578470" lon="-106.495625920">
        <ele>2637.800</ele>
        <time>2019-07-14T22:02:35Z</time>
      </trkpt>
      <trkpt lat="35.915622810" lon="-106.495694620">
        <ele>2636.900</ele>
        <time>2019-07-14T22:02:36Z</time>
      </trkpt>
      <trkpt lat="35.915675250" lon="-106.495768810">
        <ele>2636.600</ele>
        <time>2019-07-14T22:02:37Z</time>
      </trkpt>
      <trkpt lat="35.915716000" lon="-106.495843310">
        <ele>2637.000</ele>
        <time>2019-07-14T22:02:38Z</time>
      </trkpt>
      <trkpt lat="35.915762630" lon="-106.495915020">
        <ele>2637.700</ele>
        <time>2019-07-14T22:02:39Z</time>
      </trkpt>
      <trkpt lat="35.915798900" lon="-106.495994370">
        <ele>2638.000</ele>
        <time>2019-07-14T22:02:40Z</time>
      </trkpt>
      <trkpt lat="35.915844030" lon="-106.496074640">
        <ele>2639.200</ele>
        <time>2019-07-14T22:02:41Z</time>
      </trkpt>
      <trkpt lat="35.915892000" lon="-106.496151410">
        <ele>2639.300</ele>
        <time>2019-07-14T22:02:42Z</time>
      </trkpt>
      <trkpt lat="35.915940340" lon="-106.496239370">
        <ele>2641.100</ele>
        <time>2019-07-14T22:02:43Z</time>
      </trkpt>
      <trkpt lat="35.915980330" lon="-106.496315320">
        <ele>2643.000</ele>
        <time>2019-07-14T22:02:44Z</time>
      </trkpt>
      <trkpt lat="35.916033580" lon="-106.496390140">
        <ele>2644.300</ele>
        <time>2019-07-14T22:02:45Z</time>
      </trkpt>
      <trkpt lat="35.916075450" lon="-106.496458320">
        <ele>2645.100</ele>
        <time>2019-07-14T22:02:46Z</time>
      </trkpt>
      <trkpt lat="35.916126630" lon="-106.496519820">
        <ele>2645.700</ele>
        <time>2019-07-14T22:02:47Z</time>
      </trkpt>
      <trkpt lat="35.916181900" lon="-106.496586570">
        <ele>2645.600</ele>
        <time>2019-07-14T22:02:48Z</time>
      </trkpt>
      <trkpt lat="35.916237940" lon="-106.496647380">
        <ele>2646.600</ele>
        <time>2019-07-14T22:02:49Z</time>
      </trkpt>
      <trkpt lat="35.916294240" lon="-106.496714120">
        <ele>2646.600</ele>
        <time>2019-07-14T22:02:50Z</time>
      </trkpt>
      <trkpt lat="35.916349910" lon="-106.496774480">
        <ele>2646.400</ele>
        <time>2019-07-14T22:02:51Z</time>
      </trkpt>
      <trkpt lat="35.916408910" lon="-106.496831800">
        <ele>2646.800</ele>
        <time>2019-07-14T22:02:52Z</time>
      </trkpt>
      <trkpt lat="35.916475140" lon="-106.496884380">
        <ele>2646.700</ele>
        <time>2019-07-14T22:02:53Z</time>
      </trkpt>
      <trkpt lat="35.916535000" lon="-106.496936590">
        <ele>2647.900</ele>
        <time>2019-07-14T22:02:54Z</time>
      </trkpt>
      <trkpt lat="35.916605700" lon="-106.496985220">
        <ele>2647.900</ele>
        <time>2019-07-14T22:02:55Z</time>
      </trkpt>
      <trkpt lat="35.916673860" lon="-106.497026860">
        <ele>2648.300</ele>
        <time>2019-07-14T22:02:56Z</time>
      </trkpt>
      <trkpt lat="35.916740830" lon="-106.497062810">
        <ele>2648.800</ele>
        <time>2019-07-14T22:02:57Z</time>
      </trkpt>
      <trkpt lat="35.916807460" lon="-106.497101330">
        <ele>2648.600</ele>
        <time>2019-07-14T22:02:58Z</time>
      </trkpt>
      <trkpt lat="35.916875990" lon="-106.497140560">
        <ele>2649.200</ele>
        <time>2019-07-14T22:02:59Z</time>
      </trkpt>
      <trkpt lat="35.916948780" lon="-106.497169910">
        <ele>2649.900</ele>
        <time>2019-07-14T22:03:00Z</time>
      </trkpt>
      <trkpt lat="35.917019090" lon="-106.497193050">
        <ele>2650.400</ele>
        <time>2019-07-14T22:03:01Z</time>
      </trkpt>
      <trkpt lat="35.917095320" lon="-106.497222070">
        <ele>2648.800</ele>
        <time>2019-07-14T22:03:02Z</time>
      </trkpt>
      <trkpt lat="35.917168650" lon="-106.497237220">
        <ele>2648.600</ele>
        <time>2019-07-14T22:03:03Z</time>
      </trkpt>
      <trkpt lat="35.917240930" lon="-106.497254770">
        <ele>2649.500</ele>
        <time>2019-07-14T22:03:04Z</time>
      </trkpt>
      <trkpt lat="35.917311520" lon="-106.497280500">
        <ele>2650.100</ele>
        <time>2019-07-14T22:03:05Z</time>
      </trkpt>
      <trkpt lat="35.917386970" lon="-106.497303870">
        <ele>2649.900</ele>
        <time>2019-07-14T22:03:06Z</time>
      </trkpt>
      <trkpt lat="35.917459380" lon="-106.497330740">
        <ele>2650.400</ele>
        <time>2019-07-14T22:03:07Z</time>
      </trkpt>
      <trkpt lat="35.917534720" lon="-106.497350810">
        <ele>2651.000</ele>
        <time>2019-07-14T22:03:08Z</time>
      </trkpt>
      <trkpt lat="35.917608590" lon="-106.497389400">
        <ele>2651.300</ele>
        <time>2019-07-14T22:03:09Z</time>
      </trkpt>
      <trkpt lat="35.917683830" lon="-106.497429860">
        <ele>2652.300</ele>
        <time>2019-07-14T22:03:10Z</time>
      </trkpt>
      <trkpt lat="35.917759110" lon="-106.497476380">
        <ele>2652.100</ele>
        <time>2019-07-14T22:03:11Z</time>
      </trkpt>
      <trkpt lat="35.917824170" lon="-106.497521540">
        <ele>2654.200</ele>
        <time>2019-07-14T22:03:12Z</time>
      </trkpt>
      <trkpt lat="35.917891280" lon="-106.497572890">
        <ele>2654.000</ele>
        <time>2019-07-14T22:03:13Z</time>
      </trkpt>
      <trkpt lat="35.917969400" lon="-106.497625120">
        <ele>2653.400</ele>
        <time>2019-07-14T22:03:14Z</time>
      </trkpt>
      <trkpt lat="35.918039350" lon="-106.497677100">
        <ele>2653.700</ele>
        <time>2019-07-14T22:03:15Z</time>
      </trkpt>
      <trkpt lat="35.918099600" lon="-106.497731920">
        <ele>2654.000</ele>
        <time>2019-07-14T22:03:16Z</time>
      </trkpt>
      <trkpt lat="35.918166500" lon="-106.497784280">
        <ele>2654.200</ele>
        <time>2019-07-14T22:03:17Z</time>
      </trkpt>
      <trkpt lat="35.918237710" lon="-106.497836390">
        <ele>2655.100</ele>
        <time>2019-07-14T22:03:18Z</time>
      </trkpt>
      <trkpt lat="35.918309510" lon="-106.497888680">
        <ele>2655.700</ele>
        <time>2019-07-14T22:03:19Z</time>
      </trkpt>
      <trkpt lat="35.918379020" lon="-106.497946390">
        <ele>2655.900</ele>
        <time>2019-07-14T22:03:20Z</time>
      </trkpt>
      <trkpt lat="35.918443880" lon="-106.498012370">
        <ele>2657.200</ele>
        <time>2019-07-14T22:03:21Z</time>
      </trkpt>
      <trkpt lat="35.918519710" lon="-106.498070300">
        <ele>2656.500</ele>
        <time>2019-07-14T22:03:22Z</time>
      </trkpt>
      <trkpt lat="35.918592240" lon="-106.498135160">
        <ele>2655.700</ele>
        <time>2019-07-14T22:03:23Z</time>
      </trkpt>
      <trkpt lat="35.918666170" lon="-106.498192560">
        <ele>2655.300</ele>
        <time>2019-07-14T22:03:24Z</time>
      </trkpt>
      <trkpt lat="35.918740450" lon="-106.498244440">
        <ele>2655.300</ele>
        <time>2019-07-14T22:03:25Z</time>
      </trkpt>
      <trkpt lat="35.918811480" lon="-106.498292040">
        <ele>2655.200</ele>
        <time>2019-07-14T22:03:26Z</time>
      </trkpt>
      <trkpt lat="35.918876280" lon="-106.498345200">
        <ele>2655.500</ele>
        <time>2019-07-14T22:03:27Z</time>
      </trkpt>
      <trkpt lat="35.918947960" lon="-106.498402790">
        <ele>2655.700</ele>
        <time>2019-07-14T22:03:28Z</time>
      </trkpt>
      <trkpt lat="35.919013450" lon="-106.498458700">
        <ele>2656.000</ele>
        <time>2019-07-14T22:03:29Z</time>
      </trkpt>
      <trkpt lat="35.919083220" lon="-106.498516970">
        <ele>2655.700</ele>
        <time>2019-07-14T22:03:30Z</time>
      </trkpt>
      <trkpt lat="35.919152990" lon="-106.498568880">
        <ele>2655.200</ele>
        <time>2019-07-14T22:03:31Z</time>
      </trkpt>
      <trkpt lat="35.919217930" lon="-106.498623140">
        <ele>2655.300</ele>
        <time>2019-07-14T22:03:32Z</time>
      </trkpt>
      <trkpt lat="35.919284490" lon="-106.498679220">
        <ele>2655.300</ele>
        <time>2019-07-14T22:03:33Z</time>
      </trkpt>
      <trkpt lat="35.919351010" lon="-106.498715900">
        <ele>2656.500</ele>
        <time>2019-07-14T22:03:34Z</time>
      </trkpt>
      <trkpt lat="35.919402630" lon="-106.498758270">
        <ele>2656.700</ele>
        <time>2019-07-14T22:03:35Z</time>
      </trkpt>
      <trkpt lat="35.919462860" lon="-106.498805630">
        <ele>2656.500</ele>
        <time>2019-07-14T22:03:36Z</time>
      </trkpt>
      <trkpt lat="35.919512600" lon="-106.498838850">
        <ele>2657.200</ele>
        <time>2019-07-14T22:03:37Z</time>
      </trkpt>
      <trkpt lat="35.919565430" lon="-106.498872910">
        <ele>2658.000</ele>
        <time>2019-07-14T22:03:38Z</time>
      </trkpt>
      <trkpt lat="35.919622800" lon="-106.498923510">
        <ele>2658.000</ele>
        <time>2019-07-14T22:03:39Z</time>
      </trkpt>
      <trkpt lat="35.919676750" lon="-106.498956430">
        <ele>2658.300</ele>
        <time>2019-07-14T22:03:40Z</time>
      </trkpt>
      <trkpt lat="35.919733340" lon="-106.499005730">
        <ele>2660.300</ele>
        <time>2019-07-14T22:03:41Z</time>
      </trkpt>
      <trkpt lat="35.919789790" lon="-106.499052580">
        <ele>2660.400</ele>
        <time>2019-07-14T22:03:42Z</time>
      </trkpt>
      <trkpt lat="35.919845750" lon="-106.499116950">
        <ele>2660.300</ele>
        <time>2019-07-14T22:03:43Z</time>
      </trkpt>
      <trkpt lat="35.919902140" lon="-106.499149300">
        <ele>2661.100</ele>
        <time>2019-07-14T22:03:44Z</time>
      </trkpt>
      <trkpt lat="35.919955050" lon="-106.499192130">
        <ele>2661.700</ele>
        <time>2019-07-14T22:03:45Z</time>
      </trkpt>
      <trkpt lat="35.920014940" lon="-106.499237440">
        <ele>2661.600</ele>
        <time>2019-07-14T22:03:46Z</time>
      </trkpt>
      <trkpt lat="35.920062530" lon="-106.499266330">
        <ele>2662.100</ele>
        <time>2019-07-14T22:03:47Z</time>
      </trkpt>
      <trkpt lat="35.920109190" lon="-106.499331090">
        <ele>2661.600</ele>
        <time>2019-07-14T22:03:48Z</time>
      </trkpt>
      <trkpt lat="35.920156530" lon="-106.499377120">
        <ele>2661.800</ele>
        <time>2019-07-14T22:03:49Z</time>
      </trkpt>
      <trkpt lat="35.920204370" lon="-106.499423380">
        <ele>2660.400</ele>
        <time>2019-07-14T22:03:50Z</time>
      </trkpt>
      <trkpt lat="35.920248900" lon="-106.499496380">
        <ele>2659.700</ele>
        <time>2019-07-14T22:03:51Z</time>
      </trkpt>
      <trkpt lat="35.920288550" lon="-106.499554350">
        <ele>2659.800</ele>
        <time>2019-07-14T22:03:52Z</time>
      </trkpt>
      <trkpt lat="35.920336060" lon="-106.499619570">
        <ele>2659.500</ele>
        <time>2019-07-14T22:03:53Z</time>
      </trkpt>
      <trkpt lat="35.920383440" lon="-106.499677060">
        <ele>2660.000</ele>
        <time>2019-07-14T22:03:54Z</time>
      </trkpt>
      <trkpt lat="35.920428940" lon="-106.499730450">
        <ele>2661.300</ele>
        <time>2019-07-14T22:03:55Z</time>
      </trkpt>
      <trkpt lat="35.920478680" lon="-106.499793610">
        <ele>2662.000</ele>
        <time>2019-07-14T22:03:56Z</time>
      </trkpt>
      <trkpt lat="35.920533530" lon="-106.499860850">
        <ele>2661.400</ele>
        <time>2019-07-14T22:03:57Z</time>
      </trkpt>
      <trkpt lat="35.920585050" lon="-106.499912640">
        <ele>2662.800</ele>
        <time>2019-07-14T22:03:58Z</time>
      </trkpt>
      <trkpt lat="35.920637340" lon="-106.499981190">
        <ele>2663.900</ele>
        <time>2019-07-14T22:03:59Z</time>
      </trkpt>
      <trkpt lat="35.920694790" lon="-106.500047770">
        <ele>2663.900</ele>
        <time>2019-07-14T22:04:00Z</time>
      </trkpt>
      <trkpt lat="35.920751330" lon="-106.500108230">
        <ele>2664.100</ele>
        <time>2019-07-14T22:04:01Z</time>
      </trkpt>
      <trkpt lat="35.920803590" lon="-106.500172560">
        <ele>2663.800</ele>
        <time>2019-07-14T22:04:02Z</time>
      </trkpt>
      <trkpt lat="35.920855720" lon="-106.500250170">
        <ele>2662.800</ele>
        <time>2019-07-14T22:04:03Z</time>
      </trkpt>
      <trkpt lat="35.920904080" lon="-106.500325210">
        <ele>2662.900</ele>
        <time>2019-07-14T22:04:04Z</time>
      </trkpt>
      <trkpt lat="35.920956540" lon="-106.500387050">
        <ele>2663.000</ele>
        <time>2019-07-14T22:04:05Z</time>
      </trkpt>
      <trkpt lat="35.921006850" lon="-106.500457650">
        <ele>2663.400</ele>
        <time>2019-07-14T22:04:06Z</time>
      </trkpt>
      <trkpt lat="35.921059580" lon="-106.500520520">
        <ele>2663.200</ele>
        <time>2019-07-14T22:04:07Z</time>
      </trkpt>
      <trkpt lat="35.921109600" lon="-106.500584160">
        <ele>2663.900</ele>
        <time>2019-07-14T22:04:08Z</time>
      </trkpt>
      <trkpt lat="35.921160230" lon="-106.500648410">
        <ele>2663.900</ele>
        <time>2019-07-14T22:04:09Z</time>
      </trkpt>
      <trkpt lat="35.921205030" lon="-106.500708560">
        <ele>2664.300</ele>
        <time>2019-07-14T22:04:10Z</time>
      </trkpt>
      <trkpt lat="35.921251250" lon="-106.500770140">
        <ele>2664.500</ele>
        <time>2019-07-14T22:04:11Z</time>
      </trkpt>
      <trkpt lat="35.921294650" lon="-106.500826210">
        <ele>2665.800</ele>
        <time>2019-07-14T22:04:12Z</time>
      </trkpt>
      <trkpt lat="35.921344280" lon="-106.500882630">
        <ele>2665.800</ele>
        <time>2019-07-14T22:04:13Z</time>
      </trkpt>
      <trkpt lat="35.921393470" lon="-106.500947800">
        <ele>2664.400</ele>
        <time>2019-07-14T22:04:14Z</time>
      </trkpt>
      <trkpt lat="35.921436920" lon="-106.500991260">
        <ele>2665.400</ele>
        <time>2019-07-14T22:04:15Z</time>
      </trkpt>
      <trkpt lat="35.921478790" lon="-106.501036530">
        <ele>2665.800</ele>
        <time>2019-07-14T22:04:16Z</time>
      </trkpt>
      <trkpt lat="35.921522000" lon="-106.501076920">
        <ele>2664.900</ele>
        <time>2019-07-14T22:04:17Z</time>
      </trkpt>
      <trkpt lat="35.921552130" lon="-106.501109290">
        <ele>2666.000</ele>
        <time>2019-07-14T22:04:18Z</time>
      </trkpt>
      <trkpt lat="35.921601060" lon="-106.501165500">
        <ele>2666.700</ele>
        <time>2019-07-14T22:04:20Z</time>
      </trkpt>
      <trkpt lat="35.921657300" lon="-106.501219950">
        <ele>2667.200</ele>
        <time>2019-07-14T22:04:22Z</time>
      </trkpt>
      <trkpt lat="35.921694130" lon="-106.501251690">
        <ele>2666.500</ele>
        <time>2019-07-14T22:04:23Z</time>
      </trkpt>
      <trkpt lat="35.921731250" lon="-106.501284350">
        <ele>2667.000</ele>
        <time>2019-07-14T22:04:24Z</time>
      </trkpt>
      <trkpt lat="35.921788650" lon="-106.501304710">
        <ele>2666.900</ele>
        <time>2019-07-14T22:04:25Z</time>
      </trkpt>
      <trkpt lat="35.921838480" lon="-106.501340140">
        <ele>2667.400</ele>
        <time>2019-07-14T22:04:26Z</time>
      </trkpt>
      <trkpt lat="35.921893930" lon="-106.501357810">
        <ele>2667.900</ele>
        <time>2019-07-14T22:04:27Z</time>
      </trkpt>
      <trkpt lat="35.921963270" lon="-106.501386510">
        <ele>2667.000</ele>
        <time>2019-07-14T22:04:28Z</time>
      </trkpt>
      <trkpt lat="35.922034240" lon="-106.501415470">
        <ele>2666.300</ele>
        <time>2019-07-14T22:04:29Z</time>
      </trkpt>
      <trkpt lat="35.922108640" lon="-106.501452600">
        <ele>2665.800</ele>
        <time>2019-07-14T22:04:30Z</time>
      </trkpt>
      <trkpt lat="35.922171280" lon="-106.501498590">
        <ele>2666.000</ele>
        <time>2019-07-14T22:04:31Z</time>
      </trkpt>
      <trkpt lat="35.922237950" lon="-106.501558160">
        <ele>2664.400</ele>
        <time>2019-07-14T22:04:32Z</time>
      </trkpt>
      <trkpt lat="35.922306020" lon="-106.501603360">
        <ele>2664.200</ele>
        <time>2019-07-14T22:04:33Z</time>
      </trkpt>
      <trkpt lat="35.922369330" lon="-106.501653130">
        <ele>2665.100</ele>
        <time>2019-07-14T22:04:34Z</time>
      </trkpt>
      <trkpt lat="35.922435750" lon="-106.501694580">
        <ele>2664.400</ele>
        <time>2019-07-14T22:04:35Z</time>
      </trkpt>
      <trkpt lat="35.922498490" lon="-106.501749460">
        <ele>2663.800</ele>
        <time>2019-07-14T22:04:36Z</time>
      </trkpt>
      <trkpt lat="35.922566930" lon="-106.501794690">
        <ele>2665.500</ele>
        <time>2019-07-14T22:04:37Z</time>
      </trkpt>
      <trkpt lat="35.922634320" lon="-106.501851100">
        <ele>2665.800</ele>
        <time>2019-07-14T22:04:38Z</time>
      </trkpt>
      <trkpt lat="35.922701980" lon="-106.501902770">
        <ele>2665.800</ele>
        <time>2019-07-14T22:04:39Z</time>
      </trkpt>
      <trkpt lat="35.922770660" lon="-106.501941270">
        <ele>2664.500</ele>
        <time>2019-07-14T22:04:40Z</time>
      </trkpt>
      <trkpt lat="35.922841940" lon="-106.501983990">
        <ele>2663.200</ele>
        <time>2019-07-14T22:04:41Z</time>
      </trkpt>
      <trkpt lat="35.922918070" lon="-106.502042970">
        <ele>2662.700</ele>
        <time>2019-07-14T22:04:42Z</time>
      </trkpt>
      <trkpt lat="35.922990720" lon="-106.502084600">
        <ele>2663.800</ele>
        <time>2019-07-14T22:04:43Z</time>
      </trkpt>
      <trkpt lat="35.923067900" lon="-106.502145700">
        <ele>2661.800</ele>
        <time>2019-07-14T22:04:44Z</time>
      </trkpt>
      <trkpt lat="35.923135420" lon="-106.502195460">
        <ele>2661.500</ele>
        <time>2019-07-14T22:04:45Z</time>
      </trkpt>
      <trkpt lat="35.923202290" lon="-106.502239340">
        <ele>2660.600</ele>
        <time>2019-07-14T22:04:46Z</time>
      </trkpt>
      <trkpt lat="35.923269980" lon="-106.502288410">
        <ele>2659.800</ele>
        <time>2019-07-14T22:04:47Z</time>
      </trkpt>
      <trkpt lat="35.923329430" lon="-106.502327930">
        <ele>2659.300</ele>
        <time>2019-07-14T22:04:48Z</time>
      </trkpt>
      <trkpt lat="35.923385070" lon="-106.502369940">
        <ele>2658.700</ele>
        <time>2019-07-14T22:04:49Z</time>
      </trkpt>
      <trkpt lat="35.923443730" lon="-106.502404900">
        <ele>2658.900</ele>
        <time>2019-07-14T22:04:50Z</time>
      </trkpt>
      <trkpt lat="35.923504710" lon="-106.502447350">
        <ele>2658.700</ele>
        <time>2019-07-14T22:04:51Z</time>
      </trkpt>
      <trkpt lat="35.923566530" lon="-106.502490360">
        <ele>2659.400</ele>
        <time>2019-07-14T22:04:52Z</time>
      </trkpt>
      <trkpt lat="35.923634950" lon="-106.502524340">
        <ele>2659.300</ele>
        <time>2019-07-14T22:04:53Z</time>
      </trkpt>
      <trkpt lat="35.923708840" lon="-106.502554880">
        <ele>2659.200</ele>
        <time>2019-07-14T22:04:54Z</time>
      </trkpt>
      <trkpt lat="35.923777870" lon="-106.502588060">
        <ele>2659.300</ele>
        <time>2019-07-14T22:04:55Z</time>
      </trkpt>
      <trkpt lat="35.923854540" lon="-106.502613110">
        <ele>2659.100</ele>
        <time>2019-07-14T22:04:56Z</time>
      </trkpt>
      <trkpt lat="35.923932680" lon="-106.502640290">
        <ele>2658.000</ele>
        <time>2019-07-14T22:04:57Z</time>
      </trkpt>
      <trkpt lat="35.924021330" lon="-106.502665100">
        <ele>2656.400</ele>
        <time>2019-07-14T22:04:58Z</time>
      </trkpt>
      <trkpt lat="35.924099500" lon="-106.502683580">
        <ele>2656.000</ele>
        <time>2019-07-14T22:04:59Z</time>
      </trkpt>
      <trkpt lat="35.924186420" lon="-106.502689690">
        <ele>2656.600</ele>
        <time>2019-07-14T22:05:00Z</time>
      </trkpt>
      <trkpt lat="35.924267630" lon="-106.502702310">
        <ele>2655.700</ele>
        <time>2019-07-14T22:05:01Z</time>
      </trkpt>
      <trkpt lat="35.924352870" lon="-106.502717030">
        <ele>2655.700</ele>
        <time>2019-07-14T22:05:02Z</time>
      </trkpt>
      <trkpt lat="35.924443130" lon="-106.502724260">
        <ele>2655.900</ele>
        <time>2019-07-14T22:05:03Z</time>
      </trkpt>
      <trkpt lat="35.924531120" lon="-106.502740890">
        <ele>2655.700</ele>
        <time>2019-07-14T22:05:04Z</time>
      </trkpt>
      <trkpt lat="35.924622070" lon="-106.502750070">
        <ele>2655.100</ele>
        <time>2019-07-14T22:05:05Z</time>
      </trkpt>
      <trkpt lat="35.924700360" lon="-106.502761720">
        <ele>2655.300</ele>
        <time>2019-07-14T22:05:06Z</time>
      </trkpt>
      <trkpt lat="35.924783100" lon="-106.502768820">
        <ele>2654.700</ele>
        <time>2019-07-14T22:05:07Z</time>
      </trkpt>
      <trkpt lat="35.924865680" lon="-106.502763120">
        <ele>2654.100</ele>
        <time>2019-07-14T22:05:08Z</time>
      </trkpt>
      <trkpt lat="35.924946550" lon="-106.502754680">
        <ele>2653.800</ele>
        <time>2019-07-14T22:05:09Z</time>
      </trkpt>
      <trkpt lat="35.925028920" lon="-106.502725930">
        <ele>2653.400</ele>
        <time>2019-07-14T22:05:10Z</time>
      </trkpt>
      <trkpt lat="35.925101150" lon="-106.502690560">
        <ele>2652.100</ele>
        <time>2019-07-14T22:05:11Z</time>
      </trkpt>
      <trkpt lat="35.925176580" lon="-106.502634730">
        <ele>2651.300</ele>
        <time>2019-07-14T22:05:12Z</time>
      </trkpt>
      <trkpt lat="35.925239140" lon="-106.502575050">
        <ele>2651.400</ele>
        <time>2019-07-14T22:05:13Z</time>
      </trkpt>
      <trkpt lat="35.925304450" lon="-106.502512830">
        <ele>2650.300</ele>
        <time>2019-07-14T22:05:14Z</time>
      </trkpt>
      <trkpt lat="35.925372340" lon="-106.502458570">
        <ele>2650.400</ele>
        <time>2019-07-14T22:05:15Z</time>
      </trkpt>
      <trkpt lat="35.925432950" lon="-106.502395560">
        <ele>2649.900</ele>
        <time>2019-07-14T22:05:16Z</time>
      </trkpt>
      <trkpt lat="35.925497160" lon="-106.502342520">
        <ele>2649.500</ele>
        <time>2019-07-14T22:05:17Z</time>
      </trkpt>
      <trkpt lat="35.925563560" lon="-106.502276650">
        <ele>2649.300</ele>
        <time>2019-07-14T22:05:18Z</time>
      </trkpt>
      <trkpt lat="35.925628590" lon="-106.502215110">
        <ele>2648.800</ele>
        <time>2019-07-14T22:05:19Z</time>
      </trkpt>
      <trkpt lat="35.925688880" lon="-106.502168860">
        <ele>2648.100</ele>
        <time>2019-07-14T22:05:20Z</time>
      </trkpt>
      <trkpt lat="35.925762040" lon="-106.502129850">
        <ele>2648.200</ele>
        <time>2019-07-14T22:05:21Z</time>
      </trkpt>
      <trkpt lat="35.925829710" lon="-106.502120680">
        <ele>2647.700</ele>
        <time>2019-07-14T22:05:22Z</time>
      </trkpt>
      <trkpt lat="35.925918190" lon="-106.502122910">
        <ele>2647.300</ele>
        <time>2019-07-14T22:05:23Z</time>
      </trkpt>
      <trkpt lat="35.925993850" lon="-106.502104190">
        <ele>2647.400</ele>
        <time>2019-07-14T22:05:24Z</time>
      </trkpt>
      <trkpt lat="35.926079280" lon="-106.502121160">
        <ele>2645.400</ele>
        <time>2019-07-14T22:05:25Z</time>
      </trkpt>
      <trkpt lat="35.926158000" lon="-106.502117750">
        <ele>2646.200</ele>
        <time>2019-07-14T22:05:26Z</time>
      </trkpt>
      <trkpt lat="35.926234790" lon="-106.502129440">
        <ele>2646.400</ele>
        <time>2019-07-14T22:05:27Z</time>
      </trkpt>
      <trkpt lat="35.926319880" lon="-106.502137040">
        <ele>2644.000</ele>
        <time>2019-07-14T22:05:28Z</time>
      </trkpt>
      <trkpt lat="35.926413060" lon="-106.502147410">
        <ele>2643.200</ele>
        <time>2019-07-14T22:05:29Z</time>
      </trkpt>
      <trkpt lat="35.926505220" lon="-106.502161430">
        <ele>2642.700</ele>
        <time>2019-07-14T22:05:30Z</time>
      </trkpt>
      <trkpt lat="35.926597570" lon="-106.502176880">
        <ele>2643.400</ele>
        <time>2019-07-14T22:05:31Z</time>
      </trkpt>
      <trkpt lat="35.926694360" lon="-106.502196840">
        <ele>2642.700</ele>
        <time>2019-07-14T22:05:32Z</time>
      </trkpt>
      <trkpt lat="35.926781480" lon="-106.502219040">
        <ele>2642.600</ele>
        <time>2019-07-14T22:05:33Z</time>
      </trkpt>
      <trkpt lat="35.926858300" lon="-106.502250890">
        <ele>2643.700</ele>
        <time>2019-07-14T22:05:34Z</time>
      </trkpt>
      <trkpt lat="35.926943760" lon="-106.502282990">
        <ele>2644.000</ele>
        <time>2019-07-14T22:05:35Z</time>
      </trkpt>
      <trkpt lat="35.927029150" lon="-106.502322440">
        <ele>2644.100</ele>
        <time>2019-07-14T22:05:36Z</time>
      </trkpt>
      <trkpt lat="35.927110470" lon="-106.502357250">
        <ele>2644.300</ele>
        <time>2019-07-14T22:05:37Z</time>
      </trkpt>
      <trkpt lat="35.927201490" lon="-106.502393800">
        <ele>2644.000</ele>
        <time>2019-07-14T22:05:38Z</time>
      </trkpt>
      <trkpt lat="35.927285510" lon="-106.502426180">
        <ele>2644.000</ele>
        <time>2019-07-14T22:05:39Z</time>
      </trkpt>
      <trkpt lat="35.927370480" lon="-106.502459910">
        <ele>2644.000</ele>
        <time>2019-07-14T22:05:40Z</time>
      </trkpt>
      <trkpt lat="35.927460260" lon="-106.502480740">
        <ele>2644.200</ele>
        <time>2019-07-14T22:05:41Z</time>
      </trkpt>
      <trkpt lat="35.927543680" lon="-106.502500400">
        <ele>2644.300</ele>
        <time>2019-07-14T22:05:42Z</time>
      </trkpt>
      <trkpt lat="35.927632090" lon="-106.502510260">
        <ele>2643.400</ele>
        <time>2019-07-14T22:05:43Z</time>
      </trkpt>
      <trkpt lat="35.927718770" lon="-106.502500070">
        <ele>2643.500</ele>
        <time>2019-07-14T22:05:44Z</time>
      </trkpt>
      <trkpt lat="35.927812540" lon="-106.502482950">
        <ele>2643.400</ele>
        <time>2019-07-14T22:05:45Z</time>
      </trkpt>
      <trkpt lat="35.927898900" lon="-106.502452560">
        <ele>2643.200</ele>
        <time>2019-07-14T22:05:46Z</time>
      </trkpt>
      <trkpt lat="35.927977200" lon="-106.502413280">
        <ele>2643.300</ele>
        <time>2019-07-14T22:05:47Z</time>
      </trkpt>
      <trkpt lat="35.928057070" lon="-106.502382020">
        <ele>2643.800</ele>
        <time>2019-07-14T22:05:48Z</time>
      </trkpt>
      <trkpt lat="35.928141960" lon="-106.502349830">
        <ele>2643.600</ele>
        <time>2019-07-14T22:05:49Z</time>
      </trkpt>
      <trkpt lat="35.928223230" lon="-106.502299820">
        <ele>2643.200</ele>
        <time>2019-07-14T22:05:50Z</time>
      </trkpt>
      <trkpt lat="35.928310530" lon="-106.502254290">
        <ele>2643.300</ele>
        <time>2019-07-14T22:05:51Z</time>
      </trkpt>
      <trkpt lat="35.928392720" lon="-106.502204730">
        <ele>2642.800</ele>
        <time>2019-07-14T22:05:52Z</time>
      </trkpt>
      <trkpt lat="35.928473040" lon="-106.502159410">
        <ele>2642.800</ele>
        <time>2019-07-14T22:05:53Z</time>
      </trkpt>
      <trkpt lat="35.928555390" lon="-106.502117250">
        <ele>2643.100</ele>
        <time>2019-07-14T22:05:54Z</time>
      </trkpt>
      <trkpt lat="35.928642990" lon="-106.502079300">
        <ele>2643.400</ele>
        <time>2019-07-14T22:05:55Z</time>
      </trkpt>
      <trkpt lat="35.928730260" lon="-106.502052330">
        <ele>2642.400</ele>
        <time>2019-07-14T22:05:56Z</time>
      </trkpt>
      <trkpt lat="35.928818180" lon="-106.502017390">
        <ele>2642.400</ele>
        <time>2019-07-14T22:05:57Z</time>
      </trkpt>
      <trkpt lat="35.928911110" lon="-106.501985440">
        <ele>2642.300</ele>
        <time>2019-07-14T22:05:58Z</time>
      </trkpt>
      <trkpt lat="35.928995640" lon="-106.501970820">
        <ele>2640.500</ele>
        <time>2019-07-14T22:05:59Z</time>
      </trkpt>
      <trkpt lat="35.929080960" lon="-106.501955840">
        <ele>2640.100</ele>
        <time>2019-07-14T22:06:00Z</time>
      </trkpt>
      <trkpt lat="35.929165690" lon="-106.501937590">
        <ele>2640.200</ele>
        <time>2019-07-14T22:06:01Z</time>
      </trkpt>
      <trkpt lat="35.929257710" lon="-106.501929400">
        <ele>2640.700</ele>
        <time>2019-07-14T22:06:02Z</time>
      </trkpt>
      <trkpt lat="35.929335150" lon="-106.501917240">
        <ele>2640.900</ele>
        <time>2019-07-14T22:06:03Z</time>
      </trkpt>
      <trkpt lat="35.929415080" lon="-106.501900890">
        <ele>2640.300</ele>
        <time>2019-07-14T22:06:04Z</time>
      </trkpt>
      <trkpt lat="35.929498510" lon="-106.501885530">
        <ele>2640.500</ele>
        <time>2019-07-14T22:06:05Z</time>
      </trkpt>
      <trkpt lat="35.929583510" lon="-106.501864890">
        <ele>2640.300</ele>
        <time>2019-07-14T22:06:06Z</time>
      </trkpt>
      <trkpt lat="35.929662560" lon="-106.501857150">
        <ele>2638.200</ele>
        <time>2019-07-14T22:06:07Z</time>
      </trkpt>
      <trkpt lat="35.929747770" lon="-106.501833320">
        <ele>2637.700</ele>
        <time>2019-07-14T22:06:08Z</time>
      </trkpt>
      <trkpt lat="35.929831600" lon="-106.501816640">
        <ele>2637.400</ele>
        <time>2019-07-14T22:06:09Z</time>
      </trkpt>
      <trkpt lat="35.929913000" lon="-106.501799260">
        <ele>2637.600</ele>
        <time>2019-07-14T22:06:10Z</time>
      </trkpt>
      <trkpt lat="35.929984090" lon="-106.501764390">
        <ele>2637.300</ele>
        <time>2019-07-14T22:06:11Z</time>
      </trkpt>
      <trkpt lat="35.930047270" lon="-106.501727670">
        <ele>2637.000</ele>
        <time>2019-07-14T22:06:12Z</time>
      </trkpt>
      <trkpt lat="35.930110550" lon="-106.501677020">
        <ele>2637.600</ele>
        <time>2019-07-14T22:06:13Z</time>
      </trkpt>
      <trkpt lat="35.930167590" lon="-106.501619500">
        <ele>2636.800</ele>
        <time>2019-07-14T22:06:14Z</time>
      </trkpt>
      <trkpt lat="35.930217900" lon="-106.501552540">
        <ele>2636.700</ele>
        <time>2019-07-14T22:06:15Z</time>
      </trkpt>
      <trkpt lat="35.930266970" lon="-106.501480640">
        <ele>2636.400</ele>
        <time>2019-07-14T22:06:16Z</time>
      </trkpt>
      <trkpt lat="35.930307680" lon="-106.501418180">
        <ele>2634.900</ele>
        <time>2019-07-14T22:06:17Z</time>
      </trkpt>
      <trkpt lat="35.930358130" lon="-106.501353920">
        <ele>2635.200</ele>
        <time>2019-07-14T22:06:18Z</time>
      </trkpt>
      <trkpt lat="35.930408020" lon="-106.501299320">
        <ele>2635.200</ele>
        <time>2019-07-14T22:06:19Z</time>
      </trkpt>
      <trkpt lat="35.930467120" lon="-106.501253430">
        <ele>2634.600</ele>
        <time>2019-07-14T22:06:20Z</time>
      </trkpt>
      <trkpt lat="35.930524570" lon="-106.501222280">
        <ele>2635.500</ele>
        <time>2019-07-14T22:06:21Z</time>
      </trkpt>
      <trkpt lat="35.930590190" lon="-106.501216320">
        <ele>2634.200</ele>
        <time>2019-07-14T22:06:22Z</time>
      </trkpt>
      <trkpt lat="35.930658400" lon="-106.501200370">
        <ele>2633.100</ele>
        <time>2019-07-14T22:06:23Z</time>
      </trkpt>
      <trkpt lat="35.930729810" lon="-106.501180820">
        <ele>2633.200</ele>
        <time>2019-07-14T22:06:24Z</time>
      </trkpt>
      <trkpt lat="35.930797990" lon="-106.501170710">
        <ele>2632.700</ele>
        <time>2019-07-14T22:06:25Z</time>
      </trkpt>
      <trkpt lat="35.930862700" lon="-106.501171890">
        <ele>2633.500</ele>
        <time>2019-07-14T22:06:26Z</time>
      </trkpt>
      <trkpt lat="35.930921110" lon="-106.501175150">
        <ele>2634.100</ele>
        <time>2019-07-14T22:06:27Z</time>
      </trkpt>
      <trkpt lat="35.930973300" lon="-106.501181060">
        <ele>2634.800</ele>
        <time>2019-07-14T22:06:28Z</time>
      </trkpt>
      <trkpt lat="35.931028190" lon="-106.501193450">
        <ele>2635.000</ele>
        <time>2019-07-14T22:06:29Z</time>
      </trkpt>
      <trkpt lat="35.931081090" lon="-106.501209690">
        <ele>2634.300</ele>
        <time>2019-07-14T22:06:30Z</time>
      </trkpt>
      <trkpt lat="35.931140010" lon="-106.501221200">
        <ele>2634.100</ele>
        <time>2019-07-14T22:06:31Z</time>
      </trkpt>
      <trkpt lat="35.931199040" lon="-106.501230920">
        <ele>2634.700</ele>
        <time>2019-07-14T22:06:32Z</time>
      </trkpt>
      <trkpt lat="35.931261340" lon="-106.501241500">
        <ele>2635.100</ele>
        <time>2019-07-14T22:06:33Z</time>
      </trkpt>
      <trkpt lat="35.931330930" lon="-106.501248420">
        <ele>2634.600</ele>
        <time>2019-07-14T22:06:34Z</time>
      </trkpt>
      <trkpt lat="35.931394420" lon="-106.501262880">
        <ele>2635.600</ele>
        <time>2019-07-14T22:06:35Z</time>
      </trkpt>
      <trkpt lat="35.931456250" lon="-106.501290140">
        <ele>2634.200</ele>
        <time>2019-07-14T22:06:36Z</time>
      </trkpt>
      <trkpt lat="35.931517350" lon="-106.501316160">
        <ele>2636.000</ele>
        <time>2019-07-14T22:06:37Z</time>
      </trkpt>
      <trkpt lat="35.931575780" lon="-106.501358820">
        <ele>2636.700</ele>
        <time>2019-07-14T22:06:38Z</time>
      </trkpt>
      <trkpt lat="35.931637700" lon="-106.501392980">
        <ele>2638.000</ele>
        <time>2019-07-14T22:06:39Z</time>
      </trkpt>
      <trkpt lat="35.931694430" lon="-106.501429450">
        <ele>2638.400</ele>
        <time>2019-07-14T22:06:40Z</time>
      </trkpt>
      <trkpt lat="35.931746210" lon="-106.501483460">
        <ele>2638.100</ele>
        <time>2019-07-14T22:06:41Z</time>
      </trkpt>
      <trkpt lat="35.931796100" lon="-106.501554300">
        <ele>2637.600</ele>
        <time>2019-07-14T22:06:42Z</time>
      </trkpt>
      <trkpt lat="35.931845370" lon="-106.501623620">
        <ele>2637.900</ele>
        <time>2019-07-14T22:06:43Z</time>
      </trkpt>
      <trkpt lat="35.931888600" lon="-106.501695070">
        <ele>2637.600</ele>
        <time>2019-07-14T22:06:44Z</time>
      </trkpt>
      <trkpt lat="35.931919510" lon="-106.501758700">
        <ele>2639.100</ele>
        <time>2019-07-14T22:06:45Z</time>
      </trkpt>
      <trkpt lat="35.931958440" lon="-106.501823550">
        <ele>2638.500</ele>
        <time>2019-07-14T22:06:46Z</time>
      </trkpt>
      <trkpt lat="35.931993850" lon="-106.501889130">
        <ele>2638.700</ele>
        <time>2019-07-14T22:06:47Z</time>
      </trkpt>
      <trkpt lat="35.932028340" lon="-106.501950570">
        <ele>2637.900</ele>
        <time>2019-07-14T22:06:48Z</time>
      </trkpt>
      <trkpt lat="35.932057480" lon="-106.502016840">
        <ele>2638.100</ele>
        <time>2019-07-14T22:06:49Z</time>
      </trkpt>
      <trkpt lat="35.932079390" lon="-106.502090990">
        <ele>2638.300</ele>
        <time>2019-07-14T22:06:50Z</time>
      </trkpt>
      <trkpt lat="35.932104360" lon="-106.502157210">
        <ele>2638.700</ele>
        <time>2019-07-14T22:06:51Z</time>
      </trkpt>
      <trkpt lat="35.932112950" lon="-106.502236970">
        <ele>2639.100</ele>
        <time>2019-07-14T22:06:52Z</time>
      </trkpt>
      <trkpt lat="35.932125320" lon="-106.502313530">
        <ele>2639.100</ele>
        <time>2019-07-14T22:06:53Z</time>
      </trkpt>
      <trkpt lat="35.932123170" lon="-106.502391880">
        <ele>2639.300</ele>
        <time>2019-07-14T22:06:54Z</time>
      </trkpt>
      <trkpt lat="35.932131730" lon="-106.502463130">
        <ele>2639.700</ele>
        <time>2019-07-14T22:06:55Z</time>
      </trkpt>
      <trkpt lat="35.932137850" lon="-106.502545680">
        <ele>2640.000</ele>
        <time>2019-07-14T22:06:56Z</time>
      </trkpt>
      <trkpt lat="35.932147800" lon="-106.502627330">
        <ele>2640.800</ele>
        <time>2019-07-14T22:06:57Z</time>
      </trkpt>
      <trkpt lat="35.932166020" lon="-106.502707220">
        <ele>2640.300</ele>
        <time>2019-07-14T22:06:58Z</time>
      </trkpt>
      <trkpt lat="35.932189270" lon="-106.502770810">
        <ele>2640.300</ele>
        <time>2019-07-14T22:06:59Z</time>
      </trkpt>
      <trkpt lat="35.932225360" lon="-106.502848170">
        <ele>2639.600</ele>
        <time>2019-07-14T22:07:00Z</time>
      </trkpt>
      <trkpt lat="35.932249930" lon="-106.502916410">
        <ele>2639.200</ele>
        <time>2019-07-14T22:07:01Z</time>
      </trkpt>
      <trkpt lat="35.932280340" lon="-106.502987100">
        <ele>2638.800</ele>
        <time>2019-07-14T22:07:02Z</time>
      </trkpt>
      <trkpt lat="35.932311830" lon="-106.503059610">
        <ele>2638.400</ele>
        <time>2019-07-14T22:07:03Z</time>
      </trkpt>
      <trkpt lat="35.932337700" lon="-106.503131590">
        <ele>2638.600</ele>
        <time>2019-07-14T22:07:04Z</time>
      </trkpt>
      <trkpt lat="35.932367690" lon="-106.503201480">
        <ele>2638.700</ele>
        <time>2019-07-14T22:07:05Z</time>
      </trkpt>
      <trkpt lat="35.932405070" lon="-106.503271770">
        <ele>2638.300</ele>
        <time>2019-07-14T22:07:06Z</time>
      </trkpt>
      <trkpt lat="35.932429330" lon="-106.503350100">
        <ele>2637.900</ele>
        <time>2019-07-14T22:07:07Z</time>
      </trkpt>
      <trkpt lat="35.932459980" lon="-106.503424780">
        <ele>2637.600</ele>
        <time>2019-07-14T22:07:08Z</time>
      </trkpt>
      <trkpt lat="35.932488730" lon="-106.503500480">
        <ele>2637.200</ele>
        <time>2019-07-14T22:07:09Z</time>
      </trkpt>
      <trkpt lat="35.932509120" lon="-106.503587740">
        <ele>2638.100</ele>
        <time>2019-07-14T22:07:10Z</time>
      </trkpt>
      <trkpt lat="35.932536800" lon="-106.503672680">
        <ele>2637.500</ele>
        <time>2019-07-14T22:07:11Z</time>
      </trkpt>
      <trkpt lat="35.932540510" lon="-106.503761720">
        <ele>2637.100</ele>
        <time>2019-07-14T22:07:12Z</time>
      </trkpt>
      <trkpt lat="35.932542150" lon="-106.503858360">
        <ele>2636.200</ele>
        <time>2019-07-14T22:07:13Z</time>
      </trkpt>
      <trkpt lat="35.932535170" lon="-106.503941020">
        <ele>2635.800</ele>
        <time>2019-07-14T22:07:14Z</time>
      </trkpt>
      <trkpt lat="35.932529550" lon="-106.504053410">
        <ele>2635.000</ele>
        <time>2019-07-14T22:07:15Z</time>
      </trkpt>
      <trkpt lat="35.932536760" lon="-106.504154840">
        <ele>2633.500</ele>
        <time>2019-07-14T22:07:16Z</time>
      </trkpt>
      <trkpt lat="35.932549320" lon="-106.504246780">
        <ele>2633.100</ele>
        <time>2019-07-14T22:07:17Z</time>
      </trkpt>
      <trkpt lat="35.932564110" lon="-106.504327430">
        <ele>2632.600</ele>
        <time>2019-07-14T22:07:18Z</time>
      </trkpt>
      <trkpt lat="35.932568730" lon="-106.504420100">
        <ele>2632.300</ele>
        <time>2019-07-14T22:07:19Z</time>
      </trkpt>
      <trkpt lat="35.932574980" lon="-106.504505810">
        <ele>2631.800</ele>
        <time>2019-07-14T22:07:20Z</time>
      </trkpt>
      <trkpt lat="35.932577870" lon="-106.504589030">
        <ele>2632.700</ele>
        <time>2019-07-14T22:07:21Z</time>
      </trkpt>
      <trkpt lat="35.932570500" lon="-106.504685220">
        <ele>2632.100</ele>
        <time>2019-07-14T22:07:22Z</time>
      </trkpt>
      <trkpt lat="35.932560560" lon="-106.504760680">
        <ele>2632.800</ele>
        <time>2019-07-14T22:07:23Z</time>
      </trkpt>
      <trkpt lat="35.932556790" lon="-106.504844280">
        <ele>2632.600</ele>
        <time>2019-07-14T22:07:24Z</time>
      </trkpt>
      <trkpt lat="35.932544750" lon="-106.504930490">
        <ele>2632.000</ele>
        <time>2019-07-14T22:07:25Z</time>
      </trkpt>
      <trkpt lat="35.932544710" lon="-106.505018960">
        <ele>2632.600</ele>
        <time>2019-07-14T22:07:26Z</time>
      </trkpt>
      <trkpt lat="35.932535830" lon="-106.505115220">
        <ele>2631.800</ele>
        <time>2019-07-14T22:07:27Z</time>
      </trkpt>
      <trkpt lat="35.932524840" lon="-106.505215760">
        <ele>2631.800</ele>
        <time>2019-07-14T22:07:28Z</time>
      </trkpt>
      <trkpt lat="35.932512360" lon="-106.505313070">
        <ele>2632.500</ele>
        <time>2019-07-14T22:07:29Z</time>
      </trkpt>
      <trkpt lat="35.932507430" lon="-106.505400510">
        <ele>2632.700</ele>
        <time>2019-07-14T22:07:30Z</time>
      </trkpt>
      <trkpt lat="35.932495000" lon="-106.505489770">
        <ele>2633.000</ele>
        <time>2019-07-14T22:07:31Z</time>
      </trkpt>
      <trkpt lat="35.932482900" lon="-106.505581420">
        <ele>2632.300</ele>
        <time>2019-07-14T22:07:32Z</time>
      </trkpt>
      <trkpt lat="35.932465360" lon="-106.505665790">
        <ele>2632.500</ele>
        <time>2019-07-14T22:07:33Z</time>
      </trkpt>
      <trkpt lat="35.932464740" lon="-106.505742880">
        <ele>2632.000</ele>
        <time>2019-07-14T22:07:34Z</time>
      </trkpt>
      <trkpt lat="35.932456580" lon="-106.505821400">
        <ele>2631.800</ele>
        <time>2019-07-14T22:07:35Z</time>
      </trkpt>
      <trkpt lat="35.932451990" lon="-106.505901190">
        <ele>2632.000</ele>
        <time>2019-07-14T22:07:36Z</time>
      </trkpt>
      <trkpt lat="35.932450800" lon="-106.505986570">
        <ele>2631.900</ele>
        <time>2019-07-14T22:07:37Z</time>
      </trkpt>
      <trkpt lat="35.932469950" lon="-106.506055400">
        <ele>2631.100</ele>
        <time>2019-07-14T22:07:38Z</time>
      </trkpt>
      <trkpt lat="35.932481770" lon="-106.506142330">
        <ele>2631.000</ele>
        <time>2019-07-14T22:07:39Z</time>
      </trkpt>
      <trkpt lat="35.932509120" lon="-106.506218300">
        <ele>2630.000</ele>
        <time>2019-07-14T22:07:40Z</time>
      </trkpt>
      <trkpt lat="35.932539640" lon="-106.506279570">
        <ele>2630.900</ele>
        <time>2019-07-14T22:07:41Z</time>
      </trkpt>
      <trkpt lat="35.932564480" lon="-106.506360750">
        <ele>2628.900</ele>
        <time>2019-07-14T22:07:42Z</time>
      </trkpt>
      <trkpt lat="35.932610750" lon="-106.506424920">
        <ele>2629.300</ele>
        <time>2019-07-14T22:07:43Z</time>
      </trkpt>
      <trkpt lat="35.932649970" lon="-106.506482270">
        <ele>2628.900</ele>
        <time>2019-07-14T22:07:44Z</time>
      </trkpt>
      <trkpt lat="35.932686910" lon="-106.506539160">
        <ele>2628.800</ele>
        <time>2019-07-14T22:07:45Z</time>
      </trkpt>
      <trkpt lat="35.932726920" lon="-106.506603990">
        <ele>2628.100</ele>
        <time>2019-07-14T22:07:46Z</time>
      </trkpt>
      <trkpt lat="35.932768340" lon="-106.506660070">
        <ele>2627.500</ele>
        <time>2019-07-14T22:07:47Z</time>
      </trkpt>
      <trkpt lat="35.932808660" lon="-106.506729060">
        <ele>2627.900</ele>
        <time>2019-07-14T22:07:48Z</time>
      </trkpt>
      <trkpt lat="35.932854080" lon="-106.506798400">
        <ele>2627.600</ele>
        <time>2019-07-14T22:07:49Z</time>
      </trkpt>
      <trkpt lat="35.932902460" lon="-106.506882660">
        <ele>2627.500</ele>
        <time>2019-07-14T22:07:50Z</time>
      </trkpt>
      <trkpt lat="35.932950700" lon="-106.506954190">
        <ele>2626.800</ele>
        <time>2019-07-14T22:07:51Z</time>
      </trkpt>
      <trkpt lat="35.932994150" lon="-106.507033430">
        <ele>2626.700</ele>
        <time>2019-07-14T22:07:52Z</time>
      </trkpt>
      <trkpt lat="35.933038080" lon="-106.507104460">
        <ele>2625.300</ele>
        <time>2019-07-14T22:07:53Z</time>
      </trkpt>
      <trkpt lat="35.933073620" lon="-106.507191110">
        <ele>2626.100</ele>
        <time>2019-07-14T22:07:54Z</time>
      </trkpt>
      <trkpt lat="35.933113750" lon="-106.507275400">
        <ele>2626.300</ele>
        <time>2019-07-14T22:07:55Z</time>
      </trkpt>
      <trkpt lat="35.933162860" lon="-106.507358120">
        <ele>2625.900</ele>
        <time>2019-07-14T22:07:56Z</time>
      </trkpt>
      <trkpt lat="35.933207940" lon="-106.507445270">
        <ele>2626.100</ele>
        <time>2019-07-14T22:07:57Z</time>
      </trkpt>
      <trkpt lat="35.933241510" lon="-106.507524490">
        <ele>2627.100</ele>
        <time>2019-07-14T22:07:58Z</time>
      </trkpt>
      <trkpt lat="35.933287820" lon="-106.507607620">
        <ele>2626.500</ele>
        <time>2019-07-14T22:07:59Z</time>
      </trkpt>
      <trkpt lat="35.933330050" lon="-106.507681980">
        <ele>2625.900</ele>
        <time>2019-07-14T22:08:00Z</time>
      </trkpt>
      <trkpt lat="35.933356560" lon="-106.507769660">
        <ele>2627.100</ele>
        <time>2019-07-14T22:08:01Z</time>
      </trkpt>
      <trkpt lat="35.933398710" lon="-106.507845120">
        <ele>2627.200</ele>
        <time>2019-07-14T22:08:02Z</time>
      </trkpt>
      <trkpt lat="35.933428810" lon="-106.507924460">
        <ele>2628.300</ele>
        <time>2019-07-14T22:08:03Z</time>
      </trkpt>
      <trkpt lat="35.933471060" lon="-106.508004330">
        <ele>2628.100</ele>
        <time>2019-07-14T22:08:04Z</time>
      </trkpt>
      <trkpt lat="35.933506180" lon="-106.508080250">
        <ele>2627.800</ele>
        <time>2019-07-14T22:08:05Z</time>
      </trkpt>
      <trkpt lat="35.933545600" lon="-106.508155340">
        <ele>2628.000</ele>
        <time>2019-07-14T22:08:06Z</time>
      </trkpt>
      <trkpt lat="35.933571020" lon="-106.508237020">
        <ele>2627.700</ele>
        <time>2019-07-14T22:08:07Z</time>
      </trkpt>
      <trkpt lat="35.933603620" lon="-106.508317840">
        <ele>2628.500</ele>
        <time>2019-07-14T22:08:08Z</time>
      </trkpt>
      <trkpt lat="35.933642830" lon="-106.508384110">
        <ele>2627.700</ele>
        <time>2019-07-14T22:08:09Z</time>
      </trkpt>
      <trkpt lat="35.933673910" lon="-106.508464850">
        <ele>2627.800</ele>
        <time>2019-07-14T22:08:10Z</time>
      </trkpt>
      <trkpt lat="35.933694000" lon="-106.508541920">
        <ele>2628.000</ele>
        <time>2019-07-14T22:08:11Z</time>
      </trkpt>
      <trkpt lat="35.933719560" lon="-106.508613980">
        <ele>2627.400</ele>
        <time>2019-07-14T22:08:12Z</time>
      </trkpt>
      <trkpt lat="35.933752580" lon="-106.508692650">
        <ele>2627.300</ele>
        <time>2019-07-14T22:08:13Z</time>
      </trkpt>
      <trkpt lat="35.933773510" lon="-106.508775520">
        <ele>2627.000</ele>
        <time>2019-07-14T22:08:14Z</time>
      </trkpt>
      <trkpt lat="35.933810220" lon="-106.508866710">
        <ele>2626.300</ele>
        <time>2019-07-14T22:08:15Z</time>
      </trkpt>
      <trkpt lat="35.933829080" lon="-106.508949370">
        <ele>2627.900</ele>
        <time>2019-07-14T22:08:16Z</time>
      </trkpt>
      <trkpt lat="35.933863480" lon="-106.509027750">
        <ele>2627.500</ele>
        <time>2019-07-14T22:08:17Z</time>
      </trkpt>
      <trkpt lat="35.933897460" lon="-106.509105700">
        <ele>2627.200</ele>
        <time>2019-07-14T22:08:18Z</time>
      </trkpt>
      <trkpt lat="35.933916730" lon="-106.509195760">
        <ele>2627.400</ele>
        <time>2019-07-14T22:08:19Z</time>
      </trkpt>
      <trkpt lat="35.933949540" lon="-106.509287660">
        <ele>2628.000</ele>
        <time>2019-07-14T22:08:20Z</time>
      </trkpt>
      <trkpt lat="35.933980870" lon="-106.509378320">
        <ele>2627.800</ele>
        <time>2019-07-14T22:08:21Z</time>
      </trkpt>
      <trkpt lat="35.934006110" lon="-106.509463110">
        <ele>2629.000</ele>
        <time>2019-07-14T22:08:22Z</time>
      </trkpt>
      <trkpt lat="35.934044690" lon="-106.509562000">
        <ele>2628.600</ele>
        <time>2019-07-14T22:08:23Z</time>
      </trkpt>
      <trkpt lat="35.934072460" lon="-106.509658450">
        <ele>2628.800</ele>
        <time>2019-07-14T22:08:24Z</time>
      </trkpt>
      <trkpt lat="35.934098200" lon="-106.509760520">
        <ele>2628.500</ele>
        <time>2019-07-14T22:08:25Z</time>
      </trkpt>
      <trkpt lat="35.934137710" lon="-106.509851470">
        <ele>2626.800</ele>
        <time>2019-07-14T22:08:26Z</time>
      </trkpt>
      <trkpt lat="35.934166470" lon="-106.509961940">
        <ele>2626.300</ele>
        <time>2019-07-14T22:08:27Z</time>
      </trkpt>
      <trkpt lat="35.934201700" lon="-106.510052270">
        <ele>2625.700</ele>
        <time>2019-07-14T22:08:28Z</time>
      </trkpt>
      <trkpt lat="35.934232670" lon="-106.510153090">
        <ele>2625.800</ele>
        <time>2019-07-14T22:08:29Z</time>
      </trkpt>
      <trkpt lat="35.934266910" lon="-106.510246260">
        <ele>2623.900</ele>
        <time>2019-07-14T22:08:30Z</time>
      </trkpt>
      <trkpt lat="35.934300710" lon="-106.510350640">
        <ele>2623.400</ele>
        <time>2019-07-14T22:08:31Z</time>
      </trkpt>
      <trkpt lat="35.934328300" lon="-106.510453810">
        <ele>2623.500</ele>
        <time>2019-07-14T22:08:32Z</time>
      </trkpt>
      <trkpt lat="35.934367370" lon="-106.510545130">
        <ele>2624.500</ele>
        <time>2019-07-14T22:08:33Z</time>
      </trkpt>
      <trkpt lat="35.934392900" lon="-106.510640270">
        <ele>2624.600</ele>
        <time>2019-07-14T22:08:34Z</time>
      </trkpt>
      <trkpt lat="35.934423680" lon="-106.510736100">
        <ele>2623.000</ele>
        <time>2019-07-14T22:08:35Z</time>
      </trkpt>
      <trkpt lat="35.934461570" lon="-106.510816580">
        <ele>2622.900</ele>
        <time>2019-07-14T22:08:36Z</time>
      </trkpt>
      <trkpt lat="35.934506760" lon="-106.510902180">
        <ele>2622.600</ele>
        <time>2019-07-14T22:08:37Z</time>
      </trkpt>
      <trkpt lat="35.934555340" lon="-106.510976800">
        <ele>2622.400</ele>
        <time>2019-07-14T22:08:38Z</time>
      </trkpt>
      <trkpt lat="35.934603750" lon="-106.511061200">
        <ele>2622.000</ele>
        <time>2019-07-14T22:08:39Z</time>
      </trkpt>
      <trkpt lat="35.934673650" lon="-106.511138060">
        <ele>2622.200</ele>
        <time>2019-07-14T22:08:40Z</time>
      </trkpt>
      <trkpt lat="35.934745510" lon="-106.511204760">
        <ele>2622.000</ele>
        <time>2019-07-14T22:08:41Z</time>
      </trkpt>
      <trkpt lat="35.934802690" lon="-106.511277150">
        <ele>2621.500</ele>
        <time>2019-07-14T22:08:42Z</time>
      </trkpt>
      <trkpt lat="35.934854630" lon="-106.511343660">
        <ele>2621.700</ele>
        <time>2019-07-14T22:08:43Z</time>
      </trkpt>
      <trkpt lat="35.934921450" lon="-106.511402810">
        <ele>2620.800</ele>
        <time>2019-07-14T22:08:44Z</time>
      </trkpt>
      <trkpt lat="35.934968300" lon="-106.511491960">
        <ele>2620.400</ele>
        <time>2019-07-14T22:08:45Z</time>
      </trkpt>
      <trkpt lat="35.935014270" lon="-106.511586480">
        <ele>2620.100</ele>
        <time>2019-07-14T22:08:46Z</time>
      </trkpt>
      <trkpt lat="35.935042750" lon="-106.511683950">
        <ele>2620.200</ele>
        <time>2019-07-14T22:08:47Z</time>
      </trkpt>
      <trkpt lat="35.935079190" lon="-106.511790220">
        <ele>2619.500</ele>
        <time>2019-07-14T22:08:48Z</time>
      </trkpt>
      <trkpt lat="35.935122320" lon="-106.511889790">
        <ele>2619.600</ele>
        <time>2019-07-14T22:08:49Z</time>
      </trkpt>
      <trkpt lat="35.935164280" lon="-106.511978530">
        <ele>2620.500</ele>
        <time>2019-07-14T22:08:50Z</time>
      </trkpt>
      <trkpt lat="35.935204430" lon="-106.512067050">
        <ele>2620.400</ele>
        <time>2019-07-14T22:08:51Z</time>
      </trkpt>
      <trkpt lat="35.935249880" lon="-106.512155630">
        <ele>2619.800</ele>
        <time>2019-07-14T22:08:52Z</time>
      </trkpt>
      <trkpt lat="35.935305790" lon="-106.512242760">
        <ele>2619.100</ele>
        <time>2019-07-14T22:08:53Z</time>
      </trkpt>
      <trkpt lat="35.935352830" lon="-106.512333060">
        <ele>2617.600</ele>
        <time>2019-07-14T22:08:54Z</time>
      </trkpt>
      <trkpt lat="35.935404320" lon="-106.512422730">
        <ele>2617.000</ele>
        <time>2019-07-14T22:08:55Z</time>
      </trkpt>
      <trkpt lat="35.935467280" lon="-106.512494420">
        <ele>2615.900</ele>
        <time>2019-07-14T22:08:56Z</time>
      </trkpt>
      <trkpt lat="35.935523740" lon="-106.512569610">
        <ele>2615.900</ele>
        <time>2019-07-14T22:08:57Z</time>
      </trkpt>
      <trkpt lat="35.935583960" lon="-106.512647750">
        <ele>2616.200</ele>
        <time>2019-07-14T22:08:58Z</time>
      </trkpt>
      <trkpt lat="35.935642160" lon="-106.512729590">
        <ele>2615.800</ele>
        <time>2019-07-14T22:08:59Z</time>
      </trkpt>
      <trkpt lat="35.935695190" lon="-106.512813740">
        <ele>2615.900</ele>
        <time>2019-07-14T22:09:00Z</time>
      </trkpt>
      <trkpt lat="35.935747480" lon="-106.512906180">
        <ele>2616.100</ele>
        <time>2019-07-14T22:09:01Z</time>
      </trkpt>
      <trkpt lat="35.935794420" lon="-106.512996380">
        <ele>2616.200</ele>
        <time>2019-07-14T22:09:02Z</time>
      </trkpt>
      <trkpt lat="35.935833580" lon="-106.513079760">
        <ele>2616.200</ele>
        <time>2019-07-14T22:09:03Z</time>
      </trkpt>
      <trkpt lat="35.935873080" lon="-106.513170380">
        <ele>2615.700</ele>
        <time>2019-07-14T22:09:04Z</time>
      </trkpt>
      <trkpt lat="35.935921590" lon="-106.513258440">
        <ele>2615.700</ele>
        <time>2019-07-14T22:09:05Z</time>
      </trkpt>
      <trkpt lat="35.935963520" lon="-106.513345040">
        <ele>2615.300</ele>
        <time>2019-07-14T22:09:06Z</time>
      </trkpt>
      <trkpt lat="35.936000790" lon="-106.513419760">
        <ele>2614.100</ele>
        <time>2019-07-14T22:09:07Z</time>
      </trkpt>
      <trkpt lat="35.936041250" lon="-106.513509830">
        <ele>2614.600</ele>
        <time>2019-07-14T22:09:08Z</time>
      </trkpt>
      <trkpt lat="35.936090610" lon="-106.513589220">
        <ele>2615.300</ele>
        <time>2019-07-14T22:09:09Z</time>
      </trkpt>
      <trkpt lat="35.936144020" lon="-106.513665940">
        <ele>2614.500</ele>
        <time>2019-07-14T22:09:10Z</time>
      </trkpt>
      <trkpt lat="35.936190020" lon="-106.513732320">
        <ele>2614.900</ele>
        <time>2019-07-14T22:09:11Z</time>
      </trkpt>
      <trkpt lat="35.936242380" lon="-106.513791790">
        <ele>2614.600</ele>
        <time>2019-07-14T22:09:12Z</time>
      </trkpt>
      <trkpt lat="35.936292660" lon="-106.513858930">
        <ele>2613.300</ele>
        <time>2019-07-14T22:09:13Z</time>
      </trkpt>
      <trkpt lat="35.936341680" lon="-106.513921900">
        <ele>2613.600</ele>
        <time>2019-07-14T22:09:14Z</time>
      </trkpt>
      <trkpt lat="35.936389530" lon="-106.513975410">
        <ele>2614.300</ele>
        <time>2019-07-14T22:09:15Z</time>
      </trkpt>
      <trkpt lat="35.936436340" lon="-106.514040190">
        <ele>2613.900</ele>
        <time>2019-07-14T22:09:16Z</time>
      </trkpt>
      <trkpt lat="35.936481190" lon="-106.514101050">
        <ele>2614.000</ele>
        <time>2019-07-14T22:09:17Z</time>
      </trkpt>
      <trkpt lat="35.936524230" lon="-106.514162500">
        <ele>2613.500</ele>
        <time>2019-07-14T22:09:18Z</time>
      </trkpt>
      <trkpt lat="35.936573850" lon="-106.514244140">
        <ele>2613.700</ele>
        <time>2019-07-14T22:09:19Z</time>
      </trkpt>
      <trkpt lat="35.936618620" lon="-106.514301610">
        <ele>2614.200</ele>
        <time>2019-07-14T22:09:20Z</time>
      </trkpt>
      <trkpt lat="35.936660980" lon="-106.514362820">
        <ele>2613.100</ele>
        <time>2019-07-14T22:09:21Z</time>
      </trkpt>
      <trkpt lat="35.936706650" lon="-106.514433070">
        <ele>2612.500</ele>
        <time>2019-07-14T22:09:22Z</time>
      </trkpt>
      <trkpt lat="35.936755180" lon="-106.514516450">
        <ele>2611.900</ele>
        <time>2019-07-14T22:09:23Z</time>
      </trkpt>
      <trkpt lat="35.936807710" lon="-106.514597850">
        <ele>2612.300</ele>
        <time>2019-07-14T22:09:24Z</time>
      </trkpt>
      <trkpt lat="35.936858400" lon="-106.514676250">
        <ele>2612.200</ele>
        <time>2019-07-14T22:09:25Z</time>
      </trkpt>
      <trkpt lat="35.936913670" lon="-106.514758230">
        <ele>2611.800</ele>
        <time>2019-07-14T22:09:26Z</time>
      </trkpt>
      <trkpt lat="35.936967040" lon="-106.514844450">
        <ele>2611.900</ele>
        <time>2019-07-14T22:09:27Z</time>
      </trkpt>
      <trkpt lat="35.937017420" lon="-106.514930840">
        <ele>2612.800</ele>
        <time>2019-07-14T22:09:28Z</time>
      </trkpt>
      <trkpt lat="35.937066400" lon="-106.515019690">
        <ele>2613.200</ele>
        <time>2019-07-14T22:09:29Z</time>
      </trkpt>
      <trkpt lat="35.937116740" lon="-106.515087880">
        <ele>2613.700</ele>
        <time>2019-07-14T22:09:30Z</time>
      </trkpt>
      <trkpt lat="35.937168760" lon="-106.515161300">
        <ele>2613.900</ele>
        <time>2019-07-14T22:09:31Z</time>
      </trkpt>
      <trkpt lat="35.937217920" lon="-106.515221520">
        <ele>2613.400</ele>
        <time>2019-07-14T22:09:32Z</time>
      </trkpt>
      <trkpt lat="35.937271450" lon="-106.515285630">
        <ele>2614.200</ele>
        <time>2019-07-14T22:09:33Z</time>
      </trkpt>
      <trkpt lat="35.937321970" lon="-106.515342040">
        <ele>2614.500</ele>
        <time>2019-07-14T22:09:34Z</time>
      </trkpt>
      <trkpt lat="35.937373620" lon="-106.515373360">
        <ele>2614.300</ele>
        <time>2019-07-14T22:09:35Z</time>
      </trkpt>
      <trkpt lat="35.937437890" lon="-106.515399980">
        <ele>2613.500</ele>
        <time>2019-07-14T22:09:36Z</time>
      </trkpt>
      <trkpt lat="35.937489550" lon="-106.515430480">
        <ele>2612.000</ele>
        <time>2019-07-14T22:09:37Z</time>
      </trkpt>
      <trkpt lat="35.937553780" lon="-106.515456640">
        <ele>2611.200</ele>
        <time>2019-07-14T22:09:38Z</time>
      </trkpt>
      <trkpt lat="35.937617030" lon="-106.515482020">
        <ele>2610.900</ele>
        <time>2019-07-14T22:09:39Z</time>
      </trkpt>
      <trkpt lat="35.937682300" lon="-106.515514890">
        <ele>2610.200</ele>
        <time>2019-07-14T22:09:40Z</time>
      </trkpt>
      <trkpt lat="35.937739910" lon="-106.515550440">
        <ele>2611.000</ele>
        <time>2019-07-14T22:09:41Z</time>
      </trkpt>
      <trkpt lat="35.937807240" lon="-106.515580680">
        <ele>2610.700</ele>
        <time>2019-07-14T22:09:42Z</time>
      </trkpt>
      <trkpt lat="35.937882310" lon="-106.515614160">
        <ele>2609.600</ele>
        <time>2019-07-14T22:09:43Z</time>
      </trkpt>
      <trkpt lat="35.937936960" lon="-106.515640630">
        <ele>2610.300</ele>
        <time>2019-07-14T22:09:44Z</time>
      </trkpt>
      <trkpt lat="35.938003540" lon="-106.515671150">
        <ele>2611.100</ele>
        <time>2019-07-14T22:09:45Z</time>
      </trkpt>
      <trkpt lat="35.938062150" lon="-106.515715950">
        <ele>2612.000</ele>
        <time>2019-07-14T22:09:46Z</time>
      </trkpt>
      <trkpt lat="35.938120170" lon="-106.515765700">
        <ele>2611.900</ele>
        <time>2019-07-14T22:09:47Z</time>
      </trkpt>
      <trkpt lat="35.938171430" lon="-106.515813180">
        <ele>2612.500</ele>
        <time>2019-07-14T22:09:48Z</time>
      </trkpt>
      <trkpt lat="35.938215690" lon="-106.515885020">
        <ele>2612.000</ele>
        <time>2019-07-14T22:09:49Z</time>
      </trkpt>
      <trkpt lat="35.938272380" lon="-106.515928760">
        <ele>2611.400</ele>
        <time>2019-07-14T22:09:50Z</time>
      </trkpt>
      <trkpt lat="35.938323610" lon="-106.516001030">
        <ele>2610.800</ele>
        <time>2019-07-14T22:09:51Z</time>
      </trkpt>
      <trkpt lat="35.938367540" lon="-106.516072450">
        <ele>2610.400</ele>
        <time>2019-07-14T22:09:52Z</time>
      </trkpt>
      <trkpt lat="35.938421090" lon="-106.516152490">
        <ele>2607.400</ele>
        <time>2019-07-14T22:09:53Z</time>
      </trkpt>
      <trkpt lat="35.938477830" lon="-106.516232420">
        <ele>2607.300</ele>
        <time>2019-07-14T22:09:54Z</time>
      </trkpt>
      <trkpt lat="35.938532570" lon="-106.516298140">
        <ele>2606.700</ele>
        <time>2019-07-14T22:09:55Z</time>
      </trkpt>
      <trkpt lat="35.938586720" lon="-106.516376210">
        <ele>2607.300</ele>
        <time>2019-07-14T22:09:56Z</time>
      </trkpt>
      <trkpt lat="35.938636450" lon="-106.516453660">
        <ele>2607.000</ele>
        <time>2019-07-14T22:09:57Z</time>
      </trkpt>
      <trkpt lat="35.938683840" lon="-106.516539610">
        <ele>2607.100</ele>
        <time>2019-07-14T22:09:58Z</time>
      </trkpt>
      <trkpt lat="35.938730190" lon="-106.516635650">
        <ele>2606.900</ele>
        <time>2019-07-14T22:09:59Z</time>
      </trkpt>
      <trkpt lat="35.938780740" lon="-106.516721910">
        <ele>2605.900</ele>
        <time>2019-07-14T22:10:00Z</time>
      </trkpt>
      <trkpt lat="35.938823780" lon="-106.516818560">
        <ele>2605.900</ele>
        <time>2019-07-14T22:10:01Z</time>
      </trkpt>
      <trkpt lat="35.938876000" lon="-106.516906880">
        <ele>2605.900</ele>
        <time>2019-07-14T22:10:02Z</time>
      </trkpt>
      <trkpt lat="35.938921750" lon="-106.516985220">
        <ele>2606.000</ele>
        <time>2019-07-14T22:10:03Z</time>
      </trkpt>
      <trkpt lat="35.938973560" lon="-106.517060590">
        <ele>2605.900</ele>
        <time>2019-07-14T22:10:04Z</time>
      </trkpt>
      <trkpt lat="35.939025210" lon="-106.517129210">
        <ele>2605.500</ele>
        <time>2019-07-14T22:10:05Z</time>
      </trkpt>
      <trkpt lat="35.939080110" lon="-106.517218090">
        <ele>2605.900</ele>
        <time>2019-07-14T22:10:06Z</time>
      </trkpt>
      <trkpt lat="35.939132510" lon="-106.517285600">
        <ele>2605.700</ele>
        <time>2019-07-14T22:10:07Z</time>
      </trkpt>
      <trkpt lat="35.939180760" lon="-106.517345100">
        <ele>2605.600</ele>
        <time>2019-07-14T22:10:08Z</time>
      </trkpt>
      <trkpt lat="35.939228360" lon="-106.517403630">
        <ele>2605.200</ele>
        <time>2019-07-14T22:10:09Z</time>
      </trkpt>
      <trkpt lat="35.939290040" lon="-106.517466260">
        <ele>2604.500</ele>
        <time>2019-07-14T22:10:10Z</time>
      </trkpt>
      <trkpt lat="35.939347550" lon="-106.517525530">
        <ele>2603.800</ele>
        <time>2019-07-14T22:10:11Z</time>
      </trkpt>
      <trkpt lat="35.939399340" lon="-106.517581900">
        <ele>2604.000</ele>
        <time>2019-07-14T22:10:12Z</time>
      </trkpt>
      <trkpt lat="35.939457970" lon="-106.517638670">
        <ele>2604.200</ele>
        <time>2019-07-14T22:10:13Z</time>
      </trkpt>
      <trkpt lat="35.939519790" lon="-106.517703330">
        <ele>2604.200</ele>
        <time>2019-07-14T22:10:14Z</time>
      </trkpt>
      <trkpt lat="35.939570020" lon="-106.517732630">
        <ele>2604.300</ele>
        <time>2019-07-14T22:10:15Z</time>
      </trkpt>
      <trkpt lat="35.939629270" lon="-106.517781820">
        <ele>2604.200</ele>
        <time>2019-07-14T22:10:16Z</time>
      </trkpt>
      <trkpt lat="35.939687040" lon="-106.517838790">
        <ele>2603.600</ele>
        <time>2019-07-14T22:10:17Z</time>
      </trkpt>
      <trkpt lat="35.939755660" lon="-106.517878580">
        <ele>2603.400</ele>
        <time>2019-07-14T22:10:18Z</time>
      </trkpt>
      <trkpt lat="35.939825790" lon="-106.517924670">
        <ele>2603.100</ele>
        <time>2019-07-14T22:10:19Z</time>
      </trkpt>
      <trkpt lat="35.939900570" lon="-106.517962230">
        <ele>2602.600</ele>
        <time>2019-07-14T22:10:20Z</time>
      </trkpt>
      <trkpt lat="35.939977440" lon="-106.517996770">
        <ele>2603.100</ele>
        <time>2019-07-14T22:10:21Z</time>
      </trkpt>
      <trkpt lat="35.940048650" lon="-106.518035770">
        <ele>2602.800</ele>
        <time>2019-07-14T22:10:22Z</time>
      </trkpt>
      <trkpt lat="35.940140460" lon="-106.518065330">
        <ele>2603.000</ele>
        <time>2019-07-14T22:10:23Z</time>
      </trkpt>
      <trkpt lat="35.940226520" lon="-106.518108340">
        <ele>2601.300</ele>
        <time>2019-07-14T22:10:24Z</time>
      </trkpt>
      <trkpt lat="35.940305770" lon="-106.518157630">
        <ele>2601.100</ele>
        <time>2019-07-14T22:10:25Z</time>
      </trkpt>
      <trkpt lat="35.940383050" lon="-106.518218010">
        <ele>2600.400</ele>
        <time>2019-07-14T22:10:26Z</time>
      </trkpt>
      <trkpt lat="35.940456310" lon="-106.518279310">
        <ele>2600.800</ele>
        <time>2019-07-14T22:10:27Z</time>
      </trkpt>
      <trkpt lat="35.940531990" lon="-106.518338850">
        <ele>2600.800</ele>
        <time>2019-07-14T22:10:28Z</time>
      </trkpt>
      <trkpt lat="35.940609990" lon="-106.518410730">
        <ele>2600.200</ele>
        <time>2019-07-14T22:10:29Z</time>
      </trkpt>
      <trkpt lat="35.940682850" lon="-106.518467590">
        <ele>2600.600</ele>
        <time>2019-07-14T22:10:30Z</time>
      </trkpt>
      <trkpt lat="35.940749590" lon="-106.518539590">
        <ele>2600.600</ele>
        <time>2019-07-14T22:10:31Z</time>
      </trkpt>
      <trkpt lat="35.940816100" lon="-106.518611290">
        <ele>2601.300</ele>
        <time>2019-07-14T22:10:32Z</time>
      </trkpt>
      <trkpt lat="35.940877510" lon="-106.518692530">
        <ele>2601.300</ele>
        <time>2019-07-14T22:10:33Z</time>
      </trkpt>
      <trkpt lat="35.940946200" lon="-106.518761340">
        <ele>2601.500</ele>
        <time>2019-07-14T22:10:34Z</time>
      </trkpt>
      <trkpt lat="35.941010900" lon="-106.518831750">
        <ele>2602.000</ele>
        <time>2019-07-14T22:10:35Z</time>
      </trkpt>
      <trkpt lat="35.941087390" lon="-106.518866920">
        <ele>2601.400</ele>
        <time>2019-07-14T22:10:36Z</time>
      </trkpt>
      <trkpt lat="35.941162690" lon="-106.518902800">
        <ele>2600.200</ele>
        <time>2019-07-14T22:10:37Z</time>
      </trkpt>
      <trkpt lat="35.941239830" lon="-106.518940320">
        <ele>2600.000</ele>
        <time>2019-07-14T22:10:38Z</time>
      </trkpt>
      <trkpt lat="35.941313430" lon="-106.518973340">
        <ele>2598.900</ele>
        <time>2019-07-14T22:10:39Z</time>
      </trkpt>
      <trkpt lat="35.941386030" lon="-106.518989900">
        <ele>2599.200</ele>
        <time>2019-07-14T22:10:40Z</time>
      </trkpt>
      <trkpt lat="35.941463070" lon="-106.518991310">
        <ele>2598.400</ele>
        <time>2019-07-14T22:10:41Z</time>
      </trkpt>
      <trkpt lat="35.941531100" lon="-106.518986930">
        <ele>2598.900</ele>
        <time>2019-07-14T22:10:42Z</time>
      </trkpt>
      <trkpt lat="35.941599270" lon="-106.518979020">
        <ele>2599.500</ele>
        <time>2019-07-14T22:10:43Z</time>
      </trkpt>
      <trkpt lat="35.941647970" lon="-106.518961480">
        <ele>2598.200</ele>
        <time>2019-07-14T22:10:44Z</time>
      </trkpt>
      <trkpt lat="35.941693530" lon="-106.518951890">
        <ele>2599.300</ele>
        <time>2019-07-14T22:10:45Z</time>
      </trkpt>
      <trkpt lat="35.941740120" lon="-106.518967260">
        <ele>2597.400</ele>
        <time>2019-07-14T22:10:46Z</time>
      </trkpt>
      <trkpt lat="35.941787650" lon="-106.518962940">
        <ele>2597.500</ele>
        <time>2019-07-14T22:10:47Z</time>
      </trkpt>
      <trkpt lat="35.941832340" lon="-106.518959310">
        <ele>2596.400</ele>
        <time>2019-07-14T22:10:48Z</time>
      </trkpt>
      <trkpt lat="35.941890240" lon="-106.518957400">
        <ele>2596.400</ele>
        <time>2019-07-14T22:10:49Z</time>
      </trkpt>
      <trkpt lat="35.941957230" lon="-106.518976730">
        <ele>2594.400</ele>
        <time>2019-07-14T22:10:50Z</time>
      </trkpt>
      <trkpt lat="35.942026850" lon="-106.518982930">
        <ele>2593.600</ele>
        <time>2019-07-14T22:10:51Z</time>
      </trkpt>
      <trkpt lat="35.942091420" lon="-106.519019130">
        <ele>2591.400</ele>
        <time>2019-07-14T22:10:52Z</time>
      </trkpt>
      <trkpt lat="35.942162010" lon="-106.519047300">
        <ele>2591.900</ele>
        <time>2019-07-14T22:10:53Z</time>
      </trkpt>
      <trkpt lat="35.942229490" lon="-106.519094170">
        <ele>2592.500</ele>
        <time>2019-07-14T22:10:54Z</time>
      </trkpt>
      <trkpt lat="35.942299570" lon="-106.519141700">
        <ele>2592.100</ele>
        <time>2019-07-14T22:10:55Z</time>
      </trkpt>
      <trkpt lat="35.942370030" lon="-106.519195950">
        <ele>2592.300</ele>
        <time>2019-07-14T22:10:56Z</time>
      </trkpt>
      <trkpt lat="35.942432840" lon="-106.519247090">
        <ele>2593.500</ele>
        <time>2019-07-14T22:10:57Z</time>
      </trkpt>
      <trkpt lat="35.942489980" lon="-106.519299310">
        <ele>2593.500</ele>
        <time>2019-07-14T22:10:58Z</time>
      </trkpt>
      <trkpt lat="35.942548880" lon="-106.519346720">
        <ele>2593.100</ele>
        <time>2019-07-14T22:10:59Z</time>
      </trkpt>
      <trkpt lat="35.942610710" lon="-106.519410840">
        <ele>2592.100</ele>
        <time>2019-07-14T22:11:00Z</time>
      </trkpt>
      <trkpt lat="35.942670910" lon="-106.519453530">
        <ele>2591.500</ele>
        <time>2019-07-14T22:11:01Z</time>
      </trkpt>
      <trkpt lat="35.942737420" lon="-106.519499530">
        <ele>2591.700</ele>
        <time>2019-07-14T22:11:02Z</time>
      </trkpt>
      <trkpt lat="35.942807260" lon="-106.519539010">
        <ele>2591.400</ele>
        <time>2019-07-14T22:11:03Z</time>
      </trkpt>
      <trkpt lat="35.942874420" lon="-106.519569200">
        <ele>2591.400</ele>
        <time>2019-07-14T22:11:04Z</time>
      </trkpt>
      <trkpt lat="35.942938650" lon="-106.519615140">
        <ele>2591.700</ele>
        <time>2019-07-14T22:11:05Z</time>
      </trkpt>
      <trkpt lat="35.943010650" lon="-106.519634670">
        <ele>2591.800</ele>
        <time>2019-07-14T22:11:06Z</time>
      </trkpt>
      <trkpt lat="35.943106660" lon="-106.519635960">
        <ele>2591.000</ele>
        <time>2019-07-14T22:11:07Z</time>
      </trkpt>
      <trkpt lat="35.943187410" lon="-106.519638880">
        <ele>2591.500</ele>
        <time>2019-07-14T22:11:08Z</time>
      </trkpt>
      <trkpt lat="35.943260370" lon="-106.519673150">
        <ele>2591.800</ele>
        <time>2019-07-14T22:11:09Z</time>
      </trkpt>
      <trkpt lat="35.943345430" lon="-106.519677630">
        <ele>2590.400</ele>
        <time>2019-07-14T22:11:10Z</time>
      </trkpt>
      <trkpt lat="35.943423840" lon="-106.519691550">
        <ele>2589.900</ele>
        <time>2019-07-14T22:11:11Z</time>
      </trkpt>
      <trkpt lat="35.943506520" lon="-106.519703840">
        <ele>2589.700</ele>
        <time>2019-07-14T22:11:12Z</time>
      </trkpt>
      <trkpt lat="35.943580780" lon="-106.519714660">
        <ele>2589.200</ele>
        <time>2019-07-14T22:11:13Z</time>
      </trkpt>
      <trkpt lat="35.943663280" lon="-106.519730250">
        <ele>2588.700</ele>
        <time>2019-07-14T22:11:14Z</time>
      </trkpt>
      <trkpt lat="35.943730450" lon="-106.519750860">
        <ele>2587.500</ele>
        <time>2019-07-14T22:11:15Z</time>
      </trkpt>
      <trkpt lat="35.943807680" lon="-106.519754560">
        <ele>2586.200</ele>
        <time>2019-07-14T22:11:16Z</time>
      </trkpt>
      <trkpt lat="35.943878610" lon="-106.519791060">
        <ele>2586.300</ele>
        <time>2019-07-14T22:11:17Z</time>
      </trkpt>
      <trkpt lat="35.943950560" lon="-106.519820600">
        <ele>2586.000</ele>
        <time>2019-07-14T22:11:18Z</time>
      </trkpt>
      <trkpt lat="35.944009050" lon="-106.519853610">
        <ele>2585.000</ele>
        <time>2019-07-14T22:11:19Z</time>
      </trkpt>
      <trkpt lat="35.944079770" lon="-106.519884530">
        <ele>2585.300</ele>
        <time>2019-07-14T22:11:20Z</time>
      </trkpt>
      <trkpt lat="35.944148640" lon="-106.519915680">
        <ele>2585.500</ele>
        <time>2019-07-14T22:11:21Z</time>
      </trkpt>
      <trkpt lat="35.944219480" lon="-106.519942770">
        <ele>2585.900</ele>
        <time>2019-07-14T22:11:22Z</time>
      </trkpt>
      <trkpt lat="35.944290350" lon="-106.519977700">
        <ele>2586.300</ele>
        <time>2019-07-14T22:11:23Z</time>
      </trkpt>
      <trkpt lat="35.944344840" lon="-106.519982150">
        <ele>2585.800</ele>
        <time>2019-07-14T22:11:24Z</time>
      </trkpt>
      <trkpt lat="35.944398580" lon="-106.520001580">
        <ele>2586.200</ele>
        <time>2019-07-14T22:11:25Z</time>
      </trkpt>
      <trkpt lat="35.944457890" lon="-106.519996960">
        <ele>2586.700</ele>
        <time>2019-07-14T22:11:27Z</time>
      </trkpt>
      <trkpt lat="35.944477480" lon="-106.520037580">
        <ele>2588.200</ele>
        <time>2019-07-14T22:13:31Z</time>
      </trkpt>
      <trkpt lat="35.944537440" lon="-106.520057290">
        <ele>2588.400</ele>
        <time>2019-07-14T22:13:33Z</time>
      </trkpt>
      <trkpt lat="35.944589320" lon="-106.520071370">
        <ele>2587.100</ele>
        <time>2019-07-14T22:13:34Z</time>
      </trkpt>
      <trkpt lat="35.944632020" lon="-106.520084550">
        <ele>2587.100</ele>
        <time>2019-07-14T22:13:35Z</time>
      </trkpt>
      <trkpt lat="35.944689280" lon="-106.520105420">
        <ele>2587.100</ele>
        <time>2019-07-14T22:13:36Z</time>
      </trkpt>
      <trkpt lat="35.944734720" lon="-106.520132270">
        <ele>2586.400</ele>
        <time>2019-07-14T22:13:37Z</time>
      </trkpt>
      <trkpt lat="35.944814050" lon="-106.520133360">
        <ele>2586.500</ele>
        <time>2019-07-14T22:13:38Z</time>
      </trkpt>
      <trkpt lat="35.944878430" lon="-106.520155680">
        <ele>2586.900</ele>
        <time>2019-07-14T22:13:39Z</time>
      </trkpt>
      <trkpt lat="35.944941850" lon="-106.520176780">
        <ele>2587.100</ele>
        <time>2019-07-14T22:13:40Z</time>
      </trkpt>
      <trkpt lat="35.945013360" lon="-106.520200250">
        <ele>2587.800</ele>
        <time>2019-07-14T22:13:41Z</time>
      </trkpt>
      <trkpt lat="35.945077990" lon="-106.520225770">
        <ele>2588.600</ele>
        <time>2019-07-14T22:13:42Z</time>
      </trkpt>
      <trkpt lat="35.945142690" lon="-106.520250110">
        <ele>2588.500</ele>
        <time>2019-07-14T22:13:43Z</time>
      </trkpt>
      <trkpt lat="35.945212890" lon="-106.520280880">
        <ele>2588.700</ele>
        <time>2019-07-14T22:13:44Z</time>
      </trkpt>
      <trkpt lat="35.945290380" lon="-106.520319030">
        <ele>2588.700</ele>
        <time>2019-07-14T22:13:45Z</time>
      </trkpt>
      <trkpt lat="35.945364730" lon="-106.520356970">
        <ele>2588.400</ele>
        <time>2019-07-14T22:13:46Z</time>
      </trkpt>
      <trkpt lat="35.945431200" lon="-106.520398730">
        <ele>2588.700</ele>
        <time>2019-07-14T22:13:47Z</time>
      </trkpt>
      <trkpt lat="35.945502250" lon="-106.520440860">
        <ele>2589.000</ele>
        <time>2019-07-14T22:13:48Z</time>
      </trkpt>
      <trkpt lat="35.945573100" lon="-106.520493950">
        <ele>2588.900</ele>
        <time>2019-07-14T22:13:49Z</time>
      </trkpt>
      <trkpt lat="35.945636500" lon="-106.520510350">
        <ele>2593.200</ele>
        <time>2019-07-14T22:13:50Z</time>
      </trkpt>
      <trkpt lat="35.945692840" lon="-106.520544440">
        <ele>2594.600</ele>
        <time>2019-07-14T22:13:51Z</time>
      </trkpt>
      <trkpt lat="35.945733760" lon="-106.520619270">
        <ele>2592.500</ele>
        <time>2019-07-14T22:13:52Z</time>
      </trkpt>
      <trkpt lat="35.945791430" lon="-106.520657500">
        <ele>2592.200</ele>
        <time>2019-07-14T22:13:53Z</time>
      </trkpt>
      <trkpt lat="35.945845220" lon="-106.520666320">
        <ele>2592.100</ele>
        <time>2019-07-14T22:13:54Z</time>
      </trkpt>
      <trkpt lat="35.945876880" lon="-106.520694210">
        <ele>2592.000</ele>
        <time>2019-07-14T22:13:55Z</time>
      </trkpt>
      <trkpt lat="35.945936020" lon="-106.520691840">
        <ele>2592.200</ele>
        <time>2019-07-14T22:13:56Z</time>
      </trkpt>
      <trkpt lat="35.946013170" lon="-106.520698400">
        <ele>2590.600</ele>
        <time>2019-07-14T22:13:57Z</time>
      </trkpt>
      <trkpt lat="35.946089360" lon="-106.520682990">
        <ele>2591.000</ele>
        <time>2019-07-14T22:13:58Z</time>
      </trkpt>
      <trkpt lat="35.946146710" lon="-106.520648410">
        <ele>2590.600</ele>
        <time>2019-07-14T22:13:59Z</time>
      </trkpt>
      <trkpt lat="35.946221470" lon="-106.520630670">
        <ele>2591.400</ele>
        <time>2019-07-14T22:14:00Z</time>
      </trkpt>
      <trkpt lat="35.946297940" lon="-106.520606360">
        <ele>2590.900</ele>
        <time>2019-07-14T22:14:01Z</time>
      </trkpt>
      <trkpt lat="35.946379700" lon="-106.520589360">
        <ele>2590.300</ele>
        <time>2019-07-14T22:14:02Z</time>
      </trkpt>
      <trkpt lat="35.946459920" lon="-106.520552800">
        <ele>2590.600</ele>
        <time>2019-07-14T22:14:03Z</time>
      </trkpt>
      <trkpt lat="35.946534580" lon="-106.520533230">
        <ele>2589.900</ele>
        <time>2019-07-14T22:14:04Z</time>
      </trkpt>
      <trkpt lat="35.946627040" lon="-106.520521010">
        <ele>2589.700</ele>
        <time>2019-07-14T22:14:05Z</time>
      </trkpt>
      <trkpt lat="35.946703530" lon="-106.520483530">
        <ele>2589.800</ele>
        <time>2019-07-14T22:14:06Z</time>
      </trkpt>
      <trkpt lat="35.946786020" lon="-106.520453870">
        <ele>2589.500</ele>
        <time>2019-07-14T22:14:07Z</time>
      </trkpt>
      <trkpt lat="35.946861840" lon="-106.520423950">
        <ele>2588.600</ele>
        <time>2019-07-14T22:14:08Z</time>
      </trkpt>
      <trkpt lat="35.946932420" lon="-106.520398190">
        <ele>2587.700</ele>
        <time>2019-07-14T22:14:09Z</time>
      </trkpt>
      <trkpt lat="35.946990620" lon="-106.520393610">
        <ele>2588.500</ele>
        <time>2019-07-14T22:14:10Z</time>
      </trkpt>
      <trkpt lat="35.947070890" lon="-106.520370690">
        <ele>2587.700</ele>
        <time>2019-07-14T22:14:11Z</time>
      </trkpt>
      <trkpt lat="35.947158840" lon="-106.520341680">
        <ele>2587.600</ele>
        <time>2019-07-14T22:14:12Z</time>
      </trkpt>
      <trkpt lat="35.947238690" lon="-106.520313300">
        <ele>2587.900</ele>
        <time>2019-07-14T22:14:13Z</time>
      </trkpt>
      <trkpt lat="35.947319280" lon="-106.520288430">
        <ele>2587.400</ele>
        <time>2019-07-14T22:14:14Z</time>
      </trkpt>
      <trkpt lat="35.947392910" lon="-106.520285430">
        <ele>2587.900</ele>
        <time>2019-07-14T22:14:15Z</time>
      </trkpt>
      <trkpt lat="35.947465310" lon="-106.520278890">
        <ele>2588.600</ele>
        <time>2019-07-14T22:14:16Z</time>
      </trkpt>
      <trkpt lat="35.947539840" lon="-106.520297100">
        <ele>2586.500</ele>
        <time>2019-07-14T22:14:17Z</time>
      </trkpt>
      <trkpt lat="35.947613150" lon="-106.520306760">
        <ele>2586.400</ele>
        <time>2019-07-14T22:14:18Z</time>
      </trkpt>
      <trkpt lat="35.947688260" lon="-106.520320810">
        <ele>2586.000</ele>
        <time>2019-07-14T22:14:19Z</time>
      </trkpt>
      <trkpt lat="35.947763110" lon="-106.520350260">
        <ele>2585.800</ele>
        <time>2019-07-14T22:14:20Z</time>
      </trkpt>
      <trkpt lat="35.947840150" lon="-106.520389530">
        <ele>2585.200</ele>
        <time>2019-07-14T22:14:21Z</time>
      </trkpt>
      <trkpt lat="35.947910030" lon="-106.520439390">
        <ele>2585.000</ele>
        <time>2019-07-14T22:14:22Z</time>
      </trkpt>
      <trkpt lat="35.947970980" lon="-106.520496470">
        <ele>2584.800</ele>
        <time>2019-07-14T22:14:23Z</time>
      </trkpt>
      <trkpt lat="35.948020660" lon="-106.520571150">
        <ele>2584.500</ele>
        <time>2019-07-14T22:14:24Z</time>
      </trkpt>
      <trkpt lat="35.948083840" lon="-106.520633580">
        <ele>2584.500</ele>
        <time>2019-07-14T22:14:25Z</time>
      </trkpt>
      <trkpt lat="35.948127370" lon="-106.520698830">
        <ele>2585.800</ele>
        <time>2019-07-14T22:14:26Z</time>
      </trkpt>
      <trkpt lat="35.948174210" lon="-106.520760620">
        <ele>2585.400</ele>
        <time>2019-07-14T22:14:27Z</time>
      </trkpt>
      <trkpt lat="35.948222850" lon="-106.520823270">
        <ele>2586.200</ele>
        <time>2019-07-14T22:14:28Z</time>
      </trkpt>
      <trkpt lat="35.948280030" lon="-106.520874070">
        <ele>2586.200</ele>
        <time>2019-07-14T22:14:29Z</time>
      </trkpt>
      <trkpt lat="35.948327860" lon="-106.520911600">
        <ele>2586.900</ele>
        <time>2019-07-14T22:14:30Z</time>
      </trkpt>
      <trkpt lat="35.948381220" lon="-106.520929500">
        <ele>2587.000</ele>
        <time>2019-07-14T22:14:31Z</time>
      </trkpt>
      <trkpt lat="35.948434130" lon="-106.520952470">
        <ele>2588.700</ele>
        <time>2019-07-14T22:14:32Z</time>
      </trkpt>
      <trkpt lat="35.948480680" lon="-106.520962410">
        <ele>2589.100</ele>
        <time>2019-07-14T22:14:33Z</time>
      </trkpt>
      <trkpt lat="35.948538120" lon="-106.520962730">
        <ele>2589.300</ele>
        <time>2019-07-14T22:14:34Z</time>
      </trkpt>
      <trkpt lat="35.948594570" lon="-106.520975310">
        <ele>2590.000</ele>
        <time>2019-07-14T22:14:35Z</time>
      </trkpt>
      <trkpt lat="35.948649200" lon="-106.520966480">
        <ele>2589.300</ele>
        <time>2019-07-14T22:14:36Z</time>
      </trkpt>
      <trkpt lat="35.948697820" lon="-106.520947150">
        <ele>2589.000</ele>
        <time>2019-07-14T22:14:37Z</time>
      </trkpt>
      <trkpt lat="35.948753160" lon="-106.520933610">
        <ele>2588.000</ele>
        <time>2019-07-14T22:14:38Z</time>
      </trkpt>
      <trkpt lat="35.948803210" lon="-106.520905960">
        <ele>2588.400</ele>
        <time>2019-07-14T22:14:39Z</time>
      </trkpt>
      <trkpt lat="35.948853380" lon="-106.520870430">
        <ele>2588.300</ele>
        <time>2019-07-14T22:14:40Z</time>
      </trkpt>
      <trkpt lat="35.948904610" lon="-106.520811400">
        <ele>2588.600</ele>
        <time>2019-07-14T22:14:41Z</time>
      </trkpt>
      <trkpt lat="35.948946360" lon="-106.520767160">
        <ele>2588.400</ele>
        <time>2019-07-14T22:14:42Z</time>
      </trkpt>
      <trkpt lat="35.949011040" lon="-106.520720820">
        <ele>2588.300</ele>
        <time>2019-07-14T22:14:43Z</time>
      </trkpt>
      <trkpt lat="35.949063580" lon="-106.520675990">
        <ele>2590.300</ele>
        <time>2019-07-14T22:14:44Z</time>
      </trkpt>
      <trkpt lat="35.949116280" lon="-106.520630530">
        <ele>2590.400</ele>
        <time>2019-07-14T22:14:45Z</time>
      </trkpt>
      <trkpt lat="35.949167980" lon="-106.520592760">
        <ele>2590.300</ele>
        <time>2019-07-14T22:14:46Z</time>
      </trkpt>
      <trkpt lat="35.949235550" lon="-106.520553590">
        <ele>2588.900</ele>
        <time>2019-07-14T22:14:47Z</time>
      </trkpt>
      <trkpt lat="35.949302310" lon="-106.520521840">
        <ele>2589.600</ele>
        <time>2019-07-14T22:14:48Z</time>
      </trkpt>
      <trkpt lat="35.949366020" lon="-106.520488570">
        <ele>2589.700</ele>
        <time>2019-07-14T22:14:49Z</time>
      </trkpt>
      <trkpt lat="35.949434610" lon="-106.520450670">
        <ele>2589.400</ele>
        <time>2019-07-14T22:14:50Z</time>
      </trkpt>
      <trkpt lat="35.949503960" lon="-106.520413670">
        <ele>2588.900</ele>
        <time>2019-07-14T22:14:51Z</time>
      </trkpt>
      <trkpt lat="35.949575500" lon="-106.520380090">
        <ele>2589.100</ele>
        <time>2019-07-14T22:14:52Z</time>
      </trkpt>
      <trkpt lat="35.949659780" lon="-106.520358630">
        <ele>2588.600</ele>
        <time>2019-07-14T22:14:53Z</time>
      </trkpt>
      <trkpt lat="35.949722530" lon="-106.520346310">
        <ele>2588.500</ele>
        <time>2019-07-14T22:14:54Z</time>
      </trkpt>
      <trkpt lat="35.949797300" lon="-106.520327930">
        <ele>2589.200</ele>
        <time>2019-07-14T22:14:55Z</time>
      </trkpt>
      <trkpt lat="35.949874140" lon="-106.520318720">
        <ele>2589.100</ele>
        <time>2019-07-14T22:14:56Z</time>
      </trkpt>
      <trkpt lat="35.949945950" lon="-106.520314810">
        <ele>2589.800</ele>
        <time>2019-07-14T22:14:57Z</time>
      </trkpt>
      <trkpt lat="35.950014730" lon="-106.520317030">
        <ele>2590.100</ele>
        <time>2019-07-14T22:14:58Z</time>
      </trkpt>
      <trkpt lat="35.950089310" lon="-106.520314870">
        <ele>2589.600</ele>
        <time>2019-07-14T22:14:59Z</time>
      </trkpt>
      <trkpt lat="35.950152910" lon="-106.520317630">
        <ele>2589.200</ele>
        <time>2019-07-14T22:15:00Z</time>
      </trkpt>
      <trkpt lat="35.950216450" lon="-106.520314300">
        <ele>2590.000</ele>
        <time>2019-07-14T22:15:01Z</time>
      </trkpt>
      <trkpt lat="35.950283460" lon="-106.520303210">
        <ele>2591.600</ele>
        <time>2019-07-14T22:15:02Z</time>
      </trkpt>
      <trkpt lat="35.950343870" lon="-106.520308860">
        <ele>2590.900</ele>
        <time>2019-07-14T22:15:03Z</time>
      </trkpt>
      <trkpt lat="35.950407600" lon="-106.520300000">
        <ele>2590.600</ele>
        <time>2019-07-14T22:15:04Z</time>
      </trkpt>
      <trkpt lat="35.950469180" lon="-106.520300230">
        <ele>2591.100</ele>
        <time>2019-07-14T22:15:05Z</time>
      </trkpt>
      <trkpt lat="35.950530620" lon="-106.520305890">
        <ele>2591.500</ele>
        <time>2019-07-14T22:15:06Z</time>
      </trkpt>
      <trkpt lat="35.950600500" lon="-106.520298270">
        <ele>2592.800</ele>
        <time>2019-07-14T22:15:07Z</time>
      </trkpt>
      <trkpt lat="35.950672540" lon="-106.520287770">
        <ele>2593.900</ele>
        <time>2019-07-14T22:15:08Z</time>
      </trkpt>
      <trkpt lat="35.950748830" lon="-106.520284630">
        <ele>2593.200</ele>
        <time>2019-07-14T22:15:09Z</time>
      </trkpt>
      <trkpt lat="35.950821020" lon="-106.520284680">
        <ele>2593.500</ele>
        <time>2019-07-14T22:15:10Z</time>
      </trkpt>
      <trkpt lat="35.950892410" lon="-106.520289490">
        <ele>2593.000</ele>
        <time>2019-07-14T22:15:11Z</time>
      </trkpt>
      <trkpt lat="35.950971150" lon="-106.520287700">
        <ele>2593.200</ele>
        <time>2019-07-14T22:15:12Z</time>
      </trkpt>
      <trkpt lat="35.951046770" lon="-106.520292330">
        <ele>2593.400</ele>
        <time>2019-07-14T22:15:13Z</time>
      </trkpt>
      <trkpt lat="35.951128670" lon="-106.520305820">
        <ele>2591.300</ele>
        <time>2019-07-14T22:15:14Z</time>
      </trkpt>
      <trkpt lat="35.951227570" lon="-106.520320490">
        <ele>2589.600</ele>
        <time>2019-07-14T22:15:15Z</time>
      </trkpt>
      <trkpt lat="35.951309170" lon="-106.520334990">
        <ele>2589.500</ele>
        <time>2019-07-14T22:15:16Z</time>
      </trkpt>
      <trkpt lat="35.951385340" lon="-106.520349500">
        <ele>2589.200</ele>
        <time>2019-07-14T22:15:17Z</time>
      </trkpt>
      <trkpt lat="35.951461400" lon="-106.520379750">
        <ele>2587.800</ele>
        <time>2019-07-14T22:15:18Z</time>
      </trkpt>
      <trkpt lat="35.951536240" lon="-106.520393910">
        <ele>2587.300</ele>
        <time>2019-07-14T22:15:19Z</time>
      </trkpt>
      <trkpt lat="35.951616190" lon="-106.520395590">
        <ele>2586.000</ele>
        <time>2019-07-14T22:15:20Z</time>
      </trkpt>
      <trkpt lat="35.951698740" lon="-106.520401420">
        <ele>2586.000</ele>
        <time>2019-07-14T22:15:21Z</time>
      </trkpt>
      <trkpt lat="35.951791430" lon="-106.520402710">
        <ele>2586.600</ele>
        <time>2019-07-14T22:15:22Z</time>
      </trkpt>
      <trkpt lat="35.951874410" lon="-106.520398910">
        <ele>2586.900</ele>
        <time>2019-07-14T22:15:23Z</time>
      </trkpt>
      <trkpt lat="35.951959100" lon="-106.520433120">
        <ele>2586.800</ele>
        <time>2019-07-14T22:15:24Z</time>
      </trkpt>
      <trkpt lat="35.952046850" lon="-106.520415150">
        <ele>2587.600</ele>
        <time>2019-07-14T22:15:25Z</time>
      </trkpt>
      <trkpt lat="35.952130130" lon="-106.520410700">
        <ele>2588.700</ele>
        <time>2019-07-14T22:15:26Z</time>
      </trkpt>
      <trkpt lat="35.952216050" lon="-106.520388140">
        <ele>2588.500</ele>
        <time>2019-07-14T22:15:27Z</time>
      </trkpt>
      <trkpt lat="35.952298210" lon="-106.520412590">
        <ele>2587.200</ele>
        <time>2019-07-14T22:15:28Z</time>
      </trkpt>
      <trkpt lat="35.952391990" lon="-106.520381150">
        <ele>2587.700</ele>
        <time>2019-07-14T22:15:29Z</time>
      </trkpt>
      <trkpt lat="35.952476210" lon="-106.520416220">
        <ele>2586.700</ele>
        <time>2019-07-14T22:15:30Z</time>
      </trkpt>
      <trkpt lat="35.952568830" lon="-106.520396690">
        <ele>2586.800</ele>
        <time>2019-07-14T22:15:31Z</time>
      </trkpt>
      <trkpt lat="35.952661610" lon="-106.520379520">
        <ele>2587.800</ele>
        <time>2019-07-14T22:15:32Z</time>
      </trkpt>
      <trkpt lat="35.952756660" lon="-106.520358780">
        <ele>2589.200</ele>
        <time>2019-07-14T22:15:33Z</time>
      </trkpt>
      <trkpt lat="35.952849570" lon="-106.520359960">
        <ele>2588.900</ele>
        <time>2019-07-14T22:15:34Z</time>
      </trkpt>
      <trkpt lat="35.952945030" lon="-106.520349060">
        <ele>2589.900</ele>
        <time>2019-07-14T22:15:35Z</time>
      </trkpt>
      <trkpt lat="35.953044560" lon="-106.520338360">
        <ele>2590.300</ele>
        <time>2019-07-14T22:15:36Z</time>
      </trkpt>
      <trkpt lat="35.953139510" lon="-106.520329530">
        <ele>2590.600</ele>
        <time>2019-07-14T22:15:37Z</time>
      </trkpt>
      <trkpt lat="35.953237210" lon="-106.520326480">
        <ele>2590.100</ele>
        <time>2019-07-14T22:15:38Z</time>
      </trkpt>
      <trkpt lat="35.953339510" lon="-106.520319190">
        <ele>2590.300</ele>
        <time>2019-07-14T22:15:39Z</time>
      </trkpt>
      <trkpt lat="35.953427710" lon="-106.520311530">
        <ele>2590.500</ele>
        <time>2019-07-14T22:15:40Z</time>
      </trkpt>
      <trkpt lat="35.953532540" lon="-106.520300630">
        <ele>2589.100</ele>
        <time>2019-07-14T22:15:41Z</time>
      </trkpt>
      <trkpt lat="35.953632040" lon="-106.520290240">
        <ele>2589.300</ele>
        <time>2019-07-14T22:15:42Z</time>
      </trkpt>
      <trkpt lat="35.953727820" lon="-106.520277840">
        <ele>2589.700</ele>
        <time>2019-07-14T22:15:43Z</time>
      </trkpt>
      <trkpt lat="35.953821870" lon="-106.520250470">
        <ele>2588.900</ele>
        <time>2019-07-14T22:15:44Z</time>
      </trkpt>
      <trkpt lat="35.953920150" lon="-106.520223520">
        <ele>2588.800</ele>
        <time>2019-07-14T22:15:45Z</time>
      </trkpt>
      <trkpt lat="35.954008050" lon="-106.520233700">
        <ele>2587.300</ele>
        <time>2019-07-14T22:15:46Z</time>
      </trkpt>
      <trkpt lat="35.954104440" lon="-106.520210640">
        <ele>2587.700</ele>
        <time>2019-07-14T22:15:47Z</time>
      </trkpt>
      <trkpt lat="35.954206060" lon="-106.520198910">
        <ele>2587.200</ele>
        <time>2019-07-14T22:15:48Z</time>
      </trkpt>
      <trkpt lat="35.954305040" lon="-106.520189010">
        <ele>2586.900</ele>
        <time>2019-07-14T22:15:49Z</time>
      </trkpt>
      <trkpt lat="35.954401090" lon="-106.520163550">
        <ele>2586.600</ele>
        <time>2019-07-14T22:15:50Z</time>
      </trkpt>
      <trkpt lat="35.954494780" lon="-106.520137850">
        <ele>2586.000</ele>
        <time>2019-07-14T22:15:51Z</time>
      </trkpt>
      <trkpt lat="35.954593940" lon="-106.520109500">
        <ele>2585.800</ele>
        <time>2019-07-14T22:15:52Z</time>
      </trkpt>
      <trkpt lat="35.954711060" lon="-106.520110680">
        <ele>2586.900</ele>
        <time>2019-07-14T22:15:53Z</time>
      </trkpt>
      <trkpt lat="35.954795670" lon="-106.520060550">
        <ele>2587.000</ele>
        <time>2019-07-14T22:15:54Z</time>
      </trkpt>
      <trkpt lat="35.954890760" lon="-106.520036660">
        <ele>2587.100</ele>
        <time>2019-07-14T22:15:55Z</time>
      </trkpt>
      <trkpt lat="35.954997960" lon="-106.520014700">
        <ele>2586.200</ele>
        <time>2019-07-14T22:15:56Z</time>
      </trkpt>
      <trkpt lat="35.955102720" lon="-106.519990700">
        <ele>2585.200</ele>
        <time>2019-07-14T22:15:57Z</time>
      </trkpt>
      <trkpt lat="35.955213470" lon="-106.519961510">
        <ele>2586.500</ele>
        <time>2019-07-14T22:15:58Z</time>
      </trkpt>
      <trkpt lat="35.955320240" lon="-106.519932730">
        <ele>2585.500</ele>
        <time>2019-07-14T22:15:59Z</time>
      </trkpt>
      <trkpt lat="35.955403330" lon="-106.519891850">
        <ele>2586.800</ele>
        <time>2019-07-14T22:16:00Z</time>
      </trkpt>
      <trkpt lat="35.955502770" lon="-106.519851880">
        <ele>2586.900</ele>
        <time>2019-07-14T22:16:01Z</time>
      </trkpt>
      <trkpt lat="35.955604830" lon="-106.519813320">
        <ele>2586.500</ele>
        <time>2019-07-14T22:16:02Z</time>
      </trkpt>
      <trkpt lat="35.955697180" lon="-106.519771610">
        <ele>2586.200</ele>
        <time>2019-07-14T22:16:03Z</time>
      </trkpt>
      <trkpt lat="35.955787760" lon="-106.519729900">
        <ele>2586.900</ele>
        <time>2019-07-14T22:16:04Z</time>
      </trkpt>
      <trkpt lat="35.955895980" lon="-106.519718310">
        <ele>2586.000</ele>
        <time>2019-07-14T22:16:05Z</time>
      </trkpt>
      <trkpt lat="35.955997410" lon="-106.519670970">
        <ele>2585.500</ele>
        <time>2019-07-14T22:16:06Z</time>
      </trkpt>
      <trkpt lat="35.956094450" lon="-106.519635420">
        <ele>2585.600</ele>
        <time>2019-07-14T22:16:07Z</time>
      </trkpt>
      <trkpt lat="35.956196020" lon="-106.519599900">
        <ele>2583.500</ele>
        <time>2019-07-14T22:16:08Z</time>
      </trkpt>
      <trkpt lat="35.956307500" lon="-106.519577510">
        <ele>2584.300</ele>
        <time>2019-07-14T22:16:09Z</time>
      </trkpt>
      <trkpt lat="35.956413870" lon="-106.519536940">
        <ele>2585.600</ele>
        <time>2019-07-14T22:16:10Z</time>
      </trkpt>
      <trkpt lat="35.956526490" lon="-106.519488270">
        <ele>2584.700</ele>
        <time>2019-07-14T22:16:11Z</time>
      </trkpt>
      <trkpt lat="35.956631920" lon="-106.519458320">
        <ele>2584.700</ele>
        <time>2019-07-14T22:16:12Z</time>
      </trkpt>
      <trkpt lat="35.956744180" lon="-106.519404930">
        <ele>2584.800</ele>
        <time>2019-07-14T22:16:13Z</time>
      </trkpt>
      <trkpt lat="35.956836880" lon="-106.519372460">
        <ele>2584.500</ele>
        <time>2019-07-14T22:16:14Z</time>
      </trkpt>
      <trkpt lat="35.956925520" lon="-106.519343310">
        <ele>2584.200</ele>
        <time>2019-07-14T22:16:15Z</time>
      </trkpt>
      <trkpt lat="35.957008880" lon="-106.519331020">
        <ele>2584.100</ele>
        <time>2019-07-14T22:16:16Z</time>
      </trkpt>
      <trkpt lat="35.957108710" lon="-106.519277320">
        <ele>2583.500</ele>
        <time>2019-07-14T22:16:17Z</time>
      </trkpt>
      <trkpt lat="35.957229020" lon="-106.519243410">
        <ele>2583.500</ele>
        <time>2019-07-14T22:16:18Z</time>
      </trkpt>
      <trkpt lat="35.957331330" lon="-106.519220200">
        <ele>2582.000</ele>
        <time>2019-07-14T22:16:19Z</time>
      </trkpt>
      <trkpt lat="35.957438760" lon="-106.519169110">
        <ele>2581.400</ele>
        <time>2019-07-14T22:16:20Z</time>
      </trkpt>
      <trkpt lat="35.957539180" lon="-106.519142690">
        <ele>2580.400</ele>
        <time>2019-07-14T22:16:21Z</time>
      </trkpt>
      <trkpt lat="35.957640240" lon="-106.519100370">
        <ele>2579.300</ele>
        <time>2019-07-14T22:16:22Z</time>
      </trkpt>
      <trkpt lat="35.957698120" lon="-106.519074600">
        <ele>2577.600</ele>
        <time>2019-07-14T22:16:23Z</time>
      </trkpt>
      <trkpt lat="35.957812990" lon="-106.519022180">
        <ele>2578.800</ele>
        <time>2019-07-14T22:16:24Z</time>
      </trkpt>
      <trkpt lat="35.957922570" lon="-106.518961080">
        <ele>2578.700</ele>
        <time>2019-07-14T22:16:25Z</time>
      </trkpt>
      <trkpt lat="35.958035660" lon="-106.518894160">
        <ele>2577.600</ele>
        <time>2019-07-14T22:16:26Z</time>
      </trkpt>
      <trkpt lat="35.958120030" lon="-106.518856000">
        <ele>2578.900</ele>
        <time>2019-07-14T22:16:27Z</time>
      </trkpt>
      <trkpt lat="35.958220110" lon="-106.518787030">
        <ele>2578.300</ele>
        <time>2019-07-14T22:16:28Z</time>
      </trkpt>
      <trkpt lat="35.958321580" lon="-106.518711670">
        <ele>2577.100</ele>
        <time>2019-07-14T22:16:29Z</time>
      </trkpt>
      <trkpt lat="35.958414720" lon="-106.518636480">
        <ele>2576.000</ele>
        <time>2019-07-14T22:16:30Z</time>
      </trkpt>
      <trkpt lat="35.958508470" lon="-106.518575730">
        <ele>2574.800</ele>
        <time>2019-07-14T22:16:31Z</time>
      </trkpt>
      <trkpt lat="35.958593650" lon="-106.518505250">
        <ele>2574.300</ele>
        <time>2019-07-14T22:16:32Z</time>
      </trkpt>
      <trkpt lat="35.958679870" lon="-106.518446510">
        <ele>2574.400</ele>
        <time>2019-07-14T22:16:33Z</time>
      </trkpt>
      <trkpt lat="35.958770230" lon="-106.518362370">
        <ele>2574.800</ele>
        <time>2019-07-14T22:16:34Z</time>
      </trkpt>
      <trkpt lat="35.958846870" lon="-106.518295300">
        <ele>2574.700</ele>
        <time>2019-07-14T22:16:35Z</time>
      </trkpt>
      <trkpt lat="35.958925610" lon="-106.518234630">
        <ele>2574.100</ele>
        <time>2019-07-14T22:16:36Z</time>
      </trkpt>
      <trkpt lat="35.959006960" lon="-106.518168000">
        <ele>2574.900</ele>
        <time>2019-07-14T22:16:37Z</time>
      </trkpt>
      <trkpt lat="35.959086660" lon="-106.518087920">
        <ele>2575.800</ele>
        <time>2019-07-14T22:16:38Z</time>
      </trkpt>
      <trkpt lat="35.959172720" lon="-106.518002370">
        <ele>2574.800</ele>
        <time>2019-07-14T22:16:39Z</time>
      </trkpt>
      <trkpt lat="35.959234430" lon="-106.517916890">
        <ele>2574.800</ele>
        <time>2019-07-14T22:16:40Z</time>
      </trkpt>
      <trkpt lat="35.959298080" lon="-106.517831120">
        <ele>2574.200</ele>
        <time>2019-07-14T22:16:41Z</time>
      </trkpt>
      <trkpt lat="35.959365580" lon="-106.517728930">
        <ele>2573.600</ele>
        <time>2019-07-14T22:16:42Z</time>
      </trkpt>
      <trkpt lat="35.959444340" lon="-106.517652590">
        <ele>2572.600</ele>
        <time>2019-07-14T22:16:43Z</time>
      </trkpt>
      <trkpt lat="35.959506520" lon="-106.517548810">
        <ele>2573.200</ele>
        <time>2019-07-14T22:16:44Z</time>
      </trkpt>
      <trkpt lat="35.959573540" lon="-106.517461110">
        <ele>2573.700</ele>
        <time>2019-07-14T22:16:45Z</time>
      </trkpt>
      <trkpt lat="35.959643620" lon="-106.517373080">
        <ele>2573.500</ele>
        <time>2019-07-14T22:16:46Z</time>
      </trkpt>
      <trkpt lat="35.959710460" lon="-106.517286870">
        <ele>2574.300</ele>
        <time>2019-07-14T22:16:47Z</time>
      </trkpt>
      <trkpt lat="35.959777090" lon="-106.517200660">
        <ele>2574.100</ele>
        <time>2019-07-14T22:16:48Z</time>
      </trkpt>
      <trkpt lat="35.959836140" lon="-106.517123800">
        <ele>2574.600</ele>
        <time>2019-07-14T22:16:49Z</time>
      </trkpt>
      <trkpt lat="35.959899630" lon="-106.517042810">
        <ele>2575.000</ele>
        <time>2019-07-14T22:16:50Z</time>
      </trkpt>
      <trkpt lat="35.959969040" lon="-106.516943170">
        <ele>2573.200</ele>
        <time>2019-07-14T22:16:51Z</time>
      </trkpt>
      <trkpt lat="35.960020490" lon="-106.516877210">
        <ele>2572.800</ele>
        <time>2019-07-14T22:16:52Z</time>
      </trkpt>
      <trkpt lat="35.960084390" lon="-106.516801270">
        <ele>2573.300</ele>
        <time>2019-07-14T22:16:53Z</time>
      </trkpt>
      <trkpt lat="35.960160850" lon="-106.516702920">
        <ele>2572.800</ele>
        <time>2019-07-14T22:16:54Z</time>
      </trkpt>
      <trkpt lat="35.960216230" lon="-106.516628720">
        <ele>2572.800</ele>
        <time>2019-07-14T22:16:55Z</time>
      </trkpt>
      <trkpt lat="35.960301300" lon="-106.516538880">
        <ele>2574.900</ele>
        <time>2019-07-14T22:16:56Z</time>
      </trkpt>
      <trkpt lat="35.960379120" lon="-106.516426010">
        <ele>2575.400</ele>
        <time>2019-07-14T22:16:57Z</time>
      </trkpt>
      <trkpt lat="35.960481030" lon="-106.516363880">
        <ele>2574.800</ele>
        <time>2019-07-14T22:16:58Z</time>
      </trkpt>
      <trkpt lat="35.960513650" lon="-106.516300980">
        <ele>2574.800</ele>
        <time>2019-07-14T22:16:59Z</time>
      </trkpt>
      <trkpt lat="35.960564940" lon="-106.516225790">
        <ele>2573.500</ele>
        <time>2019-07-14T22:17:00Z</time>
      </trkpt>
      <trkpt lat="35.960625090" lon="-106.516140530">
        <ele>2573.000</ele>
        <time>2019-07-14T22:17:01Z</time>
      </trkpt>
      <trkpt lat="35.960668840" lon="-106.516073790">
        <ele>2573.300</ele>
        <time>2019-07-14T22:17:02Z</time>
      </trkpt>
      <trkpt lat="35.960720970" lon="-106.516014210">
        <ele>2573.300</ele>
        <time>2019-07-14T22:17:03Z</time>
      </trkpt>
      <trkpt lat="35.960776070" lon="-106.515940400">
        <ele>2573.600</ele>
        <time>2019-07-14T22:17:04Z</time>
      </trkpt>
      <trkpt lat="35.960845340" lon="-106.515847780">
        <ele>2574.300</ele>
        <time>2019-07-14T22:17:05Z</time>
      </trkpt>
      <trkpt lat="35.960900970" lon="-106.515772410">
        <ele>2574.900</ele>
        <time>2019-07-14T22:17:06Z</time>
      </trkpt>
      <trkpt lat="35.960956840" lon="-106.515698280">
        <ele>2575.300</ele>
        <time>2019-07-14T22:17:07Z</time>
      </trkpt>
      <trkpt lat="35.961010850" lon="-106.515622130">
        <ele>2575.300</ele>
        <time>2019-07-14T22:17:08Z</time>
      </trkpt>
      <trkpt lat="35.961085990" lon="-106.515534920">
        <ele>2576.000</ele>
        <time>2019-07-14T22:17:09Z</time>
      </trkpt>
      <trkpt lat="35.961138990" lon="-106.515460280">
        <ele>2575.400</ele>
        <time>2019-07-14T22:17:10Z</time>
      </trkpt>
      <trkpt lat="35.961213590" lon="-106.515379670">
        <ele>2574.400</ele>
        <time>2019-07-14T22:17:11Z</time>
      </trkpt>
      <trkpt lat="35.961278810" lon="-106.515307240">
        <ele>2575.100</ele>
        <time>2019-07-14T22:17:12Z</time>
      </trkpt>
      <trkpt lat="35.961345650" lon="-106.515244510">
        <ele>2573.000</ele>
        <time>2019-07-14T22:17:13Z</time>
      </trkpt>
      <trkpt lat="35.961410620" lon="-106.515168630">
        <ele>2574.500</ele>
        <time>2019-07-14T22:17:14Z</time>
      </trkpt>
      <trkpt lat="35.961479960" lon="-106.515104390">
        <ele>2575.200</ele>
        <time>2019-07-14T22:17:15Z</time>
      </trkpt>
      <trkpt lat="35.961543720" lon="-106.515027920">
        <ele>2575.800</ele>
        <time>2019-07-14T22:17:16Z</time>
      </trkpt>
      <trkpt lat="35.961611360" lon="-106.514952790">
        <ele>2576.700</ele>
        <time>2019-07-14T22:17:17Z</time>
      </trkpt>
      <trkpt lat="35.961680800" lon="-106.514877490">
        <ele>2577.300</ele>
        <time>2019-07-14T22:17:18Z</time>
      </trkpt>
      <trkpt lat="35.961746290" lon="-106.514801430">
        <ele>2576.700</ele>
        <time>2019-07-14T22:17:19Z</time>
      </trkpt>
      <trkpt lat="35.961822630" lon="-106.514723690">
        <ele>2577.900</ele>
        <time>2019-07-14T22:17:20Z</time>
      </trkpt>
      <trkpt lat="35.961897860" lon="-106.514661710">
        <ele>2576.600</ele>
        <time>2019-07-14T22:17:21Z</time>
      </trkpt>
      <trkpt lat="35.961969620" lon="-106.514594760">
        <ele>2575.100</ele>
        <time>2019-07-14T22:17:22Z</time>
      </trkpt>
      <trkpt lat="35.962042830" lon="-106.514510150">
        <ele>2575.000</ele>
        <time>2019-07-14T22:17:23Z</time>
      </trkpt>
      <trkpt lat="35.962115410" lon="-106.514436750">
        <ele>2574.900</ele>
        <time>2019-07-14T22:17:24Z</time>
      </trkpt>
      <trkpt lat="35.962208280" lon="-106.514365890">
        <ele>2575.800</ele>
        <time>2019-07-14T22:17:25Z</time>
      </trkpt>
      <trkpt lat="35.962292840" lon="-106.514309910">
        <ele>2575.600</ele>
        <time>2019-07-14T22:17:26Z</time>
      </trkpt>
      <trkpt lat="35.962371570" lon="-106.514248780">
        <ele>2576.100</ele>
        <time>2019-07-14T22:17:27Z</time>
      </trkpt>
      <trkpt lat="35.962455630" lon="-106.514197360">
        <ele>2575.100</ele>
        <time>2019-07-14T22:17:28Z</time>
      </trkpt>
      <trkpt lat="35.962546740" lon="-106.514159470">
        <ele>2574.200</ele>
        <time>2019-07-14T22:17:29Z</time>
      </trkpt>
      <trkpt lat="35.962626450" lon="-106.514146750">
        <ele>2573.800</ele>
        <time>2019-07-14T22:17:30Z</time>
      </trkpt>
      <trkpt lat="35.962713530" lon="-106.514152990">
        <ele>2572.300</ele>
        <time>2019-07-14T22:17:31Z</time>
      </trkpt>
      <trkpt lat="35.962794570" lon="-106.514183390">
        <ele>2570.700</ele>
        <time>2019-07-14T22:17:32Z</time>
      </trkpt>
      <trkpt lat="35.962879650" lon="-106.514196220">
        <ele>2571.100</ele>
        <time>2019-07-14T22:17:33Z</time>
      </trkpt>
      <trkpt lat="35.962967530" lon="-106.514216030">
        <ele>2571.200</ele>
        <time>2019-07-14T22:17:34Z</time>
      </trkpt>
      <trkpt lat="35.963054880" lon="-106.514228790">
        <ele>2571.200</ele>
        <time>2019-07-14T22:17:35Z</time>
      </trkpt>
      <trkpt lat="35.963149070" lon="-106.514250220">
        <ele>2571.900</ele>
        <time>2019-07-14T22:17:36Z</time>
      </trkpt>
      <trkpt lat="35.963242890" lon="-106.514266430">
        <ele>2571.700</ele>
        <time>2019-07-14T22:17:37Z</time>
      </trkpt>
      <trkpt lat="35.963336910" lon="-106.514283420">
        <ele>2573.000</ele>
        <time>2019-07-14T22:17:38Z</time>
      </trkpt>
      <trkpt lat="35.963427960" lon="-106.514323470">
        <ele>2575.300</ele>
        <time>2019-07-14T22:17:39Z</time>
      </trkpt>
      <trkpt lat="35.963523310" lon="-106.514360080">
        <ele>2575.400</ele>
        <time>2019-07-14T22:17:40Z</time>
      </trkpt>
      <trkpt lat="35.963618960" lon="-106.514387160">
        <ele>2576.000</ele>
        <time>2019-07-14T22:17:41Z</time>
      </trkpt>
      <trkpt lat="35.963707790" lon="-106.514436980">
        <ele>2576.300</ele>
        <time>2019-07-14T22:17:42Z</time>
      </trkpt>
      <trkpt lat="35.963801240" lon="-106.514483760">
        <ele>2576.400</ele>
        <time>2019-07-14T22:17:43Z</time>
      </trkpt>
      <trkpt lat="35.963888130" lon="-106.514550460">
        <ele>2576.600</ele>
        <time>2019-07-14T22:17:44Z</time>
      </trkpt>
      <trkpt lat="35.963979310" lon="-106.514610460">
        <ele>2577.700</ele>
        <time>2019-07-14T22:17:45Z</time>
      </trkpt>
      <trkpt lat="35.964068620" lon="-106.514652550">
        <ele>2578.300</ele>
        <time>2019-07-14T22:17:46Z</time>
      </trkpt>
      <trkpt lat="35.964176210" lon="-106.514701300">
        <ele>2578.100</ele>
        <time>2019-07-14T22:17:47Z</time>
      </trkpt>
      <trkpt lat="35.964266630" lon="-106.514748180">
        <ele>2578.300</ele>
        <time>2019-07-14T22:17:48Z</time>
      </trkpt>
      <trkpt lat="35.964355670" lon="-106.514794290">
        <ele>2578.400</ele>
        <time>2019-07-14T22:17:49Z</time>
      </trkpt>
      <trkpt lat="35.964446650" lon="-106.514846030">
        <ele>2578.600</ele>
        <time>2019-07-14T22:17:50Z</time>
      </trkpt>
      <trkpt lat="35.964539000" lon="-106.514882470">
        <ele>2578.200</ele>
        <time>2019-07-14T22:17:51Z</time>
      </trkpt>
      <trkpt lat="35.964636330" lon="-106.514918630">
        <ele>2578.500</ele>
        <time>2019-07-14T22:17:52Z</time>
      </trkpt>
      <trkpt lat="35.964734670" lon="-106.514993450">
        <ele>2577.300</ele>
        <time>2019-07-14T22:17:53Z</time>
      </trkpt>
      <trkpt lat="35.964832840" lon="-106.515073320">
        <ele>2576.100</ele>
        <time>2019-07-14T22:17:54Z</time>
      </trkpt>
      <trkpt lat="35.964922000" lon="-106.515140190">
        <ele>2576.400</ele>
        <time>2019-07-14T22:17:55Z</time>
      </trkpt>
      <trkpt lat="35.965004450" lon="-106.515205350">
        <ele>2576.700</ele>
        <time>2019-07-14T22:17:56Z</time>
      </trkpt>
      <trkpt lat="35.965085550" lon="-106.515293950">
        <ele>2576.100</ele>
        <time>2019-07-14T22:17:57Z</time>
      </trkpt>
      <trkpt lat="35.965166240" lon="-106.515375420">
        <ele>2574.800</ele>
        <time>2019-07-14T22:17:58Z</time>
      </trkpt>
      <trkpt lat="35.965249750" lon="-106.515473280">
        <ele>2575.300</ele>
        <time>2019-07-14T22:17:59Z</time>
      </trkpt>
      <trkpt lat="35.965338910" lon="-106.515570720">
        <ele>2575.700</ele>
        <time>2019-07-14T22:18:00Z</time>
      </trkpt>
      <trkpt lat="35.965420940" lon="-106.515670210">
        <ele>2576.500</ele>
        <time>2019-07-14T22:18:01Z</time>
      </trkpt>
      <trkpt lat="35.965506920" lon="-106.515773560">
        <ele>2575.000</ele>
        <time>2019-07-14T22:18:02Z</time>
      </trkpt>
      <trkpt lat="35.965579430" lon="-106.515856560">
        <ele>2576.000</ele>
        <time>2019-07-14T22:18:03Z</time>
      </trkpt>
      <trkpt lat="35.965660130" lon="-106.515954310">
        <ele>2573.000</ele>
        <time>2019-07-14T22:18:04Z</time>
      </trkpt>
      <trkpt lat="35.965749020" lon="-106.516047580">
        <ele>2573.400</ele>
        <time>2019-07-14T22:18:05Z</time>
      </trkpt>
      <trkpt lat="35.965823430" lon="-106.516136500">
        <ele>2573.200</ele>
        <time>2019-07-14T22:18:06Z</time>
      </trkpt>
      <trkpt lat="35.965905710" lon="-106.516233470">
        <ele>2573.400</ele>
        <time>2019-07-14T22:18:07Z</time>
      </trkpt>
      <trkpt lat="35.965987750" lon="-106.516329640">
        <ele>2573.400</ele>
        <time>2019-07-14T22:18:08Z</time>
      </trkpt>
      <trkpt lat="35.966063860" lon="-106.516431740">
        <ele>2573.300</ele>
        <time>2019-07-14T22:18:09Z</time>
      </trkpt>
      <trkpt lat="35.966140980" lon="-106.516532100">
        <ele>2573.400</ele>
        <time>2019-07-14T22:18:10Z</time>
      </trkpt>
      <trkpt lat="35.966218640" lon="-106.516626770">
        <ele>2573.500</ele>
        <time>2019-07-14T22:18:11Z</time>
      </trkpt>
      <trkpt lat="35.966290570" lon="-106.516721620">
        <ele>2573.500</ele>
        <time>2019-07-14T22:18:12Z</time>
      </trkpt>
      <trkpt lat="35.966368470" lon="-106.516814980">
        <ele>2573.500</ele>
        <time>2019-07-14T22:18:13Z</time>
      </trkpt>
      <trkpt lat="35.966442940" lon="-106.516912160">
        <ele>2573.400</ele>
        <time>2019-07-14T22:18:14Z</time>
      </trkpt>
      <trkpt lat="35.966516480" lon="-106.517011710">
        <ele>2573.500</ele>
        <time>2019-07-14T22:18:15Z</time>
      </trkpt>
      <trkpt lat="35.966591690" lon="-106.517115490">
        <ele>2573.200</ele>
        <time>2019-07-14T22:18:16Z</time>
      </trkpt>
      <trkpt lat="35.966666480" lon="-106.517212980">
        <ele>2573.100</ele>
        <time>2019-07-14T22:18:17Z</time>
      </trkpt>
      <trkpt lat="35.966741490" lon="-106.517318310">
        <ele>2573.500</ele>
        <time>2019-07-14T22:18:18Z</time>
      </trkpt>
      <trkpt lat="35.966813620" lon="-106.517422110">
        <ele>2574.400</ele>
        <time>2019-07-14T22:18:19Z</time>
      </trkpt>
      <trkpt lat="35.966883980" lon="-106.517522170">
        <ele>2574.400</ele>
        <time>2019-07-14T22:18:20Z</time>
      </trkpt>
      <trkpt lat="35.966954270" lon="-106.517631910">
        <ele>2574.000</ele>
        <time>2019-07-14T22:18:21Z</time>
      </trkpt>
      <trkpt lat="35.967028110" lon="-106.517740100">
        <ele>2572.600</ele>
        <time>2019-07-14T22:18:22Z</time>
      </trkpt>
      <trkpt lat="35.967102870" lon="-106.517847220">
        <ele>2572.600</ele>
        <time>2019-07-14T22:18:23Z</time>
      </trkpt>
      <trkpt lat="35.967172540" lon="-106.517953110">
        <ele>2573.200</ele>
        <time>2019-07-14T22:18:24Z</time>
      </trkpt>
      <trkpt lat="35.967250060" lon="-106.518088010">
        <ele>2572.200</ele>
        <time>2019-07-14T22:18:25Z</time>
      </trkpt>
      <trkpt lat="35.967316430" lon="-106.518191030">
        <ele>2574.000</ele>
        <time>2019-07-14T22:18:26Z</time>
      </trkpt>
      <trkpt lat="35.967374570" lon="-106.518294290">
        <ele>2574.800</ele>
        <time>2019-07-14T22:18:27Z</time>
      </trkpt>
      <trkpt lat="35.967436340" lon="-106.518395310">
        <ele>2574.100</ele>
        <time>2019-07-14T22:18:28Z</time>
      </trkpt>
      <trkpt lat="35.967499080" lon="-106.518512310">
        <ele>2575.400</ele>
        <time>2019-07-14T22:18:29Z</time>
      </trkpt>
      <trkpt lat="35.967561330" lon="-106.518635510">
        <ele>2575.000</ele>
        <time>2019-07-14T22:18:30Z</time>
      </trkpt>
      <trkpt lat="35.967640410" lon="-106.518745010">
        <ele>2575.800</ele>
        <time>2019-07-14T22:18:31Z</time>
      </trkpt>
      <trkpt lat="35.967703620" lon="-106.518859810">
        <ele>2576.800</ele>
        <time>2019-07-14T22:18:32Z</time>
      </trkpt>
      <trkpt lat="35.967765990" lon="-106.518979160">
        <ele>2576.400</ele>
        <time>2019-07-14T22:18:33Z</time>
      </trkpt>
      <trkpt lat="35.967835280" lon="-106.519092270">
        <ele>2576.800</ele>
        <time>2019-07-14T22:18:34Z</time>
      </trkpt>
      <trkpt lat="35.967900730" lon="-106.519206920">
        <ele>2577.100</ele>
        <time>2019-07-14T22:18:35Z</time>
      </trkpt>
      <trkpt lat="35.967962640" lon="-106.519315400">
        <ele>2576.400</ele>
        <time>2019-07-14T22:18:36Z</time>
      </trkpt>
      <trkpt lat="35.968017680" lon="-106.519449680">
        <ele>2576.500</ele>
        <time>2019-07-14T22:18:37Z</time>
      </trkpt>
      <trkpt lat="35.968094020" lon="-106.519576710">
        <ele>2576.200</ele>
        <time>2019-07-14T22:18:38Z</time>
      </trkpt>
      <trkpt lat="35.968157390" lon="-106.519695150">
        <ele>2576.500</ele>
        <time>2019-07-14T22:18:39Z</time>
      </trkpt>
      <trkpt lat="35.968223760" lon="-106.519813950">
        <ele>2574.800</ele>
        <time>2019-07-14T22:18:40Z</time>
      </trkpt>
      <trkpt lat="35.968280070" lon="-106.519914250">
        <ele>2574.500</ele>
        <time>2019-07-14T22:18:41Z</time>
      </trkpt>
      <trkpt lat="35.968341810" lon="-106.520029780">
        <ele>2574.200</ele>
        <time>2019-07-14T22:18:42Z</time>
      </trkpt>
      <trkpt lat="35.968407180" lon="-106.520137610">
        <ele>2574.400</ele>
        <time>2019-07-14T22:18:43Z</time>
      </trkpt>
      <trkpt lat="35.968467660" lon="-106.520254720">
        <ele>2574.300</ele>
        <time>2019-07-14T22:18:44Z</time>
      </trkpt>
      <trkpt lat="35.968527650" lon="-106.520372780">
        <ele>2575.200</ele>
        <time>2019-07-14T22:18:45Z</time>
      </trkpt>
      <trkpt lat="35.968589830" lon="-106.520497210">
        <ele>2574.400</ele>
        <time>2019-07-14T22:18:46Z</time>
      </trkpt>
      <trkpt lat="35.968651660" lon="-106.520618230">
        <ele>2573.600</ele>
        <time>2019-07-14T22:18:47Z</time>
      </trkpt>
      <trkpt lat="35.968720650" lon="-106.520730010">
        <ele>2574.300</ele>
        <time>2019-07-14T22:18:48Z</time>
      </trkpt>
      <trkpt lat="35.968781380" lon="-106.520850200">
        <ele>2574.500</ele>
        <time>2019-07-14T22:18:49Z</time>
      </trkpt>
      <trkpt lat="35.968829590" lon="-106.520952850">
        <ele>2575.500</ele>
        <time>2019-07-14T22:18:50Z</time>
      </trkpt>
      <trkpt lat="35.968890220" lon="-106.521056160">
        <ele>2578.000</ele>
        <time>2019-07-14T22:18:51Z</time>
      </trkpt>
      <trkpt lat="35.968960400" lon="-106.521169410">
        <ele>2577.900</ele>
        <time>2019-07-14T22:18:52Z</time>
      </trkpt>
      <trkpt lat="35.969012330" lon="-106.521282300">
        <ele>2577.400</ele>
        <time>2019-07-14T22:18:53Z</time>
      </trkpt>
      <trkpt lat="35.969066050" lon="-106.521398730">
        <ele>2578.500</ele>
        <time>2019-07-14T22:18:54Z</time>
      </trkpt>
      <trkpt lat="35.969153230" lon="-106.521526720">
        <ele>2577.700</ele>
        <time>2019-07-14T22:18:55Z</time>
      </trkpt>
      <trkpt lat="35.969198460" lon="-106.521620020">
        <ele>2577.900</ele>
        <time>2019-07-14T22:18:56Z</time>
      </trkpt>
      <trkpt lat="35.969257240" lon="-106.521727660">
        <ele>2576.900</ele>
        <time>2019-07-14T22:18:57Z</time>
      </trkpt>
      <trkpt lat="35.969326120" lon="-106.521860740">
        <ele>2576.000</ele>
        <time>2019-07-14T22:18:58Z</time>
      </trkpt>
      <trkpt lat="35.969387860" lon="-106.521959740">
        <ele>2575.300</ele>
        <time>2019-07-14T22:18:59Z</time>
      </trkpt>
      <trkpt lat="35.969454140" lon="-106.522063480">
        <ele>2576.400</ele>
        <time>2019-07-14T22:19:00Z</time>
      </trkpt>
      <trkpt lat="35.969516640" lon="-106.522173220">
        <ele>2575.300</ele>
        <time>2019-07-14T22:19:01Z</time>
      </trkpt>
      <trkpt lat="35.969581050" lon="-106.522282590">
        <ele>2574.000</ele>
        <time>2019-07-14T22:19:02Z</time>
      </trkpt>
      <trkpt lat="35.969637350" lon="-106.522388830">
        <ele>2572.800</ele>
        <time>2019-07-14T22:19:03Z</time>
      </trkpt>
      <trkpt lat="35.969715570" lon="-106.522520840">
        <ele>2572.200</ele>
        <time>2019-07-14T22:19:04Z</time>
      </trkpt>
      <trkpt lat="35.969742620" lon="-106.522587890">
        <ele>2574.300</ele>
        <time>2019-07-14T22:19:05Z</time>
      </trkpt>
      <trkpt lat="35.969800290" lon="-106.522690200">
        <ele>2573.000</ele>
        <time>2019-07-14T22:19:06Z</time>
      </trkpt>
      <trkpt lat="35.969856610" lon="-106.522784270">
        <ele>2572.300</ele>
        <time>2019-07-14T22:19:07Z</time>
      </trkpt>
      <trkpt lat="35.969906330" lon="-106.522868080">
        <ele>2572.500</ele>
        <time>2019-07-14T22:19:08Z</time>
      </trkpt>
      <trkpt lat="35.969969840" lon="-106.522968210">
        <ele>2571.800</ele>
        <time>2019-07-14T22:19:09Z</time>
      </trkpt>
      <trkpt lat="35.970012520" lon="-106.523050010">
        <ele>2573.000</ele>
        <time>2019-07-14T22:19:10Z</time>
      </trkpt>
      <trkpt lat="35.970053420" lon="-106.523136860">
        <ele>2575.400</ele>
        <time>2019-07-14T22:19:11Z</time>
      </trkpt>
      <trkpt lat="35.970121020" lon="-106.523258550">
        <ele>2576.200</ele>
        <time>2019-07-14T22:19:12Z</time>
      </trkpt>
      <trkpt lat="35.970196520" lon="-106.523418900">
        <ele>2576.000</ele>
        <time>2019-07-14T22:19:13Z</time>
      </trkpt>
      <trkpt lat="35.970261580" lon="-106.523551220">
        <ele>2574.400</ele>
        <time>2019-07-14T22:19:14Z</time>
      </trkpt>
      <trkpt lat="35.970332510" lon="-106.523662480">
        <ele>2575.500</ele>
        <time>2019-07-14T22:19:15Z</time>
      </trkpt>
      <trkpt lat="35.970390570" lon="-106.523752070">
        <ele>2574.600</ele>
        <time>2019-07-14T22:19:16Z</time>
      </trkpt>
      <trkpt lat="35.970472680" lon="-106.523895750">
        <ele>2574.600</ele>
        <time>2019-07-14T22:19:17Z</time>
      </trkpt>
      <trkpt lat="35.970526870" lon="-106.524022960">
        <ele>2573.400</ele>
        <time>2019-07-14T22:19:18Z</time>
      </trkpt>
      <trkpt lat="35.970609220" lon="-106.524149010">
        <ele>2573.100</ele>
        <time>2019-07-14T22:19:19Z</time>
      </trkpt>
      <trkpt lat="35.970678340" lon="-106.524260490">
        <ele>2573.300</ele>
        <time>2019-07-14T22:19:20Z</time>
      </trkpt>
      <trkpt lat="35.970723150" lon="-106.524357700">
        <ele>2573.500</ele>
        <time>2019-07-14T22:19:21Z</time>
      </trkpt>
      <trkpt lat="35.970783790" lon="-106.524470410">
        <ele>2573.900</ele>
        <time>2019-07-14T22:19:22Z</time>
      </trkpt>
      <trkpt lat="35.970855300" lon="-106.524602490">
        <ele>2574.500</ele>
        <time>2019-07-14T22:19:23Z</time>
      </trkpt>
      <trkpt lat="35.970904950" lon="-106.524691870">
        <ele>2574.800</ele>
        <time>2019-07-14T22:19:24Z</time>
      </trkpt>
      <trkpt lat="35.970959970" lon="-106.524782760">
        <ele>2576.700</ele>
        <time>2019-07-14T22:19:25Z</time>
      </trkpt>
      <trkpt lat="35.971001910" lon="-106.524922840">
        <ele>2577.600</ele>
        <time>2019-07-14T22:19:26Z</time>
      </trkpt>
      <trkpt lat="35.971068550" lon="-106.525044980">
        <ele>2578.100</ele>
        <time>2019-07-14T22:19:27Z</time>
      </trkpt>
      <trkpt lat="35.971137020" lon="-106.525145490">
        <ele>2576.900</ele>
        <time>2019-07-14T22:19:28Z</time>
      </trkpt>
      <trkpt lat="35.971206310" lon="-106.525259580">
        <ele>2577.400</ele>
        <time>2019-07-14T22:19:29Z</time>
      </trkpt>
      <trkpt lat="35.971250230" lon="-106.525385880">
        <ele>2576.300</ele>
        <time>2019-07-14T22:19:30Z</time>
      </trkpt>
      <trkpt lat="35.971312730" lon="-106.525498760">
        <ele>2577.800</ele>
        <time>2019-07-14T22:19:31Z</time>
      </trkpt>
      <trkpt lat="35.971363630" lon="-106.525573960">
        <ele>2576.600</ele>
        <time>2019-07-14T22:19:32Z</time>
      </trkpt>
      <trkpt lat="35.971437840" lon="-106.525686720">
        <ele>2575.100</ele>
        <time>2019-07-14T22:19:33Z</time>
      </trkpt>
      <trkpt lat="35.971463700" lon="-106.525752020">
        <ele>2578.400</ele>
        <time>2019-07-14T22:19:34Z</time>
      </trkpt>
      <trkpt lat="35.971515950" lon="-106.525858410">
        <ele>2579.200</ele>
        <time>2019-07-14T22:19:35Z</time>
      </trkpt>
      <trkpt lat="35.971558440" lon="-106.525980400">
        <ele>2579.800</ele>
        <time>2019-07-14T22:19:36Z</time>
      </trkpt>
      <trkpt lat="35.971606770" lon="-106.526077970">
        <ele>2578.100</ele>
        <time>2019-07-14T22:19:37Z</time>
      </trkpt>
      <trkpt lat="35.971665160" lon="-106.526152050">
        <ele>2577.400</ele>
        <time>2019-07-14T22:19:38Z</time>
      </trkpt>
      <trkpt lat="35.971724130" lon="-106.526249220">
        <ele>2575.700</ele>
        <time>2019-07-14T22:19:39Z</time>
      </trkpt>
      <trkpt lat="35.971782420" lon="-106.526345100">
        <ele>2574.200</ele>
        <time>2019-07-14T22:19:40Z</time>
      </trkpt>
      <trkpt lat="35.971821060" lon="-106.526433550">
        <ele>2573.700</ele>
        <time>2019-07-14T22:19:41Z</time>
      </trkpt>
      <trkpt lat="35.971884620" lon="-106.526537820">
        <ele>2573.000</ele>
        <time>2019-07-14T22:19:42Z</time>
      </trkpt>
      <trkpt lat="35.971934120" lon="-106.526626520">
        <ele>2571.600</ele>
        <time>2019-07-14T22:19:43Z</time>
      </trkpt>
      <trkpt lat="35.971982000" lon="-106.526721360">
        <ele>2572.500</ele>
        <time>2019-07-14T22:19:44Z</time>
      </trkpt>
      <trkpt lat="35.972025510" lon="-106.526797720">
        <ele>2572.700</ele>
        <time>2019-07-14T22:19:45Z</time>
      </trkpt>
      <trkpt lat="35.972070620" lon="-106.526874220">
        <ele>2573.000</ele>
        <time>2019-07-14T22:19:46Z</time>
      </trkpt>
      <trkpt lat="35.972121300" lon="-106.526957480">
        <ele>2573.600</ele>
        <time>2019-07-14T22:19:47Z</time>
      </trkpt>
      <trkpt lat="35.972188150" lon="-106.527069150">
        <ele>2572.400</ele>
        <time>2019-07-14T22:19:48Z</time>
      </trkpt>
      <trkpt lat="35.972231730" lon="-106.527159590">
        <ele>2573.400</ele>
        <time>2019-07-14T22:19:49Z</time>
      </trkpt>
      <trkpt lat="35.972285530" lon="-106.527262600">
        <ele>2573.300</ele>
        <time>2019-07-14T22:19:50Z</time>
      </trkpt>
      <trkpt lat="35.972353070" lon="-106.527371050">
        <ele>2572.600</ele>
        <time>2019-07-14T22:19:51Z</time>
      </trkpt>
      <trkpt lat="35.972409060" lon="-106.527479080">
        <ele>2572.500</ele>
        <time>2019-07-14T22:19:52Z</time>
      </trkpt>
      <trkpt lat="35.972469210" lon="-106.527572860">
        <ele>2571.200</ele>
        <time>2019-07-14T22:19:53Z</time>
      </trkpt>
      <trkpt lat="35.972519710" lon="-106.527681430">
        <ele>2572.500</ele>
        <time>2019-07-14T22:19:54Z</time>
      </trkpt>
      <trkpt lat="35.972590970" lon="-106.527787800">
        <ele>2573.300</ele>
        <time>2019-07-14T22:19:55Z</time>
      </trkpt>
      <trkpt lat="35.972639820" lon="-106.527886510">
        <ele>2573.000</ele>
        <time>2019-07-14T22:19:56Z</time>
      </trkpt>
      <trkpt lat="35.972692230" lon="-106.527978350">
        <ele>2573.200</ele>
        <time>2019-07-14T22:19:57Z</time>
      </trkpt>
      <trkpt lat="35.972731300" lon="-106.528059170">
        <ele>2574.000</ele>
        <time>2019-07-14T22:19:58Z</time>
      </trkpt>
      <trkpt lat="35.972798430" lon="-106.528169980">
        <ele>2574.300</ele>
        <time>2019-07-14T22:19:59Z</time>
      </trkpt>
      <trkpt lat="35.972855660" lon="-106.528283770">
        <ele>2574.500</ele>
        <time>2019-07-14T22:20:00Z</time>
      </trkpt>
      <trkpt lat="35.972911580" lon="-106.528385630">
        <ele>2574.600</ele>
        <time>2019-07-14T22:20:01Z</time>
      </trkpt>
      <trkpt lat="35.972978630" lon="-106.528495180">
        <ele>2573.000</ele>
        <time>2019-07-14T22:20:02Z</time>
      </trkpt>
      <trkpt lat="35.973040150" lon="-106.528605310">
        <ele>2573.500</ele>
        <time>2019-07-14T22:20:03Z</time>
      </trkpt>
      <trkpt lat="35.973084790" lon="-106.528692200">
        <ele>2575.600</ele>
        <time>2019-07-14T22:20:04Z</time>
      </trkpt>
      <trkpt lat="35.973149110" lon="-106.528800640">
        <ele>2576.400</ele>
        <time>2019-07-14T22:20:05Z</time>
      </trkpt>
      <trkpt lat="35.973195800" lon="-106.528894790">
        <ele>2575.200</ele>
        <time>2019-07-14T22:20:06Z</time>
      </trkpt>
      <trkpt lat="35.973256460" lon="-106.528997080">
        <ele>2575.400</ele>
        <time>2019-07-14T22:20:07Z</time>
      </trkpt>
      <trkpt lat="35.973305030" lon="-106.529089720">
        <ele>2575.700</ele>
        <time>2019-07-14T22:20:08Z</time>
      </trkpt>
      <trkpt lat="35.973362900" lon="-106.529202680">
        <ele>2574.600</ele>
        <time>2019-07-14T22:20:09Z</time>
      </trkpt>
      <trkpt lat="35.973415250" lon="-106.529311110">
        <ele>2575.000</ele>
        <time>2019-07-14T22:20:10Z</time>
      </trkpt>
      <trkpt lat="35.973471910" lon="-106.529410620">
        <ele>2575.300</ele>
        <time>2019-07-14T22:20:11Z</time>
      </trkpt>
      <trkpt lat="35.973525740" lon="-106.529513060">
        <ele>2576.100</ele>
        <time>2019-07-14T22:20:12Z</time>
      </trkpt>
      <trkpt lat="35.973579350" lon="-106.529602600">
        <ele>2577.000</ele>
        <time>2019-07-14T22:20:13Z</time>
      </trkpt>
      <trkpt lat="35.973632270" lon="-106.529692990">
        <ele>2577.500</ele>
        <time>2019-07-14T22:20:14Z</time>
      </trkpt>
      <trkpt lat="35.973681200" lon="-106.529786070">
        <ele>2577.600</ele>
        <time>2019-07-14T22:20:15Z</time>
      </trkpt>
      <trkpt lat="35.973725130" lon="-106.529874270">
        <ele>2578.100</ele>
        <time>2019-07-14T22:20:16Z</time>
      </trkpt>
      <trkpt lat="35.973779220" lon="-106.529967610">
        <ele>2577.800</ele>
        <time>2019-07-14T22:20:17Z</time>
      </trkpt>
      <trkpt lat="35.973829490" lon="-106.530060100">
        <ele>2578.400</ele>
        <time>2019-07-14T22:20:18Z</time>
      </trkpt>
      <trkpt lat="35.973891800" lon="-106.530164470">
        <ele>2578.700</ele>
        <time>2019-07-14T22:20:19Z</time>
      </trkpt>
      <trkpt lat="35.973932100" lon="-106.530245910">
        <ele>2578.000</ele>
        <time>2019-07-14T22:20:20Z</time>
      </trkpt>
      <trkpt lat="35.973952650" lon="-106.530313870">
        <ele>2578.900</ele>
        <time>2019-07-14T22:20:21Z</time>
      </trkpt>
      <trkpt lat="35.973983370" lon="-106.530380960">
        <ele>2579.700</ele>
        <time>2019-07-14T22:20:22Z</time>
      </trkpt>
      <trkpt lat="35.974011750" lon="-106.530409580">
        <ele>2580.800</ele>
        <time>2019-07-14T22:20:23Z</time>
      </trkpt>
      <trkpt lat="35.974064080" lon="-106.530418500">
        <ele>2584.400</ele>
        <time>2019-07-14T22:20:26Z</time>
      </trkpt>
      <trkpt lat="35.974108000" lon="-106.530365170">
        <ele>2584.700</ele>
        <time>2019-07-14T22:20:28Z</time>
      </trkpt>
      <trkpt lat="35.974146800" lon="-106.530303270">
        <ele>2585.900</ele>
        <time>2019-07-14T22:20:30Z</time>
      </trkpt>
      <trkpt lat="35.974149020" lon="-106.530234890">
        <ele>2586.200</ele>
        <time>2019-07-14T22:20:31Z</time>
      </trkpt>
      <trkpt lat="35.974155130" lon="-106.530161620">
        <ele>2585.500</ele>
        <time>2019-07-14T22:20:32Z</time>
      </trkpt>
      <trkpt lat="35.974168450" lon="-106.530081700">
        <ele>2586.300</ele>
        <time>2019-07-14T22:20:33Z</time>
      </trkpt>
      <trkpt lat="35.974182650" lon="-106.530002760">
        <ele>2587.900</ele>
        <time>2019-07-14T22:20:34Z</time>
      </trkpt>
      <trkpt lat="35.974175840" lon="-106.529912480">
        <ele>2587.600</ele>
        <time>2019-07-14T22:20:35Z</time>
      </trkpt>
      <trkpt lat="35.974177450" lon="-106.529813790">
        <ele>2587.400</ele>
        <time>2019-07-14T22:20:36Z</time>
      </trkpt>
      <trkpt lat="35.974174150" lon="-106.529718690">
        <ele>2587.700</ele>
        <time>2019-07-14T22:20:37Z</time>
      </trkpt>
      <trkpt lat="35.974169420" lon="-106.529618850">
        <ele>2587.600</ele>
        <time>2019-07-14T22:20:38Z</time>
      </trkpt>
      <trkpt lat="35.974171610" lon="-106.529515730">
        <ele>2587.500</ele>
        <time>2019-07-14T22:20:39Z</time>
      </trkpt>
      <trkpt lat="35.974177890" lon="-106.529414360">
        <ele>2587.800</ele>
        <time>2019-07-14T22:20:40Z</time>
      </trkpt>
      <trkpt lat="35.974191280" lon="-106.529310830">
        <ele>2587.000</ele>
        <time>2019-07-14T22:20:41Z</time>
      </trkpt>
      <trkpt lat="35.974198740" lon="-106.529214780">
        <ele>2587.300</ele>
        <time>2019-07-14T22:20:42Z</time>
      </trkpt>
      <trkpt lat="35.974199180" lon="-106.529120130">
        <ele>2588.000</ele>
        <time>2019-07-14T22:20:43Z</time>
      </trkpt>
      <trkpt lat="35.974188490" lon="-106.529014060">
        <ele>2588.600</ele>
        <time>2019-07-14T22:20:44Z</time>
      </trkpt>
      <trkpt lat="35.974204720" lon="-106.528908400">
        <ele>2587.600</ele>
        <time>2019-07-14T22:20:45Z</time>
      </trkpt>
      <trkpt lat="35.974218580" lon="-106.528806730">
        <ele>2588.200</ele>
        <time>2019-07-14T22:20:46Z</time>
      </trkpt>
      <trkpt lat="35.974223750" lon="-106.528699300">
        <ele>2588.400</ele>
        <time>2019-07-14T22:20:47Z</time>
      </trkpt>
      <trkpt lat="35.974238320" lon="-106.528592850">
        <ele>2587.700</ele>
        <time>2019-07-14T22:20:48Z</time>
      </trkpt>
      <trkpt lat="35.974237370" lon="-106.528493840">
        <ele>2588.700</ele>
        <time>2019-07-14T22:20:49Z</time>
      </trkpt>
      <trkpt lat="35.974233510" lon="-106.528410390">
        <ele>2590.000</ele>
        <time>2019-07-14T22:20:50Z</time>
      </trkpt>
      <trkpt lat="35.974260170" lon="-106.528328330">
        <ele>2588.500</ele>
        <time>2019-07-14T22:20:51Z</time>
      </trkpt>
      <trkpt lat="35.974285810" lon="-106.528251100">
        <ele>2586.800</ele>
        <time>2019-07-14T22:20:52Z</time>
      </trkpt>
      <trkpt lat="35.974289300" lon="-106.528175980">
        <ele>2587.100</ele>
        <time>2019-07-14T22:20:53Z</time>
      </trkpt>
      <trkpt lat="35.974287360" lon="-106.528111590">
        <ele>2586.500</ele>
        <time>2019-07-14T22:20:54Z</time>
      </trkpt>
      <trkpt lat="35.974298920" lon="-106.528061640">
        <ele>2585.100</ele>
        <time>2019-07-14T22:20:55Z</time>
      </trkpt>
      <trkpt lat="35.974286920" lon="-106.528010770">
        <ele>2585.300</ele>
        <time>2019-07-14T22:20:56Z</time>
      </trkpt>
      <trkpt lat="35.974289610" lon="-106.527918680">
        <ele>2585.600</ele>
        <time>2019-07-14T22:20:58Z</time>
      </trkpt>
      <trkpt lat="35.974283670" lon="-106.527864980">
        <ele>2586.200</ele>
        <time>2019-07-14T22:20:59Z</time>
      </trkpt>
      <trkpt lat="35.974282410" lon="-106.527808120">
        <ele>2586.200</ele>
        <time>2019-07-14T22:21:00Z</time>
      </trkpt>
      <trkpt lat="35.974294150" lon="-106.527732760">
        <ele>2584.800</ele>
        <time>2019-07-14T22:21:01Z</time>
      </trkpt>
      <trkpt lat="35.974292140" lon="-106.527661520">
        <ele>2584.000</ele>
        <time>2019-07-14T22:21:02Z</time>
      </trkpt>
      <trkpt lat="35.974277180" lon="-106.527578360">
        <ele>2585.200</ele>
        <time>2019-07-14T22:21:03Z</time>
      </trkpt>
      <trkpt lat="35.974258150" lon="-106.527496730">
        <ele>2586.200</ele>
        <time>2019-07-14T22:21:04Z</time>
      </trkpt>
      <trkpt lat="35.974244500" lon="-106.527416830">
        <ele>2586.300</ele>
        <time>2019-07-14T22:21:05Z</time>
      </trkpt>
      <trkpt lat="35.974226940" lon="-106.527338600">
        <ele>2586.800</ele>
        <time>2019-07-14T22:21:06Z</time>
      </trkpt>
      <trkpt lat="35.974212700" lon="-106.527257720">
        <ele>2586.800</ele>
        <time>2019-07-14T22:21:07Z</time>
      </trkpt>
      <trkpt lat="35.974206040" lon="-106.527187970">
        <ele>2586.000</ele>
        <time>2019-07-14T22:21:08Z</time>
      </trkpt>
      <trkpt lat="35.974187100" lon="-106.527105840">
        <ele>2585.300</ele>
        <time>2019-07-14T22:21:09Z</time>
      </trkpt>
      <trkpt lat="35.974168940" lon="-106.527019600">
        <ele>2584.700</ele>
        <time>2019-07-14T22:21:10Z</time>
      </trkpt>
      <trkpt lat="35.974158840" lon="-106.526924800">
        <ele>2584.500</ele>
        <time>2019-07-14T22:21:11Z</time>
      </trkpt>
      <trkpt lat="35.974147340" lon="-106.526833520">
        <ele>2583.600</ele>
        <time>2019-07-14T22:21:12Z</time>
      </trkpt>
      <trkpt lat="35.974135090" lon="-106.526739070">
        <ele>2582.600</ele>
        <time>2019-07-14T22:21:13Z</time>
      </trkpt>
      <trkpt lat="35.974121720" lon="-106.526639830">
        <ele>2582.700</ele>
        <time>2019-07-14T22:21:14Z</time>
      </trkpt>
      <trkpt lat="35.974107970" lon="-106.526549870">
        <ele>2582.400</ele>
        <time>2019-07-14T22:21:15Z</time>
      </trkpt>
      <trkpt lat="35.974103310" lon="-106.526455340">
        <ele>2582.300</ele>
        <time>2019-07-14T22:21:16Z</time>
      </trkpt>
      <trkpt lat="35.974089680" lon="-106.526359420">
        <ele>2582.200</ele>
        <time>2019-07-14T22:21:17Z</time>
      </trkpt>
      <trkpt lat="35.974084940" lon="-106.526261080">
        <ele>2581.700</ele>
        <time>2019-07-14T22:21:18Z</time>
      </trkpt>
      <trkpt lat="35.974067710" lon="-106.526160980">
        <ele>2582.200</ele>
        <time>2019-07-14T22:21:19Z</time>
      </trkpt>
      <trkpt lat="35.974066630" lon="-106.526069620">
        <ele>2582.800</ele>
        <time>2019-07-14T22:21:20Z</time>
      </trkpt>
      <trkpt lat="35.974076860" lon="-106.525979760">
        <ele>2582.900</ele>
        <time>2019-07-14T22:21:21Z</time>
      </trkpt>
      <trkpt lat="35.974083180" lon="-106.525909300">
        <ele>2583.400</ele>
        <time>2019-07-14T22:21:22Z</time>
      </trkpt>
      <trkpt lat="35.974103800" lon="-106.525854880">
        <ele>2582.900</ele>
        <time>2019-07-14T22:21:23Z</time>
      </trkpt>
      <trkpt lat="35.974113270" lon="-106.525768890">
        <ele>2583.400</ele>
        <time>2019-07-14T22:21:25Z</time>
      </trkpt>
      <trkpt lat="35.974112740" lon="-106.525709910">
        <ele>2582.500</ele>
        <time>2019-07-14T22:21:26Z</time>
      </trkpt>
      <trkpt lat="35.974119610" lon="-106.525639290">
        <ele>2582.900</ele>
        <time>2019-07-14T22:21:27Z</time>
      </trkpt>
      <trkpt lat="35.974125710" lon="-106.525561940">
        <ele>2583.000</ele>
        <time>2019-07-14T22:21:28Z</time>
      </trkpt>
      <trkpt lat="35.974135490" lon="-106.525475600">
        <ele>2582.200</ele>
        <time>2019-07-14T22:21:29Z</time>
      </trkpt>
      <trkpt lat="35.974146120" lon="-106.525389870">
        <ele>2582.800</ele>
        <time>2019-07-14T22:21:30Z</time>
      </trkpt>
      <trkpt lat="35.974161590" lon="-106.525302960">
        <ele>2583.300</ele>
        <time>2019-07-14T22:21:31Z</time>
      </trkpt>
      <trkpt lat="35.974183700" lon="-106.525217960">
        <ele>2583.400</ele>
        <time>2019-07-14T22:21:32Z</time>
      </trkpt>
      <trkpt lat="35.974219380" lon="-106.525135770">
        <ele>2582.900</ele>
        <time>2019-07-14T22:21:33Z</time>
      </trkpt>
      <trkpt lat="35.974253740" lon="-106.525047220">
        <ele>2582.000</ele>
        <time>2019-07-14T22:21:34Z</time>
      </trkpt>
      <trkpt lat="35.974294630" lon="-106.524973710">
        <ele>2582.000</ele>
        <time>2019-07-14T22:21:35Z</time>
      </trkpt>
      <trkpt lat="35.974345060" lon="-106.524901410">
        <ele>2582.300</ele>
        <time>2019-07-14T22:21:36Z</time>
      </trkpt>
      <trkpt lat="35.974396810" lon="-106.524840160">
        <ele>2582.300</ele>
        <time>2019-07-14T22:21:37Z</time>
      </trkpt>
      <trkpt lat="35.974447450" lon="-106.524781380">
        <ele>2581.400</ele>
        <time>2019-07-14T22:21:38Z</time>
      </trkpt>
      <trkpt lat="35.974509610" lon="-106.524721050">
        <ele>2581.300</ele>
        <time>2019-07-14T22:21:39Z</time>
      </trkpt>
      <trkpt lat="35.974563370" lon="-106.524661490">
        <ele>2580.400</ele>
        <time>2019-07-14T22:21:40Z</time>
      </trkpt>
      <trkpt lat="35.974613450" lon="-106.524601900">
        <ele>2579.700</ele>
        <time>2019-07-14T22:21:41Z</time>
      </trkpt>
      <trkpt lat="35.974665640" lon="-106.524543740">
        <ele>2580.000</ele>
        <time>2019-07-14T22:21:42Z</time>
      </trkpt>
      <trkpt lat="35.974722230" lon="-106.524462780">
        <ele>2580.000</ele>
        <time>2019-07-14T22:21:43Z</time>
      </trkpt>
      <trkpt lat="35.974776840" lon="-106.524386570">
        <ele>2580.100</ele>
        <time>2019-07-14T22:21:44Z</time>
      </trkpt>
      <trkpt lat="35.974811950" lon="-106.524315550">
        <ele>2579.200</ele>
        <time>2019-07-14T22:21:45Z</time>
      </trkpt>
      <trkpt lat="35.974854020" lon="-106.524248910">
        <ele>2579.700</ele>
        <time>2019-07-14T22:21:46Z</time>
      </trkpt>
      <trkpt lat="35.974885880" lon="-106.524174060">
        <ele>2579.800</ele>
        <time>2019-07-14T22:21:47Z</time>
      </trkpt>
      <trkpt lat="35.974924680" lon="-106.524096670">
        <ele>2579.500</ele>
        <time>2019-07-14T22:21:48Z</time>
      </trkpt>
      <trkpt lat="35.974950430" lon="-106.524021480">
        <ele>2578.500</ele>
        <time>2019-07-14T22:21:49Z</time>
      </trkpt>
      <trkpt lat="35.974973450" lon="-106.523941840">
        <ele>2577.900</ele>
        <time>2019-07-14T22:21:50Z</time>
      </trkpt>
      <trkpt lat="35.974987430" lon="-106.523873520">
        <ele>2576.800</ele>
        <time>2019-07-14T22:21:51Z</time>
      </trkpt>
      <trkpt lat="35.974993230" lon="-106.523801910">
        <ele>2575.900</ele>
        <time>2019-07-14T22:21:52Z</time>
      </trkpt>
      <trkpt lat="35.974992670" lon="-106.523728680">
        <ele>2575.400</ele>
        <time>2019-07-14T22:21:53Z</time>
      </trkpt>
      <trkpt lat="35.974985860" lon="-106.523660980">
        <ele>2576.000</ele>
        <time>2019-07-14T22:21:54Z</time>
      </trkpt>
      <trkpt lat="35.974974630" lon="-106.523591740">
        <ele>2577.000</ele>
        <time>2019-07-14T22:21:55Z</time>
      </trkpt>
      <trkpt lat="35.974960540" lon="-106.523526570">
        <ele>2576.600</ele>
        <time>2019-07-14T22:21:56Z</time>
      </trkpt>
      <trkpt lat="35.974939580" lon="-106.523457460">
        <ele>2577.500</ele>
        <time>2019-07-14T22:21:57Z</time>
      </trkpt>
      <trkpt lat="35.974920300" lon="-106.523381680">
        <ele>2578.400</ele>
        <time>2019-07-14T22:21:58Z</time>
      </trkpt>
      <trkpt lat="35.974898690" lon="-106.523306390">
        <ele>2580.200</ele>
        <time>2019-07-14T22:21:59Z</time>
      </trkpt>
      <trkpt lat="35.974873530" lon="-106.523243750">
        <ele>2578.800</ele>
        <time>2019-07-14T22:22:00Z</time>
      </trkpt>
      <trkpt lat="35.974843160" lon="-106.523173010">
        <ele>2579.800</ele>
        <time>2019-07-14T22:22:01Z</time>
      </trkpt>
      <trkpt lat="35.974816920" lon="-106.523109920">
        <ele>2579.800</ele>
        <time>2019-07-14T22:22:02Z</time>
      </trkpt>
      <trkpt lat="35.974786730" lon="-106.523039670">
        <ele>2579.600</ele>
        <time>2019-07-14T22:22:03Z</time>
      </trkpt>
      <trkpt lat="35.974749920" lon="-106.522992770">
        <ele>2581.400</ele>
        <time>2019-07-14T22:22:04Z</time>
      </trkpt>
      <trkpt lat="35.974726890" lon="-106.522945800">
        <ele>2581.700</ele>
        <time>2019-07-14T22:22:05Z</time>
      </trkpt>
      <trkpt lat="35.974693210" lon="-106.522906010">
        <ele>2584.600</ele>
        <time>2019-07-14T22:22:06Z</time>
      </trkpt>
      <trkpt lat="35.974663780" lon="-106.522856190">
        <ele>2585.500</ele>
        <time>2019-07-14T22:22:07Z</time>
      </trkpt>
      <trkpt lat="35.974637140" lon="-106.522814090">
        <ele>2587.100</ele>
        <time>2019-07-14T22:22:08Z</time>
      </trkpt>
      <trkpt lat="35.974594260" lon="-106.522770090">
        <ele>2587.500</ele>
        <time>2019-07-14T22:22:09Z</time>
      </trkpt>
      <trkpt lat="35.974545710" lon="-106.522732690">
        <ele>2586.900</ele>
        <time>2019-07-14T22:22:10Z</time>
      </trkpt>
      <trkpt lat="35.974486810" lon="-106.522684450">
        <ele>2585.300</ele>
        <time>2019-07-14T22:22:11Z</time>
      </trkpt>
      <trkpt lat="35.974431080" lon="-106.522644150">
        <ele>2584.100</ele>
        <time>2019-07-14T22:22:12Z</time>
      </trkpt>
      <trkpt lat="35.974364740" lon="-106.522606990">
        <ele>2584.900</ele>
        <time>2019-07-14T22:22:13Z</time>
      </trkpt>
      <trkpt lat="35.974296550" lon="-106.522553070">
        <ele>2586.100</ele>
        <time>2019-07-14T22:22:14Z</time>
      </trkpt>
      <trkpt lat="35.974237930" lon="-106.522507650">
        <ele>2585.800</ele>
        <time>2019-07-14T22:22:15Z</time>
      </trkpt>
      <trkpt lat="35.974162170" lon="-106.522459590">
        <ele>2586.500</ele>
        <time>2019-07-14T22:22:16Z</time>
      </trkpt>
      <trkpt lat="35.974095020" lon="-106.522410100">
        <ele>2585.800</ele>
        <time>2019-07-14T22:22:17Z</time>
      </trkpt>
      <trkpt lat="35.974029280" lon="-106.522365560">
        <ele>2585.100</ele>
        <time>2019-07-14T22:22:18Z</time>
      </trkpt>
      <trkpt lat="35.973959440" lon="-106.522315880">
        <ele>2585.100</ele>
        <time>2019-07-14T22:22:19Z</time>
      </trkpt>
      <trkpt lat="35.973910840" lon="-106.522278420">
        <ele>2584.400</ele>
        <time>2019-07-14T22:22:20Z</time>
      </trkpt>
      <trkpt lat="35.973868870" lon="-106.522250070">
        <ele>2583.700</ele>
        <time>2019-07-14T22:22:21Z</time>
      </trkpt>
      <trkpt lat="35.973830200" lon="-106.522220690">
        <ele>2584.200</ele>
        <time>2019-07-14T22:22:22Z</time>
      </trkpt>
      <trkpt lat="35.973788620" lon="-106.522193170">
        <ele>2584.200</ele>
        <time>2019-07-14T22:22:23Z</time>
      </trkpt>
      <trkpt lat="35.973738530" lon="-106.522157150">
        <ele>2583.800</ele>
        <time>2019-07-14T22:22:24Z</time>
      </trkpt>
      <trkpt lat="35.973698030" lon="-106.522126890">
        <ele>2582.500</ele>
        <time>2019-07-14T22:22:25Z</time>
      </trkpt>
      <trkpt lat="35.973655790" lon="-106.522080280">
        <ele>2582.400</ele>
        <time>2019-07-14T22:22:26Z</time>
      </trkpt>
      <trkpt lat="35.973610260" lon="-106.522042270">
        <ele>2581.700</ele>
        <time>2019-07-14T22:22:27Z</time>
      </trkpt>
      <trkpt lat="35.973554690" lon="-106.522006170">
        <ele>2581.200</ele>
        <time>2019-07-14T22:22:28Z</time>
      </trkpt>
      <trkpt lat="35.973492820" lon="-106.521950690">
        <ele>2581.800</ele>
        <time>2019-07-14T22:22:29Z</time>
      </trkpt>
      <trkpt lat="35.973431680" lon="-106.521921400">
        <ele>2580.100</ele>
        <time>2019-07-14T22:22:30Z</time>
      </trkpt>
      <trkpt lat="35.973375220" lon="-106.521878750">
        <ele>2579.000</ele>
        <time>2019-07-14T22:22:31Z</time>
      </trkpt>
      <trkpt lat="35.973309610" lon="-106.521815520">
        <ele>2579.500</ele>
        <time>2019-07-14T22:22:32Z</time>
      </trkpt>
      <trkpt lat="35.973260500" lon="-106.521751260">
        <ele>2579.300</ele>
        <time>2019-07-14T22:22:33Z</time>
      </trkpt>
      <trkpt lat="35.973208960" lon="-106.521666100">
        <ele>2578.900</ele>
        <time>2019-07-14T22:22:34Z</time>
      </trkpt>
      <trkpt lat="35.973163070" lon="-106.521587410">
        <ele>2578.900</ele>
        <time>2019-07-14T22:22:35Z</time>
      </trkpt>
      <trkpt lat="35.973118060" lon="-106.521492900">
        <ele>2578.700</ele>
        <time>2019-07-14T22:22:36Z</time>
      </trkpt>
      <trkpt lat="35.973079650" lon="-106.521398790">
        <ele>2578.700</ele>
        <time>2019-07-14T22:22:37Z</time>
      </trkpt>
      <trkpt lat="35.973040480" lon="-106.521310320">
        <ele>2579.400</ele>
        <time>2019-07-14T22:22:38Z</time>
      </trkpt>
      <trkpt lat="35.973000040" lon="-106.521224160">
        <ele>2578.700</ele>
        <time>2019-07-14T22:22:39Z</time>
      </trkpt>
      <trkpt lat="35.972952010" lon="-106.521129640">
        <ele>2579.800</ele>
        <time>2019-07-14T22:22:40Z</time>
      </trkpt>
      <trkpt lat="35.972917910" lon="-106.521046020">
        <ele>2580.200</ele>
        <time>2019-07-14T22:22:41Z</time>
      </trkpt>
      <trkpt lat="35.972874810" lon="-106.520962120">
        <ele>2580.400</ele>
        <time>2019-07-14T22:22:42Z</time>
      </trkpt>
      <trkpt lat="35.972836310" lon="-106.520876420">
        <ele>2580.500</ele>
        <time>2019-07-14T22:22:43Z</time>
      </trkpt>
      <trkpt lat="35.972793500" lon="-106.520797300">
        <ele>2582.000</ele>
        <time>2019-07-14T22:22:44Z</time>
      </trkpt>
      <trkpt lat="35.972743280" lon="-106.520707000">
        <ele>2581.900</ele>
        <time>2019-07-14T22:22:45Z</time>
      </trkpt>
      <trkpt lat="35.972667470" lon="-106.520613430">
        <ele>2581.400</ele>
        <time>2019-07-14T22:22:46Z</time>
      </trkpt>
      <trkpt lat="35.972635990" lon="-106.520562930">
        <ele>2582.800</ele>
        <time>2019-07-14T22:22:47Z</time>
      </trkpt>
      <trkpt lat="35.972600390" lon="-106.520485310">
        <ele>2584.300</ele>
        <time>2019-07-14T22:22:48Z</time>
      </trkpt>
      <trkpt lat="35.972554360" lon="-106.520429400">
        <ele>2584.300</ele>
        <time>2019-07-14T22:22:49Z</time>
      </trkpt>
      <trkpt lat="35.972514230" lon="-106.520363190">
        <ele>2582.400</ele>
        <time>2019-07-14T22:22:50Z</time>
      </trkpt>
      <trkpt lat="35.972475240" lon="-106.520300150">
        <ele>2582.400</ele>
        <time>2019-07-14T22:22:51Z</time>
      </trkpt>
      <trkpt lat="35.972447290" lon="-106.520227340">
        <ele>2583.400</ele>
        <time>2019-07-14T22:22:52Z</time>
      </trkpt>
      <trkpt lat="35.972415580" lon="-106.520176160">
        <ele>2582.900</ele>
        <time>2019-07-14T22:22:53Z</time>
      </trkpt>
      <trkpt lat="35.972381210" lon="-106.520116670">
        <ele>2583.300</ele>
        <time>2019-07-14T22:22:54Z</time>
      </trkpt>
      <trkpt lat="35.972347860" lon="-106.520051950">
        <ele>2583.300</ele>
        <time>2019-07-14T22:22:55Z</time>
      </trkpt>
      <trkpt lat="35.972280580" lon="-106.519974450">
        <ele>2583.600</ele>
        <time>2019-07-14T22:22:56Z</time>
      </trkpt>
      <trkpt lat="35.972217340" lon="-106.519922220">
        <ele>2582.700</ele>
        <time>2019-07-14T22:22:57Z</time>
      </trkpt>
      <trkpt lat="35.972179420" lon="-106.519850930">
        <ele>2582.600</ele>
        <time>2019-07-14T22:22:58Z</time>
      </trkpt>
      <trkpt lat="35.972111900" lon="-106.519751120">
        <ele>2582.400</ele>
        <time>2019-07-14T22:22:59Z</time>
      </trkpt>
      <trkpt lat="35.972034990" lon="-106.519696890">
        <ele>2583.500</ele>
        <time>2019-07-14T22:23:00Z</time>
      </trkpt>
      <trkpt lat="35.972009480" lon="-106.519607840">
        <ele>2583.400</ele>
        <time>2019-07-14T22:23:01Z</time>
      </trkpt>
      <trkpt lat="35.971944750" lon="-106.519521510">
        <ele>2583.300</ele>
        <time>2019-07-14T22:23:02Z</time>
      </trkpt>
      <trkpt lat="35.971908880" lon="-106.519463530">
        <ele>2583.300</ele>
        <time>2019-07-14T22:23:03Z</time>
      </trkpt>
      <trkpt lat="35.971902280" lon="-106.519379000">
        <ele>2583.100</ele>
        <time>2019-07-14T22:23:04Z</time>
      </trkpt>
      <trkpt lat="35.971901960" lon="-106.519286900">
        <ele>2581.000</ele>
        <time>2019-07-14T22:23:05Z</time>
      </trkpt>
      <trkpt lat="35.971899420" lon="-106.519196800">
        <ele>2582.000</ele>
        <time>2019-07-14T22:23:06Z</time>
      </trkpt>
      <trkpt lat="35.971894230" lon="-106.519107720">
        <ele>2580.800</ele>
        <time>2019-07-14T22:23:07Z</time>
      </trkpt>
      <trkpt lat="35.971889650" lon="-106.519017420">
        <ele>2578.900</ele>
        <time>2019-07-14T22:23:08Z</time>
      </trkpt>
      <trkpt lat="35.971881200" lon="-106.518929290">
        <ele>2578.100</ele>
        <time>2019-07-14T22:23:09Z</time>
      </trkpt>
      <trkpt lat="35.971862180" lon="-106.518841130">
        <ele>2578.900</ele>
        <time>2019-07-14T22:23:10Z</time>
      </trkpt>
      <trkpt lat="35.971857440" lon="-106.518737170">
        <ele>2580.400</ele>
        <time>2019-07-14T22:23:11Z</time>
      </trkpt>
      <trkpt lat="35.971849200" lon="-106.518655960">
        <ele>2581.900</ele>
        <time>2019-07-14T22:23:12Z</time>
      </trkpt>
      <trkpt lat="35.971839190" lon="-106.518583880">
        <ele>2580.000</ele>
        <time>2019-07-14T22:23:13Z</time>
      </trkpt>
      <trkpt lat="35.971840910" lon="-106.518514710">
        <ele>2579.800</ele>
        <time>2019-07-14T22:23:14Z</time>
      </trkpt>
      <trkpt lat="35.971850640" lon="-106.518453650">
        <ele>2580.400</ele>
        <time>2019-07-14T22:23:15Z</time>
      </trkpt>
      <trkpt lat="35.971851420" lon="-106.518396450">
        <ele>2579.900</ele>
        <time>2019-07-14T22:23:16Z</time>
      </trkpt>
      <trkpt lat="35.971836840" lon="-106.518344710">
        <ele>2580.000</ele>
        <time>2019-07-14T22:23:18Z</time>
      </trkpt>
      <trkpt lat="35.971855080" lon="-106.518299070">
        <ele>2582.100</ele>
        <time>2019-07-14T22:23:20Z</time>
      </trkpt>
      <trkpt lat="35.971898630" lon="-106.518265610">
        <ele>2583.600</ele>
        <time>2019-07-14T22:23:22Z</time>
      </trkpt>
      <trkpt lat="35.971863160" lon="-106.518243740">
        <ele>2583.100</ele>
        <time>2019-07-14T22:23:23Z</time>
      </trkpt>
      <trkpt lat="35.971943540" lon="-106.518216530">
        <ele>2583.700</ele>
        <time>2019-07-14T22:23:25Z</time>
      </trkpt>
      <trkpt lat="35.971984200" lon="-106.518086360">
        <ele>2583.700</ele>
        <time>2019-07-14T22:23:26Z</time>
      </trkpt>
      <trkpt lat="35.971984240" lon="-106.517982410">
        <ele>2583.100</ele>
        <time>2019-07-14T22:23:27Z</time>
      </trkpt>
      <trkpt lat="35.972017950" lon="-106.517954130">
        <ele>2581.800</ele>
        <time>2019-07-14T22:23:28Z</time>
      </trkpt>
      <trkpt lat="35.972026230" lon="-106.517867020">
        <ele>2582.200</ele>
        <time>2019-07-14T22:23:29Z</time>
      </trkpt>
      <trkpt lat="35.972054520" lon="-106.517805220">
        <ele>2583.700</ele>
        <time>2019-07-14T22:23:30Z</time>
      </trkpt>
      <trkpt lat="35.972096910" lon="-106.517705950">
        <ele>2583.900</ele>
        <time>2019-07-14T22:23:31Z</time>
      </trkpt>
      <trkpt lat="35.972127490" lon="-106.517631750">
        <ele>2583.400</ele>
        <time>2019-07-14T22:23:32Z</time>
      </trkpt>
      <trkpt lat="35.972143320" lon="-106.517568930">
        <ele>2581.900</ele>
        <time>2019-07-14T22:23:33Z</time>
      </trkpt>
      <trkpt lat="35.972154010" lon="-106.517479550">
        <ele>2582.000</ele>
        <time>2019-07-14T22:23:34Z</time>
      </trkpt>
      <trkpt lat="35.972156890" lon="-106.517421170">
        <ele>2581.500</ele>
        <time>2019-07-14T22:23:35Z</time>
      </trkpt>
      <trkpt lat="35.972171960" lon="-106.517350180">
        <ele>2580.500</ele>
        <time>2019-07-14T22:23:36Z</time>
      </trkpt>
      <trkpt lat="35.972181040" lon="-106.517262300">
        <ele>2580.500</ele>
        <time>2019-07-14T22:23:37Z</time>
      </trkpt>
      <trkpt lat="35.972180670" lon="-106.517162300">
        <ele>2582.200</ele>
        <time>2019-07-14T22:23:38Z</time>
      </trkpt>
      <trkpt lat="35.972170760" lon="-106.517055180">
        <ele>2583.800</ele>
        <time>2019-07-14T22:23:39Z</time>
      </trkpt>
      <trkpt lat="35.972157890" lon="-106.516972970">
        <ele>2585.600</ele>
        <time>2019-07-14T22:23:40Z</time>
      </trkpt>
      <trkpt lat="35.972157000" lon="-106.516882140">
        <ele>2585.000</ele>
        <time>2019-07-14T22:23:41Z</time>
      </trkpt>
      <trkpt lat="35.972160500" lon="-106.516800770">
        <ele>2585.200</ele>
        <time>2019-07-14T22:23:42Z</time>
      </trkpt>
      <trkpt lat="35.972163370" lon="-106.516716310">
        <ele>2585.000</ele>
        <time>2019-07-14T22:23:43Z</time>
      </trkpt>
      <trkpt lat="35.972179930" lon="-106.516640720">
        <ele>2584.300</ele>
        <time>2019-07-14T22:23:44Z</time>
      </trkpt>
      <trkpt lat="35.972192010" lon="-106.516556840">
        <ele>2584.600</ele>
        <time>2019-07-14T22:23:45Z</time>
      </trkpt>
      <trkpt lat="35.972220610" lon="-106.516467070">
        <ele>2583.700</ele>
        <time>2019-07-14T22:23:46Z</time>
      </trkpt>
      <trkpt lat="35.972250430" lon="-106.516359820">
        <ele>2584.700</ele>
        <time>2019-07-14T22:23:47Z</time>
      </trkpt>
      <trkpt lat="35.972279630" lon="-106.516251950">
        <ele>2584.800</ele>
        <time>2019-07-14T22:23:48Z</time>
      </trkpt>
      <trkpt lat="35.972303290" lon="-106.516152650">
        <ele>2585.600</ele>
        <time>2019-07-14T22:23:49Z</time>
      </trkpt>
      <trkpt lat="35.972308080" lon="-106.516047080">
        <ele>2585.600</ele>
        <time>2019-07-14T22:23:50Z</time>
      </trkpt>
      <trkpt lat="35.972338690" lon="-106.515938610">
        <ele>2584.500</ele>
        <time>2019-07-14T22:23:51Z</time>
      </trkpt>
      <trkpt lat="35.972323510" lon="-106.515856680">
        <ele>2583.700</ele>
        <time>2019-07-14T22:23:52Z</time>
      </trkpt>
      <trkpt lat="35.972331570" lon="-106.515771610">
        <ele>2582.700</ele>
        <time>2019-07-14T22:23:53Z</time>
      </trkpt>
      <trkpt lat="35.972343180" lon="-106.515685120">
        <ele>2582.600</ele>
        <time>2019-07-14T22:23:54Z</time>
      </trkpt>
      <trkpt lat="35.972410240" lon="-106.515612550">
        <ele>2581.500</ele>
        <time>2019-07-14T22:23:55Z</time>
      </trkpt>
      <trkpt lat="35.972448710" lon="-106.515542510">
        <ele>2580.500</ele>
        <time>2019-07-14T22:23:56Z</time>
      </trkpt>
      <trkpt lat="35.972492010" lon="-106.515491710">
        <ele>2580.300</ele>
        <time>2019-07-14T22:23:57Z</time>
      </trkpt>
      <trkpt lat="35.972528780" lon="-106.515423060">
        <ele>2581.200</ele>
        <time>2019-07-14T22:23:58Z</time>
      </trkpt>
      <trkpt lat="35.972565290" lon="-106.515358940">
        <ele>2581.200</ele>
        <time>2019-07-14T22:23:59Z</time>
      </trkpt>
      <trkpt lat="35.972600850" lon="-106.515324930">
        <ele>2581.900</ele>
        <time>2019-07-14T22:24:00Z</time>
      </trkpt>
      <trkpt lat="35.972613830" lon="-106.515273900">
        <ele>2582.100</ele>
        <time>2019-07-14T22:24:01Z</time>
      </trkpt>
      <trkpt lat="35.972651310" lon="-106.515263360">
        <ele>2582.000</ele>
        <time>2019-07-14T22:24:03Z</time>
      </trkpt>
      <trkpt lat="35.972647480" lon="-106.515209750">
        <ele>2581.300</ele>
        <time>2019-07-14T22:24:05Z</time>
      </trkpt>
      <trkpt lat="35.972683510" lon="-106.515218370">
        <ele>2582.200</ele>
        <time>2019-07-14T22:24:07Z</time>
      </trkpt>
      <trkpt lat="35.972713810" lon="-106.515135980">
        <ele>2583.100</ele>
        <time>2019-07-14T22:24:10Z</time>
      </trkpt>
      <trkpt lat="35.972727650" lon="-106.515083650">
        <ele>2582.800</ele>
        <time>2019-07-14T22:24:11Z</time>
      </trkpt>
      <trkpt lat="35.972737730" lon="-106.515000400">
        <ele>2583.500</ele>
        <time>2019-07-14T22:24:13Z</time>
      </trkpt>
      <trkpt lat="35.972771980" lon="-106.514888670">
        <ele>2585.000</ele>
        <time>2019-07-14T22:24:14Z</time>
      </trkpt>
      <trkpt lat="35.972763540" lon="-106.514813650">
        <ele>2584.100</ele>
        <time>2019-07-14T22:24:15Z</time>
      </trkpt>
      <trkpt lat="35.972755980" lon="-106.514717340">
        <ele>2583.600</ele>
        <time>2019-07-14T22:24:16Z</time>
      </trkpt>
      <trkpt lat="35.972763790" lon="-106.514606380">
        <ele>2585.500</ele>
        <time>2019-07-14T22:24:17Z</time>
      </trkpt>
      <trkpt lat="35.972757130" lon="-106.514528490">
        <ele>2583.600</ele>
        <time>2019-07-14T22:24:18Z</time>
      </trkpt>
      <trkpt lat="35.972727050" lon="-106.514428580">
        <ele>2583.800</ele>
        <time>2019-07-14T22:24:19Z</time>
      </trkpt>
      <trkpt lat="35.972726420" lon="-106.514332750">
        <ele>2583.600</ele>
        <time>2019-07-14T22:24:20Z</time>
      </trkpt>
      <trkpt lat="35.972716030" lon="-106.514228150">
        <ele>2583.700</ele>
        <time>2019-07-14T22:24:21Z</time>
      </trkpt>
      <trkpt lat="35.972720230" lon="-106.514112430">
        <ele>2584.700</ele>
        <time>2019-07-14T22:24:22Z</time>
      </trkpt>
      <trkpt lat="35.972716670" lon="-106.514013160">
        <ele>2584.900</ele>
        <time>2019-07-14T22:24:23Z</time>
      </trkpt>
      <trkpt lat="35.972716660" lon="-106.513909290">
        <ele>2585.200</ele>
        <time>2019-07-14T22:24:24Z</time>
      </trkpt>
      <trkpt lat="35.972725840" lon="-106.513790730">
        <ele>2585.600</ele>
        <time>2019-07-14T22:24:25Z</time>
      </trkpt>
      <trkpt lat="35.972740080" lon="-106.513703620">
        <ele>2584.900</ele>
        <time>2019-07-14T22:24:26Z</time>
      </trkpt>
      <trkpt lat="35.972771380" lon="-106.513601750">
        <ele>2584.500</ele>
        <time>2019-07-14T22:24:27Z</time>
      </trkpt>
      <trkpt lat="35.972773820" lon="-106.513508980">
        <ele>2584.100</ele>
        <time>2019-07-14T22:24:28Z</time>
      </trkpt>
      <trkpt lat="35.972793760" lon="-106.513404920">
        <ele>2583.900</ele>
        <time>2019-07-14T22:24:29Z</time>
      </trkpt>
      <trkpt lat="35.972827570" lon="-106.513291490">
        <ele>2584.700</ele>
        <time>2019-07-14T22:24:30Z</time>
      </trkpt>
      <trkpt lat="35.972841530" lon="-106.513206090">
        <ele>2583.200</ele>
        <time>2019-07-14T22:24:31Z</time>
      </trkpt>
      <trkpt lat="35.972873910" lon="-106.513136430">
        <ele>2583.100</ele>
        <time>2019-07-14T22:24:32Z</time>
      </trkpt>
      <trkpt lat="35.972880280" lon="-106.513030630">
        <ele>2583.300</ele>
        <time>2019-07-14T22:24:33Z</time>
      </trkpt>
      <trkpt lat="35.972916520" lon="-106.512955530">
        <ele>2583.200</ele>
        <time>2019-07-14T22:24:34Z</time>
      </trkpt>
      <trkpt lat="35.972936060" lon="-106.512874660">
        <ele>2582.200</ele>
        <time>2019-07-14T22:24:35Z</time>
      </trkpt>
      <trkpt lat="35.972983410" lon="-106.512738100">
        <ele>2583.900</ele>
        <time>2019-07-14T22:24:36Z</time>
      </trkpt>
      <trkpt lat="35.972957040" lon="-106.512631940">
        <ele>2584.400</ele>
        <time>2019-07-14T22:24:37Z</time>
      </trkpt>
      <trkpt lat="35.972964610" lon="-106.512491820">
        <ele>2585.200</ele>
        <time>2019-07-14T22:24:38Z</time>
      </trkpt>
      <trkpt lat="35.972952220" lon="-106.512381800">
        <ele>2584.900</ele>
        <time>2019-07-14T22:24:39Z</time>
      </trkpt>
      <trkpt lat="35.972969040" lon="-106.512267880">
        <ele>2585.400</ele>
        <time>2019-07-14T22:24:40Z</time>
      </trkpt>
      <trkpt lat="35.972983130" lon="-106.512159430">
        <ele>2584.200</ele>
        <time>2019-07-14T22:24:41Z</time>
      </trkpt>
      <trkpt lat="35.972997530" lon="-106.512032520">
        <ele>2585.500</ele>
        <time>2019-07-14T22:24:42Z</time>
      </trkpt>
      <trkpt lat="35.973008680" lon="-106.511940210">
        <ele>2584.300</ele>
        <time>2019-07-14T22:24:43Z</time>
      </trkpt>
      <trkpt lat="35.973008030" lon="-106.511830220">
        <ele>2582.600</ele>
        <time>2019-07-14T22:24:44Z</time>
      </trkpt>
      <trkpt lat="35.973062120" lon="-106.511746490">
        <ele>2583.800</ele>
        <time>2019-07-14T22:24:45Z</time>
      </trkpt>
      <trkpt lat="35.973111000" lon="-106.511650600">
        <ele>2585.400</ele>
        <time>2019-07-14T22:24:46Z</time>
      </trkpt>
      <trkpt lat="35.973159540" lon="-106.511548320">
        <ele>2585.300</ele>
        <time>2019-07-14T22:24:47Z</time>
      </trkpt>
      <trkpt lat="35.973210990" lon="-106.511460940">
        <ele>2585.100</ele>
        <time>2019-07-14T22:24:48Z</time>
      </trkpt>
      <trkpt lat="35.973266350" lon="-106.511368450">
        <ele>2586.800</ele>
        <time>2019-07-14T22:24:49Z</time>
      </trkpt>
      <trkpt lat="35.973325350" lon="-106.511278580">
        <ele>2587.100</ele>
        <time>2019-07-14T22:24:50Z</time>
      </trkpt>
      <trkpt lat="35.973387280" lon="-106.511185560">
        <ele>2585.300</ele>
        <time>2019-07-14T22:24:51Z</time>
      </trkpt>
      <trkpt lat="35.973435960" lon="-106.511138970">
        <ele>2585.100</ele>
        <time>2019-07-14T22:24:52Z</time>
      </trkpt>
      <trkpt lat="35.973499880" lon="-106.511089100">
        <ele>2585.600</ele>
        <time>2019-07-14T22:24:53Z</time>
      </trkpt>
      <trkpt lat="35.973546220" lon="-106.511009640">
        <ele>2585.600</ele>
        <time>2019-07-14T22:24:54Z</time>
      </trkpt>
      <trkpt lat="35.973584400" lon="-106.510918850">
        <ele>2585.700</ele>
        <time>2019-07-14T22:24:55Z</time>
      </trkpt>
      <trkpt lat="35.973653360" lon="-106.510859550">
        <ele>2585.900</ele>
        <time>2019-07-14T22:24:56Z</time>
      </trkpt>
      <trkpt lat="35.973653990" lon="-106.510754800">
        <ele>2584.000</ele>
        <time>2019-07-14T22:24:57Z</time>
      </trkpt>
      <trkpt lat="35.973672900" lon="-106.510601250">
        <ele>2584.600</ele>
        <time>2019-07-14T22:24:58Z</time>
      </trkpt>
      <trkpt lat="35.973675520" lon="-106.510524510">
        <ele>2585.100</ele>
        <time>2019-07-14T22:24:59Z</time>
      </trkpt>
      <trkpt lat="35.973721850" lon="-106.510375410">
        <ele>2586.500</ele>
        <time>2019-07-14T22:25:00Z</time>
      </trkpt>
      <trkpt lat="35.973719960" lon="-106.510283720">
        <ele>2586.700</ele>
        <time>2019-07-14T22:25:01Z</time>
      </trkpt>
      <trkpt lat="35.973705030" lon="-106.510169730">
        <ele>2589.600</ele>
        <time>2019-07-14T22:25:02Z</time>
      </trkpt>
      <trkpt lat="35.973678590" lon="-106.510071580">
        <ele>2591.300</ele>
        <time>2019-07-14T22:25:03Z</time>
      </trkpt>
      <trkpt lat="35.973643420" lon="-106.509973140">
        <ele>2590.500</ele>
        <time>2019-07-14T22:25:04Z</time>
      </trkpt>
      <trkpt lat="35.973597750" lon="-106.509861650">
        <ele>2589.200</ele>
        <time>2019-07-14T22:25:05Z</time>
      </trkpt>
      <trkpt lat="35.973552990" lon="-106.509763200">
        <ele>2588.000</ele>
        <time>2019-07-14T22:25:06Z</time>
      </trkpt>
      <trkpt lat="35.973510900" lon="-106.509660190">
        <ele>2585.800</ele>
        <time>2019-07-14T22:25:07Z</time>
      </trkpt>
      <trkpt lat="35.973465280" lon="-106.509554670">
        <ele>2587.500</ele>
        <time>2019-07-14T22:25:08Z</time>
      </trkpt>
      <trkpt lat="35.973420190" lon="-106.509451650">
        <ele>2586.100</ele>
        <time>2019-07-14T22:25:09Z</time>
      </trkpt>
      <trkpt lat="35.973376970" lon="-106.509347990">
        <ele>2586.300</ele>
        <time>2019-07-14T22:25:10Z</time>
      </trkpt>
      <trkpt lat="35.973326870" lon="-106.509235730">
        <ele>2586.000</ele>
        <time>2019-07-14T22:25:11Z</time>
      </trkpt>
      <trkpt lat="35.973274890" lon="-106.509142860">
        <ele>2586.700</ele>
        <time>2019-07-14T22:25:12Z</time>
      </trkpt>
      <trkpt lat="35.973232560" lon="-106.509037300">
        <ele>2586.200</ele>
        <time>2019-07-14T22:25:13Z</time>
      </trkpt>
      <trkpt lat="35.973175570" lon="-106.508930960">
        <ele>2585.500</ele>
        <time>2019-07-14T22:25:14Z</time>
      </trkpt>
      <trkpt lat="35.973118360" lon="-106.508821200">
        <ele>2585.100</ele>
        <time>2019-07-14T22:25:15Z</time>
      </trkpt>
      <trkpt lat="35.973068750" lon="-106.508708020">
        <ele>2586.700</ele>
        <time>2019-07-14T22:25:16Z</time>
      </trkpt>
      <trkpt lat="35.973025550" lon="-106.508580240">
        <ele>2584.500</ele>
        <time>2019-07-14T22:25:17Z</time>
      </trkpt>
      <trkpt lat="35.972983050" lon="-106.508469160">
        <ele>2584.700</ele>
        <time>2019-07-14T22:25:18Z</time>
      </trkpt>
      <trkpt lat="35.972946840" lon="-106.508365190">
        <ele>2584.700</ele>
        <time>2019-07-14T22:25:19Z</time>
      </trkpt>
      <trkpt lat="35.972906700" lon="-106.508273010">
        <ele>2586.100</ele>
        <time>2019-07-14T22:25:20Z</time>
      </trkpt>
      <trkpt lat="35.972871520" lon="-106.508195960">
        <ele>2585.700</ele>
        <time>2019-07-14T22:25:21Z</time>
      </trkpt>
      <trkpt lat="35.972838280" lon="-106.508104800">
        <ele>2587.500</ele>
        <time>2019-07-14T22:25:22Z</time>
      </trkpt>
      <trkpt lat="35.972813730" lon="-106.508024000">
        <ele>2587.000</ele>
        <time>2019-07-14T22:25:23Z</time>
      </trkpt>
      <trkpt lat="35.972797420" lon="-106.507937920">
        <ele>2585.100</ele>
        <time>2019-07-14T22:25:24Z</time>
      </trkpt>
      <trkpt lat="35.972767090" lon="-106.507843820">
        <ele>2585.900</ele>
        <time>2019-07-14T22:25:25Z</time>
      </trkpt>
      <trkpt lat="35.972742770" lon="-106.507757430">
        <ele>2586.100</ele>
        <time>2019-07-14T22:25:26Z</time>
      </trkpt>
      <trkpt lat="35.972721950" lon="-106.507671080">
        <ele>2586.500</ele>
        <time>2019-07-14T22:25:27Z</time>
      </trkpt>
      <trkpt lat="35.972712880" lon="-106.507603250">
        <ele>2588.500</ele>
        <time>2019-07-14T22:25:28Z</time>
      </trkpt>
      <trkpt lat="35.972713690" lon="-106.507558370">
        <ele>2587.200</ele>
        <time>2019-07-14T22:25:29Z</time>
      </trkpt>
      <trkpt lat="35.972701530" lon="-106.507487590">
        <ele>2587.300</ele>
        <time>2019-07-14T22:25:30Z</time>
      </trkpt>
      <trkpt lat="35.972680050" lon="-106.507418820">
        <ele>2586.700</ele>
        <time>2019-07-14T22:25:31Z</time>
      </trkpt>
      <trkpt lat="35.972659830" lon="-106.507346070">
        <ele>2585.300</ele>
        <time>2019-07-14T22:25:32Z</time>
      </trkpt>
      <trkpt lat="35.972661670" lon="-106.507280980">
        <ele>2584.200</ele>
        <time>2019-07-14T22:25:33Z</time>
      </trkpt>
      <trkpt lat="35.972652580" lon="-106.507224450">
        <ele>2583.500</ele>
        <time>2019-07-14T22:25:34Z</time>
      </trkpt>
      <trkpt lat="35.972636500" lon="-106.507162390">
        <ele>2585.500</ele>
        <time>2019-07-14T22:25:35Z</time>
      </trkpt>
      <trkpt lat="35.972629130" lon="-106.507098960">
        <ele>2586.200</ele>
        <time>2019-07-14T22:25:36Z</time>
      </trkpt>
      <trkpt lat="35.972619940" lon="-106.507035380">
        <ele>2585.300</ele>
        <time>2019-07-14T22:25:37Z</time>
      </trkpt>
      <trkpt lat="35.972599190" lon="-106.506945860">
        <ele>2586.200</ele>
        <time>2019-07-14T22:25:38Z</time>
      </trkpt>
      <trkpt lat="35.972588650" lon="-106.506857500">
        <ele>2586.200</ele>
        <time>2019-07-14T22:25:39Z</time>
      </trkpt>
      <trkpt lat="35.972562750" lon="-106.506760480">
        <ele>2586.200</ele>
        <time>2019-07-14T22:25:40Z</time>
      </trkpt>
      <trkpt lat="35.972557810" lon="-106.506673210">
        <ele>2586.600</ele>
        <time>2019-07-14T22:25:41Z</time>
      </trkpt>
      <trkpt lat="35.972548610" lon="-106.506558440">
        <ele>2583.300</ele>
        <time>2019-07-14T22:25:42Z</time>
      </trkpt>
      <trkpt lat="35.972532850" lon="-106.506459370">
        <ele>2582.700</ele>
        <time>2019-07-14T22:25:43Z</time>
      </trkpt>
      <trkpt lat="35.972508110" lon="-106.506367610">
        <ele>2582.300</ele>
        <time>2019-07-14T22:25:44Z</time>
      </trkpt>
      <trkpt lat="35.972487270" lon="-106.506266340">
        <ele>2582.100</ele>
        <time>2019-07-14T22:25:45Z</time>
      </trkpt>
      <trkpt lat="35.972470390" lon="-106.506176040">
        <ele>2583.700</ele>
        <time>2019-07-14T22:25:46Z</time>
      </trkpt>
      <trkpt lat="35.972436550" lon="-106.506073410">
        <ele>2583.900</ele>
        <time>2019-07-14T22:25:47Z</time>
      </trkpt>
      <trkpt lat="35.972405670" lon="-106.505973830">
        <ele>2584.300</ele>
        <time>2019-07-14T22:25:48Z</time>
      </trkpt>
      <trkpt lat="35.972380560" lon="-106.505873260">
        <ele>2584.400</ele>
        <time>2019-07-14T22:25:49Z</time>
      </trkpt>
      <trkpt lat="35.972362790" lon="-106.505774930">
        <ele>2585.000</ele>
        <time>2019-07-14T22:25:50Z</time>
      </trkpt>
      <trkpt lat="35.972333240" lon="-106.505668520">
        <ele>2587.500</ele>
        <time>2019-07-14T22:25:51Z</time>
      </trkpt>
      <trkpt lat="35.972301050" lon="-106.505553480">
        <ele>2589.200</ele>
        <time>2019-07-14T22:25:52Z</time>
      </trkpt>
      <trkpt lat="35.972289930" lon="-106.505461680">
        <ele>2589.400</ele>
        <time>2019-07-14T22:25:53Z</time>
      </trkpt>
      <trkpt lat="35.972286840" lon="-106.505393790">
        <ele>2593.300</ele>
        <time>2019-07-14T22:25:54Z</time>
      </trkpt>
      <trkpt lat="35.972262070" lon="-106.505303510">
        <ele>2591.700</ele>
        <time>2019-07-14T22:25:55Z</time>
      </trkpt>
      <trkpt lat="35.972238240" lon="-106.505237540">
        <ele>2593.300</ele>
        <time>2019-07-14T22:25:56Z</time>
      </trkpt>
      <trkpt lat="35.972207240" lon="-106.505176220">
        <ele>2592.000</ele>
        <time>2019-07-14T22:25:57Z</time>
      </trkpt>
      <trkpt lat="35.972188100" lon="-106.505110880">
        <ele>2590.500</ele>
        <time>2019-07-14T22:25:58Z</time>
      </trkpt>
      <trkpt lat="35.972158500" lon="-106.505056730">
        <ele>2590.700</ele>
        <time>2019-07-14T22:25:59Z</time>
      </trkpt>
      <trkpt lat="35.972150500" lon="-106.505011100">
        <ele>2587.900</ele>
        <time>2019-07-14T22:26:00Z</time>
      </trkpt>
      <trkpt lat="35.972133820" lon="-106.504946290">
        <ele>2586.700</ele>
        <time>2019-07-14T22:26:02Z</time>
      </trkpt>
      <trkpt lat="35.972081860" lon="-106.504888690">
        <ele>2588.000</ele>
        <time>2019-07-14T22:26:04Z</time>
      </trkpt>
      <trkpt lat="35.972103650" lon="-106.504848840">
        <ele>2591.100</ele>
        <time>2019-07-14T22:26:06Z</time>
      </trkpt>
      <trkpt lat="35.972078200" lon="-106.504786280">
        <ele>2591.500</ele>
        <time>2019-07-14T22:26:07Z</time>
      </trkpt>
      <trkpt lat="35.972094120" lon="-106.504735070">
        <ele>2589.400</ele>
        <time>2019-07-14T22:26:08Z</time>
      </trkpt>
      <trkpt lat="35.972116900" lon="-106.504669750">
        <ele>2588.400</ele>
        <time>2019-07-14T22:26:10Z</time>
      </trkpt>
      <trkpt lat="35.972143230" lon="-106.504629290">
        <ele>2588.800</ele>
        <time>2019-07-14T22:26:11Z</time>
      </trkpt>
      <trkpt lat="35.972172450" lon="-106.504590630">
        <ele>2589.900</ele>
        <time>2019-07-14T22:26:12Z</time>
      </trkpt>
      <trkpt lat="35.972211360" lon="-106.504535540">
        <ele>2589.700</ele>
        <time>2019-07-14T22:26:14Z</time>
      </trkpt>
      <trkpt lat="35.972227730" lon="-106.504494400">
        <ele>2585.700</ele>
        <time>2019-07-14T22:28:07Z</time>
      </trkpt>
      <trkpt lat="35.972201570" lon="-106.504537110">
        <ele>2588.400</ele>
        <time>2019-07-14T22:35:26Z</time>
      </trkpt>
      <trkpt lat="35.972173120" lon="-106.504592480">
        <ele>2587.700</ele>
        <time>2019-07-14T22:35:29Z</time>
      </trkpt>
      <trkpt lat="35.972155450" lon="-106.504636840">
        <ele>2587.500</ele>
        <time>2019-07-14T22:35:31Z</time>
      </trkpt>
      <trkpt lat="35.972138060" lon="-106.504677490">
        <ele>2588.300</ele>
        <time>2019-07-14T22:35:33Z</time>
      </trkpt>
      <trkpt lat="35.972100700" lon="-106.504715820">
        <ele>2590.300</ele>
        <time>2019-07-14T22:35:37Z</time>
      </trkpt>
      <trkpt lat="35.972063820" lon="-106.504717340">
        <ele>2590.800</ele>
        <time>2019-07-14T22:35:40Z</time>
      </trkpt>
      <trkpt lat="35.972081650" lon="-106.504766950">
        <ele>2591.300</ele>
        <time>2019-07-14T22:35:45Z</time>
      </trkpt>
      <trkpt lat="35.972107130" lon="-106.504834520">
        <ele>2591.700</ele>
        <time>2019-07-14T22:35:47Z</time>
      </trkpt>
      <trkpt lat="35.972126330" lon="-106.504892310">
        <ele>2592.000</ele>
        <time>2019-07-14T22:35:49Z</time>
      </trkpt>
      <trkpt lat="35.972141330" lon="-106.504937550">
        <ele>2591.700</ele>
        <time>2019-07-14T22:35:52Z</time>
      </trkpt>
      <trkpt lat="35.972159300" lon="-106.504989550">
        <ele>2589.500</ele>
        <time>2019-07-14T22:35:55Z</time>
      </trkpt>
      <trkpt lat="35.972175800" lon="-106.505049330">
        <ele>2589.700</ele>
        <time>2019-07-14T22:35:57Z</time>
      </trkpt>
      <trkpt lat="35.972198690" lon="-106.505126000">
        <ele>2589.500</ele>
        <time>2019-07-14T22:35:59Z</time>
      </trkpt>
      <trkpt lat="35.972220870" lon="-106.505182040">
        <ele>2589.500</ele>
        <time>2019-07-14T22:36:01Z</time>
      </trkpt>
      <trkpt lat="35.972242420" lon="-106.505227330">
        <ele>2589.500</ele>
        <time>2019-07-14T22:36:03Z</time>
      </trkpt>
      <trkpt lat="35.972291820" lon="-106.505311800">
        <ele>2590.000</ele>
        <time>2019-07-14T22:36:05Z</time>
      </trkpt>
      <trkpt lat="35.972320240" lon="-106.505359870">
        <ele>2590.200</ele>
        <time>2019-07-14T22:36:06Z</time>
      </trkpt>
      <trkpt lat="35.972338990" lon="-106.505421130">
        <ele>2590.300</ele>
        <time>2019-07-14T22:36:07Z</time>
      </trkpt>
      <trkpt lat="35.972351270" lon="-106.505492380">
        <ele>2590.500</ele>
        <time>2019-07-14T22:36:08Z</time>
      </trkpt>
      <trkpt lat="35.972370470" lon="-106.505564860">
        <ele>2590.600</ele>
        <time>2019-07-14T22:36:09Z</time>
      </trkpt>
      <trkpt lat="35.972387370" lon="-106.505641820">
        <ele>2590.900</ele>
        <time>2019-07-14T22:36:10Z</time>
      </trkpt>
      <trkpt lat="35.972408110" lon="-106.505717880">
        <ele>2590.600</ele>
        <time>2019-07-14T22:36:11Z</time>
      </trkpt>
      <trkpt lat="35.972423260" lon="-106.505794730">
        <ele>2590.000</ele>
        <time>2019-07-14T22:36:12Z</time>
      </trkpt>
      <trkpt lat="35.972444350" lon="-106.505877220">
        <ele>2590.500</ele>
        <time>2019-07-14T22:36:13Z</time>
      </trkpt>
      <trkpt lat="35.972467180" lon="-106.505961510">
        <ele>2591.000</ele>
        <time>2019-07-14T22:36:14Z</time>
      </trkpt>
      <trkpt lat="35.972486120" lon="-106.506047680">
        <ele>2591.600</ele>
        <time>2019-07-14T22:36:15Z</time>
      </trkpt>
      <trkpt lat="35.972496550" lon="-106.506146370">
        <ele>2592.000</ele>
        <time>2019-07-14T22:36:16Z</time>
      </trkpt>
      <trkpt lat="35.972518510" lon="-106.506227880">
        <ele>2591.600</ele>
        <time>2019-07-14T22:36:17Z</time>
      </trkpt>
      <trkpt lat="35.972535520" lon="-106.506322650">
        <ele>2590.100</ele>
        <time>2019-07-14T22:36:18Z</time>
      </trkpt>
      <trkpt lat="35.972560350" lon="-106.506420370">
        <ele>2590.100</ele>
        <time>2019-07-14T22:36:19Z</time>
      </trkpt>
      <trkpt lat="35.972574100" lon="-106.506522760">
        <ele>2590.000</ele>
        <time>2019-07-14T22:36:20Z</time>
      </trkpt>
      <trkpt lat="35.972584900" lon="-106.506609190">
        <ele>2590.100</ele>
        <time>2019-07-14T22:36:21Z</time>
      </trkpt>
      <trkpt lat="35.972605070" lon="-106.506706350">
        <ele>2589.800</ele>
        <time>2019-07-14T22:36:22Z</time>
      </trkpt>
      <trkpt lat="35.972619290" lon="-106.506797440">
        <ele>2589.500</ele>
        <time>2019-07-14T22:36:23Z</time>
      </trkpt>
      <trkpt lat="35.972630910" lon="-106.506890500">
        <ele>2589.300</ele>
        <time>2019-07-14T22:36:24Z</time>
      </trkpt>
      <trkpt lat="35.972648180" lon="-106.506977830">
        <ele>2589.700</ele>
        <time>2019-07-14T22:36:25Z</time>
      </trkpt>
      <trkpt lat="35.972664570" lon="-106.507075230">
        <ele>2590.200</ele>
        <time>2019-07-14T22:36:26Z</time>
      </trkpt>
      <trkpt lat="35.972677510" lon="-106.507172420">
        <ele>2589.900</ele>
        <time>2019-07-14T22:36:27Z</time>
      </trkpt>
      <trkpt lat="35.972692640" lon="-106.507260070">
        <ele>2589.600</ele>
        <time>2019-07-14T22:36:28Z</time>
      </trkpt>
      <trkpt lat="35.972714660" lon="-106.507356250">
        <ele>2589.800</ele>
        <time>2019-07-14T22:36:29Z</time>
      </trkpt>
      <trkpt lat="35.972728090" lon="-106.507450990">
        <ele>2589.700</ele>
        <time>2019-07-14T22:36:30Z</time>
      </trkpt>
      <trkpt lat="35.972744640" lon="-106.507549630">
        <ele>2589.600</ele>
        <time>2019-07-14T22:36:31Z</time>
      </trkpt>
      <trkpt lat="35.972755850" lon="-106.507652440">
        <ele>2589.700</ele>
        <time>2019-07-14T22:36:32Z</time>
      </trkpt>
      <trkpt lat="35.972773280" lon="-106.507744330">
        <ele>2589.600</ele>
        <time>2019-07-14T22:36:33Z</time>
      </trkpt>
      <trkpt lat="35.972794820" lon="-106.507849090">
        <ele>2589.700</ele>
        <time>2019-07-14T22:36:34Z</time>
      </trkpt>
      <trkpt lat="35.972811080" lon="-106.507953420">
        <ele>2590.500</ele>
        <time>2019-07-14T22:36:35Z</time>
      </trkpt>
      <trkpt lat="35.972830080" lon="-106.508061580">
        <ele>2590.400</ele>
        <time>2019-07-14T22:36:36Z</time>
      </trkpt>
      <trkpt lat="35.972858310" lon="-106.508163490">
        <ele>2590.300</ele>
        <time>2019-07-14T22:36:37Z</time>
      </trkpt>
      <trkpt lat="35.972888730" lon="-106.508268830">
        <ele>2591.900</ele>
        <time>2019-07-14T22:36:38Z</time>
      </trkpt>
      <trkpt lat="35.972924020" lon="-106.508372790">
        <ele>2591.100</ele>
        <time>2019-07-14T22:36:39Z</time>
      </trkpt>
      <trkpt lat="35.972958000" lon="-106.508473930">
        <ele>2590.300</ele>
        <time>2019-07-14T22:36:40Z</time>
      </trkpt>
      <trkpt lat="35.972996630" lon="-106.508576370">
        <ele>2589.700</ele>
        <time>2019-07-14T22:36:41Z</time>
      </trkpt>
      <trkpt lat="35.973039590" lon="-106.508673020">
        <ele>2589.200</ele>
        <time>2019-07-14T22:36:42Z</time>
      </trkpt>
      <trkpt lat="35.973090040" lon="-106.508768650">
        <ele>2588.700</ele>
        <time>2019-07-14T22:36:43Z</time>
      </trkpt>
      <trkpt lat="35.973140640" lon="-106.508869480">
        <ele>2589.300</ele>
        <time>2019-07-14T22:36:44Z</time>
      </trkpt>
      <trkpt lat="35.973187270" lon="-106.508966790">
        <ele>2588.700</ele>
        <time>2019-07-14T22:36:45Z</time>
      </trkpt>
      <trkpt lat="35.973234070" lon="-106.509061740">
        <ele>2588.900</ele>
        <time>2019-07-14T22:36:46Z</time>
      </trkpt>
      <trkpt lat="35.973276160" lon="-106.509148810">
        <ele>2589.500</ele>
        <time>2019-07-14T22:36:47Z</time>
      </trkpt>
      <trkpt lat="35.973319380" lon="-106.509242730">
        <ele>2589.400</ele>
        <time>2019-07-14T22:36:48Z</time>
      </trkpt>
      <trkpt lat="35.973357610" lon="-106.509337080">
        <ele>2589.100</ele>
        <time>2019-07-14T22:36:49Z</time>
      </trkpt>
      <trkpt lat="35.973401340" lon="-106.509427820">
        <ele>2589.400</ele>
        <time>2019-07-14T22:36:50Z</time>
      </trkpt>
      <trkpt lat="35.973435370" lon="-106.509520340">
        <ele>2589.100</ele>
        <time>2019-07-14T22:36:51Z</time>
      </trkpt>
      <trkpt lat="35.973477980" lon="-106.509620080">
        <ele>2589.300</ele>
        <time>2019-07-14T22:36:52Z</time>
      </trkpt>
      <trkpt lat="35.973523820" lon="-106.509718770">
        <ele>2589.500</ele>
        <time>2019-07-14T22:36:53Z</time>
      </trkpt>
      <trkpt lat="35.973570030" lon="-106.509816690">
        <ele>2589.700</ele>
        <time>2019-07-14T22:36:54Z</time>
      </trkpt>
      <trkpt lat="35.973613040" lon="-106.509914720">
        <ele>2590.000</ele>
        <time>2019-07-14T22:36:55Z</time>
      </trkpt>
      <trkpt lat="35.973642800" lon="-106.510005820">
        <ele>2589.900</ele>
        <time>2019-07-14T22:36:56Z</time>
      </trkpt>
      <trkpt lat="35.973676460" lon="-106.510094630">
        <ele>2589.700</ele>
        <time>2019-07-14T22:36:57Z</time>
      </trkpt>
      <trkpt lat="35.973703630" lon="-106.510186190">
        <ele>2590.200</ele>
        <time>2019-07-14T22:36:58Z</time>
      </trkpt>
      <trkpt lat="35.973718700" lon="-106.510281690">
        <ele>2589.900</ele>
        <time>2019-07-14T22:36:59Z</time>
      </trkpt>
      <trkpt lat="35.973723020" lon="-106.510385300">
        <ele>2589.900</ele>
        <time>2019-07-14T22:37:00Z</time>
      </trkpt>
      <trkpt lat="35.973710560" lon="-106.510490200">
        <ele>2589.200</ele>
        <time>2019-07-14T22:37:01Z</time>
      </trkpt>
      <trkpt lat="35.973703180" lon="-106.510585830">
        <ele>2588.700</ele>
        <time>2019-07-14T22:37:02Z</time>
      </trkpt>
      <trkpt lat="35.973677560" lon="-106.510689810">
        <ele>2588.400</ele>
        <time>2019-07-14T22:37:03Z</time>
      </trkpt>
      <trkpt lat="35.973647830" lon="-106.510791850">
        <ele>2588.000</ele>
        <time>2019-07-14T22:37:04Z</time>
      </trkpt>
      <trkpt lat="35.973591530" lon="-106.510906490">
        <ele>2588.500</ele>
        <time>2019-07-14T22:37:05Z</time>
      </trkpt>
      <trkpt lat="35.973547570" lon="-106.510998560">
        <ele>2588.300</ele>
        <time>2019-07-14T22:37:06Z</time>
      </trkpt>
      <trkpt lat="35.973486670" lon="-106.511088250">
        <ele>2587.800</ele>
        <time>2019-07-14T22:37:07Z</time>
      </trkpt>
      <trkpt lat="35.973420480" lon="-106.511176500">
        <ele>2588.600</ele>
        <time>2019-07-14T22:37:08Z</time>
      </trkpt>
      <trkpt lat="35.973356710" lon="-106.511255630">
        <ele>2588.700</ele>
        <time>2019-07-14T22:37:09Z</time>
      </trkpt>
      <trkpt lat="35.973294350" lon="-106.511334250">
        <ele>2588.500</ele>
        <time>2019-07-14T22:37:10Z</time>
      </trkpt>
      <trkpt lat="35.973235790" lon="-106.511413160">
        <ele>2588.300</ele>
        <time>2019-07-14T22:37:11Z</time>
      </trkpt>
      <trkpt lat="35.973176290" lon="-106.511506450">
        <ele>2587.400</ele>
        <time>2019-07-14T22:37:12Z</time>
      </trkpt>
      <trkpt lat="35.973127510" lon="-106.511596680">
        <ele>2587.700</ele>
        <time>2019-07-14T22:37:13Z</time>
      </trkpt>
      <trkpt lat="35.973096750" lon="-106.511699440">
        <ele>2586.300</ele>
        <time>2019-07-14T22:37:14Z</time>
      </trkpt>
      <trkpt lat="35.973056150" lon="-106.511803250">
        <ele>2586.700</ele>
        <time>2019-07-14T22:37:15Z</time>
      </trkpt>
      <trkpt lat="35.973017900" lon="-106.511905470">
        <ele>2585.800</ele>
        <time>2019-07-14T22:37:16Z</time>
      </trkpt>
      <trkpt lat="35.972994330" lon="-106.512006390">
        <ele>2585.400</ele>
        <time>2019-07-14T22:37:17Z</time>
      </trkpt>
      <trkpt lat="35.972985010" lon="-106.512115920">
        <ele>2585.000</ele>
        <time>2019-07-14T22:37:18Z</time>
      </trkpt>
      <trkpt lat="35.972968800" lon="-106.512230640">
        <ele>2584.800</ele>
        <time>2019-07-14T22:37:19Z</time>
      </trkpt>
      <trkpt lat="35.972955340" lon="-106.512333390">
        <ele>2585.200</ele>
        <time>2019-07-14T22:37:20Z</time>
      </trkpt>
      <trkpt lat="35.972958130" lon="-106.512448600">
        <ele>2585.900</ele>
        <time>2019-07-14T22:37:21Z</time>
      </trkpt>
      <trkpt lat="35.972955230" lon="-106.512553040">
        <ele>2586.100</ele>
        <time>2019-07-14T22:37:22Z</time>
      </trkpt>
      <trkpt lat="35.972962880" lon="-106.512659250">
        <ele>2585.500</ele>
        <time>2019-07-14T22:37:23Z</time>
      </trkpt>
      <trkpt lat="35.972975670" lon="-106.512764180">
        <ele>2584.900</ele>
        <time>2019-07-14T22:37:24Z</time>
      </trkpt>
      <trkpt lat="35.972959790" lon="-106.512867820">
        <ele>2584.900</ele>
        <time>2019-07-14T22:37:25Z</time>
      </trkpt>
      <trkpt lat="35.972942170" lon="-106.512970140">
        <ele>2584.600</ele>
        <time>2019-07-14T22:37:26Z</time>
      </trkpt>
      <trkpt lat="35.972918780" lon="-106.513074810">
        <ele>2585.300</ele>
        <time>2019-07-14T22:37:27Z</time>
      </trkpt>
      <trkpt lat="35.972900830" lon="-106.513162370">
        <ele>2584.400</ele>
        <time>2019-07-14T22:37:28Z</time>
      </trkpt>
      <trkpt lat="35.972879660" lon="-106.513255330">
        <ele>2583.500</ele>
        <time>2019-07-14T22:37:29Z</time>
      </trkpt>
      <trkpt lat="35.972851940" lon="-106.513355050">
        <ele>2583.800</ele>
        <time>2019-07-14T22:37:30Z</time>
      </trkpt>
      <trkpt lat="35.972820030" lon="-106.513458840">
        <ele>2583.900</ele>
        <time>2019-07-14T22:37:31Z</time>
      </trkpt>
      <trkpt lat="35.972793180" lon="-106.513565160">
        <ele>2584.000</ele>
        <time>2019-07-14T22:37:32Z</time>
      </trkpt>
      <trkpt lat="35.972776060" lon="-106.513675490">
        <ele>2584.300</ele>
        <time>2019-07-14T22:37:33Z</time>
      </trkpt>
      <trkpt lat="35.972761300" lon="-106.513790690">
        <ele>2583.600</ele>
        <time>2019-07-14T22:37:34Z</time>
      </trkpt>
      <trkpt lat="35.972737720" lon="-106.513903640">
        <ele>2583.600</ele>
        <time>2019-07-14T22:37:35Z</time>
      </trkpt>
      <trkpt lat="35.972728190" lon="-106.514017570">
        <ele>2583.400</ele>
        <time>2019-07-14T22:37:36Z</time>
      </trkpt>
      <trkpt lat="35.972720730" lon="-106.514121760">
        <ele>2583.100</ele>
        <time>2019-07-14T22:37:37Z</time>
      </trkpt>
      <trkpt lat="35.972718490" lon="-106.514245080">
        <ele>2583.900</ele>
        <time>2019-07-14T22:37:38Z</time>
      </trkpt>
      <trkpt lat="35.972720090" lon="-106.514359640">
        <ele>2583.700</ele>
        <time>2019-07-14T22:37:39Z</time>
      </trkpt>
      <trkpt lat="35.972729640" lon="-106.514473710">
        <ele>2581.800</ele>
        <time>2019-07-14T22:37:40Z</time>
      </trkpt>
      <trkpt lat="35.972748750" lon="-106.514586390">
        <ele>2580.900</ele>
        <time>2019-07-14T22:37:41Z</time>
      </trkpt>
      <trkpt lat="35.972771600" lon="-106.514692870">
        <ele>2579.800</ele>
        <time>2019-07-14T22:37:42Z</time>
      </trkpt>
      <trkpt lat="35.972780150" lon="-106.514805740">
        <ele>2579.400</ele>
        <time>2019-07-14T22:37:43Z</time>
      </trkpt>
      <trkpt lat="35.972778300" lon="-106.514914080">
        <ele>2579.100</ele>
        <time>2019-07-14T22:37:44Z</time>
      </trkpt>
      <trkpt lat="35.972756730" lon="-106.515031850">
        <ele>2579.700</ele>
        <time>2019-07-14T22:37:45Z</time>
      </trkpt>
      <trkpt lat="35.972732660" lon="-106.515123810">
        <ele>2579.500</ele>
        <time>2019-07-14T22:37:46Z</time>
      </trkpt>
      <trkpt lat="35.972692640" lon="-106.515229260">
        <ele>2578.700</ele>
        <time>2019-07-14T22:37:47Z</time>
      </trkpt>
      <trkpt lat="35.972649510" lon="-106.515314660">
        <ele>2580.300</ele>
        <time>2019-07-14T22:37:48Z</time>
      </trkpt>
      <trkpt lat="35.972600290" lon="-106.515387540">
        <ele>2581.100</ele>
        <time>2019-07-14T22:37:49Z</time>
      </trkpt>
      <trkpt lat="35.972552050" lon="-106.515461100">
        <ele>2581.400</ele>
        <time>2019-07-14T22:37:50Z</time>
      </trkpt>
      <trkpt lat="35.972500930" lon="-106.515537260">
        <ele>2581.800</ele>
        <time>2019-07-14T22:37:51Z</time>
      </trkpt>
      <trkpt lat="35.972452910" lon="-106.515604850">
        <ele>2582.000</ele>
        <time>2019-07-14T22:37:52Z</time>
      </trkpt>
      <trkpt lat="35.972423090" lon="-106.515683510">
        <ele>2583.100</ele>
        <time>2019-07-14T22:37:53Z</time>
      </trkpt>
      <trkpt lat="35.972389940" lon="-106.515753290">
        <ele>2583.200</ele>
        <time>2019-07-14T22:37:54Z</time>
      </trkpt>
      <trkpt lat="35.972381650" lon="-106.515821130">
        <ele>2582.300</ele>
        <time>2019-07-14T22:37:55Z</time>
      </trkpt>
      <trkpt lat="35.972360200" lon="-106.515905000">
        <ele>2581.800</ele>
        <time>2019-07-14T22:37:56Z</time>
      </trkpt>
      <trkpt lat="35.972352650" lon="-106.515987490">
        <ele>2581.300</ele>
        <time>2019-07-14T22:37:57Z</time>
      </trkpt>
      <trkpt lat="35.972331010" lon="-106.516072350">
        <ele>2581.400</ele>
        <time>2019-07-14T22:37:58Z</time>
      </trkpt>
      <trkpt lat="35.972312290" lon="-106.516149720">
        <ele>2581.900</ele>
        <time>2019-07-14T22:37:59Z</time>
      </trkpt>
      <trkpt lat="35.972298880" lon="-106.516226820">
        <ele>2581.500</ele>
        <time>2019-07-14T22:38:00Z</time>
      </trkpt>
      <trkpt lat="35.972278660" lon="-106.516297730">
        <ele>2581.400</ele>
        <time>2019-07-14T22:38:01Z</time>
      </trkpt>
      <trkpt lat="35.972257700" lon="-106.516365020">
        <ele>2580.300</ele>
        <time>2019-07-14T22:38:02Z</time>
      </trkpt>
      <trkpt lat="35.972235640" lon="-106.516432510">
        <ele>2581.400</ele>
        <time>2019-07-14T22:38:03Z</time>
      </trkpt>
      <trkpt lat="35.972215020" lon="-106.516498640">
        <ele>2581.500</ele>
        <time>2019-07-14T22:38:04Z</time>
      </trkpt>
      <trkpt lat="35.972198830" lon="-106.516565790">
        <ele>2582.600</ele>
        <time>2019-07-14T22:38:05Z</time>
      </trkpt>
      <trkpt lat="35.972185970" lon="-106.516627890">
        <ele>2582.600</ele>
        <time>2019-07-14T22:38:06Z</time>
      </trkpt>
      <trkpt lat="35.972164230" lon="-106.516686680">
        <ele>2582.600</ele>
        <time>2019-07-14T22:38:07Z</time>
      </trkpt>
      <trkpt lat="35.972149710" lon="-106.516743470">
        <ele>2582.900</ele>
        <time>2019-07-14T22:38:08Z</time>
      </trkpt>
      <trkpt lat="35.972151800" lon="-106.516789150">
        <ele>2582.400</ele>
        <time>2019-07-14T22:38:09Z</time>
      </trkpt>
      <trkpt lat="35.972147770" lon="-106.516842500">
        <ele>2582.600</ele>
        <time>2019-07-14T22:38:10Z</time>
      </trkpt>
      <trkpt lat="35.972145120" lon="-106.516897640">
        <ele>2582.400</ele>
        <time>2019-07-14T22:38:11Z</time>
      </trkpt>
      <trkpt lat="35.972141270" lon="-106.516948670">
        <ele>2582.500</ele>
        <time>2019-07-14T22:38:12Z</time>
      </trkpt>
      <trkpt lat="35.972148320" lon="-106.517003410">
        <ele>2582.400</ele>
        <time>2019-07-14T22:38:13Z</time>
      </trkpt>
      <trkpt lat="35.972156530" lon="-106.517056580">
        <ele>2581.600</ele>
        <time>2019-07-14T22:38:14Z</time>
      </trkpt>
      <trkpt lat="35.972168540" lon="-106.517111480">
        <ele>2581.700</ele>
        <time>2019-07-14T22:38:15Z</time>
      </trkpt>
      <trkpt lat="35.972174630" lon="-106.517156430">
        <ele>2583.200</ele>
        <time>2019-07-14T22:38:16Z</time>
      </trkpt>
      <trkpt lat="35.972177410" lon="-106.517206240">
        <ele>2583.200</ele>
        <time>2019-07-14T22:38:17Z</time>
      </trkpt>
      <trkpt lat="35.972188800" lon="-106.517296320">
        <ele>2582.900</ele>
        <time>2019-07-14T22:38:19Z</time>
      </trkpt>
      <trkpt lat="35.972194110" lon="-106.517341150">
        <ele>2583.300</ele>
        <time>2019-07-14T22:38:20Z</time>
      </trkpt>
      <trkpt lat="35.972193810" lon="-106.517432730">
        <ele>2583.500</ele>
        <time>2019-07-14T22:38:22Z</time>
      </trkpt>
      <trkpt lat="35.972196050" lon="-106.517518080">
        <ele>2582.500</ele>
        <time>2019-07-14T22:38:24Z</time>
      </trkpt>
      <trkpt lat="35.972186210" lon="-106.517600110">
        <ele>2583.200</ele>
        <time>2019-07-14T22:38:26Z</time>
      </trkpt>
      <trkpt lat="35.972164070" lon="-106.517675590">
        <ele>2582.600</ele>
        <time>2019-07-14T22:38:28Z</time>
      </trkpt>
      <trkpt lat="35.972142160" lon="-106.517754420">
        <ele>2581.200</ele>
        <time>2019-07-14T22:38:30Z</time>
      </trkpt>
      <trkpt lat="35.972112310" lon="-106.517835070">
        <ele>2580.200</ele>
        <time>2019-07-14T22:38:32Z</time>
      </trkpt>
      <trkpt lat="35.972094400" lon="-106.517873640">
        <ele>2580.700</ele>
        <time>2019-07-14T22:38:33Z</time>
      </trkpt>
      <trkpt lat="35.972073510" lon="-106.517917140">
        <ele>2579.600</ele>
        <time>2019-07-14T22:38:34Z</time>
      </trkpt>
      <trkpt lat="35.972051000" lon="-106.517963740">
        <ele>2578.800</ele>
        <time>2019-07-14T22:38:35Z</time>
      </trkpt>
      <trkpt lat="35.972026290" lon="-106.518010080">
        <ele>2578.100</ele>
        <time>2019-07-14T22:38:36Z</time>
      </trkpt>
      <trkpt lat="35.972000250" lon="-106.518055830">
        <ele>2578.800</ele>
        <time>2019-07-14T22:38:37Z</time>
      </trkpt>
      <trkpt lat="35.971972300" lon="-106.518101140">
        <ele>2580.300</ele>
        <time>2019-07-14T22:38:38Z</time>
      </trkpt>
      <trkpt lat="35.971946700" lon="-106.518141490">
        <ele>2580.200</ele>
        <time>2019-07-14T22:38:39Z</time>
      </trkpt>
      <trkpt lat="35.971923020" lon="-106.518177950">
        <ele>2579.600</ele>
        <time>2019-07-14T22:38:40Z</time>
      </trkpt>
      <trkpt lat="35.971901530" lon="-106.518214280">
        <ele>2579.700</ele>
        <time>2019-07-14T22:38:41Z</time>
      </trkpt>
      <trkpt lat="35.971882740" lon="-106.518253570">
        <ele>2578.800</ele>
        <time>2019-07-14T22:38:42Z</time>
      </trkpt>
      <trkpt lat="35.971866610" lon="-106.518294820">
        <ele>2578.100</ele>
        <time>2019-07-14T22:38:43Z</time>
      </trkpt>
      <trkpt lat="35.971843660" lon="-106.518364200">
        <ele>2578.900</ele>
        <time>2019-07-14T22:38:45Z</time>
      </trkpt>
      <trkpt lat="35.971824680" lon="-106.518439160">
        <ele>2578.900</ele>
        <time>2019-07-14T22:38:47Z</time>
      </trkpt>
      <trkpt lat="35.971816520" lon="-106.518522270">
        <ele>2578.500</ele>
        <time>2019-07-14T22:38:49Z</time>
      </trkpt>
      <trkpt lat="35.971813560" lon="-106.518572200">
        <ele>2578.900</ele>
        <time>2019-07-14T22:38:50Z</time>
      </trkpt>
      <trkpt lat="35.971811660" lon="-106.518623950">
        <ele>2579.200</ele>
        <time>2019-07-14T22:38:51Z</time>
      </trkpt>
      <trkpt lat="35.971820320" lon="-106.518674320">
        <ele>2579.700</ele>
        <time>2019-07-14T22:38:52Z</time>
      </trkpt>
      <trkpt lat="35.971821030" lon="-106.518745430">
        <ele>2579.400</ele>
        <time>2019-07-14T22:38:53Z</time>
      </trkpt>
      <trkpt lat="35.971826080" lon="-106.518818730">
        <ele>2578.500</ele>
        <time>2019-07-14T22:38:54Z</time>
      </trkpt>
      <trkpt lat="35.971832590" lon="-106.518887710">
        <ele>2578.500</ele>
        <time>2019-07-14T22:38:55Z</time>
      </trkpt>
      <trkpt lat="35.971849050" lon="-106.518953840">
        <ele>2577.800</ele>
        <time>2019-07-14T22:38:56Z</time>
      </trkpt>
      <trkpt lat="35.971858280" lon="-106.519030610">
        <ele>2577.800</ele>
        <time>2019-07-14T22:38:57Z</time>
      </trkpt>
      <trkpt lat="35.971861900" lon="-106.519110440">
        <ele>2577.900</ele>
        <time>2019-07-14T22:38:58Z</time>
      </trkpt>
      <trkpt lat="35.971849300" lon="-106.519199520">
        <ele>2578.700</ele>
        <time>2019-07-14T22:38:59Z</time>
      </trkpt>
      <trkpt lat="35.971859380" lon="-106.519275440">
        <ele>2579.700</ele>
        <time>2019-07-14T22:39:00Z</time>
      </trkpt>
      <trkpt lat="35.971878460" lon="-106.519358300">
        <ele>2578.400</ele>
        <time>2019-07-14T22:39:01Z</time>
      </trkpt>
      <trkpt lat="35.971913960" lon="-106.519437770">
        <ele>2577.900</ele>
        <time>2019-07-14T22:39:02Z</time>
      </trkpt>
      <trkpt lat="35.971958910" lon="-106.519504780">
        <ele>2577.500</ele>
        <time>2019-07-14T22:39:03Z</time>
      </trkpt>
      <trkpt lat="35.971991670" lon="-106.519573320">
        <ele>2578.500</ele>
        <time>2019-07-14T22:39:04Z</time>
      </trkpt>
      <trkpt lat="35.972036470" lon="-106.519648460">
        <ele>2578.700</ele>
        <time>2019-07-14T22:39:05Z</time>
      </trkpt>
      <trkpt lat="35.972105140" lon="-106.519700990">
        <ele>2579.200</ele>
        <time>2019-07-14T22:39:06Z</time>
      </trkpt>
      <trkpt lat="35.972158690" lon="-106.519778110">
        <ele>2579.200</ele>
        <time>2019-07-14T22:39:07Z</time>
      </trkpt>
      <trkpt lat="35.972212440" lon="-106.519855220">
        <ele>2579.700</ele>
        <time>2019-07-14T22:39:08Z</time>
      </trkpt>
      <trkpt lat="35.972280910" lon="-106.519923990">
        <ele>2578.800</ele>
        <time>2019-07-14T22:39:09Z</time>
      </trkpt>
      <trkpt lat="35.972330720" lon="-106.519993390">
        <ele>2580.500</ele>
        <time>2019-07-14T22:39:10Z</time>
      </trkpt>
      <trkpt lat="35.972370530" lon="-106.520061290">
        <ele>2580.500</ele>
        <time>2019-07-14T22:39:11Z</time>
      </trkpt>
      <trkpt lat="35.972396260" lon="-106.520120680">
        <ele>2581.000</ele>
        <time>2019-07-14T22:39:12Z</time>
      </trkpt>
      <trkpt lat="35.972438260" lon="-106.520172500">
        <ele>2580.200</ele>
        <time>2019-07-14T22:39:13Z</time>
      </trkpt>
      <trkpt lat="35.972479180" lon="-106.520231910">
        <ele>2579.700</ele>
        <time>2019-07-14T22:39:14Z</time>
      </trkpt>
      <trkpt lat="35.972514670" lon="-106.520281070">
        <ele>2579.000</ele>
        <time>2019-07-14T22:39:15Z</time>
      </trkpt>
      <trkpt lat="35.972550910" lon="-106.520334930">
        <ele>2578.800</ele>
        <time>2019-07-14T22:39:16Z</time>
      </trkpt>
      <trkpt lat="35.972587700" lon="-106.520404270">
        <ele>2579.400</ele>
        <time>2019-07-14T22:39:17Z</time>
      </trkpt>
      <trkpt lat="35.972626840" lon="-106.520468310">
        <ele>2580.300</ele>
        <time>2019-07-14T22:39:18Z</time>
      </trkpt>
      <trkpt lat="35.972669420" lon="-106.520541470">
        <ele>2579.700</ele>
        <time>2019-07-14T22:39:19Z</time>
      </trkpt>
      <trkpt lat="35.972708450" lon="-106.520620350">
        <ele>2580.600</ele>
        <time>2019-07-14T22:39:20Z</time>
      </trkpt>
      <trkpt lat="35.972745550" lon="-106.520700680">
        <ele>2580.300</ele>
        <time>2019-07-14T22:39:21Z</time>
      </trkpt>
      <trkpt lat="35.972784530" lon="-106.520776620">
        <ele>2580.100</ele>
        <time>2019-07-14T22:39:22Z</time>
      </trkpt>
      <trkpt lat="35.972823780" lon="-106.520852670">
        <ele>2579.800</ele>
        <time>2019-07-14T22:39:23Z</time>
      </trkpt>
      <trkpt lat="35.972853570" lon="-106.520931260">
        <ele>2579.800</ele>
        <time>2019-07-14T22:39:24Z</time>
      </trkpt>
      <trkpt lat="35.972884720" lon="-106.520994500">
        <ele>2581.000</ele>
        <time>2019-07-14T22:39:25Z</time>
      </trkpt>
      <trkpt lat="35.972897690" lon="-106.521069020">
        <ele>2580.600</ele>
        <time>2019-07-14T22:39:26Z</time>
      </trkpt>
      <trkpt lat="35.972927580" lon="-106.521132780">
        <ele>2580.900</ele>
        <time>2019-07-14T22:39:27Z</time>
      </trkpt>
      <trkpt lat="35.972948830" lon="-106.521190250">
        <ele>2581.400</ele>
        <time>2019-07-14T22:39:28Z</time>
      </trkpt>
      <trkpt lat="35.972971730" lon="-106.521234560">
        <ele>2581.500</ele>
        <time>2019-07-14T22:39:29Z</time>
      </trkpt>
      <trkpt lat="35.972995480" lon="-106.521279080">
        <ele>2581.100</ele>
        <time>2019-07-14T22:39:30Z</time>
      </trkpt>
      <trkpt lat="35.973018780" lon="-106.521364720">
        <ele>2582.000</ele>
        <time>2019-07-14T22:39:32Z</time>
      </trkpt>
      <trkpt lat="35.973042500" lon="-106.521401950">
        <ele>2581.500</ele>
        <time>2019-07-14T22:39:33Z</time>
      </trkpt>
      <trkpt lat="35.973066100" lon="-106.521439540">
        <ele>2581.100</ele>
        <time>2019-07-14T22:39:34Z</time>
      </trkpt>
      <trkpt lat="35.973103060" lon="-106.521499610">
        <ele>2581.800</ele>
        <time>2019-07-14T22:39:36Z</time>
      </trkpt>
      <trkpt lat="35.973145620" lon="-106.521564980">
        <ele>2582.100</ele>
        <time>2019-07-14T22:39:38Z</time>
      </trkpt>
      <trkpt lat="35.973178140" lon="-106.521613660">
        <ele>2582.300</ele>
        <time>2019-07-14T22:39:39Z</time>
      </trkpt>
      <trkpt lat="35.973204200" lon="-106.521664560">
        <ele>2583.000</ele>
        <time>2019-07-14T22:39:40Z</time>
      </trkpt>
      <trkpt lat="35.973238340" lon="-106.521708310">
        <ele>2584.200</ele>
        <time>2019-07-14T22:39:41Z</time>
      </trkpt>
      <trkpt lat="35.973279480" lon="-106.521757780">
        <ele>2584.200</ele>
        <time>2019-07-14T22:39:42Z</time>
      </trkpt>
      <trkpt lat="35.973324190" lon="-106.521806410">
        <ele>2584.500</ele>
        <time>2019-07-14T22:39:43Z</time>
      </trkpt>
      <trkpt lat="35.973368880" lon="-106.521851950">
        <ele>2584.700</ele>
        <time>2019-07-14T22:39:44Z</time>
      </trkpt>
      <trkpt lat="35.973424910" lon="-106.521899160">
        <ele>2583.400</ele>
        <time>2019-07-14T22:39:45Z</time>
      </trkpt>
      <trkpt lat="35.973481170" lon="-106.521945190">
        <ele>2582.900</ele>
        <time>2019-07-14T22:39:46Z</time>
      </trkpt>
      <trkpt lat="35.973537070" lon="-106.521983170">
        <ele>2582.200</ele>
        <time>2019-07-14T22:39:47Z</time>
      </trkpt>
      <trkpt lat="35.973595420" lon="-106.522022420">
        <ele>2582.000</ele>
        <time>2019-07-14T22:39:48Z</time>
      </trkpt>
      <trkpt lat="35.973644580" lon="-106.522057870">
        <ele>2581.400</ele>
        <time>2019-07-14T22:39:49Z</time>
      </trkpt>
      <trkpt lat="35.973688220" lon="-106.522088750">
        <ele>2581.800</ele>
        <time>2019-07-14T22:39:50Z</time>
      </trkpt>
      <trkpt lat="35.973732610" lon="-106.522119140">
        <ele>2581.700</ele>
        <time>2019-07-14T22:39:51Z</time>
      </trkpt>
      <trkpt lat="35.973778710" lon="-106.522142460">
        <ele>2581.800</ele>
        <time>2019-07-14T22:39:52Z</time>
      </trkpt>
      <trkpt lat="35.973825970" lon="-106.522175070">
        <ele>2582.100</ele>
        <time>2019-07-14T22:39:53Z</time>
      </trkpt>
      <trkpt lat="35.973881800" lon="-106.522210360">
        <ele>2581.800</ele>
        <time>2019-07-14T22:39:54Z</time>
      </trkpt>
      <trkpt lat="35.973924210" lon="-106.522237990">
        <ele>2581.800</ele>
        <time>2019-07-14T22:39:55Z</time>
      </trkpt>
      <trkpt lat="35.973966220" lon="-106.522277330">
        <ele>2581.800</ele>
        <time>2019-07-14T22:39:56Z</time>
      </trkpt>
      <trkpt lat="35.974018570" lon="-106.522319550">
        <ele>2581.100</ele>
        <time>2019-07-14T22:39:57Z</time>
      </trkpt>
      <trkpt lat="35.974072490" lon="-106.522356780">
        <ele>2581.200</ele>
        <time>2019-07-14T22:39:58Z</time>
      </trkpt>
      <trkpt lat="35.974125230" lon="-106.522395840">
        <ele>2581.600</ele>
        <time>2019-07-14T22:39:59Z</time>
      </trkpt>
      <trkpt lat="35.974184930" lon="-106.522441300">
        <ele>2581.600</ele>
        <time>2019-07-14T22:40:00Z</time>
      </trkpt>
      <trkpt lat="35.974236960" lon="-106.522483870">
        <ele>2581.900</ele>
        <time>2019-07-14T22:40:01Z</time>
      </trkpt>
      <trkpt lat="35.974292520" lon="-106.522524390">
        <ele>2581.300</ele>
        <time>2019-07-14T22:40:02Z</time>
      </trkpt>
      <trkpt lat="35.974344620" lon="-106.522566330">
        <ele>2581.600</ele>
        <time>2019-07-14T22:40:03Z</time>
      </trkpt>
      <trkpt lat="35.974396680" lon="-106.522611590">
        <ele>2582.300</ele>
        <time>2019-07-14T22:40:04Z</time>
      </trkpt>
      <trkpt lat="35.974450210" lon="-106.522655940">
        <ele>2582.200</ele>
        <time>2019-07-14T22:40:05Z</time>
      </trkpt>
      <trkpt lat="35.974498480" lon="-106.522691000">
        <ele>2581.900</ele>
        <time>2019-07-14T22:40:06Z</time>
      </trkpt>
      <trkpt lat="35.974547480" lon="-106.522731580">
        <ele>2582.400</ele>
        <time>2019-07-14T22:40:07Z</time>
      </trkpt>
      <trkpt lat="35.974589180" lon="-106.522766800">
        <ele>2582.800</ele>
        <time>2019-07-14T22:40:08Z</time>
      </trkpt>
      <trkpt lat="35.974631240" lon="-106.522810900">
        <ele>2582.400</ele>
        <time>2019-07-14T22:40:09Z</time>
      </trkpt>
      <trkpt lat="35.974663560" lon="-106.522849000">
        <ele>2581.900</ele>
        <time>2019-07-14T22:40:10Z</time>
      </trkpt>
      <trkpt lat="35.974724040" lon="-106.522913980">
        <ele>2581.800</ele>
        <time>2019-07-14T22:40:12Z</time>
      </trkpt>
      <trkpt lat="35.974750630" lon="-106.522954640">
        <ele>2581.500</ele>
        <time>2019-07-14T22:40:13Z</time>
      </trkpt>
      <trkpt lat="35.974774610" lon="-106.523000630">
        <ele>2581.500</ele>
        <time>2019-07-14T22:40:14Z</time>
      </trkpt>
      <trkpt lat="35.974797450" lon="-106.523055280">
        <ele>2581.600</ele>
        <time>2019-07-14T22:40:15Z</time>
      </trkpt>
      <trkpt lat="35.974826290" lon="-106.523133850">
        <ele>2581.500</ele>
        <time>2019-07-14T22:40:16Z</time>
      </trkpt>
      <trkpt lat="35.974857500" lon="-106.523196890">
        <ele>2581.200</ele>
        <time>2019-07-14T22:40:17Z</time>
      </trkpt>
      <trkpt lat="35.974889930" lon="-106.523285220">
        <ele>2580.600</ele>
        <time>2019-07-14T22:40:18Z</time>
      </trkpt>
      <trkpt lat="35.974924210" lon="-106.523379890">
        <ele>2580.100</ele>
        <time>2019-07-14T22:40:19Z</time>
      </trkpt>
      <trkpt lat="35.974956850" lon="-106.523478090">
        <ele>2579.700</ele>
        <time>2019-07-14T22:40:20Z</time>
      </trkpt>
      <trkpt lat="35.974982420" lon="-106.523575210">
        <ele>2579.500</ele>
        <time>2019-07-14T22:40:21Z</time>
      </trkpt>
      <trkpt lat="35.974998990" lon="-106.523676330">
        <ele>2579.300</ele>
        <time>2019-07-14T22:40:22Z</time>
      </trkpt>
      <trkpt lat="35.974998750" lon="-106.523781690">
        <ele>2578.600</ele>
        <time>2019-07-14T22:40:23Z</time>
      </trkpt>
      <trkpt lat="35.974998410" lon="-106.523881310">
        <ele>2578.300</ele>
        <time>2019-07-14T22:40:24Z</time>
      </trkpt>
      <trkpt lat="35.974985130" lon="-106.523971890">
        <ele>2577.900</ele>
        <time>2019-07-14T22:40:25Z</time>
      </trkpt>
      <trkpt lat="35.974955740" lon="-106.524070390">
        <ele>2578.400</ele>
        <time>2019-07-14T22:40:26Z</time>
      </trkpt>
      <trkpt lat="35.974923660" lon="-106.524161330">
        <ele>2578.500</ele>
        <time>2019-07-14T22:40:27Z</time>
      </trkpt>
      <trkpt lat="35.974868280" lon="-106.524239600">
        <ele>2577.900</ele>
        <time>2019-07-14T22:40:28Z</time>
      </trkpt>
      <trkpt lat="35.974818670" lon="-106.524325550">
        <ele>2577.200</ele>
        <time>2019-07-14T22:40:29Z</time>
      </trkpt>
      <trkpt lat="35.974771350" lon="-106.524406800">
        <ele>2577.300</ele>
        <time>2019-07-14T22:40:30Z</time>
      </trkpt>
      <trkpt lat="35.974723630" lon="-106.524484180">
        <ele>2577.100</ele>
        <time>2019-07-14T22:40:31Z</time>
      </trkpt>
      <trkpt lat="35.974659380" lon="-106.524570070">
        <ele>2577.100</ele>
        <time>2019-07-14T22:40:32Z</time>
      </trkpt>
      <trkpt lat="35.974595830" lon="-106.524642960">
        <ele>2577.400</ele>
        <time>2019-07-14T22:40:33Z</time>
      </trkpt>
      <trkpt lat="35.974534340" lon="-106.524712950">
        <ele>2577.500</ele>
        <time>2019-07-14T22:40:34Z</time>
      </trkpt>
      <trkpt lat="35.974467390" lon="-106.524784090">
        <ele>2577.600</ele>
        <time>2019-07-14T22:40:35Z</time>
      </trkpt>
      <trkpt lat="35.974407110" lon="-106.524856820">
        <ele>2578.700</ele>
        <time>2019-07-14T22:40:36Z</time>
      </trkpt>
      <trkpt lat="35.974351700" lon="-106.524923220">
        <ele>2579.000</ele>
        <time>2019-07-14T22:40:37Z</time>
      </trkpt>
      <trkpt lat="35.974304420" lon="-106.525003290">
        <ele>2578.900</ele>
        <time>2019-07-14T22:40:38Z</time>
      </trkpt>
      <trkpt lat="35.974271980" lon="-106.525097120">
        <ele>2578.200</ele>
        <time>2019-07-14T22:40:39Z</time>
      </trkpt>
      <trkpt lat="35.974229160" lon="-106.525199190">
        <ele>2578.100</ele>
        <time>2019-07-14T22:40:40Z</time>
      </trkpt>
      <trkpt lat="35.974198260" lon="-106.525297020">
        <ele>2578.200</ele>
        <time>2019-07-14T22:40:41Z</time>
      </trkpt>
      <trkpt lat="35.974187830" lon="-106.525403070">
        <ele>2577.700</ele>
        <time>2019-07-14T22:40:42Z</time>
      </trkpt>
      <trkpt lat="35.974168560" lon="-106.525510260">
        <ele>2577.100</ele>
        <time>2019-07-14T22:40:43Z</time>
      </trkpt>
      <trkpt lat="35.974160870" lon="-106.525620370">
        <ele>2577.200</ele>
        <time>2019-07-14T22:40:44Z</time>
      </trkpt>
      <trkpt lat="35.974149960" lon="-106.525706020">
        <ele>2577.200</ele>
        <time>2019-07-14T22:40:45Z</time>
      </trkpt>
      <trkpt lat="35.974138410" lon="-106.525785040">
        <ele>2576.800</ele>
        <time>2019-07-14T22:40:46Z</time>
      </trkpt>
      <trkpt lat="35.974133800" lon="-106.525847820">
        <ele>2577.100</ele>
        <time>2019-07-14T22:40:47Z</time>
      </trkpt>
      <trkpt lat="35.974113810" lon="-106.525921310">
        <ele>2577.200</ele>
        <time>2019-07-14T22:40:48Z</time>
      </trkpt>
      <trkpt lat="35.974102760" lon="-106.525996040">
        <ele>2577.300</ele>
        <time>2019-07-14T22:40:49Z</time>
      </trkpt>
      <trkpt lat="35.974108760" lon="-106.526054650">
        <ele>2576.400</ele>
        <time>2019-07-14T22:40:50Z</time>
      </trkpt>
      <trkpt lat="35.974105770" lon="-106.526139110">
        <ele>2576.100</ele>
        <time>2019-07-14T22:40:51Z</time>
      </trkpt>
      <trkpt lat="35.974104660" lon="-106.526235570">
        <ele>2576.200</ele>
        <time>2019-07-14T22:40:52Z</time>
      </trkpt>
      <trkpt lat="35.974109500" lon="-106.526324240">
        <ele>2576.400</ele>
        <time>2019-07-14T22:40:53Z</time>
      </trkpt>
      <trkpt lat="35.974120940" lon="-106.526422600">
        <ele>2577.100</ele>
        <time>2019-07-14T22:40:54Z</time>
      </trkpt>
      <trkpt lat="35.974125620" lon="-106.526524720">
        <ele>2577.400</ele>
        <time>2019-07-14T22:40:55Z</time>
      </trkpt>
      <trkpt lat="35.974133260" lon="-106.526632130">
        <ele>2578.100</ele>
        <time>2019-07-14T22:40:56Z</time>
      </trkpt>
      <trkpt lat="35.974151890" lon="-106.526741870">
        <ele>2577.800</ele>
        <time>2019-07-14T22:40:57Z</time>
      </trkpt>
      <trkpt lat="35.974171820" lon="-106.526846330">
        <ele>2577.600</ele>
        <time>2019-07-14T22:40:58Z</time>
      </trkpt>
      <trkpt lat="35.974199360" lon="-106.526942210">
        <ele>2577.400</ele>
        <time>2019-07-14T22:40:59Z</time>
      </trkpt>
      <trkpt lat="35.974208250" lon="-106.527043930">
        <ele>2577.000</ele>
        <time>2019-07-14T22:41:00Z</time>
      </trkpt>
      <trkpt lat="35.974229090" lon="-106.527153390">
        <ele>2577.400</ele>
        <time>2019-07-14T22:41:01Z</time>
      </trkpt>
      <trkpt lat="35.974239510" lon="-106.527254970">
        <ele>2577.600</ele>
        <time>2019-07-14T22:41:02Z</time>
      </trkpt>
      <trkpt lat="35.974259470" lon="-106.527352260">
        <ele>2578.400</ele>
        <time>2019-07-14T22:41:03Z</time>
      </trkpt>
      <trkpt lat="35.974273730" lon="-106.527455840">
        <ele>2578.300</ele>
        <time>2019-07-14T22:41:04Z</time>
      </trkpt>
      <trkpt lat="35.974288000" lon="-106.527567110">
        <ele>2578.300</ele>
        <time>2019-07-14T22:41:05Z</time>
      </trkpt>
      <trkpt lat="35.974303770" lon="-106.527690590">
        <ele>2577.500</ele>
        <time>2019-07-14T22:41:06Z</time>
      </trkpt>
      <trkpt lat="35.974304740" lon="-106.527805690">
        <ele>2576.500</ele>
        <time>2019-07-14T22:41:07Z</time>
      </trkpt>
      <trkpt lat="35.974318440" lon="-106.527915560">
        <ele>2577.000</ele>
        <time>2019-07-14T22:41:08Z</time>
      </trkpt>
      <trkpt lat="35.974318970" lon="-106.528046730">
        <ele>2577.500</ele>
        <time>2019-07-14T22:41:09Z</time>
      </trkpt>
      <trkpt lat="35.974310750" lon="-106.528159620">
        <ele>2577.000</ele>
        <time>2019-07-14T22:41:10Z</time>
      </trkpt>
      <trkpt lat="35.974310070" lon="-106.528275300">
        <ele>2577.200</ele>
        <time>2019-07-14T22:41:11Z</time>
      </trkpt>
      <trkpt lat="35.974297470" lon="-106.528398770">
        <ele>2577.400</ele>
        <time>2019-07-14T22:41:12Z</time>
      </trkpt>
      <trkpt lat="35.974294540" lon="-106.528517510">
        <ele>2577.400</ele>
        <time>2019-07-14T22:41:13Z</time>
      </trkpt>
      <trkpt lat="35.974290340" lon="-106.528617840">
        <ele>2576.700</ele>
        <time>2019-07-14T22:41:14Z</time>
      </trkpt>
      <trkpt lat="35.974289210" lon="-106.528732370">
        <ele>2577.300</ele>
        <time>2019-07-14T22:41:15Z</time>
      </trkpt>
      <trkpt lat="35.974272800" lon="-106.528853160">
        <ele>2577.800</ele>
        <time>2019-07-14T22:41:16Z</time>
      </trkpt>
      <trkpt lat="35.974266500" lon="-106.528973440">
        <ele>2578.500</ele>
        <time>2019-07-14T22:41:17Z</time>
      </trkpt>
      <trkpt lat="35.974255430" lon="-106.529087460">
        <ele>2578.100</ele>
        <time>2019-07-14T22:41:18Z</time>
      </trkpt>
      <trkpt lat="35.974247430" lon="-106.529195470">
        <ele>2577.900</ele>
        <time>2019-07-14T22:41:19Z</time>
      </trkpt>
      <trkpt lat="35.974235910" lon="-106.529312420">
        <ele>2577.400</ele>
        <time>2019-07-14T22:41:20Z</time>
      </trkpt>
      <trkpt lat="35.974223710" lon="-106.529419970">
        <ele>2578.300</ele>
        <time>2019-07-14T22:41:21Z</time>
      </trkpt>
      <trkpt lat="35.974212860" lon="-106.529536510">
        <ele>2579.000</ele>
        <time>2019-07-14T22:41:22Z</time>
      </trkpt>
      <trkpt lat="35.974192410" lon="-106.529662060">
        <ele>2579.400</ele>
        <time>2019-07-14T22:41:23Z</time>
      </trkpt>
      <trkpt lat="35.974187170" lon="-106.529776520">
        <ele>2579.300</ele>
        <time>2019-07-14T22:41:24Z</time>
      </trkpt>
      <trkpt lat="35.974176180" lon="-106.529888480">
        <ele>2579.700</ele>
        <time>2019-07-14T22:41:25Z</time>
      </trkpt>
      <trkpt lat="35.974170750" lon="-106.529993470">
        <ele>2579.100</ele>
        <time>2019-07-14T22:41:26Z</time>
      </trkpt>
      <trkpt lat="35.974150300" lon="-106.530095130">
        <ele>2580.200</ele>
        <time>2019-07-14T22:41:27Z</time>
      </trkpt>
      <trkpt lat="35.974133030" lon="-106.530191980">
        <ele>2581.000</ele>
        <time>2019-07-14T22:41:28Z</time>
      </trkpt>
      <trkpt lat="35.974120500" lon="-106.530278510">
        <ele>2580.000</ele>
        <time>2019-07-14T22:41:29Z</time>
      </trkpt>
      <trkpt lat="35.974107730" lon="-106.530379120">
        <ele>2580.400</ele>
        <time>2019-07-14T22:41:31Z</time>
      </trkpt>
      <trkpt lat="35.974050520" lon="-106.530434950">
        <ele>2578.600</ele>
        <time>2019-07-14T22:41:33Z</time>
      </trkpt>
      <trkpt lat="35.974005470" lon="-106.530445780">
        <ele>2578.700</ele>
        <time>2019-07-14T22:41:35Z</time>
      </trkpt>
      <trkpt lat="35.973960900" lon="-106.530418290">
        <ele>2577.300</ele>
        <time>2019-07-14T22:41:37Z</time>
      </trkpt>
      <trkpt lat="35.973920830" lon="-106.530337580">
        <ele>2577.800</ele>
        <time>2019-07-14T22:41:39Z</time>
      </trkpt>
      <trkpt lat="35.973901400" lon="-106.530284540">
        <ele>2577.400</ele>
        <time>2019-07-14T22:41:40Z</time>
      </trkpt>
      <trkpt lat="35.973879310" lon="-106.530224830">
        <ele>2577.200</ele>
        <time>2019-07-14T22:41:41Z</time>
      </trkpt>
      <trkpt lat="35.973853600" lon="-106.530154040">
        <ele>2577.300</ele>
        <time>2019-07-14T22:41:42Z</time>
      </trkpt>
      <trkpt lat="35.973820320" lon="-106.530094310">
        <ele>2577.800</ele>
        <time>2019-07-14T22:41:43Z</time>
      </trkpt>
      <trkpt lat="35.973783210" lon="-106.530022170">
        <ele>2577.100</ele>
        <time>2019-07-14T22:41:44Z</time>
      </trkpt>
      <trkpt lat="35.973742610" lon="-106.529950020">
        <ele>2578.200</ele>
        <time>2019-07-14T22:41:45Z</time>
      </trkpt>
      <trkpt lat="35.973703660" lon="-106.529877720">
        <ele>2577.600</ele>
        <time>2019-07-14T22:41:46Z</time>
      </trkpt>
      <trkpt lat="35.973667900" lon="-106.529813260">
        <ele>2578.100</ele>
        <time>2019-07-14T22:41:47Z</time>
      </trkpt>
      <trkpt lat="35.973640180" lon="-106.529765020">
        <ele>2578.000</ele>
        <time>2019-07-14T22:41:48Z</time>
      </trkpt>
      <trkpt lat="35.973616380" lon="-106.529722460">
        <ele>2578.100</ele>
        <time>2019-07-14T22:41:49Z</time>
      </trkpt>
      <trkpt lat="35.973591950" lon="-106.529686100">
        <ele>2578.300</ele>
        <time>2019-07-14T22:41:51Z</time>
      </trkpt>
      <trkpt lat="35.973568450" lon="-106.529641140">
        <ele>2579.000</ele>
        <time>2019-07-14T22:42:18Z</time>
      </trkpt>
      <trkpt lat="35.973542360" lon="-106.529601180">
        <ele>2578.300</ele>
        <time>2019-07-14T22:42:20Z</time>
      </trkpt>
      <trkpt lat="35.973508740" lon="-106.529553970">
        <ele>2578.000</ele>
        <time>2019-07-14T22:42:22Z</time>
      </trkpt>
      <trkpt lat="35.973483100" lon="-106.529503350">
        <ele>2578.100</ele>
        <time>2019-07-14T22:42:24Z</time>
      </trkpt>
      <trkpt lat="35.973459160" lon="-106.529458380">
        <ele>2577.800</ele>
        <time>2019-07-14T22:42:26Z</time>
      </trkpt>
      <trkpt lat="35.973438190" lon="-106.529421650">
        <ele>2577.600</ele>
        <time>2019-07-14T22:42:28Z</time>
      </trkpt>
      <trkpt lat="35.973404650" lon="-106.529361280">
        <ele>2578.500</ele>
        <time>2019-07-14T22:42:30Z</time>
      </trkpt>
      <trkpt lat="35.973379220" lon="-106.529310510">
        <ele>2578.600</ele>
        <time>2019-07-14T22:42:31Z</time>
      </trkpt>
      <trkpt lat="35.973346690" lon="-106.529253040">
        <ele>2578.200</ele>
        <time>2019-07-14T22:42:32Z</time>
      </trkpt>
      <trkpt lat="35.973314780" lon="-106.529194660">
        <ele>2578.400</ele>
        <time>2019-07-14T22:42:33Z</time>
      </trkpt>
      <trkpt lat="35.973275730" lon="-106.529125040">
        <ele>2577.900</ele>
        <time>2019-07-14T22:42:34Z</time>
      </trkpt>
      <trkpt lat="35.973233040" lon="-106.529047390">
        <ele>2577.600</ele>
        <time>2019-07-14T22:42:35Z</time>
      </trkpt>
      <trkpt lat="35.973186460" lon="-106.528965150">
        <ele>2577.200</ele>
        <time>2019-07-14T22:42:36Z</time>
      </trkpt>
      <trkpt lat="35.973144540" lon="-106.528880810">
        <ele>2576.900</ele>
        <time>2019-07-14T22:42:37Z</time>
      </trkpt>
      <trkpt lat="35.973094450" lon="-106.528788670">
        <ele>2577.000</ele>
        <time>2019-07-14T22:42:38Z</time>
      </trkpt>
      <trkpt lat="35.973054390" lon="-106.528708690">
        <ele>2575.600</ele>
        <time>2019-07-14T22:42:39Z</time>
      </trkpt>
      <trkpt lat="35.973003420" lon="-106.528623580">
        <ele>2575.400</ele>
        <time>2019-07-14T22:42:40Z</time>
      </trkpt>
      <trkpt lat="35.972953420" lon="-106.528533320">
        <ele>2575.400</ele>
        <time>2019-07-14T22:42:41Z</time>
      </trkpt>
      <trkpt lat="35.972916870" lon="-106.528447740">
        <ele>2575.000</ele>
        <time>2019-07-14T22:42:42Z</time>
      </trkpt>
      <trkpt lat="35.972872770" lon="-106.528355180">
        <ele>2575.100</ele>
        <time>2019-07-14T22:42:43Z</time>
      </trkpt>
      <trkpt lat="35.972831300" lon="-106.528265500">
        <ele>2573.800</ele>
        <time>2019-07-14T22:42:44Z</time>
      </trkpt>
      <trkpt lat="35.972781920" lon="-106.528178910">
        <ele>2573.700</ele>
        <time>2019-07-14T22:42:45Z</time>
      </trkpt>
      <trkpt lat="35.972738350" lon="-106.528089620">
        <ele>2573.800</ele>
        <time>2019-07-14T22:42:46Z</time>
      </trkpt>
      <trkpt lat="35.972688640" lon="-106.527997360">
        <ele>2573.900</ele>
        <time>2019-07-14T22:42:47Z</time>
      </trkpt>
      <trkpt lat="35.972642850" lon="-106.527902660">
        <ele>2573.000</ele>
        <time>2019-07-14T22:42:48Z</time>
      </trkpt>
      <trkpt lat="35.972592240" lon="-106.527811000">
        <ele>2573.100</ele>
        <time>2019-07-14T22:42:49Z</time>
      </trkpt>
      <trkpt lat="35.972535680" lon="-106.527714810">
        <ele>2573.400</ele>
        <time>2019-07-14T22:42:50Z</time>
      </trkpt>
      <trkpt lat="35.972487160" lon="-106.527625310">
        <ele>2572.800</ele>
        <time>2019-07-14T22:42:51Z</time>
      </trkpt>
      <trkpt lat="35.972434480" lon="-106.527533460">
        <ele>2572.500</ele>
        <time>2019-07-14T22:42:52Z</time>
      </trkpt>
      <trkpt lat="35.972380880" lon="-106.527434260">
        <ele>2571.700</ele>
        <time>2019-07-14T22:42:53Z</time>
      </trkpt>
      <trkpt lat="35.972324910" lon="-106.527335080">
        <ele>2571.100</ele>
        <time>2019-07-14T22:42:54Z</time>
      </trkpt>
      <trkpt lat="35.972262410" lon="-106.527234950">
        <ele>2570.800</ele>
        <time>2019-07-14T22:42:55Z</time>
      </trkpt>
      <trkpt lat="35.972213310" lon="-106.527125050">
        <ele>2570.000</ele>
        <time>2019-07-14T22:42:56Z</time>
      </trkpt>
      <trkpt lat="35.972157110" lon="-106.527018550">
        <ele>2570.800</ele>
        <time>2019-07-14T22:42:57Z</time>
      </trkpt>
      <trkpt lat="35.972104280" lon="-106.526917860">
        <ele>2569.000</ele>
        <time>2019-07-14T22:42:58Z</time>
      </trkpt>
      <trkpt lat="35.972044500" lon="-106.526810960">
        <ele>2568.200</ele>
        <time>2019-07-14T22:42:59Z</time>
      </trkpt>
      <trkpt lat="35.971992450" lon="-106.526702860">
        <ele>2568.000</ele>
        <time>2019-07-14T22:43:00Z</time>
      </trkpt>
      <trkpt lat="35.971934340" lon="-106.526601790">
        <ele>2568.300</ele>
        <time>2019-07-14T22:43:01Z</time>
      </trkpt>
      <trkpt lat="35.971881910" lon="-106.526499160">
        <ele>2567.300</ele>
        <time>2019-07-14T22:43:02Z</time>
      </trkpt>
      <trkpt lat="35.971825690" lon="-106.526396490">
        <ele>2567.400</ele>
        <time>2019-07-14T22:43:03Z</time>
      </trkpt>
      <trkpt lat="35.971766700" lon="-106.526299290">
        <ele>2567.600</ele>
        <time>2019-07-14T22:43:04Z</time>
      </trkpt>
      <trkpt lat="35.971711790" lon="-106.526199210">
        <ele>2568.000</ele>
        <time>2019-07-14T22:43:05Z</time>
      </trkpt>
      <trkpt lat="35.971653220" lon="-106.526103050">
        <ele>2567.300</ele>
        <time>2019-07-14T22:43:06Z</time>
      </trkpt>
      <trkpt lat="35.971596770" lon="-106.526007750">
        <ele>2566.800</ele>
        <time>2019-07-14T22:43:07Z</time>
      </trkpt>
      <trkpt lat="35.971540750" lon="-106.525909790">
        <ele>2566.200</ele>
        <time>2019-07-14T22:43:08Z</time>
      </trkpt>
      <trkpt lat="35.971486550" lon="-106.525806590">
        <ele>2566.400</ele>
        <time>2019-07-14T22:43:09Z</time>
      </trkpt>
      <trkpt lat="35.971434770" lon="-106.525706130">
        <ele>2566.500</ele>
        <time>2019-07-14T22:43:10Z</time>
      </trkpt>
      <trkpt lat="35.971374550" lon="-106.525607780">
        <ele>2566.600</ele>
        <time>2019-07-14T22:43:11Z</time>
      </trkpt>
      <trkpt lat="35.971317250" lon="-106.525503870">
        <ele>2566.500</ele>
        <time>2019-07-14T22:43:12Z</time>
      </trkpt>
      <trkpt lat="35.971258420" lon="-106.525401410">
        <ele>2566.700</ele>
        <time>2019-07-14T22:43:13Z</time>
      </trkpt>
      <trkpt lat="35.971207380" lon="-106.525306560">
        <ele>2567.200</ele>
        <time>2019-07-14T22:43:14Z</time>
      </trkpt>
      <trkpt lat="35.971150370" lon="-106.525201390">
        <ele>2566.700</ele>
        <time>2019-07-14T22:43:15Z</time>
      </trkpt>
      <trkpt lat="35.971095760" lon="-106.525102060">
        <ele>2566.900</ele>
        <time>2019-07-14T22:43:16Z</time>
      </trkpt>
      <trkpt lat="35.971040140" lon="-106.525005160">
        <ele>2567.600</ele>
        <time>2019-07-14T22:43:17Z</time>
      </trkpt>
      <trkpt lat="35.970982720" lon="-106.524911550">
        <ele>2567.200</ele>
        <time>2019-07-14T22:43:18Z</time>
      </trkpt>
      <trkpt lat="35.970923350" lon="-106.524810810">
        <ele>2566.800</ele>
        <time>2019-07-14T22:43:19Z</time>
      </trkpt>
      <trkpt lat="35.970869890" lon="-106.524713440">
        <ele>2566.300</ele>
        <time>2019-07-14T22:43:20Z</time>
      </trkpt>
      <trkpt lat="35.970817160" lon="-106.524616170">
        <ele>2566.800</ele>
        <time>2019-07-14T22:43:21Z</time>
      </trkpt>
      <trkpt lat="35.970757720" lon="-106.524517130">
        <ele>2567.000</ele>
        <time>2019-07-14T22:43:22Z</time>
      </trkpt>
      <trkpt lat="35.970702170" lon="-106.524419070">
        <ele>2567.000</ele>
        <time>2019-07-14T22:43:23Z</time>
      </trkpt>
      <trkpt lat="35.970643430" lon="-106.524318360">
        <ele>2567.500</ele>
        <time>2019-07-14T22:43:24Z</time>
      </trkpt>
      <trkpt lat="35.970584040" lon="-106.524213320">
        <ele>2567.300</ele>
        <time>2019-07-14T22:43:25Z</time>
      </trkpt>
      <trkpt lat="35.970523160" lon="-106.524109310">
        <ele>2567.700</ele>
        <time>2019-07-14T22:43:26Z</time>
      </trkpt>
      <trkpt lat="35.970467410" lon="-106.524006690">
        <ele>2567.700</ele>
        <time>2019-07-14T22:43:27Z</time>
      </trkpt>
      <trkpt lat="35.970408140" lon="-106.523900120">
        <ele>2567.500</ele>
        <time>2019-07-14T22:43:28Z</time>
      </trkpt>
      <trkpt lat="35.970345460" lon="-106.523790990">
        <ele>2567.500</ele>
        <time>2019-07-14T22:43:29Z</time>
      </trkpt>
      <trkpt lat="35.970280810" lon="-106.523683250">
        <ele>2567.900</ele>
        <time>2019-07-14T22:43:30Z</time>
      </trkpt>
      <trkpt lat="35.970224330" lon="-106.523570630">
        <ele>2567.900</ele>
        <time>2019-07-14T22:43:31Z</time>
      </trkpt>
      <trkpt lat="35.970166540" lon="-106.523458410">
        <ele>2567.900</ele>
        <time>2019-07-14T22:43:32Z</time>
      </trkpt>
      <trkpt lat="35.970110180" lon="-106.523341450">
        <ele>2568.500</ele>
        <time>2019-07-14T22:43:33Z</time>
      </trkpt>
      <trkpt lat="35.970050890" lon="-106.523238640">
        <ele>2568.600</ele>
        <time>2019-07-14T22:43:34Z</time>
      </trkpt>
      <trkpt lat="35.969991180" lon="-106.523136180">
        <ele>2568.400</ele>
        <time>2019-07-14T22:43:35Z</time>
      </trkpt>
      <trkpt lat="35.969930220" lon="-106.523024210">
        <ele>2568.600</ele>
        <time>2019-07-14T22:43:36Z</time>
      </trkpt>
      <trkpt lat="35.969867650" lon="-106.522919230">
        <ele>2568.300</ele>
        <time>2019-07-14T22:43:37Z</time>
      </trkpt>
      <trkpt lat="35.969802420" lon="-106.522809090">
        <ele>2568.600</ele>
        <time>2019-07-14T22:43:38Z</time>
      </trkpt>
      <trkpt lat="35.969742790" lon="-106.522697880">
        <ele>2569.600</ele>
        <time>2019-07-14T22:43:39Z</time>
      </trkpt>
      <trkpt lat="35.969686760" lon="-106.522586270">
        <ele>2570.200</ele>
        <time>2019-07-14T22:43:40Z</time>
      </trkpt>
      <trkpt lat="35.969630540" lon="-106.522477020">
        <ele>2570.200</ele>
        <time>2019-07-14T22:43:41Z</time>
      </trkpt>
      <trkpt lat="35.969568150" lon="-106.522361670">
        <ele>2570.000</ele>
        <time>2019-07-14T22:43:42Z</time>
      </trkpt>
      <trkpt lat="35.969500830" lon="-106.522247690">
        <ele>2569.800</ele>
        <time>2019-07-14T22:43:43Z</time>
      </trkpt>
      <trkpt lat="35.969443990" lon="-106.522143840">
        <ele>2569.800</ele>
        <time>2019-07-14T22:43:44Z</time>
      </trkpt>
      <trkpt lat="35.969385900" lon="-106.522029260">
        <ele>2569.800</ele>
        <time>2019-07-14T22:43:45Z</time>
      </trkpt>
      <trkpt lat="35.969323240" lon="-106.521911950">
        <ele>2569.300</ele>
        <time>2019-07-14T22:43:46Z</time>
      </trkpt>
      <trkpt lat="35.969257480" lon="-106.521806090">
        <ele>2569.500</ele>
        <time>2019-07-14T22:43:47Z</time>
      </trkpt>
      <trkpt lat="35.969196550" lon="-106.521700030">
        <ele>2569.700</ele>
        <time>2019-07-14T22:43:48Z</time>
      </trkpt>
      <trkpt lat="35.969144380" lon="-106.521584250">
        <ele>2569.900</ele>
        <time>2019-07-14T22:43:49Z</time>
      </trkpt>
      <trkpt lat="35.969082840" lon="-106.521469950">
        <ele>2570.100</ele>
        <time>2019-07-14T22:43:50Z</time>
      </trkpt>
      <trkpt lat="35.969023840" lon="-106.521360890">
        <ele>2571.000</ele>
        <time>2019-07-14T22:43:51Z</time>
      </trkpt>
      <trkpt lat="35.968963320" lon="-106.521248460">
        <ele>2570.500</ele>
        <time>2019-07-14T22:43:52Z</time>
      </trkpt>
      <trkpt lat="35.968906300" lon="-106.521136820">
        <ele>2570.900</ele>
        <time>2019-07-14T22:43:53Z</time>
      </trkpt>
      <trkpt lat="35.968846460" lon="-106.521025150">
        <ele>2571.400</ele>
        <time>2019-07-14T22:43:54Z</time>
      </trkpt>
      <trkpt lat="35.968791370" lon="-106.520911290">
        <ele>2571.800</ele>
        <time>2019-07-14T22:43:55Z</time>
      </trkpt>
      <trkpt lat="35.968761240" lon="-106.520803810">
        <ele>2568.800</ele>
        <time>2019-07-14T22:43:56Z</time>
      </trkpt>
      <trkpt lat="35.968697690" lon="-106.520690070">
        <ele>2568.700</ele>
        <time>2019-07-14T22:43:57Z</time>
      </trkpt>
      <trkpt lat="35.968633230" lon="-106.520578470">
        <ele>2568.800</ele>
        <time>2019-07-14T22:43:58Z</time>
      </trkpt>
      <trkpt lat="35.968566870" lon="-106.520460090">
        <ele>2568.800</ele>
        <time>2019-07-14T22:43:59Z</time>
      </trkpt>
      <trkpt lat="35.968504140" lon="-106.520348060">
        <ele>2569.100</ele>
        <time>2019-07-14T22:44:00Z</time>
      </trkpt>
      <trkpt lat="35.968446140" lon="-106.520234470">
        <ele>2569.100</ele>
        <time>2019-07-14T22:44:01Z</time>
      </trkpt>
      <trkpt lat="35.968382110" lon="-106.520121560">
        <ele>2569.400</ele>
        <time>2019-07-14T22:44:02Z</time>
      </trkpt>
      <trkpt lat="35.968320870" lon="-106.520009720">
        <ele>2570.200</ele>
        <time>2019-07-14T22:44:03Z</time>
      </trkpt>
      <trkpt lat="35.968259850" lon="-106.519896860">
        <ele>2570.600</ele>
        <time>2019-07-14T22:44:04Z</time>
      </trkpt>
      <trkpt lat="35.968191900" lon="-106.519786910">
        <ele>2571.900</ele>
        <time>2019-07-14T22:44:05Z</time>
      </trkpt>
      <trkpt lat="35.968124690" lon="-106.519686190">
        <ele>2573.100</ele>
        <time>2019-07-14T22:44:06Z</time>
      </trkpt>
      <trkpt lat="35.968071840" lon="-106.519584450">
        <ele>2573.600</ele>
        <time>2019-07-14T22:44:07Z</time>
      </trkpt>
      <trkpt lat="35.968016200" lon="-106.519478020">
        <ele>2573.600</ele>
        <time>2019-07-14T22:44:08Z</time>
      </trkpt>
      <trkpt lat="35.967954610" lon="-106.519370440">
        <ele>2573.600</ele>
        <time>2019-07-14T22:44:09Z</time>
      </trkpt>
      <trkpt lat="35.967894240" lon="-106.519262900">
        <ele>2574.000</ele>
        <time>2019-07-14T22:44:10Z</time>
      </trkpt>
      <trkpt lat="35.967830650" lon="-106.519150190">
        <ele>2575.100</ele>
        <time>2019-07-14T22:44:11Z</time>
      </trkpt>
      <trkpt lat="35.967773310" lon="-106.519043520">
        <ele>2574.100</ele>
        <time>2019-07-14T22:44:12Z</time>
      </trkpt>
      <trkpt lat="35.967707880" lon="-106.518932220">
        <ele>2573.700</ele>
        <time>2019-07-14T22:44:13Z</time>
      </trkpt>
      <trkpt lat="35.967646900" lon="-106.518815990">
        <ele>2573.900</ele>
        <time>2019-07-14T22:44:14Z</time>
      </trkpt>
      <trkpt lat="35.967578790" lon="-106.518704750">
        <ele>2574.000</ele>
        <time>2019-07-14T22:44:15Z</time>
      </trkpt>
      <trkpt lat="35.967520190" lon="-106.518584890">
        <ele>2573.700</ele>
        <time>2019-07-14T22:44:16Z</time>
      </trkpt>
      <trkpt lat="35.967445330" lon="-106.518471120">
        <ele>2575.100</ele>
        <time>2019-07-14T22:44:17Z</time>
      </trkpt>
      <trkpt lat="35.967381260" lon="-106.518359860">
        <ele>2575.100</ele>
        <time>2019-07-14T22:44:18Z</time>
      </trkpt>
      <trkpt lat="35.967319400" lon="-106.518249170">
        <ele>2575.100</ele>
        <time>2019-07-14T22:44:19Z</time>
      </trkpt>
      <trkpt lat="35.967255360" lon="-106.518141440">
        <ele>2575.000</ele>
        <time>2019-07-14T22:44:20Z</time>
      </trkpt>
      <trkpt lat="35.967191250" lon="-106.518029870">
        <ele>2575.100</ele>
        <time>2019-07-14T22:44:21Z</time>
      </trkpt>
      <trkpt lat="35.967133250" lon="-106.517926760">
        <ele>2574.600</ele>
        <time>2019-07-14T22:44:22Z</time>
      </trkpt>
      <trkpt lat="35.967081290" lon="-106.517818500">
        <ele>2573.900</ele>
        <time>2019-07-14T22:44:23Z</time>
      </trkpt>
      <trkpt lat="35.967019260" lon="-106.517711710">
        <ele>2573.400</ele>
        <time>2019-07-14T22:44:24Z</time>
      </trkpt>
      <trkpt lat="35.966949730" lon="-106.517617720">
        <ele>2573.900</ele>
        <time>2019-07-14T22:44:25Z</time>
      </trkpt>
      <trkpt lat="35.966883830" lon="-106.517515670">
        <ele>2574.400</ele>
        <time>2019-07-14T22:44:26Z</time>
      </trkpt>
      <trkpt lat="35.966815060" lon="-106.517414940">
        <ele>2574.500</ele>
        <time>2019-07-14T22:44:27Z</time>
      </trkpt>
      <trkpt lat="35.966744480" lon="-106.517309690">
        <ele>2574.700</ele>
        <time>2019-07-14T22:44:28Z</time>
      </trkpt>
      <trkpt lat="35.966672850" lon="-106.517211110">
        <ele>2574.700</ele>
        <time>2019-07-14T22:44:29Z</time>
      </trkpt>
      <trkpt lat="35.966600250" lon="-106.517115520">
        <ele>2575.300</ele>
        <time>2019-07-14T22:44:30Z</time>
      </trkpt>
      <trkpt lat="35.966523140" lon="-106.517020030">
        <ele>2575.400</ele>
        <time>2019-07-14T22:44:31Z</time>
      </trkpt>
      <trkpt lat="35.966446760" lon="-106.516919990">
        <ele>2575.800</ele>
        <time>2019-07-14T22:44:32Z</time>
      </trkpt>
      <trkpt lat="35.966371450" lon="-106.516820530">
        <ele>2576.900</ele>
        <time>2019-07-14T22:44:33Z</time>
      </trkpt>
      <trkpt lat="35.966297300" lon="-106.516718600">
        <ele>2576.500</ele>
        <time>2019-07-14T22:44:34Z</time>
      </trkpt>
      <trkpt lat="35.966216870" lon="-106.516625690">
        <ele>2576.700</ele>
        <time>2019-07-14T22:44:35Z</time>
      </trkpt>
      <trkpt lat="35.966139770" lon="-106.516537010">
        <ele>2576.300</ele>
        <time>2019-07-14T22:44:36Z</time>
      </trkpt>
      <trkpt lat="35.966061780" lon="-106.516442160">
        <ele>2575.800</ele>
        <time>2019-07-14T22:44:37Z</time>
      </trkpt>
      <trkpt lat="35.965986590" lon="-106.516350440">
        <ele>2576.500</ele>
        <time>2019-07-14T22:44:38Z</time>
      </trkpt>
      <trkpt lat="35.965906330" lon="-106.516260110">
        <ele>2576.400</ele>
        <time>2019-07-14T22:44:39Z</time>
      </trkpt>
      <trkpt lat="35.965825250" lon="-106.516163880">
        <ele>2575.900</ele>
        <time>2019-07-14T22:44:40Z</time>
      </trkpt>
      <trkpt lat="35.965748660" lon="-106.516071100">
        <ele>2575.800</ele>
        <time>2019-07-14T22:44:41Z</time>
      </trkpt>
      <trkpt lat="35.965667620" lon="-106.515980760">
        <ele>2575.700</ele>
        <time>2019-07-14T22:44:42Z</time>
      </trkpt>
      <trkpt lat="35.965586830" lon="-106.515888440">
        <ele>2575.600</ele>
        <time>2019-07-14T22:44:43Z</time>
      </trkpt>
      <trkpt lat="35.965513520" lon="-106.515809000">
        <ele>2575.800</ele>
        <time>2019-07-14T22:44:44Z</time>
      </trkpt>
      <trkpt lat="35.965439540" lon="-106.515720880">
        <ele>2576.700</ele>
        <time>2019-07-14T22:44:45Z</time>
      </trkpt>
      <trkpt lat="35.965359860" lon="-106.515627230">
        <ele>2576.900</ele>
        <time>2019-07-14T22:44:46Z</time>
      </trkpt>
      <trkpt lat="35.965280320" lon="-106.515530300">
        <ele>2577.100</ele>
        <time>2019-07-14T22:44:47Z</time>
      </trkpt>
      <trkpt lat="35.965210300" lon="-106.515439860">
        <ele>2577.200</ele>
        <time>2019-07-14T22:44:48Z</time>
      </trkpt>
      <trkpt lat="35.965136140" lon="-106.515347930">
        <ele>2578.000</ele>
        <time>2019-07-14T22:44:49Z</time>
      </trkpt>
      <trkpt lat="35.965067770" lon="-106.515259620">
        <ele>2578.600</ele>
        <time>2019-07-14T22:44:50Z</time>
      </trkpt>
      <trkpt lat="35.964983890" lon="-106.515183530">
        <ele>2577.600</ele>
        <time>2019-07-14T22:44:51Z</time>
      </trkpt>
      <trkpt lat="35.964898870" lon="-106.515111090">
        <ele>2578.000</ele>
        <time>2019-07-14T22:44:52Z</time>
      </trkpt>
      <trkpt lat="35.964811890" lon="-106.515050690">
        <ele>2578.200</ele>
        <time>2019-07-14T22:44:53Z</time>
      </trkpt>
      <trkpt lat="35.964722510" lon="-106.514981740">
        <ele>2576.800</ele>
        <time>2019-07-14T22:44:54Z</time>
      </trkpt>
      <trkpt lat="35.964633610" lon="-106.514920160">
        <ele>2576.400</ele>
        <time>2019-07-14T22:44:55Z</time>
      </trkpt>
      <trkpt lat="35.964540060" lon="-106.514883640">
        <ele>2575.700</ele>
        <time>2019-07-14T22:44:56Z</time>
      </trkpt>
      <trkpt lat="35.964447510" lon="-106.514833360">
        <ele>2574.900</ele>
        <time>2019-07-14T22:44:57Z</time>
      </trkpt>
      <trkpt lat="35.964355350" lon="-106.514788210">
        <ele>2574.900</ele>
        <time>2019-07-14T22:44:58Z</time>
      </trkpt>
      <trkpt lat="35.964263510" lon="-106.514740930">
        <ele>2575.400</ele>
        <time>2019-07-14T22:44:59Z</time>
      </trkpt>
      <trkpt lat="35.964167630" lon="-106.514686390">
        <ele>2575.400</ele>
        <time>2019-07-14T22:45:00Z</time>
      </trkpt>
      <trkpt lat="35.964070620" lon="-106.514640400">
        <ele>2575.800</ele>
        <time>2019-07-14T22:45:01Z</time>
      </trkpt>
      <trkpt lat="35.963974770" lon="-106.514586440">
        <ele>2575.600</ele>
        <time>2019-07-14T22:45:02Z</time>
      </trkpt>
      <trkpt lat="35.963880690" lon="-106.514535580">
        <ele>2575.900</ele>
        <time>2019-07-14T22:45:03Z</time>
      </trkpt>
      <trkpt lat="35.963792610" lon="-106.514494540">
        <ele>2575.800</ele>
        <time>2019-07-14T22:45:04Z</time>
      </trkpt>
      <trkpt lat="35.963697940" lon="-106.514449720">
        <ele>2576.200</ele>
        <time>2019-07-14T22:45:05Z</time>
      </trkpt>
      <trkpt lat="35.963600890" lon="-106.514406940">
        <ele>2576.100</ele>
        <time>2019-07-14T22:45:06Z</time>
      </trkpt>
      <trkpt lat="35.963502260" lon="-106.514370870">
        <ele>2576.200</ele>
        <time>2019-07-14T22:45:07Z</time>
      </trkpt>
      <trkpt lat="35.963402920" lon="-106.514335140">
        <ele>2576.000</ele>
        <time>2019-07-14T22:45:08Z</time>
      </trkpt>
      <trkpt lat="35.963299560" lon="-106.514309430">
        <ele>2575.600</ele>
        <time>2019-07-14T22:45:09Z</time>
      </trkpt>
      <trkpt lat="35.963201200" lon="-106.514269310">
        <ele>2575.800</ele>
        <time>2019-07-14T22:45:10Z</time>
      </trkpt>
      <trkpt lat="35.963106870" lon="-106.514249200">
        <ele>2574.700</ele>
        <time>2019-07-14T22:45:11Z</time>
      </trkpt>
      <trkpt lat="35.963003820" lon="-106.514236040">
        <ele>2573.000</ele>
        <time>2019-07-14T22:45:12Z</time>
      </trkpt>
      <trkpt lat="35.962904490" lon="-106.514201570">
        <ele>2573.500</ele>
        <time>2019-07-14T22:45:13Z</time>
      </trkpt>
      <trkpt lat="35.962806850" lon="-106.514180240">
        <ele>2573.500</ele>
        <time>2019-07-14T22:45:14Z</time>
      </trkpt>
      <trkpt lat="35.962712460" lon="-106.514164190">
        <ele>2574.000</ele>
        <time>2019-07-14T22:45:15Z</time>
      </trkpt>
      <trkpt lat="35.962616670" lon="-106.514183670">
        <ele>2573.100</ele>
        <time>2019-07-14T22:45:16Z</time>
      </trkpt>
      <trkpt lat="35.962535000" lon="-106.514181630">
        <ele>2573.600</ele>
        <time>2019-07-14T22:45:17Z</time>
      </trkpt>
      <trkpt lat="35.962470140" lon="-106.514217570">
        <ele>2572.400</ele>
        <time>2019-07-14T22:45:18Z</time>
      </trkpt>
      <trkpt lat="35.962425920" lon="-106.514246650">
        <ele>2573.000</ele>
        <time>2019-07-14T22:45:19Z</time>
      </trkpt>
      <trkpt lat="35.962374530" lon="-106.514272880">
        <ele>2573.300</ele>
        <time>2019-07-14T22:45:21Z</time>
      </trkpt>
      <trkpt lat="35.962340590" lon="-106.514291350">
        <ele>2572.600</ele>
        <time>2019-07-14T22:45:24Z</time>
      </trkpt>
      <trkpt lat="35.962282120" lon="-106.514331740">
        <ele>2572.300</ele>
        <time>2019-07-14T22:45:27Z</time>
      </trkpt>
      <trkpt lat="35.962245230" lon="-106.514359000">
        <ele>2572.500</ele>
        <time>2019-07-14T22:45:28Z</time>
      </trkpt>
      <trkpt lat="35.962210310" lon="-106.514392630">
        <ele>2572.900</ele>
        <time>2019-07-14T22:45:29Z</time>
      </trkpt>
      <trkpt lat="35.962168810" lon="-106.514427560">
        <ele>2572.800</ele>
        <time>2019-07-14T22:45:30Z</time>
      </trkpt>
      <trkpt lat="35.962132310" lon="-106.514467280">
        <ele>2573.200</ele>
        <time>2019-07-14T22:45:31Z</time>
      </trkpt>
      <trkpt lat="35.962087700" lon="-106.514512530">
        <ele>2573.400</ele>
        <time>2019-07-14T22:45:32Z</time>
      </trkpt>
      <trkpt lat="35.962034160" lon="-106.514561640">
        <ele>2573.600</ele>
        <time>2019-07-14T22:45:33Z</time>
      </trkpt>
      <trkpt lat="35.961977710" lon="-106.514609900">
        <ele>2573.300</ele>
        <time>2019-07-14T22:45:34Z</time>
      </trkpt>
      <trkpt lat="35.961927050" lon="-106.514665710">
        <ele>2572.100</ele>
        <time>2019-07-14T22:45:35Z</time>
      </trkpt>
      <trkpt lat="35.961869230" lon="-106.514720800">
        <ele>2571.700</ele>
        <time>2019-07-14T22:45:36Z</time>
      </trkpt>
      <trkpt lat="35.961812260" lon="-106.514772540">
        <ele>2571.500</ele>
        <time>2019-07-14T22:45:37Z</time>
      </trkpt>
      <trkpt lat="35.961750410" lon="-106.514834680">
        <ele>2572.000</ele>
        <time>2019-07-14T22:45:38Z</time>
      </trkpt>
      <trkpt lat="35.961683270" lon="-106.514893870">
        <ele>2572.800</ele>
        <time>2019-07-14T22:45:39Z</time>
      </trkpt>
      <trkpt lat="35.961620730" lon="-106.514956360">
        <ele>2572.700</ele>
        <time>2019-07-14T22:45:40Z</time>
      </trkpt>
      <trkpt lat="35.961553210" lon="-106.515023920">
        <ele>2572.200</ele>
        <time>2019-07-14T22:45:41Z</time>
      </trkpt>
      <trkpt lat="35.961481830" lon="-106.515095750">
        <ele>2572.100</ele>
        <time>2019-07-14T22:45:42Z</time>
      </trkpt>
      <trkpt lat="35.961417330" lon="-106.515170260">
        <ele>2572.400</ele>
        <time>2019-07-14T22:45:43Z</time>
      </trkpt>
      <trkpt lat="35.961335490" lon="-106.515248590">
        <ele>2571.300</ele>
        <time>2019-07-14T22:45:44Z</time>
      </trkpt>
      <trkpt lat="35.961268740" lon="-106.515318220">
        <ele>2571.200</ele>
        <time>2019-07-14T22:45:45Z</time>
      </trkpt>
      <trkpt lat="35.961198840" lon="-106.515400300">
        <ele>2572.100</ele>
        <time>2019-07-14T22:45:46Z</time>
      </trkpt>
      <trkpt lat="35.961131030" lon="-106.515482300">
        <ele>2572.400</ele>
        <time>2019-07-14T22:45:47Z</time>
      </trkpt>
      <trkpt lat="35.961070330" lon="-106.515559680">
        <ele>2573.200</ele>
        <time>2019-07-14T22:45:48Z</time>
      </trkpt>
      <trkpt lat="35.961006230" lon="-106.515639070">
        <ele>2573.600</ele>
        <time>2019-07-14T22:45:49Z</time>
      </trkpt>
      <trkpt lat="35.960942390" lon="-106.515713040">
        <ele>2573.800</ele>
        <time>2019-07-14T22:45:50Z</time>
      </trkpt>
      <trkpt lat="35.960896310" lon="-106.515783660">
        <ele>2575.100</ele>
        <time>2019-07-14T22:45:51Z</time>
      </trkpt>
      <trkpt lat="35.960842800" lon="-106.515854360">
        <ele>2575.600</ele>
        <time>2019-07-14T22:45:52Z</time>
      </trkpt>
      <trkpt lat="35.960789810" lon="-106.515921570">
        <ele>2575.700</ele>
        <time>2019-07-14T22:45:53Z</time>
      </trkpt>
      <trkpt lat="35.960735600" lon="-106.515983580">
        <ele>2575.200</ele>
        <time>2019-07-14T22:45:54Z</time>
      </trkpt>
      <trkpt lat="35.960687150" lon="-106.516043610">
        <ele>2575.500</ele>
        <time>2019-07-14T22:45:55Z</time>
      </trkpt>
      <trkpt lat="35.960634720" lon="-106.516105270">
        <ele>2575.100</ele>
        <time>2019-07-14T22:45:56Z</time>
      </trkpt>
      <trkpt lat="35.960588730" lon="-106.516164710">
        <ele>2575.700</ele>
        <time>2019-07-14T22:45:57Z</time>
      </trkpt>
      <trkpt lat="35.960548480" lon="-106.516214910">
        <ele>2576.900</ele>
        <time>2019-07-14T22:45:58Z</time>
      </trkpt>
      <trkpt lat="35.960489750" lon="-106.516279300">
        <ele>2576.100</ele>
        <time>2019-07-14T22:45:59Z</time>
      </trkpt>
      <trkpt lat="35.960441980" lon="-106.516344410">
        <ele>2576.400</ele>
        <time>2019-07-14T22:46:00Z</time>
      </trkpt>
      <trkpt lat="35.960388120" lon="-106.516406650">
        <ele>2576.600</ele>
        <time>2019-07-14T22:46:01Z</time>
      </trkpt>
      <trkpt lat="35.960328610" lon="-106.516470900">
        <ele>2575.700</ele>
        <time>2019-07-14T22:46:02Z</time>
      </trkpt>
      <trkpt lat="35.960266040" lon="-106.516546000">
        <ele>2575.800</ele>
        <time>2019-07-14T22:46:03Z</time>
      </trkpt>
      <trkpt lat="35.960207020" lon="-106.516625350">
        <ele>2576.900</ele>
        <time>2019-07-14T22:46:04Z</time>
      </trkpt>
      <trkpt lat="35.960148940" lon="-106.516708980">
        <ele>2576.900</ele>
        <time>2019-07-14T22:46:05Z</time>
      </trkpt>
      <trkpt lat="35.960087290" lon="-106.516792060">
        <ele>2577.900</ele>
        <time>2019-07-14T22:46:06Z</time>
      </trkpt>
      <trkpt lat="35.960023140" lon="-106.516872460">
        <ele>2577.600</ele>
        <time>2019-07-14T22:46:07Z</time>
      </trkpt>
      <trkpt lat="35.959954520" lon="-106.516954870">
        <ele>2577.400</ele>
        <time>2019-07-14T22:46:08Z</time>
      </trkpt>
      <trkpt lat="35.959891350" lon="-106.517043070">
        <ele>2577.300</ele>
        <time>2019-07-14T22:46:09Z</time>
      </trkpt>
      <trkpt lat="35.959829970" lon="-106.517126360">
        <ele>2577.900</ele>
        <time>2019-07-14T22:46:10Z</time>
      </trkpt>
      <trkpt lat="35.959764480" lon="-106.517207710">
        <ele>2577.000</ele>
        <time>2019-07-14T22:46:11Z</time>
      </trkpt>
      <trkpt lat="35.959701910" lon="-106.517282900">
        <ele>2576.800</ele>
        <time>2019-07-14T22:46:12Z</time>
      </trkpt>
      <trkpt lat="35.959655940" lon="-106.517362240">
        <ele>2576.700</ele>
        <time>2019-07-14T22:46:13Z</time>
      </trkpt>
      <trkpt lat="35.959602980" lon="-106.517440830">
        <ele>2576.800</ele>
        <time>2019-07-14T22:46:14Z</time>
      </trkpt>
      <trkpt lat="35.959543620" lon="-106.517520730">
        <ele>2576.400</ele>
        <time>2019-07-14T22:46:15Z</time>
      </trkpt>
      <trkpt lat="35.959488940" lon="-106.517588500">
        <ele>2574.900</ele>
        <time>2019-07-14T22:46:16Z</time>
      </trkpt>
      <trkpt lat="35.959443660" lon="-106.517656440">
        <ele>2575.400</ele>
        <time>2019-07-14T22:46:17Z</time>
      </trkpt>
      <trkpt lat="35.959388150" lon="-106.517739700">
        <ele>2574.700</ele>
        <time>2019-07-14T22:46:18Z</time>
      </trkpt>
      <trkpt lat="35.959328580" lon="-106.517812930">
        <ele>2574.200</ele>
        <time>2019-07-14T22:46:19Z</time>
      </trkpt>
      <trkpt lat="35.959261600" lon="-106.517889910">
        <ele>2574.100</ele>
        <time>2019-07-14T22:46:20Z</time>
      </trkpt>
      <trkpt lat="35.959207530" lon="-106.517967480">
        <ele>2575.200</ele>
        <time>2019-07-14T22:46:21Z</time>
      </trkpt>
      <trkpt lat="35.959148740" lon="-106.518046390">
        <ele>2575.000</ele>
        <time>2019-07-14T22:46:22Z</time>
      </trkpt>
      <trkpt lat="35.959087770" lon="-106.518121600">
        <ele>2574.900</ele>
        <time>2019-07-14T22:46:23Z</time>
      </trkpt>
      <trkpt lat="35.959011470" lon="-106.518191800">
        <ele>2574.900</ele>
        <time>2019-07-14T22:46:24Z</time>
      </trkpt>
      <trkpt lat="35.958939900" lon="-106.518265230">
        <ele>2575.300</ele>
        <time>2019-07-14T22:46:25Z</time>
      </trkpt>
      <trkpt lat="35.958866140" lon="-106.518330230">
        <ele>2575.900</ele>
        <time>2019-07-14T22:46:26Z</time>
      </trkpt>
      <trkpt lat="35.958792340" lon="-106.518391580">
        <ele>2575.900</ele>
        <time>2019-07-14T22:46:27Z</time>
      </trkpt>
      <trkpt lat="35.958718340" lon="-106.518445300">
        <ele>2576.100</ele>
        <time>2019-07-14T22:46:28Z</time>
      </trkpt>
      <trkpt lat="35.958641660" lon="-106.518498440">
        <ele>2576.000</ele>
        <time>2019-07-14T22:46:29Z</time>
      </trkpt>
      <trkpt lat="35.958565120" lon="-106.518557080">
        <ele>2575.900</ele>
        <time>2019-07-14T22:46:30Z</time>
      </trkpt>
      <trkpt lat="35.958489360" lon="-106.518614410">
        <ele>2575.800</ele>
        <time>2019-07-14T22:46:31Z</time>
      </trkpt>
      <trkpt lat="35.958411790" lon="-106.518667700">
        <ele>2575.700</ele>
        <time>2019-07-14T22:46:32Z</time>
      </trkpt>
      <trkpt lat="35.958333770" lon="-106.518724910">
        <ele>2575.700</ele>
        <time>2019-07-14T22:46:33Z</time>
      </trkpt>
      <trkpt lat="35.958259250" lon="-106.518779770">
        <ele>2575.600</ele>
        <time>2019-07-14T22:46:34Z</time>
      </trkpt>
      <trkpt lat="35.958179560" lon="-106.518828880">
        <ele>2575.800</ele>
        <time>2019-07-14T22:46:35Z</time>
      </trkpt>
      <trkpt lat="35.958098150" lon="-106.518881980">
        <ele>2575.900</ele>
        <time>2019-07-14T22:46:36Z</time>
      </trkpt>
      <trkpt lat="35.958028900" lon="-106.518930640">
        <ele>2575.400</ele>
        <time>2019-07-14T22:46:37Z</time>
      </trkpt>
      <trkpt lat="35.957946130" lon="-106.518977780">
        <ele>2575.400</ele>
        <time>2019-07-14T22:46:38Z</time>
      </trkpt>
      <trkpt lat="35.957856590" lon="-106.519019230">
        <ele>2575.200</ele>
        <time>2019-07-14T22:46:39Z</time>
      </trkpt>
      <trkpt lat="35.957770510" lon="-106.519060650">
        <ele>2576.300</ele>
        <time>2019-07-14T22:46:40Z</time>
      </trkpt>
      <trkpt lat="35.957686510" lon="-106.519087040">
        <ele>2576.200</ele>
        <time>2019-07-14T22:46:41Z</time>
      </trkpt>
      <trkpt lat="35.957606850" lon="-106.519116880">
        <ele>2575.300</ele>
        <time>2019-07-14T22:46:42Z</time>
      </trkpt>
      <trkpt lat="35.957526310" lon="-106.519149810">
        <ele>2575.100</ele>
        <time>2019-07-14T22:46:43Z</time>
      </trkpt>
      <trkpt lat="35.957444590" lon="-106.519183250">
        <ele>2575.100</ele>
        <time>2019-07-14T22:46:44Z</time>
      </trkpt>
      <trkpt lat="35.957359550" lon="-106.519211960">
        <ele>2574.700</ele>
        <time>2019-07-14T22:46:45Z</time>
      </trkpt>
      <trkpt lat="35.957269810" lon="-106.519239610">
        <ele>2575.800</ele>
        <time>2019-07-14T22:46:46Z</time>
      </trkpt>
      <trkpt lat="35.957184400" lon="-106.519267320">
        <ele>2575.700</ele>
        <time>2019-07-14T22:46:47Z</time>
      </trkpt>
      <trkpt lat="35.957101580" lon="-106.519296960">
        <ele>2576.000</ele>
        <time>2019-07-14T22:46:48Z</time>
      </trkpt>
      <trkpt lat="35.957027640" lon="-106.519331550">
        <ele>2575.300</ele>
        <time>2019-07-14T22:46:49Z</time>
      </trkpt>
      <trkpt lat="35.956938410" lon="-106.519364730">
        <ele>2574.500</ele>
        <time>2019-07-14T22:46:50Z</time>
      </trkpt>
      <trkpt lat="35.956856420" lon="-106.519396510">
        <ele>2574.700</ele>
        <time>2019-07-14T22:46:51Z</time>
      </trkpt>
      <trkpt lat="35.956776500" lon="-106.519423440">
        <ele>2575.500</ele>
        <time>2019-07-14T22:46:52Z</time>
      </trkpt>
      <trkpt lat="35.956688040" lon="-106.519459500">
        <ele>2576.100</ele>
        <time>2019-07-14T22:46:53Z</time>
      </trkpt>
      <trkpt lat="35.956606720" lon="-106.519488870">
        <ele>2576.000</ele>
        <time>2019-07-14T22:46:54Z</time>
      </trkpt>
      <trkpt lat="35.956532400" lon="-106.519513310">
        <ele>2576.000</ele>
        <time>2019-07-14T22:46:55Z</time>
      </trkpt>
      <trkpt lat="35.956445550" lon="-106.519548630">
        <ele>2576.600</ele>
        <time>2019-07-14T22:46:56Z</time>
      </trkpt>
      <trkpt lat="35.956362530" lon="-106.519573340">
        <ele>2576.100</ele>
        <time>2019-07-14T22:46:57Z</time>
      </trkpt>
      <trkpt lat="35.956272670" lon="-106.519606890">
        <ele>2576.200</ele>
        <time>2019-07-14T22:46:58Z</time>
      </trkpt>
      <trkpt lat="35.956189850" lon="-106.519631960">
        <ele>2576.000</ele>
        <time>2019-07-14T22:46:59Z</time>
      </trkpt>
      <trkpt lat="35.956098890" lon="-106.519662590">
        <ele>2576.400</ele>
        <time>2019-07-14T22:47:00Z</time>
      </trkpt>
      <trkpt lat="35.956010830" lon="-106.519688600">
        <ele>2576.300</ele>
        <time>2019-07-14T22:47:01Z</time>
      </trkpt>
      <trkpt lat="35.955907160" lon="-106.519724180">
        <ele>2576.400</ele>
        <time>2019-07-14T22:47:02Z</time>
      </trkpt>
      <trkpt lat="35.955810000" lon="-106.519754200">
        <ele>2576.700</ele>
        <time>2019-07-14T22:47:03Z</time>
      </trkpt>
      <trkpt lat="35.955703510" lon="-106.519789510">
        <ele>2576.600</ele>
        <time>2019-07-14T22:47:04Z</time>
      </trkpt>
      <trkpt lat="35.955576400" lon="-106.519843740">
        <ele>2576.800</ele>
        <time>2019-07-14T22:47:05Z</time>
      </trkpt>
      <trkpt lat="35.955468510" lon="-106.519871430">
        <ele>2576.600</ele>
        <time>2019-07-14T22:47:06Z</time>
      </trkpt>
      <trkpt lat="35.955352680" lon="-106.519911810">
        <ele>2577.100</ele>
        <time>2019-07-14T22:47:07Z</time>
      </trkpt>
      <trkpt lat="35.955242560" lon="-106.519939630">
        <ele>2577.100</ele>
        <time>2019-07-14T22:47:08Z</time>
      </trkpt>
      <trkpt lat="35.955129920" lon="-106.519974340">
        <ele>2577.200</ele>
        <time>2019-07-14T22:47:09Z</time>
      </trkpt>
      <trkpt lat="35.955017290" lon="-106.520006570">
        <ele>2577.400</ele>
        <time>2019-07-14T22:47:10Z</time>
      </trkpt>
      <trkpt lat="35.954900570" lon="-106.520045600">
        <ele>2577.800</ele>
        <time>2019-07-14T22:47:11Z</time>
      </trkpt>
      <trkpt lat="35.954790690" lon="-106.520077550">
        <ele>2577.700</ele>
        <time>2019-07-14T22:47:12Z</time>
      </trkpt>
      <trkpt lat="35.954681910" lon="-106.520104630">
        <ele>2577.400</ele>
        <time>2019-07-14T22:47:13Z</time>
      </trkpt>
      <trkpt lat="35.954562540" lon="-106.520138900">
        <ele>2577.500</ele>
        <time>2019-07-14T22:47:14Z</time>
      </trkpt>
      <trkpt lat="35.954454140" lon="-106.520160340">
        <ele>2577.900</ele>
        <time>2019-07-14T22:47:15Z</time>
      </trkpt>
      <trkpt lat="35.954340490" lon="-106.520185490">
        <ele>2577.900</ele>
        <time>2019-07-14T22:47:16Z</time>
      </trkpt>
      <trkpt lat="35.954217870" lon="-106.520202140">
        <ele>2578.000</ele>
        <time>2019-07-14T22:47:17Z</time>
      </trkpt>
      <trkpt lat="35.954100630" lon="-106.520214450">
        <ele>2578.500</ele>
        <time>2019-07-14T22:47:18Z</time>
      </trkpt>
      <trkpt lat="35.953983170" lon="-106.520232350">
        <ele>2578.800</ele>
        <time>2019-07-14T22:47:19Z</time>
      </trkpt>
      <trkpt lat="35.953873270" lon="-106.520246750">
        <ele>2578.700</ele>
        <time>2019-07-14T22:47:20Z</time>
      </trkpt>
      <trkpt lat="35.953761600" lon="-106.520263850">
        <ele>2579.000</ele>
        <time>2019-07-14T22:47:21Z</time>
      </trkpt>
      <trkpt lat="35.953645270" lon="-106.520277060">
        <ele>2578.500</ele>
        <time>2019-07-14T22:47:22Z</time>
      </trkpt>
      <trkpt lat="35.953535160" lon="-106.520285950">
        <ele>2579.300</ele>
        <time>2019-07-14T22:47:23Z</time>
      </trkpt>
      <trkpt lat="35.953419800" lon="-106.520295680">
        <ele>2579.500</ele>
        <time>2019-07-14T22:47:24Z</time>
      </trkpt>
      <trkpt lat="35.953305220" lon="-106.520306100">
        <ele>2580.000</ele>
        <time>2019-07-14T22:47:25Z</time>
      </trkpt>
      <trkpt lat="35.953187700" lon="-106.520316830">
        <ele>2580.200</ele>
        <time>2019-07-14T22:47:26Z</time>
      </trkpt>
      <trkpt lat="35.953072020" lon="-106.520325920">
        <ele>2580.000</ele>
        <time>2019-07-14T22:47:27Z</time>
      </trkpt>
      <trkpt lat="35.952957370" lon="-106.520337850">
        <ele>2579.500</ele>
        <time>2019-07-14T22:47:28Z</time>
      </trkpt>
      <trkpt lat="35.952843410" lon="-106.520346920">
        <ele>2579.800</ele>
        <time>2019-07-14T22:47:29Z</time>
      </trkpt>
      <trkpt lat="35.952735490" lon="-106.520357370">
        <ele>2580.300</ele>
        <time>2019-07-14T22:47:30Z</time>
      </trkpt>
      <trkpt lat="35.952616560" lon="-106.520363720">
        <ele>2580.000</ele>
        <time>2019-07-14T22:47:31Z</time>
      </trkpt>
      <trkpt lat="35.952504280" lon="-106.520377050">
        <ele>2580.300</ele>
        <time>2019-07-14T22:47:32Z</time>
      </trkpt>
      <trkpt lat="35.952392560" lon="-106.520387330">
        <ele>2580.300</ele>
        <time>2019-07-14T22:47:33Z</time>
      </trkpt>
      <trkpt lat="35.952277800" lon="-106.520394720">
        <ele>2580.800</ele>
        <time>2019-07-14T22:47:34Z</time>
      </trkpt>
      <trkpt lat="35.952164680" lon="-106.520404560">
        <ele>2580.700</ele>
        <time>2019-07-14T22:47:35Z</time>
      </trkpt>
      <trkpt lat="35.952059400" lon="-106.520414160">
        <ele>2580.600</ele>
        <time>2019-07-14T22:47:36Z</time>
      </trkpt>
      <trkpt lat="35.951951710" lon="-106.520416180">
        <ele>2580.700</ele>
        <time>2019-07-14T22:47:37Z</time>
      </trkpt>
      <trkpt lat="35.951843970" lon="-106.520415150">
        <ele>2580.500</ele>
        <time>2019-07-14T22:47:38Z</time>
      </trkpt>
      <trkpt lat="35.951736510" lon="-106.520403530">
        <ele>2580.500</ele>
        <time>2019-07-14T22:47:39Z</time>
      </trkpt>
      <trkpt lat="35.951623780" lon="-106.520389860">
        <ele>2580.400</ele>
        <time>2019-07-14T22:47:40Z</time>
      </trkpt>
      <trkpt lat="35.951517120" lon="-106.520364070">
        <ele>2580.900</ele>
        <time>2019-07-14T22:47:41Z</time>
      </trkpt>
      <trkpt lat="35.951404410" lon="-106.520341000">
        <ele>2580.600</ele>
        <time>2019-07-14T22:47:42Z</time>
      </trkpt>
      <trkpt lat="35.951297930" lon="-106.520320850">
        <ele>2580.400</ele>
        <time>2019-07-14T22:47:43Z</time>
      </trkpt>
      <trkpt lat="35.951184440" lon="-106.520308620">
        <ele>2580.900</ele>
        <time>2019-07-14T22:47:44Z</time>
      </trkpt>
      <trkpt lat="35.951063980" lon="-106.520293870">
        <ele>2581.400</ele>
        <time>2019-07-14T22:47:45Z</time>
      </trkpt>
      <trkpt lat="35.950950810" lon="-106.520289170">
        <ele>2581.400</ele>
        <time>2019-07-14T22:47:46Z</time>
      </trkpt>
      <trkpt lat="35.950833520" lon="-106.520284450">
        <ele>2581.800</ele>
        <time>2019-07-14T22:47:47Z</time>
      </trkpt>
      <trkpt lat="35.950717830" lon="-106.520282750">
        <ele>2581.900</ele>
        <time>2019-07-14T22:47:48Z</time>
      </trkpt>
      <trkpt lat="35.950606270" lon="-106.520286190">
        <ele>2582.100</ele>
        <time>2019-07-14T22:47:49Z</time>
      </trkpt>
      <trkpt lat="35.950495630" lon="-106.520288660">
        <ele>2582.300</ele>
        <time>2019-07-14T22:47:50Z</time>
      </trkpt>
      <trkpt lat="35.950390570" lon="-106.520297890">
        <ele>2582.800</ele>
        <time>2019-07-14T22:47:51Z</time>
      </trkpt>
      <trkpt lat="35.950281450" lon="-106.520305750">
        <ele>2583.100</ele>
        <time>2019-07-14T22:47:52Z</time>
      </trkpt>
      <trkpt lat="35.950173000" lon="-106.520310380">
        <ele>2583.200</ele>
        <time>2019-07-14T22:47:53Z</time>
      </trkpt>
      <trkpt lat="35.950065500" lon="-106.520317250">
        <ele>2583.600</ele>
        <time>2019-07-14T22:47:54Z</time>
      </trkpt>
      <trkpt lat="35.949963510" lon="-106.520319950">
        <ele>2583.700</ele>
        <time>2019-07-14T22:47:55Z</time>
      </trkpt>
      <trkpt lat="35.949860290" lon="-106.520330560">
        <ele>2583.500</ele>
        <time>2019-07-14T22:47:56Z</time>
      </trkpt>
      <trkpt lat="35.949754900" lon="-106.520346420">
        <ele>2583.400</ele>
        <time>2019-07-14T22:47:57Z</time>
      </trkpt>
      <trkpt lat="35.949647790" lon="-106.520367680">
        <ele>2583.700</ele>
        <time>2019-07-14T22:47:58Z</time>
      </trkpt>
      <trkpt lat="35.949544640" lon="-106.520407470">
        <ele>2583.200</ele>
        <time>2019-07-14T22:47:59Z</time>
      </trkpt>
      <trkpt lat="35.949449630" lon="-106.520448910">
        <ele>2583.600</ele>
        <time>2019-07-14T22:48:00Z</time>
      </trkpt>
      <trkpt lat="35.949353100" lon="-106.520494410">
        <ele>2583.900</ele>
        <time>2019-07-14T22:48:01Z</time>
      </trkpt>
      <trkpt lat="35.949256590" lon="-106.520545250">
        <ele>2584.700</ele>
        <time>2019-07-14T22:48:02Z</time>
      </trkpt>
      <trkpt lat="35.949172930" lon="-106.520596770">
        <ele>2584.900</ele>
        <time>2019-07-14T22:48:03Z</time>
      </trkpt>
      <trkpt lat="35.949097000" lon="-106.520651000">
        <ele>2585.600</ele>
        <time>2019-07-14T22:48:04Z</time>
      </trkpt>
      <trkpt lat="35.949027570" lon="-106.520704300">
        <ele>2585.900</ele>
        <time>2019-07-14T22:48:05Z</time>
      </trkpt>
      <trkpt lat="35.948953250" lon="-106.520759970">
        <ele>2585.900</ele>
        <time>2019-07-14T22:48:06Z</time>
      </trkpt>
      <trkpt lat="35.948892570" lon="-106.520823300">
        <ele>2586.900</ele>
        <time>2019-07-14T22:48:07Z</time>
      </trkpt>
      <trkpt lat="35.948844490" lon="-106.520883820">
        <ele>2586.600</ele>
        <time>2019-07-14T22:48:08Z</time>
      </trkpt>
      <trkpt lat="35.948787550" lon="-106.520935320">
        <ele>2587.000</ele>
        <time>2019-07-14T22:48:09Z</time>
      </trkpt>
      <trkpt lat="35.948730580" lon="-106.520975210">
        <ele>2587.300</ele>
        <time>2019-07-14T22:48:10Z</time>
      </trkpt>
      <trkpt lat="35.948673340" lon="-106.520999470">
        <ele>2587.100</ele>
        <time>2019-07-14T22:48:11Z</time>
      </trkpt>
      <trkpt lat="35.948613220" lon="-106.521014640">
        <ele>2587.500</ele>
        <time>2019-07-14T22:48:12Z</time>
      </trkpt>
      <trkpt lat="35.948557170" lon="-106.521019320">
        <ele>2587.600</ele>
        <time>2019-07-14T22:48:13Z</time>
      </trkpt>
      <trkpt lat="35.948499430" lon="-106.521019060">
        <ele>2587.800</ele>
        <time>2019-07-14T22:48:14Z</time>
      </trkpt>
      <trkpt lat="35.948445430" lon="-106.521007470">
        <ele>2588.100</ele>
        <time>2019-07-14T22:48:15Z</time>
      </trkpt>
      <trkpt lat="35.948389920" lon="-106.520988690">
        <ele>2588.400</ele>
        <time>2019-07-14T22:48:16Z</time>
      </trkpt>
      <trkpt lat="35.948343770" lon="-106.520963670">
        <ele>2588.000</ele>
        <time>2019-07-14T22:48:17Z</time>
      </trkpt>
      <trkpt lat="35.948297630" lon="-106.520925770">
        <ele>2588.800</ele>
        <time>2019-07-14T22:48:18Z</time>
      </trkpt>
      <trkpt lat="35.948249360" lon="-106.520891410">
        <ele>2588.800</ele>
        <time>2019-07-14T22:48:19Z</time>
      </trkpt>
      <trkpt lat="35.948206320" lon="-106.520844240">
        <ele>2588.900</ele>
        <time>2019-07-14T22:48:20Z</time>
      </trkpt>
      <trkpt lat="35.948165450" lon="-106.520793410">
        <ele>2588.600</ele>
        <time>2019-07-14T22:48:21Z</time>
      </trkpt>
      <trkpt lat="35.948127090" lon="-106.520727260">
        <ele>2589.100</ele>
        <time>2019-07-14T22:48:22Z</time>
      </trkpt>
      <trkpt lat="35.948085550" lon="-106.520666490">
        <ele>2589.300</ele>
        <time>2019-07-14T22:48:23Z</time>
      </trkpt>
      <trkpt lat="35.948038590" lon="-106.520598890">
        <ele>2588.100</ele>
        <time>2019-07-14T22:48:24Z</time>
      </trkpt>
      <trkpt lat="35.947989070" lon="-106.520548300">
        <ele>2588.000</ele>
        <time>2019-07-14T22:48:25Z</time>
      </trkpt>
      <trkpt lat="35.947930350" lon="-106.520492330">
        <ele>2588.600</ele>
        <time>2019-07-14T22:48:26Z</time>
      </trkpt>
      <trkpt lat="35.947874580" lon="-106.520436360">
        <ele>2589.200</ele>
        <time>2019-07-14T22:48:27Z</time>
      </trkpt>
      <trkpt lat="35.947806140" lon="-106.520388550">
        <ele>2588.800</ele>
        <time>2019-07-14T22:48:28Z</time>
      </trkpt>
      <trkpt lat="35.947730200" lon="-106.520375410">
        <ele>2586.800</ele>
        <time>2019-07-14T22:48:29Z</time>
      </trkpt>
      <trkpt lat="35.947650820" lon="-106.520340960">
        <ele>2586.700</ele>
        <time>2019-07-14T22:48:30Z</time>
      </trkpt>
      <trkpt lat="35.947586500" lon="-106.520325610">
        <ele>2586.100</ele>
        <time>2019-07-14T22:48:31Z</time>
      </trkpt>
      <trkpt lat="35.947498390" lon="-106.520310060">
        <ele>2586.500</ele>
        <time>2019-07-14T22:48:32Z</time>
      </trkpt>
      <trkpt lat="35.947413010" lon="-106.520313590">
        <ele>2586.700</ele>
        <time>2019-07-14T22:48:33Z</time>
      </trkpt>
      <trkpt lat="35.947329830" lon="-106.520319620">
        <ele>2587.100</ele>
        <time>2019-07-14T22:48:34Z</time>
      </trkpt>
      <trkpt lat="35.947247130" lon="-106.520336940">
        <ele>2587.100</ele>
        <time>2019-07-14T22:48:35Z</time>
      </trkpt>
      <trkpt lat="35.947159150" lon="-106.520357340">
        <ele>2587.200</ele>
        <time>2019-07-14T22:48:36Z</time>
      </trkpt>
      <trkpt lat="35.947070720" lon="-106.520381060">
        <ele>2587.400</ele>
        <time>2019-07-14T22:48:37Z</time>
      </trkpt>
      <trkpt lat="35.946982180" lon="-106.520407200">
        <ele>2587.700</ele>
        <time>2019-07-14T22:48:38Z</time>
      </trkpt>
      <trkpt lat="35.946899480" lon="-106.520438620">
        <ele>2588.000</ele>
        <time>2019-07-14T22:48:39Z</time>
      </trkpt>
      <trkpt lat="35.946817820" lon="-106.520466790">
        <ele>2588.500</ele>
        <time>2019-07-14T22:48:40Z</time>
      </trkpt>
      <trkpt lat="35.946739640" lon="-106.520498690">
        <ele>2588.700</ele>
        <time>2019-07-14T22:48:41Z</time>
      </trkpt>
      <trkpt lat="35.946660860" lon="-106.520529180">
        <ele>2588.600</ele>
        <time>2019-07-14T22:48:42Z</time>
      </trkpt>
      <trkpt lat="35.946578910" lon="-106.520561930">
        <ele>2588.800</ele>
        <time>2019-07-14T22:48:43Z</time>
      </trkpt>
      <trkpt lat="35.946495910" lon="-106.520595990">
        <ele>2588.900</ele>
        <time>2019-07-14T22:48:44Z</time>
      </trkpt>
      <trkpt lat="35.946416670" lon="-106.520619690">
        <ele>2588.900</ele>
        <time>2019-07-14T22:48:45Z</time>
      </trkpt>
      <trkpt lat="35.946335340" lon="-106.520642330">
        <ele>2588.600</ele>
        <time>2019-07-14T22:48:46Z</time>
      </trkpt>
      <trkpt lat="35.946255360" lon="-106.520661230">
        <ele>2590.100</ele>
        <time>2019-07-14T22:48:47Z</time>
      </trkpt>
      <trkpt lat="35.946178770" lon="-106.520690860">
        <ele>2590.000</ele>
        <time>2019-07-14T22:48:48Z</time>
      </trkpt>
      <trkpt lat="35.946106820" lon="-106.520710670">
        <ele>2591.400</ele>
        <time>2019-07-14T22:48:49Z</time>
      </trkpt>
      <trkpt lat="35.946032590" lon="-106.520727000">
        <ele>2591.700</ele>
        <time>2019-07-14T22:48:50Z</time>
      </trkpt>
      <trkpt lat="35.945951770" lon="-106.520733340">
        <ele>2591.500</ele>
        <time>2019-07-14T22:48:51Z</time>
      </trkpt>
      <trkpt lat="35.945867780" lon="-106.520718880">
        <ele>2592.600</ele>
        <time>2019-07-14T22:48:52Z</time>
      </trkpt>
      <trkpt lat="35.945795580" lon="-106.520681150">
        <ele>2590.800</ele>
        <time>2019-07-14T22:48:53Z</time>
      </trkpt>
      <trkpt lat="35.945719570" lon="-106.520632640">
        <ele>2591.000</ele>
        <time>2019-07-14T22:48:54Z</time>
      </trkpt>
      <trkpt lat="35.945639940" lon="-106.520580430">
        <ele>2590.700</ele>
        <time>2019-07-14T22:48:55Z</time>
      </trkpt>
      <trkpt lat="35.945558360" lon="-106.520517280">
        <ele>2590.100</ele>
        <time>2019-07-14T22:48:56Z</time>
      </trkpt>
      <trkpt lat="35.945470740" lon="-106.520463240">
        <ele>2590.200</ele>
        <time>2019-07-14T22:48:57Z</time>
      </trkpt>
      <trkpt lat="35.945382150" lon="-106.520396990">
        <ele>2590.200</ele>
        <time>2019-07-14T22:48:58Z</time>
      </trkpt>
      <trkpt lat="35.945291860" lon="-106.520346380">
        <ele>2590.000</ele>
        <time>2019-07-14T22:48:59Z</time>
      </trkpt>
      <trkpt lat="35.945190940" lon="-106.520305560">
        <ele>2590.600</ele>
        <time>2019-07-14T22:49:00Z</time>
      </trkpt>
      <trkpt lat="35.945101300" lon="-106.520264380">
        <ele>2590.600</ele>
        <time>2019-07-14T22:49:01Z</time>
      </trkpt>
      <trkpt lat="35.945002640" lon="-106.520236470">
        <ele>2590.400</ele>
        <time>2019-07-14T22:49:02Z</time>
      </trkpt>
      <trkpt lat="35.944903320" lon="-106.520199780">
        <ele>2590.100</ele>
        <time>2019-07-14T22:49:03Z</time>
      </trkpt>
      <trkpt lat="35.944802570" lon="-106.520167130">
        <ele>2589.600</ele>
        <time>2019-07-14T22:49:04Z</time>
      </trkpt>
      <trkpt lat="35.944702450" lon="-106.520139290">
        <ele>2589.500</ele>
        <time>2019-07-14T22:49:05Z</time>
      </trkpt>
      <trkpt lat="35.944605370" lon="-106.520124490">
        <ele>2588.900</ele>
        <time>2019-07-14T22:49:06Z</time>
      </trkpt>
      <trkpt lat="35.944504150" lon="-106.520112790">
        <ele>2587.000</ele>
        <time>2019-07-14T22:49:07Z</time>
      </trkpt>
      <trkpt lat="35.944402790" lon="-106.520104740">
        <ele>2586.000</ele>
        <time>2019-07-14T22:49:08Z</time>
      </trkpt>
      <trkpt lat="35.944321610" lon="-106.520076750">
        <ele>2587.100</ele>
        <time>2019-07-14T22:49:09Z</time>
      </trkpt>
      <trkpt lat="35.944248010" lon="-106.520046760">
        <ele>2586.600</ele>
        <time>2019-07-14T22:49:10Z</time>
      </trkpt>
      <trkpt lat="35.944157180" lon="-106.520016480">
        <ele>2587.400</ele>
        <time>2019-07-14T22:49:11Z</time>
      </trkpt>
      <trkpt lat="35.944074650" lon="-106.519974730">
        <ele>2587.600</ele>
        <time>2019-07-14T22:49:12Z</time>
      </trkpt>
      <trkpt lat="35.943986810" lon="-106.519934950">
        <ele>2587.400</ele>
        <time>2019-07-14T22:49:13Z</time>
      </trkpt>
      <trkpt lat="35.943904310" lon="-106.519892920">
        <ele>2587.300</ele>
        <time>2019-07-14T22:49:14Z</time>
      </trkpt>
      <trkpt lat="35.943825120" lon="-106.519853540">
        <ele>2587.600</ele>
        <time>2019-07-14T22:49:15Z</time>
      </trkpt>
      <trkpt lat="35.943743150" lon="-106.519815460">
        <ele>2586.900</ele>
        <time>2019-07-14T22:49:16Z</time>
      </trkpt>
      <trkpt lat="35.943656340" lon="-106.519790050">
        <ele>2587.100</ele>
        <time>2019-07-14T22:49:17Z</time>
      </trkpt>
      <trkpt lat="35.943573740" lon="-106.519767100">
        <ele>2587.700</ele>
        <time>2019-07-14T22:49:18Z</time>
      </trkpt>
      <trkpt lat="35.943485340" lon="-106.519741540">
        <ele>2587.300</ele>
        <time>2019-07-14T22:49:19Z</time>
      </trkpt>
      <trkpt lat="35.943394580" lon="-106.519722800">
        <ele>2587.000</ele>
        <time>2019-07-14T22:49:20Z</time>
      </trkpt>
      <trkpt lat="35.943296860" lon="-106.519697120">
        <ele>2587.100</ele>
        <time>2019-07-14T22:49:21Z</time>
      </trkpt>
      <trkpt lat="35.943189450" lon="-106.519683750">
        <ele>2586.700</ele>
        <time>2019-07-14T22:49:22Z</time>
      </trkpt>
      <trkpt lat="35.943074700" lon="-106.519670380">
        <ele>2586.800</ele>
        <time>2019-07-14T22:49:23Z</time>
      </trkpt>
      <trkpt lat="35.942977170" lon="-106.519634610">
        <ele>2585.900</ele>
        <time>2019-07-14T22:49:24Z</time>
      </trkpt>
      <trkpt lat="35.942877640" lon="-106.519622350">
        <ele>2586.600</ele>
        <time>2019-07-14T22:49:25Z</time>
      </trkpt>
      <trkpt lat="35.942787680" lon="-106.519589860">
        <ele>2586.400</ele>
        <time>2019-07-14T22:49:26Z</time>
      </trkpt>
      <trkpt lat="35.942702550" lon="-106.519532170">
        <ele>2586.400</ele>
        <time>2019-07-14T22:49:27Z</time>
      </trkpt>
      <trkpt lat="35.942625880" lon="-106.519468460">
        <ele>2587.700</ele>
        <time>2019-07-14T22:49:28Z</time>
      </trkpt>
      <trkpt lat="35.942550340" lon="-106.519400500">
        <ele>2588.100</ele>
        <time>2019-07-14T22:49:29Z</time>
      </trkpt>
      <trkpt lat="35.942471020" lon="-106.519333850">
        <ele>2588.000</ele>
        <time>2019-07-14T22:49:30Z</time>
      </trkpt>
      <trkpt lat="35.942391410" lon="-106.519273360">
        <ele>2589.700</ele>
        <time>2019-07-14T22:49:31Z</time>
      </trkpt>
      <trkpt lat="35.942322860" lon="-106.519217460">
        <ele>2590.600</ele>
        <time>2019-07-14T22:49:32Z</time>
      </trkpt>
      <trkpt lat="35.942250810" lon="-106.519168360">
        <ele>2590.500</ele>
        <time>2019-07-14T22:49:33Z</time>
      </trkpt>
      <trkpt lat="35.942188350" lon="-106.519117590">
        <ele>2590.600</ele>
        <time>2019-07-14T22:49:34Z</time>
      </trkpt>
      <trkpt lat="35.942120540" lon="-106.519082410">
        <ele>2591.800</ele>
        <time>2019-07-14T22:49:35Z</time>
      </trkpt>
      <trkpt lat="35.942066180" lon="-106.519030210">
        <ele>2592.000</ele>
        <time>2019-07-14T22:49:36Z</time>
      </trkpt>
      <trkpt lat="35.942012010" lon="-106.519009180">
        <ele>2592.300</ele>
        <time>2019-07-14T22:49:37Z</time>
      </trkpt>
      <trkpt lat="35.941963700" lon="-106.518987560">
        <ele>2592.200</ele>
        <time>2019-07-14T22:49:38Z</time>
      </trkpt>
      <trkpt lat="35.941917500" lon="-106.518971420">
        <ele>2592.400</ele>
        <time>2019-07-14T22:49:39Z</time>
      </trkpt>
      <trkpt lat="35.941879900" lon="-106.518970630">
        <ele>2591.100</ele>
        <time>2019-07-14T22:49:40Z</time>
      </trkpt>
      <trkpt lat="35.941834460" lon="-106.518965110">
        <ele>2591.500</ele>
        <time>2019-07-14T22:49:41Z</time>
      </trkpt>
      <trkpt lat="35.941786450" lon="-106.518969510">
        <ele>2591.100</ele>
        <time>2019-07-14T22:49:42Z</time>
      </trkpt>
      <trkpt lat="35.941730230" lon="-106.518975140">
        <ele>2591.300</ele>
        <time>2019-07-14T22:49:43Z</time>
      </trkpt>
      <trkpt lat="35.941687290" lon="-106.518975520">
        <ele>2592.500</ele>
        <time>2019-07-14T22:49:44Z</time>
      </trkpt>
      <trkpt lat="35.941642570" lon="-106.518985270">
        <ele>2592.400</ele>
        <time>2019-07-14T22:49:45Z</time>
      </trkpt>
      <trkpt lat="35.941586830" lon="-106.518994290">
        <ele>2592.200</ele>
        <time>2019-07-14T22:49:46Z</time>
      </trkpt>
      <trkpt lat="35.941533990" lon="-106.519003020">
        <ele>2592.900</ele>
        <time>2019-07-14T22:49:47Z</time>
      </trkpt>
      <trkpt lat="35.941468140" lon="-106.519014550">
        <ele>2593.000</ele>
        <time>2019-07-14T22:49:48Z</time>
      </trkpt>
      <trkpt lat="35.941406510" lon="-106.519014530">
        <ele>2593.000</ele>
        <time>2019-07-14T22:49:49Z</time>
      </trkpt>
      <trkpt lat="35.941340090" lon="-106.519008340">
        <ele>2593.200</ele>
        <time>2019-07-14T22:49:50Z</time>
      </trkpt>
      <trkpt lat="35.941280840" lon="-106.518997710">
        <ele>2595.600</ele>
        <time>2019-07-14T22:49:51Z</time>
      </trkpt>
      <trkpt lat="35.941204020" lon="-106.518971800">
        <ele>2594.300</ele>
        <time>2019-07-14T22:49:52Z</time>
      </trkpt>
      <trkpt lat="35.941133740" lon="-106.518933320">
        <ele>2594.500</ele>
        <time>2019-07-14T22:49:53Z</time>
      </trkpt>
      <trkpt lat="35.941066810" lon="-106.518883750">
        <ele>2594.900</ele>
        <time>2019-07-14T22:49:54Z</time>
      </trkpt>
      <trkpt lat="35.940989280" lon="-106.518832000">
        <ele>2594.800</ele>
        <time>2019-07-14T22:49:55Z</time>
      </trkpt>
      <trkpt lat="35.940925180" lon="-106.518755170">
        <ele>2595.700</ele>
        <time>2019-07-14T22:49:56Z</time>
      </trkpt>
      <trkpt lat="35.940851920" lon="-106.518681770">
        <ele>2594.900</ele>
        <time>2019-07-14T22:49:57Z</time>
      </trkpt>
      <trkpt lat="35.940775560" lon="-106.518596040">
        <ele>2596.100</ele>
        <time>2019-07-14T22:49:58Z</time>
      </trkpt>
      <trkpt lat="35.940708380" lon="-106.518519640">
        <ele>2596.100</ele>
        <time>2019-07-14T22:49:59Z</time>
      </trkpt>
      <trkpt lat="35.940629120" lon="-106.518445410">
        <ele>2596.700</ele>
        <time>2019-07-14T22:50:00Z</time>
      </trkpt>
      <trkpt lat="35.940558260" lon="-106.518383050">
        <ele>2598.200</ele>
        <time>2019-07-14T22:50:01Z</time>
      </trkpt>
      <trkpt lat="35.940485810" lon="-106.518316610">
        <ele>2598.700</ele>
        <time>2019-07-14T22:50:02Z</time>
      </trkpt>
      <trkpt lat="35.940417590" lon="-106.518252120">
        <ele>2598.800</ele>
        <time>2019-07-14T22:50:03Z</time>
      </trkpt>
      <trkpt lat="35.940341050" lon="-106.518196280">
        <ele>2598.800</ele>
        <time>2019-07-14T22:50:04Z</time>
      </trkpt>
      <trkpt lat="35.940267040" lon="-106.518148160">
        <ele>2598.900</ele>
        <time>2019-07-14T22:50:05Z</time>
      </trkpt>
      <trkpt lat="35.940196800" lon="-106.518100590">
        <ele>2599.400</ele>
        <time>2019-07-14T22:50:06Z</time>
      </trkpt>
      <trkpt lat="35.940125520" lon="-106.518054160">
        <ele>2599.500</ele>
        <time>2019-07-14T22:50:07Z</time>
      </trkpt>
      <trkpt lat="35.940048530" lon="-106.518008730">
        <ele>2599.800</ele>
        <time>2019-07-14T22:50:08Z</time>
      </trkpt>
      <trkpt lat="35.939967520" lon="-106.517982500">
        <ele>2600.500</ele>
        <time>2019-07-14T22:50:09Z</time>
      </trkpt>
      <trkpt lat="35.939906290" lon="-106.517955430">
        <ele>2602.000</ele>
        <time>2019-07-14T22:50:10Z</time>
      </trkpt>
      <trkpt lat="35.939851970" lon="-106.517914580">
        <ele>2602.000</ele>
        <time>2019-07-14T22:50:11Z</time>
      </trkpt>
      <trkpt lat="35.939784480" lon="-106.517874020">
        <ele>2601.800</ele>
        <time>2019-07-14T22:50:12Z</time>
      </trkpt>
      <trkpt lat="35.939729550" lon="-106.517835900">
        <ele>2602.900</ele>
        <time>2019-07-14T22:50:13Z</time>
      </trkpt>
      <trkpt lat="35.939675460" lon="-106.517802240">
        <ele>2602.700</ele>
        <time>2019-07-14T22:50:14Z</time>
      </trkpt>
      <trkpt lat="35.939625180" lon="-106.517765250">
        <ele>2602.500</ele>
        <time>2019-07-14T22:50:15Z</time>
      </trkpt>
      <trkpt lat="35.939572090" lon="-106.517734190">
        <ele>2601.600</ele>
        <time>2019-07-14T22:50:16Z</time>
      </trkpt>
      <trkpt lat="35.939523550" lon="-106.517701270">
        <ele>2601.900</ele>
        <time>2019-07-14T22:50:17Z</time>
      </trkpt>
      <trkpt lat="35.939477280" lon="-106.517657540">
        <ele>2602.800</ele>
        <time>2019-07-14T22:50:18Z</time>
      </trkpt>
      <trkpt lat="35.939426170" lon="-106.517623780">
        <ele>2603.300</ele>
        <time>2019-07-14T22:50:19Z</time>
      </trkpt>
      <trkpt lat="35.939378860" lon="-106.517550860">
        <ele>2606.700</ele>
        <time>2019-07-14T22:50:20Z</time>
      </trkpt>
      <trkpt lat="35.939315950" lon="-106.517491620">
        <ele>2607.300</ele>
        <time>2019-07-14T22:50:21Z</time>
      </trkpt>
      <trkpt lat="35.939251590" lon="-106.517432570">
        <ele>2606.700</ele>
        <time>2019-07-14T22:50:22Z</time>
      </trkpt>
      <trkpt lat="35.939184970" lon="-106.517361480">
        <ele>2607.400</ele>
        <time>2019-07-14T22:50:23Z</time>
      </trkpt>
      <trkpt lat="35.939123170" lon="-106.517292910">
        <ele>2607.500</ele>
        <time>2019-07-14T22:50:24Z</time>
      </trkpt>
      <trkpt lat="35.939063270" lon="-106.517213280">
        <ele>2607.700</ele>
        <time>2019-07-14T22:50:25Z</time>
      </trkpt>
      <trkpt lat="35.939009440" lon="-106.517136760">
        <ele>2608.200</ele>
        <time>2019-07-14T22:50:26Z</time>
      </trkpt>
      <trkpt lat="35.938949100" lon="-106.517059740">
        <ele>2608.500</ele>
        <time>2019-07-14T22:50:27Z</time>
      </trkpt>
      <trkpt lat="35.938895340" lon="-106.516976620">
        <ele>2608.800</ele>
        <time>2019-07-14T22:50:28Z</time>
      </trkpt>
      <trkpt lat="35.938848590" lon="-106.516873630">
        <ele>2607.400</ele>
        <time>2019-07-14T22:50:29Z</time>
      </trkpt>
      <trkpt lat="35.938797690" lon="-106.516788550">
        <ele>2607.600</ele>
        <time>2019-07-14T22:50:30Z</time>
      </trkpt>
      <trkpt lat="35.938753150" lon="-106.516709900">
        <ele>2608.200</ele>
        <time>2019-07-14T22:50:31Z</time>
      </trkpt>
      <trkpt lat="35.938721070" lon="-106.516614770">
        <ele>2608.200</ele>
        <time>2019-07-14T22:50:32Z</time>
      </trkpt>
      <trkpt lat="35.938673810" lon="-106.516526250">
        <ele>2608.800</ele>
        <time>2019-07-14T22:50:33Z</time>
      </trkpt>
      <trkpt lat="35.938629960" lon="-106.516431750">
        <ele>2609.100</ele>
        <time>2019-07-14T22:50:34Z</time>
      </trkpt>
      <trkpt lat="35.938582620" lon="-106.516346410">
        <ele>2609.900</ele>
        <time>2019-07-14T22:50:35Z</time>
      </trkpt>
      <trkpt lat="35.938519880" lon="-106.516273210">
        <ele>2610.900</ele>
        <time>2019-07-14T22:50:36Z</time>
      </trkpt>
      <trkpt lat="35.938463730" lon="-106.516197220">
        <ele>2611.200</ele>
        <time>2019-07-14T22:50:37Z</time>
      </trkpt>
      <trkpt lat="35.938411360" lon="-106.516123770">
        <ele>2611.100</ele>
        <time>2019-07-14T22:50:38Z</time>
      </trkpt>
      <trkpt lat="35.938360660" lon="-106.516057010">
        <ele>2610.700</ele>
        <time>2019-07-14T22:50:39Z</time>
      </trkpt>
      <trkpt lat="35.938308310" lon="-106.515986670">
        <ele>2610.900</ele>
        <time>2019-07-14T22:50:40Z</time>
      </trkpt>
      <trkpt lat="35.938253520" lon="-106.515921590">
        <ele>2610.800</ele>
        <time>2019-07-14T22:50:41Z</time>
      </trkpt>
      <trkpt lat="35.938188940" lon="-106.515856140">
        <ele>2611.900</ele>
        <time>2019-07-14T22:50:42Z</time>
      </trkpt>
      <trkpt lat="35.938139240" lon="-106.515789200">
        <ele>2611.300</ele>
        <time>2019-07-14T22:50:43Z</time>
      </trkpt>
      <trkpt lat="35.938078120" lon="-106.515731360">
        <ele>2612.100</ele>
        <time>2019-07-14T22:50:44Z</time>
      </trkpt>
      <trkpt lat="35.938014410" lon="-106.515688160">
        <ele>2612.000</ele>
        <time>2019-07-14T22:50:45Z</time>
      </trkpt>
      <trkpt lat="35.937929700" lon="-106.515647650">
        <ele>2612.500</ele>
        <time>2019-07-14T22:50:46Z</time>
      </trkpt>
      <trkpt lat="35.937862100" lon="-106.515615640">
        <ele>2613.300</ele>
        <time>2019-07-14T22:50:47Z</time>
      </trkpt>
      <trkpt lat="35.937791710" lon="-106.515580190">
        <ele>2613.800</ele>
        <time>2019-07-14T22:50:48Z</time>
      </trkpt>
      <trkpt lat="35.937723600" lon="-106.515546100">
        <ele>2614.300</ele>
        <time>2019-07-14T22:50:49Z</time>
      </trkpt>
      <trkpt lat="35.937661570" lon="-106.515528180">
        <ele>2614.100</ele>
        <time>2019-07-14T22:50:50Z</time>
      </trkpt>
      <trkpt lat="35.937595130" lon="-106.515503560">
        <ele>2614.400</ele>
        <time>2019-07-14T22:50:51Z</time>
      </trkpt>
      <trkpt lat="35.937531780" lon="-106.515480070">
        <ele>2614.200</ele>
        <time>2019-07-14T22:50:52Z</time>
      </trkpt>
      <trkpt lat="35.937473790" lon="-106.515469900">
        <ele>2613.800</ele>
        <time>2019-07-14T22:50:53Z</time>
      </trkpt>
      <trkpt lat="35.937401610" lon="-106.515445810">
        <ele>2615.300</ele>
        <time>2019-07-14T22:50:54Z</time>
      </trkpt>
      <trkpt lat="35.937355090" lon="-106.515425950">
        <ele>2616.500</ele>
        <time>2019-07-14T22:50:55Z</time>
      </trkpt>
      <trkpt lat="35.937313770" lon="-106.515393280">
        <ele>2617.000</ele>
        <time>2019-07-14T22:50:56Z</time>
      </trkpt>
      <trkpt lat="35.937268150" lon="-106.515361390">
        <ele>2617.600</ele>
        <time>2019-07-14T22:50:57Z</time>
      </trkpt>
      <trkpt lat="35.937226500" lon="-106.515314120">
        <ele>2619.100</ele>
        <time>2019-07-14T22:50:58Z</time>
      </trkpt>
      <trkpt lat="35.937182980" lon="-106.515262580">
        <ele>2618.900</ele>
        <time>2019-07-14T22:50:59Z</time>
      </trkpt>
      <trkpt lat="35.937139490" lon="-106.515208270">
        <ele>2618.500</ele>
        <time>2019-07-14T22:51:00Z</time>
      </trkpt>
      <trkpt lat="35.937095800" lon="-106.515146920">
        <ele>2618.800</ele>
        <time>2019-07-14T22:51:01Z</time>
      </trkpt>
      <trkpt lat="35.937053470" lon="-106.515083050">
        <ele>2619.800</ele>
        <time>2019-07-14T22:51:02Z</time>
      </trkpt>
      <trkpt lat="35.937011130" lon="-106.515019000">
        <ele>2620.800</ele>
        <time>2019-07-14T22:51:03Z</time>
      </trkpt>
      <trkpt lat="35.936968950" lon="-106.514952620">
        <ele>2620.700</ele>
        <time>2019-07-14T22:51:04Z</time>
      </trkpt>
      <trkpt lat="35.936921910" lon="-106.514870320">
        <ele>2619.300</ele>
        <time>2019-07-14T22:51:05Z</time>
      </trkpt>
      <trkpt lat="35.936874350" lon="-106.514804970">
        <ele>2619.200</ele>
        <time>2019-07-14T22:51:06Z</time>
      </trkpt>
      <trkpt lat="35.936822560" lon="-106.514728840">
        <ele>2619.200</ele>
        <time>2019-07-14T22:51:07Z</time>
      </trkpt>
      <trkpt lat="35.936774780" lon="-106.514650900">
        <ele>2619.900</ele>
        <time>2019-07-14T22:51:08Z</time>
      </trkpt>
      <trkpt lat="35.936728250" lon="-106.514577180">
        <ele>2620.800</ele>
        <time>2019-07-14T22:51:09Z</time>
      </trkpt>
      <trkpt lat="35.936683870" lon="-106.514499620">
        <ele>2620.800</ele>
        <time>2019-07-14T22:51:10Z</time>
      </trkpt>
      <trkpt lat="35.936643430" lon="-106.514425470">
        <ele>2621.200</ele>
        <time>2019-07-14T22:51:11Z</time>
      </trkpt>
      <trkpt lat="35.936600330" lon="-106.514344840">
        <ele>2620.900</ele>
        <time>2019-07-14T22:51:12Z</time>
      </trkpt>
      <trkpt lat="35.936565400" lon="-106.514251850">
        <ele>2622.200</ele>
        <time>2019-07-14T22:51:13Z</time>
      </trkpt>
      <trkpt lat="35.936526750" lon="-106.514179590">
        <ele>2623.000</ele>
        <time>2019-07-14T22:51:14Z</time>
      </trkpt>
      <trkpt lat="35.936476020" lon="-106.514104060">
        <ele>2622.900</ele>
        <time>2019-07-14T22:51:15Z</time>
      </trkpt>
      <trkpt lat="35.936429460" lon="-106.514030670">
        <ele>2623.100</ele>
        <time>2019-07-14T22:51:16Z</time>
      </trkpt>
      <trkpt lat="35.936376040" lon="-106.513954720">
        <ele>2622.800</ele>
        <time>2019-07-14T22:51:17Z</time>
      </trkpt>
      <trkpt lat="35.936312740" lon="-106.513896290">
        <ele>2622.200</ele>
        <time>2019-07-14T22:51:18Z</time>
      </trkpt>
      <trkpt lat="35.936248080" lon="-106.513827190">
        <ele>2623.400</ele>
        <time>2019-07-14T22:51:19Z</time>
      </trkpt>
      <trkpt lat="35.936197120" lon="-106.513764920">
        <ele>2622.500</ele>
        <time>2019-07-14T22:51:20Z</time>
      </trkpt>
      <trkpt lat="35.936140750" lon="-106.513698690">
        <ele>2622.500</ele>
        <time>2019-07-14T22:51:21Z</time>
      </trkpt>
      <trkpt lat="35.936087900" lon="-106.513628590">
        <ele>2622.200</ele>
        <time>2019-07-14T22:51:22Z</time>
      </trkpt>
      <trkpt lat="35.936037340" lon="-106.513556620">
        <ele>2622.000</ele>
        <time>2019-07-14T22:51:23Z</time>
      </trkpt>
      <trkpt lat="35.935987890" lon="-106.513472460">
        <ele>2621.500</ele>
        <time>2019-07-14T22:51:24Z</time>
      </trkpt>
      <trkpt lat="35.935945760" lon="-106.513389060">
        <ele>2621.200</ele>
        <time>2019-07-14T22:51:25Z</time>
      </trkpt>
      <trkpt lat="35.935911880" lon="-106.513305330">
        <ele>2622.000</ele>
        <time>2019-07-14T22:51:26Z</time>
      </trkpt>
      <trkpt lat="35.935871240" lon="-106.513217860">
        <ele>2621.500</ele>
        <time>2019-07-14T22:51:27Z</time>
      </trkpt>
      <trkpt lat="35.935830630" lon="-106.513126440">
        <ele>2621.400</ele>
        <time>2019-07-14T22:51:28Z</time>
      </trkpt>
      <trkpt lat="35.935789640" lon="-106.513036280">
        <ele>2622.300</ele>
        <time>2019-07-14T22:51:29Z</time>
      </trkpt>
      <trkpt lat="35.935740690" lon="-106.512948180">
        <ele>2622.800</ele>
        <time>2019-07-14T22:51:30Z</time>
      </trkpt>
      <trkpt lat="35.935695250" lon="-106.512861400">
        <ele>2623.100</ele>
        <time>2019-07-14T22:51:31Z</time>
      </trkpt>
      <trkpt lat="35.935635300" lon="-106.512779110">
        <ele>2623.300</ele>
        <time>2019-07-14T22:51:32Z</time>
      </trkpt>
      <trkpt lat="35.935579770" lon="-106.512695230">
        <ele>2623.400</ele>
        <time>2019-07-14T22:51:33Z</time>
      </trkpt>
      <trkpt lat="35.935522770" lon="-106.512621990">
        <ele>2623.600</ele>
        <time>2019-07-14T22:51:34Z</time>
      </trkpt>
      <trkpt lat="35.935468630" lon="-106.512538420">
        <ele>2624.800</ele>
        <time>2019-07-14T22:51:35Z</time>
      </trkpt>
      <trkpt lat="35.935410940" lon="-106.512463150">
        <ele>2624.900</ele>
        <time>2019-07-14T22:51:36Z</time>
      </trkpt>
      <trkpt lat="35.935365020" lon="-106.512390340">
        <ele>2624.700</ele>
        <time>2019-07-14T22:51:37Z</time>
      </trkpt>
      <trkpt lat="35.935304950" lon="-106.512320050">
        <ele>2625.100</ele>
        <time>2019-07-14T22:51:38Z</time>
      </trkpt>
      <trkpt lat="35.935252330" lon="-106.512244860">
        <ele>2625.400</ele>
        <time>2019-07-14T22:51:39Z</time>
      </trkpt>
      <trkpt lat="35.935208000" lon="-106.512176620">
        <ele>2626.100</ele>
        <time>2019-07-14T22:51:40Z</time>
      </trkpt>
      <trkpt lat="35.935175390" lon="-106.512101690">
        <ele>2626.100</ele>
        <time>2019-07-14T22:51:41Z</time>
      </trkpt>
      <trkpt lat="35.935128460" lon="-106.512021140">
        <ele>2626.400</ele>
        <time>2019-07-14T22:51:42Z</time>
      </trkpt>
      <trkpt lat="35.935102370" lon="-106.511933830">
        <ele>2625.200</ele>
        <time>2019-07-14T22:51:43Z</time>
      </trkpt>
      <trkpt lat="35.935070620" lon="-106.511851400">
        <ele>2625.600</ele>
        <time>2019-07-14T22:51:44Z</time>
      </trkpt>
      <trkpt lat="35.935037550" lon="-106.511768500">
        <ele>2625.700</ele>
        <time>2019-07-14T22:51:45Z</time>
      </trkpt>
      <trkpt lat="35.935003040" lon="-106.511679570">
        <ele>2626.000</ele>
        <time>2019-07-14T22:51:46Z</time>
      </trkpt>
      <trkpt lat="35.934967860" lon="-106.511596420">
        <ele>2626.700</ele>
        <time>2019-07-14T22:51:47Z</time>
      </trkpt>
      <trkpt lat="35.934937280" lon="-106.511510220">
        <ele>2626.600</ele>
        <time>2019-07-14T22:51:48Z</time>
      </trkpt>
      <trkpt lat="35.934889580" lon="-106.511429510">
        <ele>2627.200</ele>
        <time>2019-07-14T22:51:49Z</time>
      </trkpt>
      <trkpt lat="35.934848020" lon="-106.511363870">
        <ele>2628.100</ele>
        <time>2019-07-14T22:51:50Z</time>
      </trkpt>
      <trkpt lat="35.934798750" lon="-106.511301340">
        <ele>2629.000</ele>
        <time>2019-07-14T22:51:51Z</time>
      </trkpt>
      <trkpt lat="35.934746550" lon="-106.511240670">
        <ele>2629.000</ele>
        <time>2019-07-14T22:51:52Z</time>
      </trkpt>
      <trkpt lat="35.934696870" lon="-106.511177880">
        <ele>2628.700</ele>
        <time>2019-07-14T22:51:53Z</time>
      </trkpt>
      <trkpt lat="35.934644050" lon="-106.511114560">
        <ele>2628.200</ele>
        <time>2019-07-14T22:51:54Z</time>
      </trkpt>
      <trkpt lat="35.934595910" lon="-106.511064050">
        <ele>2629.400</ele>
        <time>2019-07-14T22:51:55Z</time>
      </trkpt>
      <trkpt lat="35.934540590" lon="-106.511003910">
        <ele>2629.900</ele>
        <time>2019-07-14T22:51:56Z</time>
      </trkpt>
      <trkpt lat="35.934488360" lon="-106.510948350">
        <ele>2629.400</ele>
        <time>2019-07-14T22:51:57Z</time>
      </trkpt>
      <trkpt lat="35.934451330" lon="-106.510876840">
        <ele>2630.900</ele>
        <time>2019-07-14T22:51:58Z</time>
      </trkpt>
      <trkpt lat="35.934416370" lon="-106.510799700">
        <ele>2631.400</ele>
        <time>2019-07-14T22:51:59Z</time>
      </trkpt>
      <trkpt lat="35.934381470" lon="-106.510721260">
        <ele>2631.100</ele>
        <time>2019-07-14T22:52:00Z</time>
      </trkpt>
      <trkpt lat="35.934349450" lon="-106.510627100">
        <ele>2630.500</ele>
        <time>2019-07-14T22:52:01Z</time>
      </trkpt>
      <trkpt lat="35.934315320" lon="-106.510524610">
        <ele>2630.100</ele>
        <time>2019-07-14T22:52:02Z</time>
      </trkpt>
      <trkpt lat="35.934280700" lon="-106.510409610">
        <ele>2630.700</ele>
        <time>2019-07-14T22:52:03Z</time>
      </trkpt>
      <trkpt lat="35.934243680" lon="-106.510297610">
        <ele>2630.700</ele>
        <time>2019-07-14T22:52:04Z</time>
      </trkpt>
      <trkpt lat="35.934214460" lon="-106.510188040">
        <ele>2631.000</ele>
        <time>2019-07-14T22:52:05Z</time>
      </trkpt>
      <trkpt lat="35.934177460" lon="-106.510082650">
        <ele>2630.700</ele>
        <time>2019-07-14T22:52:06Z</time>
      </trkpt>
      <trkpt lat="35.934143480" lon="-106.509973930">
        <ele>2630.800</ele>
        <time>2019-07-14T22:52:07Z</time>
      </trkpt>
      <trkpt lat="35.934108090" lon="-106.509856270">
        <ele>2631.000</ele>
        <time>2019-07-14T22:52:08Z</time>
      </trkpt>
      <trkpt lat="35.934065520" lon="-106.509739940">
        <ele>2630.300</ele>
        <time>2019-07-14T22:52:09Z</time>
      </trkpt>
      <trkpt lat="35.934030710" lon="-106.509616810">
        <ele>2630.000</ele>
        <time>2019-07-14T22:52:10Z</time>
      </trkpt>
      <trkpt lat="35.934000400" lon="-106.509493320">
        <ele>2629.900</ele>
        <time>2019-07-14T22:52:11Z</time>
      </trkpt>
      <trkpt lat="35.933962890" lon="-106.509374980">
        <ele>2629.600</ele>
        <time>2019-07-14T22:52:12Z</time>
      </trkpt>
      <trkpt lat="35.933930940" lon="-106.509263890">
        <ele>2629.800</ele>
        <time>2019-07-14T22:52:13Z</time>
      </trkpt>
      <trkpt lat="35.933900210" lon="-106.509141110">
        <ele>2629.800</ele>
        <time>2019-07-14T22:52:14Z</time>
      </trkpt>
      <trkpt lat="35.933857810" lon="-106.509033290">
        <ele>2629.500</ele>
        <time>2019-07-14T22:52:15Z</time>
      </trkpt>
      <trkpt lat="35.933821840" lon="-106.508920570">
        <ele>2629.900</ele>
        <time>2019-07-14T22:52:16Z</time>
      </trkpt>
      <trkpt lat="35.933773460" lon="-106.508812070">
        <ele>2629.500</ele>
        <time>2019-07-14T22:52:17Z</time>
      </trkpt>
      <trkpt lat="35.933737040" lon="-106.508696950">
        <ele>2629.800</ele>
        <time>2019-07-14T22:52:18Z</time>
      </trkpt>
      <trkpt lat="35.933688360" lon="-106.508587340">
        <ele>2629.000</ele>
        <time>2019-07-14T22:52:19Z</time>
      </trkpt>
      <trkpt lat="35.933653050" lon="-106.508476870">
        <ele>2628.700</ele>
        <time>2019-07-14T22:52:20Z</time>
      </trkpt>
      <trkpt lat="35.933606210" lon="-106.508373160">
        <ele>2629.100</ele>
        <time>2019-07-14T22:52:21Z</time>
      </trkpt>
      <trkpt lat="35.933561020" lon="-106.508278020">
        <ele>2628.900</ele>
        <time>2019-07-14T22:52:22Z</time>
      </trkpt>
      <trkpt lat="35.933516380" lon="-106.508171490">
        <ele>2629.700</ele>
        <time>2019-07-14T22:52:23Z</time>
      </trkpt>
      <trkpt lat="35.933468730" lon="-106.508068470">
        <ele>2630.500</ele>
        <time>2019-07-14T22:52:24Z</time>
      </trkpt>
      <trkpt lat="35.933418880" lon="-106.507964680">
        <ele>2630.200</ele>
        <time>2019-07-14T22:52:25Z</time>
      </trkpt>
      <trkpt lat="35.933374710" lon="-106.507862360">
        <ele>2630.200</ele>
        <time>2019-07-14T22:52:26Z</time>
      </trkpt>
      <trkpt lat="35.933330900" lon="-106.507753930">
        <ele>2629.600</ele>
        <time>2019-07-14T22:52:27Z</time>
      </trkpt>
      <trkpt lat="35.933279170" lon="-106.507649100">
        <ele>2629.800</ele>
        <time>2019-07-14T22:52:28Z</time>
      </trkpt>
      <trkpt lat="35.933225920" lon="-106.507545810">
        <ele>2629.600</ele>
        <time>2019-07-14T22:52:29Z</time>
      </trkpt>
      <trkpt lat="35.933175510" lon="-106.507433340">
        <ele>2629.300</ele>
        <time>2019-07-14T22:52:30Z</time>
      </trkpt>
      <trkpt lat="35.933120550" lon="-106.507321880">
        <ele>2629.900</ele>
        <time>2019-07-14T22:52:31Z</time>
      </trkpt>
      <trkpt lat="35.933066770" lon="-106.507208380">
        <ele>2629.400</ele>
        <time>2019-07-14T22:52:32Z</time>
      </trkpt>
      <trkpt lat="35.933011460" lon="-106.507097210">
        <ele>2630.100</ele>
        <time>2019-07-14T22:52:33Z</time>
      </trkpt>
      <trkpt lat="35.932948720" lon="-106.506994860">
        <ele>2630.400</ele>
        <time>2019-07-14T22:52:34Z</time>
      </trkpt>
      <trkpt lat="35.932880450" lon="-106.506902040">
        <ele>2630.800</ele>
        <time>2019-07-14T22:52:35Z</time>
      </trkpt>
      <trkpt lat="35.932817080" lon="-106.506802140">
        <ele>2631.500</ele>
        <time>2019-07-14T22:52:36Z</time>
      </trkpt>
      <trkpt lat="35.932767060" lon="-106.506704630">
        <ele>2633.400</ele>
        <time>2019-07-14T22:52:37Z</time>
      </trkpt>
      <trkpt lat="35.932718090" lon="-106.506612130">
        <ele>2633.900</ele>
        <time>2019-07-14T22:52:38Z</time>
      </trkpt>
      <trkpt lat="35.932678370" lon="-106.506527280">
        <ele>2633.400</ele>
        <time>2019-07-14T22:52:39Z</time>
      </trkpt>
      <trkpt lat="35.932624860" lon="-106.506452630">
        <ele>2633.100</ele>
        <time>2019-07-14T22:52:40Z</time>
      </trkpt>
      <trkpt lat="35.932577650" lon="-106.506370970">
        <ele>2631.700</ele>
        <time>2019-07-14T22:52:41Z</time>
      </trkpt>
      <trkpt lat="35.932532700" lon="-106.506302000">
        <ele>2631.300</ele>
        <time>2019-07-14T22:52:42Z</time>
      </trkpt>
      <trkpt lat="35.932499820" lon="-106.506239520">
        <ele>2632.000</ele>
        <time>2019-07-14T22:52:43Z</time>
      </trkpt>
      <trkpt lat="35.932463750" lon="-106.506174400">
        <ele>2631.300</ele>
        <time>2019-07-14T22:52:44Z</time>
      </trkpt>
      <trkpt lat="35.932441140" lon="-106.506127240">
        <ele>2629.900</ele>
        <time>2019-07-14T22:52:45Z</time>
      </trkpt>
      <trkpt lat="35.932424840" lon="-106.506060820">
        <ele>2631.000</ele>
        <time>2019-07-14T22:52:46Z</time>
      </trkpt>
      <trkpt lat="35.932420080" lon="-106.506006660">
        <ele>2631.900</ele>
        <time>2019-07-14T22:52:47Z</time>
      </trkpt>
      <trkpt lat="35.932414670" lon="-106.505950830">
        <ele>2632.500</ele>
        <time>2019-07-14T22:52:48Z</time>
      </trkpt>
      <trkpt lat="35.932423490" lon="-106.505896710">
        <ele>2633.500</ele>
        <time>2019-07-14T22:52:49Z</time>
      </trkpt>
      <trkpt lat="35.932424310" lon="-106.505832000">
        <ele>2634.100</ele>
        <time>2019-07-14T22:52:50Z</time>
      </trkpt>
      <trkpt lat="35.932429470" lon="-106.505765060">
        <ele>2634.600</ele>
        <time>2019-07-14T22:52:51Z</time>
      </trkpt>
      <trkpt lat="35.932436920" lon="-106.505694930">
        <ele>2634.700</ele>
        <time>2019-07-14T22:52:52Z</time>
      </trkpt>
      <trkpt lat="35.932440200" lon="-106.505622470">
        <ele>2634.900</ele>
        <time>2019-07-14T22:52:53Z</time>
      </trkpt>
      <trkpt lat="35.932447420" lon="-106.505540420">
        <ele>2635.200</ele>
        <time>2019-07-14T22:52:54Z</time>
      </trkpt>
      <trkpt lat="35.932455540" lon="-106.505457490">
        <ele>2635.500</ele>
        <time>2019-07-14T22:52:55Z</time>
      </trkpt>
      <trkpt lat="35.932466160" lon="-106.505361310">
        <ele>2635.600</ele>
        <time>2019-07-14T22:52:56Z</time>
      </trkpt>
      <trkpt lat="35.932467440" lon="-106.505271630">
        <ele>2635.700</ele>
        <time>2019-07-14T22:52:57Z</time>
      </trkpt>
      <trkpt lat="35.932484680" lon="-106.505192670">
        <ele>2635.500</ele>
        <time>2019-07-14T22:52:58Z</time>
      </trkpt>
      <trkpt lat="35.932496830" lon="-106.505114000">
        <ele>2635.600</ele>
        <time>2019-07-14T22:52:59Z</time>
      </trkpt>
      <trkpt lat="35.932501650" lon="-106.505031040">
        <ele>2635.900</ele>
        <time>2019-07-14T22:53:00Z</time>
      </trkpt>
      <trkpt lat="35.932509530" lon="-106.504955030">
        <ele>2636.500</ele>
        <time>2019-07-14T22:53:01Z</time>
      </trkpt>
      <trkpt lat="35.932518620" lon="-106.504875260">
        <ele>2635.900</ele>
        <time>2019-07-14T22:53:02Z</time>
      </trkpt>
      <trkpt lat="35.932533430" lon="-106.504803550">
        <ele>2635.000</ele>
        <time>2019-07-14T22:53:03Z</time>
      </trkpt>
      <trkpt lat="35.932545310" lon="-106.504728840">
        <ele>2635.800</ele>
        <time>2019-07-14T22:53:04Z</time>
      </trkpt>
      <trkpt lat="35.932553120" lon="-106.504656910">
        <ele>2635.500</ele>
        <time>2019-07-14T22:53:05Z</time>
      </trkpt>
      <trkpt lat="35.932553590" lon="-106.504582430">
        <ele>2635.500</ele>
        <time>2019-07-14T22:53:06Z</time>
      </trkpt>
      <trkpt lat="35.932551240" lon="-106.504507410">
        <ele>2636.100</ele>
        <time>2019-07-14T22:53:07Z</time>
      </trkpt>
      <trkpt lat="35.932543760" lon="-106.504428100">
        <ele>2636.600</ele>
        <time>2019-07-14T22:53:08Z</time>
      </trkpt>
      <trkpt lat="35.932546280" lon="-106.504351150">
        <ele>2636.400</ele>
        <time>2019-07-14T22:53:09Z</time>
      </trkpt>
      <trkpt lat="35.932537180" lon="-106.504272340">
        <ele>2636.900</ele>
        <time>2019-07-14T22:53:10Z</time>
      </trkpt>
      <trkpt lat="35.932526710" lon="-106.504195570">
        <ele>2637.100</ele>
        <time>2019-07-14T22:53:11Z</time>
      </trkpt>
      <trkpt lat="35.932518480" lon="-106.504118880">
        <ele>2637.300</ele>
        <time>2019-07-14T22:53:12Z</time>
      </trkpt>
      <trkpt lat="35.932510850" lon="-106.504052810">
        <ele>2637.500</ele>
        <time>2019-07-14T22:53:13Z</time>
      </trkpt>
      <trkpt lat="35.932518710" lon="-106.503975320">
        <ele>2637.300</ele>
        <time>2019-07-14T22:53:14Z</time>
      </trkpt>
      <trkpt lat="35.932512100" lon="-106.503908360">
        <ele>2637.500</ele>
        <time>2019-07-14T22:53:15Z</time>
      </trkpt>
      <trkpt lat="35.932513170" lon="-106.503832010">
        <ele>2637.600</ele>
        <time>2019-07-14T22:53:16Z</time>
      </trkpt>
      <trkpt lat="35.932507110" lon="-106.503756170">
        <ele>2637.700</ele>
        <time>2019-07-14T22:53:17Z</time>
      </trkpt>
      <trkpt lat="35.932499390" lon="-106.503682500">
        <ele>2638.300</ele>
        <time>2019-07-14T22:53:18Z</time>
      </trkpt>
      <trkpt lat="35.932493730" lon="-106.503614530">
        <ele>2638.100</ele>
        <time>2019-07-14T22:53:19Z</time>
      </trkpt>
      <trkpt lat="35.932484780" lon="-106.503543490">
        <ele>2638.700</ele>
        <time>2019-07-14T22:53:20Z</time>
      </trkpt>
      <trkpt lat="35.932470030" lon="-106.503468150">
        <ele>2638.600</ele>
        <time>2019-07-14T22:53:21Z</time>
      </trkpt>
      <trkpt lat="35.932441810" lon="-106.503402420">
        <ele>2638.900</ele>
        <time>2019-07-14T22:53:22Z</time>
      </trkpt>
      <trkpt lat="35.932402700" lon="-106.503350830">
        <ele>2638.900</ele>
        <time>2019-07-14T22:53:23Z</time>
      </trkpt>
      <trkpt lat="35.932366580" lon="-106.503293640">
        <ele>2639.200</ele>
        <time>2019-07-14T22:53:24Z</time>
      </trkpt>
      <trkpt lat="35.932336410" lon="-106.503225270">
        <ele>2639.300</ele>
        <time>2019-07-14T22:53:25Z</time>
      </trkpt>
      <trkpt lat="35.932305740" lon="-106.503165030">
        <ele>2640.300</ele>
        <time>2019-07-14T22:53:26Z</time>
      </trkpt>
      <trkpt lat="35.932277790" lon="-106.503102170">
        <ele>2640.600</ele>
        <time>2019-07-14T22:53:27Z</time>
      </trkpt>
      <trkpt lat="35.932242050" lon="-106.503031390">
        <ele>2641.000</ele>
        <time>2019-07-14T22:53:28Z</time>
      </trkpt>
      <trkpt lat="35.932210650" lon="-106.502955890">
        <ele>2641.400</ele>
        <time>2019-07-14T22:53:29Z</time>
      </trkpt>
      <trkpt lat="35.932185510" lon="-106.502876210">
        <ele>2641.000</ele>
        <time>2019-07-14T22:53:30Z</time>
      </trkpt>
      <trkpt lat="35.932155040" lon="-106.502801020">
        <ele>2641.100</ele>
        <time>2019-07-14T22:53:31Z</time>
      </trkpt>
      <trkpt lat="35.932126290" lon="-106.502716810">
        <ele>2641.500</ele>
        <time>2019-07-14T22:53:32Z</time>
      </trkpt>
      <trkpt lat="35.932113240" lon="-106.502626140">
        <ele>2641.600</ele>
        <time>2019-07-14T22:53:33Z</time>
      </trkpt>
      <trkpt lat="35.932103310" lon="-106.502531490">
        <ele>2640.100</ele>
        <time>2019-07-14T22:53:34Z</time>
      </trkpt>
      <trkpt lat="35.932095960" lon="-106.502428670">
        <ele>2640.000</ele>
        <time>2019-07-14T22:53:35Z</time>
      </trkpt>
      <trkpt lat="35.932089720" lon="-106.502324550">
        <ele>2639.200</ele>
        <time>2019-07-14T22:53:36Z</time>
      </trkpt>
      <trkpt lat="35.932073340" lon="-106.502218880">
        <ele>2639.600</ele>
        <time>2019-07-14T22:53:37Z</time>
      </trkpt>
      <trkpt lat="35.932046650" lon="-106.502110650">
        <ele>2639.400</ele>
        <time>2019-07-14T22:53:38Z</time>
      </trkpt>
      <trkpt lat="35.932010950" lon="-106.502015060">
        <ele>2639.600</ele>
        <time>2019-07-14T22:53:39Z</time>
      </trkpt>
      <trkpt lat="35.931966680" lon="-106.501921940">
        <ele>2639.600</ele>
        <time>2019-07-14T22:53:40Z</time>
      </trkpt>
      <trkpt lat="35.931919910" lon="-106.501825150">
        <ele>2640.000</ele>
        <time>2019-07-14T22:53:41Z</time>
      </trkpt>
      <trkpt lat="35.931867270" lon="-106.501732570">
        <ele>2640.400</ele>
        <time>2019-07-14T22:53:42Z</time>
      </trkpt>
      <trkpt lat="35.931811360" lon="-106.501648320">
        <ele>2639.900</ele>
        <time>2019-07-14T22:53:43Z</time>
      </trkpt>
      <trkpt lat="35.931750380" lon="-106.501565930">
        <ele>2640.200</ele>
        <time>2019-07-14T22:53:44Z</time>
      </trkpt>
      <trkpt lat="35.931697930" lon="-106.501501630">
        <ele>2640.600</ele>
        <time>2019-07-14T22:53:45Z</time>
      </trkpt>
      <trkpt lat="35.931647400" lon="-106.501436230">
        <ele>2640.100</ele>
        <time>2019-07-14T22:53:46Z</time>
      </trkpt>
      <trkpt lat="35.931601030" lon="-106.501401800">
        <ele>2640.100</ele>
        <time>2019-07-14T22:53:47Z</time>
      </trkpt>
      <trkpt lat="35.931560240" lon="-106.501367200">
        <ele>2640.000</ele>
        <time>2019-07-14T22:53:48Z</time>
      </trkpt>
      <trkpt lat="35.931520110" lon="-106.501341760">
        <ele>2640.400</ele>
        <time>2019-07-14T22:53:49Z</time>
      </trkpt>
      <trkpt lat="35.931484020" lon="-106.501317670">
        <ele>2640.100</ele>
        <time>2019-07-14T22:53:50Z</time>
      </trkpt>
      <trkpt lat="35.931442150" lon="-106.501305090">
        <ele>2639.300</ele>
        <time>2019-07-14T22:53:51Z</time>
      </trkpt>
      <trkpt lat="35.931388590" lon="-106.501285850">
        <ele>2640.400</ele>
        <time>2019-07-14T22:53:53Z</time>
      </trkpt>
      <trkpt lat="35.931353290" lon="-106.501271640">
        <ele>2640.000</ele>
        <time>2019-07-14T22:53:55Z</time>
      </trkpt>
      <trkpt lat="35.931313360" lon="-106.501267850">
        <ele>2639.600</ele>
        <time>2019-07-14T22:53:58Z</time>
      </trkpt>
      <trkpt lat="35.931244900" lon="-106.501255760">
        <ele>2638.800</ele>
        <time>2019-07-14T22:54:00Z</time>
      </trkpt>
      <trkpt lat="35.931208630" lon="-106.501259090">
        <ele>2639.500</ele>
        <time>2019-07-14T22:54:01Z</time>
      </trkpt>
      <trkpt lat="35.931158480" lon="-106.501249670">
        <ele>2639.300</ele>
        <time>2019-07-14T22:54:02Z</time>
      </trkpt>
      <trkpt lat="35.931099520" lon="-106.501246130">
        <ele>2640.500</ele>
        <time>2019-07-14T22:54:03Z</time>
      </trkpt>
      <trkpt lat="35.931029520" lon="-106.501226450">
        <ele>2639.700</ele>
        <time>2019-07-14T22:54:04Z</time>
      </trkpt>
      <trkpt lat="35.930968770" lon="-106.501214340">
        <ele>2639.200</ele>
        <time>2019-07-14T22:54:05Z</time>
      </trkpt>
      <trkpt lat="35.930894120" lon="-106.501192840">
        <ele>2638.600</ele>
        <time>2019-07-14T22:54:06Z</time>
      </trkpt>
      <trkpt lat="35.930821680" lon="-106.501201310">
        <ele>2638.700</ele>
        <time>2019-07-14T22:54:07Z</time>
      </trkpt>
      <trkpt lat="35.930738030" lon="-106.501204780">
        <ele>2638.500</ele>
        <time>2019-07-14T22:54:08Z</time>
      </trkpt>
      <trkpt lat="35.930659360" lon="-106.501220710">
        <ele>2638.900</ele>
        <time>2019-07-14T22:54:09Z</time>
      </trkpt>
      <trkpt lat="35.930574880" lon="-106.501247300">
        <ele>2638.600</ele>
        <time>2019-07-14T22:54:10Z</time>
      </trkpt>
      <trkpt lat="35.930492140" lon="-106.501292120">
        <ele>2639.000</ele>
        <time>2019-07-14T22:54:11Z</time>
      </trkpt>
      <trkpt lat="35.930419200" lon="-106.501348560">
        <ele>2638.900</ele>
        <time>2019-07-14T22:54:12Z</time>
      </trkpt>
      <trkpt lat="35.930354410" lon="-106.501411550">
        <ele>2640.500</ele>
        <time>2019-07-14T22:54:13Z</time>
      </trkpt>
      <trkpt lat="35.930300600" lon="-106.501481780">
        <ele>2641.000</ele>
        <time>2019-07-14T22:54:14Z</time>
      </trkpt>
      <trkpt lat="35.930248490" lon="-106.501556910">
        <ele>2640.700</ele>
        <time>2019-07-14T22:54:15Z</time>
      </trkpt>
      <trkpt lat="35.930197440" lon="-106.501624410">
        <ele>2641.100</ele>
        <time>2019-07-14T22:54:16Z</time>
      </trkpt>
      <trkpt lat="35.930142080" lon="-106.501682500">
        <ele>2642.300</ele>
        <time>2019-07-14T22:54:17Z</time>
      </trkpt>
      <trkpt lat="35.930079280" lon="-106.501734060">
        <ele>2642.000</ele>
        <time>2019-07-14T22:54:18Z</time>
      </trkpt>
      <trkpt lat="35.930010020" lon="-106.501786420">
        <ele>2642.800</ele>
        <time>2019-07-14T22:54:19Z</time>
      </trkpt>
      <trkpt lat="35.929936360" lon="-106.501822910">
        <ele>2642.900</ele>
        <time>2019-07-14T22:54:20Z</time>
      </trkpt>
      <trkpt lat="35.929856570" lon="-106.501847510">
        <ele>2642.600</ele>
        <time>2019-07-14T22:54:21Z</time>
      </trkpt>
      <trkpt lat="35.929774240" lon="-106.501868790">
        <ele>2642.500</ele>
        <time>2019-07-14T22:54:22Z</time>
      </trkpt>
      <trkpt lat="35.929694560" lon="-106.501887420">
        <ele>2643.800</ele>
        <time>2019-07-14T22:54:23Z</time>
      </trkpt>
      <trkpt lat="35.929610140" lon="-106.501908960">
        <ele>2644.500</ele>
        <time>2019-07-14T22:54:24Z</time>
      </trkpt>
      <trkpt lat="35.929520280" lon="-106.501924130">
        <ele>2645.300</ele>
        <time>2019-07-14T22:54:25Z</time>
      </trkpt>
      <trkpt lat="35.929431660" lon="-106.501935260">
        <ele>2645.300</ele>
        <time>2019-07-14T22:54:26Z</time>
      </trkpt>
      <trkpt lat="35.929345640" lon="-106.501946450">
        <ele>2645.100</ele>
        <time>2019-07-14T22:54:27Z</time>
      </trkpt>
      <trkpt lat="35.929256960" lon="-106.501955840">
        <ele>2645.200</ele>
        <time>2019-07-14T22:54:28Z</time>
      </trkpt>
      <trkpt lat="35.929167560" lon="-106.501960580">
        <ele>2644.600</ele>
        <time>2019-07-14T22:54:29Z</time>
      </trkpt>
      <trkpt lat="35.929080950" lon="-106.501968640">
        <ele>2644.300</ele>
        <time>2019-07-14T22:54:30Z</time>
      </trkpt>
      <trkpt lat="35.929001370" lon="-106.501985170">
        <ele>2647.000</ele>
        <time>2019-07-14T22:54:31Z</time>
      </trkpt>
      <trkpt lat="35.928917580" lon="-106.502012750">
        <ele>2646.200</ele>
        <time>2019-07-14T22:54:32Z</time>
      </trkpt>
      <trkpt lat="35.928832090" lon="-106.502041130">
        <ele>2646.800</ele>
        <time>2019-07-14T22:54:33Z</time>
      </trkpt>
      <trkpt lat="35.928743630" lon="-106.502070120">
        <ele>2646.200</ele>
        <time>2019-07-14T22:54:34Z</time>
      </trkpt>
      <trkpt lat="35.928662000" lon="-106.502102390">
        <ele>2646.800</ele>
        <time>2019-07-14T22:54:35Z</time>
      </trkpt>
      <trkpt lat="35.928577900" lon="-106.502137550">
        <ele>2646.700</ele>
        <time>2019-07-14T22:54:36Z</time>
      </trkpt>
      <trkpt lat="35.928495390" lon="-106.502175300">
        <ele>2646.700</ele>
        <time>2019-07-14T22:54:37Z</time>
      </trkpt>
      <trkpt lat="35.928410010" lon="-106.502220460">
        <ele>2647.000</ele>
        <time>2019-07-14T22:54:38Z</time>
      </trkpt>
      <trkpt lat="35.928324290" lon="-106.502262940">
        <ele>2646.600</ele>
        <time>2019-07-14T22:54:39Z</time>
      </trkpt>
      <trkpt lat="35.928235900" lon="-106.502309060">
        <ele>2646.400</ele>
        <time>2019-07-14T22:54:40Z</time>
      </trkpt>
      <trkpt lat="35.928150990" lon="-106.502352970">
        <ele>2646.300</ele>
        <time>2019-07-14T22:54:41Z</time>
      </trkpt>
      <trkpt lat="35.928062580" lon="-106.502400780">
        <ele>2646.900</ele>
        <time>2019-07-14T22:54:42Z</time>
      </trkpt>
      <trkpt lat="35.927969030" lon="-106.502443220">
        <ele>2646.900</ele>
        <time>2019-07-14T22:54:43Z</time>
      </trkpt>
      <trkpt lat="35.927872580" lon="-106.502479980">
        <ele>2646.500</ele>
        <time>2019-07-14T22:54:44Z</time>
      </trkpt>
      <trkpt lat="35.927774310" lon="-106.502506290">
        <ele>2647.000</ele>
        <time>2019-07-14T22:54:45Z</time>
      </trkpt>
      <trkpt lat="35.927675780" lon="-106.502521000">
        <ele>2647.400</ele>
        <time>2019-07-14T22:54:46Z</time>
      </trkpt>
      <trkpt lat="35.927577200" lon="-106.502525640">
        <ele>2648.600</ele>
        <time>2019-07-14T22:54:47Z</time>
      </trkpt>
      <trkpt lat="35.927475180" lon="-106.502514490">
        <ele>2648.600</ele>
        <time>2019-07-14T22:54:48Z</time>
      </trkpt>
      <trkpt lat="35.927377360" lon="-106.502483080">
        <ele>2648.100</ele>
        <time>2019-07-14T22:54:49Z</time>
      </trkpt>
      <trkpt lat="35.927275590" lon="-106.502452450">
        <ele>2648.800</ele>
        <time>2019-07-14T22:54:50Z</time>
      </trkpt>
      <trkpt lat="35.927177190" lon="-106.502411240">
        <ele>2648.700</ele>
        <time>2019-07-14T22:54:51Z</time>
      </trkpt>
      <trkpt lat="35.927080940" lon="-106.502370110">
        <ele>2649.200</ele>
        <time>2019-07-14T22:54:52Z</time>
      </trkpt>
      <trkpt lat="35.926984140" lon="-106.502326510">
        <ele>2649.500</ele>
        <time>2019-07-14T22:54:53Z</time>
      </trkpt>
      <trkpt lat="35.926885990" lon="-106.502289860">
        <ele>2649.500</ele>
        <time>2019-07-14T22:54:54Z</time>
      </trkpt>
      <trkpt lat="35.926787320" lon="-106.502250110">
        <ele>2649.400</ele>
        <time>2019-07-14T22:54:55Z</time>
      </trkpt>
      <trkpt lat="35.926687030" lon="-106.502209660">
        <ele>2649.500</ele>
        <time>2019-07-14T22:54:56Z</time>
      </trkpt>
      <trkpt lat="35.926580780" lon="-106.502178730">
        <ele>2649.300</ele>
        <time>2019-07-14T22:54:57Z</time>
      </trkpt>
      <trkpt lat="35.926475490" lon="-106.502164760">
        <ele>2649.100</ele>
        <time>2019-07-14T22:54:58Z</time>
      </trkpt>
      <trkpt lat="35.926370860" lon="-106.502153600">
        <ele>2649.100</ele>
        <time>2019-07-14T22:54:59Z</time>
      </trkpt>
      <trkpt lat="35.926260690" lon="-106.502147120">
        <ele>2648.900</ele>
        <time>2019-07-14T22:55:00Z</time>
      </trkpt>
      <trkpt lat="35.926156990" lon="-106.502148950">
        <ele>2648.700</ele>
        <time>2019-07-14T22:55:01Z</time>
      </trkpt>
      <trkpt lat="35.926052560" lon="-106.502143860">
        <ele>2649.800</ele>
        <time>2019-07-14T22:55:02Z</time>
      </trkpt>
      <trkpt lat="35.925940080" lon="-106.502144650">
        <ele>2648.300</ele>
        <time>2019-07-14T22:55:03Z</time>
      </trkpt>
      <trkpt lat="35.925836200" lon="-106.502158950">
        <ele>2648.400</ele>
        <time>2019-07-14T22:55:04Z</time>
      </trkpt>
      <trkpt lat="35.925746530" lon="-106.502196000">
        <ele>2648.200</ele>
        <time>2019-07-14T22:55:05Z</time>
      </trkpt>
      <trkpt lat="35.925655860" lon="-106.502250220">
        <ele>2647.900</ele>
        <time>2019-07-14T22:55:06Z</time>
      </trkpt>
      <trkpt lat="35.925567160" lon="-106.502324120">
        <ele>2649.300</ele>
        <time>2019-07-14T22:55:07Z</time>
      </trkpt>
      <trkpt lat="35.925484820" lon="-106.502403290">
        <ele>2648.800</ele>
        <time>2019-07-14T22:55:08Z</time>
      </trkpt>
      <trkpt lat="35.925399600" lon="-106.502473250">
        <ele>2650.200</ele>
        <time>2019-07-14T22:55:09Z</time>
      </trkpt>
      <trkpt lat="35.925317900" lon="-106.502541960">
        <ele>2650.400</ele>
        <time>2019-07-14T22:55:10Z</time>
      </trkpt>
      <trkpt lat="35.925242000" lon="-106.502613890">
        <ele>2650.700</ele>
        <time>2019-07-14T22:55:11Z</time>
      </trkpt>
      <trkpt lat="35.925168360" lon="-106.502676830">
        <ele>2650.800</ele>
        <time>2019-07-14T22:55:12Z</time>
      </trkpt>
      <trkpt lat="35.925089330" lon="-106.502719470">
        <ele>2650.400</ele>
        <time>2019-07-14T22:55:13Z</time>
      </trkpt>
      <trkpt lat="35.925010800" lon="-106.502755580">
        <ele>2649.900</ele>
        <time>2019-07-14T22:55:14Z</time>
      </trkpt>
      <trkpt lat="35.924926320" lon="-106.502779770">
        <ele>2651.600</ele>
        <time>2019-07-14T22:55:15Z</time>
      </trkpt>
      <trkpt lat="35.924831940" lon="-106.502782880">
        <ele>2651.800</ele>
        <time>2019-07-14T22:55:16Z</time>
      </trkpt>
      <trkpt lat="35.924736380" lon="-106.502777730">
        <ele>2651.600</ele>
        <time>2019-07-14T22:55:17Z</time>
      </trkpt>
      <trkpt lat="35.924635990" lon="-106.502771080">
        <ele>2651.500</ele>
        <time>2019-07-14T22:55:18Z</time>
      </trkpt>
      <trkpt lat="35.924534410" lon="-106.502761540">
        <ele>2651.400</ele>
        <time>2019-07-14T22:55:19Z</time>
      </trkpt>
      <trkpt lat="35.924433970" lon="-106.502746310">
        <ele>2651.000</ele>
        <time>2019-07-14T22:55:20Z</time>
      </trkpt>
      <trkpt lat="35.924332270" lon="-106.502735730">
        <ele>2651.100</ele>
        <time>2019-07-14T22:55:21Z</time>
      </trkpt>
      <trkpt lat="35.924241070" lon="-106.502717030">
        <ele>2651.600</ele>
        <time>2019-07-14T22:55:22Z</time>
      </trkpt>
      <trkpt lat="35.924137750" lon="-106.502698930">
        <ele>2651.800</ele>
        <time>2019-07-14T22:55:23Z</time>
      </trkpt>
      <trkpt lat="35.924042700" lon="-106.502680530">
        <ele>2652.000</ele>
        <time>2019-07-14T22:55:24Z</time>
      </trkpt>
      <trkpt lat="35.923943930" lon="-106.502655750">
        <ele>2652.900</ele>
        <time>2019-07-14T22:55:25Z</time>
      </trkpt>
      <trkpt lat="35.923842280" lon="-106.502627860">
        <ele>2652.900</ele>
        <time>2019-07-14T22:55:26Z</time>
      </trkpt>
      <trkpt lat="35.923739880" lon="-106.502597750">
        <ele>2653.500</ele>
        <time>2019-07-14T22:55:27Z</time>
      </trkpt>
      <trkpt lat="35.923637050" lon="-106.502550230">
        <ele>2654.600</ele>
        <time>2019-07-14T22:55:28Z</time>
      </trkpt>
      <trkpt lat="35.923535890" lon="-106.502496710">
        <ele>2653.900</ele>
        <time>2019-07-14T22:55:29Z</time>
      </trkpt>
      <trkpt lat="35.923443220" lon="-106.502442560">
        <ele>2653.800</ele>
        <time>2019-07-14T22:55:30Z</time>
      </trkpt>
      <trkpt lat="35.923371670" lon="-106.502361830">
        <ele>2655.300</ele>
        <time>2019-07-14T22:55:31Z</time>
      </trkpt>
      <trkpt lat="35.923290350" lon="-106.502309420">
        <ele>2655.300</ele>
        <time>2019-07-14T22:55:32Z</time>
      </trkpt>
      <trkpt lat="35.923203730" lon="-106.502249280">
        <ele>2655.600</ele>
        <time>2019-07-14T22:55:33Z</time>
      </trkpt>
      <trkpt lat="35.923113900" lon="-106.502194430">
        <ele>2655.900</ele>
        <time>2019-07-14T22:55:34Z</time>
      </trkpt>
      <trkpt lat="35.923024790" lon="-106.502125480">
        <ele>2657.600</ele>
        <time>2019-07-14T22:55:35Z</time>
      </trkpt>
      <trkpt lat="35.922924830" lon="-106.502062440">
        <ele>2657.400</ele>
        <time>2019-07-14T22:55:36Z</time>
      </trkpt>
      <trkpt lat="35.922831520" lon="-106.501996380">
        <ele>2658.500</ele>
        <time>2019-07-14T22:55:37Z</time>
      </trkpt>
      <trkpt lat="35.922733920" lon="-106.501924910">
        <ele>2658.800</ele>
        <time>2019-07-14T22:55:38Z</time>
      </trkpt>
      <trkpt lat="35.922639890" lon="-106.501854500">
        <ele>2658.900</ele>
        <time>2019-07-14T22:55:39Z</time>
      </trkpt>
      <trkpt lat="35.922541930" lon="-106.501777150">
        <ele>2659.100</ele>
        <time>2019-07-14T22:55:40Z</time>
      </trkpt>
      <trkpt lat="35.922444280" lon="-106.501704530">
        <ele>2659.300</ele>
        <time>2019-07-14T22:55:41Z</time>
      </trkpt>
      <trkpt lat="35.922350600" lon="-106.501626750">
        <ele>2660.200</ele>
        <time>2019-07-14T22:55:42Z</time>
      </trkpt>
      <trkpt lat="35.922253810" lon="-106.501561970">
        <ele>2660.600</ele>
        <time>2019-07-14T22:55:43Z</time>
      </trkpt>
      <trkpt lat="35.922160700" lon="-106.501507490">
        <ele>2661.100</ele>
        <time>2019-07-14T22:55:44Z</time>
      </trkpt>
      <trkpt lat="35.922079230" lon="-106.501463080">
        <ele>2661.500</ele>
        <time>2019-07-14T22:55:45Z</time>
      </trkpt>
      <trkpt lat="35.921980880" lon="-106.501415810">
        <ele>2661.600</ele>
        <time>2019-07-14T22:55:46Z</time>
      </trkpt>
      <trkpt lat="35.921885020" lon="-106.501378080">
        <ele>2661.300</ele>
        <time>2019-07-14T22:55:47Z</time>
      </trkpt>
      <trkpt lat="35.921811530" lon="-106.501340760">
        <ele>2662.100</ele>
        <time>2019-07-14T22:55:48Z</time>
      </trkpt>
      <trkpt lat="35.921745450" lon="-106.501300940">
        <ele>2661.900</ele>
        <time>2019-07-14T22:55:49Z</time>
      </trkpt>
      <trkpt lat="35.921694850" lon="-106.501258730">
        <ele>2662.300</ele>
        <time>2019-07-14T22:55:50Z</time>
      </trkpt>
      <trkpt lat="35.921654060" lon="-106.501217920">
        <ele>2662.900</ele>
        <time>2019-07-14T22:55:51Z</time>
      </trkpt>
      <trkpt lat="35.921612750" lon="-106.501187230">
        <ele>2663.100</ele>
        <time>2019-07-14T22:55:52Z</time>
      </trkpt>
      <trkpt lat="35.921574590" lon="-106.501150500">
        <ele>2663.300</ele>
        <time>2019-07-14T22:55:53Z</time>
      </trkpt>
      <trkpt lat="35.921535580" lon="-106.501108530">
        <ele>2663.700</ele>
        <time>2019-07-14T22:55:54Z</time>
      </trkpt>
      <trkpt lat="35.921484820" lon="-106.501061880">
        <ele>2663.600</ele>
        <time>2019-07-14T22:55:55Z</time>
      </trkpt>
      <trkpt lat="35.921436580" lon="-106.501010570">
        <ele>2663.400</ele>
        <time>2019-07-14T22:55:56Z</time>
      </trkpt>
      <trkpt lat="35.921385470" lon="-106.500953430">
        <ele>2663.100</ele>
        <time>2019-07-14T22:55:57Z</time>
      </trkpt>
      <trkpt lat="35.921334750" lon="-106.500887840">
        <ele>2662.800</ele>
        <time>2019-07-14T22:55:58Z</time>
      </trkpt>
      <trkpt lat="35.921274150" lon="-106.500819390">
        <ele>2662.300</ele>
        <time>2019-07-14T22:55:59Z</time>
      </trkpt>
      <trkpt lat="35.921215090" lon="-106.500743010">
        <ele>2662.100</ele>
        <time>2019-07-14T22:56:00Z</time>
      </trkpt>
      <trkpt lat="35.921150400" lon="-106.500669320">
        <ele>2661.200</ele>
        <time>2019-07-14T22:56:01Z</time>
      </trkpt>
      <trkpt lat="35.921081700" lon="-106.500588580">
        <ele>2660.800</ele>
        <time>2019-07-14T22:56:02Z</time>
      </trkpt>
      <trkpt lat="35.921015890" lon="-106.500496700">
        <ele>2659.400</ele>
        <time>2019-07-14T22:56:03Z</time>
      </trkpt>
      <trkpt lat="35.920964100" lon="-106.500418180">
        <ele>2659.300</ele>
        <time>2019-07-14T22:56:04Z</time>
      </trkpt>
      <trkpt lat="35.920902440" lon="-106.500332520">
        <ele>2659.200</ele>
        <time>2019-07-14T22:56:05Z</time>
      </trkpt>
      <trkpt lat="35.920836380" lon="-106.500252360">
        <ele>2659.200</ele>
        <time>2019-07-14T22:56:06Z</time>
      </trkpt>
      <trkpt lat="35.920769440" lon="-106.500163100">
        <ele>2658.300</ele>
        <time>2019-07-14T22:56:07Z</time>
      </trkpt>
      <trkpt lat="35.920703420" lon="-106.500076400">
        <ele>2658.400</ele>
        <time>2019-07-14T22:56:08Z</time>
      </trkpt>
      <trkpt lat="35.920635470" lon="-106.499997190">
        <ele>2658.100</ele>
        <time>2019-07-14T22:56:09Z</time>
      </trkpt>
      <trkpt lat="35.920577770" lon="-106.499909290">
        <ele>2658.200</ele>
        <time>2019-07-14T22:56:10Z</time>
      </trkpt>
      <trkpt lat="35.920507270" lon="-106.499837060">
        <ele>2657.700</ele>
        <time>2019-07-14T22:56:11Z</time>
      </trkpt>
      <trkpt lat="35.920437540" lon="-106.499757530">
        <ele>2659.000</ele>
        <time>2019-07-14T22:56:12Z</time>
      </trkpt>
      <trkpt lat="35.920365400" lon="-106.499670410">
        <ele>2659.300</ele>
        <time>2019-07-14T22:56:13Z</time>
      </trkpt>
      <trkpt lat="35.920294190" lon="-106.499584770">
        <ele>2659.400</ele>
        <time>2019-07-14T22:56:14Z</time>
      </trkpt>
      <trkpt lat="35.920227200" lon="-106.499501280">
        <ele>2659.700</ele>
        <time>2019-07-14T22:56:15Z</time>
      </trkpt>
      <trkpt lat="35.920146090" lon="-106.499426290">
        <ele>2659.300</ele>
        <time>2019-07-14T22:56:16Z</time>
      </trkpt>
      <trkpt lat="35.920060090" lon="-106.499354680">
        <ele>2658.600</ele>
        <time>2019-07-14T22:56:17Z</time>
      </trkpt>
      <trkpt lat="35.919983880" lon="-106.499291500">
        <ele>2658.200</ele>
        <time>2019-07-14T22:56:18Z</time>
      </trkpt>
      <trkpt lat="35.919917220" lon="-106.499227850">
        <ele>2658.000</ele>
        <time>2019-07-14T22:56:19Z</time>
      </trkpt>
      <trkpt lat="35.919833470" lon="-106.499169030">
        <ele>2658.000</ele>
        <time>2019-07-14T22:56:20Z</time>
      </trkpt>
      <trkpt lat="35.919778140" lon="-106.499111500">
        <ele>2657.400</ele>
        <time>2019-07-14T22:56:21Z</time>
      </trkpt>
      <trkpt lat="35.919696480" lon="-106.499042220">
        <ele>2657.300</ele>
        <time>2019-07-14T22:56:22Z</time>
      </trkpt>
      <trkpt lat="35.919611010" lon="-106.498966710">
        <ele>2657.500</ele>
        <time>2019-07-14T22:56:23Z</time>
      </trkpt>
      <trkpt lat="35.919530460" lon="-106.498885380">
        <ele>2657.900</ele>
        <time>2019-07-14T22:56:24Z</time>
      </trkpt>
      <trkpt lat="35.919448690" lon="-106.498816260">
        <ele>2657.800</ele>
        <time>2019-07-14T22:56:25Z</time>
      </trkpt>
      <trkpt lat="35.919358870" lon="-106.498747260">
        <ele>2658.000</ele>
        <time>2019-07-14T22:56:26Z</time>
      </trkpt>
      <trkpt lat="35.919266340" lon="-106.498693440">
        <ele>2656.100</ele>
        <time>2019-07-14T22:56:27Z</time>
      </trkpt>
      <trkpt lat="35.919172310" lon="-106.498618890">
        <ele>2657.100</ele>
        <time>2019-07-14T22:56:28Z</time>
      </trkpt>
      <trkpt lat="35.919093460" lon="-106.498555950">
        <ele>2657.100</ele>
        <time>2019-07-14T22:56:29Z</time>
      </trkpt>
      <trkpt lat="35.919009010" lon="-106.498482700">
        <ele>2657.400</ele>
        <time>2019-07-14T22:56:30Z</time>
      </trkpt>
      <trkpt lat="35.918920430" lon="-106.498417460">
        <ele>2657.100</ele>
        <time>2019-07-14T22:56:31Z</time>
      </trkpt>
      <trkpt lat="35.918837600" lon="-106.498348520">
        <ele>2656.900</ele>
        <time>2019-07-14T22:56:32Z</time>
      </trkpt>
      <trkpt lat="35.918755840" lon="-106.498279220">
        <ele>2657.200</ele>
        <time>2019-07-14T22:56:33Z</time>
      </trkpt>
      <trkpt lat="35.918678270" lon="-106.498225620">
        <ele>2656.300</ele>
        <time>2019-07-14T22:56:34Z</time>
      </trkpt>
      <trkpt lat="35.918590550" lon="-106.498156960">
        <ele>2655.800</ele>
        <time>2019-07-14T22:56:35Z</time>
      </trkpt>
      <trkpt lat="35.918502240" lon="-106.498081730">
        <ele>2656.100</ele>
        <time>2019-07-14T22:56:36Z</time>
      </trkpt>
      <trkpt lat="35.918418400" lon="-106.498017510">
        <ele>2656.300</ele>
        <time>2019-07-14T22:56:37Z</time>
      </trkpt>
      <trkpt lat="35.918331010" lon="-106.497950570">
        <ele>2655.700</ele>
        <time>2019-07-14T22:56:38Z</time>
      </trkpt>
      <trkpt lat="35.918237420" lon="-106.497883270">
        <ele>2655.900</ele>
        <time>2019-07-14T22:56:39Z</time>
      </trkpt>
      <trkpt lat="35.918147910" lon="-106.497821960">
        <ele>2655.300</ele>
        <time>2019-07-14T22:56:40Z</time>
      </trkpt>
      <trkpt lat="35.918072050" lon="-106.497763130">
        <ele>2654.800</ele>
        <time>2019-07-14T22:56:41Z</time>
      </trkpt>
      <trkpt lat="35.918008300" lon="-106.497696390">
        <ele>2654.600</ele>
        <time>2019-07-14T22:56:42Z</time>
      </trkpt>
      <trkpt lat="35.917935040" lon="-106.497639460">
        <ele>2654.300</ele>
        <time>2019-07-14T22:56:43Z</time>
      </trkpt>
      <trkpt lat="35.917862620" lon="-106.497585080">
        <ele>2653.900</ele>
        <time>2019-07-14T22:56:44Z</time>
      </trkpt>
      <trkpt lat="35.917796600" lon="-106.497535460">
        <ele>2654.300</ele>
        <time>2019-07-14T22:56:45Z</time>
      </trkpt>
      <trkpt lat="35.917716370" lon="-106.497480610">
        <ele>2653.900</ele>
        <time>2019-07-14T22:56:46Z</time>
      </trkpt>
      <trkpt lat="35.917635550" lon="-106.497438010">
        <ele>2652.500</ele>
        <time>2019-07-14T22:56:47Z</time>
      </trkpt>
      <trkpt lat="35.917555620" lon="-106.497381500">
        <ele>2652.300</ele>
        <time>2019-07-14T22:56:48Z</time>
      </trkpt>
      <trkpt lat="35.917478570" lon="-106.497342150">
        <ele>2651.200</ele>
        <time>2019-07-14T22:56:49Z</time>
      </trkpt>
      <trkpt lat="35.917400000" lon="-106.497331810">
        <ele>2652.000</ele>
        <time>2019-07-14T22:56:50Z</time>
      </trkpt>
      <trkpt lat="35.917318570" lon="-106.497307330">
        <ele>2654.000</ele>
        <time>2019-07-14T22:56:51Z</time>
      </trkpt>
      <trkpt lat="35.917242540" lon="-106.497282520">
        <ele>2654.000</ele>
        <time>2019-07-14T22:56:52Z</time>
      </trkpt>
      <trkpt lat="35.917153590" lon="-106.497256620">
        <ele>2653.500</ele>
        <time>2019-07-14T22:56:53Z</time>
      </trkpt>
      <trkpt lat="35.917066520" lon="-106.497237670">
        <ele>2652.900</ele>
        <time>2019-07-14T22:56:54Z</time>
      </trkpt>
      <trkpt lat="35.916979680" lon="-106.497217790">
        <ele>2653.000</ele>
        <time>2019-07-14T22:56:55Z</time>
      </trkpt>
      <trkpt lat="35.916897980" lon="-106.497192550">
        <ele>2653.400</ele>
        <time>2019-07-14T22:56:56Z</time>
      </trkpt>
      <trkpt lat="35.916813640" lon="-106.497150610">
        <ele>2652.400</ele>
        <time>2019-07-14T22:56:57Z</time>
      </trkpt>
      <trkpt lat="35.916725790" lon="-106.497090870">
        <ele>2651.300</ele>
        <time>2019-07-14T22:56:58Z</time>
      </trkpt>
      <trkpt lat="35.916645360" lon="-106.497040740">
        <ele>2651.000</ele>
        <time>2019-07-14T22:56:59Z</time>
      </trkpt>
      <trkpt lat="35.916567300" lon="-106.496983680">
        <ele>2650.200</ele>
        <time>2019-07-14T22:57:00Z</time>
      </trkpt>
      <trkpt lat="35.916492680" lon="-106.496922050">
        <ele>2650.600</ele>
        <time>2019-07-14T22:57:01Z</time>
      </trkpt>
      <trkpt lat="35.916417360" lon="-106.496853650">
        <ele>2650.500</ele>
        <time>2019-07-14T22:57:02Z</time>
      </trkpt>
      <trkpt lat="35.916340660" lon="-106.496786880">
        <ele>2650.500</ele>
        <time>2019-07-14T22:57:03Z</time>
      </trkpt>
      <trkpt lat="35.916266180" lon="-106.496717150">
        <ele>2650.600</ele>
        <time>2019-07-14T22:57:04Z</time>
      </trkpt>
      <trkpt lat="35.916185880" lon="-106.496620450">
        <ele>2649.600</ele>
        <time>2019-07-14T22:57:05Z</time>
      </trkpt>
      <trkpt lat="35.916113910" lon="-106.496538040">
        <ele>2649.800</ele>
        <time>2019-07-14T22:57:06Z</time>
      </trkpt>
      <trkpt lat="35.916040760" lon="-106.496449880">
        <ele>2649.400</ele>
        <time>2019-07-14T22:57:07Z</time>
      </trkpt>
      <trkpt lat="35.915980220" lon="-106.496352620">
        <ele>2647.400</ele>
        <time>2019-07-14T22:57:08Z</time>
      </trkpt>
      <trkpt lat="35.915918070" lon="-106.496254530">
        <ele>2647.200</ele>
        <time>2019-07-14T22:57:09Z</time>
      </trkpt>
      <trkpt lat="35.915856610" lon="-106.496149830">
        <ele>2646.300</ele>
        <time>2019-07-14T22:57:10Z</time>
      </trkpt>
      <trkpt lat="35.915792180" lon="-106.496043640">
        <ele>2645.600</ele>
        <time>2019-07-14T22:57:11Z</time>
      </trkpt>
      <trkpt lat="35.915732970" lon="-106.495941500">
        <ele>2644.600</ele>
        <time>2019-07-14T22:57:12Z</time>
      </trkpt>
      <trkpt lat="35.915678410" lon="-106.495841540">
        <ele>2643.600</ele>
        <time>2019-07-14T22:57:13Z</time>
      </trkpt>
      <trkpt lat="35.915627800" lon="-106.495729370">
        <ele>2644.300</ele>
        <time>2019-07-14T22:57:14Z</time>
      </trkpt>
      <trkpt lat="35.915570180" lon="-106.495620700">
        <ele>2644.100</ele>
        <time>2019-07-14T22:57:15Z</time>
      </trkpt>
      <trkpt lat="35.915513960" lon="-106.495528150">
        <ele>2643.600</ele>
        <time>2019-07-14T22:57:16Z</time>
      </trkpt>
      <trkpt lat="35.915457630" lon="-106.495419850">
        <ele>2643.400</ele>
        <time>2019-07-14T22:57:17Z</time>
      </trkpt>
      <trkpt lat="35.915411750" lon="-106.495325450">
        <ele>2643.800</ele>
        <time>2019-07-14T22:57:18Z</time>
      </trkpt>
      <trkpt lat="35.915358790" lon="-106.495222500">
        <ele>2643.500</ele>
        <time>2019-07-14T22:57:19Z</time>
      </trkpt>
      <trkpt lat="35.915307470" lon="-106.495114240">
        <ele>2642.700</ele>
        <time>2019-07-14T22:57:20Z</time>
      </trkpt>
      <trkpt lat="35.915259250" lon="-106.495005740">
        <ele>2642.900</ele>
        <time>2019-07-14T22:57:21Z</time>
      </trkpt>
      <trkpt lat="35.915235420" lon="-106.494889340">
        <ele>2643.300</ele>
        <time>2019-07-14T22:57:22Z</time>
      </trkpt>
      <trkpt lat="35.915208100" lon="-106.494790930">
        <ele>2642.200</ele>
        <time>2019-07-14T22:57:23Z</time>
      </trkpt>
      <trkpt lat="35.915190440" lon="-106.494677520">
        <ele>2641.400</ele>
        <time>2019-07-14T22:57:24Z</time>
      </trkpt>
      <trkpt lat="35.915183720" lon="-106.494571490">
        <ele>2641.600</ele>
        <time>2019-07-14T22:57:25Z</time>
      </trkpt>
      <trkpt lat="35.915190270" lon="-106.494464160">
        <ele>2640.400</ele>
        <time>2019-07-14T22:57:26Z</time>
      </trkpt>
      <trkpt lat="35.915213040" lon="-106.494367280">
        <ele>2640.100</ele>
        <time>2019-07-14T22:57:27Z</time>
      </trkpt>
      <trkpt lat="35.915239390" lon="-106.494269380">
        <ele>2639.900</ele>
        <time>2019-07-14T22:57:28Z</time>
      </trkpt>
      <trkpt lat="35.915258570" lon="-106.494170050">
        <ele>2639.600</ele>
        <time>2019-07-14T22:57:29Z</time>
      </trkpt>
      <trkpt lat="35.915266740" lon="-106.494069440">
        <ele>2639.100</ele>
        <time>2019-07-14T22:57:30Z</time>
      </trkpt>
      <trkpt lat="35.915268860" lon="-106.493966980">
        <ele>2639.000</ele>
        <time>2019-07-14T22:57:31Z</time>
      </trkpt>
      <trkpt lat="35.915256460" lon="-106.493868270">
        <ele>2638.800</ele>
        <time>2019-07-14T22:57:32Z</time>
      </trkpt>
      <trkpt lat="35.915231540" lon="-106.493772450">
        <ele>2639.000</ele>
        <time>2019-07-14T22:57:33Z</time>
      </trkpt>
      <trkpt lat="35.915206170" lon="-106.493676920">
        <ele>2639.400</ele>
        <time>2019-07-14T22:57:34Z</time>
      </trkpt>
      <trkpt lat="35.915170970" lon="-106.493578990">
        <ele>2639.100</ele>
        <time>2019-07-14T22:57:35Z</time>
      </trkpt>
      <trkpt lat="35.915127290" lon="-106.493482320">
        <ele>2639.000</ele>
        <time>2019-07-14T22:57:36Z</time>
      </trkpt>
      <trkpt lat="35.915080760" lon="-106.493376560">
        <ele>2640.000</ele>
        <time>2019-07-14T22:57:37Z</time>
      </trkpt>
      <trkpt lat="35.915034220" lon="-106.493276890">
        <ele>2640.000</ele>
        <time>2019-07-14T22:57:38Z</time>
      </trkpt>
      <trkpt lat="35.914988560" lon="-106.493183080">
        <ele>2640.600</ele>
        <time>2019-07-14T22:57:39Z</time>
      </trkpt>
      <trkpt lat="35.914938850" lon="-106.493088790">
        <ele>2639.700</ele>
        <time>2019-07-14T22:57:40Z</time>
      </trkpt>
      <trkpt lat="35.914892250" lon="-106.492983470">
        <ele>2639.000</ele>
        <time>2019-07-14T22:57:41Z</time>
      </trkpt>
      <trkpt lat="35.914841940" lon="-106.492873910">
        <ele>2638.300</ele>
        <time>2019-07-14T22:57:42Z</time>
      </trkpt>
      <trkpt lat="35.914791710" lon="-106.492765510">
        <ele>2638.500</ele>
        <time>2019-07-14T22:57:43Z</time>
      </trkpt>
      <trkpt lat="35.914739530" lon="-106.492654970">
        <ele>2638.300</ele>
        <time>2019-07-14T22:57:44Z</time>
      </trkpt>
      <trkpt lat="35.914688990" lon="-106.492542030">
        <ele>2638.300</ele>
        <time>2019-07-14T22:57:45Z</time>
      </trkpt>
      <trkpt lat="35.914633660" lon="-106.492436640">
        <ele>2638.600</ele>
        <time>2019-07-14T22:57:46Z</time>
      </trkpt>
      <trkpt lat="35.914573490" lon="-106.492326650">
        <ele>2638.400</ele>
        <time>2019-07-14T22:57:47Z</time>
      </trkpt>
      <trkpt lat="35.914523030" lon="-106.492218700">
        <ele>2638.400</ele>
        <time>2019-07-14T22:57:48Z</time>
      </trkpt>
      <trkpt lat="35.914465530" lon="-106.492117350">
        <ele>2638.600</ele>
        <time>2019-07-14T22:57:49Z</time>
      </trkpt>
      <trkpt lat="35.914411780" lon="-106.492014890">
        <ele>2638.300</ele>
        <time>2019-07-14T22:57:50Z</time>
      </trkpt>
      <trkpt lat="35.914357760" lon="-106.491911520">
        <ele>2638.300</ele>
        <time>2019-07-14T22:57:51Z</time>
      </trkpt>
      <trkpt lat="35.914304920" lon="-106.491809160">
        <ele>2638.700</ele>
        <time>2019-07-14T22:57:52Z</time>
      </trkpt>
      <trkpt lat="35.914254880" lon="-106.491702170">
        <ele>2639.200</ele>
        <time>2019-07-14T22:57:53Z</time>
      </trkpt>
      <trkpt lat="35.914209220" lon="-106.491593780">
        <ele>2638.800</ele>
        <time>2019-07-14T22:57:54Z</time>
      </trkpt>
      <trkpt lat="35.914165020" lon="-106.491489320">
        <ele>2639.000</ele>
        <time>2019-07-14T22:57:55Z</time>
      </trkpt>
      <trkpt lat="35.914119080" lon="-106.491378920">
        <ele>2638.800</ele>
        <time>2019-07-14T22:57:56Z</time>
      </trkpt>
      <trkpt lat="35.914081830" lon="-106.491268780">
        <ele>2639.000</ele>
        <time>2019-07-14T22:57:57Z</time>
      </trkpt>
      <trkpt lat="35.914041510" lon="-106.491165210">
        <ele>2639.400</ele>
        <time>2019-07-14T22:57:58Z</time>
      </trkpt>
      <trkpt lat="35.914005050" lon="-106.491065060">
        <ele>2639.900</ele>
        <time>2019-07-14T22:57:59Z</time>
      </trkpt>
      <trkpt lat="35.913970310" lon="-106.490963630">
        <ele>2640.300</ele>
        <time>2019-07-14T22:58:00Z</time>
      </trkpt>
      <trkpt lat="35.913934750" lon="-106.490866280">
        <ele>2640.500</ele>
        <time>2019-07-14T22:58:01Z</time>
      </trkpt>
      <trkpt lat="35.913909610" lon="-106.490767370">
        <ele>2640.600</ele>
        <time>2019-07-14T22:58:02Z</time>
      </trkpt>
      <trkpt lat="35.913888120" lon="-106.490657600">
        <ele>2641.300</ele>
        <time>2019-07-14T22:58:03Z</time>
      </trkpt>
      <trkpt lat="35.913859030" lon="-106.490550150">
        <ele>2640.500</ele>
        <time>2019-07-14T22:58:04Z</time>
      </trkpt>
      <trkpt lat="35.913834020" lon="-106.490445030">
        <ele>2639.500</ele>
        <time>2019-07-14T22:58:05Z</time>
      </trkpt>
      <trkpt lat="35.913809550" lon="-106.490333460">
        <ele>2638.600</ele>
        <time>2019-07-14T22:58:06Z</time>
      </trkpt>
      <trkpt lat="35.913790050" lon="-106.490223980">
        <ele>2638.300</ele>
        <time>2019-07-14T22:58:07Z</time>
      </trkpt>
      <trkpt lat="35.913767380" lon="-106.490114620">
        <ele>2638.300</ele>
        <time>2019-07-14T22:58:08Z</time>
      </trkpt>
      <trkpt lat="35.913746900" lon="-106.489996670">
        <ele>2638.300</ele>
        <time>2019-07-14T22:58:09Z</time>
      </trkpt>
      <trkpt lat="35.913732060" lon="-106.489870180">
        <ele>2638.500</ele>
        <time>2019-07-14T22:58:10Z</time>
      </trkpt>
      <trkpt lat="35.913718120" lon="-106.489754090">
        <ele>2638.500</ele>
        <time>2019-07-14T22:58:11Z</time>
      </trkpt>
      <trkpt lat="35.913719320" lon="-106.489646680">
        <ele>2638.300</ele>
        <time>2019-07-14T22:58:12Z</time>
      </trkpt>
      <trkpt lat="35.913709090" lon="-106.489528510">
        <ele>2638.100</ele>
        <time>2019-07-14T22:58:13Z</time>
      </trkpt>
      <trkpt lat="35.913699360" lon="-106.489405790">
        <ele>2637.600</ele>
        <time>2019-07-14T22:58:14Z</time>
      </trkpt>
      <trkpt lat="35.913695610" lon="-106.489282820">
        <ele>2637.800</ele>
        <time>2019-07-14T22:58:15Z</time>
      </trkpt>
      <trkpt lat="35.913697540" lon="-106.489165250">
        <ele>2638.300</ele>
        <time>2019-07-14T22:58:16Z</time>
      </trkpt>
      <trkpt lat="35.913694680" lon="-106.489043900">
        <ele>2637.900</ele>
        <time>2019-07-14T22:58:17Z</time>
      </trkpt>
      <trkpt lat="35.913694240" lon="-106.488928500">
        <ele>2637.400</ele>
        <time>2019-07-14T22:58:18Z</time>
      </trkpt>
      <trkpt lat="35.913682900" lon="-106.488808040">
        <ele>2636.900</ele>
        <time>2019-07-14T22:58:19Z</time>
      </trkpt>
      <trkpt lat="35.913671630" lon="-106.488685390">
        <ele>2636.400</ele>
        <time>2019-07-14T22:58:20Z</time>
      </trkpt>
      <trkpt lat="35.913661280" lon="-106.488564370">
        <ele>2636.200</ele>
        <time>2019-07-14T22:58:21Z</time>
      </trkpt>
      <trkpt lat="35.913654500" lon="-106.488437170">
        <ele>2636.500</ele>
        <time>2019-07-14T22:58:22Z</time>
      </trkpt>
      <trkpt lat="35.913643750" lon="-106.488311350">
        <ele>2636.600</ele>
        <time>2019-07-14T22:58:23Z</time>
      </trkpt>
      <trkpt lat="35.913633740" lon="-106.488188000">
        <ele>2636.300</ele>
        <time>2019-07-14T22:58:24Z</time>
      </trkpt>
      <trkpt lat="35.913631890" lon="-106.488064770">
        <ele>2636.000</ele>
        <time>2019-07-14T22:58:25Z</time>
      </trkpt>
      <trkpt lat="35.913637090" lon="-106.487940190">
        <ele>2636.100</ele>
        <time>2019-07-14T22:58:26Z</time>
      </trkpt>
      <trkpt lat="35.913657570" lon="-106.487814700">
        <ele>2636.800</ele>
        <time>2019-07-14T22:58:27Z</time>
      </trkpt>
      <trkpt lat="35.913673470" lon="-106.487695040">
        <ele>2637.100</ele>
        <time>2019-07-14T22:58:28Z</time>
      </trkpt>
      <trkpt lat="35.913684300" lon="-106.487576100">
        <ele>2636.300</ele>
        <time>2019-07-14T22:58:29Z</time>
      </trkpt>
      <trkpt lat="35.913690900" lon="-106.487449650">
        <ele>2636.800</ele>
        <time>2019-07-14T22:58:30Z</time>
      </trkpt>
      <trkpt lat="35.913693160" lon="-106.487326270">
        <ele>2636.900</ele>
        <time>2019-07-14T22:58:31Z</time>
      </trkpt>
      <trkpt lat="35.913684970" lon="-106.487201270">
        <ele>2637.500</ele>
        <time>2019-07-14T22:58:32Z</time>
      </trkpt>
      <trkpt lat="35.913670190" lon="-106.487075340">
        <ele>2637.400</ele>
        <time>2019-07-14T22:58:33Z</time>
      </trkpt>
      <trkpt lat="35.913634640" lon="-106.486966910">
        <ele>2637.500</ele>
        <time>2019-07-14T22:58:34Z</time>
      </trkpt>
      <trkpt lat="35.913590220" lon="-106.486854220">
        <ele>2638.200</ele>
        <time>2019-07-14T22:58:35Z</time>
      </trkpt>
      <trkpt lat="35.913560730" lon="-106.486739370">
        <ele>2638.100</ele>
        <time>2019-07-14T22:58:36Z</time>
      </trkpt>
      <trkpt lat="35.913536180" lon="-106.486620440">
        <ele>2638.400</ele>
        <time>2019-07-14T22:58:37Z</time>
      </trkpt>
      <trkpt lat="35.913521390" lon="-106.486503060">
        <ele>2638.100</ele>
        <time>2019-07-14T22:58:38Z</time>
      </trkpt>
      <trkpt lat="35.913509010" lon="-106.486384930">
        <ele>2637.200</ele>
        <time>2019-07-14T22:58:39Z</time>
      </trkpt>
      <trkpt lat="35.913514340" lon="-106.486274200">
        <ele>2637.200</ele>
        <time>2019-07-14T22:58:40Z</time>
      </trkpt>
      <trkpt lat="35.913518780" lon="-106.486176280">
        <ele>2636.500</ele>
        <time>2019-07-14T22:58:41Z</time>
      </trkpt>
      <trkpt lat="35.913512790" lon="-106.486083620">
        <ele>2636.700</ele>
        <time>2019-07-14T22:58:42Z</time>
      </trkpt>
      <trkpt lat="35.913507980" lon="-106.485995400">
        <ele>2636.300</ele>
        <time>2019-07-14T22:58:43Z</time>
      </trkpt>
      <trkpt lat="35.913500330" lon="-106.485904050">
        <ele>2635.800</ele>
        <time>2019-07-14T22:58:44Z</time>
      </trkpt>
      <trkpt lat="35.913491260" lon="-106.485819490">
        <ele>2636.000</ele>
        <time>2019-07-14T22:58:45Z</time>
      </trkpt>
      <trkpt lat="35.913477350" lon="-106.485731880">
        <ele>2635.200</ele>
        <time>2019-07-14T22:58:46Z</time>
      </trkpt>
      <trkpt lat="35.913456240" lon="-106.485654800">
        <ele>2635.300</ele>
        <time>2019-07-14T22:58:47Z</time>
      </trkpt>
      <trkpt lat="35.913429380" lon="-106.485582450">
        <ele>2635.300</ele>
        <time>2019-07-14T22:58:48Z</time>
      </trkpt>
      <trkpt lat="35.913392820" lon="-106.485513360">
        <ele>2635.100</ele>
        <time>2019-07-14T22:58:49Z</time>
      </trkpt>
      <trkpt lat="35.913351510" lon="-106.485460270">
        <ele>2635.900</ele>
        <time>2019-07-14T22:58:50Z</time>
      </trkpt>
      <trkpt lat="35.913303670" lon="-106.485411890">
        <ele>2636.400</ele>
        <time>2019-07-14T22:58:51Z</time>
      </trkpt>
      <trkpt lat="35.913248050" lon="-106.485364860">
        <ele>2635.700</ele>
        <time>2019-07-14T22:58:52Z</time>
      </trkpt>
      <trkpt lat="35.913188930" lon="-106.485319490">
        <ele>2635.600</ele>
        <time>2019-07-14T22:58:53Z</time>
      </trkpt>
      <trkpt lat="35.913130040" lon="-106.485282890">
        <ele>2635.000</ele>
        <time>2019-07-14T22:58:54Z</time>
      </trkpt>
      <trkpt lat="35.913062560" lon="-106.485240400">
        <ele>2634.800</ele>
        <time>2019-07-14T22:58:55Z</time>
      </trkpt>
      <trkpt lat="35.912991670" lon="-106.485192780">
        <ele>2634.900</ele>
        <time>2019-07-14T22:58:56Z</time>
      </trkpt>
      <trkpt lat="35.912921020" lon="-106.485143770">
        <ele>2634.900</ele>
        <time>2019-07-14T22:58:57Z</time>
      </trkpt>
      <trkpt lat="35.912847790" lon="-106.485089160">
        <ele>2634.600</ele>
        <time>2019-07-14T22:58:58Z</time>
      </trkpt>
      <trkpt lat="35.912770280" lon="-106.485034380">
        <ele>2634.200</ele>
        <time>2019-07-14T22:58:59Z</time>
      </trkpt>
      <trkpt lat="35.912691010" lon="-106.484974440">
        <ele>2634.100</ele>
        <time>2019-07-14T22:59:00Z</time>
      </trkpt>
      <trkpt lat="35.912605150" lon="-106.484912670">
        <ele>2633.800</ele>
        <time>2019-07-14T22:59:01Z</time>
      </trkpt>
      <trkpt lat="35.912527650" lon="-106.484856610">
        <ele>2633.100</ele>
        <time>2019-07-14T22:59:02Z</time>
      </trkpt>
      <trkpt lat="35.912448920" lon="-106.484797690">
        <ele>2633.300</ele>
        <time>2019-07-14T22:59:03Z</time>
      </trkpt>
      <trkpt lat="35.912365360" lon="-106.484738940">
        <ele>2632.600</ele>
        <time>2019-07-14T22:59:04Z</time>
      </trkpt>
      <trkpt lat="35.912285860" lon="-106.484701310">
        <ele>2632.000</ele>
        <time>2019-07-14T22:59:05Z</time>
      </trkpt>
      <trkpt lat="35.912216050" lon="-106.484671130">
        <ele>2632.500</ele>
        <time>2019-07-14T22:59:06Z</time>
      </trkpt>
      <trkpt lat="35.912153150" lon="-106.484644390">
        <ele>2632.100</ele>
        <time>2019-07-14T22:59:07Z</time>
      </trkpt>
      <trkpt lat="35.912087120" lon="-106.484613430">
        <ele>2632.200</ele>
        <time>2019-07-14T22:59:08Z</time>
      </trkpt>
      <trkpt lat="35.912016700" lon="-106.484582610">
        <ele>2631.800</ele>
        <time>2019-07-14T22:59:09Z</time>
      </trkpt>
      <trkpt lat="35.911942590" lon="-106.484571090">
        <ele>2631.700</ele>
        <time>2019-07-14T22:59:10Z</time>
      </trkpt>
      <trkpt lat="35.911874800" lon="-106.484571900">
        <ele>2630.500</ele>
        <time>2019-07-14T22:59:11Z</time>
      </trkpt>
      <trkpt lat="35.911801120" lon="-106.484563370">
        <ele>2630.100</ele>
        <time>2019-07-14T22:59:12Z</time>
      </trkpt>
      <trkpt lat="35.911720740" lon="-106.484573420">
        <ele>2629.200</ele>
        <time>2019-07-14T22:59:13Z</time>
      </trkpt>
      <trkpt lat="35.911663790" lon="-106.484617340">
        <ele>2629.400</ele>
        <time>2019-07-14T22:59:14Z</time>
      </trkpt>
      <trkpt lat="35.911585000" lon="-106.484665590">
        <ele>2629.400</ele>
        <time>2019-07-14T22:59:15Z</time>
      </trkpt>
      <trkpt lat="35.911516310" lon="-106.484707410">
        <ele>2629.300</ele>
        <time>2019-07-14T22:59:16Z</time>
      </trkpt>
      <trkpt lat="35.911439440" lon="-106.484747050">
        <ele>2629.600</ele>
        <time>2019-07-14T22:59:17Z</time>
      </trkpt>
      <trkpt lat="35.911359630" lon="-106.484786190">
        <ele>2629.400</ele>
        <time>2019-07-14T22:59:18Z</time>
      </trkpt>
      <trkpt lat="35.911271950" lon="-106.484822260">
        <ele>2629.000</ele>
        <time>2019-07-14T22:59:19Z</time>
      </trkpt>
      <trkpt lat="35.911177740" lon="-106.484863850">
        <ele>2629.800</ele>
        <time>2019-07-14T22:59:20Z</time>
      </trkpt>
      <trkpt lat="35.911090180" lon="-106.484894480">
        <ele>2629.000</ele>
        <time>2019-07-14T22:59:21Z</time>
      </trkpt>
      <trkpt lat="35.911000460" lon="-106.484928150">
        <ele>2628.500</ele>
        <time>2019-07-14T22:59:22Z</time>
      </trkpt>
      <trkpt lat="35.910910580" lon="-106.484966630">
        <ele>2628.200</ele>
        <time>2019-07-14T22:59:23Z</time>
      </trkpt>
      <trkpt lat="35.910827620" lon="-106.484999620">
        <ele>2627.900</ele>
        <time>2019-07-14T22:59:24Z</time>
      </trkpt>
      <trkpt lat="35.910729330" lon="-106.485005750">
        <ele>2627.700</ele>
        <time>2019-07-14T22:59:25Z</time>
      </trkpt>
      <trkpt lat="35.910628240" lon="-106.485015710">
        <ele>2627.500</ele>
        <time>2019-07-14T22:59:26Z</time>
      </trkpt>
      <trkpt lat="35.910538790" lon="-106.485019350">
        <ele>2627.600</ele>
        <time>2019-07-14T22:59:27Z</time>
      </trkpt>
      <trkpt lat="35.910441510" lon="-106.485019960">
        <ele>2627.400</ele>
        <time>2019-07-14T22:59:28Z</time>
      </trkpt>
      <trkpt lat="35.910356520" lon="-106.485027820">
        <ele>2627.100</ele>
        <time>2019-07-14T22:59:29Z</time>
      </trkpt>
      <trkpt lat="35.910268160" lon="-106.485044270">
        <ele>2627.300</ele>
        <time>2019-07-14T22:59:30Z</time>
      </trkpt>
      <trkpt lat="35.910177370" lon="-106.485062150">
        <ele>2627.700</ele>
        <time>2019-07-14T22:59:31Z</time>
      </trkpt>
      <trkpt lat="35.910094230" lon="-106.485082760">
        <ele>2627.600</ele>
        <time>2019-07-14T22:59:32Z</time>
      </trkpt>
      <trkpt lat="35.910008940" lon="-106.485111450">
        <ele>2628.100</ele>
        <time>2019-07-14T22:59:33Z</time>
      </trkpt>
      <trkpt lat="35.909925690" lon="-106.485152530">
        <ele>2629.200</ele>
        <time>2019-07-14T22:59:34Z</time>
      </trkpt>
      <trkpt lat="35.909872870" lon="-106.485178680">
        <ele>2628.900</ele>
        <time>2019-07-14T22:59:35Z</time>
      </trkpt>
      <trkpt lat="35.909809690" lon="-106.485201370">
        <ele>2629.800</ele>
        <time>2019-07-14T22:59:36Z</time>
      </trkpt>
      <trkpt lat="35.909776890" lon="-106.485223250">
        <ele>2629.100</ele>
        <time>2019-07-14T22:59:38Z</time>
      </trkpt>
      <trkpt lat="35.909735160" lon="-106.485234180">
        <ele>2630.700</ele>
        <time>2019-07-14T22:59:40Z</time>
      </trkpt>
      <trkpt lat="35.909678250" lon="-106.485244190">
        <ele>2627.500</ele>
        <time>2019-07-14T22:59:43Z</time>
      </trkpt>
      <trkpt lat="35.909618030" lon="-106.485262730">
        <ele>2628.100</ele>
        <time>2019-07-14T22:59:45Z</time>
      </trkpt>
      <trkpt lat="35.909579610" lon="-106.485272510">
        <ele>2628.000</ele>
        <time>2019-07-14T22:59:46Z</time>
      </trkpt>
      <trkpt lat="35.909526000" lon="-106.485282980">
        <ele>2629.000</ele>
        <time>2019-07-14T22:59:47Z</time>
      </trkpt>
      <trkpt lat="35.909477900" lon="-106.485299220">
        <ele>2629.300</ele>
        <time>2019-07-14T22:59:48Z</time>
      </trkpt>
      <trkpt lat="35.909413360" lon="-106.485314390">
        <ele>2629.300</ele>
        <time>2019-07-14T22:59:49Z</time>
      </trkpt>
      <trkpt lat="35.909352340" lon="-106.485336060">
        <ele>2629.200</ele>
        <time>2019-07-14T22:59:50Z</time>
      </trkpt>
      <trkpt lat="35.909277260" lon="-106.485364540">
        <ele>2629.300</ele>
        <time>2019-07-14T22:59:51Z</time>
      </trkpt>
      <trkpt lat="35.909203840" lon="-106.485393980">
        <ele>2629.100</ele>
        <time>2019-07-14T22:59:52Z</time>
      </trkpt>
      <trkpt lat="35.909136180" lon="-106.485410980">
        <ele>2629.700</ele>
        <time>2019-07-14T22:59:53Z</time>
      </trkpt>
      <trkpt lat="35.909055890" lon="-106.485429980">
        <ele>2629.400</ele>
        <time>2019-07-14T22:59:54Z</time>
      </trkpt>
      <trkpt lat="35.908972470" lon="-106.485454030">
        <ele>2629.300</ele>
        <time>2019-07-14T22:59:55Z</time>
      </trkpt>
      <trkpt lat="35.908913640" lon="-106.485469650">
        <ele>2627.700</ele>
        <time>2019-07-14T22:59:56Z</time>
      </trkpt>
      <trkpt lat="35.908819630" lon="-106.485490870">
        <ele>2627.600</ele>
        <time>2019-07-14T22:59:57Z</time>
      </trkpt>
      <trkpt lat="35.908722100" lon="-106.485505080">
        <ele>2626.500</ele>
        <time>2019-07-14T22:59:58Z</time>
      </trkpt>
      <trkpt lat="35.908609690" lon="-106.485534420">
        <ele>2626.000</ele>
        <time>2019-07-14T22:59:59Z</time>
      </trkpt>
      <trkpt lat="35.908518310" lon="-106.485550980">
        <ele>2624.600</ele>
        <time>2019-07-14T23:00:00Z</time>
      </trkpt>
      <trkpt lat="35.908419980" lon="-106.485569470">
        <ele>2624.200</ele>
        <time>2019-07-14T23:00:01Z</time>
      </trkpt>
      <trkpt lat="35.908323810" lon="-106.485583360">
        <ele>2624.400</ele>
        <time>2019-07-14T23:00:02Z</time>
      </trkpt>
      <trkpt lat="35.908221360" lon="-106.485601900">
        <ele>2625.000</ele>
        <time>2019-07-14T23:00:03Z</time>
      </trkpt>
      <trkpt lat="35.908123480" lon="-106.485617370">
        <ele>2625.700</ele>
        <time>2019-07-14T23:00:04Z</time>
      </trkpt>
      <trkpt lat="35.908023070" lon="-106.485635020">
        <ele>2625.600</ele>
        <time>2019-07-14T23:00:05Z</time>
      </trkpt>
      <trkpt lat="35.907939190" lon="-106.485639410">
        <ele>2625.400</ele>
        <time>2019-07-14T23:00:06Z</time>
      </trkpt>
      <trkpt lat="35.907855790" lon="-106.485645000">
        <ele>2625.700</ele>
        <time>2019-07-14T23:00:07Z</time>
      </trkpt>
      <trkpt lat="35.907762300" lon="-106.485639410">
        <ele>2625.200</ele>
        <time>2019-07-14T23:00:08Z</time>
      </trkpt>
      <trkpt lat="35.907677100" lon="-106.485626960">
        <ele>2625.100</ele>
        <time>2019-07-14T23:00:09Z</time>
      </trkpt>
      <trkpt lat="35.907586420" lon="-106.485610750">
        <ele>2625.800</ele>
        <time>2019-07-14T23:00:10Z</time>
      </trkpt>
      <trkpt lat="35.907498940" lon="-106.485590120">
        <ele>2625.900</ele>
        <time>2019-07-14T23:00:11Z</time>
      </trkpt>
      <trkpt lat="35.907413190" lon="-106.485564780">
        <ele>2626.400</ele>
        <time>2019-07-14T23:00:12Z</time>
      </trkpt>
      <trkpt lat="35.907330620" lon="-106.485535750">
        <ele>2626.600</ele>
        <time>2019-07-14T23:00:13Z</time>
      </trkpt>
      <trkpt lat="35.907247680" lon="-106.485496860">
        <ele>2627.000</ele>
        <time>2019-07-14T23:00:14Z</time>
      </trkpt>
      <trkpt lat="35.907172630" lon="-106.485445790">
        <ele>2627.900</ele>
        <time>2019-07-14T23:00:15Z</time>
      </trkpt>
      <trkpt lat="35.907082310" lon="-106.485395090">
        <ele>2629.200</ele>
        <time>2019-07-14T23:00:16Z</time>
      </trkpt>
      <trkpt lat="35.906992630" lon="-106.485365680">
        <ele>2628.800</ele>
        <time>2019-07-14T23:00:17Z</time>
      </trkpt>
      <trkpt lat="35.906916520" lon="-106.485329430">
        <ele>2628.600</ele>
        <time>2019-07-14T23:00:18Z</time>
      </trkpt>
      <trkpt lat="35.906834330" lon="-106.485296300">
        <ele>2629.300</ele>
        <time>2019-07-14T23:00:19Z</time>
      </trkpt>
      <trkpt lat="35.906742240" lon="-106.485269910">
        <ele>2629.500</ele>
        <time>2019-07-14T23:00:20Z</time>
      </trkpt>
      <trkpt lat="35.906656260" lon="-106.485230270">
        <ele>2630.900</ele>
        <time>2019-07-14T23:00:21Z</time>
      </trkpt>
      <trkpt lat="35.906571820" lon="-106.485184230">
        <ele>2630.200</ele>
        <time>2019-07-14T23:00:22Z</time>
      </trkpt>
      <trkpt lat="35.906486770" lon="-106.485140820">
        <ele>2630.300</ele>
        <time>2019-07-14T23:00:23Z</time>
      </trkpt>
      <trkpt lat="35.906406360" lon="-106.485097020">
        <ele>2629.800</ele>
        <time>2019-07-14T23:00:24Z</time>
      </trkpt>
      <trkpt lat="35.906315900" lon="-106.485063090">
        <ele>2629.900</ele>
        <time>2019-07-14T23:00:25Z</time>
      </trkpt>
      <trkpt lat="35.906247140" lon="-106.485032050">
        <ele>2630.300</ele>
        <time>2019-07-14T23:00:26Z</time>
      </trkpt>
      <trkpt lat="35.906152800" lon="-106.485007340">
        <ele>2628.900</ele>
        <time>2019-07-14T23:00:27Z</time>
      </trkpt>
      <trkpt lat="35.906059350" lon="-106.484978770">
        <ele>2629.000</ele>
        <time>2019-07-14T23:00:28Z</time>
      </trkpt>
      <trkpt lat="35.905982170" lon="-106.484937240">
        <ele>2629.200</ele>
        <time>2019-07-14T23:00:29Z</time>
      </trkpt>
      <trkpt lat="35.905905460" lon="-106.484904270">
        <ele>2629.600</ele>
        <time>2019-07-14T23:00:30Z</time>
      </trkpt>
      <trkpt lat="35.905810660" lon="-106.484882680">
        <ele>2629.600</ele>
        <time>2019-07-14T23:00:31Z</time>
      </trkpt>
      <trkpt lat="35.905727100" lon="-106.484837370">
        <ele>2626.900</ele>
        <time>2019-07-14T23:00:32Z</time>
      </trkpt>
      <trkpt lat="35.905651700" lon="-106.484796960">
        <ele>2626.700</ele>
        <time>2019-07-14T23:00:33Z</time>
      </trkpt>
      <trkpt lat="35.905560580" lon="-106.484771770">
        <ele>2625.800</ele>
        <time>2019-07-14T23:00:34Z</time>
      </trkpt>
      <trkpt lat="35.905474860" lon="-106.484732930">
        <ele>2625.200</ele>
        <time>2019-07-14T23:00:35Z</time>
      </trkpt>
      <trkpt lat="35.905396550" lon="-106.484715470">
        <ele>2626.500</ele>
        <time>2019-07-14T23:00:36Z</time>
      </trkpt>
      <trkpt lat="35.905313780" lon="-106.484688330">
        <ele>2626.000</ele>
        <time>2019-07-14T23:00:37Z</time>
      </trkpt>
      <trkpt lat="35.905219180" lon="-106.484652930">
        <ele>2622.800</ele>
        <time>2019-07-14T23:00:38Z</time>
      </trkpt>
      <trkpt lat="35.905134630" lon="-106.484623920">
        <ele>2622.500</ele>
        <time>2019-07-14T23:00:39Z</time>
      </trkpt>
      <trkpt lat="35.905055330" lon="-106.484586960">
        <ele>2622.600</ele>
        <time>2019-07-14T23:00:40Z</time>
      </trkpt>
      <trkpt lat="35.904966230" lon="-106.484564730">
        <ele>2622.100</ele>
        <time>2019-07-14T23:00:41Z</time>
      </trkpt>
      <trkpt lat="35.904882450" lon="-106.484540170">
        <ele>2622.500</ele>
        <time>2019-07-14T23:00:42Z</time>
      </trkpt>
      <trkpt lat="35.904799900" lon="-106.484525560">
        <ele>2622.200</ele>
        <time>2019-07-14T23:00:43Z</time>
      </trkpt>
      <trkpt lat="35.904708640" lon="-106.484524940">
        <ele>2622.100</ele>
        <time>2019-07-14T23:00:44Z</time>
      </trkpt>
      <trkpt lat="35.904621010" lon="-106.484531080">
        <ele>2624.200</ele>
        <time>2019-07-14T23:00:45Z</time>
      </trkpt>
      <trkpt lat="35.904538080" lon="-106.484541150">
        <ele>2624.200</ele>
        <time>2019-07-14T23:00:46Z</time>
      </trkpt>
      <trkpt lat="35.904462430" lon="-106.484561690">
        <ele>2625.400</ele>
        <time>2019-07-14T23:00:47Z</time>
      </trkpt>
      <trkpt lat="35.904379330" lon="-106.484566290">
        <ele>2625.200</ele>
        <time>2019-07-14T23:00:48Z</time>
      </trkpt>
      <trkpt lat="35.904290450" lon="-106.484580370">
        <ele>2623.500</ele>
        <time>2019-07-14T23:00:49Z</time>
      </trkpt>
      <trkpt lat="35.904223810" lon="-106.484583380">
        <ele>2624.400</ele>
        <time>2019-07-14T23:00:50Z</time>
      </trkpt>
      <trkpt lat="35.904146470" lon="-106.484592450">
        <ele>2624.100</ele>
        <time>2019-07-14T23:00:51Z</time>
      </trkpt>
      <trkpt lat="35.904062820" lon="-106.484607530">
        <ele>2623.700</ele>
        <time>2019-07-14T23:00:52Z</time>
      </trkpt>
      <trkpt lat="35.903972920" lon="-106.484622760">
        <ele>2623.100</ele>
        <time>2019-07-14T23:00:53Z</time>
      </trkpt>
      <trkpt lat="35.903887390" lon="-106.484642820">
        <ele>2622.900</ele>
        <time>2019-07-14T23:00:54Z</time>
      </trkpt>
      <trkpt lat="35.903800970" lon="-106.484661820">
        <ele>2622.900</ele>
        <time>2019-07-14T23:00:55Z</time>
      </trkpt>
      <trkpt lat="35.903705070" lon="-106.484674540">
        <ele>2622.100</ele>
        <time>2019-07-14T23:00:56Z</time>
      </trkpt>
      <trkpt lat="35.903608860" lon="-106.484692520">
        <ele>2622.800</ele>
        <time>2019-07-14T23:00:57Z</time>
      </trkpt>
      <trkpt lat="35.903516050" lon="-106.484705450">
        <ele>2621.400</ele>
        <time>2019-07-14T23:00:58Z</time>
      </trkpt>
      <trkpt lat="35.903418630" lon="-106.484721110">
        <ele>2621.000</ele>
        <time>2019-07-14T23:00:59Z</time>
      </trkpt>
      <trkpt lat="35.903315270" lon="-106.484740340">
        <ele>2621.200</ele>
        <time>2019-07-14T23:01:00Z</time>
      </trkpt>
      <trkpt lat="35.903220550" lon="-106.484743430">
        <ele>2620.700</ele>
        <time>2019-07-14T23:01:01Z</time>
      </trkpt>
      <trkpt lat="35.903131310" lon="-106.484765140">
        <ele>2620.000</ele>
        <time>2019-07-14T23:01:02Z</time>
      </trkpt>
      <trkpt lat="35.903031960" lon="-106.484783420">
        <ele>2620.100</ele>
        <time>2019-07-14T23:01:03Z</time>
      </trkpt>
      <trkpt lat="35.902932220" lon="-106.484799440">
        <ele>2620.000</ele>
        <time>2019-07-14T23:01:04Z</time>
      </trkpt>
      <trkpt lat="35.902841690" lon="-106.484821650">
        <ele>2619.100</ele>
        <time>2019-07-14T23:01:05Z</time>
      </trkpt>
      <trkpt lat="35.902742690" lon="-106.484837170">
        <ele>2618.500</ele>
        <time>2019-07-14T23:01:06Z</time>
      </trkpt>
      <trkpt lat="35.902652660" lon="-106.484854800">
        <ele>2619.000</ele>
        <time>2019-07-14T23:01:07Z</time>
      </trkpt>
      <trkpt lat="35.902560880" lon="-106.484866980">
        <ele>2620.200</ele>
        <time>2019-07-14T23:01:08Z</time>
      </trkpt>
      <trkpt lat="35.902470960" lon="-106.484883650">
        <ele>2620.300</ele>
        <time>2019-07-14T23:01:09Z</time>
      </trkpt>
      <trkpt lat="35.902371170" lon="-106.484894100">
        <ele>2619.000</ele>
        <time>2019-07-14T23:01:10Z</time>
      </trkpt>
      <trkpt lat="35.902279390" lon="-106.484913360">
        <ele>2619.600</ele>
        <time>2019-07-14T23:01:11Z</time>
      </trkpt>
      <trkpt lat="35.902190510" lon="-106.484933420">
        <ele>2619.500</ele>
        <time>2019-07-14T23:01:12Z</time>
      </trkpt>
      <trkpt lat="35.902102520" lon="-106.484964510">
        <ele>2619.900</ele>
        <time>2019-07-14T23:01:13Z</time>
      </trkpt>
      <trkpt lat="35.902024350" lon="-106.485018020">
        <ele>2620.200</ele>
        <time>2019-07-14T23:01:14Z</time>
      </trkpt>
      <trkpt lat="35.901946120" lon="-106.485072380">
        <ele>2619.200</ele>
        <time>2019-07-14T23:01:15Z</time>
      </trkpt>
      <trkpt lat="35.901871740" lon="-106.485142420">
        <ele>2618.900</ele>
        <time>2019-07-14T23:01:16Z</time>
      </trkpt>
      <trkpt lat="35.901813110" lon="-106.485225750">
        <ele>2618.400</ele>
        <time>2019-07-14T23:01:17Z</time>
      </trkpt>
      <trkpt lat="35.901772750" lon="-106.485315780">
        <ele>2618.700</ele>
        <time>2019-07-14T23:01:18Z</time>
      </trkpt>
      <trkpt lat="35.901739510" lon="-106.485395230">
        <ele>2617.300</ele>
        <time>2019-07-14T23:01:19Z</time>
      </trkpt>
      <trkpt lat="35.901710380" lon="-106.485465730">
        <ele>2618.000</ele>
        <time>2019-07-14T23:01:20Z</time>
      </trkpt>
      <trkpt lat="35.901681510" lon="-106.485525700">
        <ele>2617.600</ele>
        <time>2019-07-14T23:01:21Z</time>
      </trkpt>
      <trkpt lat="35.901652260" lon="-106.485567870">
        <ele>2617.800</ele>
        <time>2019-07-14T23:01:22Z</time>
      </trkpt>
      <trkpt lat="35.901631960" lon="-106.485622060">
        <ele>2619.300</ele>
        <time>2019-07-14T23:01:23Z</time>
      </trkpt>
      <trkpt lat="35.901599990" lon="-106.485655660">
        <ele>2618.100</ele>
        <time>2019-07-14T23:01:24Z</time>
      </trkpt>
      <trkpt lat="35.901573930" lon="-106.485707770">
        <ele>2618.700</ele>
        <time>2019-07-14T23:01:25Z</time>
      </trkpt>
      <trkpt lat="35.901541710" lon="-106.485747920">
        <ele>2618.500</ele>
        <time>2019-07-14T23:01:26Z</time>
      </trkpt>
      <trkpt lat="35.901509530" lon="-106.485790680">
        <ele>2619.000</ele>
        <time>2019-07-14T23:01:27Z</time>
      </trkpt>
      <trkpt lat="35.901478650" lon="-106.485837760">
        <ele>2620.000</ele>
        <time>2019-07-14T23:01:28Z</time>
      </trkpt>
      <trkpt lat="35.901447040" lon="-106.485876170">
        <ele>2620.100</ele>
        <time>2019-07-14T23:01:29Z</time>
      </trkpt>
      <trkpt lat="35.901412110" lon="-106.485915150">
        <ele>2620.400</ele>
        <time>2019-07-14T23:01:30Z</time>
      </trkpt>
      <trkpt lat="35.901373580" lon="-106.485952570">
        <ele>2620.000</ele>
        <time>2019-07-14T23:01:31Z</time>
      </trkpt>
      <trkpt lat="35.901325450" lon="-106.485986590">
        <ele>2619.900</ele>
        <time>2019-07-14T23:01:32Z</time>
      </trkpt>
      <trkpt lat="35.901294250" lon="-106.486026390">
        <ele>2620.100</ele>
        <time>2019-07-14T23:01:33Z</time>
      </trkpt>
      <trkpt lat="35.901248780" lon="-106.486061000">
        <ele>2620.100</ele>
        <time>2019-07-14T23:01:34Z</time>
      </trkpt>
      <trkpt lat="35.901203610" lon="-106.486098400">
        <ele>2620.000</ele>
        <time>2019-07-14T23:01:35Z</time>
      </trkpt>
      <trkpt lat="35.901159440" lon="-106.486123390">
        <ele>2620.000</ele>
        <time>2019-07-14T23:01:36Z</time>
      </trkpt>
      <trkpt lat="35.901123010" lon="-106.486146610">
        <ele>2620.200</ele>
        <time>2019-07-14T23:01:37Z</time>
      </trkpt>
      <trkpt lat="35.901082750" lon="-106.486161690">
        <ele>2620.600</ele>
        <time>2019-07-14T23:01:38Z</time>
      </trkpt>
      <trkpt lat="35.901039860" lon="-106.486171690">
        <ele>2620.200</ele>
        <time>2019-07-14T23:01:39Z</time>
      </trkpt>
      <trkpt lat="35.900994550" lon="-106.486181400">
        <ele>2620.700</ele>
        <time>2019-07-14T23:01:40Z</time>
      </trkpt>
      <trkpt lat="35.900937250" lon="-106.486169680">
        <ele>2618.000</ele>
        <time>2019-07-14T23:01:41Z</time>
      </trkpt>
      <trkpt lat="35.900897030" lon="-106.486171410">
        <ele>2618.200</ele>
        <time>2019-07-14T23:01:42Z</time>
      </trkpt>
      <trkpt lat="35.900847270" lon="-106.486178680">
        <ele>2618.800</ele>
        <time>2019-07-14T23:01:43Z</time>
      </trkpt>
      <trkpt lat="35.900799740" lon="-106.486185820">
        <ele>2619.200</ele>
        <time>2019-07-14T23:01:44Z</time>
      </trkpt>
      <trkpt lat="35.900744060" lon="-106.486196300">
        <ele>2619.200</ele>
        <time>2019-07-14T23:01:45Z</time>
      </trkpt>
      <trkpt lat="35.900690790" lon="-106.486204290">
        <ele>2619.000</ele>
        <time>2019-07-14T23:01:46Z</time>
      </trkpt>
      <trkpt lat="35.900637400" lon="-106.486216980">
        <ele>2621.000</ele>
        <time>2019-07-14T23:01:47Z</time>
      </trkpt>
      <trkpt lat="35.900584520" lon="-106.486229570">
        <ele>2621.300</ele>
        <time>2019-07-14T23:01:48Z</time>
      </trkpt>
      <trkpt lat="35.900527340" lon="-106.486235630">
        <ele>2621.600</ele>
        <time>2019-07-14T23:01:49Z</time>
      </trkpt>
      <trkpt lat="35.900465280" lon="-106.486264890">
        <ele>2620.800</ele>
        <time>2019-07-14T23:01:50Z</time>
      </trkpt>
      <trkpt lat="35.900402960" lon="-106.486302430">
        <ele>2621.700</ele>
        <time>2019-07-14T23:01:51Z</time>
      </trkpt>
      <trkpt lat="35.900357900" lon="-106.486316060">
        <ele>2621.600</ele>
        <time>2019-07-14T23:01:52Z</time>
      </trkpt>
      <trkpt lat="35.900304720" lon="-106.486327220">
        <ele>2621.500</ele>
        <time>2019-07-14T23:01:53Z</time>
      </trkpt>
      <trkpt lat="35.900257170" lon="-106.486337220">
        <ele>2621.900</ele>
        <time>2019-07-14T23:01:54Z</time>
      </trkpt>
      <trkpt lat="35.900194860" lon="-106.486354160">
        <ele>2622.000</ele>
        <time>2019-07-14T23:01:55Z</time>
      </trkpt>
      <trkpt lat="35.900140730" lon="-106.486354630">
        <ele>2620.300</ele>
        <time>2019-07-14T23:01:56Z</time>
      </trkpt>
      <trkpt lat="35.900077250" lon="-106.486371300">
        <ele>2620.900</ele>
        <time>2019-07-14T23:01:57Z</time>
      </trkpt>
      <trkpt lat="35.900001910" lon="-106.486379990">
        <ele>2620.700</ele>
        <time>2019-07-14T23:01:58Z</time>
      </trkpt>
      <trkpt lat="35.899933570" lon="-106.486397860">
        <ele>2620.100</ele>
        <time>2019-07-14T23:01:59Z</time>
      </trkpt>
      <trkpt lat="35.899852260" lon="-106.486428150">
        <ele>2621.000</ele>
        <time>2019-07-14T23:02:00Z</time>
      </trkpt>
      <trkpt lat="35.899786310" lon="-106.486439350">
        <ele>2620.800</ele>
        <time>2019-07-14T23:02:01Z</time>
      </trkpt>
      <trkpt lat="35.899722250" lon="-106.486447580">
        <ele>2621.000</ele>
        <time>2019-07-14T23:02:02Z</time>
      </trkpt>
      <trkpt lat="35.899666450" lon="-106.486441220">
        <ele>2620.800</ele>
        <time>2019-07-14T23:02:03Z</time>
      </trkpt>
      <trkpt lat="35.899599050" lon="-106.486451680">
        <ele>2621.700</ele>
        <time>2019-07-14T23:02:04Z</time>
      </trkpt>
      <trkpt lat="35.899533740" lon="-106.486452260">
        <ele>2621.600</ele>
        <time>2019-07-14T23:02:05Z</time>
      </trkpt>
      <trkpt lat="35.899481630" lon="-106.486459860">
        <ele>2623.600</ele>
        <time>2019-07-14T23:02:06Z</time>
      </trkpt>
      <trkpt lat="35.899403850" lon="-106.486471100">
        <ele>2624.700</ele>
        <time>2019-07-14T23:02:07Z</time>
      </trkpt>
      <trkpt lat="35.899333160" lon="-106.486470150">
        <ele>2624.600</ele>
        <time>2019-07-14T23:02:08Z</time>
      </trkpt>
      <trkpt lat="35.899261270" lon="-106.486475210">
        <ele>2625.400</ele>
        <time>2019-07-14T23:02:09Z</time>
      </trkpt>
      <trkpt lat="35.899170540" lon="-106.486477580">
        <ele>2624.300</ele>
        <time>2019-07-14T23:02:10Z</time>
      </trkpt>
      <trkpt lat="35.899095640" lon="-106.486481620">
        <ele>2624.300</ele>
        <time>2019-07-14T23:02:11Z</time>
      </trkpt>
      <trkpt lat="35.899008810" lon="-106.486485690">
        <ele>2623.400</ele>
        <time>2019-07-14T23:02:12Z</time>
      </trkpt>
      <trkpt lat="35.898924940" lon="-106.486495550">
        <ele>2621.600</ele>
        <time>2019-07-14T23:02:13Z</time>
      </trkpt>
      <trkpt lat="35.898851880" lon="-106.486516690">
        <ele>2622.000</ele>
        <time>2019-07-14T23:02:14Z</time>
      </trkpt>
      <trkpt lat="35.898770620" lon="-106.486552360">
        <ele>2622.800</ele>
        <time>2019-07-14T23:02:15Z</time>
      </trkpt>
      <trkpt lat="35.898689580" lon="-106.486577840">
        <ele>2623.600</ele>
        <time>2019-07-14T23:02:16Z</time>
      </trkpt>
      <trkpt lat="35.898622130" lon="-106.486614720">
        <ele>2624.000</ele>
        <time>2019-07-14T23:02:17Z</time>
      </trkpt>
      <trkpt lat="35.898547590" lon="-106.486646650">
        <ele>2624.200</ele>
        <time>2019-07-14T23:02:18Z</time>
      </trkpt>
      <trkpt lat="35.898456260" lon="-106.486717100">
        <ele>2624.100</ele>
        <time>2019-07-14T23:02:19Z</time>
      </trkpt>
      <trkpt lat="35.898389910" lon="-106.486794800">
        <ele>2624.800</ele>
        <time>2019-07-14T23:02:20Z</time>
      </trkpt>
      <trkpt lat="35.898331720" lon="-106.486861360">
        <ele>2624.500</ele>
        <time>2019-07-14T23:02:21Z</time>
      </trkpt>
      <trkpt lat="35.898245510" lon="-106.486926430">
        <ele>2623.600</ele>
        <time>2019-07-14T23:02:22Z</time>
      </trkpt>
      <trkpt lat="35.898156260" lon="-106.486983990">
        <ele>2623.600</ele>
        <time>2019-07-14T23:02:23Z</time>
      </trkpt>
      <trkpt lat="35.898090990" lon="-106.487035870">
        <ele>2622.300</ele>
        <time>2019-07-14T23:02:24Z</time>
      </trkpt>
      <trkpt lat="35.898020450" lon="-106.487089920">
        <ele>2621.400</ele>
        <time>2019-07-14T23:02:25Z</time>
      </trkpt>
      <trkpt lat="35.897935730" lon="-106.487140040">
        <ele>2620.900</ele>
        <time>2019-07-14T23:02:26Z</time>
      </trkpt>
      <trkpt lat="35.897861360" lon="-106.487184970">
        <ele>2621.100</ele>
        <time>2019-07-14T23:02:27Z</time>
      </trkpt>
      <trkpt lat="35.897782850" lon="-106.487236640">
        <ele>2621.200</ele>
        <time>2019-07-14T23:02:28Z</time>
      </trkpt>
      <trkpt lat="35.897703410" lon="-106.487271590">
        <ele>2620.700</ele>
        <time>2019-07-14T23:02:29Z</time>
      </trkpt>
      <trkpt lat="35.897631890" lon="-106.487311700">
        <ele>2621.300</ele>
        <time>2019-07-14T23:02:30Z</time>
      </trkpt>
      <trkpt lat="35.897556760" lon="-106.487342970">
        <ele>2621.500</ele>
        <time>2019-07-14T23:02:31Z</time>
      </trkpt>
      <trkpt lat="35.897478300" lon="-106.487375940">
        <ele>2623.100</ele>
        <time>2019-07-14T23:02:32Z</time>
      </trkpt>
      <trkpt lat="35.897363830" lon="-106.487455080">
        <ele>2623.400</ele>
        <time>2019-07-14T23:02:33Z</time>
      </trkpt>
      <trkpt lat="35.897258360" lon="-106.487485240">
        <ele>2622.100</ele>
        <time>2019-07-14T23:02:34Z</time>
      </trkpt>
      <trkpt lat="35.897167610" lon="-106.487539310">
        <ele>2622.000</ele>
        <time>2019-07-14T23:02:35Z</time>
      </trkpt>
      <trkpt lat="35.897066370" lon="-106.487593260">
        <ele>2620.600</ele>
        <time>2019-07-14T23:02:36Z</time>
      </trkpt>
      <trkpt lat="35.896977050" lon="-106.487650240">
        <ele>2621.100</ele>
        <time>2019-07-14T23:02:37Z</time>
      </trkpt>
      <trkpt lat="35.896887260" lon="-106.487710910">
        <ele>2621.900</ele>
        <time>2019-07-14T23:02:38Z</time>
      </trkpt>
      <trkpt lat="35.896793960" lon="-106.487774420">
        <ele>2622.300</ele>
        <time>2019-07-14T23:02:39Z</time>
      </trkpt>
      <trkpt lat="35.896693070" lon="-106.487822800">
        <ele>2621.400</ele>
        <time>2019-07-14T23:02:40Z</time>
      </trkpt>
      <trkpt lat="35.896589990" lon="-106.487888040">
        <ele>2620.700</ele>
        <time>2019-07-14T23:02:41Z</time>
      </trkpt>
      <trkpt lat="35.896520970" lon="-106.487919400">
        <ele>2622.100</ele>
        <time>2019-07-14T23:02:42Z</time>
      </trkpt>
      <trkpt lat="35.896433060" lon="-106.487975220">
        <ele>2622.500</ele>
        <time>2019-07-14T23:02:43Z</time>
      </trkpt>
      <trkpt lat="35.896337880" lon="-106.488041100">
        <ele>2622.500</ele>
        <time>2019-07-14T23:02:44Z</time>
      </trkpt>
      <trkpt lat="35.896245170" lon="-106.488081930">
        <ele>2622.200</ele>
        <time>2019-07-14T23:02:45Z</time>
      </trkpt>
      <trkpt lat="35.896156380" lon="-106.488126910">
        <ele>2623.300</ele>
        <time>2019-07-14T23:02:46Z</time>
      </trkpt>
      <trkpt lat="35.896078890" lon="-106.488154350">
        <ele>2622.600</ele>
        <time>2019-07-14T23:02:47Z</time>
      </trkpt>
      <trkpt lat="35.896002340" lon="-106.488213040">
        <ele>2621.300</ele>
        <time>2019-07-14T23:02:48Z</time>
      </trkpt>
      <trkpt lat="35.895916530" lon="-106.488255130">
        <ele>2621.800</ele>
        <time>2019-07-14T23:02:49Z</time>
      </trkpt>
      <trkpt lat="35.895826240" lon="-106.488322580">
        <ele>2620.600</ele>
        <time>2019-07-14T23:02:50Z</time>
      </trkpt>
      <trkpt lat="35.895746180" lon="-106.488370760">
        <ele>2620.600</ele>
        <time>2019-07-14T23:02:51Z</time>
      </trkpt>
      <trkpt lat="35.895678810" lon="-106.488401700">
        <ele>2620.300</ele>
        <time>2019-07-14T23:02:52Z</time>
      </trkpt>
      <trkpt lat="35.895579410" lon="-106.488464590">
        <ele>2621.000</ele>
        <time>2019-07-14T23:02:53Z</time>
      </trkpt>
      <trkpt lat="35.895480590" lon="-106.488497270">
        <ele>2619.900</ele>
        <time>2019-07-14T23:02:54Z</time>
      </trkpt>
      <trkpt lat="35.895385840" lon="-106.488534450">
        <ele>2619.400</ele>
        <time>2019-07-14T23:02:55Z</time>
      </trkpt>
      <trkpt lat="35.895305950" lon="-106.488572470">
        <ele>2618.600</ele>
        <time>2019-07-14T23:02:56Z</time>
      </trkpt>
      <trkpt lat="35.895222540" lon="-106.488613500">
        <ele>2619.000</ele>
        <time>2019-07-14T23:02:57Z</time>
      </trkpt>
      <trkpt lat="35.895129630" lon="-106.488658710">
        <ele>2618.100</ele>
        <time>2019-07-14T23:02:58Z</time>
      </trkpt>
      <trkpt lat="35.895037370" lon="-106.488699830">
        <ele>2617.800</ele>
        <time>2019-07-14T23:02:59Z</time>
      </trkpt>
      <trkpt lat="35.894952180" lon="-106.488742050">
        <ele>2618.800</ele>
        <time>2019-07-14T23:03:00Z</time>
      </trkpt>
      <trkpt lat="35.894858320" lon="-106.488784480">
        <ele>2618.200</ele>
        <time>2019-07-14T23:03:01Z</time>
      </trkpt>
      <trkpt lat="35.894768260" lon="-106.488829030">
        <ele>2618.200</ele>
        <time>2019-07-14T23:03:02Z</time>
      </trkpt>
      <trkpt lat="35.894678220" lon="-106.488870320">
        <ele>2617.500</ele>
        <time>2019-07-14T23:03:03Z</time>
      </trkpt>
      <trkpt lat="35.894585430" lon="-106.488908730">
        <ele>2617.600</ele>
        <time>2019-07-14T23:03:04Z</time>
      </trkpt>
      <trkpt lat="35.894501810" lon="-106.488943550">
        <ele>2618.300</ele>
        <time>2019-07-14T23:03:05Z</time>
      </trkpt>
      <trkpt lat="35.894410190" lon="-106.488969470">
        <ele>2617.000</ele>
        <time>2019-07-14T23:03:06Z</time>
      </trkpt>
      <trkpt lat="35.894326630" lon="-106.488991400">
        <ele>2617.500</ele>
        <time>2019-07-14T23:03:07Z</time>
      </trkpt>
      <trkpt lat="35.894256490" lon="-106.489011680">
        <ele>2617.900</ele>
        <time>2019-07-14T23:03:08Z</time>
      </trkpt>
      <trkpt lat="35.894197420" lon="-106.489025780">
        <ele>2618.700</ele>
        <time>2019-07-14T23:03:09Z</time>
      </trkpt>
      <trkpt lat="35.894122070" lon="-106.489047260">
        <ele>2620.000</ele>
        <time>2019-07-14T23:03:11Z</time>
      </trkpt>
      <trkpt lat="35.894079040" lon="-106.489053600">
        <ele>2619.500</ele>
        <time>2019-07-14T23:03:12Z</time>
      </trkpt>
      <trkpt lat="35.894036120" lon="-106.489057730">
        <ele>2619.700</ele>
        <time>2019-07-14T23:03:13Z</time>
      </trkpt>
      <trkpt lat="35.893996140" lon="-106.489064610">
        <ele>2620.800</ele>
        <time>2019-07-14T23:03:14Z</time>
      </trkpt>
      <trkpt lat="35.893954520" lon="-106.489068560">
        <ele>2620.600</ele>
        <time>2019-07-14T23:03:15Z</time>
      </trkpt>
      <trkpt lat="35.893907740" lon="-106.489075330">
        <ele>2620.800</ele>
        <time>2019-07-14T23:03:16Z</time>
      </trkpt>
      <trkpt lat="35.893864030" lon="-106.489068780">
        <ele>2618.600</ele>
        <time>2019-07-14T23:03:17Z</time>
      </trkpt>
      <trkpt lat="35.893808410" lon="-106.489074960">
        <ele>2619.400</ele>
        <time>2019-07-14T23:03:18Z</time>
      </trkpt>
      <trkpt lat="35.893740870" lon="-106.489085650">
        <ele>2619.300</ele>
        <time>2019-07-14T23:03:19Z</time>
      </trkpt>
      <trkpt lat="35.893671570" lon="-106.489096970">
        <ele>2619.300</ele>
        <time>2019-07-14T23:03:20Z</time>
      </trkpt>
      <trkpt lat="35.893597660" lon="-106.489114010">
        <ele>2619.000</ele>
        <time>2019-07-14T23:03:21Z</time>
      </trkpt>
      <trkpt lat="35.893516640" lon="-106.489122130">
        <ele>2618.000</ele>
        <time>2019-07-14T23:03:22Z</time>
      </trkpt>
      <trkpt lat="35.893429290" lon="-106.489135770">
        <ele>2617.200</ele>
        <time>2019-07-14T23:03:23Z</time>
      </trkpt>
      <trkpt lat="35.893339400" lon="-106.489155900">
        <ele>2617.400</ele>
        <time>2019-07-14T23:03:24Z</time>
      </trkpt>
      <trkpt lat="35.893249770" lon="-106.489174740">
        <ele>2617.500</ele>
        <time>2019-07-14T23:03:25Z</time>
      </trkpt>
      <trkpt lat="35.893152010" lon="-106.489193410">
        <ele>2616.300</ele>
        <time>2019-07-14T23:03:26Z</time>
      </trkpt>
      <trkpt lat="35.893061910" lon="-106.489205810">
        <ele>2617.100</ele>
        <time>2019-07-14T23:03:27Z</time>
      </trkpt>
      <trkpt lat="35.892960030" lon="-106.489222970">
        <ele>2617.000</ele>
        <time>2019-07-14T23:03:28Z</time>
      </trkpt>
      <trkpt lat="35.892871070" lon="-106.489242170">
        <ele>2618.000</ele>
        <time>2019-07-14T23:03:29Z</time>
      </trkpt>
      <trkpt lat="35.892779500" lon="-106.489260080">
        <ele>2618.600</ele>
        <time>2019-07-14T23:03:30Z</time>
      </trkpt>
      <trkpt lat="35.892686090" lon="-106.489273090">
        <ele>2618.500</ele>
        <time>2019-07-14T23:03:31Z</time>
      </trkpt>
      <trkpt lat="35.892594950" lon="-106.489286540">
        <ele>2618.900</ele>
        <time>2019-07-14T23:03:32Z</time>
      </trkpt>
      <trkpt lat="35.892502330" lon="-106.489304780">
        <ele>2619.200</ele>
        <time>2019-07-14T23:03:33Z</time>
      </trkpt>
      <trkpt lat="35.892406210" lon="-106.489316370">
        <ele>2619.000</ele>
        <time>2019-07-14T23:03:34Z</time>
      </trkpt>
      <trkpt lat="35.892314700" lon="-106.489328690">
        <ele>2619.100</ele>
        <time>2019-07-14T23:03:35Z</time>
      </trkpt>
      <trkpt lat="35.892218280" lon="-106.489340180">
        <ele>2619.000</ele>
        <time>2019-07-14T23:03:36Z</time>
      </trkpt>
      <trkpt lat="35.892122480" lon="-106.489360480">
        <ele>2618.900</ele>
        <time>2019-07-14T23:03:37Z</time>
      </trkpt>
      <trkpt lat="35.892024840" lon="-106.489379250">
        <ele>2618.900</ele>
        <time>2019-07-14T23:03:38Z</time>
      </trkpt>
      <trkpt lat="35.891926400" lon="-106.489396190">
        <ele>2618.900</ele>
        <time>2019-07-14T23:03:39Z</time>
      </trkpt>
      <trkpt lat="35.891822550" lon="-106.489425940">
        <ele>2619.300</ele>
        <time>2019-07-14T23:03:40Z</time>
      </trkpt>
      <trkpt lat="35.891724230" lon="-106.489439290">
        <ele>2620.200</ele>
        <time>2019-07-14T23:03:41Z</time>
      </trkpt>
      <trkpt lat="35.891627140" lon="-106.489445380">
        <ele>2619.700</ele>
        <time>2019-07-14T23:03:42Z</time>
      </trkpt>
      <trkpt lat="35.891521510" lon="-106.489466560">
        <ele>2618.000</ele>
        <time>2019-07-14T23:03:43Z</time>
      </trkpt>
      <trkpt lat="35.891404550" lon="-106.489502510">
        <ele>2617.200</ele>
        <time>2019-07-14T23:03:44Z</time>
      </trkpt>
      <trkpt lat="35.891289120" lon="-106.489528080">
        <ele>2614.000</ele>
        <time>2019-07-14T23:03:45Z</time>
      </trkpt>
      <trkpt lat="35.891191660" lon="-106.489547060">
        <ele>2614.400</ele>
        <time>2019-07-14T23:03:46Z</time>
      </trkpt>
      <trkpt lat="35.891084360" lon="-106.489576510">
        <ele>2615.400</ele>
        <time>2019-07-14T23:03:47Z</time>
      </trkpt>
      <trkpt lat="35.890975870" lon="-106.489610100">
        <ele>2615.500</ele>
        <time>2019-07-14T23:03:48Z</time>
      </trkpt>
      <trkpt lat="35.890872360" lon="-106.489629350">
        <ele>2614.300</ele>
        <time>2019-07-14T23:03:49Z</time>
      </trkpt>
      <trkpt lat="35.890766060" lon="-106.489661070">
        <ele>2615.900</ele>
        <time>2019-07-14T23:03:50Z</time>
      </trkpt>
      <trkpt lat="35.890661260" lon="-106.489684530">
        <ele>2616.200</ele>
        <time>2019-07-14T23:03:51Z</time>
      </trkpt>
      <trkpt lat="35.890549060" lon="-106.489719230">
        <ele>2615.000</ele>
        <time>2019-07-14T23:03:52Z</time>
      </trkpt>
      <trkpt lat="35.890437070" lon="-106.489745760">
        <ele>2613.300</ele>
        <time>2019-07-14T23:03:53Z</time>
      </trkpt>
      <trkpt lat="35.890330690" lon="-106.489768000">
        <ele>2613.400</ele>
        <time>2019-07-14T23:03:54Z</time>
      </trkpt>
      <trkpt lat="35.890231000" lon="-106.489791060">
        <ele>2612.900</ele>
        <time>2019-07-14T23:03:55Z</time>
      </trkpt>
      <trkpt lat="35.890146530" lon="-106.489809570">
        <ele>2612.200</ele>
        <time>2019-07-14T23:03:56Z</time>
      </trkpt>
      <trkpt lat="35.890063250" lon="-106.489835290">
        <ele>2612.600</ele>
        <time>2019-07-14T23:03:57Z</time>
      </trkpt>
      <trkpt lat="35.889989000" lon="-106.489857460">
        <ele>2610.800</ele>
        <time>2019-07-14T23:03:58Z</time>
      </trkpt>
      <trkpt lat="35.889917540" lon="-106.489883140">
        <ele>2610.600</ele>
        <time>2019-07-14T23:03:59Z</time>
      </trkpt>
      <trkpt lat="35.889848340" lon="-106.489922910">
        <ele>2610.200</ele>
        <time>2019-07-14T23:04:00Z</time>
      </trkpt>
      <trkpt lat="35.889770300" lon="-106.489957060">
        <ele>2609.900</ele>
        <time>2019-07-14T23:04:01Z</time>
      </trkpt>
      <trkpt lat="35.889698160" lon="-106.489990360">
        <ele>2609.400</ele>
        <time>2019-07-14T23:04:02Z</time>
      </trkpt>
      <trkpt lat="35.889628600" lon="-106.490025560">
        <ele>2609.200</ele>
        <time>2019-07-14T23:04:03Z</time>
      </trkpt>
      <trkpt lat="35.889565010" lon="-106.490054290">
        <ele>2608.000</ele>
        <time>2019-07-14T23:04:04Z</time>
      </trkpt>
      <trkpt lat="35.889508260" lon="-106.490083510">
        <ele>2607.700</ele>
        <time>2019-07-14T23:04:05Z</time>
      </trkpt>
      <trkpt lat="35.889452330" lon="-106.490126110">
        <ele>2608.000</ele>
        <time>2019-07-14T23:04:06Z</time>
      </trkpt>
      <trkpt lat="35.889399960" lon="-106.490169790">
        <ele>2607.900</ele>
        <time>2019-07-14T23:04:07Z</time>
      </trkpt>
      <trkpt lat="35.889362040" lon="-106.490229800">
        <ele>2607.900</ele>
        <time>2019-07-14T23:04:08Z</time>
      </trkpt>
      <trkpt lat="35.889320820" lon="-106.490288900">
        <ele>2608.200</ele>
        <time>2019-07-14T23:04:09Z</time>
      </trkpt>
      <trkpt lat="35.889282740" lon="-106.490359660">
        <ele>2607.900</ele>
        <time>2019-07-14T23:04:10Z</time>
      </trkpt>
      <trkpt lat="35.889244130" lon="-106.490434830">
        <ele>2607.900</ele>
        <time>2019-07-14T23:04:11Z</time>
      </trkpt>
      <trkpt lat="35.889231930" lon="-106.490511840">
        <ele>2607.900</ele>
        <time>2019-07-14T23:04:12Z</time>
      </trkpt>
      <trkpt lat="35.889201690" lon="-106.490599760">
        <ele>2607.700</ele>
        <time>2019-07-14T23:04:13Z</time>
      </trkpt>
      <trkpt lat="35.889195250" lon="-106.490691530">
        <ele>2608.100</ele>
        <time>2019-07-14T23:04:14Z</time>
      </trkpt>
      <trkpt lat="35.889164370" lon="-106.490787600">
        <ele>2607.500</ele>
        <time>2019-07-14T23:04:15Z</time>
      </trkpt>
      <trkpt lat="35.889141070" lon="-106.490872710">
        <ele>2606.700</ele>
        <time>2019-07-14T23:04:16Z</time>
      </trkpt>
      <trkpt lat="35.889118680" lon="-106.490959600">
        <ele>2606.800</ele>
        <time>2019-07-14T23:04:17Z</time>
      </trkpt>
      <trkpt lat="35.889108710" lon="-106.491048320">
        <ele>2607.300</ele>
        <time>2019-07-14T23:04:18Z</time>
      </trkpt>
      <trkpt lat="35.889090510" lon="-106.491141950">
        <ele>2607.300</ele>
        <time>2019-07-14T23:04:19Z</time>
      </trkpt>
      <trkpt lat="35.889072560" lon="-106.491237810">
        <ele>2607.300</ele>
        <time>2019-07-14T23:04:20Z</time>
      </trkpt>
      <trkpt lat="35.889059010" lon="-106.491334690">
        <ele>2607.500</ele>
        <time>2019-07-14T23:04:21Z</time>
      </trkpt>
      <trkpt lat="35.889045180" lon="-106.491433000">
        <ele>2607.400</ele>
        <time>2019-07-14T23:04:22Z</time>
      </trkpt>
      <trkpt lat="35.889036590" lon="-106.491529540">
        <ele>2606.900</ele>
        <time>2019-07-14T23:04:23Z</time>
      </trkpt>
      <trkpt lat="35.889028840" lon="-106.491637530">
        <ele>2606.400</ele>
        <time>2019-07-14T23:04:24Z</time>
      </trkpt>
      <trkpt lat="35.889022900" lon="-106.491750450">
        <ele>2606.200</ele>
        <time>2019-07-14T23:04:25Z</time>
      </trkpt>
      <trkpt lat="35.889018360" lon="-106.491857070">
        <ele>2605.500</ele>
        <time>2019-07-14T23:04:26Z</time>
      </trkpt>
      <trkpt lat="35.889016350" lon="-106.491969280">
        <ele>2605.500</ele>
        <time>2019-07-14T23:04:27Z</time>
      </trkpt>
      <trkpt lat="35.889020060" lon="-106.492078910">
        <ele>2605.600</ele>
        <time>2019-07-14T23:04:28Z</time>
      </trkpt>
      <trkpt lat="35.889018220" lon="-106.492193780">
        <ele>2605.500</ele>
        <time>2019-07-14T23:04:29Z</time>
      </trkpt>
      <trkpt lat="35.889043130" lon="-106.492306030">
        <ele>2605.900</ele>
        <time>2019-07-14T23:04:30Z</time>
      </trkpt>
      <trkpt lat="35.889042360" lon="-106.492423210">
        <ele>2605.700</ele>
        <time>2019-07-14T23:04:31Z</time>
      </trkpt>
      <trkpt lat="35.889060210" lon="-106.492536610">
        <ele>2606.200</ele>
        <time>2019-07-14T23:04:32Z</time>
      </trkpt>
      <trkpt lat="35.889089440" lon="-106.492645240">
        <ele>2605.300</ele>
        <time>2019-07-14T23:04:33Z</time>
      </trkpt>
      <trkpt lat="35.889103170" lon="-106.492755560">
        <ele>2605.400</ele>
        <time>2019-07-14T23:04:34Z</time>
      </trkpt>
      <trkpt lat="35.889108870" lon="-106.492858560">
        <ele>2605.300</ele>
        <time>2019-07-14T23:04:35Z</time>
      </trkpt>
      <trkpt lat="35.889132320" lon="-106.492963100">
        <ele>2605.300</ele>
        <time>2019-07-14T23:04:36Z</time>
      </trkpt>
      <trkpt lat="35.889157010" lon="-106.493065860">
        <ele>2604.400</ele>
        <time>2019-07-14T23:04:37Z</time>
      </trkpt>
      <trkpt lat="35.889180960" lon="-106.493173000">
        <ele>2604.700</ele>
        <time>2019-07-14T23:04:38Z</time>
      </trkpt>
      <trkpt lat="35.889190280" lon="-106.493282240">
        <ele>2604.700</ele>
        <time>2019-07-14T23:04:39Z</time>
      </trkpt>
      <trkpt lat="35.889206620" lon="-106.493384830">
        <ele>2604.400</ele>
        <time>2019-07-14T23:04:40Z</time>
      </trkpt>
      <trkpt lat="35.889234280" lon="-106.493493230">
        <ele>2604.300</ele>
        <time>2019-07-14T23:04:41Z</time>
      </trkpt>
      <trkpt lat="35.889256410" lon="-106.493599300">
        <ele>2604.500</ele>
        <time>2019-07-14T23:04:42Z</time>
      </trkpt>
      <trkpt lat="35.889283190" lon="-106.493714350">
        <ele>2604.100</ele>
        <time>2019-07-14T23:04:43Z</time>
      </trkpt>
      <trkpt lat="35.889323440" lon="-106.493824720">
        <ele>2605.400</ele>
        <time>2019-07-14T23:04:44Z</time>
      </trkpt>
      <trkpt lat="35.889349760" lon="-106.493931500">
        <ele>2605.600</ele>
        <time>2019-07-14T23:04:45Z</time>
      </trkpt>
      <trkpt lat="35.889371580" lon="-106.494046550">
        <ele>2605.800</ele>
        <time>2019-07-14T23:04:46Z</time>
      </trkpt>
      <trkpt lat="35.889397160" lon="-106.494154820">
        <ele>2606.400</ele>
        <time>2019-07-14T23:04:47Z</time>
      </trkpt>
      <trkpt lat="35.889421540" lon="-106.494263420">
        <ele>2606.600</ele>
        <time>2019-07-14T23:04:48Z</time>
      </trkpt>
      <trkpt lat="35.889442340" lon="-106.494365500">
        <ele>2606.500</ele>
        <time>2019-07-14T23:04:49Z</time>
      </trkpt>
      <trkpt lat="35.889462310" lon="-106.494469060">
        <ele>2607.000</ele>
        <time>2019-07-14T23:04:50Z</time>
      </trkpt>
      <trkpt lat="35.889490140" lon="-106.494569600">
        <ele>2606.600</ele>
        <time>2019-07-14T23:04:51Z</time>
      </trkpt>
      <trkpt lat="35.889525250" lon="-106.494666330">
        <ele>2606.700</ele>
        <time>2019-07-14T23:04:52Z</time>
      </trkpt>
      <trkpt lat="35.889563730" lon="-106.494763690">
        <ele>2606.200</ele>
        <time>2019-07-14T23:04:53Z</time>
      </trkpt>
      <trkpt lat="35.889601860" lon="-106.494861940">
        <ele>2606.700</ele>
        <time>2019-07-14T23:04:54Z</time>
      </trkpt>
      <trkpt lat="35.889633750" lon="-106.494954940">
        <ele>2606.500</ele>
        <time>2019-07-14T23:04:55Z</time>
      </trkpt>
      <trkpt lat="35.889665690" lon="-106.495031840">
        <ele>2606.000</ele>
        <time>2019-07-14T23:04:56Z</time>
      </trkpt>
      <trkpt lat="35.889707670" lon="-106.495093320">
        <ele>2605.900</ele>
        <time>2019-07-14T23:04:57Z</time>
      </trkpt>
      <trkpt lat="35.889749250" lon="-106.495152760">
        <ele>2606.400</ele>
        <time>2019-07-14T23:04:58Z</time>
      </trkpt>
      <trkpt lat="35.889783900" lon="-106.495213310">
        <ele>2606.000</ele>
        <time>2019-07-14T23:04:59Z</time>
      </trkpt>
      <trkpt lat="35.889832510" lon="-106.495273510">
        <ele>2605.700</ele>
        <time>2019-07-14T23:05:01Z</time>
      </trkpt>
      <trkpt lat="35.889873840" lon="-106.495301970">
        <ele>2605.600</ele>
        <time>2019-07-14T23:05:02Z</time>
      </trkpt>
      <trkpt lat="35.889918880" lon="-106.495314750">
        <ele>2605.300</ele>
        <time>2019-07-14T23:05:03Z</time>
      </trkpt>
      <trkpt lat="35.889953500" lon="-106.495345150">
        <ele>2605.800</ele>
        <time>2019-07-14T23:05:04Z</time>
      </trkpt>
      <trkpt lat="35.889988450" lon="-106.495371490">
        <ele>2606.800</ele>
        <time>2019-07-14T23:05:05Z</time>
      </trkpt>
      <trkpt lat="35.890037210" lon="-106.495370050">
        <ele>2604.100</ele>
        <time>2019-07-14T23:05:06Z</time>
      </trkpt>
      <trkpt lat="35.890073610" lon="-106.495397180">
        <ele>2602.800</ele>
        <time>2019-07-14T23:05:07Z</time>
      </trkpt>
      <trkpt lat="35.890104680" lon="-106.495420120">
        <ele>2603.500</ele>
        <time>2019-07-14T23:05:08Z</time>
      </trkpt>
      <trkpt lat="35.890139480" lon="-106.495446760">
        <ele>2604.200</ele>
        <time>2019-07-14T23:05:09Z</time>
      </trkpt>
      <trkpt lat="35.890183150" lon="-106.495456880">
        <ele>2604.600</ele>
        <time>2019-07-14T23:05:10Z</time>
      </trkpt>
      <trkpt lat="35.890225210" lon="-106.495471710">
        <ele>2604.900</ele>
        <time>2019-07-14T23:05:11Z</time>
      </trkpt>
      <trkpt lat="35.890274680" lon="-106.495489160">
        <ele>2604.900</ele>
        <time>2019-07-14T23:05:12Z</time>
      </trkpt>
      <trkpt lat="35.890316090" lon="-106.495514470">
        <ele>2605.100</ele>
        <time>2019-07-14T23:05:13Z</time>
      </trkpt>
      <trkpt lat="35.890359440" lon="-106.495545510">
        <ele>2604.900</ele>
        <time>2019-07-14T23:05:14Z</time>
      </trkpt>
      <trkpt lat="35.890415350" lon="-106.495578320">
        <ele>2604.100</ele>
        <time>2019-07-14T23:05:15Z</time>
      </trkpt>
      <trkpt lat="35.890458600" lon="-106.495602140">
        <ele>2604.800</ele>
        <time>2019-07-14T23:05:16Z</time>
      </trkpt>
      <trkpt lat="35.890491280" lon="-106.495646340">
        <ele>2605.300</ele>
        <time>2019-07-14T23:05:17Z</time>
      </trkpt>
      <trkpt lat="35.890523000" lon="-106.495686490">
        <ele>2606.300</ele>
        <time>2019-07-14T23:05:18Z</time>
      </trkpt>
      <trkpt lat="35.890563070" lon="-106.495733360">
        <ele>2607.200</ele>
        <time>2019-07-14T23:05:19Z</time>
      </trkpt>
      <trkpt lat="35.890601700" lon="-106.495784500">
        <ele>2608.500</ele>
        <time>2019-07-14T23:05:20Z</time>
      </trkpt>
      <trkpt lat="35.890635210" lon="-106.495825550">
        <ele>2609.500</ele>
        <time>2019-07-14T23:05:21Z</time>
      </trkpt>
      <trkpt lat="35.890670460" lon="-106.495869240">
        <ele>2610.600</ele>
        <time>2019-07-14T23:05:22Z</time>
      </trkpt>
      <trkpt lat="35.890713410" lon="-106.495901050">
        <ele>2611.600</ele>
        <time>2019-07-14T23:05:23Z</time>
      </trkpt>
      <trkpt lat="35.890758460" lon="-106.495951690">
        <ele>2611.600</ele>
        <time>2019-07-14T23:05:24Z</time>
      </trkpt>
      <trkpt lat="35.890804180" lon="-106.496002990">
        <ele>2612.300</ele>
        <time>2019-07-14T23:05:25Z</time>
      </trkpt>
      <trkpt lat="35.890848770" lon="-106.496046950">
        <ele>2612.200</ele>
        <time>2019-07-14T23:05:26Z</time>
      </trkpt>
      <trkpt lat="35.890889970" lon="-106.496098700">
        <ele>2612.500</ele>
        <time>2019-07-14T23:05:27Z</time>
      </trkpt>
      <trkpt lat="35.890917850" lon="-106.496161940">
        <ele>2614.500</ele>
        <time>2019-07-14T23:05:28Z</time>
      </trkpt>
      <trkpt lat="35.890945800" lon="-106.496219400">
        <ele>2614.000</ele>
        <time>2019-07-14T23:05:29Z</time>
      </trkpt>
      <trkpt lat="35.890960110" lon="-106.496269100">
        <ele>2614.300</ele>
        <time>2019-07-14T23:05:30Z</time>
      </trkpt>
      <trkpt lat="35.890968980" lon="-106.496328690">
        <ele>2614.400</ele>
        <time>2019-07-14T23:05:31Z</time>
      </trkpt>
      <trkpt lat="35.890982120" lon="-106.496387310">
        <ele>2615.200</ele>
        <time>2019-07-14T23:05:32Z</time>
      </trkpt>
      <trkpt lat="35.890980110" lon="-106.496443980">
        <ele>2614.800</ele>
        <time>2019-07-14T23:05:33Z</time>
      </trkpt>
      <trkpt lat="35.890982890" lon="-106.496493070">
        <ele>2615.800</ele>
        <time>2019-07-14T23:05:34Z</time>
      </trkpt>
      <trkpt lat="35.890984400" lon="-106.496549720">
        <ele>2616.400</ele>
        <time>2019-07-14T23:05:35Z</time>
      </trkpt>
      <trkpt lat="35.890983760" lon="-106.496606340">
        <ele>2617.500</ele>
        <time>2019-07-14T23:05:36Z</time>
      </trkpt>
      <trkpt lat="35.890979980" lon="-106.496660400">
        <ele>2616.700</ele>
        <time>2019-07-14T23:05:37Z</time>
      </trkpt>
      <trkpt lat="35.890974110" lon="-106.496723950">
        <ele>2617.500</ele>
        <time>2019-07-14T23:05:38Z</time>
      </trkpt>
      <trkpt lat="35.890963220" lon="-106.496774570">
        <ele>2617.400</ele>
        <time>2019-07-14T23:05:39Z</time>
      </trkpt>
      <trkpt lat="35.890959290" lon="-106.496832300">
        <ele>2618.100</ele>
        <time>2019-07-14T23:05:40Z</time>
      </trkpt>
      <trkpt lat="35.890956020" lon="-106.496879260">
        <ele>2618.000</ele>
        <time>2019-07-14T23:05:41Z</time>
      </trkpt>
      <trkpt lat="35.890932690" lon="-106.496930540">
        <ele>2618.300</ele>
        <time>2019-07-14T23:05:42Z</time>
      </trkpt>
      <trkpt lat="35.890923800" lon="-106.496987470">
        <ele>2618.400</ele>
        <time>2019-07-14T23:05:43Z</time>
      </trkpt>
      <trkpt lat="35.890901810" lon="-106.497034010">
        <ele>2617.500</ele>
        <time>2019-07-14T23:05:44Z</time>
      </trkpt>
      <trkpt lat="35.890897330" lon="-106.497092860">
        <ele>2619.200</ele>
        <time>2019-07-14T23:05:45Z</time>
      </trkpt>
      <trkpt lat="35.890872500" lon="-106.497141470">
        <ele>2618.800</ele>
        <time>2019-07-14T23:05:46Z</time>
      </trkpt>
      <trkpt lat="35.890863230" lon="-106.497190100">
        <ele>2619.600</ele>
        <time>2019-07-14T23:05:47Z</time>
      </trkpt>
      <trkpt lat="35.890848410" lon="-106.497234760">
        <ele>2619.900</ele>
        <time>2019-07-14T23:05:48Z</time>
      </trkpt>
      <trkpt lat="35.890815920" lon="-106.497275970">
        <ele>2618.700</ele>
        <time>2019-07-14T23:05:49Z</time>
      </trkpt>
      <trkpt lat="35.890793190" lon="-106.497321780">
        <ele>2618.900</ele>
        <time>2019-07-14T23:05:50Z</time>
      </trkpt>
      <trkpt lat="35.890773630" lon="-106.497363170">
        <ele>2619.500</ele>
        <time>2019-07-14T23:05:51Z</time>
      </trkpt>
      <trkpt lat="35.890739370" lon="-106.497398730">
        <ele>2618.900</ele>
        <time>2019-07-14T23:05:52Z</time>
      </trkpt>
      <trkpt lat="35.890720050" lon="-106.497439320">
        <ele>2619.400</ele>
        <time>2019-07-14T23:05:53Z</time>
      </trkpt>
      <trkpt lat="35.890673880" lon="-106.497463210">
        <ele>2618.700</ele>
        <time>2019-07-14T23:05:54Z</time>
      </trkpt>
      <trkpt lat="35.890639180" lon="-106.497495070">
        <ele>2619.200</ele>
        <time>2019-07-14T23:05:55Z</time>
      </trkpt>
      <trkpt lat="35.890598910" lon="-106.497517070">
        <ele>2619.600</ele>
        <time>2019-07-14T23:05:56Z</time>
      </trkpt>
      <trkpt lat="35.890551350" lon="-106.497547320">
        <ele>2619.900</ele>
        <time>2019-07-14T23:05:57Z</time>
      </trkpt>
      <trkpt lat="35.890503170" lon="-106.497571650">
        <ele>2620.700</ele>
        <time>2019-07-14T23:05:58Z</time>
      </trkpt>
      <trkpt lat="35.890462160" lon="-106.497598370">
        <ele>2621.800</ele>
        <time>2019-07-14T23:05:59Z</time>
      </trkpt>
      <trkpt lat="35.890412240" lon="-106.497628110">
        <ele>2622.200</ele>
        <time>2019-07-14T23:06:00Z</time>
      </trkpt>
      <trkpt lat="35.890360550" lon="-106.497653950">
        <ele>2622.800</ele>
        <time>2019-07-14T23:06:01Z</time>
      </trkpt>
      <trkpt lat="35.890319940" lon="-106.497686000">
        <ele>2623.400</ele>
        <time>2019-07-14T23:06:02Z</time>
      </trkpt>
      <trkpt lat="35.890262640" lon="-106.497711400">
        <ele>2623.700</ele>
        <time>2019-07-14T23:06:03Z</time>
      </trkpt>
      <trkpt lat="35.890214180" lon="-106.497740720">
        <ele>2624.100</ele>
        <time>2019-07-14T23:06:04Z</time>
      </trkpt>
      <trkpt lat="35.890165730" lon="-106.497772550">
        <ele>2623.800</ele>
        <time>2019-07-14T23:06:05Z</time>
      </trkpt>
      <trkpt lat="35.890124770" lon="-106.497802810">
        <ele>2625.500</ele>
        <time>2019-07-14T23:06:06Z</time>
      </trkpt>
      <trkpt lat="35.890069180" lon="-106.497824780">
        <ele>2624.700</ele>
        <time>2019-07-14T23:06:07Z</time>
      </trkpt>
      <trkpt lat="35.890019160" lon="-106.497846310">
        <ele>2624.500</ele>
        <time>2019-07-14T23:06:08Z</time>
      </trkpt>
      <trkpt lat="35.889973870" lon="-106.497875180">
        <ele>2624.400</ele>
        <time>2019-07-14T23:06:09Z</time>
      </trkpt>
      <trkpt lat="35.889935090" lon="-106.497904820">
        <ele>2625.400</ele>
        <time>2019-07-14T23:06:10Z</time>
      </trkpt>
      <trkpt lat="35.889877580" lon="-106.497928060">
        <ele>2625.200</ele>
        <time>2019-07-14T23:06:11Z</time>
      </trkpt>
      <trkpt lat="35.889821040" lon="-106.497950070">
        <ele>2625.000</ele>
        <time>2019-07-14T23:06:12Z</time>
      </trkpt>
      <trkpt lat="35.889762120" lon="-106.497975200">
        <ele>2625.300</ele>
        <time>2019-07-14T23:06:13Z</time>
      </trkpt>
      <trkpt lat="35.889704850" lon="-106.498008280">
        <ele>2626.200</ele>
        <time>2019-07-14T23:06:14Z</time>
      </trkpt>
      <trkpt lat="35.889644130" lon="-106.498041500">
        <ele>2627.300</ele>
        <time>2019-07-14T23:06:15Z</time>
      </trkpt>
      <trkpt lat="35.889573560" lon="-106.498072820">
        <ele>2627.600</ele>
        <time>2019-07-14T23:06:16Z</time>
      </trkpt>
      <trkpt lat="35.889506270" lon="-106.498090580">
        <ele>2628.000</ele>
        <time>2019-07-14T23:06:17Z</time>
      </trkpt>
      <trkpt lat="35.889434370" lon="-106.498104780">
        <ele>2627.400</ele>
        <time>2019-07-14T23:06:18Z</time>
      </trkpt>
      <trkpt lat="35.889361630" lon="-106.498107250">
        <ele>2627.500</ele>
        <time>2019-07-14T23:06:19Z</time>
      </trkpt>
      <trkpt lat="35.889277670" lon="-106.498097960">
        <ele>2627.600</ele>
        <time>2019-07-14T23:06:20Z</time>
      </trkpt>
      <trkpt lat="35.889193160" lon="-106.498079060">
        <ele>2627.800</ele>
        <time>2019-07-14T23:06:21Z</time>
      </trkpt>
      <trkpt lat="35.889110940" lon="-106.498052310">
        <ele>2627.600</ele>
        <time>2019-07-14T23:06:22Z</time>
      </trkpt>
      <trkpt lat="35.889026530" lon="-106.498019540">
        <ele>2628.400</ele>
        <time>2019-07-14T23:06:23Z</time>
      </trkpt>
      <trkpt lat="35.888936600" lon="-106.497969730">
        <ele>2627.000</ele>
        <time>2019-07-14T23:06:24Z</time>
      </trkpt>
      <trkpt lat="35.888858370" lon="-106.497928010">
        <ele>2627.300</ele>
        <time>2019-07-14T23:06:25Z</time>
      </trkpt>
      <trkpt lat="35.888777510" lon="-106.497880350">
        <ele>2628.300</ele>
        <time>2019-07-14T23:06:26Z</time>
      </trkpt>
      <trkpt lat="35.888699280" lon="-106.497843110">
        <ele>2629.100</ele>
        <time>2019-07-14T23:06:27Z</time>
      </trkpt>
      <trkpt lat="35.888610980" lon="-106.497820030">
        <ele>2628.200</ele>
        <time>2019-07-14T23:06:28Z</time>
      </trkpt>
      <trkpt lat="35.888523250" lon="-106.497781810">
        <ele>2628.500</ele>
        <time>2019-07-14T23:06:29Z</time>
      </trkpt>
      <trkpt lat="35.888431910" lon="-106.497745390">
        <ele>2630.400</ele>
        <time>2019-07-14T23:06:30Z</time>
      </trkpt>
      <trkpt lat="35.888331050" lon="-106.497712150">
        <ele>2630.500</ele>
        <time>2019-07-14T23:06:31Z</time>
      </trkpt>
      <trkpt lat="35.888222700" lon="-106.497672680">
        <ele>2629.700</ele>
        <time>2019-07-14T23:06:32Z</time>
      </trkpt>
      <trkpt lat="35.888114910" lon="-106.497616940">
        <ele>2629.700</ele>
        <time>2019-07-14T23:06:33Z</time>
      </trkpt>
      <trkpt lat="35.888012730" lon="-106.497563520">
        <ele>2628.900</ele>
        <time>2019-07-14T23:06:34Z</time>
      </trkpt>
      <trkpt lat="35.887918520" lon="-106.497510460">
        <ele>2629.400</ele>
        <time>2019-07-14T23:06:35Z</time>
      </trkpt>
      <trkpt lat="35.887828520" lon="-106.497432470">
        <ele>2630.000</ele>
        <time>2019-07-14T23:06:36Z</time>
      </trkpt>
      <trkpt lat="35.887743620" lon="-106.497360180">
        <ele>2630.800</ele>
        <time>2019-07-14T23:06:37Z</time>
      </trkpt>
      <trkpt lat="35.887650630" lon="-106.497301390">
        <ele>2628.800</ele>
        <time>2019-07-14T23:06:38Z</time>
      </trkpt>
      <trkpt lat="35.887565430" lon="-106.497230150">
        <ele>2629.900</ele>
        <time>2019-07-14T23:06:39Z</time>
      </trkpt>
      <trkpt lat="35.887485340" lon="-106.497146060">
        <ele>2629.100</ele>
        <time>2019-07-14T23:06:40Z</time>
      </trkpt>
      <trkpt lat="35.887401450" lon="-106.497076810">
        <ele>2628.900</ele>
        <time>2019-07-14T23:06:41Z</time>
      </trkpt>
      <trkpt lat="35.887322580" lon="-106.496999220">
        <ele>2628.100</ele>
        <time>2019-07-14T23:06:42Z</time>
      </trkpt>
      <trkpt lat="35.887241030" lon="-106.496926690">
        <ele>2628.400</ele>
        <time>2019-07-14T23:06:43Z</time>
      </trkpt>
      <trkpt lat="35.887153570" lon="-106.496862310">
        <ele>2627.300</ele>
        <time>2019-07-14T23:06:44Z</time>
      </trkpt>
      <trkpt lat="35.887071830" lon="-106.496794690">
        <ele>2628.300</ele>
        <time>2019-07-14T23:06:45Z</time>
      </trkpt>
      <trkpt lat="35.886999270" lon="-106.496730100">
        <ele>2628.400</ele>
        <time>2019-07-14T23:06:46Z</time>
      </trkpt>
      <trkpt lat="35.886916140" lon="-106.496666870">
        <ele>2627.900</ele>
        <time>2019-07-14T23:06:47Z</time>
      </trkpt>
      <trkpt lat="35.886834800" lon="-106.496609200">
        <ele>2628.100</ele>
        <time>2019-07-14T23:06:48Z</time>
      </trkpt>
      <trkpt lat="35.886762250" lon="-106.496587460">
        <ele>2626.700</ele>
        <time>2019-07-14T23:06:49Z</time>
      </trkpt>
      <trkpt lat="35.886679790" lon="-106.496556430">
        <ele>2626.500</ele>
        <time>2019-07-14T23:06:50Z</time>
      </trkpt>
      <trkpt lat="35.886597950" lon="-106.496539920">
        <ele>2626.100</ele>
        <time>2019-07-14T23:06:51Z</time>
      </trkpt>
      <trkpt lat="35.886516750" lon="-106.496529190">
        <ele>2625.900</ele>
        <time>2019-07-14T23:06:52Z</time>
      </trkpt>
      <trkpt lat="35.886428860" lon="-106.496519760">
        <ele>2625.700</ele>
        <time>2019-07-14T23:06:53Z</time>
      </trkpt>
      <trkpt lat="35.886350390" lon="-106.496507300">
        <ele>2626.700</ele>
        <time>2019-07-14T23:06:54Z</time>
      </trkpt>
      <trkpt lat="35.886267620" lon="-106.496492980">
        <ele>2626.500</ele>
        <time>2019-07-14T23:06:55Z</time>
      </trkpt>
      <trkpt lat="35.886194360" lon="-106.496480640">
        <ele>2627.100</ele>
        <time>2019-07-14T23:06:56Z</time>
      </trkpt>
      <trkpt lat="35.886121500" lon="-106.496463610">
        <ele>2627.100</ele>
        <time>2019-07-14T23:06:57Z</time>
      </trkpt>
      <trkpt lat="35.886049170" lon="-106.496440650">
        <ele>2627.700</ele>
        <time>2019-07-14T23:06:58Z</time>
      </trkpt>
      <trkpt lat="35.885968740" lon="-106.496417640">
        <ele>2627.700</ele>
        <time>2019-07-14T23:06:59Z</time>
      </trkpt>
      <trkpt lat="35.885887730" lon="-106.496390430">
        <ele>2627.700</ele>
        <time>2019-07-14T23:07:00Z</time>
      </trkpt>
      <trkpt lat="35.885814890" lon="-106.496359170">
        <ele>2629.300</ele>
        <time>2019-07-14T23:07:01Z</time>
      </trkpt>
      <trkpt lat="35.885731770" lon="-106.496318220">
        <ele>2628.900</ele>
        <time>2019-07-14T23:07:02Z</time>
      </trkpt>
      <trkpt lat="35.885639890" lon="-106.496271420">
        <ele>2628.600</ele>
        <time>2019-07-14T23:07:03Z</time>
      </trkpt>
      <trkpt lat="35.885551860" lon="-106.496231800">
        <ele>2627.700</ele>
        <time>2019-07-14T23:07:04Z</time>
      </trkpt>
      <trkpt lat="35.885464850" lon="-106.496186320">
        <ele>2628.000</ele>
        <time>2019-07-14T23:07:05Z</time>
      </trkpt>
      <trkpt lat="35.885382110" lon="-106.496131350">
        <ele>2626.800</ele>
        <time>2019-07-14T23:07:06Z</time>
      </trkpt>
      <trkpt lat="35.885290710" lon="-106.496077640">
        <ele>2625.500</ele>
        <time>2019-07-14T23:07:07Z</time>
      </trkpt>
      <trkpt lat="35.885211260" lon="-106.496021120">
        <ele>2625.200</ele>
        <time>2019-07-14T23:07:08Z</time>
      </trkpt>
      <trkpt lat="35.885139290" lon="-106.495954830">
        <ele>2624.800</ele>
        <time>2019-07-14T23:07:09Z</time>
      </trkpt>
      <trkpt lat="35.885083060" lon="-106.495879670">
        <ele>2624.700</ele>
        <time>2019-07-14T23:07:10Z</time>
      </trkpt>
      <trkpt lat="35.885036320" lon="-106.495810680">
        <ele>2625.500</ele>
        <time>2019-07-14T23:07:11Z</time>
      </trkpt>
      <trkpt lat="35.884989250" lon="-106.495743210">
        <ele>2626.000</ele>
        <time>2019-07-14T23:07:12Z</time>
      </trkpt>
      <trkpt lat="35.884949200" lon="-106.495672440">
        <ele>2626.900</ele>
        <time>2019-07-14T23:07:13Z</time>
      </trkpt>
      <trkpt lat="35.884908860" lon="-106.495596240">
        <ele>2625.000</ele>
        <time>2019-07-14T23:07:14Z</time>
      </trkpt>
      <trkpt lat="35.884887120" lon="-106.495505330">
        <ele>2625.100</ele>
        <time>2019-07-14T23:07:15Z</time>
      </trkpt>
      <trkpt lat="35.884862260" lon="-106.495427970">
        <ele>2623.900</ele>
        <time>2019-07-14T23:07:16Z</time>
      </trkpt>
      <trkpt lat="35.884850460" lon="-106.495331500">
        <ele>2624.700</ele>
        <time>2019-07-14T23:07:17Z</time>
      </trkpt>
      <trkpt lat="35.884829570" lon="-106.495237010">
        <ele>2624.700</ele>
        <time>2019-07-14T23:07:18Z</time>
      </trkpt>
      <trkpt lat="35.884804170" lon="-106.495146440">
        <ele>2624.500</ele>
        <time>2019-07-14T23:07:19Z</time>
      </trkpt>
      <trkpt lat="35.884777520" lon="-106.495064650">
        <ele>2624.300</ele>
        <time>2019-07-14T23:07:20Z</time>
      </trkpt>
      <trkpt lat="35.884756280" lon="-106.495004830">
        <ele>2624.300</ele>
        <time>2019-07-14T23:07:21Z</time>
      </trkpt>
      <trkpt lat="35.884724770" lon="-106.494966420">
        <ele>2624.100</ele>
        <time>2019-07-14T23:07:22Z</time>
      </trkpt>
      <trkpt lat="35.884709430" lon="-106.494922350">
        <ele>2625.000</ele>
        <time>2019-07-14T23:07:23Z</time>
      </trkpt>
      <trkpt lat="35.884673600" lon="-106.494886020">
        <ele>2626.100</ele>
        <time>2019-07-14T23:07:32Z</time>
      </trkpt>
      <trkpt lat="35.884643650" lon="-106.494837450">
        <ele>2626.400</ele>
        <time>2019-07-14T23:07:34Z</time>
      </trkpt>
      <trkpt lat="35.884622390" lon="-106.494800580">
        <ele>2627.100</ele>
        <time>2019-07-14T23:07:35Z</time>
      </trkpt>
      <trkpt lat="35.884593660" lon="-106.494762560">
        <ele>2626.900</ele>
        <time>2019-07-14T23:07:36Z</time>
      </trkpt>
      <trkpt lat="35.884561410" lon="-106.494726900">
        <ele>2626.000</ele>
        <time>2019-07-14T23:07:37Z</time>
      </trkpt>
      <trkpt lat="35.884506330" lon="-106.494698240">
        <ele>2626.300</ele>
        <time>2019-07-14T23:07:38Z</time>
      </trkpt>
      <trkpt lat="35.884445160" lon="-106.494664180">
        <ele>2624.600</ele>
        <time>2019-07-14T23:07:39Z</time>
      </trkpt>
      <trkpt lat="35.884389710" lon="-106.494638990">
        <ele>2624.100</ele>
        <time>2019-07-14T23:07:40Z</time>
      </trkpt>
      <trkpt lat="35.884342620" lon="-106.494620140">
        <ele>2624.800</ele>
        <time>2019-07-14T23:07:41Z</time>
      </trkpt>
      <trkpt lat="35.884282010" lon="-106.494610240">
        <ele>2624.700</ele>
        <time>2019-07-14T23:07:42Z</time>
      </trkpt>
      <trkpt lat="35.884214550" lon="-106.494601640">
        <ele>2622.600</ele>
        <time>2019-07-14T23:07:43Z</time>
      </trkpt>
      <trkpt lat="35.884161990" lon="-106.494610750">
        <ele>2622.500</ele>
        <time>2019-07-14T23:07:44Z</time>
      </trkpt>
      <trkpt lat="35.884094820" lon="-106.494624910">
        <ele>2622.600</ele>
        <time>2019-07-14T23:07:45Z</time>
      </trkpt>
      <trkpt lat="35.884026560" lon="-106.494669640">
        <ele>2621.600</ele>
        <time>2019-07-14T23:07:46Z</time>
      </trkpt>
      <trkpt lat="35.883976390" lon="-106.494696950">
        <ele>2622.000</ele>
        <time>2019-07-14T23:07:47Z</time>
      </trkpt>
      <trkpt lat="35.883933240" lon="-106.494715010">
        <ele>2621.700</ele>
        <time>2019-07-14T23:07:48Z</time>
      </trkpt>
      <trkpt lat="35.883896290" lon="-106.494727640">
        <ele>2621.700</ele>
        <time>2019-07-14T23:07:49Z</time>
      </trkpt>
      <trkpt lat="35.883855050" lon="-106.494751490">
        <ele>2621.700</ele>
        <time>2019-07-14T23:07:50Z</time>
      </trkpt>
      <trkpt lat="35.883808520" lon="-106.494775360">
        <ele>2620.500</ele>
        <time>2019-07-14T23:07:51Z</time>
      </trkpt>
      <trkpt lat="35.883758610" lon="-106.494808450">
        <ele>2618.700</ele>
        <time>2019-07-14T23:07:52Z</time>
      </trkpt>
      <trkpt lat="35.883701820" lon="-106.494844230">
        <ele>2617.200</ele>
        <time>2019-07-14T23:07:53Z</time>
      </trkpt>
      <trkpt lat="35.883643580" lon="-106.494902120">
        <ele>2614.700</ele>
        <time>2019-07-14T23:07:54Z</time>
      </trkpt>
      <trkpt lat="35.883581400" lon="-106.494946430">
        <ele>2613.700</ele>
        <time>2019-07-14T23:07:55Z</time>
      </trkpt>
      <trkpt lat="35.883512310" lon="-106.494996780">
        <ele>2614.000</ele>
        <time>2019-07-14T23:07:56Z</time>
      </trkpt>
      <trkpt lat="35.883447830" lon="-106.495044930">
        <ele>2614.300</ele>
        <time>2019-07-14T23:07:57Z</time>
      </trkpt>
      <trkpt lat="35.883392040" lon="-106.495111200">
        <ele>2613.700</ele>
        <time>2019-07-14T23:07:58Z</time>
      </trkpt>
      <trkpt lat="35.883318700" lon="-106.495169970">
        <ele>2612.000</ele>
        <time>2019-07-14T23:07:59Z</time>
      </trkpt>
      <trkpt lat="35.883257600" lon="-106.495226820">
        <ele>2613.400</ele>
        <time>2019-07-14T23:08:00Z</time>
      </trkpt>
      <trkpt lat="35.883193250" lon="-106.495294020">
        <ele>2614.000</ele>
        <time>2019-07-14T23:08:01Z</time>
      </trkpt>
      <trkpt lat="35.883120860" lon="-106.495368560">
        <ele>2612.300</ele>
        <time>2019-07-14T23:08:02Z</time>
      </trkpt>
      <trkpt lat="35.883054120" lon="-106.495437310">
        <ele>2612.400</ele>
        <time>2019-07-14T23:08:03Z</time>
      </trkpt>
      <trkpt lat="35.882974720" lon="-106.495496620">
        <ele>2610.800</ele>
        <time>2019-07-14T23:08:04Z</time>
      </trkpt>
      <trkpt lat="35.882905110" lon="-106.495554440">
        <ele>2610.400</ele>
        <time>2019-07-14T23:08:05Z</time>
      </trkpt>
      <trkpt lat="35.882838980" lon="-106.495605500">
        <ele>2610.800</ele>
        <time>2019-07-14T23:08:06Z</time>
      </trkpt>
      <trkpt lat="35.882768010" lon="-106.495662850">
        <ele>2610.800</ele>
        <time>2019-07-14T23:08:07Z</time>
      </trkpt>
      <trkpt lat="35.882698190" lon="-106.495729040">
        <ele>2611.100</ele>
        <time>2019-07-14T23:08:08Z</time>
      </trkpt>
      <trkpt lat="35.882640880" lon="-106.495801320">
        <ele>2611.800</ele>
        <time>2019-07-14T23:08:09Z</time>
      </trkpt>
      <trkpt lat="35.882561310" lon="-106.495879750">
        <ele>2613.200</ele>
        <time>2019-07-14T23:08:10Z</time>
      </trkpt>
      <trkpt lat="35.882493110" lon="-106.495947920">
        <ele>2611.600</ele>
        <time>2019-07-14T23:08:11Z</time>
      </trkpt>
      <trkpt lat="35.882416030" lon="-106.496009450">
        <ele>2611.500</ele>
        <time>2019-07-14T23:08:12Z</time>
      </trkpt>
      <trkpt lat="35.882345220" lon="-106.496091580">
        <ele>2610.600</ele>
        <time>2019-07-14T23:08:13Z</time>
      </trkpt>
      <trkpt lat="35.882270130" lon="-106.496163480">
        <ele>2610.700</ele>
        <time>2019-07-14T23:08:14Z</time>
      </trkpt>
      <trkpt lat="35.882193060" lon="-106.496235630">
        <ele>2609.500</ele>
        <time>2019-07-14T23:08:15Z</time>
      </trkpt>
      <trkpt lat="35.882111960" lon="-106.496301740">
        <ele>2610.000</ele>
        <time>2019-07-14T23:08:16Z</time>
      </trkpt>
      <trkpt lat="35.882039100" lon="-106.496372570">
        <ele>2609.700</ele>
        <time>2019-07-14T23:08:17Z</time>
      </trkpt>
      <trkpt lat="35.881969200" lon="-106.496445990">
        <ele>2610.900</ele>
        <time>2019-07-14T23:08:18Z</time>
      </trkpt>
      <trkpt lat="35.881901950" lon="-106.496511840">
        <ele>2611.800</ele>
        <time>2019-07-14T23:08:19Z</time>
      </trkpt>
      <trkpt lat="35.881838280" lon="-106.496579640">
        <ele>2612.600</ele>
        <time>2019-07-14T23:08:20Z</time>
      </trkpt>
      <trkpt lat="35.881776150" lon="-106.496642170">
        <ele>2613.600</ele>
        <time>2019-07-14T23:08:21Z</time>
      </trkpt>
      <trkpt lat="35.881718710" lon="-106.496711250">
        <ele>2614.100</ele>
        <time>2019-07-14T23:08:22Z</time>
      </trkpt>
      <trkpt lat="35.881661120" lon="-106.496786110">
        <ele>2614.400</ele>
        <time>2019-07-14T23:08:23Z</time>
      </trkpt>
      <trkpt lat="35.881602810" lon="-106.496859120">
        <ele>2614.200</ele>
        <time>2019-07-14T23:08:24Z</time>
      </trkpt>
      <trkpt lat="35.881538410" lon="-106.496929550">
        <ele>2613.200</ele>
        <time>2019-07-14T23:08:25Z</time>
      </trkpt>
      <trkpt lat="35.881470640" lon="-106.497015470">
        <ele>2613.100</ele>
        <time>2019-07-14T23:08:26Z</time>
      </trkpt>
      <trkpt lat="35.881409330" lon="-106.497092890">
        <ele>2613.300</ele>
        <time>2019-07-14T23:08:27Z</time>
      </trkpt>
      <trkpt lat="35.881350560" lon="-106.497171120">
        <ele>2614.600</ele>
        <time>2019-07-14T23:08:28Z</time>
      </trkpt>
      <trkpt lat="35.881278920" lon="-106.497255580">
        <ele>2614.200</ele>
        <time>2019-07-14T23:08:29Z</time>
      </trkpt>
      <trkpt lat="35.881211890" lon="-106.497341140">
        <ele>2614.700</ele>
        <time>2019-07-14T23:08:30Z</time>
      </trkpt>
      <trkpt lat="35.881148900" lon="-106.497424370">
        <ele>2614.300</ele>
        <time>2019-07-14T23:08:31Z</time>
      </trkpt>
      <trkpt lat="35.881096000" lon="-106.497518200">
        <ele>2613.600</ele>
        <time>2019-07-14T23:08:32Z</time>
      </trkpt>
      <trkpt lat="35.881034140" lon="-106.497604870">
        <ele>2613.800</ele>
        <time>2019-07-14T23:08:33Z</time>
      </trkpt>
      <trkpt lat="35.880974440" lon="-106.497686890">
        <ele>2613.400</ele>
        <time>2019-07-14T23:08:34Z</time>
      </trkpt>
      <trkpt lat="35.880917860" lon="-106.497773500">
        <ele>2613.500</ele>
        <time>2019-07-14T23:08:35Z</time>
      </trkpt>
      <trkpt lat="35.880864790" lon="-106.497855240">
        <ele>2613.300</ele>
        <time>2019-07-14T23:08:36Z</time>
      </trkpt>
      <trkpt lat="35.880812890" lon="-106.497932390">
        <ele>2613.400</ele>
        <time>2019-07-14T23:08:37Z</time>
      </trkpt>
      <trkpt lat="35.880765760" lon="-106.498010640">
        <ele>2613.400</ele>
        <time>2019-07-14T23:08:38Z</time>
      </trkpt>
      <trkpt lat="35.880712480" lon="-106.498079240">
        <ele>2612.700</ele>
        <time>2019-07-14T23:08:39Z</time>
      </trkpt>
      <trkpt lat="35.880655760" lon="-106.498166770">
        <ele>2612.700</ele>
        <time>2019-07-14T23:08:40Z</time>
      </trkpt>
      <trkpt lat="35.880606920" lon="-106.498245970">
        <ele>2612.700</ele>
        <time>2019-07-14T23:08:41Z</time>
      </trkpt>
      <trkpt lat="35.880552280" lon="-106.498330100">
        <ele>2613.000</ele>
        <time>2019-07-14T23:08:42Z</time>
      </trkpt>
      <trkpt lat="35.880501010" lon="-106.498404770">
        <ele>2613.400</ele>
        <time>2019-07-14T23:08:43Z</time>
      </trkpt>
      <trkpt lat="35.880445760" lon="-106.498486090">
        <ele>2613.500</ele>
        <time>2019-07-14T23:08:44Z</time>
      </trkpt>
      <trkpt lat="35.880388560" lon="-106.498574390">
        <ele>2613.600</ele>
        <time>2019-07-14T23:08:45Z</time>
      </trkpt>
      <trkpt lat="35.880330790" lon="-106.498661720">
        <ele>2613.000</ele>
        <time>2019-07-14T23:08:46Z</time>
      </trkpt>
      <trkpt lat="35.880268740" lon="-106.498747890">
        <ele>2612.700</ele>
        <time>2019-07-14T23:08:47Z</time>
      </trkpt>
      <trkpt lat="35.880200990" lon="-106.498828690">
        <ele>2612.100</ele>
        <time>2019-07-14T23:08:48Z</time>
      </trkpt>
      <trkpt lat="35.880141360" lon="-106.498918490">
        <ele>2611.200</ele>
        <time>2019-07-14T23:08:49Z</time>
      </trkpt>
      <trkpt lat="35.880092990" lon="-106.498995470">
        <ele>2611.600</ele>
        <time>2019-07-14T23:08:50Z</time>
      </trkpt>
      <trkpt lat="35.880020220" lon="-106.499070360">
        <ele>2612.200</ele>
        <time>2019-07-14T23:08:51Z</time>
      </trkpt>
      <trkpt lat="35.879949470" lon="-106.499136840">
        <ele>2612.800</ele>
        <time>2019-07-14T23:08:52Z</time>
      </trkpt>
      <trkpt lat="35.879873990" lon="-106.499218210">
        <ele>2614.000</ele>
        <time>2019-07-14T23:08:53Z</time>
      </trkpt>
      <trkpt lat="35.879814590" lon="-106.499303400">
        <ele>2613.600</ele>
        <time>2019-07-14T23:08:54Z</time>
      </trkpt>
      <trkpt lat="35.879751810" lon="-106.499400960">
        <ele>2613.400</ele>
        <time>2019-07-14T23:08:55Z</time>
      </trkpt>
      <trkpt lat="35.879686210" lon="-106.499496180">
        <ele>2613.400</ele>
        <time>2019-07-14T23:08:56Z</time>
      </trkpt>
      <trkpt lat="35.879617360" lon="-106.499590390">
        <ele>2613.800</ele>
        <time>2019-07-14T23:08:57Z</time>
      </trkpt>
      <trkpt lat="35.879559860" lon="-106.499668040">
        <ele>2613.600</ele>
        <time>2019-07-14T23:08:58Z</time>
      </trkpt>
      <trkpt lat="35.879489110" lon="-106.499747510">
        <ele>2612.900</ele>
        <time>2019-07-14T23:08:59Z</time>
      </trkpt>
      <trkpt lat="35.879443730" lon="-106.499842280">
        <ele>2613.200</ele>
        <time>2019-07-14T23:09:00Z</time>
      </trkpt>
      <trkpt lat="35.879391980" lon="-106.499925140">
        <ele>2613.100</ele>
        <time>2019-07-14T23:09:01Z</time>
      </trkpt>
      <trkpt lat="35.879334650" lon="-106.500010330">
        <ele>2613.100</ele>
        <time>2019-07-14T23:09:02Z</time>
      </trkpt>
      <trkpt lat="35.879276850" lon="-106.500094790">
        <ele>2612.500</ele>
        <time>2019-07-14T23:09:03Z</time>
      </trkpt>
      <trkpt lat="35.879213950" lon="-106.500180010">
        <ele>2612.600</ele>
        <time>2019-07-14T23:09:04Z</time>
      </trkpt>
      <trkpt lat="35.879153550" lon="-106.500248520">
        <ele>2612.100</ele>
        <time>2019-07-14T23:09:05Z</time>
      </trkpt>
      <trkpt lat="35.879091360" lon="-106.500324990">
        <ele>2612.000</ele>
        <time>2019-07-14T23:09:06Z</time>
      </trkpt>
      <trkpt lat="35.879029880" lon="-106.500392740">
        <ele>2612.400</ele>
        <time>2019-07-14T23:09:07Z</time>
      </trkpt>
      <trkpt lat="35.878974680" lon="-106.500461390">
        <ele>2613.000</ele>
        <time>2019-07-14T23:09:08Z</time>
      </trkpt>
      <trkpt lat="35.878918250" lon="-106.500528290">
        <ele>2612.500</ele>
        <time>2019-07-14T23:09:09Z</time>
      </trkpt>
      <trkpt lat="35.878866230" lon="-106.500606430">
        <ele>2612.900</ele>
        <time>2019-07-14T23:09:10Z</time>
      </trkpt>
      <trkpt lat="35.878800260" lon="-106.500684210">
        <ele>2612.600</ele>
        <time>2019-07-14T23:09:11Z</time>
      </trkpt>
      <trkpt lat="35.878747060" lon="-106.500765490">
        <ele>2613.000</ele>
        <time>2019-07-14T23:09:12Z</time>
      </trkpt>
      <trkpt lat="35.878691110" lon="-106.500848050">
        <ele>2613.500</ele>
        <time>2019-07-14T23:09:13Z</time>
      </trkpt>
      <trkpt lat="35.878633130" lon="-106.500931820">
        <ele>2613.400</ele>
        <time>2019-07-14T23:09:14Z</time>
      </trkpt>
      <trkpt lat="35.878580100" lon="-106.501020600">
        <ele>2614.200</ele>
        <time>2019-07-14T23:09:15Z</time>
      </trkpt>
      <trkpt lat="35.878535770" lon="-106.501098060">
        <ele>2613.800</ele>
        <time>2019-07-14T23:09:16Z</time>
      </trkpt>
      <trkpt lat="35.878482790" lon="-106.501184960">
        <ele>2614.500</ele>
        <time>2019-07-14T23:09:17Z</time>
      </trkpt>
      <trkpt lat="35.878428840" lon="-106.501258830">
        <ele>2614.100</ele>
        <time>2019-07-14T23:09:18Z</time>
      </trkpt>
      <trkpt lat="35.878391690" lon="-106.501338440">
        <ele>2614.200</ele>
        <time>2019-07-14T23:09:19Z</time>
      </trkpt>
      <trkpt lat="35.878352690" lon="-106.501421450">
        <ele>2614.200</ele>
        <time>2019-07-14T23:09:20Z</time>
      </trkpt>
      <trkpt lat="35.878297730" lon="-106.501507340">
        <ele>2614.900</ele>
        <time>2019-07-14T23:09:21Z</time>
      </trkpt>
      <trkpt lat="35.878255840" lon="-106.501585420">
        <ele>2615.200</ele>
        <time>2019-07-14T23:09:22Z</time>
      </trkpt>
      <trkpt lat="35.878207100" lon="-106.501668900">
        <ele>2615.500</ele>
        <time>2019-07-14T23:09:23Z</time>
      </trkpt>
      <trkpt lat="35.878157950" lon="-106.501748400">
        <ele>2616.600</ele>
        <time>2019-07-14T23:09:24Z</time>
      </trkpt>
      <trkpt lat="35.878118430" lon="-106.501825260">
        <ele>2616.900</ele>
        <time>2019-07-14T23:09:25Z</time>
      </trkpt>
      <trkpt lat="35.878086890" lon="-106.501891240">
        <ele>2616.900</ele>
        <time>2019-07-14T23:09:26Z</time>
      </trkpt>
      <trkpt lat="35.878042670" lon="-106.501965950">
        <ele>2616.600</ele>
        <time>2019-07-14T23:09:27Z</time>
      </trkpt>
      <trkpt lat="35.878007930" lon="-106.502044290">
        <ele>2616.600</ele>
        <time>2019-07-14T23:09:28Z</time>
      </trkpt>
      <trkpt lat="35.877971560" lon="-106.502125480">
        <ele>2616.600</ele>
        <time>2019-07-14T23:09:29Z</time>
      </trkpt>
      <trkpt lat="35.877925630" lon="-106.502214550">
        <ele>2617.900</ele>
        <time>2019-07-14T23:09:30Z</time>
      </trkpt>
      <trkpt lat="35.877890590" lon="-106.502303270">
        <ele>2617.600</ele>
        <time>2019-07-14T23:09:31Z</time>
      </trkpt>
      <trkpt lat="35.877875930" lon="-106.502392330">
        <ele>2618.300</ele>
        <time>2019-07-14T23:09:32Z</time>
      </trkpt>
      <trkpt lat="35.877831510" lon="-106.502485110">
        <ele>2619.400</ele>
        <time>2019-07-14T23:09:33Z</time>
      </trkpt>
      <trkpt lat="35.877805110" lon="-106.502567630">
        <ele>2621.500</ele>
        <time>2019-07-14T23:09:34Z</time>
      </trkpt>
      <trkpt lat="35.877789650" lon="-106.502647570">
        <ele>2621.200</ele>
        <time>2019-07-14T23:09:35Z</time>
      </trkpt>
      <trkpt lat="35.877779540" lon="-106.502730490">
        <ele>2618.700</ele>
        <time>2019-07-14T23:09:36Z</time>
      </trkpt>
      <trkpt lat="35.877771290" lon="-106.502822790">
        <ele>2618.500</ele>
        <time>2019-07-14T23:09:37Z</time>
      </trkpt>
      <trkpt lat="35.877754550" lon="-106.502914770">
        <ele>2618.100</ele>
        <time>2019-07-14T23:09:38Z</time>
      </trkpt>
      <trkpt lat="35.877740740" lon="-106.503008010">
        <ele>2618.900</ele>
        <time>2019-07-14T23:09:39Z</time>
      </trkpt>
      <trkpt lat="35.877727370" lon="-106.503100170">
        <ele>2620.500</ele>
        <time>2019-07-14T23:09:40Z</time>
      </trkpt>
      <trkpt lat="35.877706690" lon="-106.503187480">
        <ele>2620.300</ele>
        <time>2019-07-14T23:09:41Z</time>
      </trkpt>
      <trkpt lat="35.877685220" lon="-106.503289840">
        <ele>2620.900</ele>
        <time>2019-07-14T23:09:42Z</time>
      </trkpt>
      <trkpt lat="35.877677320" lon="-106.503390230">
        <ele>2621.500</ele>
        <time>2019-07-14T23:09:43Z</time>
      </trkpt>
      <trkpt lat="35.877680000" lon="-106.503490690">
        <ele>2622.300</ele>
        <time>2019-07-14T23:09:44Z</time>
      </trkpt>
      <trkpt lat="35.877684660" lon="-106.503595430">
        <ele>2622.800</ele>
        <time>2019-07-14T23:09:45Z</time>
      </trkpt>
      <trkpt lat="35.877694850" lon="-106.503687640">
        <ele>2622.400</ele>
        <time>2019-07-14T23:09:46Z</time>
      </trkpt>
      <trkpt lat="35.877704830" lon="-106.503787940">
        <ele>2622.100</ele>
        <time>2019-07-14T23:09:47Z</time>
      </trkpt>
      <trkpt lat="35.877721830" lon="-106.503880040">
        <ele>2623.200</ele>
        <time>2019-07-14T23:09:48Z</time>
      </trkpt>
      <trkpt lat="35.877734710" lon="-106.503978190">
        <ele>2623.300</ele>
        <time>2019-07-14T23:09:49Z</time>
      </trkpt>
      <trkpt lat="35.877748090" lon="-106.504068280">
        <ele>2622.800</ele>
        <time>2019-07-14T23:09:50Z</time>
      </trkpt>
      <trkpt lat="35.877768660" lon="-106.504157410">
        <ele>2623.600</ele>
        <time>2019-07-14T23:09:51Z</time>
      </trkpt>
      <trkpt lat="35.877777480" lon="-106.504254000">
        <ele>2624.600</ele>
        <time>2019-07-14T23:09:52Z</time>
      </trkpt>
      <trkpt lat="35.877789780" lon="-106.504342680">
        <ele>2626.400</ele>
        <time>2019-07-14T23:09:53Z</time>
      </trkpt>
      <trkpt lat="35.877797830" lon="-106.504426660">
        <ele>2626.800</ele>
        <time>2019-07-14T23:09:54Z</time>
      </trkpt>
      <trkpt lat="35.877793760" lon="-106.504516980">
        <ele>2627.200</ele>
        <time>2019-07-14T23:09:55Z</time>
      </trkpt>
      <trkpt lat="35.877787250" lon="-106.504605830">
        <ele>2627.400</ele>
        <time>2019-07-14T23:09:56Z</time>
      </trkpt>
      <trkpt lat="35.877766710" lon="-106.504707860">
        <ele>2627.200</ele>
        <time>2019-07-14T23:09:57Z</time>
      </trkpt>
      <trkpt lat="35.877746480" lon="-106.504808100">
        <ele>2627.500</ele>
        <time>2019-07-14T23:09:58Z</time>
      </trkpt>
      <trkpt lat="35.877726710" lon="-106.504904770">
        <ele>2626.900</ele>
        <time>2019-07-14T23:09:59Z</time>
      </trkpt>
      <trkpt lat="35.877700720" lon="-106.504998680">
        <ele>2627.000</ele>
        <time>2019-07-14T23:10:00Z</time>
      </trkpt>
      <trkpt lat="35.877677880" lon="-106.505098870">
        <ele>2627.700</ele>
        <time>2019-07-14T23:10:01Z</time>
      </trkpt>
      <trkpt lat="35.877646650" lon="-106.505201260">
        <ele>2627.700</ele>
        <time>2019-07-14T23:10:02Z</time>
      </trkpt>
      <trkpt lat="35.877613900" lon="-106.505300820">
        <ele>2628.200</ele>
        <time>2019-07-14T23:10:03Z</time>
      </trkpt>
      <trkpt lat="35.877581530" lon="-106.505401550">
        <ele>2628.200</ele>
        <time>2019-07-14T23:10:04Z</time>
      </trkpt>
      <trkpt lat="35.877539450" lon="-106.505502140">
        <ele>2628.000</ele>
        <time>2019-07-14T23:10:05Z</time>
      </trkpt>
      <trkpt lat="35.877501240" lon="-106.505594640">
        <ele>2626.800</ele>
        <time>2019-07-14T23:10:06Z</time>
      </trkpt>
      <trkpt lat="35.877452840" lon="-106.505685930">
        <ele>2627.200</ele>
        <time>2019-07-14T23:10:07Z</time>
      </trkpt>
      <trkpt lat="35.877395570" lon="-106.505773990">
        <ele>2627.700</ele>
        <time>2019-07-14T23:10:08Z</time>
      </trkpt>
      <trkpt lat="35.877331960" lon="-106.505856180">
        <ele>2627.600</ele>
        <time>2019-07-14T23:10:09Z</time>
      </trkpt>
      <trkpt lat="35.877276440" lon="-106.505937160">
        <ele>2628.100</ele>
        <time>2019-07-14T23:10:10Z</time>
      </trkpt>
      <trkpt lat="35.877208270" lon="-106.506011770">
        <ele>2628.300</ele>
        <time>2019-07-14T23:10:11Z</time>
      </trkpt>
      <trkpt lat="35.877150710" lon="-106.506073140">
        <ele>2628.600</ele>
        <time>2019-07-14T23:10:12Z</time>
      </trkpt>
      <trkpt lat="35.877095510" lon="-106.506131160">
        <ele>2628.700</ele>
        <time>2019-07-14T23:10:13Z</time>
      </trkpt>
      <trkpt lat="35.877049160" lon="-106.506184570">
        <ele>2628.400</ele>
        <time>2019-07-14T23:10:14Z</time>
      </trkpt>
      <trkpt lat="35.877012340" lon="-106.506229260">
        <ele>2628.500</ele>
        <time>2019-07-14T23:10:15Z</time>
      </trkpt>
      <trkpt lat="35.876977280" lon="-106.506287060">
        <ele>2628.900</ele>
        <time>2019-07-14T23:10:16Z</time>
      </trkpt>
      <trkpt lat="35.876960860" lon="-106.506343800">
        <ele>2629.700</ele>
        <time>2019-07-14T23:10:17Z</time>
      </trkpt>
      <trkpt lat="35.876941500" lon="-106.506401580">
        <ele>2629.200</ele>
        <time>2019-07-14T23:10:18Z</time>
      </trkpt>
      <trkpt lat="35.876914160" lon="-106.506468490">
        <ele>2629.500</ele>
        <time>2019-07-14T23:10:19Z</time>
      </trkpt>
      <trkpt lat="35.876892620" lon="-106.506534430">
        <ele>2629.200</ele>
        <time>2019-07-14T23:10:20Z</time>
      </trkpt>
      <trkpt lat="35.876869310" lon="-106.506607290">
        <ele>2630.100</ele>
        <time>2019-07-14T23:10:21Z</time>
      </trkpt>
      <trkpt lat="35.876840160" lon="-106.506678090">
        <ele>2629.200</ele>
        <time>2019-07-14T23:10:22Z</time>
      </trkpt>
      <trkpt lat="35.876823110" lon="-106.506758490">
        <ele>2629.200</ele>
        <time>2019-07-14T23:10:23Z</time>
      </trkpt>
      <trkpt lat="35.876800910" lon="-106.506829250">
        <ele>2630.500</ele>
        <time>2019-07-14T23:10:24Z</time>
      </trkpt>
      <trkpt lat="35.876782690" lon="-106.506907800">
        <ele>2631.700</ele>
        <time>2019-07-14T23:10:25Z</time>
      </trkpt>
      <trkpt lat="35.876755840" lon="-106.506962440">
        <ele>2632.400</ele>
        <time>2019-07-14T23:10:26Z</time>
      </trkpt>
      <trkpt lat="35.876747620" lon="-106.507038570">
        <ele>2633.900</ele>
        <time>2019-07-14T23:10:27Z</time>
      </trkpt>
      <trkpt lat="35.876730220" lon="-106.507100860">
        <ele>2634.800</ele>
        <time>2019-07-14T23:10:28Z</time>
      </trkpt>
      <trkpt lat="35.876701800" lon="-106.507184980">
        <ele>2636.300</ele>
        <time>2019-07-14T23:10:29Z</time>
      </trkpt>
      <trkpt lat="35.876680680" lon="-106.507267270">
        <ele>2636.700</ele>
        <time>2019-07-14T23:10:30Z</time>
      </trkpt>
      <trkpt lat="35.876648780" lon="-106.507353540">
        <ele>2637.200</ele>
        <time>2019-07-14T23:10:31Z</time>
      </trkpt>
      <trkpt lat="35.876625680" lon="-106.507432810">
        <ele>2637.000</ele>
        <time>2019-07-14T23:10:32Z</time>
      </trkpt>
      <trkpt lat="35.876588160" lon="-106.507508430">
        <ele>2636.600</ele>
        <time>2019-07-14T23:10:33Z</time>
      </trkpt>
      <trkpt lat="35.876551760" lon="-106.507590510">
        <ele>2636.000</ele>
        <time>2019-07-14T23:10:34Z</time>
      </trkpt>
      <trkpt lat="35.876526780" lon="-106.507655290">
        <ele>2636.400</ele>
        <time>2019-07-14T23:10:35Z</time>
      </trkpt>
      <trkpt lat="35.876505010" lon="-106.507728580">
        <ele>2636.900</ele>
        <time>2019-07-14T23:10:36Z</time>
      </trkpt>
      <trkpt lat="35.876489220" lon="-106.507789500">
        <ele>2637.900</ele>
        <time>2019-07-14T23:10:37Z</time>
      </trkpt>
      <trkpt lat="35.876467900" lon="-106.507840010">
        <ele>2640.700</ele>
        <time>2019-07-14T23:10:38Z</time>
      </trkpt>
      <trkpt lat="35.876459950" lon="-106.507913530">
        <ele>2642.100</ele>
        <time>2019-07-14T23:10:39Z</time>
      </trkpt>
      <trkpt lat="35.876443390" lon="-106.507974650">
        <ele>2642.700</ele>
        <time>2019-07-14T23:10:40Z</time>
      </trkpt>
      <trkpt lat="35.876425150" lon="-106.508039770">
        <ele>2643.100</ele>
        <time>2019-07-14T23:10:41Z</time>
      </trkpt>
      <trkpt lat="35.876402860" lon="-106.508102220">
        <ele>2643.900</ele>
        <time>2019-07-14T23:10:42Z</time>
      </trkpt>
      <trkpt lat="35.876375000" lon="-106.508164310">
        <ele>2644.000</ele>
        <time>2019-07-14T23:10:43Z</time>
      </trkpt>
      <trkpt lat="35.876343130" lon="-106.508223010">
        <ele>2645.600</ele>
        <time>2019-07-14T23:10:44Z</time>
      </trkpt>
      <trkpt lat="35.876306140" lon="-106.508289060">
        <ele>2646.200</ele>
        <time>2019-07-14T23:10:45Z</time>
      </trkpt>
      <trkpt lat="35.876266610" lon="-106.508360420">
        <ele>2646.000</ele>
        <time>2019-07-14T23:10:46Z</time>
      </trkpt>
      <trkpt lat="35.876226650" lon="-106.508428500">
        <ele>2646.200</ele>
        <time>2019-07-14T23:10:47Z</time>
      </trkpt>
      <trkpt lat="35.876199800" lon="-106.508512670">
        <ele>2644.800</ele>
        <time>2019-07-14T23:10:48Z</time>
      </trkpt>
      <trkpt lat="35.876164970" lon="-106.508593750">
        <ele>2645.700</ele>
        <time>2019-07-14T23:10:49Z</time>
      </trkpt>
      <trkpt lat="35.876172280" lon="-106.508674560">
        <ele>2645.800</ele>
        <time>2019-07-14T23:10:50Z</time>
      </trkpt>
      <trkpt lat="35.876165000" lon="-106.508764200">
        <ele>2646.700</ele>
        <time>2019-07-14T23:10:51Z</time>
      </trkpt>
      <trkpt lat="35.876175860" lon="-106.508836860">
        <ele>2648.700</ele>
        <time>2019-07-14T23:10:52Z</time>
      </trkpt>
      <trkpt lat="35.876172480" lon="-106.508926670">
        <ele>2648.400</ele>
        <time>2019-07-14T23:10:53Z</time>
      </trkpt>
      <trkpt lat="35.876187670" lon="-106.509004220">
        <ele>2649.700</ele>
        <time>2019-07-14T23:10:54Z</time>
      </trkpt>
      <trkpt lat="35.876195670" lon="-106.509089500">
        <ele>2651.000</ele>
        <time>2019-07-14T23:10:55Z</time>
      </trkpt>
      <trkpt lat="35.876184430" lon="-106.509185440">
        <ele>2649.600</ele>
        <time>2019-07-14T23:10:56Z</time>
      </trkpt>
      <trkpt lat="35.876161650" lon="-106.509263120">
        <ele>2649.800</ele>
        <time>2019-07-14T23:10:57Z</time>
      </trkpt>
      <trkpt lat="35.876121090" lon="-106.509320920">
        <ele>2649.600</ele>
        <time>2019-07-14T23:10:58Z</time>
      </trkpt>
      <trkpt lat="35.876083220" lon="-106.509400220">
        <ele>2649.500</ele>
        <time>2019-07-14T23:10:59Z</time>
      </trkpt>
      <trkpt lat="35.876034420" lon="-106.509463070">
        <ele>2647.600</ele>
        <time>2019-07-14T23:11:00Z</time>
      </trkpt>
      <trkpt lat="35.875976780" lon="-106.509519720">
        <ele>2647.900</ele>
        <time>2019-07-14T23:11:01Z</time>
      </trkpt>
      <trkpt lat="35.875909530" lon="-106.509574930">
        <ele>2648.200</ele>
        <time>2019-07-14T23:11:02Z</time>
      </trkpt>
      <trkpt lat="35.875833740" lon="-106.509626860">
        <ele>2648.300</ele>
        <time>2019-07-14T23:11:03Z</time>
      </trkpt>
      <trkpt lat="35.875746760" lon="-106.509682410">
        <ele>2648.100</ele>
        <time>2019-07-14T23:11:04Z</time>
      </trkpt>
      <trkpt lat="35.875656890" lon="-106.509725980">
        <ele>2647.500</ele>
        <time>2019-07-14T23:11:05Z</time>
      </trkpt>
      <trkpt lat="35.875572350" lon="-106.509770790">
        <ele>2647.500</ele>
        <time>2019-07-14T23:11:06Z</time>
      </trkpt>
      <trkpt lat="35.875499440" lon="-106.509803150">
        <ele>2647.600</ele>
        <time>2019-07-14T23:11:07Z</time>
      </trkpt>
      <trkpt lat="35.875413490" lon="-106.509864730">
        <ele>2647.400</ele>
        <time>2019-07-14T23:11:08Z</time>
      </trkpt>
      <trkpt lat="35.875339750" lon="-106.509909980">
        <ele>2647.000</ele>
        <time>2019-07-14T23:11:09Z</time>
      </trkpt>
      <trkpt lat="35.875261150" lon="-106.509968010">
        <ele>2647.500</ele>
        <time>2019-07-14T23:11:10Z</time>
      </trkpt>
      <trkpt lat="35.875187000" lon="-106.510027440">
        <ele>2647.800</ele>
        <time>2019-07-14T23:11:11Z</time>
      </trkpt>
      <trkpt lat="35.875104950" lon="-106.510101370">
        <ele>2647.300</ele>
        <time>2019-07-14T23:11:12Z</time>
      </trkpt>
      <trkpt lat="35.875021070" lon="-106.510160810">
        <ele>2646.700</ele>
        <time>2019-07-14T23:11:13Z</time>
      </trkpt>
      <trkpt lat="35.874932950" lon="-106.510207860">
        <ele>2645.500</ele>
        <time>2019-07-14T23:11:14Z</time>
      </trkpt>
      <trkpt lat="35.874850120" lon="-106.510253330">
        <ele>2645.400</ele>
        <time>2019-07-14T23:11:15Z</time>
      </trkpt>
      <trkpt lat="35.874769210" lon="-106.510275570">
        <ele>2644.900</ele>
        <time>2019-07-14T23:11:16Z</time>
      </trkpt>
      <trkpt lat="35.874683060" lon="-106.510316930">
        <ele>2646.200</ele>
        <time>2019-07-14T23:11:17Z</time>
      </trkpt>
      <trkpt lat="35.874599000" lon="-106.510359070">
        <ele>2646.000</ele>
        <time>2019-07-14T23:11:18Z</time>
      </trkpt>
      <trkpt lat="35.874527770" lon="-106.510410160">
        <ele>2646.400</ele>
        <time>2019-07-14T23:11:19Z</time>
      </trkpt>
      <trkpt lat="35.874452770" lon="-106.510464510">
        <ele>2645.400</ele>
        <time>2019-07-14T23:11:20Z</time>
      </trkpt>
      <trkpt lat="35.874386580" lon="-106.510533280">
        <ele>2645.200</ele>
        <time>2019-07-14T23:11:21Z</time>
      </trkpt>
      <trkpt lat="35.874353380" lon="-106.510617270">
        <ele>2646.300</ele>
        <time>2019-07-14T23:11:22Z</time>
      </trkpt>
      <trkpt lat="35.874297050" lon="-106.510695390">
        <ele>2646.600</ele>
        <time>2019-07-14T23:11:23Z</time>
      </trkpt>
      <trkpt lat="35.874236100" lon="-106.510774600">
        <ele>2646.100</ele>
        <time>2019-07-14T23:11:24Z</time>
      </trkpt>
      <trkpt lat="35.874162260" lon="-106.510824960">
        <ele>2646.500</ele>
        <time>2019-07-14T23:11:25Z</time>
      </trkpt>
      <trkpt lat="35.874074460" lon="-106.510889510">
        <ele>2646.600</ele>
        <time>2019-07-14T23:11:26Z</time>
      </trkpt>
      <trkpt lat="35.873997160" lon="-106.510944200">
        <ele>2646.400</ele>
        <time>2019-07-14T23:11:27Z</time>
      </trkpt>
      <trkpt lat="35.873925850" lon="-106.510996210">
        <ele>2646.600</ele>
        <time>2019-07-14T23:11:28Z</time>
      </trkpt>
      <trkpt lat="35.873858930" lon="-106.511048160">
        <ele>2623.000</ele>
        <time>2019-07-14T23:11:29Z</time>
      </trkpt>
      <trkpt lat="35.873785060" lon="-106.511076850">
        <ele>2629.200</ele>
        <time>2019-07-14T23:11:30Z</time>
      </trkpt>
      <trkpt lat="35.873722580" lon="-106.511118990">
        <ele>2634.600</ele>
        <time>2019-07-14T23:11:31Z</time>
      </trkpt>
      <trkpt lat="35.873663080" lon="-106.511157330">
        <ele>2636.600</ele>
        <time>2019-07-14T23:11:32Z</time>
      </trkpt>
      <trkpt lat="35.873626820" lon="-106.511199820">
        <ele>2637.700</ele>
        <time>2019-07-14T23:11:33Z</time>
      </trkpt>
      <trkpt lat="35.873572460" lon="-106.511240070">
        <ele>2638.500</ele>
        <time>2019-07-14T23:11:34Z</time>
      </trkpt>
      <trkpt lat="35.873530580" lon="-106.511285880">
        <ele>2638.700</ele>
        <time>2019-07-14T23:11:35Z</time>
      </trkpt>
      <trkpt lat="35.873497750" lon="-106.511353490">
        <ele>2639.200</ele>
        <time>2019-07-14T23:11:36Z</time>
      </trkpt>
      <trkpt lat="35.873453110" lon="-106.511402360">
        <ele>2639.900</ele>
        <time>2019-07-14T23:11:37Z</time>
      </trkpt>
      <trkpt lat="35.873415910" lon="-106.511478960">
        <ele>2640.200</ele>
        <time>2019-07-14T23:11:38Z</time>
      </trkpt>
      <trkpt lat="35.873380390" lon="-106.511553010">
        <ele>2640.000</ele>
        <time>2019-07-14T23:11:39Z</time>
      </trkpt>
      <trkpt lat="35.873358480" lon="-106.511618630">
        <ele>2639.600</ele>
        <time>2019-07-14T23:11:40Z</time>
      </trkpt>
      <trkpt lat="35.873330290" lon="-106.511670500">
        <ele>2639.900</ele>
        <time>2019-07-14T23:11:41Z</time>
      </trkpt>
      <trkpt lat="35.873280400" lon="-106.511709820">
        <ele>2640.600</ele>
        <time>2019-07-14T23:11:42Z</time>
      </trkpt>
      <trkpt lat="35.873204940" lon="-106.511739930">
        <ele>2640.300</ele>
        <time>2019-07-14T23:11:43Z</time>
      </trkpt>
      <trkpt lat="35.873139720" lon="-106.511761840">
        <ele>2639.200</ele>
        <time>2019-07-14T23:11:44Z</time>
      </trkpt>
      <trkpt lat="35.873063260" lon="-106.511773920">
        <ele>2638.200</ele>
        <time>2019-07-14T23:11:45Z</time>
      </trkpt>
      <trkpt lat="35.873005260" lon="-106.511808030">
        <ele>2638.000</ele>
        <time>2019-07-14T23:11:46Z</time>
      </trkpt>
      <trkpt lat="35.872930390" lon="-106.511859420">
        <ele>2637.700</ele>
        <time>2019-07-14T23:11:47Z</time>
      </trkpt>
      <trkpt lat="35.872891870" lon="-106.511920680">
        <ele>2637.500</ele>
        <time>2019-07-14T23:11:48Z</time>
      </trkpt>
      <trkpt lat="35.872858870" lon="-106.511978800">
        <ele>2636.600</ele>
        <time>2019-07-14T23:11:49Z</time>
      </trkpt>
      <trkpt lat="35.872831960" lon="-106.512042210">
        <ele>2636.700</ele>
        <time>2019-07-14T23:11:50Z</time>
      </trkpt>
      <trkpt lat="35.872837360" lon="-106.512106460">
        <ele>2637.200</ele>
        <time>2019-07-14T23:11:51Z</time>
      </trkpt>
      <trkpt lat="35.872873360" lon="-106.512167720">
        <ele>2635.800</ele>
        <time>2019-07-14T23:11:52Z</time>
      </trkpt>
      <trkpt lat="35.872893820" lon="-106.512246420">
        <ele>2635.400</ele>
        <time>2019-07-14T23:11:53Z</time>
      </trkpt>
      <trkpt lat="35.872919680" lon="-106.512314620">
        <ele>2636.000</ele>
        <time>2019-07-14T23:11:54Z</time>
      </trkpt>
      <trkpt lat="35.872939860" lon="-106.512393480">
        <ele>2638.000</ele>
        <time>2019-07-14T23:11:55Z</time>
      </trkpt>
      <trkpt lat="35.872953630" lon="-106.512474080">
        <ele>2638.100</ele>
        <time>2019-07-14T23:11:56Z</time>
      </trkpt>
      <trkpt lat="35.872961760" lon="-106.512553560">
        <ele>2638.100</ele>
        <time>2019-07-14T23:11:57Z</time>
      </trkpt>
      <trkpt lat="35.872969250" lon="-106.512630650">
        <ele>2637.700</ele>
        <time>2019-07-14T23:11:58Z</time>
      </trkpt>
      <trkpt lat="35.872953540" lon="-106.512704490">
        <ele>2636.800</ele>
        <time>2019-07-14T23:11:59Z</time>
      </trkpt>
      <trkpt lat="35.872933360" lon="-106.512777740">
        <ele>2636.800</ele>
        <time>2019-07-14T23:12:00Z</time>
      </trkpt>
      <trkpt lat="35.872907220" lon="-106.512846180">
        <ele>2637.300</ele>
        <time>2019-07-14T23:12:01Z</time>
      </trkpt>
      <trkpt lat="35.872844110" lon="-106.512914640">
        <ele>2637.300</ele>
        <time>2019-07-14T23:12:02Z</time>
      </trkpt>
      <trkpt lat="35.872784230" lon="-106.512975120">
        <ele>2636.700</ele>
        <time>2019-07-14T23:12:03Z</time>
      </trkpt>
      <trkpt lat="35.872724270" lon="-106.513030730">
        <ele>2636.500</ele>
        <time>2019-07-14T23:12:04Z</time>
      </trkpt>
      <trkpt lat="35.872644420" lon="-106.513090670">
        <ele>2636.000</ele>
        <time>2019-07-14T23:12:05Z</time>
      </trkpt>
      <trkpt lat="35.872572860" lon="-106.513141920">
        <ele>2635.200</ele>
        <time>2019-07-14T23:12:06Z</time>
      </trkpt>
      <trkpt lat="35.872499670" lon="-106.513186010">
        <ele>2634.500</ele>
        <time>2019-07-14T23:12:07Z</time>
      </trkpt>
      <trkpt lat="35.872430780" lon="-106.513241020">
        <ele>2634.200</ele>
        <time>2019-07-14T23:12:08Z</time>
      </trkpt>
      <trkpt lat="35.872367750" lon="-106.513293040">
        <ele>2634.400</ele>
        <time>2019-07-14T23:12:09Z</time>
      </trkpt>
      <trkpt lat="35.872301530" lon="-106.513354120">
        <ele>2634.100</ele>
        <time>2019-07-14T23:12:10Z</time>
      </trkpt>
      <trkpt lat="35.872253440" lon="-106.513412290">
        <ele>2634.600</ele>
        <time>2019-07-14T23:12:11Z</time>
      </trkpt>
      <trkpt lat="35.872190050" lon="-106.513492090">
        <ele>2633.900</ele>
        <time>2019-07-14T23:12:12Z</time>
      </trkpt>
      <trkpt lat="35.872141790" lon="-106.513566040">
        <ele>2633.700</ele>
        <time>2019-07-14T23:12:13Z</time>
      </trkpt>
      <trkpt lat="35.872084960" lon="-106.513634160">
        <ele>2635.500</ele>
        <time>2019-07-14T23:12:14Z</time>
      </trkpt>
      <trkpt lat="35.872032010" lon="-106.513707260">
        <ele>2635.400</ele>
        <time>2019-07-14T23:12:15Z</time>
      </trkpt>
      <trkpt lat="35.871978330" lon="-106.513780620">
        <ele>2635.200</ele>
        <time>2019-07-14T23:12:16Z</time>
      </trkpt>
      <trkpt lat="35.871925630" lon="-106.513861050">
        <ele>2635.100</ele>
        <time>2019-07-14T23:12:17Z</time>
      </trkpt>
      <trkpt lat="35.871874120" lon="-106.513937350">
        <ele>2634.900</ele>
        <time>2019-07-14T23:12:18Z</time>
      </trkpt>
      <trkpt lat="35.871823220" lon="-106.514013790">
        <ele>2634.400</ele>
        <time>2019-07-14T23:12:19Z</time>
      </trkpt>
      <trkpt lat="35.871768860" lon="-106.514097060">
        <ele>2634.800</ele>
        <time>2019-07-14T23:12:20Z</time>
      </trkpt>
      <trkpt lat="35.871714910" lon="-106.514169620">
        <ele>2634.500</ele>
        <time>2019-07-14T23:12:21Z</time>
      </trkpt>
      <trkpt lat="35.871662240" lon="-106.514249930">
        <ele>2634.700</ele>
        <time>2019-07-14T23:12:22Z</time>
      </trkpt>
      <trkpt lat="35.871604400" lon="-106.514332540">
        <ele>2634.700</ele>
        <time>2019-07-14T23:12:23Z</time>
      </trkpt>
      <trkpt lat="35.871546550" lon="-106.514400980">
        <ele>2635.500</ele>
        <time>2019-07-14T23:12:24Z</time>
      </trkpt>
      <trkpt lat="35.871493750" lon="-106.514472590">
        <ele>2635.000</ele>
        <time>2019-07-14T23:12:25Z</time>
      </trkpt>
      <trkpt lat="35.871434380" lon="-106.514551290">
        <ele>2636.200</ele>
        <time>2019-07-14T23:12:26Z</time>
      </trkpt>
      <trkpt lat="35.871376600" lon="-106.514620620">
        <ele>2636.100</ele>
        <time>2019-07-14T23:12:27Z</time>
      </trkpt>
      <trkpt lat="35.871324250" lon="-106.514691300">
        <ele>2636.300</ele>
        <time>2019-07-14T23:12:28Z</time>
      </trkpt>
      <trkpt lat="35.871261710" lon="-106.514753310">
        <ele>2636.300</ele>
        <time>2019-07-14T23:12:29Z</time>
      </trkpt>
      <trkpt lat="35.871201900" lon="-106.514804800">
        <ele>2636.100</ele>
        <time>2019-07-14T23:12:30Z</time>
      </trkpt>
      <trkpt lat="35.871146810" lon="-106.514838520">
        <ele>2635.900</ele>
        <time>2019-07-14T23:12:31Z</time>
      </trkpt>
      <trkpt lat="35.871084810" lon="-106.514882260">
        <ele>2636.700</ele>
        <time>2019-07-14T23:12:32Z</time>
      </trkpt>
      <trkpt lat="35.871015110" lon="-106.514922510">
        <ele>2637.000</ele>
        <time>2019-07-14T23:12:33Z</time>
      </trkpt>
      <trkpt lat="35.870947090" lon="-106.514963210">
        <ele>2637.300</ele>
        <time>2019-07-14T23:12:34Z</time>
      </trkpt>
      <trkpt lat="35.870871610" lon="-106.515001460">
        <ele>2636.700</ele>
        <time>2019-07-14T23:12:35Z</time>
      </trkpt>
      <trkpt lat="35.870798090" lon="-106.515042010">
        <ele>2636.800</ele>
        <time>2019-07-14T23:12:36Z</time>
      </trkpt>
      <trkpt lat="35.870728120" lon="-106.515077650">
        <ele>2637.000</ele>
        <time>2019-07-14T23:12:37Z</time>
      </trkpt>
      <trkpt lat="35.870657010" lon="-106.515124260">
        <ele>2636.700</ele>
        <time>2019-07-14T23:12:38Z</time>
      </trkpt>
      <trkpt lat="35.870578020" lon="-106.515180380">
        <ele>2637.200</ele>
        <time>2019-07-14T23:12:39Z</time>
      </trkpt>
      <trkpt lat="35.870495830" lon="-106.515232250">
        <ele>2636.700</ele>
        <time>2019-07-14T23:12:40Z</time>
      </trkpt>
      <trkpt lat="35.870415370" lon="-106.515288570">
        <ele>2636.300</ele>
        <time>2019-07-14T23:12:41Z</time>
      </trkpt>
      <trkpt lat="35.870350270" lon="-106.515343560">
        <ele>2637.600</ele>
        <time>2019-07-14T23:12:42Z</time>
      </trkpt>
      <trkpt lat="35.870274290" lon="-106.515394850">
        <ele>2637.600</ele>
        <time>2019-07-14T23:12:43Z</time>
      </trkpt>
      <trkpt lat="35.870196590" lon="-106.515438940">
        <ele>2637.600</ele>
        <time>2019-07-14T23:12:44Z</time>
      </trkpt>
      <trkpt lat="35.870122400" lon="-106.515474970">
        <ele>2637.600</ele>
        <time>2019-07-14T23:12:45Z</time>
      </trkpt>
      <trkpt lat="35.870039730" lon="-106.515512950">
        <ele>2637.500</ele>
        <time>2019-07-14T23:12:46Z</time>
      </trkpt>
      <trkpt lat="35.869960240" lon="-106.515551040">
        <ele>2637.800</ele>
        <time>2019-07-14T23:12:47Z</time>
      </trkpt>
      <trkpt lat="35.869873040" lon="-106.515590350">
        <ele>2638.400</ele>
        <time>2019-07-14T23:12:48Z</time>
      </trkpt>
      <trkpt lat="35.869784740" lon="-106.515628230">
        <ele>2638.500</ele>
        <time>2019-07-14T23:12:49Z</time>
      </trkpt>
      <trkpt lat="35.869697820" lon="-106.515669540">
        <ele>2637.800</ele>
        <time>2019-07-14T23:12:50Z</time>
      </trkpt>
      <trkpt lat="35.869613210" lon="-106.515709000">
        <ele>2637.800</ele>
        <time>2019-07-14T23:12:51Z</time>
      </trkpt>
      <trkpt lat="35.869552870" lon="-106.515763320">
        <ele>2639.200</ele>
        <time>2019-07-14T23:12:52Z</time>
      </trkpt>
      <trkpt lat="35.869470330" lon="-106.515803670">
        <ele>2639.200</ele>
        <time>2019-07-14T23:12:53Z</time>
      </trkpt>
      <trkpt lat="35.869396200" lon="-106.515846900">
        <ele>2639.400</ele>
        <time>2019-07-14T23:12:54Z</time>
      </trkpt>
      <trkpt lat="35.869319690" lon="-106.515891880">
        <ele>2639.900</ele>
        <time>2019-07-14T23:12:55Z</time>
      </trkpt>
      <trkpt lat="35.869239710" lon="-106.515933690">
        <ele>2640.200</ele>
        <time>2019-07-14T23:12:56Z</time>
      </trkpt>
      <trkpt lat="35.869157750" lon="-106.515969670">
        <ele>2640.100</ele>
        <time>2019-07-14T23:12:57Z</time>
      </trkpt>
      <trkpt lat="35.869069570" lon="-106.515985940">
        <ele>2640.000</ele>
        <time>2019-07-14T23:12:58Z</time>
      </trkpt>
      <trkpt lat="35.868977250" lon="-106.515990850">
        <ele>2639.900</ele>
        <time>2019-07-14T23:12:59Z</time>
      </trkpt>
      <trkpt lat="35.868890670" lon="-106.515981140">
        <ele>2639.900</ele>
        <time>2019-07-14T23:13:00Z</time>
      </trkpt>
      <trkpt lat="35.868803490" lon="-106.515963340">
        <ele>2638.700</ele>
        <time>2019-07-14T23:13:01Z</time>
      </trkpt>
      <trkpt lat="35.868705730" lon="-106.515932860">
        <ele>2638.400</ele>
        <time>2019-07-14T23:13:02Z</time>
      </trkpt>
      <trkpt lat="35.868613390" lon="-106.515901460">
        <ele>2639.800</ele>
        <time>2019-07-14T23:13:03Z</time>
      </trkpt>
      <trkpt lat="35.868518870" lon="-106.515876600">
        <ele>2639.800</ele>
        <time>2019-07-14T23:13:04Z</time>
      </trkpt>
      <trkpt lat="35.868423380" lon="-106.515848800">
        <ele>2639.400</ele>
        <time>2019-07-14T23:13:05Z</time>
      </trkpt>
      <trkpt lat="35.868341000" lon="-106.515826590">
        <ele>2641.900</ele>
        <time>2019-07-14T23:13:06Z</time>
      </trkpt>
      <trkpt lat="35.868249490" lon="-106.515802660">
        <ele>2642.300</ele>
        <time>2019-07-14T23:13:07Z</time>
      </trkpt>
      <trkpt lat="35.868153410" lon="-106.515783900">
        <ele>2642.200</ele>
        <time>2019-07-14T23:13:08Z</time>
      </trkpt>
      <trkpt lat="35.868063010" lon="-106.515768350">
        <ele>2642.100</ele>
        <time>2019-07-14T23:13:09Z</time>
      </trkpt>
      <trkpt lat="35.867964510" lon="-106.515762100">
        <ele>2641.300</ele>
        <time>2019-07-14T23:13:10Z</time>
      </trkpt>
      <trkpt lat="35.867871340" lon="-106.515748780">
        <ele>2640.200</ele>
        <time>2019-07-14T23:13:11Z</time>
      </trkpt>
      <trkpt lat="35.867780240" lon="-106.515734870">
        <ele>2640.300</ele>
        <time>2019-07-14T23:13:12Z</time>
      </trkpt>
      <trkpt lat="35.867695750" lon="-106.515728930">
        <ele>2640.800</ele>
        <time>2019-07-14T23:13:13Z</time>
      </trkpt>
      <trkpt lat="35.867615110" lon="-106.515716300">
        <ele>2641.400</ele>
        <time>2019-07-14T23:13:14Z</time>
      </trkpt>
      <trkpt lat="35.867535790" lon="-106.515710780">
        <ele>2642.600</ele>
        <time>2019-07-14T23:13:15Z</time>
      </trkpt>
      <trkpt lat="35.867446280" lon="-106.515708100">
        <ele>2641.700</ele>
        <time>2019-07-14T23:13:16Z</time>
      </trkpt>
      <trkpt lat="35.867362200" lon="-106.515702650">
        <ele>2641.800</ele>
        <time>2019-07-14T23:13:17Z</time>
      </trkpt>
      <trkpt lat="35.867278620" lon="-106.515698050">
        <ele>2641.800</ele>
        <time>2019-07-14T23:13:18Z</time>
      </trkpt>
      <trkpt lat="35.867197340" lon="-106.515688160">
        <ele>2642.300</ele>
        <time>2019-07-14T23:13:19Z</time>
      </trkpt>
      <trkpt lat="35.867117040" lon="-106.515709370">
        <ele>2642.000</ele>
        <time>2019-07-14T23:13:20Z</time>
      </trkpt>
      <trkpt lat="35.867039100" lon="-106.515733140">
        <ele>2640.900</ele>
        <time>2019-07-14T23:13:21Z</time>
      </trkpt>
      <trkpt lat="35.866976270" lon="-106.515760830">
        <ele>2640.800</ele>
        <time>2019-07-14T23:13:22Z</time>
      </trkpt>
      <trkpt lat="35.866920800" lon="-106.515810680">
        <ele>2641.300</ele>
        <time>2019-07-14T23:13:23Z</time>
      </trkpt>
      <trkpt lat="35.866859150" lon="-106.515856790">
        <ele>2640.500</ele>
        <time>2019-07-14T23:13:24Z</time>
      </trkpt>
      <trkpt lat="35.866795870" lon="-106.515904070">
        <ele>2640.200</ele>
        <time>2019-07-14T23:13:25Z</time>
      </trkpt>
      <trkpt lat="35.866732710" lon="-106.515957510">
        <ele>2640.700</ele>
        <time>2019-07-14T23:13:26Z</time>
      </trkpt>
      <trkpt lat="35.866670090" lon="-106.515998420">
        <ele>2641.000</ele>
        <time>2019-07-14T23:13:27Z</time>
      </trkpt>
      <trkpt lat="35.866639490" lon="-106.516029360">
        <ele>2640.500</ele>
        <time>2019-07-14T23:13:28Z</time>
      </trkpt>
      <trkpt lat="35.866579600" lon="-106.516058420">
        <ele>2641.300</ele>
        <time>2019-07-14T23:13:29Z</time>
      </trkpt>
      <trkpt lat="35.866542580" lon="-106.516089270">
        <ele>2641.400</ele>
        <time>2019-07-14T23:13:30Z</time>
      </trkpt>
      <trkpt lat="35.866485270" lon="-106.516131140">
        <ele>2642.000</ele>
        <time>2019-07-14T23:13:31Z</time>
      </trkpt>
      <trkpt lat="35.866417690" lon="-106.516170100">
        <ele>2644.000</ele>
        <time>2019-07-14T23:13:32Z</time>
      </trkpt>
      <trkpt lat="35.866371470" lon="-106.516217430">
        <ele>2643.000</ele>
        <time>2019-07-14T23:13:33Z</time>
      </trkpt>
      <trkpt lat="35.866304090" lon="-106.516268640">
        <ele>2644.200</ele>
        <time>2019-07-14T23:13:34Z</time>
      </trkpt>
      <trkpt lat="35.866243570" lon="-106.516332350">
        <ele>2644.100</ele>
        <time>2019-07-14T23:13:35Z</time>
      </trkpt>
      <trkpt lat="35.866188930" lon="-106.516389400">
        <ele>2644.000</ele>
        <time>2019-07-14T23:13:36Z</time>
      </trkpt>
      <trkpt lat="35.866135230" lon="-106.516454620">
        <ele>2644.800</ele>
        <time>2019-07-14T23:13:37Z</time>
      </trkpt>
      <trkpt lat="35.866089410" lon="-106.516520510">
        <ele>2645.600</ele>
        <time>2019-07-14T23:13:38Z</time>
      </trkpt>
      <trkpt lat="35.866039360" lon="-106.516590180">
        <ele>2646.500</ele>
        <time>2019-07-14T23:13:39Z</time>
      </trkpt>
      <trkpt lat="35.865993520" lon="-106.516657500">
        <ele>2646.700</ele>
        <time>2019-07-14T23:13:40Z</time>
      </trkpt>
      <trkpt lat="35.865935100" lon="-106.516728300">
        <ele>2646.200</ele>
        <time>2019-07-14T23:13:41Z</time>
      </trkpt>
      <trkpt lat="35.865887050" lon="-106.516789550">
        <ele>2646.000</ele>
        <time>2019-07-14T23:13:42Z</time>
      </trkpt>
      <trkpt lat="35.865835240" lon="-106.516854100">
        <ele>2645.800</ele>
        <time>2019-07-14T23:13:43Z</time>
      </trkpt>
      <trkpt lat="35.865805480" lon="-106.516892240">
        <ele>2648.600</ele>
        <time>2019-07-14T23:13:44Z</time>
      </trkpt>
      <trkpt lat="35.865769320" lon="-106.516942050">
        <ele>2649.400</ele>
        <time>2019-07-14T23:13:45Z</time>
      </trkpt>
      <trkpt lat="35.865727200" lon="-106.516982460">
        <ele>2649.500</ele>
        <time>2019-07-14T23:13:46Z</time>
      </trkpt>
      <trkpt lat="35.865679630" lon="-106.517022380">
        <ele>2650.400</ele>
        <time>2019-07-14T23:13:47Z</time>
      </trkpt>
      <trkpt lat="35.865643450" lon="-106.517074670">
        <ele>2651.300</ele>
        <time>2019-07-14T23:13:48Z</time>
      </trkpt>
      <trkpt lat="35.865591440" lon="-106.517129830">
        <ele>2651.700</ele>
        <time>2019-07-14T23:13:49Z</time>
      </trkpt>
      <trkpt lat="35.865533890" lon="-106.517163130">
        <ele>2650.700</ele>
        <time>2019-07-14T23:13:50Z</time>
      </trkpt>
      <trkpt lat="35.865494110" lon="-106.517215230">
        <ele>2650.900</ele>
        <time>2019-07-14T23:13:51Z</time>
      </trkpt>
      <trkpt lat="35.865446680" lon="-106.517259330">
        <ele>2650.200</ele>
        <time>2019-07-14T23:13:52Z</time>
      </trkpt>
      <trkpt lat="35.865395040" lon="-106.517298090">
        <ele>2650.400</ele>
        <time>2019-07-14T23:13:53Z</time>
      </trkpt>
      <trkpt lat="35.865349640" lon="-106.517337880">
        <ele>2651.000</ele>
        <time>2019-07-14T23:13:54Z</time>
      </trkpt>
      <trkpt lat="35.865313060" lon="-106.517369040">
        <ele>2649.200</ele>
        <time>2019-07-14T23:13:55Z</time>
      </trkpt>
      <trkpt lat="35.865266570" lon="-106.517402400">
        <ele>2647.600</ele>
        <time>2019-07-14T23:13:56Z</time>
      </trkpt>
      <trkpt lat="35.865226260" lon="-106.517435390">
        <ele>2647.500</ele>
        <time>2019-07-14T23:13:57Z</time>
      </trkpt>
      <trkpt lat="35.865187090" lon="-106.517501990">
        <ele>2647.200</ele>
        <time>2019-07-14T23:13:59Z</time>
      </trkpt>
      <trkpt lat="35.865153340" lon="-106.517538080">
        <ele>2647.800</ele>
        <time>2019-07-14T23:14:00Z</time>
      </trkpt>
      <trkpt lat="35.865120450" lon="-106.517573120">
        <ele>2647.000</ele>
        <time>2019-07-14T23:14:01Z</time>
      </trkpt>
      <trkpt lat="35.865090790" lon="-106.517600770">
        <ele>2646.200</ele>
        <time>2019-07-14T23:14:02Z</time>
      </trkpt>
      <trkpt lat="35.865060890" lon="-106.517666060">
        <ele>2645.300</ele>
        <time>2019-07-14T23:14:04Z</time>
      </trkpt>
      <trkpt lat="35.865033830" lon="-106.517700800">
        <ele>2645.000</ele>
        <time>2019-07-14T23:14:05Z</time>
      </trkpt>
      <trkpt lat="35.865006870" lon="-106.517743760">
        <ele>2644.000</ele>
        <time>2019-07-14T23:14:06Z</time>
      </trkpt>
      <trkpt lat="35.864984640" lon="-106.517789970">
        <ele>2644.100</ele>
        <time>2019-07-14T23:14:07Z</time>
      </trkpt>
      <trkpt lat="35.864955830" lon="-106.517830270">
        <ele>2644.600</ele>
        <time>2019-07-14T23:14:08Z</time>
      </trkpt>
      <trkpt lat="35.864931300" lon="-106.517870840">
        <ele>2644.200</ele>
        <time>2019-07-14T23:14:09Z</time>
      </trkpt>
      <trkpt lat="35.864901550" lon="-106.517905770">
        <ele>2644.500</ele>
        <time>2019-07-14T23:14:10Z</time>
      </trkpt>
      <trkpt lat="35.864857440" lon="-106.517940900">
        <ele>2645.100</ele>
        <time>2019-07-14T23:14:12Z</time>
      </trkpt>
      <trkpt lat="35.864818760" lon="-106.517961210">
        <ele>2645.100</ele>
        <time>2019-07-14T23:14:29Z</time>
      </trkpt>
      <trkpt lat="35.864792920" lon="-106.517998600">
        <ele>2645.500</ele>
        <time>2019-07-14T23:14:38Z</time>
      </trkpt>
      <trkpt lat="35.864747480" lon="-106.518035930">
        <ele>2645.700</ele>
        <time>2019-07-14T23:14:40Z</time>
      </trkpt>
      <trkpt lat="35.864692780" lon="-106.518082440">
        <ele>2646.000</ele>
        <time>2019-07-14T23:14:42Z</time>
      </trkpt>
      <trkpt lat="35.864657600" lon="-106.518105800">
        <ele>2645.800</ele>
        <time>2019-07-14T23:14:43Z</time>
      </trkpt>
      <trkpt lat="35.864591120" lon="-106.518103240">
        <ele>2644.500</ele>
        <time>2019-07-14T23:14:44Z</time>
      </trkpt>
      <trkpt lat="35.864549480" lon="-106.518107240">
        <ele>2645.300</ele>
        <time>2019-07-14T23:14:45Z</time>
      </trkpt>
      <trkpt lat="35.864482570" lon="-106.518094380">
        <ele>2644.400</ele>
        <time>2019-07-14T23:14:46Z</time>
      </trkpt>
      <trkpt lat="35.864422560" lon="-106.518077050">
        <ele>2643.400</ele>
        <time>2019-07-14T23:14:47Z</time>
      </trkpt>
      <trkpt lat="35.864361490" lon="-106.518033890">
        <ele>2642.000</ele>
        <time>2019-07-14T23:14:48Z</time>
      </trkpt>
      <trkpt lat="35.864311640" lon="-106.517991630">
        <ele>2641.800</ele>
        <time>2019-07-14T23:14:49Z</time>
      </trkpt>
      <trkpt lat="35.864253830" lon="-106.517936600">
        <ele>2641.300</ele>
        <time>2019-07-14T23:14:50Z</time>
      </trkpt>
      <trkpt lat="35.864205480" lon="-106.517874870">
        <ele>2641.100</ele>
        <time>2019-07-14T23:14:51Z</time>
      </trkpt>
      <trkpt lat="35.864152690" lon="-106.517806640">
        <ele>2640.900</ele>
        <time>2019-07-14T23:14:52Z</time>
      </trkpt>
      <trkpt lat="35.864097390" lon="-106.517736430">
        <ele>2640.200</ele>
        <time>2019-07-14T23:14:53Z</time>
      </trkpt>
      <trkpt lat="35.864053920" lon="-106.517674050">
        <ele>2639.900</ele>
        <time>2019-07-14T23:14:54Z</time>
      </trkpt>
      <trkpt lat="35.864019300" lon="-106.517621240">
        <ele>2640.200</ele>
        <time>2019-07-14T23:14:55Z</time>
      </trkpt>
      <trkpt lat="35.863985310" lon="-106.517565150">
        <ele>2639.500</ele>
        <time>2019-07-14T23:14:56Z</time>
      </trkpt>
      <trkpt lat="35.863945370" lon="-106.517505490">
        <ele>2640.300</ele>
        <time>2019-07-14T23:14:57Z</time>
      </trkpt>
      <trkpt lat="35.863914020" lon="-106.517447370">
        <ele>2640.200</ele>
        <time>2019-07-14T23:14:58Z</time>
      </trkpt>
      <trkpt lat="35.863893990" lon="-106.517384100">
        <ele>2640.700</ele>
        <time>2019-07-14T23:14:59Z</time>
      </trkpt>
      <trkpt lat="35.863856340" lon="-106.517324760">
        <ele>2639.800</ele>
        <time>2019-07-14T23:15:00Z</time>
      </trkpt>
      <trkpt lat="35.863821570" lon="-106.517265380">
        <ele>2639.700</ele>
        <time>2019-07-14T23:15:01Z</time>
      </trkpt>
      <trkpt lat="35.863784110" lon="-106.517202200">
        <ele>2639.900</ele>
        <time>2019-07-14T23:15:02Z</time>
      </trkpt>
      <trkpt lat="35.863741600" lon="-106.517128110">
        <ele>2639.500</ele>
        <time>2019-07-14T23:15:03Z</time>
      </trkpt>
      <trkpt lat="35.863704850" lon="-106.517059460">
        <ele>2639.600</ele>
        <time>2019-07-14T23:15:04Z</time>
      </trkpt>
      <trkpt lat="35.863669320" lon="-106.516988750">
        <ele>2639.700</ele>
        <time>2019-07-14T23:15:05Z</time>
      </trkpt>
      <trkpt lat="35.863617480" lon="-106.516894350">
        <ele>2638.400</ele>
        <time>2019-07-14T23:15:06Z</time>
      </trkpt>
      <trkpt lat="35.863574910" lon="-106.516810780">
        <ele>2637.400</ele>
        <time>2019-07-14T23:15:07Z</time>
      </trkpt>
      <trkpt lat="35.863533330" lon="-106.516732560">
        <ele>2636.400</ele>
        <time>2019-07-14T23:15:08Z</time>
      </trkpt>
      <trkpt lat="35.863484760" lon="-106.516636660">
        <ele>2635.500</ele>
        <time>2019-07-14T23:15:09Z</time>
      </trkpt>
      <trkpt lat="35.863439100" lon="-106.516540600">
        <ele>2634.700</ele>
        <time>2019-07-14T23:15:10Z</time>
      </trkpt>
      <trkpt lat="35.863385950" lon="-106.516438560">
        <ele>2633.800</ele>
        <time>2019-07-14T23:15:11Z</time>
      </trkpt>
      <trkpt lat="35.863335610" lon="-106.516339220">
        <ele>2633.800</ele>
        <time>2019-07-14T23:15:12Z</time>
      </trkpt>
      <trkpt lat="35.863287880" lon="-106.516236930">
        <ele>2633.500</ele>
        <time>2019-07-14T23:15:13Z</time>
      </trkpt>
      <trkpt lat="35.863234840" lon="-106.516131810">
        <ele>2631.000</ele>
        <time>2019-07-14T23:15:14Z</time>
      </trkpt>
      <trkpt lat="35.863185000" lon="-106.516032730">
        <ele>2629.900</ele>
        <time>2019-07-14T23:15:15Z</time>
      </trkpt>
      <trkpt lat="35.863142420" lon="-106.515926930">
        <ele>2627.900</ele>
        <time>2019-07-14T23:15:16Z</time>
      </trkpt>
      <trkpt lat="35.863087300" lon="-106.515821280">
        <ele>2628.200</ele>
        <time>2019-07-14T23:15:17Z</time>
      </trkpt>
      <trkpt lat="35.863036180" lon="-106.515710220">
        <ele>2626.500</ele>
        <time>2019-07-14T23:15:18Z</time>
      </trkpt>
      <trkpt lat="35.862982960" lon="-106.515600870">
        <ele>2625.800</ele>
        <time>2019-07-14T23:15:19Z</time>
      </trkpt>
      <trkpt lat="35.862924610" lon="-106.515494750">
        <ele>2624.800</ele>
        <time>2019-07-14T23:15:20Z</time>
      </trkpt>
      <trkpt lat="35.862867110" lon="-106.515390000">
        <ele>2624.000</ele>
        <time>2019-07-14T23:15:21Z</time>
      </trkpt>
      <trkpt lat="35.862811790" lon="-106.515271070">
        <ele>2622.700</ele>
        <time>2019-07-14T23:15:22Z</time>
      </trkpt>
      <trkpt lat="35.862756540" lon="-106.515165460">
        <ele>2622.500</ele>
        <time>2019-07-14T23:15:23Z</time>
      </trkpt>
      <trkpt lat="35.862698110" lon="-106.515060030">
        <ele>2621.400</ele>
        <time>2019-07-14T23:15:24Z</time>
      </trkpt>
      <trkpt lat="35.862642380" lon="-106.514961830">
        <ele>2619.900</ele>
        <time>2019-07-14T23:15:25Z</time>
      </trkpt>
      <trkpt lat="35.862588740" lon="-106.514863940">
        <ele>2619.200</ele>
        <time>2019-07-14T23:15:26Z</time>
      </trkpt>
      <trkpt lat="35.862531790" lon="-106.514763680">
        <ele>2618.100</ele>
        <time>2019-07-14T23:15:27Z</time>
      </trkpt>
      <trkpt lat="35.862478580" lon="-106.514667380">
        <ele>2617.200</ele>
        <time>2019-07-14T23:15:28Z</time>
      </trkpt>
      <trkpt lat="35.862416370" lon="-106.514563470">
        <ele>2616.000</ele>
        <time>2019-07-14T23:15:29Z</time>
      </trkpt>
      <trkpt lat="35.862352480" lon="-106.514455490">
        <ele>2616.300</ele>
        <time>2019-07-14T23:15:30Z</time>
      </trkpt>
      <trkpt lat="35.862291400" lon="-106.514348510">
        <ele>2615.700</ele>
        <time>2019-07-14T23:15:31Z</time>
      </trkpt>
      <trkpt lat="35.862240170" lon="-106.514248810">
        <ele>2615.000</ele>
        <time>2019-07-14T23:15:32Z</time>
      </trkpt>
      <trkpt lat="35.862185060" lon="-106.514149740">
        <ele>2614.800</ele>
        <time>2019-07-14T23:15:33Z</time>
      </trkpt>
      <trkpt lat="35.862127270" lon="-106.514050450">
        <ele>2614.700</ele>
        <time>2019-07-14T23:15:34Z</time>
      </trkpt>
      <trkpt lat="35.862081670" lon="-106.513948640">
        <ele>2614.000</ele>
        <time>2019-07-14T23:15:35Z</time>
      </trkpt>
      <trkpt lat="35.862033420" lon="-106.513849960">
        <ele>2612.900</ele>
        <time>2019-07-14T23:15:36Z</time>
      </trkpt>
      <trkpt lat="35.861993120" lon="-106.513749050">
        <ele>2611.900</ele>
        <time>2019-07-14T23:15:37Z</time>
      </trkpt>
      <trkpt lat="35.861960010" lon="-106.513641710">
        <ele>2612.400</ele>
        <time>2019-07-14T23:15:38Z</time>
      </trkpt>
      <trkpt lat="35.861923780" lon="-106.513538470">
        <ele>2611.500</ele>
        <time>2019-07-14T23:15:39Z</time>
      </trkpt>
      <trkpt lat="35.861890220" lon="-106.513432650">
        <ele>2611.800</ele>
        <time>2019-07-14T23:15:40Z</time>
      </trkpt>
      <trkpt lat="35.861856870" lon="-106.513327760">
        <ele>2611.700</ele>
        <time>2019-07-14T23:15:41Z</time>
      </trkpt>
      <trkpt lat="35.861832620" lon="-106.513234620">
        <ele>2611.300</ele>
        <time>2019-07-14T23:15:42Z</time>
      </trkpt>
      <trkpt lat="35.861798220" lon="-106.513124350">
        <ele>2611.800</ele>
        <time>2019-07-14T23:15:43Z</time>
      </trkpt>
      <trkpt lat="35.861756250" lon="-106.513018970">
        <ele>2612.000</ele>
        <time>2019-07-14T23:15:44Z</time>
      </trkpt>
      <trkpt lat="35.861720580" lon="-106.512924380">
        <ele>2611.100</ele>
        <time>2019-07-14T23:15:45Z</time>
      </trkpt>
      <trkpt lat="35.861683130" lon="-106.512827480">
        <ele>2610.900</ele>
        <time>2019-07-14T23:15:46Z</time>
      </trkpt>
      <trkpt lat="35.861635970" lon="-106.512749820">
        <ele>2610.600</ele>
        <time>2019-07-14T23:15:47Z</time>
      </trkpt>
      <trkpt lat="35.861586000" lon="-106.512669160">
        <ele>2610.600</ele>
        <time>2019-07-14T23:15:48Z</time>
      </trkpt>
      <trkpt lat="35.861533650" lon="-106.512597880">
        <ele>2610.100</ele>
        <time>2019-07-14T23:15:49Z</time>
      </trkpt>
      <trkpt lat="35.861479210" lon="-106.512539740">
        <ele>2610.400</ele>
        <time>2019-07-14T23:15:50Z</time>
      </trkpt>
      <trkpt lat="35.861416270" lon="-106.512476780">
        <ele>2609.500</ele>
        <time>2019-07-14T23:15:51Z</time>
      </trkpt>
      <trkpt lat="35.861360680" lon="-106.512427660">
        <ele>2610.000</ele>
        <time>2019-07-14T23:15:52Z</time>
      </trkpt>
      <trkpt lat="35.861293460" lon="-106.512364220">
        <ele>2609.000</ele>
        <time>2019-07-14T23:15:53Z</time>
      </trkpt>
      <trkpt lat="35.861230760" lon="-106.512301950">
        <ele>2608.200</ele>
        <time>2019-07-14T23:15:54Z</time>
      </trkpt>
      <trkpt lat="35.861166220" lon="-106.512237470">
        <ele>2607.500</ele>
        <time>2019-07-14T23:15:55Z</time>
      </trkpt>
      <trkpt lat="35.861099580" lon="-106.512175240">
        <ele>2607.100</ele>
        <time>2019-07-14T23:15:56Z</time>
      </trkpt>
      <trkpt lat="35.861032430" lon="-106.512117960">
        <ele>2606.800</ele>
        <time>2019-07-14T23:15:57Z</time>
      </trkpt>
      <trkpt lat="35.860969330" lon="-106.512057120">
        <ele>2606.400</ele>
        <time>2019-07-14T23:15:58Z</time>
      </trkpt>
      <trkpt lat="35.860910580" lon="-106.511994470">
        <ele>2606.800</ele>
        <time>2019-07-14T23:15:59Z</time>
      </trkpt>
      <trkpt lat="35.860841570" lon="-106.511938410">
        <ele>2605.600</ele>
        <time>2019-07-14T23:16:00Z</time>
      </trkpt>
      <trkpt lat="35.860763030" lon="-106.511874340">
        <ele>2605.000</ele>
        <time>2019-07-14T23:16:01Z</time>
      </trkpt>
      <trkpt lat="35.860687470" lon="-106.511807270">
        <ele>2604.400</ele>
        <time>2019-07-14T23:16:02Z</time>
      </trkpt>
      <trkpt lat="35.860612230" lon="-106.511743550">
        <ele>2604.500</ele>
        <time>2019-07-14T23:16:03Z</time>
      </trkpt>
      <trkpt lat="35.860536920" lon="-106.511683140">
        <ele>2603.900</ele>
        <time>2019-07-14T23:16:04Z</time>
      </trkpt>
      <trkpt lat="35.860458800" lon="-106.511623600">
        <ele>2603.600</ele>
        <time>2019-07-14T23:16:05Z</time>
      </trkpt>
      <trkpt lat="35.860386280" lon="-106.511566920">
        <ele>2603.100</ele>
        <time>2019-07-14T23:16:06Z</time>
      </trkpt>
      <trkpt lat="35.860310340" lon="-106.511505200">
        <ele>2603.700</ele>
        <time>2019-07-14T23:16:07Z</time>
      </trkpt>
      <trkpt lat="35.860237360" lon="-106.511446580">
        <ele>2603.800</ele>
        <time>2019-07-14T23:16:08Z</time>
      </trkpt>
      <trkpt lat="35.860162920" lon="-106.511381120">
        <ele>2604.400</ele>
        <time>2019-07-14T23:16:09Z</time>
      </trkpt>
      <trkpt lat="35.860075320" lon="-106.511305660">
        <ele>2603.200</ele>
        <time>2019-07-14T23:16:10Z</time>
      </trkpt>
      <trkpt lat="35.859998680" lon="-106.511239000">
        <ele>2602.600</ele>
        <time>2019-07-14T23:16:11Z</time>
      </trkpt>
      <trkpt lat="35.859918980" lon="-106.511167020">
        <ele>2601.900</ele>
        <time>2019-07-14T23:16:12Z</time>
      </trkpt>
      <trkpt lat="35.859840600" lon="-106.511101080">
        <ele>2601.800</ele>
        <time>2019-07-14T23:16:13Z</time>
      </trkpt>
      <trkpt lat="35.859757660" lon="-106.511031900">
        <ele>2601.200</ele>
        <time>2019-07-14T23:16:14Z</time>
      </trkpt>
      <trkpt lat="35.859687910" lon="-106.510963740">
        <ele>2601.800</ele>
        <time>2019-07-14T23:16:15Z</time>
      </trkpt>
      <trkpt lat="35.859610880" lon="-106.510893340">
        <ele>2601.000</ele>
        <time>2019-07-14T23:16:16Z</time>
      </trkpt>
      <trkpt lat="35.859529690" lon="-106.510817210">
        <ele>2601.100</ele>
        <time>2019-07-14T23:16:17Z</time>
      </trkpt>
      <trkpt lat="35.859451670" lon="-106.510748280">
        <ele>2600.500</ele>
        <time>2019-07-14T23:16:18Z</time>
      </trkpt>
      <trkpt lat="35.859371340" lon="-106.510671960">
        <ele>2600.200</ele>
        <time>2019-07-14T23:16:19Z</time>
      </trkpt>
      <trkpt lat="35.859293300" lon="-106.510599320">
        <ele>2600.400</ele>
        <time>2019-07-14T23:16:20Z</time>
      </trkpt>
      <trkpt lat="35.859213640" lon="-106.510545260">
        <ele>2599.000</ele>
        <time>2019-07-14T23:16:21Z</time>
      </trkpt>
      <trkpt lat="35.859126870" lon="-106.510470490">
        <ele>2598.700</ele>
        <time>2019-07-14T23:16:22Z</time>
      </trkpt>
      <trkpt lat="35.859055560" lon="-106.510393750">
        <ele>2598.500</ele>
        <time>2019-07-14T23:16:23Z</time>
      </trkpt>
      <trkpt lat="35.858980090" lon="-106.510311460">
        <ele>2598.200</ele>
        <time>2019-07-14T23:16:24Z</time>
      </trkpt>
      <trkpt lat="35.858916100" lon="-106.510222080">
        <ele>2597.600</ele>
        <time>2019-07-14T23:16:25Z</time>
      </trkpt>
      <trkpt lat="35.858857240" lon="-106.510118310">
        <ele>2598.000</ele>
        <time>2019-07-14T23:16:26Z</time>
      </trkpt>
      <trkpt lat="35.858804500" lon="-106.510019640">
        <ele>2597.100</ele>
        <time>2019-07-14T23:16:27Z</time>
      </trkpt>
      <trkpt lat="35.858769880" lon="-106.509916990">
        <ele>2597.100</ele>
        <time>2019-07-14T23:16:28Z</time>
      </trkpt>
      <trkpt lat="35.858739830" lon="-106.509813250">
        <ele>2598.200</ele>
        <time>2019-07-14T23:16:29Z</time>
      </trkpt>
      <trkpt lat="35.858705450" lon="-106.509701450">
        <ele>2598.000</ele>
        <time>2019-07-14T23:16:30Z</time>
      </trkpt>
      <trkpt lat="35.858673060" lon="-106.509588870">
        <ele>2597.900</ele>
        <time>2019-07-14T23:16:31Z</time>
      </trkpt>
      <trkpt lat="35.858645300" lon="-106.509482490">
        <ele>2598.100</ele>
        <time>2019-07-14T23:16:32Z</time>
      </trkpt>
      <trkpt lat="35.858620460" lon="-106.509377230">
        <ele>2598.400</ele>
        <time>2019-07-14T23:16:33Z</time>
      </trkpt>
      <trkpt lat="35.858590250" lon="-106.509270270">
        <ele>2598.000</ele>
        <time>2019-07-14T23:16:34Z</time>
      </trkpt>
      <trkpt lat="35.858566570" lon="-106.509166050">
        <ele>2598.300</ele>
        <time>2019-07-14T23:16:35Z</time>
      </trkpt>
      <trkpt lat="35.858547520" lon="-106.509060220">
        <ele>2598.500</ele>
        <time>2019-07-14T23:16:36Z</time>
      </trkpt>
      <trkpt lat="35.858529550" lon="-106.508954030">
        <ele>2599.000</ele>
        <time>2019-07-14T23:16:37Z</time>
      </trkpt>
      <trkpt lat="35.858507400" lon="-106.508845900">
        <ele>2599.100</ele>
        <time>2019-07-14T23:16:38Z</time>
      </trkpt>
      <trkpt lat="35.858488760" lon="-106.508732820">
        <ele>2598.900</ele>
        <time>2019-07-14T23:16:39Z</time>
      </trkpt>
      <trkpt lat="35.858473410" lon="-106.508622880">
        <ele>2599.100</ele>
        <time>2019-07-14T23:16:40Z</time>
      </trkpt>
      <trkpt lat="35.858457260" lon="-106.508512210">
        <ele>2599.000</ele>
        <time>2019-07-14T23:16:41Z</time>
      </trkpt>
      <trkpt lat="35.858441110" lon="-106.508393550">
        <ele>2599.300</ele>
        <time>2019-07-14T23:16:42Z</time>
      </trkpt>
      <trkpt lat="35.858424620" lon="-106.508276780">
        <ele>2598.600</ele>
        <time>2019-07-14T23:16:43Z</time>
      </trkpt>
      <trkpt lat="35.858413090" lon="-106.508159600">
        <ele>2599.000</ele>
        <time>2019-07-14T23:16:44Z</time>
      </trkpt>
      <trkpt lat="35.858397230" lon="-106.508042520">
        <ele>2599.100</ele>
        <time>2019-07-14T23:16:45Z</time>
      </trkpt>
      <trkpt lat="35.858380380" lon="-106.507924470">
        <ele>2599.100</ele>
        <time>2019-07-14T23:16:46Z</time>
      </trkpt>
      <trkpt lat="35.858366750" lon="-106.507807430">
        <ele>2599.000</ele>
        <time>2019-07-14T23:16:47Z</time>
      </trkpt>
      <trkpt lat="35.858352370" lon="-106.507684230">
        <ele>2598.700</ele>
        <time>2019-07-14T23:16:48Z</time>
      </trkpt>
      <trkpt lat="35.858339490" lon="-106.507573110">
        <ele>2598.700</ele>
        <time>2019-07-14T23:16:49Z</time>
      </trkpt>
      <trkpt lat="35.858325910" lon="-106.507455840">
        <ele>2598.200</ele>
        <time>2019-07-14T23:16:50Z</time>
      </trkpt>
      <trkpt lat="35.858313240" lon="-106.507346070">
        <ele>2598.700</ele>
        <time>2019-07-14T23:16:51Z</time>
      </trkpt>
      <trkpt lat="35.858295610" lon="-106.507236590">
        <ele>2598.600</ele>
        <time>2019-07-14T23:16:52Z</time>
      </trkpt>
      <trkpt lat="35.858280470" lon="-106.507127110">
        <ele>2599.200</ele>
        <time>2019-07-14T23:16:53Z</time>
      </trkpt>
      <trkpt lat="35.858260980" lon="-106.507021630">
        <ele>2599.000</ele>
        <time>2019-07-14T23:16:54Z</time>
      </trkpt>
      <trkpt lat="35.858245430" lon="-106.506928360">
        <ele>2599.000</ele>
        <time>2019-07-14T23:16:55Z</time>
      </trkpt>
      <trkpt lat="35.858230690" lon="-106.506842660">
        <ele>2599.100</ele>
        <time>2019-07-14T23:16:56Z</time>
      </trkpt>
      <trkpt lat="35.858214490" lon="-106.506761170">
        <ele>2599.600</ele>
        <time>2019-07-14T23:16:57Z</time>
      </trkpt>
      <trkpt lat="35.858197740" lon="-106.506679620">
        <ele>2599.500</ele>
        <time>2019-07-14T23:16:58Z</time>
      </trkpt>
      <trkpt lat="35.858183550" lon="-106.506594170">
        <ele>2599.300</ele>
        <time>2019-07-14T23:16:59Z</time>
      </trkpt>
      <trkpt lat="35.858172080" lon="-106.506510360">
        <ele>2599.400</ele>
        <time>2019-07-14T23:17:00Z</time>
      </trkpt>
      <trkpt lat="35.858156210" lon="-106.506420420">
        <ele>2599.400</ele>
        <time>2019-07-14T23:17:01Z</time>
      </trkpt>
      <trkpt lat="35.858141160" lon="-106.506324940">
        <ele>2599.300</ele>
        <time>2019-07-14T23:17:02Z</time>
      </trkpt>
      <trkpt lat="35.858122260" lon="-106.506226810">
        <ele>2599.500</ele>
        <time>2019-07-14T23:17:03Z</time>
      </trkpt>
      <trkpt lat="35.858100670" lon="-106.506121640">
        <ele>2599.400</ele>
        <time>2019-07-14T23:17:04Z</time>
      </trkpt>
      <trkpt lat="35.858075440" lon="-106.506018680">
        <ele>2598.900</ele>
        <time>2019-07-14T23:17:05Z</time>
      </trkpt>
      <trkpt lat="35.858054790" lon="-106.505911670">
        <ele>2598.900</ele>
        <time>2019-07-14T23:17:06Z</time>
      </trkpt>
      <trkpt lat="35.858033130" lon="-106.505805210">
        <ele>2599.000</ele>
        <time>2019-07-14T23:17:07Z</time>
      </trkpt>
      <trkpt lat="35.858011410" lon="-106.505693640">
        <ele>2598.800</ele>
        <time>2019-07-14T23:17:08Z</time>
      </trkpt>
      <trkpt lat="35.857990820" lon="-106.505584000">
        <ele>2599.300</ele>
        <time>2019-07-14T23:17:09Z</time>
      </trkpt>
      <trkpt lat="35.857971680" lon="-106.505475760">
        <ele>2599.200</ele>
        <time>2019-07-14T23:17:10Z</time>
      </trkpt>
      <trkpt lat="35.857946130" lon="-106.505364620">
        <ele>2599.200</ele>
        <time>2019-07-14T23:17:11Z</time>
      </trkpt>
      <trkpt lat="35.857921660" lon="-106.505252880">
        <ele>2599.000</ele>
        <time>2019-07-14T23:17:12Z</time>
      </trkpt>
      <trkpt lat="35.857895630" lon="-106.505142120">
        <ele>2598.700</ele>
        <time>2019-07-14T23:17:13Z</time>
      </trkpt>
      <trkpt lat="35.857874480" lon="-106.505030210">
        <ele>2599.200</ele>
        <time>2019-07-14T23:17:14Z</time>
      </trkpt>
      <trkpt lat="35.857854680" lon="-106.504908560">
        <ele>2601.000</ele>
        <time>2019-07-14T23:17:15Z</time>
      </trkpt>
      <trkpt lat="35.857833770" lon="-106.504795860">
        <ele>2600.100</ele>
        <time>2019-07-14T23:17:16Z</time>
      </trkpt>
      <trkpt lat="35.857816960" lon="-106.504683850">
        <ele>2599.900</ele>
        <time>2019-07-14T23:17:17Z</time>
      </trkpt>
      <trkpt lat="35.857802680" lon="-106.504573970">
        <ele>2600.000</ele>
        <time>2019-07-14T23:17:18Z</time>
      </trkpt>
      <trkpt lat="35.857789350" lon="-106.504463590">
        <ele>2599.600</ele>
        <time>2019-07-14T23:17:19Z</time>
      </trkpt>
      <trkpt lat="35.857782650" lon="-106.504354640">
        <ele>2598.900</ele>
        <time>2019-07-14T23:17:20Z</time>
      </trkpt>
      <trkpt lat="35.857772630" lon="-106.504244470">
        <ele>2598.700</ele>
        <time>2019-07-14T23:17:21Z</time>
      </trkpt>
      <trkpt lat="35.857763040" lon="-106.504133720">
        <ele>2598.500</ele>
        <time>2019-07-14T23:17:22Z</time>
      </trkpt>
      <trkpt lat="35.857760300" lon="-106.504024030">
        <ele>2598.300</ele>
        <time>2019-07-14T23:17:23Z</time>
      </trkpt>
      <trkpt lat="35.857757790" lon="-106.503912900">
        <ele>2598.300</ele>
        <time>2019-07-14T23:17:24Z</time>
      </trkpt>
      <trkpt lat="35.857757780" lon="-106.503804880">
        <ele>2597.900</ele>
        <time>2019-07-14T23:17:25Z</time>
      </trkpt>
      <trkpt lat="35.857767290" lon="-106.503690270">
        <ele>2598.300</ele>
        <time>2019-07-14T23:17:26Z</time>
      </trkpt>
      <trkpt lat="35.857764870" lon="-106.503579460">
        <ele>2596.300</ele>
        <time>2019-07-14T23:17:27Z</time>
      </trkpt>
      <trkpt lat="35.857764310" lon="-106.503467910">
        <ele>2596.100</ele>
        <time>2019-07-14T23:17:28Z</time>
      </trkpt>
      <trkpt lat="35.857761320" lon="-106.503353760">
        <ele>2596.100</ele>
        <time>2019-07-14T23:17:29Z</time>
      </trkpt>
      <trkpt lat="35.857760140" lon="-106.503258890">
        <ele>2595.700</ele>
        <time>2019-07-14T23:17:30Z</time>
      </trkpt>
      <trkpt lat="35.857758730" lon="-106.503160050">
        <ele>2595.500</ele>
        <time>2019-07-14T23:17:31Z</time>
      </trkpt>
      <trkpt lat="35.857758200" lon="-106.503061990">
        <ele>2595.400</ele>
        <time>2019-07-14T23:17:32Z</time>
      </trkpt>
      <trkpt lat="35.857755410" lon="-106.502976710">
        <ele>2595.100</ele>
        <time>2019-07-14T23:17:33Z</time>
      </trkpt>
      <trkpt lat="35.857755920" lon="-106.502901120">
        <ele>2594.700</ele>
        <time>2019-07-14T23:17:34Z</time>
      </trkpt>
      <trkpt lat="35.857753750" lon="-106.502829760">
        <ele>2594.000</ele>
        <time>2019-07-14T23:17:35Z</time>
      </trkpt>
      <trkpt lat="35.857752870" lon="-106.502745070">
        <ele>2593.700</ele>
        <time>2019-07-14T23:17:36Z</time>
      </trkpt>
      <trkpt lat="35.857755210" lon="-106.502652050">
        <ele>2593.900</ele>
        <time>2019-07-14T23:17:37Z</time>
      </trkpt>
      <trkpt lat="35.857745580" lon="-106.502556990">
        <ele>2593.700</ele>
        <time>2019-07-14T23:17:38Z</time>
      </trkpt>
      <trkpt lat="35.857739040" lon="-106.502456890">
        <ele>2592.800</ele>
        <time>2019-07-14T23:17:39Z</time>
      </trkpt>
      <trkpt lat="35.857736150" lon="-106.502351160">
        <ele>2593.000</ele>
        <time>2019-07-14T23:17:40Z</time>
      </trkpt>
      <trkpt lat="35.857733780" lon="-106.502242930">
        <ele>2592.800</ele>
        <time>2019-07-14T23:17:41Z</time>
      </trkpt>
      <trkpt lat="35.857733400" lon="-106.502132190">
        <ele>2592.600</ele>
        <time>2019-07-14T23:17:42Z</time>
      </trkpt>
      <trkpt lat="35.857724600" lon="-106.502020020">
        <ele>2591.700</ele>
        <time>2019-07-14T23:17:43Z</time>
      </trkpt>
      <trkpt lat="35.857720160" lon="-106.501901870">
        <ele>2591.600</ele>
        <time>2019-07-14T23:17:44Z</time>
      </trkpt>
      <trkpt lat="35.857715780" lon="-106.501792400">
        <ele>2591.400</ele>
        <time>2019-07-14T23:17:45Z</time>
      </trkpt>
      <trkpt lat="35.857709330" lon="-106.501678420">
        <ele>2591.600</ele>
        <time>2019-07-14T23:17:46Z</time>
      </trkpt>
      <trkpt lat="35.857701500" lon="-106.501566790">
        <ele>2591.100</ele>
        <time>2019-07-14T23:17:47Z</time>
      </trkpt>
      <trkpt lat="35.857694460" lon="-106.501449340">
        <ele>2591.200</ele>
        <time>2019-07-14T23:17:48Z</time>
      </trkpt>
      <trkpt lat="35.857688080" lon="-106.501339880">
        <ele>2591.900</ele>
        <time>2019-07-14T23:17:49Z</time>
      </trkpt>
      <trkpt lat="35.857685090" lon="-106.501227530">
        <ele>2592.700</ele>
        <time>2019-07-14T23:17:50Z</time>
      </trkpt>
      <trkpt lat="35.857685890" lon="-106.501124080">
        <ele>2592.100</ele>
        <time>2019-07-14T23:17:51Z</time>
      </trkpt>
      <trkpt lat="35.857683970" lon="-106.501016070">
        <ele>2591.400</ele>
        <time>2019-07-14T23:17:52Z</time>
      </trkpt>
      <trkpt lat="35.857681890" lon="-106.500906120">
        <ele>2591.500</ele>
        <time>2019-07-14T23:17:53Z</time>
      </trkpt>
      <trkpt lat="35.857680210" lon="-106.500794560">
        <ele>2591.600</ele>
        <time>2019-07-14T23:17:54Z</time>
      </trkpt>
      <trkpt lat="35.857679430" lon="-106.500683260">
        <ele>2591.800</ele>
        <time>2019-07-14T23:17:55Z</time>
      </trkpt>
      <trkpt lat="35.857680220" lon="-106.500569720">
        <ele>2592.600</ele>
        <time>2019-07-14T23:17:56Z</time>
      </trkpt>
      <trkpt lat="35.857677600" lon="-106.500461040">
        <ele>2592.700</ele>
        <time>2019-07-14T23:17:57Z</time>
      </trkpt>
      <trkpt lat="35.857678690" lon="-106.500360280">
        <ele>2593.300</ele>
        <time>2019-07-14T23:17:58Z</time>
      </trkpt>
      <trkpt lat="35.857681300" lon="-106.500253200">
        <ele>2593.200</ele>
        <time>2019-07-14T23:17:59Z</time>
      </trkpt>
      <trkpt lat="35.857686080" lon="-106.500149900">
        <ele>2592.300</ele>
        <time>2019-07-14T23:18:00Z</time>
      </trkpt>
      <trkpt lat="35.857682460" lon="-106.500043080">
        <ele>2591.100</ele>
        <time>2019-07-14T23:18:01Z</time>
      </trkpt>
      <trkpt lat="35.857681020" lon="-106.499947560">
        <ele>2590.800</ele>
        <time>2019-07-14T23:18:02Z</time>
      </trkpt>
      <trkpt lat="35.857683930" lon="-106.499844770">
        <ele>2590.700</ele>
        <time>2019-07-14T23:18:03Z</time>
      </trkpt>
      <trkpt lat="35.857683690" lon="-106.499738310">
        <ele>2589.500</ele>
        <time>2019-07-14T23:18:04Z</time>
      </trkpt>
      <trkpt lat="35.857692230" lon="-106.499637250">
        <ele>2588.800</ele>
        <time>2019-07-14T23:18:05Z</time>
      </trkpt>
      <trkpt lat="35.857701890" lon="-106.499534290">
        <ele>2588.700</ele>
        <time>2019-07-14T23:18:06Z</time>
      </trkpt>
      <trkpt lat="35.857707460" lon="-106.499426540">
        <ele>2588.000</ele>
        <time>2019-07-14T23:18:07Z</time>
      </trkpt>
      <trkpt lat="35.857715190" lon="-106.499315400">
        <ele>2587.800</ele>
        <time>2019-07-14T23:18:08Z</time>
      </trkpt>
      <trkpt lat="35.857724940" lon="-106.499204590">
        <ele>2587.100</ele>
        <time>2019-07-14T23:18:09Z</time>
      </trkpt>
      <trkpt lat="35.857730540" lon="-106.499091730">
        <ele>2587.300</ele>
        <time>2019-07-14T23:18:10Z</time>
      </trkpt>
      <trkpt lat="35.857730000" lon="-106.498973790">
        <ele>2586.300</ele>
        <time>2019-07-14T23:18:11Z</time>
      </trkpt>
      <trkpt lat="35.857739700" lon="-106.498854210">
        <ele>2586.800</ele>
        <time>2019-07-14T23:18:12Z</time>
      </trkpt>
      <trkpt lat="35.857740410" lon="-106.498737430">
        <ele>2585.500</ele>
        <time>2019-07-14T23:18:13Z</time>
      </trkpt>
      <trkpt lat="35.857745860" lon="-106.498609440">
        <ele>2585.200</ele>
        <time>2019-07-14T23:18:14Z</time>
      </trkpt>
      <trkpt lat="35.857744990" lon="-106.498489550">
        <ele>2585.100</ele>
        <time>2019-07-14T23:18:15Z</time>
      </trkpt>
      <trkpt lat="35.857745540" lon="-106.498368970">
        <ele>2585.100</ele>
        <time>2019-07-14T23:18:16Z</time>
      </trkpt>
      <trkpt lat="35.857745610" lon="-106.498245620">
        <ele>2585.800</ele>
        <time>2019-07-14T23:18:17Z</time>
      </trkpt>
      <trkpt lat="35.857745370" lon="-106.498127940">
        <ele>2585.800</ele>
        <time>2019-07-14T23:18:18Z</time>
      </trkpt>
      <trkpt lat="35.857744990" lon="-106.498004310">
        <ele>2586.200</ele>
        <time>2019-07-14T23:18:19Z</time>
      </trkpt>
      <trkpt lat="35.857740710" lon="-106.497882360">
        <ele>2586.000</ele>
        <time>2019-07-14T23:18:20Z</time>
      </trkpt>
      <trkpt lat="35.857735700" lon="-106.497766240">
        <ele>2585.800</ele>
        <time>2019-07-14T23:18:21Z</time>
      </trkpt>
      <trkpt lat="35.857734280" lon="-106.497646350">
        <ele>2585.700</ele>
        <time>2019-07-14T23:18:22Z</time>
      </trkpt>
      <trkpt lat="35.857729970" lon="-106.497534540">
        <ele>2586.000</ele>
        <time>2019-07-14T23:18:23Z</time>
      </trkpt>
      <trkpt lat="35.857729660" lon="-106.497424380">
        <ele>2585.900</ele>
        <time>2019-07-14T23:18:24Z</time>
      </trkpt>
      <trkpt lat="35.857723050" lon="-106.497315310">
        <ele>2585.300</ele>
        <time>2019-07-14T23:18:25Z</time>
      </trkpt>
      <trkpt lat="35.857722520" lon="-106.497203910">
        <ele>2584.600</ele>
        <time>2019-07-14T23:18:26Z</time>
      </trkpt>
      <trkpt lat="35.857718850" lon="-106.497091400">
        <ele>2584.000</ele>
        <time>2019-07-14T23:18:27Z</time>
      </trkpt>
      <trkpt lat="35.857710480" lon="-106.496973830">
        <ele>2583.800</ele>
        <time>2019-07-14T23:18:28Z</time>
      </trkpt>
      <trkpt lat="35.857706410" lon="-106.496855560">
        <ele>2584.000</ele>
        <time>2019-07-14T23:18:29Z</time>
      </trkpt>
      <trkpt lat="35.857701450" lon="-106.496739620">
        <ele>2583.700</ele>
        <time>2019-07-14T23:18:30Z</time>
      </trkpt>
      <trkpt lat="35.857700120" lon="-106.496621440">
        <ele>2583.600</ele>
        <time>2019-07-14T23:18:31Z</time>
      </trkpt>
      <trkpt lat="35.857694580" lon="-106.496506350">
        <ele>2583.900</ele>
        <time>2019-07-14T23:18:32Z</time>
      </trkpt>
      <trkpt lat="35.857689000" lon="-106.496395690">
        <ele>2583.600</ele>
        <time>2019-07-14T23:18:33Z</time>
      </trkpt>
      <trkpt lat="35.857685510" lon="-106.496283490">
        <ele>2582.900</ele>
        <time>2019-07-14T23:18:34Z</time>
      </trkpt>
      <trkpt lat="35.857677220" lon="-106.496182210">
        <ele>2581.900</ele>
        <time>2019-07-14T23:18:35Z</time>
      </trkpt>
      <trkpt lat="35.857673900" lon="-106.496074260">
        <ele>2581.400</ele>
        <time>2019-07-14T23:18:36Z</time>
      </trkpt>
      <trkpt lat="35.857672030" lon="-106.495968520">
        <ele>2581.500</ele>
        <time>2019-07-14T23:18:37Z</time>
      </trkpt>
      <trkpt lat="35.857669930" lon="-106.495862780">
        <ele>2582.200</ele>
        <time>2019-07-14T23:18:38Z</time>
      </trkpt>
      <trkpt lat="35.857663310" lon="-106.495756340">
        <ele>2581.500</ele>
        <time>2019-07-14T23:18:39Z</time>
      </trkpt>
      <trkpt lat="35.857658750" lon="-106.495646360">
        <ele>2581.600</ele>
        <time>2019-07-14T23:18:40Z</time>
      </trkpt>
      <trkpt lat="35.857657410" lon="-106.495542950">
        <ele>2582.900</ele>
        <time>2019-07-14T23:18:41Z</time>
      </trkpt>
      <trkpt lat="35.857653200" lon="-106.495441260">
        <ele>2583.900</ele>
        <time>2019-07-14T23:18:42Z</time>
      </trkpt>
      <trkpt lat="35.857640210" lon="-106.495348300">
        <ele>2580.500</ele>
        <time>2019-07-14T23:18:43Z</time>
      </trkpt>
      <trkpt lat="35.857636520" lon="-106.495257730">
        <ele>2580.300</ele>
        <time>2019-07-14T23:18:44Z</time>
      </trkpt>
      <trkpt lat="35.857628900" lon="-106.495162920">
        <ele>2580.400</ele>
        <time>2019-07-14T23:18:45Z</time>
      </trkpt>
      <trkpt lat="35.857619880" lon="-106.495065800">
        <ele>2581.200</ele>
        <time>2019-07-14T23:18:46Z</time>
      </trkpt>
      <trkpt lat="35.857610130" lon="-106.494970510">
        <ele>2581.800</ele>
        <time>2019-07-14T23:18:47Z</time>
      </trkpt>
      <trkpt lat="35.857599080" lon="-106.494875260">
        <ele>2581.800</ele>
        <time>2019-07-14T23:18:48Z</time>
      </trkpt>
      <trkpt lat="35.857590720" lon="-106.494780540">
        <ele>2582.200</ele>
        <time>2019-07-14T23:18:49Z</time>
      </trkpt>
      <trkpt lat="35.857578050" lon="-106.494688090">
        <ele>2581.900</ele>
        <time>2019-07-14T23:18:50Z</time>
      </trkpt>
      <trkpt lat="35.857566550" lon="-106.494598910">
        <ele>2581.900</ele>
        <time>2019-07-14T23:18:51Z</time>
      </trkpt>
      <trkpt lat="35.857553350" lon="-106.494509670">
        <ele>2581.800</ele>
        <time>2019-07-14T23:18:52Z</time>
      </trkpt>
      <trkpt lat="35.857540890" lon="-106.494421060">
        <ele>2581.900</ele>
        <time>2019-07-14T23:18:53Z</time>
      </trkpt>
      <trkpt lat="35.857522530" lon="-106.494339200">
        <ele>2582.000</ele>
        <time>2019-07-14T23:18:54Z</time>
      </trkpt>
      <trkpt lat="35.857506430" lon="-106.494269160">
        <ele>2581.300</ele>
        <time>2019-07-14T23:18:55Z</time>
      </trkpt>
      <trkpt lat="35.857491080" lon="-106.494201650">
        <ele>2581.800</ele>
        <time>2019-07-14T23:18:56Z</time>
      </trkpt>
      <trkpt lat="35.857472040" lon="-106.494141360">
        <ele>2581.800</ele>
        <time>2019-07-14T23:18:57Z</time>
      </trkpt>
      <trkpt lat="35.857457780" lon="-106.494091940">
        <ele>2581.800</ele>
        <time>2019-07-14T23:18:58Z</time>
      </trkpt>
      <trkpt lat="35.857438840" lon="-106.494029490">
        <ele>2582.000</ele>
        <time>2019-07-14T23:19:00Z</time>
      </trkpt>
      <trkpt lat="35.857419560" lon="-106.493969300">
        <ele>2583.200</ele>
        <time>2019-07-14T23:19:15Z</time>
      </trkpt>
      <trkpt lat="35.857402360" lon="-106.493890110">
        <ele>2583.100</ele>
        <time>2019-07-14T23:19:17Z</time>
      </trkpt>
      <trkpt lat="35.857392600" lon="-106.493842130">
        <ele>2583.100</ele>
        <time>2019-07-14T23:19:18Z</time>
      </trkpt>
      <trkpt lat="35.857379070" lon="-106.493785990">
        <ele>2583.200</ele>
        <time>2019-07-14T23:19:19Z</time>
      </trkpt>
      <trkpt lat="35.857362590" lon="-106.493729760">
        <ele>2583.500</ele>
        <time>2019-07-14T23:19:20Z</time>
      </trkpt>
      <trkpt lat="35.857344700" lon="-106.493669830">
        <ele>2583.100</ele>
        <time>2019-07-14T23:19:21Z</time>
      </trkpt>
      <trkpt lat="35.857330550" lon="-106.493610560">
        <ele>2582.100</ele>
        <time>2019-07-14T23:19:22Z</time>
      </trkpt>
      <trkpt lat="35.857310720" lon="-106.493545770">
        <ele>2582.300</ele>
        <time>2019-07-14T23:19:23Z</time>
      </trkpt>
      <trkpt lat="35.857290850" lon="-106.493481460">
        <ele>2582.600</ele>
        <time>2019-07-14T23:19:24Z</time>
      </trkpt>
      <trkpt lat="35.857269990" lon="-106.493413910">
        <ele>2582.700</ele>
        <time>2019-07-14T23:19:25Z</time>
      </trkpt>
      <trkpt lat="35.857249820" lon="-106.493339780">
        <ele>2582.300</ele>
        <time>2019-07-14T23:19:26Z</time>
      </trkpt>
      <trkpt lat="35.857228220" lon="-106.493265800">
        <ele>2582.500</ele>
        <time>2019-07-14T23:19:27Z</time>
      </trkpt>
      <trkpt lat="35.857202450" lon="-106.493190140">
        <ele>2582.500</ele>
        <time>2019-07-14T23:19:28Z</time>
      </trkpt>
      <trkpt lat="35.857180730" lon="-106.493113680">
        <ele>2582.400</ele>
        <time>2019-07-14T23:19:29Z</time>
      </trkpt>
      <trkpt lat="35.857157210" lon="-106.493036510">
        <ele>2582.500</ele>
        <time>2019-07-14T23:19:30Z</time>
      </trkpt>
      <trkpt lat="35.857135060" lon="-106.492951840">
        <ele>2583.200</ele>
        <time>2019-07-14T23:19:31Z</time>
      </trkpt>
      <trkpt lat="35.857113150" lon="-106.492876140">
        <ele>2583.300</ele>
        <time>2019-07-14T23:19:32Z</time>
      </trkpt>
      <trkpt lat="35.857091040" lon="-106.492798810">
        <ele>2582.600</ele>
        <time>2019-07-14T23:19:33Z</time>
      </trkpt>
      <trkpt lat="35.857061650" lon="-106.492724220">
        <ele>2582.500</ele>
        <time>2019-07-14T23:19:34Z</time>
      </trkpt>
      <trkpt lat="35.857039520" lon="-106.492647800">
        <ele>2582.700</ele>
        <time>2019-07-14T23:19:35Z</time>
      </trkpt>
      <trkpt lat="35.857016020" lon="-106.492584900">
        <ele>2582.200</ele>
        <time>2019-07-14T23:19:36Z</time>
      </trkpt>
      <trkpt lat="35.856998640" lon="-106.492510440">
        <ele>2582.300</ele>
        <time>2019-07-14T23:19:37Z</time>
      </trkpt>
      <trkpt lat="35.856978790" lon="-106.492441930">
        <ele>2581.800</ele>
        <time>2019-07-14T23:19:38Z</time>
      </trkpt>
      <trkpt lat="35.856953280" lon="-106.492364180">
        <ele>2583.000</ele>
        <time>2019-07-14T23:19:39Z</time>
      </trkpt>
      <trkpt lat="35.856931470" lon="-106.492281750">
        <ele>2582.600</ele>
        <time>2019-07-14T23:19:40Z</time>
      </trkpt>
      <trkpt lat="35.856908160" lon="-106.492200230">
        <ele>2582.800</ele>
        <time>2019-07-14T23:19:41Z</time>
      </trkpt>
      <trkpt lat="35.856877050" lon="-106.492124920">
        <ele>2582.600</ele>
        <time>2019-07-14T23:19:42Z</time>
      </trkpt>
      <trkpt lat="35.856860380" lon="-106.492045920">
        <ele>2583.300</ele>
        <time>2019-07-14T23:19:43Z</time>
      </trkpt>
      <trkpt lat="35.856839520" lon="-106.491969250">
        <ele>2583.700</ele>
        <time>2019-07-14T23:19:44Z</time>
      </trkpt>
      <trkpt lat="35.856815440" lon="-106.491894810">
        <ele>2583.100</ele>
        <time>2019-07-14T23:19:45Z</time>
      </trkpt>
      <trkpt lat="35.856789350" lon="-106.491814570">
        <ele>2582.800</ele>
        <time>2019-07-14T23:19:46Z</time>
      </trkpt>
      <trkpt lat="35.856765940" lon="-106.491736190">
        <ele>2583.900</ele>
        <time>2019-07-14T23:19:47Z</time>
      </trkpt>
      <trkpt lat="35.856741340" lon="-106.491662940">
        <ele>2583.500</ele>
        <time>2019-07-14T23:19:48Z</time>
      </trkpt>
      <trkpt lat="35.856715980" lon="-106.491595470">
        <ele>2582.500</ele>
        <time>2019-07-14T23:19:49Z</time>
      </trkpt>
      <trkpt lat="35.856691170" lon="-106.491514460">
        <ele>2584.000</ele>
        <time>2019-07-14T23:19:50Z</time>
      </trkpt>
      <trkpt lat="35.856662930" lon="-106.491451730">
        <ele>2583.400</ele>
        <time>2019-07-14T23:19:51Z</time>
      </trkpt>
      <trkpt lat="35.856645360" lon="-106.491379180">
        <ele>2583.600</ele>
        <time>2019-07-14T23:19:52Z</time>
      </trkpt>
      <trkpt lat="35.856618790" lon="-106.491315080">
        <ele>2583.300</ele>
        <time>2019-07-14T23:19:53Z</time>
      </trkpt>
      <trkpt lat="35.856605660" lon="-106.491260380">
        <ele>2583.700</ele>
        <time>2019-07-14T23:19:54Z</time>
      </trkpt>
      <trkpt lat="35.856589560" lon="-106.491212340">
        <ele>2583.900</ele>
        <time>2019-07-14T23:19:55Z</time>
      </trkpt>
      <trkpt lat="35.856581970" lon="-106.491157880">
        <ele>2584.800</ele>
        <time>2019-07-14T23:19:56Z</time>
      </trkpt>
      <trkpt lat="35.856564890" lon="-106.491115150">
        <ele>2584.700</ele>
        <time>2019-07-14T23:19:57Z</time>
      </trkpt>
      <trkpt lat="35.856550800" lon="-106.491069780">
        <ele>2586.000</ele>
        <time>2019-07-14T23:19:58Z</time>
      </trkpt>
      <trkpt lat="35.856534870" lon="-106.491028290">
        <ele>2584.900</ele>
        <time>2019-07-14T23:19:59Z</time>
      </trkpt>
      <trkpt lat="35.856517900" lon="-106.490988730">
        <ele>2585.200</ele>
        <time>2019-07-14T23:20:00Z</time>
      </trkpt>
      <trkpt lat="35.856514080" lon="-106.490941000">
        <ele>2585.500</ele>
        <time>2019-07-14T23:20:01Z</time>
      </trkpt>
      <trkpt lat="35.856552960" lon="-106.490865400">
        <ele>2585.200</ele>
        <time>2019-07-14T23:20:03Z</time>
      </trkpt>
      <trkpt lat="35.856617040" lon="-106.490821260">
        <ele>2584.900</ele>
        <time>2019-07-14T23:20:05Z</time>
      </trkpt>
      <trkpt lat="35.856655020" lon="-106.490804820">
        <ele>2584.400</ele>
        <time>2019-07-14T23:20:06Z</time>
      </trkpt>
      <trkpt lat="35.856693470" lon="-106.490786800">
        <ele>2585.300</ele>
        <time>2019-07-14T23:20:07Z</time>
      </trkpt>
      <trkpt lat="35.856732700" lon="-106.490767870">
        <ele>2585.100</ele>
        <time>2019-07-14T23:20:08Z</time>
      </trkpt>
      <trkpt lat="35.856774960" lon="-106.490752490">
        <ele>2586.000</ele>
        <time>2019-07-14T23:20:09Z</time>
      </trkpt>
      <trkpt lat="35.856816280" lon="-106.490744080">
        <ele>2585.300</ele>
        <time>2019-07-14T23:20:10Z</time>
      </trkpt>
      <trkpt lat="35.856885900" lon="-106.490759590">
        <ele>2583.900</ele>
        <time>2019-07-14T23:20:12Z</time>
      </trkpt>
      <trkpt lat="35.856922460" lon="-106.490789960">
        <ele>2583.700</ele>
        <time>2019-07-14T23:20:13Z</time>
      </trkpt>
      <trkpt lat="35.856950190" lon="-106.490829070">
        <ele>2583.800</ele>
        <time>2019-07-14T23:20:14Z</time>
      </trkpt>
      <trkpt lat="35.856967000" lon="-106.490876410">
        <ele>2583.800</ele>
        <time>2019-07-14T23:20:15Z</time>
      </trkpt>
      <trkpt lat="35.856967980" lon="-106.490932380">
        <ele>2583.900</ele>
        <time>2019-07-14T23:20:16Z</time>
      </trkpt>
      <trkpt lat="35.856953180" lon="-106.490982530">
        <ele>2584.100</ele>
        <time>2019-07-14T23:20:17Z</time>
      </trkpt>
      <trkpt lat="35.856911290" lon="-106.491024270">
        <ele>2582.900</ele>
        <time>2019-07-14T23:20:19Z</time>
      </trkpt>
      <trkpt lat="35.856873210" lon="-106.491020150">
        <ele>2582.700</ele>
        <time>2019-07-14T23:20:24Z</time>
      </trkpt>
      <trkpt lat="35.856842450" lon="-106.490994170">
        <ele>2578.700</ele>
        <time>2019-07-14T23:20:41Z</time>
      </trkpt>
      <trkpt lat="35.856838190" lon="-106.491041280">
        <ele>2578.500</ele>
        <time>2019-07-14T23:25:37Z</time>
      </trkpt>
      <trkpt lat="35.856794000" lon="-106.491045310">
        <ele>2578.500</ele>
        <time>2019-07-14T23:25:41Z</time>
      </trkpt>
      <trkpt lat="35.856760480" lon="-106.491021290">
        <ele>2579.200</ele>
        <time>2019-07-14T23:25:44Z</time>
      </trkpt>
      <trkpt lat="35.856717450" lon="-106.490997690">
        <ele>2578.200</ele>
        <time>2019-07-14T23:25:47Z</time>
      </trkpt>
      <trkpt lat="35.856688300" lon="-106.490957730">
        <ele>2577.800</ele>
        <time>2019-07-14T23:25:52Z</time>
      </trkpt>
      <trkpt lat="35.856659300" lon="-106.490924620">
        <ele>2578.300</ele>
        <time>2019-07-14T23:25:54Z</time>
      </trkpt>
      <trkpt lat="35.856620100" lon="-106.490895100">
        <ele>2578.100</ele>
        <time>2019-07-14T23:25:56Z</time>
      </trkpt>
      <trkpt lat="35.856571420" lon="-106.490873490">
        <ele>2577.600</ele>
        <time>2019-07-14T23:25:58Z</time>
      </trkpt>
      <trkpt lat="35.856522560" lon="-106.490854430">
        <ele>2578.400</ele>
        <time>2019-07-14T23:26:00Z</time>
      </trkpt>
      <trkpt lat="35.856472970" lon="-106.490830020">
        <ele>2577.000</ele>
        <time>2019-07-14T23:26:02Z</time>
      </trkpt>
      <trkpt lat="35.856421140" lon="-106.490790790">
        <ele>2577.300</ele>
        <time>2019-07-14T23:26:04Z</time>
      </trkpt>
      <trkpt lat="35.856381790" lon="-106.490739890">
        <ele>2578.300</ele>
        <time>2019-07-14T23:26:06Z</time>
      </trkpt>
      <trkpt lat="35.856354900" lon="-106.490682290">
        <ele>2578.300</ele>
        <time>2019-07-14T23:26:08Z</time>
      </trkpt>
      <trkpt lat="35.856331810" lon="-106.490628470">
        <ele>2578.400</ele>
        <time>2019-07-14T23:26:10Z</time>
      </trkpt>
      <trkpt lat="35.856309390" lon="-106.490574560">
        <ele>2578.000</ele>
        <time>2019-07-14T23:26:12Z</time>
      </trkpt>
      <trkpt lat="35.856287150" lon="-106.490520060">
        <ele>2577.300</ele>
        <time>2019-07-14T23:26:14Z</time>
      </trkpt>
      <trkpt lat="35.856261640" lon="-106.490467500">
        <ele>2578.300</ele>
        <time>2019-07-14T23:26:16Z</time>
      </trkpt>
      <trkpt lat="35.856223790" lon="-106.490424860">
        <ele>2578.400</ele>
        <time>2019-07-14T23:26:18Z</time>
      </trkpt>
      <trkpt lat="35.856177900" lon="-106.490403240">
        <ele>2578.700</ele>
        <time>2019-07-14T23:26:20Z</time>
      </trkpt>
      <trkpt lat="35.856126020" lon="-106.490394740">
        <ele>2578.500</ele>
        <time>2019-07-14T23:26:22Z</time>
      </trkpt>
      <trkpt lat="35.856072210" lon="-106.490399570">
        <ele>2578.200</ele>
        <time>2019-07-14T23:26:24Z</time>
      </trkpt>
      <trkpt lat="35.856025450" lon="-106.490413460">
        <ele>2577.400</ele>
        <time>2019-07-14T23:26:26Z</time>
      </trkpt>
      <trkpt lat="35.855977250" lon="-106.490433050">
        <ele>2577.400</ele>
        <time>2019-07-14T23:26:28Z</time>
      </trkpt>
      <trkpt lat="35.855930070" lon="-106.490455160">
        <ele>2578.400</ele>
        <time>2019-07-14T23:26:31Z</time>
      </trkpt>
      <trkpt lat="35.855894180" lon="-106.490474070">
        <ele>2576.900</ele>
        <time>2019-07-14T23:26:33Z</time>
      </trkpt>
      <trkpt lat="35.855847270" lon="-106.490491650">
        <ele>2577.100</ele>
        <time>2019-07-14T23:26:35Z</time>
      </trkpt>
      <trkpt lat="35.855798390" lon="-106.490511840">
        <ele>2577.500</ele>
        <time>2019-07-14T23:26:37Z</time>
      </trkpt>
      <trkpt lat="35.855751360" lon="-106.490530980">
        <ele>2578.600</ele>
        <time>2019-07-14T23:26:39Z</time>
      </trkpt>
      <trkpt lat="35.855701960" lon="-106.490552950">
        <ele>2579.300</ele>
        <time>2019-07-14T23:26:41Z</time>
      </trkpt>
      <trkpt lat="35.855650020" lon="-106.490575330">
        <ele>2579.100</ele>
        <time>2019-07-14T23:26:43Z</time>
      </trkpt>
      <trkpt lat="35.855591420" lon="-106.490598320">
        <ele>2579.600</ele>
        <time>2019-07-14T23:26:45Z</time>
      </trkpt>
      <trkpt lat="35.855530660" lon="-106.490623060">
        <ele>2580.600</ele>
        <time>2019-07-14T23:26:47Z</time>
      </trkpt>
      <trkpt lat="35.855467320" lon="-106.490647570">
        <ele>2580.700</ele>
        <time>2019-07-14T23:26:49Z</time>
      </trkpt>
      <trkpt lat="35.855407910" lon="-106.490671210">
        <ele>2581.100</ele>
        <time>2019-07-14T23:26:51Z</time>
      </trkpt>
      <trkpt lat="35.855353460" lon="-106.490693360">
        <ele>2581.300</ele>
        <time>2019-07-14T23:26:53Z</time>
      </trkpt>
      <trkpt lat="35.855294810" lon="-106.490713370">
        <ele>2579.500</ele>
        <time>2019-07-14T23:26:55Z</time>
      </trkpt>
      <trkpt lat="35.855233870" lon="-106.490731420">
        <ele>2579.100</ele>
        <time>2019-07-14T23:26:57Z</time>
      </trkpt>
      <trkpt lat="35.855164750" lon="-106.490751460">
        <ele>2577.300</ele>
        <time>2019-07-14T23:26:59Z</time>
      </trkpt>
      <trkpt lat="35.855125940" lon="-106.490762110">
        <ele>2577.500</ele>
        <time>2019-07-14T23:27:00Z</time>
      </trkpt>
      <trkpt lat="35.855086030" lon="-106.490772690">
        <ele>2577.300</ele>
        <time>2019-07-14T23:27:01Z</time>
      </trkpt>
      <trkpt lat="35.855044500" lon="-106.490784200">
        <ele>2577.600</ele>
        <time>2019-07-14T23:27:02Z</time>
      </trkpt>
      <trkpt lat="35.855003820" lon="-106.490794550">
        <ele>2578.000</ele>
        <time>2019-07-14T23:27:03Z</time>
      </trkpt>
      <trkpt lat="35.854964190" lon="-106.490803580">
        <ele>2578.400</ele>
        <time>2019-07-14T23:27:04Z</time>
      </trkpt>
      <trkpt lat="35.854924780" lon="-106.490810890">
        <ele>2577.900</ele>
        <time>2019-07-14T23:27:05Z</time>
      </trkpt>
      <trkpt lat="35.854885400" lon="-106.490818290">
        <ele>2578.000</ele>
        <time>2019-07-14T23:27:06Z</time>
      </trkpt>
      <trkpt lat="35.854845830" lon="-106.490825500">
        <ele>2577.300</ele>
        <time>2019-07-14T23:27:07Z</time>
      </trkpt>
      <trkpt lat="35.854806680" lon="-106.490833000">
        <ele>2577.000</ele>
        <time>2019-07-14T23:27:08Z</time>
      </trkpt>
      <trkpt lat="35.854769350" lon="-106.490840650">
        <ele>2577.100</ele>
        <time>2019-07-14T23:27:09Z</time>
      </trkpt>
      <trkpt lat="35.854731810" lon="-106.490848010">
        <ele>2576.500</ele>
        <time>2019-07-14T23:27:10Z</time>
      </trkpt>
      <trkpt lat="35.854694670" lon="-106.490854400">
        <ele>2576.200</ele>
        <time>2019-07-14T23:27:11Z</time>
      </trkpt>
      <trkpt lat="35.854626370" lon="-106.490864280">
        <ele>2577.300</ele>
        <time>2019-07-14T23:27:13Z</time>
      </trkpt>
      <trkpt lat="35.854557830" lon="-106.490874670">
        <ele>2577.100</ele>
        <time>2019-07-14T23:27:15Z</time>
      </trkpt>
      <trkpt lat="35.854491270" lon="-106.490884750">
        <ele>2577.600</ele>
        <time>2019-07-14T23:27:17Z</time>
      </trkpt>
      <trkpt lat="35.854419990" lon="-106.490895440">
        <ele>2577.700</ele>
        <time>2019-07-14T23:27:19Z</time>
      </trkpt>
      <trkpt lat="35.854381350" lon="-106.490899780">
        <ele>2578.100</ele>
        <time>2019-07-14T23:27:20Z</time>
      </trkpt>
      <trkpt lat="35.854342790" lon="-106.490902800">
        <ele>2578.600</ele>
        <time>2019-07-14T23:27:21Z</time>
      </trkpt>
      <trkpt lat="35.854300280" lon="-106.490906340">
        <ele>2578.300</ele>
        <time>2019-07-14T23:27:22Z</time>
      </trkpt>
      <trkpt lat="35.854253340" lon="-106.490913560">
        <ele>2578.200</ele>
        <time>2019-07-14T23:27:23Z</time>
      </trkpt>
      <trkpt lat="35.854208150" lon="-106.490918650">
        <ele>2578.300</ele>
        <time>2019-07-14T23:27:24Z</time>
      </trkpt>
      <trkpt lat="35.854165640" lon="-106.490922070">
        <ele>2578.600</ele>
        <time>2019-07-14T23:27:25Z</time>
      </trkpt>
      <trkpt lat="35.854120680" lon="-106.490923550">
        <ele>2578.100</ele>
        <time>2019-07-14T23:27:26Z</time>
      </trkpt>
      <trkpt lat="35.854077510" lon="-106.490923890">
        <ele>2579.000</ele>
        <time>2019-07-14T23:27:27Z</time>
      </trkpt>
      <trkpt lat="35.854038410" lon="-106.490923490">
        <ele>2579.900</ele>
        <time>2019-07-14T23:27:28Z</time>
      </trkpt>
      <trkpt lat="35.853996460" lon="-106.490927270">
        <ele>2579.100</ele>
        <time>2019-07-14T23:27:29Z</time>
      </trkpt>
      <trkpt lat="35.853944680" lon="-106.490925470">
        <ele>2578.900</ele>
        <time>2019-07-14T23:27:30Z</time>
      </trkpt>
      <trkpt lat="35.853900000" lon="-106.490922950">
        <ele>2579.400</ele>
        <time>2019-07-14T23:27:31Z</time>
      </trkpt>
      <trkpt lat="35.853853840" lon="-106.490919810">
        <ele>2579.100</ele>
        <time>2019-07-14T23:27:32Z</time>
      </trkpt>
      <trkpt lat="35.853767720" lon="-106.490924520">
        <ele>2578.900</ele>
        <time>2019-07-14T23:27:34Z</time>
      </trkpt>
      <trkpt lat="35.853712030" lon="-106.490922790">
        <ele>2579.000</ele>
        <time>2019-07-14T23:27:35Z</time>
      </trkpt>
      <trkpt lat="35.853652660" lon="-106.490925290">
        <ele>2578.600</ele>
        <time>2019-07-14T23:27:36Z</time>
      </trkpt>
      <trkpt lat="35.853590570" lon="-106.490924470">
        <ele>2576.900</ele>
        <time>2019-07-14T23:27:37Z</time>
      </trkpt>
      <trkpt lat="35.853526080" lon="-106.490924760">
        <ele>2576.800</ele>
        <time>2019-07-14T23:27:38Z</time>
      </trkpt>
      <trkpt lat="35.853463090" lon="-106.490926900">
        <ele>2576.500</ele>
        <time>2019-07-14T23:27:39Z</time>
      </trkpt>
      <trkpt lat="35.853397020" lon="-106.490925470">
        <ele>2576.100</ele>
        <time>2019-07-14T23:27:40Z</time>
      </trkpt>
      <trkpt lat="35.853331500" lon="-106.490923890">
        <ele>2575.200</ele>
        <time>2019-07-14T23:27:41Z</time>
      </trkpt>
      <trkpt lat="35.853262340" lon="-106.490921050">
        <ele>2575.100</ele>
        <time>2019-07-14T23:27:42Z</time>
      </trkpt>
      <trkpt lat="35.853198430" lon="-106.490922730">
        <ele>2575.400</ele>
        <time>2019-07-14T23:27:43Z</time>
      </trkpt>
      <trkpt lat="35.853132420" lon="-106.490919560">
        <ele>2574.900</ele>
        <time>2019-07-14T23:27:44Z</time>
      </trkpt>
      <trkpt lat="35.853057420" lon="-106.490920110">
        <ele>2573.600</ele>
        <time>2019-07-14T23:27:45Z</time>
      </trkpt>
      <trkpt lat="35.852990160" lon="-106.490918580">
        <ele>2574.200</ele>
        <time>2019-07-14T23:27:46Z</time>
      </trkpt>
      <trkpt lat="35.852934190" lon="-106.490919660">
        <ele>2575.100</ele>
        <time>2019-07-14T23:27:47Z</time>
      </trkpt>
      <trkpt lat="35.852862240" lon="-106.490922020">
        <ele>2576.000</ele>
        <time>2019-07-14T23:27:48Z</time>
      </trkpt>
      <trkpt lat="35.852797750" lon="-106.490917270">
        <ele>2575.500</ele>
        <time>2019-07-14T23:27:49Z</time>
      </trkpt>
      <trkpt lat="35.852732120" lon="-106.490914520">
        <ele>2575.200</ele>
        <time>2019-07-14T23:27:50Z</time>
      </trkpt>
      <trkpt lat="35.852661380" lon="-106.490909470">
        <ele>2574.700</ele>
        <time>2019-07-14T23:27:51Z</time>
      </trkpt>
      <trkpt lat="35.852587170" lon="-106.490904900">
        <ele>2575.100</ele>
        <time>2019-07-14T23:27:52Z</time>
      </trkpt>
      <trkpt lat="35.852516500" lon="-106.490898040">
        <ele>2574.800</ele>
        <time>2019-07-14T23:27:53Z</time>
      </trkpt>
      <trkpt lat="35.852441020" lon="-106.490894980">
        <ele>2575.100</ele>
        <time>2019-07-14T23:27:54Z</time>
      </trkpt>
      <trkpt lat="35.852363900" lon="-106.490894470">
        <ele>2575.500</ele>
        <time>2019-07-14T23:27:55Z</time>
      </trkpt>
      <trkpt lat="35.852288030" lon="-106.490890770">
        <ele>2575.100</ele>
        <time>2019-07-14T23:27:56Z</time>
      </trkpt>
      <trkpt lat="35.852216820" lon="-106.490890480">
        <ele>2575.800</ele>
        <time>2019-07-14T23:27:57Z</time>
      </trkpt>
      <trkpt lat="35.852129870" lon="-106.490881590">
        <ele>2575.100</ele>
        <time>2019-07-14T23:27:58Z</time>
      </trkpt>
      <trkpt lat="35.852061210" lon="-106.490875110">
        <ele>2576.500</ele>
        <time>2019-07-14T23:27:59Z</time>
      </trkpt>
      <trkpt lat="35.851982490" lon="-106.490869490">
        <ele>2576.700</ele>
        <time>2019-07-14T23:28:00Z</time>
      </trkpt>
      <trkpt lat="35.851905380" lon="-106.490861790">
        <ele>2576.700</ele>
        <time>2019-07-14T23:28:01Z</time>
      </trkpt>
      <trkpt lat="35.851825070" lon="-106.490853700">
        <ele>2577.000</ele>
        <time>2019-07-14T23:28:02Z</time>
      </trkpt>
      <trkpt lat="35.851741660" lon="-106.490848730">
        <ele>2576.100</ele>
        <time>2019-07-14T23:28:03Z</time>
      </trkpt>
      <trkpt lat="35.851679510" lon="-106.490842500">
        <ele>2578.300</ele>
        <time>2019-07-14T23:28:04Z</time>
      </trkpt>
      <trkpt lat="35.851597880" lon="-106.490834600">
        <ele>2578.000</ele>
        <time>2019-07-14T23:28:05Z</time>
      </trkpt>
      <trkpt lat="35.851509740" lon="-106.490827520">
        <ele>2576.800</ele>
        <time>2019-07-14T23:28:06Z</time>
      </trkpt>
      <trkpt lat="35.851429260" lon="-106.490820800">
        <ele>2576.600</ele>
        <time>2019-07-14T23:28:07Z</time>
      </trkpt>
      <trkpt lat="35.851347880" lon="-106.490812120">
        <ele>2576.100</ele>
        <time>2019-07-14T23:28:08Z</time>
      </trkpt>
      <trkpt lat="35.851263960" lon="-106.490801710">
        <ele>2575.700</ele>
        <time>2019-07-14T23:28:09Z</time>
      </trkpt>
      <trkpt lat="35.851191120" lon="-106.490801090">
        <ele>2577.500</ele>
        <time>2019-07-14T23:28:10Z</time>
      </trkpt>
      <trkpt lat="35.851120240" lon="-106.490802750">
        <ele>2579.200</ele>
        <time>2019-07-14T23:28:11Z</time>
      </trkpt>
      <trkpt lat="35.851040450" lon="-106.490813630">
        <ele>2579.000</ele>
        <time>2019-07-14T23:28:12Z</time>
      </trkpt>
      <trkpt lat="35.850954640" lon="-106.490832190">
        <ele>2578.200</ele>
        <time>2019-07-14T23:28:13Z</time>
      </trkpt>
      <trkpt lat="35.850862610" lon="-106.490847910">
        <ele>2577.700</ele>
        <time>2019-07-14T23:28:14Z</time>
      </trkpt>
      <trkpt lat="35.850777550" lon="-106.490870970">
        <ele>2576.300</ele>
        <time>2019-07-14T23:28:15Z</time>
      </trkpt>
      <trkpt lat="35.850679020" lon="-106.490886120">
        <ele>2574.200</ele>
        <time>2019-07-14T23:28:16Z</time>
      </trkpt>
      <trkpt lat="35.850594570" lon="-106.490914710">
        <ele>2574.200</ele>
        <time>2019-07-14T23:28:17Z</time>
      </trkpt>
      <trkpt lat="35.850501620" lon="-106.490937600">
        <ele>2573.500</ele>
        <time>2019-07-14T23:28:18Z</time>
      </trkpt>
      <trkpt lat="35.850412440" lon="-106.490965670">
        <ele>2573.500</ele>
        <time>2019-07-14T23:28:19Z</time>
      </trkpt>
      <trkpt lat="35.850327230" lon="-106.490973980">
        <ele>2572.200</ele>
        <time>2019-07-14T23:28:20Z</time>
      </trkpt>
      <trkpt lat="35.850234030" lon="-106.491000400">
        <ele>2571.400</ele>
        <time>2019-07-14T23:28:21Z</time>
      </trkpt>
      <trkpt lat="35.850145800" lon="-106.491020140">
        <ele>2571.400</ele>
        <time>2019-07-14T23:28:22Z</time>
      </trkpt>
      <trkpt lat="35.850054200" lon="-106.491030010">
        <ele>2571.600</ele>
        <time>2019-07-14T23:28:23Z</time>
      </trkpt>
      <trkpt lat="35.849966790" lon="-106.491035060">
        <ele>2571.900</ele>
        <time>2019-07-14T23:28:24Z</time>
      </trkpt>
      <trkpt lat="35.849875030" lon="-106.491038660">
        <ele>2571.900</ele>
        <time>2019-07-14T23:28:25Z</time>
      </trkpt>
      <trkpt lat="35.849787860" lon="-106.491041020">
        <ele>2571.800</ele>
        <time>2019-07-14T23:28:26Z</time>
      </trkpt>
      <trkpt lat="35.849701270" lon="-106.491040880">
        <ele>2571.900</ele>
        <time>2019-07-14T23:28:27Z</time>
      </trkpt>
      <trkpt lat="35.849607860" lon="-106.491035660">
        <ele>2571.800</ele>
        <time>2019-07-14T23:28:28Z</time>
      </trkpt>
      <trkpt lat="35.849516780" lon="-106.491032180">
        <ele>2572.000</ele>
        <time>2019-07-14T23:28:29Z</time>
      </trkpt>
      <trkpt lat="35.849426510" lon="-106.491021620">
        <ele>2571.400</ele>
        <time>2019-07-14T23:28:30Z</time>
      </trkpt>
      <trkpt lat="35.849338220" lon="-106.491013370">
        <ele>2571.400</ele>
        <time>2019-07-14T23:28:31Z</time>
      </trkpt>
      <trkpt lat="35.849251870" lon="-106.490997300">
        <ele>2571.300</ele>
        <time>2019-07-14T23:28:32Z</time>
      </trkpt>
      <trkpt lat="35.849167490" lon="-106.490978180">
        <ele>2571.700</ele>
        <time>2019-07-14T23:28:33Z</time>
      </trkpt>
      <trkpt lat="35.849088300" lon="-106.490954110">
        <ele>2571.800</ele>
        <time>2019-07-14T23:28:34Z</time>
      </trkpt>
      <trkpt lat="35.849009500" lon="-106.490931470">
        <ele>2572.200</ele>
        <time>2019-07-14T23:28:35Z</time>
      </trkpt>
      <trkpt lat="35.848936670" lon="-106.490914450">
        <ele>2572.300</ele>
        <time>2019-07-14T23:28:36Z</time>
      </trkpt>
      <trkpt lat="35.848857960" lon="-106.490888510">
        <ele>2572.000</ele>
        <time>2019-07-14T23:28:37Z</time>
      </trkpt>
      <trkpt lat="35.848780760" lon="-106.490847960">
        <ele>2572.500</ele>
        <time>2019-07-14T23:28:38Z</time>
      </trkpt>
      <trkpt lat="35.848696200" lon="-106.490809360">
        <ele>2571.900</ele>
        <time>2019-07-14T23:28:39Z</time>
      </trkpt>
      <trkpt lat="35.848624380" lon="-106.490774100">
        <ele>2572.200</ele>
        <time>2019-07-14T23:28:40Z</time>
      </trkpt>
      <trkpt lat="35.848571830" lon="-106.490740070">
        <ele>2572.800</ele>
        <time>2019-07-14T23:28:41Z</time>
      </trkpt>
      <trkpt lat="35.848529160" lon="-106.490713500">
        <ele>2572.800</ele>
        <time>2019-07-14T23:28:42Z</time>
      </trkpt>
      <trkpt lat="35.848495290" lon="-106.490689570">
        <ele>2572.700</ele>
        <time>2019-07-14T23:28:43Z</time>
      </trkpt>
      <trkpt lat="35.848444630" lon="-106.490653460">
        <ele>2572.700</ele>
        <time>2019-07-14T23:28:45Z</time>
      </trkpt>
      <trkpt lat="35.848391680" lon="-106.490614050">
        <ele>2572.800</ele>
        <time>2019-07-14T23:28:47Z</time>
      </trkpt>
      <trkpt lat="35.848360040" lon="-106.490592630">
        <ele>2572.100</ele>
        <time>2019-07-14T23:28:48Z</time>
      </trkpt>
      <trkpt lat="35.848292840" lon="-106.490550210">
        <ele>2572.500</ele>
        <time>2019-07-14T23:28:50Z</time>
      </trkpt>
      <trkpt lat="35.848226090" lon="-106.490495520">
        <ele>2573.900</ele>
        <time>2019-07-14T23:28:52Z</time>
      </trkpt>
      <trkpt lat="35.848176180" lon="-106.490463320">
        <ele>2573.000</ele>
        <time>2019-07-14T23:28:53Z</time>
      </trkpt>
      <trkpt lat="35.848124490" lon="-106.490418080">
        <ele>2568.900</ele>
        <time>2019-07-14T23:28:54Z</time>
      </trkpt>
      <trkpt lat="35.848078940" lon="-106.490386960">
        <ele>2569.200</ele>
        <time>2019-07-14T23:28:55Z</time>
      </trkpt>
      <trkpt lat="35.848027520" lon="-106.490347960">
        <ele>2568.600</ele>
        <time>2019-07-14T23:28:56Z</time>
      </trkpt>
      <trkpt lat="35.847976680" lon="-106.490317170">
        <ele>2569.100</ele>
        <time>2019-07-14T23:28:57Z</time>
      </trkpt>
      <trkpt lat="35.847918920" lon="-106.490283210">
        <ele>2569.600</ele>
        <time>2019-07-14T23:28:58Z</time>
      </trkpt>
      <trkpt lat="35.847860000" lon="-106.490241350">
        <ele>2569.500</ele>
        <time>2019-07-14T23:28:59Z</time>
      </trkpt>
      <trkpt lat="35.847803600" lon="-106.490215140">
        <ele>2570.000</ele>
        <time>2019-07-14T23:29:00Z</time>
      </trkpt>
      <trkpt lat="35.847730040" lon="-106.490181050">
        <ele>2569.500</ele>
        <time>2019-07-14T23:29:01Z</time>
      </trkpt>
      <trkpt lat="35.847657070" lon="-106.490155390">
        <ele>2569.500</ele>
        <time>2019-07-14T23:29:02Z</time>
      </trkpt>
      <trkpt lat="35.847580470" lon="-106.490133280">
        <ele>2568.900</ele>
        <time>2019-07-14T23:29:03Z</time>
      </trkpt>
      <trkpt lat="35.847500550" lon="-106.490115460">
        <ele>2569.400</ele>
        <time>2019-07-14T23:29:04Z</time>
      </trkpt>
      <trkpt lat="35.847415620" lon="-106.490112930">
        <ele>2569.400</ele>
        <time>2019-07-14T23:29:05Z</time>
      </trkpt>
      <trkpt lat="35.847340100" lon="-106.490140750">
        <ele>2569.800</ele>
        <time>2019-07-14T23:29:06Z</time>
      </trkpt>
      <trkpt lat="35.847258050" lon="-106.490163750">
        <ele>2569.400</ele>
        <time>2019-07-14T23:29:07Z</time>
      </trkpt>
      <trkpt lat="35.847172580" lon="-106.490195550">
        <ele>2569.500</ele>
        <time>2019-07-14T23:29:08Z</time>
      </trkpt>
      <trkpt lat="35.847087070" lon="-106.490227160">
        <ele>2570.400</ele>
        <time>2019-07-14T23:29:09Z</time>
      </trkpt>
      <trkpt lat="35.847013400" lon="-106.490266790">
        <ele>2571.400</ele>
        <time>2019-07-14T23:29:10Z</time>
      </trkpt>
      <trkpt lat="35.846935040" lon="-106.490301440">
        <ele>2572.500</ele>
        <time>2019-07-14T23:29:11Z</time>
      </trkpt>
      <trkpt lat="35.846852120" lon="-106.490326770">
        <ele>2573.100</ele>
        <time>2019-07-14T23:29:12Z</time>
      </trkpt>
      <trkpt lat="35.846771030" lon="-106.490354890">
        <ele>2573.000</ele>
        <time>2019-07-14T23:29:13Z</time>
      </trkpt>
      <trkpt lat="35.846681020" lon="-106.490387100">
        <ele>2573.400</ele>
        <time>2019-07-14T23:29:14Z</time>
      </trkpt>
      <trkpt lat="35.846596370" lon="-106.490421470">
        <ele>2573.500</ele>
        <time>2019-07-14T23:29:15Z</time>
      </trkpt>
      <trkpt lat="35.846506320" lon="-106.490446440">
        <ele>2572.500</ele>
        <time>2019-07-14T23:29:16Z</time>
      </trkpt>
      <trkpt lat="35.846415740" lon="-106.490470300">
        <ele>2572.100</ele>
        <time>2019-07-14T23:29:17Z</time>
      </trkpt>
      <trkpt lat="35.846326940" lon="-106.490501400">
        <ele>2573.200</ele>
        <time>2019-07-14T23:29:18Z</time>
      </trkpt>
      <trkpt lat="35.846236940" lon="-106.490539690">
        <ele>2572.500</ele>
        <time>2019-07-14T23:29:19Z</time>
      </trkpt>
      <trkpt lat="35.846146540" lon="-106.490579550">
        <ele>2572.700</ele>
        <time>2019-07-14T23:29:20Z</time>
      </trkpt>
      <trkpt lat="35.846059390" lon="-106.490626820">
        <ele>2571.900</ele>
        <time>2019-07-14T23:29:21Z</time>
      </trkpt>
      <trkpt lat="35.845982980" lon="-106.490682080">
        <ele>2572.600</ele>
        <time>2019-07-14T23:29:22Z</time>
      </trkpt>
      <trkpt lat="35.845901830" lon="-106.490739880">
        <ele>2572.300</ele>
        <time>2019-07-14T23:29:23Z</time>
      </trkpt>
      <trkpt lat="35.845834240" lon="-106.490805260">
        <ele>2574.000</ele>
        <time>2019-07-14T23:29:24Z</time>
      </trkpt>
      <trkpt lat="35.845755260" lon="-106.490870050">
        <ele>2573.800</ele>
        <time>2019-07-14T23:29:25Z</time>
      </trkpt>
      <trkpt lat="35.845679750" lon="-106.490935100">
        <ele>2573.900</ele>
        <time>2019-07-14T23:29:26Z</time>
      </trkpt>
      <trkpt lat="35.845596740" lon="-106.491000220">
        <ele>2574.000</ele>
        <time>2019-07-14T23:29:27Z</time>
      </trkpt>
      <trkpt lat="35.845523360" lon="-106.491063450">
        <ele>2574.400</ele>
        <time>2019-07-14T23:29:28Z</time>
      </trkpt>
      <trkpt lat="35.845446320" lon="-106.491127870">
        <ele>2574.600</ele>
        <time>2019-07-14T23:29:29Z</time>
      </trkpt>
      <trkpt lat="35.845361050" lon="-106.491189970">
        <ele>2574.500</ele>
        <time>2019-07-14T23:29:30Z</time>
      </trkpt>
      <trkpt lat="35.845273100" lon="-106.491245330">
        <ele>2572.900</ele>
        <time>2019-07-14T23:29:31Z</time>
      </trkpt>
      <trkpt lat="35.845190690" lon="-106.491305380">
        <ele>2573.300</ele>
        <time>2019-07-14T23:29:32Z</time>
      </trkpt>
      <trkpt lat="35.845103030" lon="-106.491364540">
        <ele>2572.700</ele>
        <time>2019-07-14T23:29:33Z</time>
      </trkpt>
      <trkpt lat="35.845009120" lon="-106.491415330">
        <ele>2573.600</ele>
        <time>2019-07-14T23:29:34Z</time>
      </trkpt>
      <trkpt lat="35.844913700" lon="-106.491457280">
        <ele>2574.500</ele>
        <time>2019-07-14T23:29:35Z</time>
      </trkpt>
      <trkpt lat="35.844820700" lon="-106.491497670">
        <ele>2575.000</ele>
        <time>2019-07-14T23:29:36Z</time>
      </trkpt>
      <trkpt lat="35.844722340" lon="-106.491530610">
        <ele>2574.700</ele>
        <time>2019-07-14T23:29:37Z</time>
      </trkpt>
      <trkpt lat="35.844630400" lon="-106.491564470">
        <ele>2575.400</ele>
        <time>2019-07-14T23:29:38Z</time>
      </trkpt>
      <trkpt lat="35.844531720" lon="-106.491599550">
        <ele>2575.500</ele>
        <time>2019-07-14T23:29:39Z</time>
      </trkpt>
      <trkpt lat="35.844442050" lon="-106.491633350">
        <ele>2575.900</ele>
        <time>2019-07-14T23:29:40Z</time>
      </trkpt>
      <trkpt lat="35.844347470" lon="-106.491665860">
        <ele>2576.400</ele>
        <time>2019-07-14T23:29:41Z</time>
      </trkpt>
      <trkpt lat="35.844249450" lon="-106.491704570">
        <ele>2577.000</ele>
        <time>2019-07-14T23:29:42Z</time>
      </trkpt>
      <trkpt lat="35.844158900" lon="-106.491722090">
        <ele>2571.700</ele>
        <time>2019-07-14T23:29:43Z</time>
      </trkpt>
      <trkpt lat="35.844069970" lon="-106.491752480">
        <ele>2571.500</ele>
        <time>2019-07-14T23:29:44Z</time>
      </trkpt>
      <trkpt lat="35.843974060" lon="-106.491786520">
        <ele>2572.400</ele>
        <time>2019-07-14T23:29:45Z</time>
      </trkpt>
      <trkpt lat="35.843881840" lon="-106.491801150">
        <ele>2573.600</ele>
        <time>2019-07-14T23:29:46Z</time>
      </trkpt>
      <trkpt lat="35.843787080" lon="-106.491811510">
        <ele>2573.800</ele>
        <time>2019-07-14T23:29:47Z</time>
      </trkpt>
      <trkpt lat="35.843698220" lon="-106.491823790">
        <ele>2573.700</ele>
        <time>2019-07-14T23:29:48Z</time>
      </trkpt>
      <trkpt lat="35.843602210" lon="-106.491834290">
        <ele>2573.500</ele>
        <time>2019-07-14T23:29:49Z</time>
      </trkpt>
      <trkpt lat="35.843513870" lon="-106.491851100">
        <ele>2573.700</ele>
        <time>2019-07-14T23:29:50Z</time>
      </trkpt>
      <trkpt lat="35.843412960" lon="-106.491861880">
        <ele>2573.400</ele>
        <time>2019-07-14T23:29:51Z</time>
      </trkpt>
      <trkpt lat="35.843318810" lon="-106.491874380">
        <ele>2573.600</ele>
        <time>2019-07-14T23:29:52Z</time>
      </trkpt>
      <trkpt lat="35.843221580" lon="-106.491889030">
        <ele>2573.800</ele>
        <time>2019-07-14T23:29:53Z</time>
      </trkpt>
      <trkpt lat="35.843125970" lon="-106.491911890">
        <ele>2574.700</ele>
        <time>2019-07-14T23:29:54Z</time>
      </trkpt>
      <trkpt lat="35.843030740" lon="-106.491929770">
        <ele>2575.300</ele>
        <time>2019-07-14T23:29:55Z</time>
      </trkpt>
      <trkpt lat="35.842933800" lon="-106.491964500">
        <ele>2575.600</ele>
        <time>2019-07-14T23:29:56Z</time>
      </trkpt>
      <trkpt lat="35.842839200" lon="-106.492000010">
        <ele>2576.200</ele>
        <time>2019-07-14T23:29:57Z</time>
      </trkpt>
      <trkpt lat="35.842741950" lon="-106.492032220">
        <ele>2575.900</ele>
        <time>2019-07-14T23:29:58Z</time>
      </trkpt>
      <trkpt lat="35.842641580" lon="-106.492074060">
        <ele>2575.600</ele>
        <time>2019-07-14T23:29:59Z</time>
      </trkpt>
      <trkpt lat="35.842537560" lon="-106.492106460">
        <ele>2575.100</ele>
        <time>2019-07-14T23:30:00Z</time>
      </trkpt>
      <trkpt lat="35.842431800" lon="-106.492144960">
        <ele>2575.600</ele>
        <time>2019-07-14T23:30:01Z</time>
      </trkpt>
      <trkpt lat="35.842324610" lon="-106.492180380">
        <ele>2575.800</ele>
        <time>2019-07-14T23:30:02Z</time>
      </trkpt>
      <trkpt lat="35.842218460" lon="-106.492216800">
        <ele>2575.300</ele>
        <time>2019-07-14T23:30:03Z</time>
      </trkpt>
      <trkpt lat="35.842108300" lon="-106.492256440">
        <ele>2575.400</ele>
        <time>2019-07-14T23:30:04Z</time>
      </trkpt>
      <trkpt lat="35.841998430" lon="-106.492295890">
        <ele>2575.400</ele>
        <time>2019-07-14T23:30:05Z</time>
      </trkpt>
      <trkpt lat="35.841887220" lon="-106.492333020">
        <ele>2574.300</ele>
        <time>2019-07-14T23:30:06Z</time>
      </trkpt>
      <trkpt lat="35.841778310" lon="-106.492371420">
        <ele>2573.600</ele>
        <time>2019-07-14T23:30:07Z</time>
      </trkpt>
      <trkpt lat="35.841666540" lon="-106.492420770">
        <ele>2572.900</ele>
        <time>2019-07-14T23:30:08Z</time>
      </trkpt>
      <trkpt lat="35.841565670" lon="-106.492458590">
        <ele>2573.600</ele>
        <time>2019-07-14T23:30:09Z</time>
      </trkpt>
      <trkpt lat="35.841463790" lon="-106.492486850">
        <ele>2573.700</ele>
        <time>2019-07-14T23:30:10Z</time>
      </trkpt>
      <trkpt lat="35.841358770" lon="-106.492501120">
        <ele>2572.800</ele>
        <time>2019-07-14T23:30:11Z</time>
      </trkpt>
      <trkpt lat="35.841260070" lon="-106.492514170">
        <ele>2572.700</ele>
        <time>2019-07-14T23:30:12Z</time>
      </trkpt>
      <trkpt lat="35.841168050" lon="-106.492500060">
        <ele>2572.700</ele>
        <time>2019-07-14T23:30:13Z</time>
      </trkpt>
      <trkpt lat="35.841103790" lon="-106.492485530">
        <ele>2575.300</ele>
        <time>2019-07-14T23:30:14Z</time>
      </trkpt>
      <trkpt lat="35.841040420" lon="-106.492466480">
        <ele>2575.300</ele>
        <time>2019-07-14T23:30:15Z</time>
      </trkpt>
      <trkpt lat="35.841003320" lon="-106.492436270">
        <ele>2577.600</ele>
        <time>2019-07-14T23:30:16Z</time>
      </trkpt>
      <trkpt lat="35.840956110" lon="-106.492410950">
        <ele>2578.500</ele>
        <time>2019-07-14T23:30:17Z</time>
      </trkpt>
      <trkpt lat="35.840915020" lon="-106.492390190">
        <ele>2579.400</ele>
        <time>2019-07-14T23:30:18Z</time>
      </trkpt>
      <trkpt lat="35.840876770" lon="-106.492362950">
        <ele>2579.700</ele>
        <time>2019-07-14T23:30:19Z</time>
      </trkpt>
      <trkpt lat="35.840837880" lon="-106.492337750">
        <ele>2581.500</ele>
        <time>2019-07-14T23:30:20Z</time>
      </trkpt>
      <trkpt lat="35.840792260" lon="-106.492308020">
        <ele>2580.900</ele>
        <time>2019-07-14T23:30:21Z</time>
      </trkpt>
      <trkpt lat="35.840759050" lon="-106.492278920">
        <ele>2582.400</ele>
        <time>2019-07-14T23:30:22Z</time>
      </trkpt>
      <trkpt lat="35.840710000" lon="-106.492244110">
        <ele>2581.800</ele>
        <time>2019-07-14T23:30:23Z</time>
      </trkpt>
      <trkpt lat="35.840656030" lon="-106.492208430">
        <ele>2582.400</ele>
        <time>2019-07-14T23:30:24Z</time>
      </trkpt>
      <trkpt lat="35.840599770" lon="-106.492162030">
        <ele>2582.400</ele>
        <time>2019-07-14T23:30:25Z</time>
      </trkpt>
      <trkpt lat="35.840538370" lon="-106.492108280">
        <ele>2582.600</ele>
        <time>2019-07-14T23:30:26Z</time>
      </trkpt>
      <trkpt lat="35.840470420" lon="-106.492061740">
        <ele>2583.400</ele>
        <time>2019-07-14T23:30:27Z</time>
      </trkpt>
      <trkpt lat="35.840408720" lon="-106.492018280">
        <ele>2584.700</ele>
        <time>2019-07-14T23:30:28Z</time>
      </trkpt>
      <trkpt lat="35.840339300" lon="-106.491976460">
        <ele>2586.300</ele>
        <time>2019-07-14T23:30:29Z</time>
      </trkpt>
      <trkpt lat="35.840264800" lon="-106.491938270">
        <ele>2587.300</ele>
        <time>2019-07-14T23:30:30Z</time>
      </trkpt>
      <trkpt lat="35.840185040" lon="-106.491914400">
        <ele>2587.200</ele>
        <time>2019-07-14T23:30:31Z</time>
      </trkpt>
      <trkpt lat="35.840098040" lon="-106.491890660">
        <ele>2587.200</ele>
        <time>2019-07-14T23:30:32Z</time>
      </trkpt>
      <trkpt lat="35.840008820" lon="-106.491866470">
        <ele>2587.000</ele>
        <time>2019-07-14T23:30:33Z</time>
      </trkpt>
      <trkpt lat="35.839922450" lon="-106.491840760">
        <ele>2587.000</ele>
        <time>2019-07-14T23:30:34Z</time>
      </trkpt>
      <trkpt lat="35.839829180" lon="-106.491826070">
        <ele>2586.200</ele>
        <time>2019-07-14T23:30:35Z</time>
      </trkpt>
      <trkpt lat="35.839735450" lon="-106.491804590">
        <ele>2586.400</ele>
        <time>2019-07-14T23:30:36Z</time>
      </trkpt>
      <trkpt lat="35.839646550" lon="-106.491790820">
        <ele>2586.600</ele>
        <time>2019-07-14T23:30:37Z</time>
      </trkpt>
      <trkpt lat="35.839554670" lon="-106.491786280">
        <ele>2586.800</ele>
        <time>2019-07-14T23:30:38Z</time>
      </trkpt>
      <trkpt lat="35.839461690" lon="-106.491783890">
        <ele>2586.100</ele>
        <time>2019-07-14T23:30:39Z</time>
      </trkpt>
      <trkpt lat="35.839366680" lon="-106.491784370">
        <ele>2585.900</ele>
        <time>2019-07-14T23:30:40Z</time>
      </trkpt>
      <trkpt lat="35.839266200" lon="-106.491796430">
        <ele>2586.200</ele>
        <time>2019-07-14T23:30:41Z</time>
      </trkpt>
      <trkpt lat="35.839171820" lon="-106.491806930">
        <ele>2586.200</ele>
        <time>2019-07-14T23:30:42Z</time>
      </trkpt>
      <trkpt lat="35.839075740" lon="-106.491818550">
        <ele>2586.000</ele>
        <time>2019-07-14T23:30:43Z</time>
      </trkpt>
      <trkpt lat="35.838984110" lon="-106.491828370">
        <ele>2585.700</ele>
        <time>2019-07-14T23:30:44Z</time>
      </trkpt>
      <trkpt lat="35.838896570" lon="-106.491835080">
        <ele>2585.200</ele>
        <time>2019-07-14T23:30:45Z</time>
      </trkpt>
      <trkpt lat="35.838807000" lon="-106.491841580">
        <ele>2586.200</ele>
        <time>2019-07-14T23:30:46Z</time>
      </trkpt>
      <trkpt lat="35.838717700" lon="-106.491855830">
        <ele>2585.300</ele>
        <time>2019-07-14T23:30:47Z</time>
      </trkpt>
      <trkpt lat="35.838628890" lon="-106.491857970">
        <ele>2585.200</ele>
        <time>2019-07-14T23:30:48Z</time>
      </trkpt>
      <trkpt lat="35.838544320" lon="-106.491837660">
        <ele>2585.800</ele>
        <time>2019-07-14T23:30:49Z</time>
      </trkpt>
      <trkpt lat="35.838456370" lon="-106.491815170">
        <ele>2585.300</ele>
        <time>2019-07-14T23:30:50Z</time>
      </trkpt>
      <trkpt lat="35.838361360" lon="-106.491788790">
        <ele>2585.300</ele>
        <time>2019-07-14T23:30:51Z</time>
      </trkpt>
      <trkpt lat="35.838274150" lon="-106.491742590">
        <ele>2585.200</ele>
        <time>2019-07-14T23:30:52Z</time>
      </trkpt>
      <trkpt lat="35.838198340" lon="-106.491705670">
        <ele>2586.800</ele>
        <time>2019-07-14T23:30:53Z</time>
      </trkpt>
      <trkpt lat="35.838118670" lon="-106.491683320">
        <ele>2587.200</ele>
        <time>2019-07-14T23:30:54Z</time>
      </trkpt>
      <trkpt lat="35.838033970" lon="-106.491645890">
        <ele>2588.600</ele>
        <time>2019-07-14T23:30:55Z</time>
      </trkpt>
      <trkpt lat="35.837941250" lon="-106.491604810">
        <ele>2588.600</ele>
        <time>2019-07-14T23:30:56Z</time>
      </trkpt>
      <trkpt lat="35.837856630" lon="-106.491573910">
        <ele>2589.900</ele>
        <time>2019-07-14T23:30:57Z</time>
      </trkpt>
      <trkpt lat="35.837766530" lon="-106.491537220">
        <ele>2590.000</ele>
        <time>2019-07-14T23:30:58Z</time>
      </trkpt>
      <trkpt lat="35.837675880" lon="-106.491507790">
        <ele>2590.800</ele>
        <time>2019-07-14T23:30:59Z</time>
      </trkpt>
      <trkpt lat="35.837582050" lon="-106.491479660">
        <ele>2590.900</ele>
        <time>2019-07-14T23:31:00Z</time>
      </trkpt>
      <trkpt lat="35.837487850" lon="-106.491456830">
        <ele>2590.600</ele>
        <time>2019-07-14T23:31:01Z</time>
      </trkpt>
      <trkpt lat="35.837403920" lon="-106.491428860">
        <ele>2591.100</ele>
        <time>2019-07-14T23:31:02Z</time>
      </trkpt>
      <trkpt lat="35.837318540" lon="-106.491408880">
        <ele>2592.000</ele>
        <time>2019-07-14T23:31:03Z</time>
      </trkpt>
      <trkpt lat="35.837236170" lon="-106.491386640">
        <ele>2592.300</ele>
        <time>2019-07-14T23:31:04Z</time>
      </trkpt>
      <trkpt lat="35.837152320" lon="-106.491372050">
        <ele>2592.600</ele>
        <time>2019-07-14T23:31:05Z</time>
      </trkpt>
      <trkpt lat="35.837059910" lon="-106.491359390">
        <ele>2592.100</ele>
        <time>2019-07-14T23:31:06Z</time>
      </trkpt>
      <trkpt lat="35.836962260" lon="-106.491344240">
        <ele>2592.000</ele>
        <time>2019-07-14T23:31:07Z</time>
      </trkpt>
      <trkpt lat="35.836872230" lon="-106.491326730">
        <ele>2592.700</ele>
        <time>2019-07-14T23:31:08Z</time>
      </trkpt>
      <trkpt lat="35.836781950" lon="-106.491303080">
        <ele>2593.500</ele>
        <time>2019-07-14T23:31:09Z</time>
      </trkpt>
      <trkpt lat="35.836691750" lon="-106.491278380">
        <ele>2594.100</ele>
        <time>2019-07-14T23:31:10Z</time>
      </trkpt>
      <trkpt lat="35.836601070" lon="-106.491249550">
        <ele>2594.600</ele>
        <time>2019-07-14T23:31:11Z</time>
      </trkpt>
      <trkpt lat="35.836507660" lon="-106.491226160">
        <ele>2594.900</ele>
        <time>2019-07-14T23:31:12Z</time>
      </trkpt>
      <trkpt lat="35.836412150" lon="-106.491196270">
        <ele>2594.800</ele>
        <time>2019-07-14T23:31:13Z</time>
      </trkpt>
      <trkpt lat="35.836322870" lon="-106.491174450">
        <ele>2595.400</ele>
        <time>2019-07-14T23:31:14Z</time>
      </trkpt>
      <trkpt lat="35.836225300" lon="-106.491153860">
        <ele>2595.900</ele>
        <time>2019-07-14T23:31:15Z</time>
      </trkpt>
      <trkpt lat="35.836127210" lon="-106.491130320">
        <ele>2596.500</ele>
        <time>2019-07-14T23:31:16Z</time>
      </trkpt>
      <trkpt lat="35.836038910" lon="-106.491116870">
        <ele>2597.300</ele>
        <time>2019-07-14T23:31:17Z</time>
      </trkpt>
      <trkpt lat="35.835954970" lon="-106.491110870">
        <ele>2598.400</ele>
        <time>2019-07-14T23:31:18Z</time>
      </trkpt>
      <trkpt lat="35.835871650" lon="-106.491109520">
        <ele>2598.200</ele>
        <time>2019-07-14T23:31:19Z</time>
      </trkpt>
      <trkpt lat="35.835783810" lon="-106.491101190">
        <ele>2598.100</ele>
        <time>2019-07-14T23:31:20Z</time>
      </trkpt>
      <trkpt lat="35.835703540" lon="-106.491092470">
        <ele>2598.800</ele>
        <time>2019-07-14T23:31:21Z</time>
      </trkpt>
      <trkpt lat="35.835620610" lon="-106.491082120">
        <ele>2599.900</ele>
        <time>2019-07-14T23:31:22Z</time>
      </trkpt>
      <trkpt lat="35.835534790" lon="-106.491069240">
        <ele>2599.600</ele>
        <time>2019-07-14T23:31:23Z</time>
      </trkpt>
      <trkpt lat="35.835451910" lon="-106.491056060">
        <ele>2600.300</ele>
        <time>2019-07-14T23:31:24Z</time>
      </trkpt>
      <trkpt lat="35.835366030" lon="-106.491037500">
        <ele>2600.300</ele>
        <time>2019-07-14T23:31:25Z</time>
      </trkpt>
      <trkpt lat="35.835287780" lon="-106.491017710">
        <ele>2600.700</ele>
        <time>2019-07-14T23:31:26Z</time>
      </trkpt>
      <trkpt lat="35.835205960" lon="-106.490995440">
        <ele>2600.800</ele>
        <time>2019-07-14T23:31:27Z</time>
      </trkpt>
      <trkpt lat="35.835130180" lon="-106.490972660">
        <ele>2600.400</ele>
        <time>2019-07-14T23:31:28Z</time>
      </trkpt>
      <trkpt lat="35.835049060" lon="-106.490947090">
        <ele>2600.200</ele>
        <time>2019-07-14T23:31:29Z</time>
      </trkpt>
      <trkpt lat="35.834971490" lon="-106.490912440">
        <ele>2601.300</ele>
        <time>2019-07-14T23:31:30Z</time>
      </trkpt>
      <trkpt lat="35.834901680" lon="-106.490874190">
        <ele>2602.100</ele>
        <time>2019-07-14T23:31:31Z</time>
      </trkpt>
      <trkpt lat="35.834826970" lon="-106.490826620">
        <ele>2602.300</ele>
        <time>2019-07-14T23:31:32Z</time>
      </trkpt>
      <trkpt lat="35.834756260" lon="-106.490779250">
        <ele>2602.400</ele>
        <time>2019-07-14T23:31:33Z</time>
      </trkpt>
      <trkpt lat="35.834692640" lon="-106.490736910">
        <ele>2603.100</ele>
        <time>2019-07-14T23:31:34Z</time>
      </trkpt>
      <trkpt lat="35.834620120" lon="-106.490694520">
        <ele>2602.300</ele>
        <time>2019-07-14T23:31:35Z</time>
      </trkpt>
      <trkpt lat="35.834554420" lon="-106.490648820">
        <ele>2602.500</ele>
        <time>2019-07-14T23:31:36Z</time>
      </trkpt>
      <trkpt lat="35.834482190" lon="-106.490598870">
        <ele>2602.000</ele>
        <time>2019-07-14T23:31:37Z</time>
      </trkpt>
      <trkpt lat="35.834415240" lon="-106.490554470">
        <ele>2601.800</ele>
        <time>2019-07-14T23:31:38Z</time>
      </trkpt>
      <trkpt lat="35.834363710" lon="-106.490511930">
        <ele>2602.900</ele>
        <time>2019-07-14T23:31:39Z</time>
      </trkpt>
      <trkpt lat="35.834297130" lon="-106.490463300">
        <ele>2603.100</ele>
        <time>2019-07-14T23:31:40Z</time>
      </trkpt>
      <trkpt lat="35.834239770" lon="-106.490416970">
        <ele>2604.700</ele>
        <time>2019-07-14T23:31:41Z</time>
      </trkpt>
      <trkpt lat="35.834178860" lon="-106.490369530">
        <ele>2605.900</ele>
        <time>2019-07-14T23:31:42Z</time>
      </trkpt>
      <trkpt lat="35.834129250" lon="-106.490329950">
        <ele>2607.200</ele>
        <time>2019-07-14T23:31:43Z</time>
      </trkpt>
      <trkpt lat="35.834072040" lon="-106.490279450">
        <ele>2608.800</ele>
        <time>2019-07-14T23:31:44Z</time>
      </trkpt>
      <trkpt lat="35.834014690" lon="-106.490226450">
        <ele>2609.500</ele>
        <time>2019-07-14T23:31:45Z</time>
      </trkpt>
      <trkpt lat="35.833957240" lon="-106.490163280">
        <ele>2610.200</ele>
        <time>2019-07-14T23:31:46Z</time>
      </trkpt>
      <trkpt lat="35.833900510" lon="-106.490106980">
        <ele>2611.100</ele>
        <time>2019-07-14T23:31:47Z</time>
      </trkpt>
      <trkpt lat="35.833848740" lon="-106.490038980">
        <ele>2611.600</ele>
        <time>2019-07-14T23:31:48Z</time>
      </trkpt>
      <trkpt lat="35.833807350" lon="-106.489971780">
        <ele>2612.900</ele>
        <time>2019-07-14T23:31:49Z</time>
      </trkpt>
      <trkpt lat="35.833757480" lon="-106.489903710">
        <ele>2613.300</ele>
        <time>2019-07-14T23:31:50Z</time>
      </trkpt>
      <trkpt lat="35.833704070" lon="-106.489818310">
        <ele>2612.100</ele>
        <time>2019-07-14T23:31:51Z</time>
      </trkpt>
      <trkpt lat="35.833657500" lon="-106.489739640">
        <ele>2613.800</ele>
        <time>2019-07-14T23:31:52Z</time>
      </trkpt>
      <trkpt lat="35.833614260" lon="-106.489659530">
        <ele>2614.600</ele>
        <time>2019-07-14T23:31:53Z</time>
      </trkpt>
      <trkpt lat="35.833567160" lon="-106.489582470">
        <ele>2615.100</ele>
        <time>2019-07-14T23:31:54Z</time>
      </trkpt>
      <trkpt lat="35.833522260" lon="-106.489504740">
        <ele>2616.300</ele>
        <time>2019-07-14T23:31:55Z</time>
      </trkpt>
      <trkpt lat="35.833474900" lon="-106.489424990">
        <ele>2616.300</ele>
        <time>2019-07-14T23:31:56Z</time>
      </trkpt>
      <trkpt lat="35.833430890" lon="-106.489344540">
        <ele>2616.800</ele>
        <time>2019-07-14T23:31:57Z</time>
      </trkpt>
      <trkpt lat="35.833386750" lon="-106.489270300">
        <ele>2617.500</ele>
        <time>2019-07-14T23:31:58Z</time>
      </trkpt>
      <trkpt lat="35.833338160" lon="-106.489199090">
        <ele>2618.300</ele>
        <time>2019-07-14T23:31:59Z</time>
      </trkpt>
      <trkpt lat="35.833290400" lon="-106.489129340">
        <ele>2619.000</ele>
        <time>2019-07-14T23:32:00Z</time>
      </trkpt>
      <trkpt lat="35.833234660" lon="-106.489053600">
        <ele>2619.800</ele>
        <time>2019-07-14T23:32:01Z</time>
      </trkpt>
      <trkpt lat="35.833177670" lon="-106.488974840">
        <ele>2620.500</ele>
        <time>2019-07-14T23:32:02Z</time>
      </trkpt>
      <trkpt lat="35.833118380" lon="-106.488892940">
        <ele>2620.600</ele>
        <time>2019-07-14T23:32:03Z</time>
      </trkpt>
      <trkpt lat="35.833063430" lon="-106.488815270">
        <ele>2620.900</ele>
        <time>2019-07-14T23:32:04Z</time>
      </trkpt>
      <trkpt lat="35.833004520" lon="-106.488741690">
        <ele>2621.100</ele>
        <time>2019-07-14T23:32:05Z</time>
      </trkpt>
      <trkpt lat="35.832943650" lon="-106.488664630">
        <ele>2622.500</ele>
        <time>2019-07-14T23:32:06Z</time>
      </trkpt>
      <trkpt lat="35.832883870" lon="-106.488591990">
        <ele>2623.100</ele>
        <time>2019-07-14T23:32:07Z</time>
      </trkpt>
      <trkpt lat="35.832821600" lon="-106.488514210">
        <ele>2623.700</ele>
        <time>2019-07-14T23:32:08Z</time>
      </trkpt>
      <trkpt lat="35.832766580" lon="-106.488439020">
        <ele>2624.500</ele>
        <time>2019-07-14T23:32:09Z</time>
      </trkpt>
      <trkpt lat="35.832713330" lon="-106.488359830">
        <ele>2625.200</ele>
        <time>2019-07-14T23:32:10Z</time>
      </trkpt>
      <trkpt lat="35.832652590" lon="-106.488282730">
        <ele>2625.000</ele>
        <time>2019-07-14T23:32:11Z</time>
      </trkpt>
      <trkpt lat="35.832597410" lon="-106.488196540">
        <ele>2624.600</ele>
        <time>2019-07-14T23:32:12Z</time>
      </trkpt>
      <trkpt lat="35.832541000" lon="-106.488114320">
        <ele>2624.900</ele>
        <time>2019-07-14T23:32:13Z</time>
      </trkpt>
      <trkpt lat="35.832488450" lon="-106.488038220">
        <ele>2625.000</ele>
        <time>2019-07-14T23:32:14Z</time>
      </trkpt>
      <trkpt lat="35.832453890" lon="-106.487964150">
        <ele>2626.400</ele>
        <time>2019-07-14T23:32:15Z</time>
      </trkpt>
      <trkpt lat="35.832416280" lon="-106.487891220">
        <ele>2626.800</ele>
        <time>2019-07-14T23:32:16Z</time>
      </trkpt>
      <trkpt lat="35.832381660" lon="-106.487825550">
        <ele>2627.900</ele>
        <time>2019-07-14T23:32:17Z</time>
      </trkpt>
      <trkpt lat="35.832335330" lon="-106.487750340">
        <ele>2628.000</ele>
        <time>2019-07-14T23:32:18Z</time>
      </trkpt>
      <trkpt lat="35.832299490" lon="-106.487676360">
        <ele>2628.700</ele>
        <time>2019-07-14T23:32:19Z</time>
      </trkpt>
      <trkpt lat="35.832264220" lon="-106.487605830">
        <ele>2629.900</ele>
        <time>2019-07-14T23:32:20Z</time>
      </trkpt>
      <trkpt lat="35.832234280" lon="-106.487537210">
        <ele>2631.000</ele>
        <time>2019-07-14T23:32:21Z</time>
      </trkpt>
      <trkpt lat="35.832223270" lon="-106.487466090">
        <ele>2631.200</ele>
        <time>2019-07-14T23:32:22Z</time>
      </trkpt>
      <trkpt lat="35.832200740" lon="-106.487402620">
        <ele>2631.400</ele>
        <time>2019-07-14T23:32:23Z</time>
      </trkpt>
      <trkpt lat="35.832182860" lon="-106.487345760">
        <ele>2631.300</ele>
        <time>2019-07-14T23:32:24Z</time>
      </trkpt>
      <trkpt lat="35.832161740" lon="-106.487298600">
        <ele>2631.500</ele>
        <time>2019-07-14T23:32:25Z</time>
      </trkpt>
      <trkpt lat="35.832129510" lon="-106.487226850">
        <ele>2631.700</ele>
        <time>2019-07-14T23:32:27Z</time>
      </trkpt>
      <trkpt lat="35.832133050" lon="-106.487237310">
        <ele>2630.500</ele>
        <time>2019-07-14T23:32:39Z</time>
      </trkpt>
    </trkseg>
  </trk>
</gpx>
